<?xml version="1.0" encoding="UTF-8"?>
<gpx version="1.1" creator="https://www.youtrack.es" xsi:schemaLocation="http://www.topografix.com/GPX/1/1 http://www.topografix.com/GPX/1/1/gpx.xsd http://www.garmin.com/xmlschemas/GpxExtensions/v3 http://www.garmin.com/xmlschemas/GpxExtensionsv3.xsd http://www.garmin.com/xmlschemas/TrackPointExtension/v1 http://www.garmin.com/xmlschemas/TrackPointExtensionv1.xsd" xmlns:gpxtpx="http://www.garmin.com/xmlschemas/TrackPointExtension/v1" xmlns:gpxx="http://www.garmin.com/xmlschemas/GpxExtensions/v3" xmlns:xsi="http://www.w3.org/2001/XMLSchema-instance">
  <metadata>
    <author>
      <name>ruben tacor</name>
      <email id="iphoneruben8" domain="gmail.com"/>
    </author>
    <link href="https://www.youtrack.es">
      <text>YouTrack.es</text>
    </link>
    <time>2026-05-09T02:39:50Z</time>
  </metadata>
  <trk>
    <src>https://www.youtrack.es</src>
    <link href="https://www.youtrack.es/ruta/1653-25-guayadeque">
      <text>YouTrack.es</text>
    </link>
    <trkseg>
      <trkpt lat="27.937284" lon="-15.512297">
        <ele>976.80</ele>
        <time>2018-08-06T18:27:19Z</time>
      </trkpt>
      <trkpt lat="27.937288" lon="-15.512310">
        <ele>977.20</ele>
        <time>2018-08-06T18:27:20Z</time>
      </trkpt>
      <trkpt lat="27.937292" lon="-15.512326">
        <ele>980.20</ele>
        <time>2018-08-06T18:27:21Z</time>
      </trkpt>
      <trkpt lat="27.937296" lon="-15.512344">
        <ele>980.60</ele>
        <time>2018-08-06T18:27:22Z</time>
      </trkpt>
      <trkpt lat="27.937300" lon="-15.512366">
        <ele>982.80</ele>
        <time>2018-08-06T18:27:23Z</time>
      </trkpt>
      <trkpt lat="27.937313" lon="-15.512386">
        <ele>982.20</ele>
        <time>2018-08-06T18:27:24Z</time>
      </trkpt>
      <trkpt lat="27.937324" lon="-15.512404">
        <ele>982.40</ele>
        <time>2018-08-06T18:27:25Z</time>
      </trkpt>
      <trkpt lat="27.937335" lon="-15.512423">
        <ele>982.20</ele>
        <time>2018-08-06T18:27:26Z</time>
      </trkpt>
      <trkpt lat="27.937356" lon="-15.512431">
        <ele>982.40</ele>
        <time>2018-08-06T18:27:27Z</time>
      </trkpt>
      <trkpt lat="27.937377" lon="-15.512446">
        <ele>982.40</ele>
        <time>2018-08-06T18:27:28Z</time>
      </trkpt>
      <trkpt lat="27.937390" lon="-15.512466">
        <ele>982.60</ele>
        <time>2018-08-06T18:27:29Z</time>
      </trkpt>
      <trkpt lat="27.937395" lon="-15.512485">
        <ele>982.60</ele>
        <time>2018-08-06T18:27:30Z</time>
      </trkpt>
      <trkpt lat="27.937399" lon="-15.512507">
        <ele>983.00</ele>
        <time>2018-08-06T18:27:31Z</time>
      </trkpt>
      <trkpt lat="27.937404" lon="-15.512529">
        <ele>983.40</ele>
        <time>2018-08-06T18:27:32Z</time>
      </trkpt>
      <trkpt lat="27.937406" lon="-15.512555">
        <ele>983.60</ele>
        <time>2018-08-06T18:27:33Z</time>
      </trkpt>
      <trkpt lat="27.937406" lon="-15.512577">
        <ele>983.80</ele>
        <time>2018-08-06T18:27:34Z</time>
      </trkpt>
      <trkpt lat="27.937404" lon="-15.512603">
        <ele>984.20</ele>
        <time>2018-08-06T18:27:35Z</time>
      </trkpt>
      <trkpt lat="27.937400" lon="-15.512624">
        <ele>984.60</ele>
        <time>2018-08-06T18:27:36Z</time>
      </trkpt>
      <trkpt lat="27.937398" lon="-15.512647">
        <ele>985.00</ele>
        <time>2018-08-06T18:27:37Z</time>
      </trkpt>
      <trkpt lat="27.937394" lon="-15.512669">
        <ele>985.60</ele>
        <time>2018-08-06T18:27:38Z</time>
      </trkpt>
      <trkpt lat="27.937385" lon="-15.512695">
        <ele>986.20</ele>
        <time>2018-08-06T18:27:39Z</time>
      </trkpt>
      <trkpt lat="27.937374" lon="-15.512720">
        <ele>986.40</ele>
        <time>2018-08-06T18:27:40Z</time>
      </trkpt>
      <trkpt lat="27.937362" lon="-15.512747">
        <ele>986.60</ele>
        <time>2018-08-06T18:27:41Z</time>
      </trkpt>
      <trkpt lat="27.937351" lon="-15.512774">
        <ele>986.80</ele>
        <time>2018-08-06T18:27:42Z</time>
      </trkpt>
      <trkpt lat="27.937339" lon="-15.512802">
        <ele>987.00</ele>
        <time>2018-08-06T18:27:43Z</time>
      </trkpt>
      <trkpt lat="27.937329" lon="-15.512831">
        <ele>987.20</ele>
        <time>2018-08-06T18:27:44Z</time>
      </trkpt>
      <trkpt lat="27.937325" lon="-15.512859">
        <ele>987.20</ele>
        <time>2018-08-06T18:27:45Z</time>
      </trkpt>
      <trkpt lat="27.937325" lon="-15.512887">
        <ele>987.20</ele>
        <time>2018-08-06T18:27:46Z</time>
      </trkpt>
      <trkpt lat="27.937324" lon="-15.512915">
        <ele>987.40</ele>
        <time>2018-08-06T18:27:47Z</time>
      </trkpt>
      <trkpt lat="27.937325" lon="-15.512945">
        <ele>987.60</ele>
        <time>2018-08-06T18:27:48Z</time>
      </trkpt>
      <trkpt lat="27.937328" lon="-15.512968">
        <ele>987.80</ele>
        <time>2018-08-06T18:27:49Z</time>
      </trkpt>
      <trkpt lat="27.937332" lon="-15.512994">
        <ele>988.40</ele>
        <time>2018-08-06T18:27:50Z</time>
      </trkpt>
      <trkpt lat="27.937337" lon="-15.513018">
        <ele>989.00</ele>
        <time>2018-08-06T18:27:51Z</time>
      </trkpt>
      <trkpt lat="27.937342" lon="-15.513041">
        <ele>989.60</ele>
        <time>2018-08-06T18:27:52Z</time>
      </trkpt>
      <trkpt lat="27.937349" lon="-15.513064">
        <ele>990.00</ele>
        <time>2018-08-06T18:27:53Z</time>
      </trkpt>
      <trkpt lat="27.937359" lon="-15.513086">
        <ele>990.40</ele>
        <time>2018-08-06T18:27:54Z</time>
      </trkpt>
      <trkpt lat="27.937367" lon="-15.513108">
        <ele>990.60</ele>
        <time>2018-08-06T18:27:55Z</time>
      </trkpt>
      <trkpt lat="27.937374" lon="-15.513135">
        <ele>991.00</ele>
        <time>2018-08-06T18:27:56Z</time>
      </trkpt>
      <trkpt lat="27.937380" lon="-15.513159">
        <ele>991.40</ele>
        <time>2018-08-06T18:27:57Z</time>
      </trkpt>
      <trkpt lat="27.937388" lon="-15.513183">
        <ele>991.80</ele>
        <time>2018-08-06T18:27:58Z</time>
      </trkpt>
      <trkpt lat="27.937398" lon="-15.513203">
        <ele>992.00</ele>
        <time>2018-08-06T18:27:59Z</time>
      </trkpt>
      <trkpt lat="27.937409" lon="-15.513224">
        <ele>992.20</ele>
        <time>2018-08-06T18:28:00Z</time>
      </trkpt>
      <trkpt lat="27.937418" lon="-15.513243">
        <ele>992.60</ele>
        <time>2018-08-06T18:28:01Z</time>
      </trkpt>
      <trkpt lat="27.937430" lon="-15.513262">
        <ele>992.80</ele>
        <time>2018-08-06T18:28:02Z</time>
      </trkpt>
      <trkpt lat="27.937448" lon="-15.513273">
        <ele>993.00</ele>
        <time>2018-08-06T18:28:03Z</time>
      </trkpt>
      <trkpt lat="27.937469" lon="-15.513281">
        <ele>993.40</ele>
        <time>2018-08-06T18:28:04Z</time>
      </trkpt>
      <trkpt lat="27.937489" lon="-15.513287">
        <ele>994.00</ele>
        <time>2018-08-06T18:28:05Z</time>
      </trkpt>
      <trkpt lat="27.937512" lon="-15.513281">
        <ele>994.40</ele>
        <time>2018-08-06T18:28:06Z</time>
      </trkpt>
      <trkpt lat="27.937534" lon="-15.513271">
        <ele>994.80</ele>
        <time>2018-08-06T18:28:07Z</time>
      </trkpt>
      <trkpt lat="27.937552" lon="-15.513258">
        <ele>995.00</ele>
        <time>2018-08-06T18:28:08Z</time>
      </trkpt>
      <trkpt lat="27.937565" lon="-15.513242">
        <ele>995.60</ele>
        <time>2018-08-06T18:28:09Z</time>
      </trkpt>
      <trkpt lat="27.937578" lon="-15.513227">
        <ele>996.20</ele>
        <time>2018-08-06T18:28:10Z</time>
      </trkpt>
      <trkpt lat="27.937589" lon="-15.513210">
        <ele>997.00</ele>
        <time>2018-08-06T18:28:11Z</time>
      </trkpt>
      <trkpt lat="27.937600" lon="-15.513191">
        <ele>997.40</ele>
        <time>2018-08-06T18:28:12Z</time>
      </trkpt>
      <trkpt lat="27.937610" lon="-15.513173">
        <ele>997.80</ele>
        <time>2018-08-06T18:28:13Z</time>
      </trkpt>
      <trkpt lat="27.937620" lon="-15.513153">
        <ele>998.40</ele>
        <time>2018-08-06T18:28:14Z</time>
      </trkpt>
      <trkpt lat="27.937630" lon="-15.513132">
        <ele>999.00</ele>
        <time>2018-08-06T18:28:15Z</time>
      </trkpt>
      <trkpt lat="27.937641" lon="-15.513112">
        <ele>999.40</ele>
        <time>2018-08-06T18:28:16Z</time>
      </trkpt>
      <trkpt lat="27.937651" lon="-15.513091">
        <ele>999.80</ele>
        <time>2018-08-06T18:28:17Z</time>
      </trkpt>
      <trkpt lat="27.937662" lon="-15.513072">
        <ele>1000.20</ele>
        <time>2018-08-06T18:28:18Z</time>
      </trkpt>
      <trkpt lat="27.937673" lon="-15.513057">
        <ele>1000.80</ele>
        <time>2018-08-06T18:28:19Z</time>
      </trkpt>
      <trkpt lat="27.937687" lon="-15.513040">
        <ele>1001.20</ele>
        <time>2018-08-06T18:28:20Z</time>
      </trkpt>
      <trkpt lat="27.937697" lon="-15.513021">
        <ele>1001.60</ele>
        <time>2018-08-06T18:28:21Z</time>
      </trkpt>
      <trkpt lat="27.937707" lon="-15.513004">
        <ele>1001.80</ele>
        <time>2018-08-06T18:28:22Z</time>
      </trkpt>
      <trkpt lat="27.937715" lon="-15.512984">
        <ele>1002.00</ele>
        <time>2018-08-06T18:28:23Z</time>
      </trkpt>
      <trkpt lat="27.937723" lon="-15.512966">
        <ele>1002.40</ele>
        <time>2018-08-06T18:28:24Z</time>
      </trkpt>
      <trkpt lat="27.937739" lon="-15.512949">
        <ele>1002.40</ele>
        <time>2018-08-06T18:28:25Z</time>
      </trkpt>
      <trkpt lat="27.937758" lon="-15.512940">
        <ele>1002.60</ele>
        <time>2018-08-06T18:28:26Z</time>
      </trkpt>
      <trkpt lat="27.937778" lon="-15.512936">
        <ele>1002.80</ele>
        <time>2018-08-06T18:28:27Z</time>
      </trkpt>
      <trkpt lat="27.937795" lon="-15.512939">
        <ele>1003.00</ele>
        <time>2018-08-06T18:28:28Z</time>
      </trkpt>
      <trkpt lat="27.937810" lon="-15.512947">
        <ele>1003.20</ele>
        <time>2018-08-06T18:28:29Z</time>
      </trkpt>
      <trkpt lat="27.937825" lon="-15.512958">
        <ele>1003.80</ele>
        <time>2018-08-06T18:28:30Z</time>
      </trkpt>
      <trkpt lat="27.937838" lon="-15.512970">
        <ele>1004.40</ele>
        <time>2018-08-06T18:28:31Z</time>
      </trkpt>
      <trkpt lat="27.937845" lon="-15.512989">
        <ele>1004.80</ele>
        <time>2018-08-06T18:28:32Z</time>
      </trkpt>
      <trkpt lat="27.937849" lon="-15.513009">
        <ele>1005.20</ele>
        <time>2018-08-06T18:28:33Z</time>
      </trkpt>
      <trkpt lat="27.937852" lon="-15.513026">
        <ele>1005.40</ele>
        <time>2018-08-06T18:28:34Z</time>
      </trkpt>
      <trkpt lat="27.937848" lon="-15.513049">
        <ele>1005.60</ele>
        <time>2018-08-06T18:28:35Z</time>
      </trkpt>
      <trkpt lat="27.937842" lon="-15.513067">
        <ele>1005.80</ele>
        <time>2018-08-06T18:28:36Z</time>
      </trkpt>
      <trkpt lat="27.937838" lon="-15.513083">
        <ele>1006.20</ele>
        <time>2018-08-06T18:28:37Z</time>
      </trkpt>
      <trkpt lat="27.937833" lon="-15.513102">
        <ele>1006.60</ele>
        <time>2018-08-06T18:28:38Z</time>
      </trkpt>
      <trkpt lat="27.937830" lon="-15.513125">
        <ele>1007.00</ele>
        <time>2018-08-06T18:28:39Z</time>
      </trkpt>
      <trkpt lat="27.937832" lon="-15.513147">
        <ele>1007.20</ele>
        <time>2018-08-06T18:28:40Z</time>
      </trkpt>
      <trkpt lat="27.937843" lon="-15.513168">
        <ele>1007.40</ele>
        <time>2018-08-06T18:28:41Z</time>
      </trkpt>
      <trkpt lat="27.937854" lon="-15.513186">
        <ele>1007.80</ele>
        <time>2018-08-06T18:28:42Z</time>
      </trkpt>
      <trkpt lat="27.937870" lon="-15.513201">
        <ele>1008.20</ele>
        <time>2018-08-06T18:28:43Z</time>
      </trkpt>
      <trkpt lat="27.937887" lon="-15.513209">
        <ele>1008.80</ele>
        <time>2018-08-06T18:28:44Z</time>
      </trkpt>
      <trkpt lat="27.937900" lon="-15.513214">
        <ele>1009.20</ele>
        <time>2018-08-06T18:28:45Z</time>
      </trkpt>
      <trkpt lat="27.937911" lon="-15.513217">
        <ele>1009.40</ele>
        <time>2018-08-06T18:28:46Z</time>
      </trkpt>
      <trkpt lat="27.937918" lon="-15.513224">
        <ele>1009.60</ele>
        <time>2018-08-06T18:28:47Z</time>
      </trkpt>
      <trkpt lat="27.937926" lon="-15.513234">
        <ele>1009.80</ele>
        <time>2018-08-06T18:28:48Z</time>
      </trkpt>
      <trkpt lat="27.937931" lon="-15.513244">
        <ele>1010.20</ele>
        <time>2018-08-06T18:28:49Z</time>
      </trkpt>
      <trkpt lat="27.937939" lon="-15.513259">
        <ele>1010.60</ele>
        <time>2018-08-06T18:28:50Z</time>
      </trkpt>
      <trkpt lat="27.937946" lon="-15.513276">
        <ele>1011.20</ele>
        <time>2018-08-06T18:28:51Z</time>
      </trkpt>
      <trkpt lat="27.937954" lon="-15.513294">
        <ele>1011.60</ele>
        <time>2018-08-06T18:28:52Z</time>
      </trkpt>
      <trkpt lat="27.937961" lon="-15.513314">
        <ele>1012.00</ele>
        <time>2018-08-06T18:28:53Z</time>
      </trkpt>
      <trkpt lat="27.937966" lon="-15.513335">
        <ele>1012.20</ele>
        <time>2018-08-06T18:28:54Z</time>
      </trkpt>
      <trkpt lat="27.937975" lon="-15.513355">
        <ele>1012.20</ele>
        <time>2018-08-06T18:28:55Z</time>
      </trkpt>
      <trkpt lat="27.937984" lon="-15.513373">
        <ele>1012.60</ele>
        <time>2018-08-06T18:28:56Z</time>
      </trkpt>
      <trkpt lat="27.937997" lon="-15.513394">
        <ele>1013.00</ele>
        <time>2018-08-06T18:28:57Z</time>
      </trkpt>
      <trkpt lat="27.938005" lon="-15.513416">
        <ele>1013.40</ele>
        <time>2018-08-06T18:28:58Z</time>
      </trkpt>
      <trkpt lat="27.938010" lon="-15.513438">
        <ele>1013.80</ele>
        <time>2018-08-06T18:28:59Z</time>
      </trkpt>
      <trkpt lat="27.938022" lon="-15.513457">
        <ele>1014.00</ele>
        <time>2018-08-06T18:29:00Z</time>
      </trkpt>
      <trkpt lat="27.938037" lon="-15.513476">
        <ele>1014.20</ele>
        <time>2018-08-06T18:29:01Z</time>
      </trkpt>
      <trkpt lat="27.938050" lon="-15.513495">
        <ele>1014.40</ele>
        <time>2018-08-06T18:29:02Z</time>
      </trkpt>
      <trkpt lat="27.938060" lon="-15.513511">
        <ele>1014.60</ele>
        <time>2018-08-06T18:29:03Z</time>
      </trkpt>
      <trkpt lat="27.938074" lon="-15.513527">
        <ele>1014.60</ele>
        <time>2018-08-06T18:29:04Z</time>
      </trkpt>
      <trkpt lat="27.938085" lon="-15.513544">
        <ele>1015.00</ele>
        <time>2018-08-06T18:29:05Z</time>
      </trkpt>
      <trkpt lat="27.938093" lon="-15.513561">
        <ele>1015.60</ele>
        <time>2018-08-06T18:29:06Z</time>
      </trkpt>
      <trkpt lat="27.938104" lon="-15.513575">
        <ele>1016.00</ele>
        <time>2018-08-06T18:29:07Z</time>
      </trkpt>
      <trkpt lat="27.938116" lon="-15.513594">
        <ele>1016.60</ele>
        <time>2018-08-06T18:29:08Z</time>
      </trkpt>
      <trkpt lat="27.938124" lon="-15.513616">
        <ele>1016.80</ele>
        <time>2018-08-06T18:29:09Z</time>
      </trkpt>
      <trkpt lat="27.938132" lon="-15.513635">
        <ele>1017.20</ele>
        <time>2018-08-06T18:29:10Z</time>
      </trkpt>
      <trkpt lat="27.938138" lon="-15.513655">
        <ele>1017.80</ele>
        <time>2018-08-06T18:29:11Z</time>
      </trkpt>
      <trkpt lat="27.938143" lon="-15.513672">
        <ele>1017.80</ele>
        <time>2018-08-06T18:29:12Z</time>
      </trkpt>
      <trkpt lat="27.938146" lon="-15.513691">
        <ele>1017.80</ele>
        <time>2018-08-06T18:29:13Z</time>
      </trkpt>
      <trkpt lat="27.938152" lon="-15.513708">
        <ele>1018.00</ele>
        <time>2018-08-06T18:29:14Z</time>
      </trkpt>
      <trkpt lat="27.938161" lon="-15.513719">
        <ele>1018.00</ele>
        <time>2018-08-06T18:29:15Z</time>
      </trkpt>
      <trkpt lat="27.938169" lon="-15.513732">
        <ele>1018.20</ele>
        <time>2018-08-06T18:29:16Z</time>
      </trkpt>
      <trkpt lat="27.938176" lon="-15.513746">
        <ele>1018.60</ele>
        <time>2018-08-06T18:29:17Z</time>
      </trkpt>
      <trkpt lat="27.938184" lon="-15.513761">
        <ele>1019.00</ele>
        <time>2018-08-06T18:29:18Z</time>
      </trkpt>
      <trkpt lat="27.938194" lon="-15.513771">
        <ele>1019.60</ele>
        <time>2018-08-06T18:29:19Z</time>
      </trkpt>
      <trkpt lat="27.938204" lon="-15.513778">
        <ele>1020.20</ele>
        <time>2018-08-06T18:29:20Z</time>
      </trkpt>
      <trkpt lat="27.938216" lon="-15.513789">
        <ele>1020.40</ele>
        <time>2018-08-06T18:29:21Z</time>
      </trkpt>
      <trkpt lat="27.938229" lon="-15.513800">
        <ele>1020.80</ele>
        <time>2018-08-06T18:29:22Z</time>
      </trkpt>
      <trkpt lat="27.938245" lon="-15.513808">
        <ele>1021.00</ele>
        <time>2018-08-06T18:29:23Z</time>
      </trkpt>
      <trkpt lat="27.938262" lon="-15.513814">
        <ele>1021.20</ele>
        <time>2018-08-06T18:29:24Z</time>
      </trkpt>
      <trkpt lat="27.938271" lon="-15.513826">
        <ele>1021.60</ele>
        <time>2018-08-06T18:29:25Z</time>
      </trkpt>
      <trkpt lat="27.938277" lon="-15.513841">
        <ele>1022.00</ele>
        <time>2018-08-06T18:29:26Z</time>
      </trkpt>
      <trkpt lat="27.938286" lon="-15.513856">
        <ele>1022.40</ele>
        <time>2018-08-06T18:29:27Z</time>
      </trkpt>
      <trkpt lat="27.938295" lon="-15.513870">
        <ele>1023.00</ele>
        <time>2018-08-06T18:29:28Z</time>
      </trkpt>
      <trkpt lat="27.938302" lon="-15.513890">
        <ele>1023.60</ele>
        <time>2018-08-06T18:29:29Z</time>
      </trkpt>
      <trkpt lat="27.938305" lon="-15.513909">
        <ele>1024.00</ele>
        <time>2018-08-06T18:29:30Z</time>
      </trkpt>
      <trkpt lat="27.938306" lon="-15.513925">
        <ele>1024.40</ele>
        <time>2018-08-06T18:29:31Z</time>
      </trkpt>
      <trkpt lat="27.938308" lon="-15.513938">
        <ele>1024.80</ele>
        <time>2018-08-06T18:29:32Z</time>
      </trkpt>
      <trkpt lat="27.938311" lon="-15.513956">
        <ele>1025.00</ele>
        <time>2018-08-06T18:29:33Z</time>
      </trkpt>
      <trkpt lat="27.938315" lon="-15.513973">
        <ele>1025.20</ele>
        <time>2018-08-06T18:29:34Z</time>
      </trkpt>
      <trkpt lat="27.938320" lon="-15.513991">
        <ele>1025.40</ele>
        <time>2018-08-06T18:29:35Z</time>
      </trkpt>
      <trkpt lat="27.938321" lon="-15.514011">
        <ele>1025.80</ele>
        <time>2018-08-06T18:29:36Z</time>
      </trkpt>
      <trkpt lat="27.938324" lon="-15.514025">
        <ele>1026.20</ele>
        <time>2018-08-06T18:29:37Z</time>
      </trkpt>
      <trkpt lat="27.938326" lon="-15.514033">
        <ele>1026.40</ele>
        <time>2018-08-06T18:29:38Z</time>
      </trkpt>
      <trkpt lat="27.938324" lon="-15.514047">
        <ele>1027.00</ele>
        <time>2018-08-06T18:29:39Z</time>
      </trkpt>
      <trkpt lat="27.938325" lon="-15.514064">
        <ele>1027.60</ele>
        <time>2018-08-06T18:29:40Z</time>
      </trkpt>
      <trkpt lat="27.938326" lon="-15.514088">
        <ele>1028.00</ele>
        <time>2018-08-06T18:29:41Z</time>
      </trkpt>
      <trkpt lat="27.938331" lon="-15.514110">
        <ele>1028.20</ele>
        <time>2018-08-06T18:29:42Z</time>
      </trkpt>
      <trkpt lat="27.938340" lon="-15.514130">
        <ele>1028.20</ele>
        <time>2018-08-06T18:29:43Z</time>
      </trkpt>
      <trkpt lat="27.938348" lon="-15.514147">
        <ele>1028.60</ele>
        <time>2018-08-06T18:29:44Z</time>
      </trkpt>
      <trkpt lat="27.938354" lon="-15.514162">
        <ele>1029.20</ele>
        <time>2018-08-06T18:29:45Z</time>
      </trkpt>
      <trkpt lat="27.938359" lon="-15.514179">
        <ele>1029.60</ele>
        <time>2018-08-06T18:29:46Z</time>
      </trkpt>
      <trkpt lat="27.938361" lon="-15.514199">
        <ele>1030.20</ele>
        <time>2018-08-06T18:29:47Z</time>
      </trkpt>
      <trkpt lat="27.938366" lon="-15.514215">
        <ele>1030.60</ele>
        <time>2018-08-06T18:29:48Z</time>
      </trkpt>
      <trkpt lat="27.938375" lon="-15.514230">
        <ele>1031.20</ele>
        <time>2018-08-06T18:29:49Z</time>
      </trkpt>
      <trkpt lat="27.938379" lon="-15.514242">
        <ele>1031.60</ele>
        <time>2018-08-06T18:29:50Z</time>
      </trkpt>
      <trkpt lat="27.938373" lon="-15.514259">
        <ele>1032.00</ele>
        <time>2018-08-06T18:29:51Z</time>
      </trkpt>
      <trkpt lat="27.938367" lon="-15.514278">
        <ele>1032.40</ele>
        <time>2018-08-06T18:29:52Z</time>
      </trkpt>
      <trkpt lat="27.938368" lon="-15.514300">
        <ele>1032.60</ele>
        <time>2018-08-06T18:29:53Z</time>
      </trkpt>
      <trkpt lat="27.938369" lon="-15.514321">
        <ele>1033.00</ele>
        <time>2018-08-06T18:29:54Z</time>
      </trkpt>
      <trkpt lat="27.938368" lon="-15.514338">
        <ele>1033.20</ele>
        <time>2018-08-06T18:29:55Z</time>
      </trkpt>
      <trkpt lat="27.938367" lon="-15.514352">
        <ele>1033.60</ele>
        <time>2018-08-06T18:29:56Z</time>
      </trkpt>
      <trkpt lat="27.938364" lon="-15.514367">
        <ele>1034.00</ele>
        <time>2018-08-06T18:29:57Z</time>
      </trkpt>
      <trkpt lat="27.938361" lon="-15.514383">
        <ele>1034.40</ele>
        <time>2018-08-06T18:29:58Z</time>
      </trkpt>
      <trkpt lat="27.938369" lon="-15.514398">
        <ele>1035.20</ele>
        <time>2018-08-06T18:29:59Z</time>
      </trkpt>
      <trkpt lat="27.938378" lon="-15.514414">
        <ele>1035.60</ele>
        <time>2018-08-06T18:30:00Z</time>
      </trkpt>
      <trkpt lat="27.938381" lon="-15.514428">
        <ele>1036.00</ele>
        <time>2018-08-06T18:30:01Z</time>
      </trkpt>
      <trkpt lat="27.938377" lon="-15.514446">
        <ele>1036.20</ele>
        <time>2018-08-06T18:30:02Z</time>
      </trkpt>
      <trkpt lat="27.938381" lon="-15.514463">
        <ele>1036.20</ele>
        <time>2018-08-06T18:30:03Z</time>
      </trkpt>
      <trkpt lat="27.938381" lon="-15.514479">
        <ele>1036.20</ele>
        <time>2018-08-06T18:30:04Z</time>
      </trkpt>
      <trkpt lat="27.938376" lon="-15.514498">
        <ele>1036.40</ele>
        <time>2018-08-06T18:30:05Z</time>
      </trkpt>
      <trkpt lat="27.938386" lon="-15.514513">
        <ele>1036.80</ele>
        <time>2018-08-06T18:30:06Z</time>
      </trkpt>
      <trkpt lat="27.938405" lon="-15.514526">
        <ele>1037.00</ele>
        <time>2018-08-06T18:30:07Z</time>
      </trkpt>
      <trkpt lat="27.938421" lon="-15.514533">
        <ele>1037.20</ele>
        <time>2018-08-06T18:30:08Z</time>
      </trkpt>
      <trkpt lat="27.938434" lon="-15.514539">
        <ele>1037.80</ele>
        <time>2018-08-06T18:30:09Z</time>
      </trkpt>
      <trkpt lat="27.938446" lon="-15.514549">
        <ele>1038.40</ele>
        <time>2018-08-06T18:30:10Z</time>
      </trkpt>
      <trkpt lat="27.938457" lon="-15.514559">
        <ele>1039.00</ele>
        <time>2018-08-06T18:30:11Z</time>
      </trkpt>
      <trkpt lat="27.938464" lon="-15.514572">
        <ele>1039.60</ele>
        <time>2018-08-06T18:30:12Z</time>
      </trkpt>
      <trkpt lat="27.938470" lon="-15.514590">
        <ele>1040.20</ele>
        <time>2018-08-06T18:30:13Z</time>
      </trkpt>
      <trkpt lat="27.938482" lon="-15.514608">
        <ele>1040.80</ele>
        <time>2018-08-06T18:30:14Z</time>
      </trkpt>
      <trkpt lat="27.938496" lon="-15.514625">
        <ele>1041.60</ele>
        <time>2018-08-06T18:30:15Z</time>
      </trkpt>
      <trkpt lat="27.938505" lon="-15.514643">
        <ele>1042.20</ele>
        <time>2018-08-06T18:30:16Z</time>
      </trkpt>
      <trkpt lat="27.938514" lon="-15.514659">
        <ele>1042.80</ele>
        <time>2018-08-06T18:30:17Z</time>
      </trkpt>
      <trkpt lat="27.938526" lon="-15.514670">
        <ele>1043.00</ele>
        <time>2018-08-06T18:30:18Z</time>
      </trkpt>
      <trkpt lat="27.938537" lon="-15.514677">
        <ele>1043.20</ele>
        <time>2018-08-06T18:30:19Z</time>
      </trkpt>
      <trkpt lat="27.938546" lon="-15.514678">
        <ele>1043.60</ele>
        <time>2018-08-06T18:30:20Z</time>
      </trkpt>
      <trkpt lat="27.938554" lon="-15.514672">
        <ele>1043.80</ele>
        <time>2018-08-06T18:30:21Z</time>
      </trkpt>
      <trkpt lat="27.938555" lon="-15.514660">
        <ele>1044.20</ele>
        <time>2018-08-06T18:30:22Z</time>
      </trkpt>
      <trkpt lat="27.938552" lon="-15.514645">
        <ele>1044.80</ele>
        <time>2018-08-06T18:30:23Z</time>
      </trkpt>
      <trkpt lat="27.938550" lon="-15.514627">
        <ele>1045.40</ele>
        <time>2018-08-06T18:30:24Z</time>
      </trkpt>
      <trkpt lat="27.938553" lon="-15.514608">
        <ele>1046.20</ele>
        <time>2018-08-06T18:30:25Z</time>
      </trkpt>
      <trkpt lat="27.938558" lon="-15.514586">
        <ele>1047.00</ele>
        <time>2018-08-06T18:30:26Z</time>
      </trkpt>
      <trkpt lat="27.938567" lon="-15.514569">
        <ele>1047.20</ele>
        <time>2018-08-06T18:30:27Z</time>
      </trkpt>
      <trkpt lat="27.938581" lon="-15.514561">
        <ele>1047.60</ele>
        <time>2018-08-06T18:30:28Z</time>
      </trkpt>
      <trkpt lat="27.938595" lon="-15.514562">
        <ele>1048.00</ele>
        <time>2018-08-06T18:30:29Z</time>
      </trkpt>
      <trkpt lat="27.938608" lon="-15.514572">
        <ele>1048.20</ele>
        <time>2018-08-06T18:30:30Z</time>
      </trkpt>
      <trkpt lat="27.938621" lon="-15.514590">
        <ele>1048.60</ele>
        <time>2018-08-06T18:30:31Z</time>
      </trkpt>
      <trkpt lat="27.938638" lon="-15.514602">
        <ele>1048.80</ele>
        <time>2018-08-06T18:30:32Z</time>
      </trkpt>
      <trkpt lat="27.938653" lon="-15.514613">
        <ele>1048.80</ele>
        <time>2018-08-06T18:30:33Z</time>
      </trkpt>
      <trkpt lat="27.938666" lon="-15.514625">
        <ele>1049.00</ele>
        <time>2018-08-06T18:30:34Z</time>
      </trkpt>
      <trkpt lat="27.938679" lon="-15.514637">
        <ele>1049.00</ele>
        <time>2018-08-06T18:30:35Z</time>
      </trkpt>
      <trkpt lat="27.938690" lon="-15.514650">
        <ele>1049.00</ele>
        <time>2018-08-06T18:30:36Z</time>
      </trkpt>
      <trkpt lat="27.938702" lon="-15.514664">
        <ele>1049.40</ele>
        <time>2018-08-06T18:30:37Z</time>
      </trkpt>
      <trkpt lat="27.938714" lon="-15.514676">
        <ele>1049.80</ele>
        <time>2018-08-06T18:30:38Z</time>
      </trkpt>
      <trkpt lat="27.938724" lon="-15.514691">
        <ele>1050.40</ele>
        <time>2018-08-06T18:30:39Z</time>
      </trkpt>
      <trkpt lat="27.938732" lon="-15.514710">
        <ele>1051.00</ele>
        <time>2018-08-06T18:30:40Z</time>
      </trkpt>
      <trkpt lat="27.938739" lon="-15.514725">
        <ele>1051.20</ele>
        <time>2018-08-06T18:30:41Z</time>
      </trkpt>
      <trkpt lat="27.938749" lon="-15.514742">
        <ele>1051.60</ele>
        <time>2018-08-06T18:30:42Z</time>
      </trkpt>
      <trkpt lat="27.938759" lon="-15.514758">
        <ele>1051.80</ele>
        <time>2018-08-06T18:30:43Z</time>
      </trkpt>
      <trkpt lat="27.938762" lon="-15.514780">
        <ele>1052.40</ele>
        <time>2018-08-06T18:30:44Z</time>
      </trkpt>
      <trkpt lat="27.938767" lon="-15.514802">
        <ele>1053.00</ele>
        <time>2018-08-06T18:30:45Z</time>
      </trkpt>
      <trkpt lat="27.938772" lon="-15.514829">
        <ele>1053.60</ele>
        <time>2018-08-06T18:30:46Z</time>
      </trkpt>
      <trkpt lat="27.938776" lon="-15.514851">
        <ele>1054.00</ele>
        <time>2018-08-06T18:30:47Z</time>
      </trkpt>
      <trkpt lat="27.938776" lon="-15.514871">
        <ele>1054.40</ele>
        <time>2018-08-06T18:30:48Z</time>
      </trkpt>
      <trkpt lat="27.938773" lon="-15.514895">
        <ele>1054.60</ele>
        <time>2018-08-06T18:30:49Z</time>
      </trkpt>
      <trkpt lat="27.938772" lon="-15.514916">
        <ele>1055.00</ele>
        <time>2018-08-06T18:30:50Z</time>
      </trkpt>
      <trkpt lat="27.938772" lon="-15.514934">
        <ele>1055.20</ele>
        <time>2018-08-06T18:30:51Z</time>
      </trkpt>
      <trkpt lat="27.938771" lon="-15.514956">
        <ele>1055.40</ele>
        <time>2018-08-06T18:30:52Z</time>
      </trkpt>
      <trkpt lat="27.938773" lon="-15.514976">
        <ele>1055.80</ele>
        <time>2018-08-06T18:30:53Z</time>
      </trkpt>
      <trkpt lat="27.938774" lon="-15.514997">
        <ele>1056.40</ele>
        <time>2018-08-06T18:30:54Z</time>
      </trkpt>
      <trkpt lat="27.938775" lon="-15.515016">
        <ele>1056.80</ele>
        <time>2018-08-06T18:30:55Z</time>
      </trkpt>
      <trkpt lat="27.938777" lon="-15.515037">
        <ele>1057.20</ele>
        <time>2018-08-06T18:30:56Z</time>
      </trkpt>
      <trkpt lat="27.938782" lon="-15.515055">
        <ele>1057.60</ele>
        <time>2018-08-06T18:30:57Z</time>
      </trkpt>
      <trkpt lat="27.938785" lon="-15.515072">
        <ele>1058.20</ele>
        <time>2018-08-06T18:30:58Z</time>
      </trkpt>
      <trkpt lat="27.938790" lon="-15.515088">
        <ele>1058.40</ele>
        <time>2018-08-06T18:30:59Z</time>
      </trkpt>
      <trkpt lat="27.938797" lon="-15.515106">
        <ele>1058.80</ele>
        <time>2018-08-06T18:31:00Z</time>
      </trkpt>
      <trkpt lat="27.938806" lon="-15.515122">
        <ele>1059.00</ele>
        <time>2018-08-06T18:31:01Z</time>
      </trkpt>
      <trkpt lat="27.938820" lon="-15.515131">
        <ele>1059.40</ele>
        <time>2018-08-06T18:31:02Z</time>
      </trkpt>
      <trkpt lat="27.938836" lon="-15.515134">
        <ele>1059.60</ele>
        <time>2018-08-06T18:31:03Z</time>
      </trkpt>
      <trkpt lat="27.938852" lon="-15.515128">
        <ele>1060.20</ele>
        <time>2018-08-06T18:31:04Z</time>
      </trkpt>
      <trkpt lat="27.938866" lon="-15.515117">
        <ele>1060.80</ele>
        <time>2018-08-06T18:31:05Z</time>
      </trkpt>
      <trkpt lat="27.938874" lon="-15.515100">
        <ele>1061.60</ele>
        <time>2018-08-06T18:31:06Z</time>
      </trkpt>
      <trkpt lat="27.938878" lon="-15.515077">
        <ele>1062.20</ele>
        <time>2018-08-06T18:31:07Z</time>
      </trkpt>
      <trkpt lat="27.938876" lon="-15.515055">
        <ele>1062.40</ele>
        <time>2018-08-06T18:31:08Z</time>
      </trkpt>
      <trkpt lat="27.938874" lon="-15.515034">
        <ele>1062.60</ele>
        <time>2018-08-06T18:31:09Z</time>
      </trkpt>
      <trkpt lat="27.938869" lon="-15.515013">
        <ele>1063.00</ele>
        <time>2018-08-06T18:31:10Z</time>
      </trkpt>
      <trkpt lat="27.938865" lon="-15.514990">
        <ele>1063.20</ele>
        <time>2018-08-06T18:31:11Z</time>
      </trkpt>
      <trkpt lat="27.938864" lon="-15.514966">
        <ele>1063.60</ele>
        <time>2018-08-06T18:31:12Z</time>
      </trkpt>
      <trkpt lat="27.938864" lon="-15.514946">
        <ele>1063.80</ele>
        <time>2018-08-06T18:31:13Z</time>
      </trkpt>
      <trkpt lat="27.938867" lon="-15.514925">
        <ele>1064.00</ele>
        <time>2018-08-06T18:31:14Z</time>
      </trkpt>
      <trkpt lat="27.938870" lon="-15.514905">
        <ele>1064.20</ele>
        <time>2018-08-06T18:31:15Z</time>
      </trkpt>
      <trkpt lat="27.938872" lon="-15.514884">
        <ele>1064.60</ele>
        <time>2018-08-06T18:31:16Z</time>
      </trkpt>
      <trkpt lat="27.938875" lon="-15.514863">
        <ele>1064.80</ele>
        <time>2018-08-06T18:31:17Z</time>
      </trkpt>
      <trkpt lat="27.938877" lon="-15.514842">
        <ele>1065.00</ele>
        <time>2018-08-06T18:31:18Z</time>
      </trkpt>
      <trkpt lat="27.938878" lon="-15.514821">
        <ele>1065.20</ele>
        <time>2018-08-06T18:31:19Z</time>
      </trkpt>
      <trkpt lat="27.938881" lon="-15.514801">
        <ele>1065.60</ele>
        <time>2018-08-06T18:31:20Z</time>
      </trkpt>
      <trkpt lat="27.938865" lon="-15.514788">
        <ele>1066.00</ele>
        <time>2018-08-06T18:31:21Z</time>
      </trkpt>
      <trkpt lat="27.938864" lon="-15.514777">
        <ele>1066.20</ele>
        <time>2018-08-06T18:31:22Z</time>
      </trkpt>
      <trkpt lat="27.938869" lon="-15.514761">
        <ele>1066.20</ele>
        <time>2018-08-06T18:31:23Z</time>
      </trkpt>
      <trkpt lat="27.938871" lon="-15.514746">
        <ele>1066.40</ele>
        <time>2018-08-06T18:31:24Z</time>
      </trkpt>
      <trkpt lat="27.938877" lon="-15.514735">
        <ele>1066.60</ele>
        <time>2018-08-06T18:31:25Z</time>
      </trkpt>
      <trkpt lat="27.938881" lon="-15.514725">
        <ele>1066.80</ele>
        <time>2018-08-06T18:31:26Z</time>
      </trkpt>
      <trkpt lat="27.938885" lon="-15.514714">
        <ele>1067.20</ele>
        <time>2018-08-06T18:31:27Z</time>
      </trkpt>
      <trkpt lat="27.938898" lon="-15.514704">
        <ele>1067.60</ele>
        <time>2018-08-06T18:31:28Z</time>
      </trkpt>
      <trkpt lat="27.938914" lon="-15.514698">
        <ele>1068.20</ele>
        <time>2018-08-06T18:31:29Z</time>
      </trkpt>
      <trkpt lat="27.938936" lon="-15.514693">
        <ele>1068.60</ele>
        <time>2018-08-06T18:31:30Z</time>
      </trkpt>
      <trkpt lat="27.938955" lon="-15.514695">
        <ele>1069.00</ele>
        <time>2018-08-06T18:31:31Z</time>
      </trkpt>
      <trkpt lat="27.938972" lon="-15.514702">
        <ele>1069.60</ele>
        <time>2018-08-06T18:31:32Z</time>
      </trkpt>
      <trkpt lat="27.938983" lon="-15.514718">
        <ele>1070.00</ele>
        <time>2018-08-06T18:31:33Z</time>
      </trkpt>
      <trkpt lat="27.938996" lon="-15.514733">
        <ele>1070.40</ele>
        <time>2018-08-06T18:31:34Z</time>
      </trkpt>
      <trkpt lat="27.939003" lon="-15.514749">
        <ele>1070.80</ele>
        <time>2018-08-06T18:31:35Z</time>
      </trkpt>
      <trkpt lat="27.939005" lon="-15.514771">
        <ele>1071.20</ele>
        <time>2018-08-06T18:31:36Z</time>
      </trkpt>
      <trkpt lat="27.939003" lon="-15.514795">
        <ele>1071.60</ele>
        <time>2018-08-06T18:31:37Z</time>
      </trkpt>
      <trkpt lat="27.939036" lon="-15.514812">
        <ele>1072.00</ele>
        <time>2018-08-06T18:31:38Z</time>
      </trkpt>
      <trkpt lat="27.939034" lon="-15.514830">
        <ele>1072.40</ele>
        <time>2018-08-06T18:31:39Z</time>
      </trkpt>
      <trkpt lat="27.939039" lon="-15.514850">
        <ele>1073.00</ele>
        <time>2018-08-06T18:31:40Z</time>
      </trkpt>
      <trkpt lat="27.939054" lon="-15.514868">
        <ele>1073.60</ele>
        <time>2018-08-06T18:31:41Z</time>
      </trkpt>
      <trkpt lat="27.939051" lon="-15.514889">
        <ele>1074.00</ele>
        <time>2018-08-06T18:31:42Z</time>
      </trkpt>
      <trkpt lat="27.939051" lon="-15.514908">
        <ele>1074.40</ele>
        <time>2018-08-06T18:31:43Z</time>
      </trkpt>
      <trkpt lat="27.939049" lon="-15.514933">
        <ele>1074.80</ele>
        <time>2018-08-06T18:31:44Z</time>
      </trkpt>
      <trkpt lat="27.939031" lon="-15.514967">
        <ele>1075.20</ele>
        <time>2018-08-06T18:31:45Z</time>
      </trkpt>
      <trkpt lat="27.939033" lon="-15.514991">
        <ele>1075.60</ele>
        <time>2018-08-06T18:31:46Z</time>
      </trkpt>
      <trkpt lat="27.939026" lon="-15.515019">
        <ele>1075.80</ele>
        <time>2018-08-06T18:31:47Z</time>
      </trkpt>
      <trkpt lat="27.939023" lon="-15.515047">
        <ele>1076.00</ele>
        <time>2018-08-06T18:31:48Z</time>
      </trkpt>
      <trkpt lat="27.939036" lon="-15.515060">
        <ele>1076.20</ele>
        <time>2018-08-06T18:31:49Z</time>
      </trkpt>
      <trkpt lat="27.939046" lon="-15.515074">
        <ele>1076.40</ele>
        <time>2018-08-06T18:31:50Z</time>
      </trkpt>
      <trkpt lat="27.939049" lon="-15.515090">
        <ele>1076.80</ele>
        <time>2018-08-06T18:31:51Z</time>
      </trkpt>
      <trkpt lat="27.939056" lon="-15.515106">
        <ele>1077.20</ele>
        <time>2018-08-06T18:31:52Z</time>
      </trkpt>
      <trkpt lat="27.939068" lon="-15.515114">
        <ele>1077.40</ele>
        <time>2018-08-06T18:31:53Z</time>
      </trkpt>
      <trkpt lat="27.939077" lon="-15.515121">
        <ele>1077.60</ele>
        <time>2018-08-06T18:31:54Z</time>
      </trkpt>
      <trkpt lat="27.939087" lon="-15.515133">
        <ele>1077.80</ele>
        <time>2018-08-06T18:31:55Z</time>
      </trkpt>
      <trkpt lat="27.939099" lon="-15.515148">
        <ele>1078.00</ele>
        <time>2018-08-06T18:31:56Z</time>
      </trkpt>
      <trkpt lat="27.939113" lon="-15.515155">
        <ele>1078.40</ele>
        <time>2018-08-06T18:31:57Z</time>
      </trkpt>
      <trkpt lat="27.939128" lon="-15.515163">
        <ele>1078.80</ele>
        <time>2018-08-06T18:31:58Z</time>
      </trkpt>
      <trkpt lat="27.939146" lon="-15.515172">
        <ele>1079.40</ele>
        <time>2018-08-06T18:31:59Z</time>
      </trkpt>
      <trkpt lat="27.939160" lon="-15.515184">
        <ele>1080.00</ele>
        <time>2018-08-06T18:32:00Z</time>
      </trkpt>
      <trkpt lat="27.939177" lon="-15.515191">
        <ele>1080.20</ele>
        <time>2018-08-06T18:32:01Z</time>
      </trkpt>
      <trkpt lat="27.939194" lon="-15.515196">
        <ele>1080.60</ele>
        <time>2018-08-06T18:32:02Z</time>
      </trkpt>
      <trkpt lat="27.939208" lon="-15.515200">
        <ele>1080.60</ele>
        <time>2018-08-06T18:32:03Z</time>
      </trkpt>
      <trkpt lat="27.939220" lon="-15.515206">
        <ele>1081.00</ele>
        <time>2018-08-06T18:32:04Z</time>
      </trkpt>
      <trkpt lat="27.939235" lon="-15.515208">
        <ele>1081.40</ele>
        <time>2018-08-06T18:32:05Z</time>
      </trkpt>
      <trkpt lat="27.939252" lon="-15.515205">
        <ele>1082.00</ele>
        <time>2018-08-06T18:32:06Z</time>
      </trkpt>
      <trkpt lat="27.939267" lon="-15.515204">
        <ele>1082.40</ele>
        <time>2018-08-06T18:32:07Z</time>
      </trkpt>
      <trkpt lat="27.939282" lon="-15.515207">
        <ele>1083.00</ele>
        <time>2018-08-06T18:32:08Z</time>
      </trkpt>
      <trkpt lat="27.939300" lon="-15.515208">
        <ele>1083.40</ele>
        <time>2018-08-06T18:32:09Z</time>
      </trkpt>
      <trkpt lat="27.939314" lon="-15.515210">
        <ele>1083.60</ele>
        <time>2018-08-06T18:32:10Z</time>
      </trkpt>
      <trkpt lat="27.939326" lon="-15.515219">
        <ele>1084.00</ele>
        <time>2018-08-06T18:32:11Z</time>
      </trkpt>
      <trkpt lat="27.939342" lon="-15.515224">
        <ele>1084.40</ele>
        <time>2018-08-06T18:32:12Z</time>
      </trkpt>
      <trkpt lat="27.939355" lon="-15.515231">
        <ele>1084.80</ele>
        <time>2018-08-06T18:32:13Z</time>
      </trkpt>
      <trkpt lat="27.939367" lon="-15.515242">
        <ele>1085.00</ele>
        <time>2018-08-06T18:32:14Z</time>
      </trkpt>
      <trkpt lat="27.939379" lon="-15.515260">
        <ele>1085.40</ele>
        <time>2018-08-06T18:32:15Z</time>
      </trkpt>
      <trkpt lat="27.939392" lon="-15.515282">
        <ele>1086.00</ele>
        <time>2018-08-06T18:32:16Z</time>
      </trkpt>
      <trkpt lat="27.939399" lon="-15.515306">
        <ele>1086.60</ele>
        <time>2018-08-06T18:32:17Z</time>
      </trkpt>
      <trkpt lat="27.939398" lon="-15.515325">
        <ele>1086.80</ele>
        <time>2018-08-06T18:32:18Z</time>
      </trkpt>
      <trkpt lat="27.939404" lon="-15.515348">
        <ele>1087.00</ele>
        <time>2018-08-06T18:32:19Z</time>
      </trkpt>
      <trkpt lat="27.939401" lon="-15.515375">
        <ele>1087.20</ele>
        <time>2018-08-06T18:32:20Z</time>
      </trkpt>
      <trkpt lat="27.939399" lon="-15.515399">
        <ele>1087.40</ele>
        <time>2018-08-06T18:32:21Z</time>
      </trkpt>
      <trkpt lat="27.939392" lon="-15.515427">
        <ele>1087.80</ele>
        <time>2018-08-06T18:32:22Z</time>
      </trkpt>
      <trkpt lat="27.939392" lon="-15.515449">
        <ele>1088.00</ele>
        <time>2018-08-06T18:32:23Z</time>
      </trkpt>
      <trkpt lat="27.939397" lon="-15.515470">
        <ele>1088.40</ele>
        <time>2018-08-06T18:32:24Z</time>
      </trkpt>
      <trkpt lat="27.939412" lon="-15.515494">
        <ele>1088.60</ele>
        <time>2018-08-06T18:32:25Z</time>
      </trkpt>
      <trkpt lat="27.939416" lon="-15.515518">
        <ele>1088.60</ele>
        <time>2018-08-06T18:32:26Z</time>
      </trkpt>
      <trkpt lat="27.939432" lon="-15.515534">
        <ele>1088.60</ele>
        <time>2018-08-06T18:32:27Z</time>
      </trkpt>
      <trkpt lat="27.939437" lon="-15.515551">
        <ele>1089.00</ele>
        <time>2018-08-06T18:32:28Z</time>
      </trkpt>
      <trkpt lat="27.939438" lon="-15.515577">
        <ele>1088.60</ele>
        <time>2018-08-06T18:32:29Z</time>
      </trkpt>
      <trkpt lat="27.939444" lon="-15.515601">
        <ele>1087.80</ele>
        <time>2018-08-06T18:32:30Z</time>
      </trkpt>
      <trkpt lat="27.939457" lon="-15.515616">
        <ele>1087.60</ele>
        <time>2018-08-06T18:32:31Z</time>
      </trkpt>
      <trkpt lat="27.939472" lon="-15.515628">
        <ele>1088.20</ele>
        <time>2018-08-06T18:32:32Z</time>
      </trkpt>
      <trkpt lat="27.939488" lon="-15.515644">
        <ele>1089.00</ele>
        <time>2018-08-06T18:32:33Z</time>
      </trkpt>
      <trkpt lat="27.939503" lon="-15.515659">
        <ele>1089.40</ele>
        <time>2018-08-06T18:32:34Z</time>
      </trkpt>
      <trkpt lat="27.939518" lon="-15.515671">
        <ele>1089.60</ele>
        <time>2018-08-06T18:32:35Z</time>
      </trkpt>
      <trkpt lat="27.939535" lon="-15.515683">
        <ele>1089.80</ele>
        <time>2018-08-06T18:32:36Z</time>
      </trkpt>
      <trkpt lat="27.939548" lon="-15.515697">
        <ele>1090.20</ele>
        <time>2018-08-06T18:32:37Z</time>
      </trkpt>
      <trkpt lat="27.939561" lon="-15.515715">
        <ele>1090.60</ele>
        <time>2018-08-06T18:32:38Z</time>
      </trkpt>
      <trkpt lat="27.939574" lon="-15.515737">
        <ele>1091.00</ele>
        <time>2018-08-06T18:32:39Z</time>
      </trkpt>
      <trkpt lat="27.939584" lon="-15.515760">
        <ele>1091.40</ele>
        <time>2018-08-06T18:32:40Z</time>
      </trkpt>
      <trkpt lat="27.939590" lon="-15.515782">
        <ele>1091.60</ele>
        <time>2018-08-06T18:32:41Z</time>
      </trkpt>
      <trkpt lat="27.939590" lon="-15.515807">
        <ele>1092.20</ele>
        <time>2018-08-06T18:32:42Z</time>
      </trkpt>
      <trkpt lat="27.939595" lon="-15.515834">
        <ele>1092.60</ele>
        <time>2018-08-06T18:32:43Z</time>
      </trkpt>
      <trkpt lat="27.939601" lon="-15.515863">
        <ele>1093.00</ele>
        <time>2018-08-06T18:32:44Z</time>
      </trkpt>
      <trkpt lat="27.939608" lon="-15.515889">
        <ele>1093.40</ele>
        <time>2018-08-06T18:32:45Z</time>
      </trkpt>
      <trkpt lat="27.939613" lon="-15.515913">
        <ele>1093.60</ele>
        <time>2018-08-06T18:32:46Z</time>
      </trkpt>
      <trkpt lat="27.939621" lon="-15.515940">
        <ele>1093.60</ele>
        <time>2018-08-06T18:32:47Z</time>
      </trkpt>
      <trkpt lat="27.939636" lon="-15.515963">
        <ele>1093.80</ele>
        <time>2018-08-06T18:32:48Z</time>
      </trkpt>
      <trkpt lat="27.939652" lon="-15.515979">
        <ele>1093.60</ele>
        <time>2018-08-06T18:32:49Z</time>
      </trkpt>
      <trkpt lat="27.939665" lon="-15.515993">
        <ele>1093.40</ele>
        <time>2018-08-06T18:32:50Z</time>
      </trkpt>
      <trkpt lat="27.939680" lon="-15.516003">
        <ele>1093.40</ele>
        <time>2018-08-06T18:32:51Z</time>
      </trkpt>
      <trkpt lat="27.939693" lon="-15.516016">
        <ele>1093.60</ele>
        <time>2018-08-06T18:32:52Z</time>
      </trkpt>
      <trkpt lat="27.939702" lon="-15.516035">
        <ele>1093.80</ele>
        <time>2018-08-06T18:32:53Z</time>
      </trkpt>
      <trkpt lat="27.939711" lon="-15.516053">
        <ele>1094.20</ele>
        <time>2018-08-06T18:32:54Z</time>
      </trkpt>
      <trkpt lat="27.939722" lon="-15.516063">
        <ele>1094.40</ele>
        <time>2018-08-06T18:32:55Z</time>
      </trkpt>
      <trkpt lat="27.939732" lon="-15.516067">
        <ele>1095.00</ele>
        <time>2018-08-06T18:32:56Z</time>
      </trkpt>
      <trkpt lat="27.939746" lon="-15.516079">
        <ele>1095.40</ele>
        <time>2018-08-06T18:32:57Z</time>
      </trkpt>
      <trkpt lat="27.939761" lon="-15.516088">
        <ele>1095.80</ele>
        <time>2018-08-06T18:32:58Z</time>
      </trkpt>
      <trkpt lat="27.939776" lon="-15.516098">
        <ele>1096.00</ele>
        <time>2018-08-06T18:32:59Z</time>
      </trkpt>
      <trkpt lat="27.939790" lon="-15.516100">
        <ele>1096.40</ele>
        <time>2018-08-06T18:33:00Z</time>
      </trkpt>
      <trkpt lat="27.939806" lon="-15.516109">
        <ele>1096.80</ele>
        <time>2018-08-06T18:33:01Z</time>
      </trkpt>
      <trkpt lat="27.939818" lon="-15.516118">
        <ele>1097.00</ele>
        <time>2018-08-06T18:33:02Z</time>
      </trkpt>
      <trkpt lat="27.939831" lon="-15.516130">
        <ele>1097.20</ele>
        <time>2018-08-06T18:33:03Z</time>
      </trkpt>
      <trkpt lat="27.939844" lon="-15.516143">
        <ele>1097.40</ele>
        <time>2018-08-06T18:33:04Z</time>
      </trkpt>
      <trkpt lat="27.939858" lon="-15.516156">
        <ele>1097.80</ele>
        <time>2018-08-06T18:33:05Z</time>
      </trkpt>
      <trkpt lat="27.939872" lon="-15.516168">
        <ele>1098.00</ele>
        <time>2018-08-06T18:33:06Z</time>
      </trkpt>
      <trkpt lat="27.939883" lon="-15.516183">
        <ele>1098.00</ele>
        <time>2018-08-06T18:33:07Z</time>
      </trkpt>
      <trkpt lat="27.939898" lon="-15.516199">
        <ele>1098.20</ele>
        <time>2018-08-06T18:33:08Z</time>
      </trkpt>
      <trkpt lat="27.939909" lon="-15.516218">
        <ele>1098.20</ele>
        <time>2018-08-06T18:33:09Z</time>
      </trkpt>
      <trkpt lat="27.939916" lon="-15.516234">
        <ele>1098.40</ele>
        <time>2018-08-06T18:33:10Z</time>
      </trkpt>
      <trkpt lat="27.939926" lon="-15.516253">
        <ele>1098.40</ele>
        <time>2018-08-06T18:33:11Z</time>
      </trkpt>
      <trkpt lat="27.939938" lon="-15.516272">
        <ele>1098.60</ele>
        <time>2018-08-06T18:33:12Z</time>
      </trkpt>
      <trkpt lat="27.939949" lon="-15.516294">
        <ele>1098.80</ele>
        <time>2018-08-06T18:33:13Z</time>
      </trkpt>
      <trkpt lat="27.939969" lon="-15.516318">
        <ele>1099.40</ele>
        <time>2018-08-06T18:33:14Z</time>
      </trkpt>
      <trkpt lat="27.939987" lon="-15.516345">
        <ele>1099.80</ele>
        <time>2018-08-06T18:33:15Z</time>
      </trkpt>
      <trkpt lat="27.939999" lon="-15.516370">
        <ele>1100.00</ele>
        <time>2018-08-06T18:33:16Z</time>
      </trkpt>
      <trkpt lat="27.940013" lon="-15.516400">
        <ele>1100.20</ele>
        <time>2018-08-06T18:33:17Z</time>
      </trkpt>
      <trkpt lat="27.940022" lon="-15.516431">
        <ele>1100.60</ele>
        <time>2018-08-06T18:33:18Z</time>
      </trkpt>
      <trkpt lat="27.940022" lon="-15.516459">
        <ele>1100.80</ele>
        <time>2018-08-06T18:33:19Z</time>
      </trkpt>
      <trkpt lat="27.940021" lon="-15.516485">
        <ele>1101.20</ele>
        <time>2018-08-06T18:33:20Z</time>
      </trkpt>
      <trkpt lat="27.940019" lon="-15.516514">
        <ele>1101.60</ele>
        <time>2018-08-06T18:33:21Z</time>
      </trkpt>
      <trkpt lat="27.940016" lon="-15.516546">
        <ele>1101.80</ele>
        <time>2018-08-06T18:33:22Z</time>
      </trkpt>
      <trkpt lat="27.940020" lon="-15.516580">
        <ele>1102.00</ele>
        <time>2018-08-06T18:33:23Z</time>
      </trkpt>
      <trkpt lat="27.940020" lon="-15.516617">
        <ele>1102.20</ele>
        <time>2018-08-06T18:33:24Z</time>
      </trkpt>
      <trkpt lat="27.940028" lon="-15.516648">
        <ele>1102.40</ele>
        <time>2018-08-06T18:33:25Z</time>
      </trkpt>
      <trkpt lat="27.940039" lon="-15.516675">
        <ele>1102.40</ele>
        <time>2018-08-06T18:33:26Z</time>
      </trkpt>
      <trkpt lat="27.940045" lon="-15.516707">
        <ele>1102.60</ele>
        <time>2018-08-06T18:33:27Z</time>
      </trkpt>
      <trkpt lat="27.940063" lon="-15.516732">
        <ele>1102.60</ele>
        <time>2018-08-06T18:33:28Z</time>
      </trkpt>
      <trkpt lat="27.940081" lon="-15.516751">
        <ele>1102.60</ele>
        <time>2018-08-06T18:33:29Z</time>
      </trkpt>
      <trkpt lat="27.940096" lon="-15.516770">
        <ele>1102.60</ele>
        <time>2018-08-06T18:33:30Z</time>
      </trkpt>
      <trkpt lat="27.940116" lon="-15.516785">
        <ele>1102.80</ele>
        <time>2018-08-06T18:33:31Z</time>
      </trkpt>
      <trkpt lat="27.940133" lon="-15.516800">
        <ele>1103.00</ele>
        <time>2018-08-06T18:33:32Z</time>
      </trkpt>
      <trkpt lat="27.940147" lon="-15.516817">
        <ele>1103.20</ele>
        <time>2018-08-06T18:33:33Z</time>
      </trkpt>
      <trkpt lat="27.940158" lon="-15.516836">
        <ele>1103.40</ele>
        <time>2018-08-06T18:33:34Z</time>
      </trkpt>
      <trkpt lat="27.940167" lon="-15.516855">
        <ele>1103.60</ele>
        <time>2018-08-06T18:33:35Z</time>
      </trkpt>
      <trkpt lat="27.940166" lon="-15.516874">
        <ele>1103.80</ele>
        <time>2018-08-06T18:33:36Z</time>
      </trkpt>
      <trkpt lat="27.940161" lon="-15.516891">
        <ele>1104.20</ele>
        <time>2018-08-06T18:33:37Z</time>
      </trkpt>
      <trkpt lat="27.940149" lon="-15.516914">
        <ele>1104.40</ele>
        <time>2018-08-06T18:33:38Z</time>
      </trkpt>
      <trkpt lat="27.940140" lon="-15.516936">
        <ele>1104.80</ele>
        <time>2018-08-06T18:33:39Z</time>
      </trkpt>
      <trkpt lat="27.940133" lon="-15.516959">
        <ele>1105.00</ele>
        <time>2018-08-06T18:33:40Z</time>
      </trkpt>
      <trkpt lat="27.940123" lon="-15.516983">
        <ele>1105.60</ele>
        <time>2018-08-06T18:33:41Z</time>
      </trkpt>
      <trkpt lat="27.940112" lon="-15.517004">
        <ele>1106.00</ele>
        <time>2018-08-06T18:33:42Z</time>
      </trkpt>
      <trkpt lat="27.940102" lon="-15.517024">
        <ele>1106.60</ele>
        <time>2018-08-06T18:33:43Z</time>
      </trkpt>
      <trkpt lat="27.940093" lon="-15.517050">
        <ele>1107.00</ele>
        <time>2018-08-06T18:33:44Z</time>
      </trkpt>
      <trkpt lat="27.940081" lon="-15.517078">
        <ele>1107.40</ele>
        <time>2018-08-06T18:33:45Z</time>
      </trkpt>
      <trkpt lat="27.940072" lon="-15.517105">
        <ele>1107.80</ele>
        <time>2018-08-06T18:33:46Z</time>
      </trkpt>
      <trkpt lat="27.940061" lon="-15.517132">
        <ele>1108.20</ele>
        <time>2018-08-06T18:33:47Z</time>
      </trkpt>
      <trkpt lat="27.940048" lon="-15.517158">
        <ele>1108.20</ele>
        <time>2018-08-06T18:33:48Z</time>
      </trkpt>
      <trkpt lat="27.940032" lon="-15.517181">
        <ele>1108.20</ele>
        <time>2018-08-06T18:33:49Z</time>
      </trkpt>
      <trkpt lat="27.940017" lon="-15.517207">
        <ele>1108.20</ele>
        <time>2018-08-06T18:33:50Z</time>
      </trkpt>
      <trkpt lat="27.940007" lon="-15.517233">
        <ele>1108.20</ele>
        <time>2018-08-06T18:33:51Z</time>
      </trkpt>
      <trkpt lat="27.940002" lon="-15.517257">
        <ele>1108.00</ele>
        <time>2018-08-06T18:33:52Z</time>
      </trkpt>
      <trkpt lat="27.940000" lon="-15.517279">
        <ele>1108.00</ele>
        <time>2018-08-06T18:33:53Z</time>
      </trkpt>
      <trkpt lat="27.939998" lon="-15.517298">
        <ele>1108.00</ele>
        <time>2018-08-06T18:33:54Z</time>
      </trkpt>
      <trkpt lat="27.939996" lon="-15.517314">
        <ele>1108.20</ele>
        <time>2018-08-06T18:33:55Z</time>
      </trkpt>
      <trkpt lat="27.939999" lon="-15.517332">
        <ele>1108.40</ele>
        <time>2018-08-06T18:33:56Z</time>
      </trkpt>
      <trkpt lat="27.939991" lon="-15.517353">
        <ele>1108.40</ele>
        <time>2018-08-06T18:33:57Z</time>
      </trkpt>
      <trkpt lat="27.939982" lon="-15.517374">
        <ele>1108.80</ele>
        <time>2018-08-06T18:33:58Z</time>
      </trkpt>
      <trkpt lat="27.939972" lon="-15.517393">
        <ele>1109.00</ele>
        <time>2018-08-06T18:33:59Z</time>
      </trkpt>
      <trkpt lat="27.939969" lon="-15.517410">
        <ele>1109.40</ele>
        <time>2018-08-06T18:34:00Z</time>
      </trkpt>
      <trkpt lat="27.939952" lon="-15.517430">
        <ele>1109.80</ele>
        <time>2018-08-06T18:34:01Z</time>
      </trkpt>
      <trkpt lat="27.939939" lon="-15.517453">
        <ele>1110.00</ele>
        <time>2018-08-06T18:34:02Z</time>
      </trkpt>
      <trkpt lat="27.939933" lon="-15.517474">
        <ele>1110.40</ele>
        <time>2018-08-06T18:34:03Z</time>
      </trkpt>
      <trkpt lat="27.939928" lon="-15.517494">
        <ele>1110.60</ele>
        <time>2018-08-06T18:34:04Z</time>
      </trkpt>
      <trkpt lat="27.939921" lon="-15.517510">
        <ele>1110.80</ele>
        <time>2018-08-06T18:34:05Z</time>
      </trkpt>
      <trkpt lat="27.939914" lon="-15.517526">
        <ele>1111.00</ele>
        <time>2018-08-06T18:34:06Z</time>
      </trkpt>
      <trkpt lat="27.939892" lon="-15.517538">
        <ele>1111.60</ele>
        <time>2018-08-06T18:34:07Z</time>
      </trkpt>
      <trkpt lat="27.939868" lon="-15.517551">
        <ele>1111.80</ele>
        <time>2018-08-06T18:34:08Z</time>
      </trkpt>
      <trkpt lat="27.939849" lon="-15.517560">
        <ele>1112.00</ele>
        <time>2018-08-06T18:34:09Z</time>
      </trkpt>
      <trkpt lat="27.939825" lon="-15.517574">
        <ele>1112.40</ele>
        <time>2018-08-06T18:34:10Z</time>
      </trkpt>
      <trkpt lat="27.939813" lon="-15.517595">
        <ele>1112.80</ele>
        <time>2018-08-06T18:34:11Z</time>
      </trkpt>
      <trkpt lat="27.939804" lon="-15.517617">
        <ele>1113.00</ele>
        <time>2018-08-06T18:34:12Z</time>
      </trkpt>
      <trkpt lat="27.939796" lon="-15.517639">
        <ele>1113.40</ele>
        <time>2018-08-06T18:34:13Z</time>
      </trkpt>
      <trkpt lat="27.939757" lon="-15.517659">
        <ele>1113.60</ele>
        <time>2018-08-06T18:34:14Z</time>
      </trkpt>
      <trkpt lat="27.939741" lon="-15.517677">
        <ele>1114.00</ele>
        <time>2018-08-06T18:34:15Z</time>
      </trkpt>
      <trkpt lat="27.939729" lon="-15.517698">
        <ele>1114.20</ele>
        <time>2018-08-06T18:34:16Z</time>
      </trkpt>
      <trkpt lat="27.939719" lon="-15.517720">
        <ele>1114.60</ele>
        <time>2018-08-06T18:34:17Z</time>
      </trkpt>
      <trkpt lat="27.939715" lon="-15.517741">
        <ele>1114.80</ele>
        <time>2018-08-06T18:34:18Z</time>
      </trkpt>
      <trkpt lat="27.939713" lon="-15.517762">
        <ele>1115.20</ele>
        <time>2018-08-06T18:34:19Z</time>
      </trkpt>
      <trkpt lat="27.939712" lon="-15.517782">
        <ele>1115.20</ele>
        <time>2018-08-06T18:34:20Z</time>
      </trkpt>
      <trkpt lat="27.939705" lon="-15.517796">
        <ele>1115.80</ele>
        <time>2018-08-06T18:34:21Z</time>
      </trkpt>
      <trkpt lat="27.939697" lon="-15.517810">
        <ele>1116.20</ele>
        <time>2018-08-06T18:34:22Z</time>
      </trkpt>
      <trkpt lat="27.939684" lon="-15.517831">
        <ele>1116.60</ele>
        <time>2018-08-06T18:34:23Z</time>
      </trkpt>
      <trkpt lat="27.939674" lon="-15.517852">
        <ele>1117.00</ele>
        <time>2018-08-06T18:34:24Z</time>
      </trkpt>
      <trkpt lat="27.939664" lon="-15.517876">
        <ele>1117.40</ele>
        <time>2018-08-06T18:34:25Z</time>
      </trkpt>
      <trkpt lat="27.939650" lon="-15.517900">
        <ele>1117.80</ele>
        <time>2018-08-06T18:34:26Z</time>
      </trkpt>
      <trkpt lat="27.939633" lon="-15.517923">
        <ele>1118.00</ele>
        <time>2018-08-06T18:34:27Z</time>
      </trkpt>
      <trkpt lat="27.939617" lon="-15.517942">
        <ele>1118.20</ele>
        <time>2018-08-06T18:34:28Z</time>
      </trkpt>
      <trkpt lat="27.939607" lon="-15.517963">
        <ele>1118.40</ele>
        <time>2018-08-06T18:34:29Z</time>
      </trkpt>
      <trkpt lat="27.939601" lon="-15.517985">
        <ele>1118.60</ele>
        <time>2018-08-06T18:34:30Z</time>
      </trkpt>
      <trkpt lat="27.939612" lon="-15.518013">
        <ele>1118.80</ele>
        <time>2018-08-06T18:34:31Z</time>
      </trkpt>
      <trkpt lat="27.939631" lon="-15.518043">
        <ele>1119.00</ele>
        <time>2018-08-06T18:34:32Z</time>
      </trkpt>
      <trkpt lat="27.939645" lon="-15.518067">
        <ele>1119.60</ele>
        <time>2018-08-06T18:34:33Z</time>
      </trkpt>
      <trkpt lat="27.939664" lon="-15.518087">
        <ele>1119.80</ele>
        <time>2018-08-06T18:34:34Z</time>
      </trkpt>
      <trkpt lat="27.939691" lon="-15.518105">
        <ele>1120.00</ele>
        <time>2018-08-06T18:34:35Z</time>
      </trkpt>
      <trkpt lat="27.939712" lon="-15.518122">
        <ele>1120.40</ele>
        <time>2018-08-06T18:34:36Z</time>
      </trkpt>
      <trkpt lat="27.939732" lon="-15.518136">
        <ele>1121.00</ele>
        <time>2018-08-06T18:34:37Z</time>
      </trkpt>
      <trkpt lat="27.939753" lon="-15.518152">
        <ele>1121.40</ele>
        <time>2018-08-06T18:34:38Z</time>
      </trkpt>
      <trkpt lat="27.939773" lon="-15.518167">
        <ele>1121.80</ele>
        <time>2018-08-06T18:34:39Z</time>
      </trkpt>
      <trkpt lat="27.939791" lon="-15.518179">
        <ele>1122.00</ele>
        <time>2018-08-06T18:34:40Z</time>
      </trkpt>
      <trkpt lat="27.939813" lon="-15.518194">
        <ele>1122.40</ele>
        <time>2018-08-06T18:34:41Z</time>
      </trkpt>
      <trkpt lat="27.939834" lon="-15.518217">
        <ele>1122.60</ele>
        <time>2018-08-06T18:34:42Z</time>
      </trkpt>
      <trkpt lat="27.939850" lon="-15.518239">
        <ele>1122.80</ele>
        <time>2018-08-06T18:34:43Z</time>
      </trkpt>
      <trkpt lat="27.939850" lon="-15.518268">
        <ele>1122.80</ele>
        <time>2018-08-06T18:34:44Z</time>
      </trkpt>
      <trkpt lat="27.939865" lon="-15.518281">
        <ele>1123.00</ele>
        <time>2018-08-06T18:34:45Z</time>
      </trkpt>
      <trkpt lat="27.939883" lon="-15.518294">
        <ele>1123.20</ele>
        <time>2018-08-06T18:34:46Z</time>
      </trkpt>
      <trkpt lat="27.939894" lon="-15.518310">
        <ele>1123.40</ele>
        <time>2018-08-06T18:34:47Z</time>
      </trkpt>
      <trkpt lat="27.939911" lon="-15.518321">
        <ele>1123.80</ele>
        <time>2018-08-06T18:34:48Z</time>
      </trkpt>
      <trkpt lat="27.939925" lon="-15.518337">
        <ele>1123.80</ele>
        <time>2018-08-06T18:34:49Z</time>
      </trkpt>
      <trkpt lat="27.939938" lon="-15.518354">
        <ele>1124.20</ele>
        <time>2018-08-06T18:34:50Z</time>
      </trkpt>
      <trkpt lat="27.939956" lon="-15.518369">
        <ele>1124.60</ele>
        <time>2018-08-06T18:34:51Z</time>
      </trkpt>
      <trkpt lat="27.939977" lon="-15.518382">
        <ele>1125.00</ele>
        <time>2018-08-06T18:34:52Z</time>
      </trkpt>
      <trkpt lat="27.939994" lon="-15.518396">
        <ele>1125.40</ele>
        <time>2018-08-06T18:34:53Z</time>
      </trkpt>
      <trkpt lat="27.940012" lon="-15.518410">
        <ele>1125.80</ele>
        <time>2018-08-06T18:34:54Z</time>
      </trkpt>
      <trkpt lat="27.940027" lon="-15.518416">
        <ele>1125.80</ele>
        <time>2018-08-06T18:34:55Z</time>
      </trkpt>
      <trkpt lat="27.940047" lon="-15.518423">
        <ele>1126.00</ele>
        <time>2018-08-06T18:34:56Z</time>
      </trkpt>
      <trkpt lat="27.940069" lon="-15.518433">
        <ele>1126.40</ele>
        <time>2018-08-06T18:34:57Z</time>
      </trkpt>
      <trkpt lat="27.940094" lon="-15.518441">
        <ele>1126.20</ele>
        <time>2018-08-06T18:34:58Z</time>
      </trkpt>
      <trkpt lat="27.940119" lon="-15.518455">
        <ele>1126.40</ele>
        <time>2018-08-06T18:34:59Z</time>
      </trkpt>
      <trkpt lat="27.940141" lon="-15.518467">
        <ele>1126.80</ele>
        <time>2018-08-06T18:35:00Z</time>
      </trkpt>
      <trkpt lat="27.940161" lon="-15.518480">
        <ele>1126.80</ele>
        <time>2018-08-06T18:35:01Z</time>
      </trkpt>
      <trkpt lat="27.940183" lon="-15.518498">
        <ele>1127.00</ele>
        <time>2018-08-06T18:35:02Z</time>
      </trkpt>
      <trkpt lat="27.940207" lon="-15.518514">
        <ele>1127.40</ele>
        <time>2018-08-06T18:35:03Z</time>
      </trkpt>
      <trkpt lat="27.940227" lon="-15.518528">
        <ele>1127.20</ele>
        <time>2018-08-06T18:35:04Z</time>
      </trkpt>
      <trkpt lat="27.940249" lon="-15.518539">
        <ele>1127.20</ele>
        <time>2018-08-06T18:35:05Z</time>
      </trkpt>
      <trkpt lat="27.940271" lon="-15.518548">
        <ele>1127.60</ele>
        <time>2018-08-06T18:35:06Z</time>
      </trkpt>
      <trkpt lat="27.940289" lon="-15.518551">
        <ele>1127.40</ele>
        <time>2018-08-06T18:35:07Z</time>
      </trkpt>
      <trkpt lat="27.940309" lon="-15.518556">
        <ele>1127.40</ele>
        <time>2018-08-06T18:35:08Z</time>
      </trkpt>
      <trkpt lat="27.940336" lon="-15.518569">
        <ele>1127.40</ele>
        <time>2018-08-06T18:35:09Z</time>
      </trkpt>
      <trkpt lat="27.940360" lon="-15.518582">
        <ele>1127.20</ele>
        <time>2018-08-06T18:35:10Z</time>
      </trkpt>
      <trkpt lat="27.940389" lon="-15.518601">
        <ele>1127.00</ele>
        <time>2018-08-06T18:35:11Z</time>
      </trkpt>
      <trkpt lat="27.940416" lon="-15.518618">
        <ele>1127.00</ele>
        <time>2018-08-06T18:35:12Z</time>
      </trkpt>
      <trkpt lat="27.940451" lon="-15.518637">
        <ele>1127.00</ele>
        <time>2018-08-06T18:35:13Z</time>
      </trkpt>
      <trkpt lat="27.940482" lon="-15.518650">
        <ele>1127.00</ele>
        <time>2018-08-06T18:35:14Z</time>
      </trkpt>
      <trkpt lat="27.940512" lon="-15.518664">
        <ele>1127.20</ele>
        <time>2018-08-06T18:35:15Z</time>
      </trkpt>
      <trkpt lat="27.940542" lon="-15.518677">
        <ele>1127.00</ele>
        <time>2018-08-06T18:35:16Z</time>
      </trkpt>
      <trkpt lat="27.940570" lon="-15.518690">
        <ele>1127.20</ele>
        <time>2018-08-06T18:35:17Z</time>
      </trkpt>
      <trkpt lat="27.940600" lon="-15.518701">
        <ele>1127.40</ele>
        <time>2018-08-06T18:35:18Z</time>
      </trkpt>
      <trkpt lat="27.940619" lon="-15.518700">
        <ele>1127.40</ele>
        <time>2018-08-06T18:35:19Z</time>
      </trkpt>
      <trkpt lat="27.940637" lon="-15.518699">
        <ele>1127.40</ele>
        <time>2018-08-06T18:35:20Z</time>
      </trkpt>
      <trkpt lat="27.940656" lon="-15.518700">
        <ele>1127.40</ele>
        <time>2018-08-06T18:35:21Z</time>
      </trkpt>
      <trkpt lat="27.940663" lon="-15.518691">
        <ele>1127.40</ele>
        <time>2018-08-06T18:35:22Z</time>
      </trkpt>
      <trkpt lat="27.940683" lon="-15.518697">
        <ele>1127.40</ele>
        <time>2018-08-06T18:35:23Z</time>
      </trkpt>
      <trkpt lat="27.940702" lon="-15.518706">
        <ele>1127.40</ele>
        <time>2018-08-06T18:35:24Z</time>
      </trkpt>
      <trkpt lat="27.940715" lon="-15.518718">
        <ele>1127.40</ele>
        <time>2018-08-06T18:35:25Z</time>
      </trkpt>
      <trkpt lat="27.940727" lon="-15.518740">
        <ele>1127.60</ele>
        <time>2018-08-06T18:35:26Z</time>
      </trkpt>
      <trkpt lat="27.940742" lon="-15.518763">
        <ele>1128.00</ele>
        <time>2018-08-06T18:35:27Z</time>
      </trkpt>
      <trkpt lat="27.940753" lon="-15.518789">
        <ele>1128.20</ele>
        <time>2018-08-06T18:35:28Z</time>
      </trkpt>
      <trkpt lat="27.940765" lon="-15.518816">
        <ele>1128.60</ele>
        <time>2018-08-06T18:35:29Z</time>
      </trkpt>
      <trkpt lat="27.940774" lon="-15.518837">
        <ele>1129.00</ele>
        <time>2018-08-06T18:35:30Z</time>
      </trkpt>
      <trkpt lat="27.940783" lon="-15.518849">
        <ele>1129.20</ele>
        <time>2018-08-06T18:35:31Z</time>
      </trkpt>
      <trkpt lat="27.940790" lon="-15.518866">
        <ele>1129.40</ele>
        <time>2018-08-06T18:35:32Z</time>
      </trkpt>
      <trkpt lat="27.940802" lon="-15.518878">
        <ele>1129.60</ele>
        <time>2018-08-06T18:35:33Z</time>
      </trkpt>
      <trkpt lat="27.940812" lon="-15.518883">
        <ele>1129.80</ele>
        <time>2018-08-06T18:35:34Z</time>
      </trkpt>
      <trkpt lat="27.940824" lon="-15.518889">
        <ele>1130.20</ele>
        <time>2018-08-06T18:35:35Z</time>
      </trkpt>
      <trkpt lat="27.940838" lon="-15.518902">
        <ele>1130.40</ele>
        <time>2018-08-06T18:35:36Z</time>
      </trkpt>
      <trkpt lat="27.940829" lon="-15.518880">
        <ele>1130.80</ele>
        <time>2018-08-06T18:35:37Z</time>
      </trkpt>
      <trkpt lat="27.940849" lon="-15.518889">
        <ele>1131.00</ele>
        <time>2018-08-06T18:35:38Z</time>
      </trkpt>
      <trkpt lat="27.940873" lon="-15.518903">
        <ele>1131.40</ele>
        <time>2018-08-06T18:35:39Z</time>
      </trkpt>
      <trkpt lat="27.940896" lon="-15.518920">
        <ele>1131.80</ele>
        <time>2018-08-06T18:35:40Z</time>
      </trkpt>
      <trkpt lat="27.940919" lon="-15.518951">
        <ele>1132.20</ele>
        <time>2018-08-06T18:35:41Z</time>
      </trkpt>
      <trkpt lat="27.940939" lon="-15.518974">
        <ele>1132.60</ele>
        <time>2018-08-06T18:35:42Z</time>
      </trkpt>
      <trkpt lat="27.940964" lon="-15.519008">
        <ele>1132.80</ele>
        <time>2018-08-06T18:35:43Z</time>
      </trkpt>
      <trkpt lat="27.940984" lon="-15.519041">
        <ele>1133.20</ele>
        <time>2018-08-06T18:35:44Z</time>
      </trkpt>
      <trkpt lat="27.941007" lon="-15.519073">
        <ele>1133.60</ele>
        <time>2018-08-06T18:35:45Z</time>
      </trkpt>
      <trkpt lat="27.941030" lon="-15.519104">
        <ele>1133.80</ele>
        <time>2018-08-06T18:35:46Z</time>
      </trkpt>
      <trkpt lat="27.941053" lon="-15.519134">
        <ele>1133.80</ele>
        <time>2018-08-06T18:35:47Z</time>
      </trkpt>
      <trkpt lat="27.941085" lon="-15.519161">
        <ele>1134.00</ele>
        <time>2018-08-06T18:35:48Z</time>
      </trkpt>
      <trkpt lat="27.941117" lon="-15.519192">
        <ele>1134.00</ele>
        <time>2018-08-06T18:35:49Z</time>
      </trkpt>
      <trkpt lat="27.941144" lon="-15.519226">
        <ele>1133.80</ele>
        <time>2018-08-06T18:35:50Z</time>
      </trkpt>
      <trkpt lat="27.941188" lon="-15.519271">
        <ele>1133.60</ele>
        <time>2018-08-06T18:35:51Z</time>
      </trkpt>
      <trkpt lat="27.941210" lon="-15.519298">
        <ele>1133.60</ele>
        <time>2018-08-06T18:35:52Z</time>
      </trkpt>
      <trkpt lat="27.941229" lon="-15.519321">
        <ele>1133.60</ele>
        <time>2018-08-06T18:35:53Z</time>
      </trkpt>
      <trkpt lat="27.941244" lon="-15.519345">
        <ele>1133.60</ele>
        <time>2018-08-06T18:35:54Z</time>
      </trkpt>
      <trkpt lat="27.941258" lon="-15.519371">
        <ele>1133.60</ele>
        <time>2018-08-06T18:35:55Z</time>
      </trkpt>
      <trkpt lat="27.941274" lon="-15.519394">
        <ele>1133.60</ele>
        <time>2018-08-06T18:35:56Z</time>
      </trkpt>
      <trkpt lat="27.941289" lon="-15.519418">
        <ele>1133.80</ele>
        <time>2018-08-06T18:35:57Z</time>
      </trkpt>
      <trkpt lat="27.941308" lon="-15.519436">
        <ele>1133.80</ele>
        <time>2018-08-06T18:35:58Z</time>
      </trkpt>
      <trkpt lat="27.941330" lon="-15.519455">
        <ele>1134.00</ele>
        <time>2018-08-06T18:35:59Z</time>
      </trkpt>
      <trkpt lat="27.941351" lon="-15.519475">
        <ele>1134.00</ele>
        <time>2018-08-06T18:36:00Z</time>
      </trkpt>
      <trkpt lat="27.941373" lon="-15.519491">
        <ele>1134.20</ele>
        <time>2018-08-06T18:36:01Z</time>
      </trkpt>
      <trkpt lat="27.941388" lon="-15.519516">
        <ele>1134.20</ele>
        <time>2018-08-06T18:36:02Z</time>
      </trkpt>
      <trkpt lat="27.941405" lon="-15.519536">
        <ele>1134.20</ele>
        <time>2018-08-06T18:36:03Z</time>
      </trkpt>
      <trkpt lat="27.941419" lon="-15.519559">
        <ele>1134.20</ele>
        <time>2018-08-06T18:36:04Z</time>
      </trkpt>
      <trkpt lat="27.941437" lon="-15.519584">
        <ele>1134.40</ele>
        <time>2018-08-06T18:36:05Z</time>
      </trkpt>
      <trkpt lat="27.941453" lon="-15.519605">
        <ele>1134.60</ele>
        <time>2018-08-06T18:36:06Z</time>
      </trkpt>
      <trkpt lat="27.941466" lon="-15.519627">
        <ele>1134.60</ele>
        <time>2018-08-06T18:36:07Z</time>
      </trkpt>
      <trkpt lat="27.941485" lon="-15.519649">
        <ele>1135.00</ele>
        <time>2018-08-06T18:36:08Z</time>
      </trkpt>
      <trkpt lat="27.941501" lon="-15.519670">
        <ele>1135.20</ele>
        <time>2018-08-06T18:36:09Z</time>
      </trkpt>
      <trkpt lat="27.941514" lon="-15.519691">
        <ele>1135.60</ele>
        <time>2018-08-06T18:36:10Z</time>
      </trkpt>
      <trkpt lat="27.941526" lon="-15.519712">
        <ele>1136.00</ele>
        <time>2018-08-06T18:36:11Z</time>
      </trkpt>
      <trkpt lat="27.941538" lon="-15.519732">
        <ele>1136.40</ele>
        <time>2018-08-06T18:36:12Z</time>
      </trkpt>
      <trkpt lat="27.941552" lon="-15.519753">
        <ele>1136.40</ele>
        <time>2018-08-06T18:36:13Z</time>
      </trkpt>
      <trkpt lat="27.941564" lon="-15.519780">
        <ele>1136.80</ele>
        <time>2018-08-06T18:36:14Z</time>
      </trkpt>
      <trkpt lat="27.941582" lon="-15.519799">
        <ele>1137.00</ele>
        <time>2018-08-06T18:36:15Z</time>
      </trkpt>
      <trkpt lat="27.941597" lon="-15.519819">
        <ele>1137.20</ele>
        <time>2018-08-06T18:36:16Z</time>
      </trkpt>
      <trkpt lat="27.941608" lon="-15.519843">
        <ele>1137.40</ele>
        <time>2018-08-06T18:36:17Z</time>
      </trkpt>
      <trkpt lat="27.941625" lon="-15.519865">
        <ele>1137.60</ele>
        <time>2018-08-06T18:36:18Z</time>
      </trkpt>
      <trkpt lat="27.941641" lon="-15.519884">
        <ele>1137.80</ele>
        <time>2018-08-06T18:36:19Z</time>
      </trkpt>
      <trkpt lat="27.941659" lon="-15.519902">
        <ele>1138.20</ele>
        <time>2018-08-06T18:36:20Z</time>
      </trkpt>
      <trkpt lat="27.941678" lon="-15.519919">
        <ele>1138.40</ele>
        <time>2018-08-06T18:36:21Z</time>
      </trkpt>
      <trkpt lat="27.941697" lon="-15.519935">
        <ele>1138.60</ele>
        <time>2018-08-06T18:36:22Z</time>
      </trkpt>
      <trkpt lat="27.941715" lon="-15.519954">
        <ele>1138.80</ele>
        <time>2018-08-06T18:36:23Z</time>
      </trkpt>
      <trkpt lat="27.941738" lon="-15.519974">
        <ele>1139.00</ele>
        <time>2018-08-06T18:36:24Z</time>
      </trkpt>
      <trkpt lat="27.941757" lon="-15.519993">
        <ele>1139.00</ele>
        <time>2018-08-06T18:36:25Z</time>
      </trkpt>
      <trkpt lat="27.941775" lon="-15.520013">
        <ele>1139.00</ele>
        <time>2018-08-06T18:36:26Z</time>
      </trkpt>
      <trkpt lat="27.941797" lon="-15.520037">
        <ele>1139.20</ele>
        <time>2018-08-06T18:36:27Z</time>
      </trkpt>
      <trkpt lat="27.941816" lon="-15.520056">
        <ele>1139.40</ele>
        <time>2018-08-06T18:36:28Z</time>
      </trkpt>
      <trkpt lat="27.941835" lon="-15.520076">
        <ele>1139.60</ele>
        <time>2018-08-06T18:36:29Z</time>
      </trkpt>
      <trkpt lat="27.941857" lon="-15.520096">
        <ele>1139.80</ele>
        <time>2018-08-06T18:36:30Z</time>
      </trkpt>
      <trkpt lat="27.941877" lon="-15.520114">
        <ele>1140.00</ele>
        <time>2018-08-06T18:36:31Z</time>
      </trkpt>
      <trkpt lat="27.941898" lon="-15.520127">
        <ele>1140.40</ele>
        <time>2018-08-06T18:36:32Z</time>
      </trkpt>
      <trkpt lat="27.941921" lon="-15.520136">
        <ele>1140.60</ele>
        <time>2018-08-06T18:36:33Z</time>
      </trkpt>
      <trkpt lat="27.941939" lon="-15.520149">
        <ele>1141.00</ele>
        <time>2018-08-06T18:36:34Z</time>
      </trkpt>
      <trkpt lat="27.941955" lon="-15.520157">
        <ele>1141.40</ele>
        <time>2018-08-06T18:36:35Z</time>
      </trkpt>
      <trkpt lat="27.941968" lon="-15.520163">
        <ele>1141.60</ele>
        <time>2018-08-06T18:36:36Z</time>
      </trkpt>
      <trkpt lat="27.941982" lon="-15.520172">
        <ele>1142.00</ele>
        <time>2018-08-06T18:36:37Z</time>
      </trkpt>
      <trkpt lat="27.941996" lon="-15.520183">
        <ele>1142.20</ele>
        <time>2018-08-06T18:36:38Z</time>
      </trkpt>
      <trkpt lat="27.942012" lon="-15.520190">
        <ele>1142.60</ele>
        <time>2018-08-06T18:36:39Z</time>
      </trkpt>
      <trkpt lat="27.942026" lon="-15.520203">
        <ele>1142.80</ele>
        <time>2018-08-06T18:36:40Z</time>
      </trkpt>
      <trkpt lat="27.942048" lon="-15.520216">
        <ele>1143.20</ele>
        <time>2018-08-06T18:36:41Z</time>
      </trkpt>
      <trkpt lat="27.942065" lon="-15.520229">
        <ele>1143.40</ele>
        <time>2018-08-06T18:36:42Z</time>
      </trkpt>
      <trkpt lat="27.942082" lon="-15.520238">
        <ele>1143.80</ele>
        <time>2018-08-06T18:36:43Z</time>
      </trkpt>
      <trkpt lat="27.942101" lon="-15.520242">
        <ele>1144.20</ele>
        <time>2018-08-06T18:36:44Z</time>
      </trkpt>
      <trkpt lat="27.942122" lon="-15.520239">
        <ele>1144.00</ele>
        <time>2018-08-06T18:36:45Z</time>
      </trkpt>
      <trkpt lat="27.942140" lon="-15.520235">
        <ele>1144.40</ele>
        <time>2018-08-06T18:36:46Z</time>
      </trkpt>
      <trkpt lat="27.942162" lon="-15.520235">
        <ele>1144.60</ele>
        <time>2018-08-06T18:36:47Z</time>
      </trkpt>
      <trkpt lat="27.942180" lon="-15.520237">
        <ele>1144.60</ele>
        <time>2018-08-06T18:36:48Z</time>
      </trkpt>
      <trkpt lat="27.942197" lon="-15.520237">
        <ele>1144.80</ele>
        <time>2018-08-06T18:36:49Z</time>
      </trkpt>
      <trkpt lat="27.942219" lon="-15.520238">
        <ele>1145.20</ele>
        <time>2018-08-06T18:36:50Z</time>
      </trkpt>
      <trkpt lat="27.942240" lon="-15.520238">
        <ele>1145.40</ele>
        <time>2018-08-06T18:36:51Z</time>
      </trkpt>
      <trkpt lat="27.942252" lon="-15.520242">
        <ele>1145.60</ele>
        <time>2018-08-06T18:36:52Z</time>
      </trkpt>
      <trkpt lat="27.942272" lon="-15.520246">
        <ele>1146.00</ele>
        <time>2018-08-06T18:36:53Z</time>
      </trkpt>
      <trkpt lat="27.942287" lon="-15.520249">
        <ele>1146.20</ele>
        <time>2018-08-06T18:36:54Z</time>
      </trkpt>
      <trkpt lat="27.942299" lon="-15.520251">
        <ele>1146.40</ele>
        <time>2018-08-06T18:36:55Z</time>
      </trkpt>
      <trkpt lat="27.942311" lon="-15.520252">
        <ele>1147.00</ele>
        <time>2018-08-06T18:36:56Z</time>
      </trkpt>
      <trkpt lat="27.942323" lon="-15.520250">
        <ele>1147.00</ele>
        <time>2018-08-06T18:36:57Z</time>
      </trkpt>
      <trkpt lat="27.942332" lon="-15.520250">
        <ele>1147.40</ele>
        <time>2018-08-06T18:36:58Z</time>
      </trkpt>
      <trkpt lat="27.942345" lon="-15.520250">
        <ele>1147.80</ele>
        <time>2018-08-06T18:36:59Z</time>
      </trkpt>
      <trkpt lat="27.942357" lon="-15.520251">
        <ele>1148.40</ele>
        <time>2018-08-06T18:37:00Z</time>
      </trkpt>
      <trkpt lat="27.942370" lon="-15.520257">
        <ele>1149.00</ele>
        <time>2018-08-06T18:37:01Z</time>
      </trkpt>
      <trkpt lat="27.942384" lon="-15.520262">
        <ele>1149.60</ele>
        <time>2018-08-06T18:37:02Z</time>
      </trkpt>
      <trkpt lat="27.942403" lon="-15.520268">
        <ele>1149.80</ele>
        <time>2018-08-06T18:37:03Z</time>
      </trkpt>
      <trkpt lat="27.942421" lon="-15.520273">
        <ele>1150.20</ele>
        <time>2018-08-06T18:37:04Z</time>
      </trkpt>
      <trkpt lat="27.942448" lon="-15.520279">
        <ele>1150.60</ele>
        <time>2018-08-06T18:37:05Z</time>
      </trkpt>
      <trkpt lat="27.942474" lon="-15.520285">
        <ele>1150.80</ele>
        <time>2018-08-06T18:37:06Z</time>
      </trkpt>
      <trkpt lat="27.942499" lon="-15.520294">
        <ele>1151.00</ele>
        <time>2018-08-06T18:37:07Z</time>
      </trkpt>
      <trkpt lat="27.942526" lon="-15.520304">
        <ele>1151.40</ele>
        <time>2018-08-06T18:37:08Z</time>
      </trkpt>
      <trkpt lat="27.942553" lon="-15.520321">
        <ele>1151.60</ele>
        <time>2018-08-06T18:37:09Z</time>
      </trkpt>
      <trkpt lat="27.942581" lon="-15.520345">
        <ele>1151.80</ele>
        <time>2018-08-06T18:37:10Z</time>
      </trkpt>
      <trkpt lat="27.942601" lon="-15.520372">
        <ele>1152.20</ele>
        <time>2018-08-06T18:37:11Z</time>
      </trkpt>
      <trkpt lat="27.942620" lon="-15.520408">
        <ele>1152.20</ele>
        <time>2018-08-06T18:37:12Z</time>
      </trkpt>
      <trkpt lat="27.942639" lon="-15.520443">
        <ele>1152.40</ele>
        <time>2018-08-06T18:37:13Z</time>
      </trkpt>
      <trkpt lat="27.942651" lon="-15.520470">
        <ele>1152.60</ele>
        <time>2018-08-06T18:37:14Z</time>
      </trkpt>
      <trkpt lat="27.942673" lon="-15.520502">
        <ele>1152.80</ele>
        <time>2018-08-06T18:37:15Z</time>
      </trkpt>
      <trkpt lat="27.942694" lon="-15.520530">
        <ele>1153.00</ele>
        <time>2018-08-06T18:37:16Z</time>
      </trkpt>
      <trkpt lat="27.942766" lon="-15.520592">
        <ele>1153.00</ele>
        <time>2018-08-06T18:37:17Z</time>
      </trkpt>
      <trkpt lat="27.942815" lon="-15.520643">
        <ele>1153.00</ele>
        <time>2018-08-06T18:37:18Z</time>
      </trkpt>
      <trkpt lat="27.942842" lon="-15.520669">
        <ele>1153.20</ele>
        <time>2018-08-06T18:37:19Z</time>
      </trkpt>
      <trkpt lat="27.942871" lon="-15.520699">
        <ele>1153.20</ele>
        <time>2018-08-06T18:37:20Z</time>
      </trkpt>
      <trkpt lat="27.942903" lon="-15.520721">
        <ele>1153.20</ele>
        <time>2018-08-06T18:37:21Z</time>
      </trkpt>
      <trkpt lat="27.942936" lon="-15.520745">
        <ele>1153.20</ele>
        <time>2018-08-06T18:37:22Z</time>
      </trkpt>
      <trkpt lat="27.942964" lon="-15.520755">
        <ele>1152.80</ele>
        <time>2018-08-06T18:37:23Z</time>
      </trkpt>
      <trkpt lat="27.942990" lon="-15.520780">
        <ele>1152.40</ele>
        <time>2018-08-06T18:37:24Z</time>
      </trkpt>
      <trkpt lat="27.943012" lon="-15.520801">
        <ele>1152.40</ele>
        <time>2018-08-06T18:37:25Z</time>
      </trkpt>
      <trkpt lat="27.943027" lon="-15.520816">
        <ele>1152.20</ele>
        <time>2018-08-06T18:37:26Z</time>
      </trkpt>
      <trkpt lat="27.943039" lon="-15.520836">
        <ele>1152.00</ele>
        <time>2018-08-06T18:37:27Z</time>
      </trkpt>
      <trkpt lat="27.943057" lon="-15.520855">
        <ele>1152.00</ele>
        <time>2018-08-06T18:37:28Z</time>
      </trkpt>
      <trkpt lat="27.943073" lon="-15.520872">
        <ele>1152.20</ele>
        <time>2018-08-06T18:37:29Z</time>
      </trkpt>
      <trkpt lat="27.943086" lon="-15.520895">
        <ele>1152.20</ele>
        <time>2018-08-06T18:37:30Z</time>
      </trkpt>
      <trkpt lat="27.943105" lon="-15.520917">
        <ele>1152.40</ele>
        <time>2018-08-06T18:37:31Z</time>
      </trkpt>
      <trkpt lat="27.943122" lon="-15.520946">
        <ele>1152.40</ele>
        <time>2018-08-06T18:37:32Z</time>
      </trkpt>
      <trkpt lat="27.943137" lon="-15.520979">
        <ele>1152.40</ele>
        <time>2018-08-06T18:37:33Z</time>
      </trkpt>
      <trkpt lat="27.943147" lon="-15.521016">
        <ele>1152.40</ele>
        <time>2018-08-06T18:37:34Z</time>
      </trkpt>
      <trkpt lat="27.943151" lon="-15.521059">
        <ele>1152.00</ele>
        <time>2018-08-06T18:37:35Z</time>
      </trkpt>
      <trkpt lat="27.943163" lon="-15.521095">
        <ele>1152.00</ele>
        <time>2018-08-06T18:37:36Z</time>
      </trkpt>
      <trkpt lat="27.943174" lon="-15.521133">
        <ele>1151.80</ele>
        <time>2018-08-06T18:37:37Z</time>
      </trkpt>
      <trkpt lat="27.943179" lon="-15.521174">
        <ele>1151.60</ele>
        <time>2018-08-06T18:37:38Z</time>
      </trkpt>
      <trkpt lat="27.943179" lon="-15.521213">
        <ele>1151.60</ele>
        <time>2018-08-06T18:37:39Z</time>
      </trkpt>
      <trkpt lat="27.943176" lon="-15.521252">
        <ele>1151.20</ele>
        <time>2018-08-06T18:37:40Z</time>
      </trkpt>
      <trkpt lat="27.943175" lon="-15.521289">
        <ele>1151.00</ele>
        <time>2018-08-06T18:37:41Z</time>
      </trkpt>
      <trkpt lat="27.943175" lon="-15.521327">
        <ele>1150.60</ele>
        <time>2018-08-06T18:37:42Z</time>
      </trkpt>
      <trkpt lat="27.943183" lon="-15.521364">
        <ele>1150.00</ele>
        <time>2018-08-06T18:37:43Z</time>
      </trkpt>
      <trkpt lat="27.943192" lon="-15.521400">
        <ele>1149.80</ele>
        <time>2018-08-06T18:37:44Z</time>
      </trkpt>
      <trkpt lat="27.943208" lon="-15.521437">
        <ele>1149.60</ele>
        <time>2018-08-06T18:37:45Z</time>
      </trkpt>
      <trkpt lat="27.943229" lon="-15.521468">
        <ele>1149.40</ele>
        <time>2018-08-06T18:37:46Z</time>
      </trkpt>
      <trkpt lat="27.943247" lon="-15.521496">
        <ele>1149.40</ele>
        <time>2018-08-06T18:37:47Z</time>
      </trkpt>
      <trkpt lat="27.943260" lon="-15.521524">
        <ele>1149.00</ele>
        <time>2018-08-06T18:37:48Z</time>
      </trkpt>
      <trkpt lat="27.943271" lon="-15.521546">
        <ele>1149.00</ele>
        <time>2018-08-06T18:37:49Z</time>
      </trkpt>
      <trkpt lat="27.943279" lon="-15.521568">
        <ele>1149.00</ele>
        <time>2018-08-06T18:37:50Z</time>
      </trkpt>
      <trkpt lat="27.943291" lon="-15.521592">
        <ele>1148.80</ele>
        <time>2018-08-06T18:37:51Z</time>
      </trkpt>
      <trkpt lat="27.943304" lon="-15.521607">
        <ele>1148.80</ele>
        <time>2018-08-06T18:37:52Z</time>
      </trkpt>
      <trkpt lat="27.943319" lon="-15.521625">
        <ele>1148.80</ele>
        <time>2018-08-06T18:37:53Z</time>
      </trkpt>
      <trkpt lat="27.943334" lon="-15.521639">
        <ele>1149.20</ele>
        <time>2018-08-06T18:37:54Z</time>
      </trkpt>
      <trkpt lat="27.943351" lon="-15.521643">
        <ele>1149.40</ele>
        <time>2018-08-06T18:37:55Z</time>
      </trkpt>
      <trkpt lat="27.943368" lon="-15.521647">
        <ele>1149.80</ele>
        <time>2018-08-06T18:37:56Z</time>
      </trkpt>
      <trkpt lat="27.943382" lon="-15.521651">
        <ele>1150.00</ele>
        <time>2018-08-06T18:37:57Z</time>
      </trkpt>
      <trkpt lat="27.943398" lon="-15.521654">
        <ele>1150.60</ele>
        <time>2018-08-06T18:37:58Z</time>
      </trkpt>
      <trkpt lat="27.943412" lon="-15.521652">
        <ele>1151.00</ele>
        <time>2018-08-06T18:37:59Z</time>
      </trkpt>
      <trkpt lat="27.943426" lon="-15.521650">
        <ele>1151.40</ele>
        <time>2018-08-06T18:38:00Z</time>
      </trkpt>
      <trkpt lat="27.943441" lon="-15.521651">
        <ele>1151.80</ele>
        <time>2018-08-06T18:38:01Z</time>
      </trkpt>
      <trkpt lat="27.943457" lon="-15.521654">
        <ele>1152.00</ele>
        <time>2018-08-06T18:38:02Z</time>
      </trkpt>
      <trkpt lat="27.943473" lon="-15.521658">
        <ele>1152.60</ele>
        <time>2018-08-06T18:38:03Z</time>
      </trkpt>
      <trkpt lat="27.943493" lon="-15.521665">
        <ele>1153.20</ele>
        <time>2018-08-06T18:38:04Z</time>
      </trkpt>
      <trkpt lat="27.943511" lon="-15.521673">
        <ele>1153.60</ele>
        <time>2018-08-06T18:38:05Z</time>
      </trkpt>
      <trkpt lat="27.943527" lon="-15.521684">
        <ele>1154.00</ele>
        <time>2018-08-06T18:38:06Z</time>
      </trkpt>
      <trkpt lat="27.943543" lon="-15.521692">
        <ele>1154.40</ele>
        <time>2018-08-06T18:38:07Z</time>
      </trkpt>
      <trkpt lat="27.943555" lon="-15.521701">
        <ele>1154.80</ele>
        <time>2018-08-06T18:38:08Z</time>
      </trkpt>
      <trkpt lat="27.943570" lon="-15.521710">
        <ele>1155.20</ele>
        <time>2018-08-06T18:38:09Z</time>
      </trkpt>
      <trkpt lat="27.943586" lon="-15.521719">
        <ele>1155.60</ele>
        <time>2018-08-06T18:38:10Z</time>
      </trkpt>
      <trkpt lat="27.943603" lon="-15.521726">
        <ele>1156.00</ele>
        <time>2018-08-06T18:38:11Z</time>
      </trkpt>
      <trkpt lat="27.943617" lon="-15.521738">
        <ele>1156.80</ele>
        <time>2018-08-06T18:38:12Z</time>
      </trkpt>
      <trkpt lat="27.943629" lon="-15.521747">
        <ele>1157.40</ele>
        <time>2018-08-06T18:38:13Z</time>
      </trkpt>
      <trkpt lat="27.943641" lon="-15.521755">
        <ele>1157.80</ele>
        <time>2018-08-06T18:38:14Z</time>
      </trkpt>
      <trkpt lat="27.943654" lon="-15.521764">
        <ele>1158.20</ele>
        <time>2018-08-06T18:38:15Z</time>
      </trkpt>
      <trkpt lat="27.943667" lon="-15.521776">
        <ele>1158.60</ele>
        <time>2018-08-06T18:38:16Z</time>
      </trkpt>
      <trkpt lat="27.943683" lon="-15.521789">
        <ele>1159.00</ele>
        <time>2018-08-06T18:38:17Z</time>
      </trkpt>
      <trkpt lat="27.943699" lon="-15.521800">
        <ele>1159.40</ele>
        <time>2018-08-06T18:38:18Z</time>
      </trkpt>
      <trkpt lat="27.943718" lon="-15.521812">
        <ele>1159.80</ele>
        <time>2018-08-06T18:38:19Z</time>
      </trkpt>
      <trkpt lat="27.943735" lon="-15.521824">
        <ele>1160.20</ele>
        <time>2018-08-06T18:38:20Z</time>
      </trkpt>
      <trkpt lat="27.943749" lon="-15.521839">
        <ele>1160.60</ele>
        <time>2018-08-06T18:38:21Z</time>
      </trkpt>
      <trkpt lat="27.943768" lon="-15.521856">
        <ele>1161.00</ele>
        <time>2018-08-06T18:38:22Z</time>
      </trkpt>
      <trkpt lat="27.943787" lon="-15.521874">
        <ele>1161.40</ele>
        <time>2018-08-06T18:38:23Z</time>
      </trkpt>
      <trkpt lat="27.943803" lon="-15.521894">
        <ele>1161.80</ele>
        <time>2018-08-06T18:38:24Z</time>
      </trkpt>
      <trkpt lat="27.943821" lon="-15.521911">
        <ele>1162.20</ele>
        <time>2018-08-06T18:38:25Z</time>
      </trkpt>
      <trkpt lat="27.943842" lon="-15.521926">
        <ele>1162.80</ele>
        <time>2018-08-06T18:38:26Z</time>
      </trkpt>
      <trkpt lat="27.943858" lon="-15.521942">
        <ele>1163.00</ele>
        <time>2018-08-06T18:38:27Z</time>
      </trkpt>
      <trkpt lat="27.943878" lon="-15.521957">
        <ele>1163.40</ele>
        <time>2018-08-06T18:38:28Z</time>
      </trkpt>
      <trkpt lat="27.943894" lon="-15.521970">
        <ele>1163.60</ele>
        <time>2018-08-06T18:38:29Z</time>
      </trkpt>
      <trkpt lat="27.943907" lon="-15.521985">
        <ele>1164.00</ele>
        <time>2018-08-06T18:38:30Z</time>
      </trkpt>
      <trkpt lat="27.943922" lon="-15.522000">
        <ele>1164.40</ele>
        <time>2018-08-06T18:38:31Z</time>
      </trkpt>
      <trkpt lat="27.943940" lon="-15.522019">
        <ele>1164.80</ele>
        <time>2018-08-06T18:38:32Z</time>
      </trkpt>
      <trkpt lat="27.943957" lon="-15.522040">
        <ele>1165.40</ele>
        <time>2018-08-06T18:38:33Z</time>
      </trkpt>
      <trkpt lat="27.943974" lon="-15.522056">
        <ele>1165.80</ele>
        <time>2018-08-06T18:38:34Z</time>
      </trkpt>
      <trkpt lat="27.943994" lon="-15.522073">
        <ele>1166.40</ele>
        <time>2018-08-06T18:38:35Z</time>
      </trkpt>
      <trkpt lat="27.944007" lon="-15.522086">
        <ele>1166.80</ele>
        <time>2018-08-06T18:38:36Z</time>
      </trkpt>
      <trkpt lat="27.944019" lon="-15.522104">
        <ele>1167.00</ele>
        <time>2018-08-06T18:38:37Z</time>
      </trkpt>
      <trkpt lat="27.944037" lon="-15.522119">
        <ele>1167.20</ele>
        <time>2018-08-06T18:38:38Z</time>
      </trkpt>
      <trkpt lat="27.944052" lon="-15.522128">
        <ele>1167.40</ele>
        <time>2018-08-06T18:38:39Z</time>
      </trkpt>
      <trkpt lat="27.944064" lon="-15.522142">
        <ele>1167.60</ele>
        <time>2018-08-06T18:38:40Z</time>
      </trkpt>
      <trkpt lat="27.944081" lon="-15.522156">
        <ele>1168.00</ele>
        <time>2018-08-06T18:38:41Z</time>
      </trkpt>
      <trkpt lat="27.944096" lon="-15.522168">
        <ele>1168.80</ele>
        <time>2018-08-06T18:38:42Z</time>
      </trkpt>
      <trkpt lat="27.944110" lon="-15.522179">
        <ele>1169.00</ele>
        <time>2018-08-06T18:38:43Z</time>
      </trkpt>
      <trkpt lat="27.944127" lon="-15.522185">
        <ele>1169.60</ele>
        <time>2018-08-06T18:38:44Z</time>
      </trkpt>
      <trkpt lat="27.944141" lon="-15.522189">
        <ele>1170.00</ele>
        <time>2018-08-06T18:38:45Z</time>
      </trkpt>
      <trkpt lat="27.944152" lon="-15.522196">
        <ele>1170.20</ele>
        <time>2018-08-06T18:38:46Z</time>
      </trkpt>
      <trkpt lat="27.944161" lon="-15.522208">
        <ele>1170.20</ele>
        <time>2018-08-06T18:38:47Z</time>
      </trkpt>
      <trkpt lat="27.944173" lon="-15.522219">
        <ele>1170.20</ele>
        <time>2018-08-06T18:38:48Z</time>
      </trkpt>
      <trkpt lat="27.944187" lon="-15.522230">
        <ele>1170.40</ele>
        <time>2018-08-06T18:38:49Z</time>
      </trkpt>
      <trkpt lat="27.944200" lon="-15.522240">
        <ele>1170.80</ele>
        <time>2018-08-06T18:38:50Z</time>
      </trkpt>
      <trkpt lat="27.944214" lon="-15.522247">
        <ele>1171.40</ele>
        <time>2018-08-06T18:38:51Z</time>
      </trkpt>
      <trkpt lat="27.944226" lon="-15.522256">
        <ele>1171.60</ele>
        <time>2018-08-06T18:38:52Z</time>
      </trkpt>
      <trkpt lat="27.944237" lon="-15.522265">
        <ele>1172.20</ele>
        <time>2018-08-06T18:38:53Z</time>
      </trkpt>
      <trkpt lat="27.944249" lon="-15.522275">
        <ele>1172.80</ele>
        <time>2018-08-06T18:38:54Z</time>
      </trkpt>
      <trkpt lat="27.944264" lon="-15.522283">
        <ele>1173.20</ele>
        <time>2018-08-06T18:38:55Z</time>
      </trkpt>
      <trkpt lat="27.944278" lon="-15.522295">
        <ele>1173.80</ele>
        <time>2018-08-06T18:38:56Z</time>
      </trkpt>
      <trkpt lat="27.944293" lon="-15.522306">
        <ele>1174.20</ele>
        <time>2018-08-06T18:38:57Z</time>
      </trkpt>
      <trkpt lat="27.944309" lon="-15.522316">
        <ele>1174.80</ele>
        <time>2018-08-06T18:38:58Z</time>
      </trkpt>
      <trkpt lat="27.944323" lon="-15.522324">
        <ele>1175.20</ele>
        <time>2018-08-06T18:38:59Z</time>
      </trkpt>
      <trkpt lat="27.944333" lon="-15.522337">
        <ele>1175.60</ele>
        <time>2018-08-06T18:39:00Z</time>
      </trkpt>
      <trkpt lat="27.944342" lon="-15.522350">
        <ele>1175.80</ele>
        <time>2018-08-06T18:39:01Z</time>
      </trkpt>
      <trkpt lat="27.944352" lon="-15.522359">
        <ele>1176.40</ele>
        <time>2018-08-06T18:39:02Z</time>
      </trkpt>
      <trkpt lat="27.944362" lon="-15.522368">
        <ele>1176.80</ele>
        <time>2018-08-06T18:39:03Z</time>
      </trkpt>
      <trkpt lat="27.944375" lon="-15.522376">
        <ele>1177.40</ele>
        <time>2018-08-06T18:39:04Z</time>
      </trkpt>
      <trkpt lat="27.944389" lon="-15.522387">
        <ele>1178.00</ele>
        <time>2018-08-06T18:39:05Z</time>
      </trkpt>
      <trkpt lat="27.944403" lon="-15.522402">
        <ele>1178.40</ele>
        <time>2018-08-06T18:39:06Z</time>
      </trkpt>
      <trkpt lat="27.944414" lon="-15.522421">
        <ele>1178.60</ele>
        <time>2018-08-06T18:39:07Z</time>
      </trkpt>
      <trkpt lat="27.944426" lon="-15.522439">
        <ele>1178.80</ele>
        <time>2018-08-06T18:39:08Z</time>
      </trkpt>
      <trkpt lat="27.944440" lon="-15.522453">
        <ele>1179.20</ele>
        <time>2018-08-06T18:39:09Z</time>
      </trkpt>
      <trkpt lat="27.944458" lon="-15.522466">
        <ele>1179.40</ele>
        <time>2018-08-06T18:39:10Z</time>
      </trkpt>
      <trkpt lat="27.944475" lon="-15.522474">
        <ele>1179.80</ele>
        <time>2018-08-06T18:39:11Z</time>
      </trkpt>
      <trkpt lat="27.944491" lon="-15.522485">
        <ele>1180.40</ele>
        <time>2018-08-06T18:39:12Z</time>
      </trkpt>
      <trkpt lat="27.944506" lon="-15.522495">
        <ele>1180.80</ele>
        <time>2018-08-06T18:39:13Z</time>
      </trkpt>
      <trkpt lat="27.944523" lon="-15.522508">
        <ele>1181.20</ele>
        <time>2018-08-06T18:39:14Z</time>
      </trkpt>
      <trkpt lat="27.944539" lon="-15.522524">
        <ele>1181.20</ele>
        <time>2018-08-06T18:39:15Z</time>
      </trkpt>
      <trkpt lat="27.944557" lon="-15.522544">
        <ele>1181.40</ele>
        <time>2018-08-06T18:39:16Z</time>
      </trkpt>
      <trkpt lat="27.944576" lon="-15.522563">
        <ele>1181.60</ele>
        <time>2018-08-06T18:39:17Z</time>
      </trkpt>
      <trkpt lat="27.944598" lon="-15.522583">
        <ele>1181.80</ele>
        <time>2018-08-06T18:39:18Z</time>
      </trkpt>
      <trkpt lat="27.944622" lon="-15.522602">
        <ele>1181.80</ele>
        <time>2018-08-06T18:39:19Z</time>
      </trkpt>
      <trkpt lat="27.944641" lon="-15.522621">
        <ele>1182.00</ele>
        <time>2018-08-06T18:39:20Z</time>
      </trkpt>
      <trkpt lat="27.944661" lon="-15.522640">
        <ele>1182.40</ele>
        <time>2018-08-06T18:39:21Z</time>
      </trkpt>
      <trkpt lat="27.944685" lon="-15.522666">
        <ele>1183.00</ele>
        <time>2018-08-06T18:39:22Z</time>
      </trkpt>
      <trkpt lat="27.944706" lon="-15.522689">
        <ele>1183.20</ele>
        <time>2018-08-06T18:39:23Z</time>
      </trkpt>
      <trkpt lat="27.944728" lon="-15.522713">
        <ele>1183.40</ele>
        <time>2018-08-06T18:39:24Z</time>
      </trkpt>
      <trkpt lat="27.944751" lon="-15.522735">
        <ele>1183.40</ele>
        <time>2018-08-06T18:39:25Z</time>
      </trkpt>
      <trkpt lat="27.944771" lon="-15.522758">
        <ele>1183.60</ele>
        <time>2018-08-06T18:39:26Z</time>
      </trkpt>
      <trkpt lat="27.944791" lon="-15.522782">
        <ele>1183.40</ele>
        <time>2018-08-06T18:39:27Z</time>
      </trkpt>
      <trkpt lat="27.944810" lon="-15.522803">
        <ele>1183.40</ele>
        <time>2018-08-06T18:39:28Z</time>
      </trkpt>
      <trkpt lat="27.944827" lon="-15.522825">
        <ele>1183.00</ele>
        <time>2018-08-06T18:39:29Z</time>
      </trkpt>
      <trkpt lat="27.944844" lon="-15.522846">
        <ele>1182.80</ele>
        <time>2018-08-06T18:39:30Z</time>
      </trkpt>
      <trkpt lat="27.944860" lon="-15.522864">
        <ele>1182.40</ele>
        <time>2018-08-06T18:39:31Z</time>
      </trkpt>
      <trkpt lat="27.944872" lon="-15.522888">
        <ele>1182.00</ele>
        <time>2018-08-06T18:39:32Z</time>
      </trkpt>
      <trkpt lat="27.944888" lon="-15.522912">
        <ele>1181.80</ele>
        <time>2018-08-06T18:39:33Z</time>
      </trkpt>
      <trkpt lat="27.944905" lon="-15.522937">
        <ele>1181.60</ele>
        <time>2018-08-06T18:39:34Z</time>
      </trkpt>
      <trkpt lat="27.944913" lon="-15.522964">
        <ele>1181.20</ele>
        <time>2018-08-06T18:39:35Z</time>
      </trkpt>
      <trkpt lat="27.944926" lon="-15.522987">
        <ele>1181.00</ele>
        <time>2018-08-06T18:39:36Z</time>
      </trkpt>
      <trkpt lat="27.944939" lon="-15.523009">
        <ele>1181.20</ele>
        <time>2018-08-06T18:39:37Z</time>
      </trkpt>
      <trkpt lat="27.944949" lon="-15.523030">
        <ele>1181.20</ele>
        <time>2018-08-06T18:39:38Z</time>
      </trkpt>
      <trkpt lat="27.944955" lon="-15.523051">
        <ele>1181.20</ele>
        <time>2018-08-06T18:39:39Z</time>
      </trkpt>
      <trkpt lat="27.944964" lon="-15.523072">
        <ele>1181.20</ele>
        <time>2018-08-06T18:39:40Z</time>
      </trkpt>
      <trkpt lat="27.944972" lon="-15.523092">
        <ele>1181.20</ele>
        <time>2018-08-06T18:39:41Z</time>
      </trkpt>
      <trkpt lat="27.944979" lon="-15.523113">
        <ele>1181.40</ele>
        <time>2018-08-06T18:39:42Z</time>
      </trkpt>
      <trkpt lat="27.944987" lon="-15.523135">
        <ele>1182.00</ele>
        <time>2018-08-06T18:39:43Z</time>
      </trkpt>
      <trkpt lat="27.945000" lon="-15.523155">
        <ele>1182.60</ele>
        <time>2018-08-06T18:39:44Z</time>
      </trkpt>
      <trkpt lat="27.945011" lon="-15.523172">
        <ele>1183.40</ele>
        <time>2018-08-06T18:39:45Z</time>
      </trkpt>
      <trkpt lat="27.945019" lon="-15.523191">
        <ele>1183.80</ele>
        <time>2018-08-06T18:39:46Z</time>
      </trkpt>
      <trkpt lat="27.945031" lon="-15.523211">
        <ele>1184.20</ele>
        <time>2018-08-06T18:39:47Z</time>
      </trkpt>
      <trkpt lat="27.945043" lon="-15.523232">
        <ele>1184.20</ele>
        <time>2018-08-06T18:39:48Z</time>
      </trkpt>
      <trkpt lat="27.945054" lon="-15.523252">
        <ele>1184.40</ele>
        <time>2018-08-06T18:39:49Z</time>
      </trkpt>
      <trkpt lat="27.945065" lon="-15.523274">
        <ele>1184.80</ele>
        <time>2018-08-06T18:39:50Z</time>
      </trkpt>
      <trkpt lat="27.945076" lon="-15.523297">
        <ele>1185.40</ele>
        <time>2018-08-06T18:39:51Z</time>
      </trkpt>
      <trkpt lat="27.945088" lon="-15.523324">
        <ele>1186.00</ele>
        <time>2018-08-06T18:39:52Z</time>
      </trkpt>
      <trkpt lat="27.945102" lon="-15.523349">
        <ele>1186.40</ele>
        <time>2018-08-06T18:39:53Z</time>
      </trkpt>
      <trkpt lat="27.945120" lon="-15.523366">
        <ele>1186.40</ele>
        <time>2018-08-06T18:39:54Z</time>
      </trkpt>
      <trkpt lat="27.945140" lon="-15.523390">
        <ele>1186.60</ele>
        <time>2018-08-06T18:39:55Z</time>
      </trkpt>
      <trkpt lat="27.945165" lon="-15.523410">
        <ele>1186.80</ele>
        <time>2018-08-06T18:39:56Z</time>
      </trkpt>
      <trkpt lat="27.945189" lon="-15.523422">
        <ele>1186.60</ele>
        <time>2018-08-06T18:39:57Z</time>
      </trkpt>
      <trkpt lat="27.945208" lon="-15.523445">
        <ele>1186.80</ele>
        <time>2018-08-06T18:39:58Z</time>
      </trkpt>
      <trkpt lat="27.945227" lon="-15.523465">
        <ele>1187.00</ele>
        <time>2018-08-06T18:39:59Z</time>
      </trkpt>
      <trkpt lat="27.945245" lon="-15.523480">
        <ele>1187.00</ele>
        <time>2018-08-06T18:40:00Z</time>
      </trkpt>
      <trkpt lat="27.945261" lon="-15.523493">
        <ele>1187.20</ele>
        <time>2018-08-06T18:40:01Z</time>
      </trkpt>
      <trkpt lat="27.945279" lon="-15.523506">
        <ele>1187.60</ele>
        <time>2018-08-06T18:40:02Z</time>
      </trkpt>
      <trkpt lat="27.945293" lon="-15.523522">
        <ele>1187.80</ele>
        <time>2018-08-06T18:40:03Z</time>
      </trkpt>
      <trkpt lat="27.945301" lon="-15.523541">
        <ele>1188.20</ele>
        <time>2018-08-06T18:40:04Z</time>
      </trkpt>
      <trkpt lat="27.945311" lon="-15.523556">
        <ele>1188.40</ele>
        <time>2018-08-06T18:40:05Z</time>
      </trkpt>
      <trkpt lat="27.945319" lon="-15.523566">
        <ele>1188.40</ele>
        <time>2018-08-06T18:40:06Z</time>
      </trkpt>
      <trkpt lat="27.945323" lon="-15.523582">
        <ele>1188.60</ele>
        <time>2018-08-06T18:40:07Z</time>
      </trkpt>
      <trkpt lat="27.945322" lon="-15.523604">
        <ele>1188.80</ele>
        <time>2018-08-06T18:40:08Z</time>
      </trkpt>
      <trkpt lat="27.945320" lon="-15.523625">
        <ele>1189.00</ele>
        <time>2018-08-06T18:40:09Z</time>
      </trkpt>
      <trkpt lat="27.945309" lon="-15.523642">
        <ele>1189.20</ele>
        <time>2018-08-06T18:40:10Z</time>
      </trkpt>
      <trkpt lat="27.945301" lon="-15.523662">
        <ele>1189.40</ele>
        <time>2018-08-06T18:40:11Z</time>
      </trkpt>
      <trkpt lat="27.945300" lon="-15.523679">
        <ele>1189.40</ele>
        <time>2018-08-06T18:40:12Z</time>
      </trkpt>
      <trkpt lat="27.945303" lon="-15.523697">
        <ele>1189.80</ele>
        <time>2018-08-06T18:40:13Z</time>
      </trkpt>
      <trkpt lat="27.945311" lon="-15.523715">
        <ele>1190.40</ele>
        <time>2018-08-06T18:40:14Z</time>
      </trkpt>
      <trkpt lat="27.945319" lon="-15.523733">
        <ele>1190.60</ele>
        <time>2018-08-06T18:40:15Z</time>
      </trkpt>
      <trkpt lat="27.945324" lon="-15.523753">
        <ele>1191.00</ele>
        <time>2018-08-06T18:40:16Z</time>
      </trkpt>
      <trkpt lat="27.945331" lon="-15.523773">
        <ele>1191.40</ele>
        <time>2018-08-06T18:40:17Z</time>
      </trkpt>
      <trkpt lat="27.945338" lon="-15.523792">
        <ele>1191.60</ele>
        <time>2018-08-06T18:40:18Z</time>
      </trkpt>
      <trkpt lat="27.945344" lon="-15.523812">
        <ele>1191.80</ele>
        <time>2018-08-06T18:40:19Z</time>
      </trkpt>
      <trkpt lat="27.945356" lon="-15.523829">
        <ele>1192.20</ele>
        <time>2018-08-06T18:40:20Z</time>
      </trkpt>
      <trkpt lat="27.945365" lon="-15.523843">
        <ele>1192.40</ele>
        <time>2018-08-06T18:40:21Z</time>
      </trkpt>
      <trkpt lat="27.945374" lon="-15.523859">
        <ele>1192.80</ele>
        <time>2018-08-06T18:40:22Z</time>
      </trkpt>
      <trkpt lat="27.945389" lon="-15.523880">
        <ele>1193.20</ele>
        <time>2018-08-06T18:40:23Z</time>
      </trkpt>
      <trkpt lat="27.945402" lon="-15.523903">
        <ele>1193.60</ele>
        <time>2018-08-06T18:40:24Z</time>
      </trkpt>
      <trkpt lat="27.945407" lon="-15.523928">
        <ele>1193.60</ele>
        <time>2018-08-06T18:40:25Z</time>
      </trkpt>
      <trkpt lat="27.945411" lon="-15.523951">
        <ele>1194.00</ele>
        <time>2018-08-06T18:40:26Z</time>
      </trkpt>
      <trkpt lat="27.945419" lon="-15.523972">
        <ele>1194.00</ele>
        <time>2018-08-06T18:40:27Z</time>
      </trkpt>
      <trkpt lat="27.945425" lon="-15.523992">
        <ele>1194.20</ele>
        <time>2018-08-06T18:40:28Z</time>
      </trkpt>
      <trkpt lat="27.945432" lon="-15.524013">
        <ele>1194.20</ele>
        <time>2018-08-06T18:40:29Z</time>
      </trkpt>
      <trkpt lat="27.945443" lon="-15.524027">
        <ele>1194.20</ele>
        <time>2018-08-06T18:40:30Z</time>
      </trkpt>
      <trkpt lat="27.945452" lon="-15.524038">
        <ele>1194.00</ele>
        <time>2018-08-06T18:40:31Z</time>
      </trkpt>
      <trkpt lat="27.945463" lon="-15.524051">
        <ele>1194.20</ele>
        <time>2018-08-06T18:40:32Z</time>
      </trkpt>
      <trkpt lat="27.945472" lon="-15.524070">
        <ele>1194.20</ele>
        <time>2018-08-06T18:40:33Z</time>
      </trkpt>
      <trkpt lat="27.945482" lon="-15.524082">
        <ele>1194.40</ele>
        <time>2018-08-06T18:40:34Z</time>
      </trkpt>
      <trkpt lat="27.945493" lon="-15.524096">
        <ele>1194.60</ele>
        <time>2018-08-06T18:40:35Z</time>
      </trkpt>
      <trkpt lat="27.945504" lon="-15.524114">
        <ele>1195.00</ele>
        <time>2018-08-06T18:40:36Z</time>
      </trkpt>
      <trkpt lat="27.945517" lon="-15.524134">
        <ele>1195.20</ele>
        <time>2018-08-06T18:40:37Z</time>
      </trkpt>
      <trkpt lat="27.945528" lon="-15.524156">
        <ele>1195.40</ele>
        <time>2018-08-06T18:40:38Z</time>
      </trkpt>
      <trkpt lat="27.945533" lon="-15.524183">
        <ele>1195.80</ele>
        <time>2018-08-06T18:40:39Z</time>
      </trkpt>
      <trkpt lat="27.945544" lon="-15.524201">
        <ele>1196.40</ele>
        <time>2018-08-06T18:40:40Z</time>
      </trkpt>
      <trkpt lat="27.945553" lon="-15.524220">
        <ele>1197.20</ele>
        <time>2018-08-06T18:40:41Z</time>
      </trkpt>
      <trkpt lat="27.945561" lon="-15.524237">
        <ele>1197.60</ele>
        <time>2018-08-06T18:40:42Z</time>
      </trkpt>
      <trkpt lat="27.945567" lon="-15.524253">
        <ele>1198.20</ele>
        <time>2018-08-06T18:40:43Z</time>
      </trkpt>
      <trkpt lat="27.945572" lon="-15.524268">
        <ele>1198.40</ele>
        <time>2018-08-06T18:40:44Z</time>
      </trkpt>
      <trkpt lat="27.945576" lon="-15.524285">
        <ele>1198.80</ele>
        <time>2018-08-06T18:40:45Z</time>
      </trkpt>
      <trkpt lat="27.945580" lon="-15.524299">
        <ele>1199.20</ele>
        <time>2018-08-06T18:40:46Z</time>
      </trkpt>
      <trkpt lat="27.945584" lon="-15.524311">
        <ele>1199.40</ele>
        <time>2018-08-06T18:40:47Z</time>
      </trkpt>
      <trkpt lat="27.945588" lon="-15.524319">
        <ele>1199.80</ele>
        <time>2018-08-06T18:40:48Z</time>
      </trkpt>
      <trkpt lat="27.945589" lon="-15.524329">
        <ele>1200.20</ele>
        <time>2018-08-06T18:40:49Z</time>
      </trkpt>
      <trkpt lat="27.945588" lon="-15.524344">
        <ele>1200.40</ele>
        <time>2018-08-06T18:40:50Z</time>
      </trkpt>
      <trkpt lat="27.945590" lon="-15.524358">
        <ele>1200.60</ele>
        <time>2018-08-06T18:40:51Z</time>
      </trkpt>
      <trkpt lat="27.945587" lon="-15.524372">
        <ele>1201.20</ele>
        <time>2018-08-06T18:40:52Z</time>
      </trkpt>
      <trkpt lat="27.945580" lon="-15.524383">
        <ele>1201.60</ele>
        <time>2018-08-06T18:40:53Z</time>
      </trkpt>
      <trkpt lat="27.945577" lon="-15.524393">
        <ele>1202.20</ele>
        <time>2018-08-06T18:40:54Z</time>
      </trkpt>
      <trkpt lat="27.945579" lon="-15.524407">
        <ele>1202.60</ele>
        <time>2018-08-06T18:40:55Z</time>
      </trkpt>
      <trkpt lat="27.945581" lon="-15.524423">
        <ele>1203.20</ele>
        <time>2018-08-06T18:40:56Z</time>
      </trkpt>
      <trkpt lat="27.945581" lon="-15.524437">
        <ele>1203.60</ele>
        <time>2018-08-06T18:40:57Z</time>
      </trkpt>
      <trkpt lat="27.945577" lon="-15.524454">
        <ele>1204.20</ele>
        <time>2018-08-06T18:40:58Z</time>
      </trkpt>
      <trkpt lat="27.945571" lon="-15.524472">
        <ele>1204.60</ele>
        <time>2018-08-06T18:40:59Z</time>
      </trkpt>
      <trkpt lat="27.945564" lon="-15.524490">
        <ele>1204.80</ele>
        <time>2018-08-06T18:41:00Z</time>
      </trkpt>
      <trkpt lat="27.945556" lon="-15.524506">
        <ele>1205.00</ele>
        <time>2018-08-06T18:41:01Z</time>
      </trkpt>
      <trkpt lat="27.945551" lon="-15.524522">
        <ele>1205.40</ele>
        <time>2018-08-06T18:41:02Z</time>
      </trkpt>
      <trkpt lat="27.945546" lon="-15.524540">
        <ele>1205.80</ele>
        <time>2018-08-06T18:41:03Z</time>
      </trkpt>
      <trkpt lat="27.945542" lon="-15.524557">
        <ele>1206.40</ele>
        <time>2018-08-06T18:41:04Z</time>
      </trkpt>
      <trkpt lat="27.945539" lon="-15.524574">
        <ele>1207.00</ele>
        <time>2018-08-06T18:41:05Z</time>
      </trkpt>
      <trkpt lat="27.945534" lon="-15.524587">
        <ele>1207.60</ele>
        <time>2018-08-06T18:41:06Z</time>
      </trkpt>
      <trkpt lat="27.945527" lon="-15.524601">
        <ele>1208.20</ele>
        <time>2018-08-06T18:41:07Z</time>
      </trkpt>
      <trkpt lat="27.945519" lon="-15.524614">
        <ele>1208.80</ele>
        <time>2018-08-06T18:41:08Z</time>
      </trkpt>
      <trkpt lat="27.945510" lon="-15.524626">
        <ele>1209.20</ele>
        <time>2018-08-06T18:41:09Z</time>
      </trkpt>
      <trkpt lat="27.945501" lon="-15.524638">
        <ele>1209.80</ele>
        <time>2018-08-06T18:41:10Z</time>
      </trkpt>
      <trkpt lat="27.945494" lon="-15.524653">
        <ele>1210.40</ele>
        <time>2018-08-06T18:41:11Z</time>
      </trkpt>
      <trkpt lat="27.945491" lon="-15.524670">
        <ele>1211.20</ele>
        <time>2018-08-06T18:41:12Z</time>
      </trkpt>
      <trkpt lat="27.945483" lon="-15.524686">
        <ele>1212.00</ele>
        <time>2018-08-06T18:41:13Z</time>
      </trkpt>
      <trkpt lat="27.945471" lon="-15.524694">
        <ele>1212.60</ele>
        <time>2018-08-06T18:41:14Z</time>
      </trkpt>
      <trkpt lat="27.945456" lon="-15.524708">
        <ele>1213.20</ele>
        <time>2018-08-06T18:41:15Z</time>
      </trkpt>
      <trkpt lat="27.945449" lon="-15.524722">
        <ele>1213.60</ele>
        <time>2018-08-06T18:41:16Z</time>
      </trkpt>
      <trkpt lat="27.945443" lon="-15.524733">
        <ele>1213.80</ele>
        <time>2018-08-06T18:41:17Z</time>
      </trkpt>
      <trkpt lat="27.945433" lon="-15.524748">
        <ele>1214.20</ele>
        <time>2018-08-06T18:41:18Z</time>
      </trkpt>
      <trkpt lat="27.945429" lon="-15.524760">
        <ele>1214.60</ele>
        <time>2018-08-06T18:41:19Z</time>
      </trkpt>
      <trkpt lat="27.945427" lon="-15.524770">
        <ele>1215.00</ele>
        <time>2018-08-06T18:41:20Z</time>
      </trkpt>
      <trkpt lat="27.945423" lon="-15.524781">
        <ele>1215.80</ele>
        <time>2018-08-06T18:41:21Z</time>
      </trkpt>
      <trkpt lat="27.945410" lon="-15.524796">
        <ele>1216.40</ele>
        <time>2018-08-06T18:41:22Z</time>
      </trkpt>
      <trkpt lat="27.945398" lon="-15.524811">
        <ele>1216.80</ele>
        <time>2018-08-06T18:41:23Z</time>
      </trkpt>
      <trkpt lat="27.945383" lon="-15.524829">
        <ele>1217.40</ele>
        <time>2018-08-06T18:41:24Z</time>
      </trkpt>
      <trkpt lat="27.945367" lon="-15.524846">
        <ele>1217.80</ele>
        <time>2018-08-06T18:41:25Z</time>
      </trkpt>
      <trkpt lat="27.945356" lon="-15.524859">
        <ele>1218.20</ele>
        <time>2018-08-06T18:41:26Z</time>
      </trkpt>
      <trkpt lat="27.945351" lon="-15.524874">
        <ele>1218.60</ele>
        <time>2018-08-06T18:41:27Z</time>
      </trkpt>
      <trkpt lat="27.945335" lon="-15.524893">
        <ele>1219.00</ele>
        <time>2018-08-06T18:41:28Z</time>
      </trkpt>
      <trkpt lat="27.945329" lon="-15.524903">
        <ele>1219.40</ele>
        <time>2018-08-06T18:41:29Z</time>
      </trkpt>
      <trkpt lat="27.945327" lon="-15.524918">
        <ele>1219.60</ele>
        <time>2018-08-06T18:41:30Z</time>
      </trkpt>
      <trkpt lat="27.945316" lon="-15.524938">
        <ele>1219.80</ele>
        <time>2018-08-06T18:41:31Z</time>
      </trkpt>
      <trkpt lat="27.945311" lon="-15.524947">
        <ele>1220.20</ele>
        <time>2018-08-06T18:41:32Z</time>
      </trkpt>
      <trkpt lat="27.945312" lon="-15.524960">
        <ele>1220.60</ele>
        <time>2018-08-06T18:41:33Z</time>
      </trkpt>
      <trkpt lat="27.945312" lon="-15.524977">
        <ele>1221.40</ele>
        <time>2018-08-06T18:41:34Z</time>
      </trkpt>
      <trkpt lat="27.945313" lon="-15.524994">
        <ele>1221.80</ele>
        <time>2018-08-06T18:41:35Z</time>
      </trkpt>
      <trkpt lat="27.945318" lon="-15.525009">
        <ele>1222.20</ele>
        <time>2018-08-06T18:41:36Z</time>
      </trkpt>
      <trkpt lat="27.945324" lon="-15.525030">
        <ele>1222.40</ele>
        <time>2018-08-06T18:41:37Z</time>
      </trkpt>
      <trkpt lat="27.945335" lon="-15.525051">
        <ele>1222.80</ele>
        <time>2018-08-06T18:41:38Z</time>
      </trkpt>
      <trkpt lat="27.945341" lon="-15.525070">
        <ele>1223.00</ele>
        <time>2018-08-06T18:41:39Z</time>
      </trkpt>
      <trkpt lat="27.945340" lon="-15.525089">
        <ele>1223.20</ele>
        <time>2018-08-06T18:41:40Z</time>
      </trkpt>
      <trkpt lat="27.945338" lon="-15.525112">
        <ele>1223.40</ele>
        <time>2018-08-06T18:41:41Z</time>
      </trkpt>
      <trkpt lat="27.945360" lon="-15.525125">
        <ele>1255.60</ele>
        <time>2018-07-13T20:33:06Z</time>
      </trkpt>
      <trkpt lat="27.945377" lon="-15.525145">
        <ele>1255.40</ele>
        <time>2018-07-13T20:33:09Z</time>
      </trkpt>
      <trkpt lat="27.945387" lon="-15.525163">
        <ele>1255.80</ele>
        <time>2018-07-13T20:33:13Z</time>
      </trkpt>
      <trkpt lat="27.945386" lon="-15.525188">
        <ele>1255.80</ele>
        <time>2018-07-13T20:33:16Z</time>
      </trkpt>
      <trkpt lat="27.945381" lon="-15.525209">
        <ele>1256.80</ele>
        <time>2018-07-13T20:33:23Z</time>
      </trkpt>
      <trkpt lat="27.945372" lon="-15.525240">
        <ele>1256.60</ele>
        <time>2018-07-13T20:33:26Z</time>
      </trkpt>
      <trkpt lat="27.945377" lon="-15.525266">
        <ele>1256.60</ele>
        <time>2018-07-13T20:33:28Z</time>
      </trkpt>
      <trkpt lat="27.945385" lon="-15.525295">
        <ele>1256.60</ele>
        <time>2018-07-13T20:33:30Z</time>
      </trkpt>
      <trkpt lat="27.945394" lon="-15.525324">
        <ele>1257.40</ele>
        <time>2018-07-13T20:33:32Z</time>
      </trkpt>
      <trkpt lat="27.945398" lon="-15.525354">
        <ele>1257.80</ele>
        <time>2018-07-13T20:33:34Z</time>
      </trkpt>
      <trkpt lat="27.945392" lon="-15.525375">
        <ele>1257.60</ele>
        <time>2018-07-13T20:33:36Z</time>
      </trkpt>
      <trkpt lat="27.945380" lon="-15.525399">
        <ele>1257.60</ele>
        <time>2018-07-13T20:33:39Z</time>
      </trkpt>
      <trkpt lat="27.945377" lon="-15.525420">
        <ele>1257.80</ele>
        <time>2018-07-13T20:33:41Z</time>
      </trkpt>
      <trkpt lat="27.945381" lon="-15.525441">
        <ele>1258.00</ele>
        <time>2018-07-13T20:33:43Z</time>
      </trkpt>
      <trkpt lat="27.945386" lon="-15.525462">
        <ele>1259.20</ele>
        <time>2018-07-13T20:33:45Z</time>
      </trkpt>
      <trkpt lat="27.945388" lon="-15.525483">
        <ele>1259.20</ele>
        <time>2018-07-13T20:33:47Z</time>
      </trkpt>
      <trkpt lat="27.945391" lon="-15.525510">
        <ele>1259.20</ele>
        <time>2018-07-13T20:33:49Z</time>
      </trkpt>
      <trkpt lat="27.945399" lon="-15.525534">
        <ele>1259.20</ele>
        <time>2018-07-13T20:33:51Z</time>
      </trkpt>
      <trkpt lat="27.945410" lon="-15.525558">
        <ele>1259.60</ele>
        <time>2018-07-13T20:33:53Z</time>
      </trkpt>
      <trkpt lat="27.945419" lon="-15.525586">
        <ele>1260.00</ele>
        <time>2018-07-13T20:33:55Z</time>
      </trkpt>
      <trkpt lat="27.945427" lon="-15.525614">
        <ele>1260.00</ele>
        <time>2018-07-13T20:33:57Z</time>
      </trkpt>
      <trkpt lat="27.945438" lon="-15.525648">
        <ele>1260.20</ele>
        <time>2018-07-13T20:33:59Z</time>
      </trkpt>
      <trkpt lat="27.945450" lon="-15.525673">
        <ele>1260.20</ele>
        <time>2018-07-13T20:34:01Z</time>
      </trkpt>
      <trkpt lat="27.945455" lon="-15.525700">
        <ele>1260.20</ele>
        <time>2018-07-13T20:34:03Z</time>
      </trkpt>
      <trkpt lat="27.945455" lon="-15.525724">
        <ele>1260.40</ele>
        <time>2018-07-13T20:34:05Z</time>
      </trkpt>
      <trkpt lat="27.945444" lon="-15.525756">
        <ele>1260.80</ele>
        <time>2018-07-13T20:34:08Z</time>
      </trkpt>
      <trkpt lat="27.945443" lon="-15.525779">
        <ele>1262.40</ele>
        <time>2018-07-13T20:34:13Z</time>
      </trkpt>
      <trkpt lat="27.945441" lon="-15.525802">
        <ele>1262.60</ele>
        <time>2018-07-13T20:34:15Z</time>
      </trkpt>
      <trkpt lat="27.945436" lon="-15.525829">
        <ele>1263.60</ele>
        <time>2018-07-13T20:34:17Z</time>
      </trkpt>
      <trkpt lat="27.945437" lon="-15.525854">
        <ele>1264.40</ele>
        <time>2018-07-13T20:34:19Z</time>
      </trkpt>
      <trkpt lat="27.945440" lon="-15.525879">
        <ele>1264.40</ele>
        <time>2018-07-13T20:34:21Z</time>
      </trkpt>
      <trkpt lat="27.945448" lon="-15.525911">
        <ele>1264.60</ele>
        <time>2018-07-13T20:34:23Z</time>
      </trkpt>
      <trkpt lat="27.945460" lon="-15.525944">
        <ele>1264.80</ele>
        <time>2018-07-13T20:34:25Z</time>
      </trkpt>
      <trkpt lat="27.945462" lon="-15.525974">
        <ele>1265.40</ele>
        <time>2018-07-13T20:34:27Z</time>
      </trkpt>
      <trkpt lat="27.945469" lon="-15.526003">
        <ele>1265.60</ele>
        <time>2018-07-13T20:34:29Z</time>
      </trkpt>
      <trkpt lat="27.945469" lon="-15.526028">
        <ele>1265.80</ele>
        <time>2018-07-13T20:34:31Z</time>
      </trkpt>
      <trkpt lat="27.945464" lon="-15.526058">
        <ele>1266.20</ele>
        <time>2018-07-13T20:34:33Z</time>
      </trkpt>
      <trkpt lat="27.945458" lon="-15.526088">
        <ele>1266.20</ele>
        <time>2018-07-13T20:34:35Z</time>
      </trkpt>
      <trkpt lat="27.945452" lon="-15.526117">
        <ele>1266.60</ele>
        <time>2018-07-13T20:34:37Z</time>
      </trkpt>
      <trkpt lat="27.945440" lon="-15.526142">
        <ele>1267.20</ele>
        <time>2018-07-13T20:34:39Z</time>
      </trkpt>
      <trkpt lat="27.945431" lon="-15.526169">
        <ele>1267.60</ele>
        <time>2018-07-13T20:34:41Z</time>
      </trkpt>
      <trkpt lat="27.945420" lon="-15.526191">
        <ele>1267.60</ele>
        <time>2018-07-13T20:34:43Z</time>
      </trkpt>
      <trkpt lat="27.945403" lon="-15.526210">
        <ele>1268.00</ele>
        <time>2018-07-13T20:34:45Z</time>
      </trkpt>
      <trkpt lat="27.945391" lon="-15.526232">
        <ele>1268.20</ele>
        <time>2018-07-13T20:34:47Z</time>
      </trkpt>
      <trkpt lat="27.945374" lon="-15.526285">
        <ele>1269.00</ele>
        <time>2018-07-13T20:34:51Z</time>
      </trkpt>
      <trkpt lat="27.945343" lon="-15.526315">
        <ele>1269.80</ele>
        <time>2018-07-13T20:34:55Z</time>
      </trkpt>
      <trkpt lat="27.945341" lon="-15.526351">
        <ele>1270.20</ele>
        <time>2018-07-13T20:34:57Z</time>
      </trkpt>
      <trkpt lat="27.945344" lon="-15.526389">
        <ele>1270.80</ele>
        <time>2018-07-13T20:34:59Z</time>
      </trkpt>
      <trkpt lat="27.945340" lon="-15.526414">
        <ele>1271.00</ele>
        <time>2018-07-13T20:35:01Z</time>
      </trkpt>
      <trkpt lat="27.945330" lon="-15.526437">
        <ele>1271.00</ele>
        <time>2018-07-13T20:35:03Z</time>
      </trkpt>
      <trkpt lat="27.945314" lon="-15.526538">
        <ele>1270.80</ele>
        <time>2018-07-13T20:35:09Z</time>
      </trkpt>
      <trkpt lat="27.945310" lon="-15.526650">
        <ele>1270.80</ele>
        <time>2018-07-13T20:35:16Z</time>
      </trkpt>
      <trkpt lat="27.945289" lon="-15.526758">
        <ele>1271.00</ele>
        <time>2018-07-13T20:35:24Z</time>
      </trkpt>
      <trkpt lat="27.945276" lon="-15.526793">
        <ele>1271.40</ele>
        <time>2018-07-13T20:35:27Z</time>
      </trkpt>
      <trkpt lat="27.945265" lon="-15.526819">
        <ele>1271.60</ele>
        <time>2018-07-13T20:35:29Z</time>
      </trkpt>
      <trkpt lat="27.945262" lon="-15.526847">
        <ele>1271.60</ele>
        <time>2018-07-13T20:35:31Z</time>
      </trkpt>
      <trkpt lat="27.945275" lon="-15.526954">
        <ele>1273.20</ele>
        <time>2018-07-13T20:35:41Z</time>
      </trkpt>
      <trkpt lat="27.945289" lon="-15.527074">
        <ele>1273.60</ele>
        <time>2018-07-13T20:35:48Z</time>
      </trkpt>
      <trkpt lat="27.945311" lon="-15.527175">
        <ele>1273.00</ele>
        <time>2018-07-13T20:35:54Z</time>
      </trkpt>
      <trkpt lat="27.945341" lon="-15.527283">
        <ele>1270.80</ele>
        <time>2018-07-13T20:36:01Z</time>
      </trkpt>
      <trkpt lat="27.945374" lon="-15.527378">
        <ele>1270.20</ele>
        <time>2018-07-13T20:36:07Z</time>
      </trkpt>
      <trkpt lat="27.945394" lon="-15.527490">
        <ele>1270.00</ele>
        <time>2018-07-13T20:36:15Z</time>
      </trkpt>
      <trkpt lat="27.945430" lon="-15.527531">
        <ele>1269.60</ele>
        <time>2018-07-13T20:36:18Z</time>
      </trkpt>
      <trkpt lat="27.945445" lon="-15.527545">
        <ele>1269.60</ele>
        <time>2018-07-13T20:36:19Z</time>
      </trkpt>
      <trkpt lat="27.945468" lon="-15.527572">
        <ele>1269.60</ele>
        <time>2018-07-13T20:36:21Z</time>
      </trkpt>
      <trkpt lat="27.945482" lon="-15.527596">
        <ele>1270.20</ele>
        <time>2018-07-13T20:36:23Z</time>
      </trkpt>
      <trkpt lat="27.945501" lon="-15.527628">
        <ele>1270.20</ele>
        <time>2018-07-13T20:36:25Z</time>
      </trkpt>
      <trkpt lat="27.945519" lon="-15.527658">
        <ele>1270.20</ele>
        <time>2018-07-13T20:36:27Z</time>
      </trkpt>
      <trkpt lat="27.945532" lon="-15.527698">
        <ele>1270.20</ele>
        <time>2018-07-13T20:36:30Z</time>
      </trkpt>
      <trkpt lat="27.945542" lon="-15.527724">
        <ele>1270.20</ele>
        <time>2018-07-13T20:36:32Z</time>
      </trkpt>
      <trkpt lat="27.945558" lon="-15.527746">
        <ele>1270.40</ele>
        <time>2018-07-13T20:36:34Z</time>
      </trkpt>
      <trkpt lat="27.945570" lon="-15.527774">
        <ele>1270.00</ele>
        <time>2018-07-13T20:36:36Z</time>
      </trkpt>
      <trkpt lat="27.945586" lon="-15.527803">
        <ele>1269.80</ele>
        <time>2018-07-13T20:36:38Z</time>
      </trkpt>
      <trkpt lat="27.945600" lon="-15.527830">
        <ele>1269.80</ele>
        <time>2018-07-13T20:36:40Z</time>
      </trkpt>
      <trkpt lat="27.945615" lon="-15.527853">
        <ele>1269.60</ele>
        <time>2018-07-13T20:36:42Z</time>
      </trkpt>
      <trkpt lat="27.945640" lon="-15.527867">
        <ele>1268.80</ele>
        <time>2018-07-13T20:36:44Z</time>
      </trkpt>
      <trkpt lat="27.945669" lon="-15.527883">
        <ele>1268.60</ele>
        <time>2018-07-13T20:36:46Z</time>
      </trkpt>
      <trkpt lat="27.945696" lon="-15.527891">
        <ele>1268.40</ele>
        <time>2018-07-13T20:36:48Z</time>
      </trkpt>
      <trkpt lat="27.945719" lon="-15.527903">
        <ele>1268.20</ele>
        <time>2018-07-13T20:36:50Z</time>
      </trkpt>
      <trkpt lat="27.945731" lon="-15.527932">
        <ele>1268.00</ele>
        <time>2018-07-13T20:36:52Z</time>
      </trkpt>
      <trkpt lat="27.945733" lon="-15.527956">
        <ele>1267.80</ele>
        <time>2018-07-13T20:36:54Z</time>
      </trkpt>
      <trkpt lat="27.945734" lon="-15.527987">
        <ele>1267.40</ele>
        <time>2018-07-13T20:36:56Z</time>
      </trkpt>
      <trkpt lat="27.945731" lon="-15.528014">
        <ele>1267.40</ele>
        <time>2018-07-13T20:36:58Z</time>
      </trkpt>
      <trkpt lat="27.945729" lon="-15.528037">
        <ele>1267.20</ele>
        <time>2018-07-13T20:37:00Z</time>
      </trkpt>
      <trkpt lat="27.945740" lon="-15.528069">
        <ele>1266.80</ele>
        <time>2018-07-13T20:37:02Z</time>
      </trkpt>
      <trkpt lat="27.945740" lon="-15.528092">
        <ele>1266.60</ele>
        <time>2018-07-13T20:37:04Z</time>
      </trkpt>
      <trkpt lat="27.945698" lon="-15.528182">
        <ele>1266.40</ele>
        <time>2018-07-13T20:37:12Z</time>
      </trkpt>
      <trkpt lat="27.945706" lon="-15.528201">
        <ele>1266.40</ele>
        <time>2018-07-13T20:37:15Z</time>
      </trkpt>
      <trkpt lat="27.945684" lon="-15.528299">
        <ele>1267.40</ele>
        <time>2018-07-13T20:37:23Z</time>
      </trkpt>
      <trkpt lat="27.945666" lon="-15.528332">
        <ele>1268.80</ele>
        <time>2018-07-13T20:37:26Z</time>
      </trkpt>
      <trkpt lat="27.945628" lon="-15.528419">
        <ele>1270.00</ele>
        <time>2018-07-13T20:37:34Z</time>
      </trkpt>
      <trkpt lat="27.945623" lon="-15.528440">
        <ele>1270.80</ele>
        <time>2018-07-13T20:37:36Z</time>
      </trkpt>
      <trkpt lat="27.945615" lon="-15.528459">
        <ele>1271.00</ele>
        <time>2018-07-13T20:37:38Z</time>
      </trkpt>
      <trkpt lat="27.945590" lon="-15.528495">
        <ele>1271.40</ele>
        <time>2018-07-13T20:37:42Z</time>
      </trkpt>
      <trkpt lat="27.945524" lon="-15.528580">
        <ele>1272.40</ele>
        <time>2018-07-13T20:37:50Z</time>
      </trkpt>
      <trkpt lat="27.945458" lon="-15.528666">
        <ele>1272.80</ele>
        <time>2018-07-13T20:37:57Z</time>
      </trkpt>
      <trkpt lat="27.945395" lon="-15.528757">
        <ele>1273.60</ele>
        <time>2018-07-13T20:38:06Z</time>
      </trkpt>
      <trkpt lat="27.945443" lon="-15.528856">
        <ele>1275.00</ele>
        <time>2018-07-13T20:38:12Z</time>
      </trkpt>
      <trkpt lat="27.945436" lon="-15.528972">
        <ele>1275.80</ele>
        <time>2018-07-13T20:38:19Z</time>
      </trkpt>
      <trkpt lat="27.945452" lon="-15.529075">
        <ele>1277.00</ele>
        <time>2018-07-13T20:38:29Z</time>
      </trkpt>
      <trkpt lat="27.945469" lon="-15.529186">
        <ele>1277.40</ele>
        <time>2018-07-13T20:38:37Z</time>
      </trkpt>
      <trkpt lat="27.945530" lon="-15.529276">
        <ele>1277.80</ele>
        <time>2018-07-13T20:38:43Z</time>
      </trkpt>
      <trkpt lat="27.945609" lon="-15.529339">
        <ele>1278.60</ele>
        <time>2018-07-13T20:38:49Z</time>
      </trkpt>
      <trkpt lat="27.945690" lon="-15.529398">
        <ele>1278.40</ele>
        <time>2018-07-13T20:38:56Z</time>
      </trkpt>
      <trkpt lat="27.945769" lon="-15.529454">
        <ele>1279.20</ele>
        <time>2018-07-13T20:39:03Z</time>
      </trkpt>
      <trkpt lat="27.945813" lon="-15.529493">
        <ele>1279.80</ele>
        <time>2018-07-13T20:39:08Z</time>
      </trkpt>
      <trkpt lat="27.945828" lon="-15.529512">
        <ele>1279.00</ele>
        <time>2018-07-13T20:39:10Z</time>
      </trkpt>
      <trkpt lat="27.945846" lon="-15.529534">
        <ele>1279.00</ele>
        <time>2018-07-13T20:39:12Z</time>
      </trkpt>
      <trkpt lat="27.945866" lon="-15.529556">
        <ele>1279.00</ele>
        <time>2018-07-13T20:39:14Z</time>
      </trkpt>
      <trkpt lat="27.945887" lon="-15.529570">
        <ele>1279.00</ele>
        <time>2018-07-13T20:39:16Z</time>
      </trkpt>
      <trkpt lat="27.945906" lon="-15.529586">
        <ele>1279.20</ele>
        <time>2018-07-13T20:39:18Z</time>
      </trkpt>
      <trkpt lat="27.945920" lon="-15.529603">
        <ele>1279.20</ele>
        <time>2018-07-13T20:39:20Z</time>
      </trkpt>
      <trkpt lat="27.945937" lon="-15.529620">
        <ele>1279.40</ele>
        <time>2018-07-13T20:39:22Z</time>
      </trkpt>
      <trkpt lat="27.945954" lon="-15.529635">
        <ele>1279.40</ele>
        <time>2018-07-13T20:39:24Z</time>
      </trkpt>
      <trkpt lat="27.945969" lon="-15.529653">
        <ele>1280.00</ele>
        <time>2018-07-13T20:39:26Z</time>
      </trkpt>
      <trkpt lat="27.945989" lon="-15.529673">
        <ele>1280.80</ele>
        <time>2018-07-13T20:39:28Z</time>
      </trkpt>
      <trkpt lat="27.946006" lon="-15.529693">
        <ele>1281.00</ele>
        <time>2018-07-13T20:39:31Z</time>
      </trkpt>
      <trkpt lat="27.946030" lon="-15.529700">
        <ele>1281.40</ele>
        <time>2018-07-13T20:39:37Z</time>
      </trkpt>
      <trkpt lat="27.946053" lon="-15.529704">
        <ele>1282.00</ele>
        <time>2018-07-13T20:39:40Z</time>
      </trkpt>
      <trkpt lat="27.946070" lon="-15.529716">
        <ele>1282.40</ele>
        <time>2018-07-13T20:39:42Z</time>
      </trkpt>
      <trkpt lat="27.946089" lon="-15.529726">
        <ele>1282.60</ele>
        <time>2018-07-13T20:39:44Z</time>
      </trkpt>
      <trkpt lat="27.946109" lon="-15.529734">
        <ele>1283.00</ele>
        <time>2018-07-13T20:39:46Z</time>
      </trkpt>
      <trkpt lat="27.946121" lon="-15.529752">
        <ele>1283.20</ele>
        <time>2018-07-13T20:39:48Z</time>
      </trkpt>
      <trkpt lat="27.946138" lon="-15.529771">
        <ele>1283.20</ele>
        <time>2018-07-13T20:39:50Z</time>
      </trkpt>
      <trkpt lat="27.946159" lon="-15.529789">
        <ele>1283.80</ele>
        <time>2018-07-13T20:39:52Z</time>
      </trkpt>
      <trkpt lat="27.946178" lon="-15.529801">
        <ele>1284.00</ele>
        <time>2018-07-13T20:39:54Z</time>
      </trkpt>
      <trkpt lat="27.946197" lon="-15.529815">
        <ele>1284.20</ele>
        <time>2018-07-13T20:39:56Z</time>
      </trkpt>
      <trkpt lat="27.946216" lon="-15.529835">
        <ele>1284.60</ele>
        <time>2018-07-13T20:39:58Z</time>
      </trkpt>
      <trkpt lat="27.946236" lon="-15.529847">
        <ele>1284.40</ele>
        <time>2018-07-13T20:40:00Z</time>
      </trkpt>
      <trkpt lat="27.946248" lon="-15.529867">
        <ele>1284.80</ele>
        <time>2018-07-13T20:40:02Z</time>
      </trkpt>
      <trkpt lat="27.946260" lon="-15.529889">
        <ele>1285.00</ele>
        <time>2018-07-13T20:40:04Z</time>
      </trkpt>
      <trkpt lat="27.946269" lon="-15.529910">
        <ele>1285.60</ele>
        <time>2018-07-13T20:40:06Z</time>
      </trkpt>
      <trkpt lat="27.946277" lon="-15.529935">
        <ele>1285.60</ele>
        <time>2018-07-13T20:40:08Z</time>
      </trkpt>
      <trkpt lat="27.946278" lon="-15.529964">
        <ele>1285.60</ele>
        <time>2018-07-13T20:40:10Z</time>
      </trkpt>
      <trkpt lat="27.946281" lon="-15.529989">
        <ele>1285.60</ele>
        <time>2018-07-13T20:40:12Z</time>
      </trkpt>
      <trkpt lat="27.946283" lon="-15.530015">
        <ele>1285.60</ele>
        <time>2018-07-13T20:40:14Z</time>
      </trkpt>
      <trkpt lat="27.946286" lon="-15.530046">
        <ele>1285.80</ele>
        <time>2018-07-13T20:40:16Z</time>
      </trkpt>
      <trkpt lat="27.946288" lon="-15.530079">
        <ele>1286.40</ele>
        <time>2018-07-13T20:40:18Z</time>
      </trkpt>
      <trkpt lat="27.946290" lon="-15.530104">
        <ele>1287.00</ele>
        <time>2018-07-13T20:40:20Z</time>
      </trkpt>
      <trkpt lat="27.946290" lon="-15.530129">
        <ele>1287.20</ele>
        <time>2018-07-13T20:40:22Z</time>
      </trkpt>
      <trkpt lat="27.946291" lon="-15.530157">
        <ele>1287.20</ele>
        <time>2018-07-13T20:40:24Z</time>
      </trkpt>
      <trkpt lat="27.946295" lon="-15.530186">
        <ele>1287.20</ele>
        <time>2018-07-13T20:40:26Z</time>
      </trkpt>
      <trkpt lat="27.946299" lon="-15.530218">
        <ele>1287.80</ele>
        <time>2018-07-13T20:40:28Z</time>
      </trkpt>
      <trkpt lat="27.946303" lon="-15.530249">
        <ele>1287.80</ele>
        <time>2018-07-13T20:40:30Z</time>
      </trkpt>
      <trkpt lat="27.946306" lon="-15.530274">
        <ele>1287.80</ele>
        <time>2018-07-13T20:40:32Z</time>
      </trkpt>
      <trkpt lat="27.946310" lon="-15.530294">
        <ele>1287.80</ele>
        <time>2018-07-13T20:40:34Z</time>
      </trkpt>
      <trkpt lat="27.946309" lon="-15.530319">
        <ele>1288.40</ele>
        <time>2018-07-13T20:40:36Z</time>
      </trkpt>
      <trkpt lat="27.946307" lon="-15.530348">
        <ele>1288.20</ele>
        <time>2018-07-13T20:40:38Z</time>
      </trkpt>
      <trkpt lat="27.946306" lon="-15.530374">
        <ele>1288.60</ele>
        <time>2018-07-13T20:40:40Z</time>
      </trkpt>
      <trkpt lat="27.946312" lon="-15.530396">
        <ele>1289.80</ele>
        <time>2018-07-13T20:40:42Z</time>
      </trkpt>
      <trkpt lat="27.946314" lon="-15.530418">
        <ele>1289.80</ele>
        <time>2018-07-13T20:40:44Z</time>
      </trkpt>
      <trkpt lat="27.946311" lon="-15.530447">
        <ele>1290.00</ele>
        <time>2018-07-13T20:40:46Z</time>
      </trkpt>
      <trkpt lat="27.946311" lon="-15.530477">
        <ele>1290.00</ele>
        <time>2018-07-13T20:40:48Z</time>
      </trkpt>
      <trkpt lat="27.946310" lon="-15.530503">
        <ele>1290.40</ele>
        <time>2018-07-13T20:40:50Z</time>
      </trkpt>
      <trkpt lat="27.946312" lon="-15.530525">
        <ele>1291.20</ele>
        <time>2018-07-13T20:40:52Z</time>
      </trkpt>
      <trkpt lat="27.946315" lon="-15.530548">
        <ele>1291.20</ele>
        <time>2018-07-13T20:40:54Z</time>
      </trkpt>
      <trkpt lat="27.946317" lon="-15.530578">
        <ele>1291.40</ele>
        <time>2018-07-13T20:40:56Z</time>
      </trkpt>
      <trkpt lat="27.946315" lon="-15.530603">
        <ele>1291.40</ele>
        <time>2018-07-13T20:40:58Z</time>
      </trkpt>
      <trkpt lat="27.946310" lon="-15.530628">
        <ele>1291.20</ele>
        <time>2018-07-13T20:41:00Z</time>
      </trkpt>
      <trkpt lat="27.946305" lon="-15.530651">
        <ele>1291.60</ele>
        <time>2018-07-13T20:41:02Z</time>
      </trkpt>
      <trkpt lat="27.946307" lon="-15.530678">
        <ele>1292.40</ele>
        <time>2018-07-13T20:41:04Z</time>
      </trkpt>
      <trkpt lat="27.946310" lon="-15.530708">
        <ele>1292.80</ele>
        <time>2018-07-13T20:41:06Z</time>
      </trkpt>
      <trkpt lat="27.946318" lon="-15.530737">
        <ele>1293.00</ele>
        <time>2018-07-13T20:41:08Z</time>
      </trkpt>
      <trkpt lat="27.946332" lon="-15.530762">
        <ele>1293.80</ele>
        <time>2018-07-13T20:41:10Z</time>
      </trkpt>
      <trkpt lat="27.946347" lon="-15.530776">
        <ele>1294.00</ele>
        <time>2018-07-13T20:41:12Z</time>
      </trkpt>
      <trkpt lat="27.946354" lon="-15.530798">
        <ele>1294.00</ele>
        <time>2018-07-13T20:41:14Z</time>
      </trkpt>
      <trkpt lat="27.946340" lon="-15.530811">
        <ele>1294.60</ele>
        <time>2018-07-13T20:41:17Z</time>
      </trkpt>
      <trkpt lat="27.946321" lon="-15.530800">
        <ele>1295.00</ele>
        <time>2018-07-13T20:41:19Z</time>
      </trkpt>
      <trkpt lat="27.946297" lon="-15.530799">
        <ele>1295.20</ele>
        <time>2018-07-13T20:41:21Z</time>
      </trkpt>
      <trkpt lat="27.946274" lon="-15.530802">
        <ele>1295.60</ele>
        <time>2018-07-13T20:41:23Z</time>
      </trkpt>
      <trkpt lat="27.946256" lon="-15.530811">
        <ele>1296.00</ele>
        <time>2018-07-13T20:41:25Z</time>
      </trkpt>
      <trkpt lat="27.946240" lon="-15.530827">
        <ele>1296.40</ele>
        <time>2018-07-13T20:41:27Z</time>
      </trkpt>
      <trkpt lat="27.946230" lon="-15.530844">
        <ele>1296.60</ele>
        <time>2018-07-13T20:41:29Z</time>
      </trkpt>
      <trkpt lat="27.946231" lon="-15.530872">
        <ele>1297.00</ele>
        <time>2018-07-13T20:41:32Z</time>
      </trkpt>
      <trkpt lat="27.946229" lon="-15.530892">
        <ele>1297.60</ele>
        <time>2018-07-13T20:41:34Z</time>
      </trkpt>
      <trkpt lat="27.946231" lon="-15.530922">
        <ele>1297.60</ele>
        <time>2018-07-13T20:41:37Z</time>
      </trkpt>
      <trkpt lat="27.946225" lon="-15.530948">
        <ele>1298.60</ele>
        <time>2018-07-13T20:41:40Z</time>
      </trkpt>
      <trkpt lat="27.946200" lon="-15.530949">
        <ele>1298.80</ele>
        <time>2018-07-13T20:41:43Z</time>
      </trkpt>
      <trkpt lat="27.946170" lon="-15.530948">
        <ele>1299.60</ele>
        <time>2018-07-13T20:41:48Z</time>
      </trkpt>
      <trkpt lat="27.946149" lon="-15.530954">
        <ele>1300.60</ele>
        <time>2018-07-13T20:41:50Z</time>
      </trkpt>
      <trkpt lat="27.946139" lon="-15.530977">
        <ele>1300.40</ele>
        <time>2018-07-13T20:41:53Z</time>
      </trkpt>
      <trkpt lat="27.946139" lon="-15.531003">
        <ele>1301.00</ele>
        <time>2018-07-13T20:41:56Z</time>
      </trkpt>
      <trkpt lat="27.946144" lon="-15.531034">
        <ele>1301.00</ele>
        <time>2018-07-13T20:41:59Z</time>
      </trkpt>
      <trkpt lat="27.946154" lon="-15.531055">
        <ele>1301.00</ele>
        <time>2018-07-13T20:42:02Z</time>
      </trkpt>
      <trkpt lat="27.946157" lon="-15.531084">
        <ele>1301.40</ele>
        <time>2018-07-13T20:42:05Z</time>
      </trkpt>
      <trkpt lat="27.946145" lon="-15.531104">
        <ele>1302.20</ele>
        <time>2018-07-13T20:42:07Z</time>
      </trkpt>
      <trkpt lat="27.946130" lon="-15.531125">
        <ele>1302.20</ele>
        <time>2018-07-13T20:42:09Z</time>
      </trkpt>
      <trkpt lat="27.946120" lon="-15.531144">
        <ele>1303.40</ele>
        <time>2018-07-13T20:42:11Z</time>
      </trkpt>
      <trkpt lat="27.946119" lon="-15.531170">
        <ele>1303.80</ele>
        <time>2018-07-13T20:42:14Z</time>
      </trkpt>
      <trkpt lat="27.946126" lon="-15.531200">
        <ele>1304.40</ele>
        <time>2018-07-13T20:42:17Z</time>
      </trkpt>
      <trkpt lat="27.946139" lon="-15.531216">
        <ele>1304.80</ele>
        <time>2018-07-13T20:42:19Z</time>
      </trkpt>
      <trkpt lat="27.946152" lon="-15.531230">
        <ele>1304.80</ele>
        <time>2018-07-13T20:42:21Z</time>
      </trkpt>
      <trkpt lat="27.946169" lon="-15.531236">
        <ele>1305.00</ele>
        <time>2018-07-13T20:42:23Z</time>
      </trkpt>
      <trkpt lat="27.946195" lon="-15.531238">
        <ele>1305.80</ele>
        <time>2018-07-13T20:42:26Z</time>
      </trkpt>
      <trkpt lat="27.946218" lon="-15.531236">
        <ele>1305.80</ele>
        <time>2018-07-13T20:42:28Z</time>
      </trkpt>
      <trkpt lat="27.946235" lon="-15.531248">
        <ele>1306.00</ele>
        <time>2018-07-13T20:42:30Z</time>
      </trkpt>
      <trkpt lat="27.946249" lon="-15.531270">
        <ele>1305.80</ele>
        <time>2018-07-13T20:42:32Z</time>
      </trkpt>
      <trkpt lat="27.946254" lon="-15.531298">
        <ele>1305.80</ele>
        <time>2018-07-13T20:42:34Z</time>
      </trkpt>
      <trkpt lat="27.946260" lon="-15.531327">
        <ele>1305.60</ele>
        <time>2018-07-13T20:42:36Z</time>
      </trkpt>
      <trkpt lat="27.946269" lon="-15.531357">
        <ele>1306.20</ele>
        <time>2018-07-13T20:42:38Z</time>
      </trkpt>
      <trkpt lat="27.946282" lon="-15.531380">
        <ele>1306.20</ele>
        <time>2018-07-13T20:42:40Z</time>
      </trkpt>
      <trkpt lat="27.946302" lon="-15.531383">
        <ele>1306.40</ele>
        <time>2018-07-13T20:42:42Z</time>
      </trkpt>
      <trkpt lat="27.946328" lon="-15.531368">
        <ele>1306.60</ele>
        <time>2018-07-13T20:42:44Z</time>
      </trkpt>
      <trkpt lat="27.946354" lon="-15.531355">
        <ele>1307.00</ele>
        <time>2018-07-13T20:42:46Z</time>
      </trkpt>
      <trkpt lat="27.946376" lon="-15.531343">
        <ele>1307.60</ele>
        <time>2018-07-13T20:42:48Z</time>
      </trkpt>
      <trkpt lat="27.946398" lon="-15.531336">
        <ele>1308.40</ele>
        <time>2018-07-13T20:42:50Z</time>
      </trkpt>
      <trkpt lat="27.946420" lon="-15.531326">
        <ele>1308.60</ele>
        <time>2018-07-13T20:42:52Z</time>
      </trkpt>
      <trkpt lat="27.946441" lon="-15.531320">
        <ele>1308.60</ele>
        <time>2018-07-13T20:42:54Z</time>
      </trkpt>
      <trkpt lat="27.946466" lon="-15.531324">
        <ele>1308.40</ele>
        <time>2018-07-13T20:42:56Z</time>
      </trkpt>
      <trkpt lat="27.946491" lon="-15.531340">
        <ele>1307.80</ele>
        <time>2018-07-13T20:42:58Z</time>
      </trkpt>
      <trkpt lat="27.946516" lon="-15.531356">
        <ele>1307.80</ele>
        <time>2018-07-13T20:43:00Z</time>
      </trkpt>
      <trkpt lat="27.946533" lon="-15.531371">
        <ele>1307.60</ele>
        <time>2018-07-13T20:43:02Z</time>
      </trkpt>
      <trkpt lat="27.946554" lon="-15.531386">
        <ele>1307.60</ele>
        <time>2018-07-13T20:43:04Z</time>
      </trkpt>
      <trkpt lat="27.946568" lon="-15.531407">
        <ele>1307.60</ele>
        <time>2018-07-13T20:43:06Z</time>
      </trkpt>
      <trkpt lat="27.946573" lon="-15.531432">
        <ele>1308.00</ele>
        <time>2018-07-13T20:43:08Z</time>
      </trkpt>
      <trkpt lat="27.946582" lon="-15.531453">
        <ele>1308.00</ele>
        <time>2018-07-13T20:43:34Z</time>
      </trkpt>
      <trkpt lat="27.946590" lon="-15.531472">
        <ele>1308.00</ele>
        <time>2018-07-13T20:43:36Z</time>
      </trkpt>
      <trkpt lat="27.946595" lon="-15.531494">
        <ele>1308.40</ele>
        <time>2018-07-13T20:43:38Z</time>
      </trkpt>
      <trkpt lat="27.946605" lon="-15.531513">
        <ele>1308.80</ele>
        <time>2018-07-13T20:43:40Z</time>
      </trkpt>
      <trkpt lat="27.946616" lon="-15.531533">
        <ele>1309.00</ele>
        <time>2018-07-13T20:43:42Z</time>
      </trkpt>
      <trkpt lat="27.946624" lon="-15.531552">
        <ele>1309.00</ele>
        <time>2018-07-13T20:43:44Z</time>
      </trkpt>
      <trkpt lat="27.946637" lon="-15.531571">
        <ele>1309.20</ele>
        <time>2018-07-13T20:43:46Z</time>
      </trkpt>
      <trkpt lat="27.946653" lon="-15.531594">
        <ele>1309.40</ele>
        <time>2018-07-13T20:43:48Z</time>
      </trkpt>
      <trkpt lat="27.946666" lon="-15.531616">
        <ele>1309.60</ele>
        <time>2018-07-13T20:43:50Z</time>
      </trkpt>
      <trkpt lat="27.946678" lon="-15.531638">
        <ele>1309.80</ele>
        <time>2018-07-13T20:43:52Z</time>
      </trkpt>
      <trkpt lat="27.946686" lon="-15.531658">
        <ele>1309.80</ele>
        <time>2018-07-13T20:43:54Z</time>
      </trkpt>
      <trkpt lat="27.946690" lon="-15.531684">
        <ele>1309.80</ele>
        <time>2018-07-13T20:43:56Z</time>
      </trkpt>
      <trkpt lat="27.946696" lon="-15.531703">
        <ele>1310.20</ele>
        <time>2018-07-13T20:43:58Z</time>
      </trkpt>
      <trkpt lat="27.946709" lon="-15.531722">
        <ele>1310.40</ele>
        <time>2018-07-13T20:44:01Z</time>
      </trkpt>
      <trkpt lat="27.946723" lon="-15.531738">
        <ele>1311.60</ele>
        <time>2018-07-13T20:44:09Z</time>
      </trkpt>
      <trkpt lat="27.946737" lon="-15.531755">
        <ele>1311.80</ele>
        <time>2018-07-13T20:44:12Z</time>
      </trkpt>
      <trkpt lat="27.946752" lon="-15.531766">
        <ele>1311.00</ele>
        <time>2018-07-13T20:44:15Z</time>
      </trkpt>
      <trkpt lat="27.946773" lon="-15.531778">
        <ele>1311.60</ele>
        <time>2018-07-13T20:44:18Z</time>
      </trkpt>
      <trkpt lat="27.946790" lon="-15.531785">
        <ele>1311.60</ele>
        <time>2018-07-13T20:44:20Z</time>
      </trkpt>
      <trkpt lat="27.946809" lon="-15.531791">
        <ele>1311.80</ele>
        <time>2018-07-13T20:44:22Z</time>
      </trkpt>
      <trkpt lat="27.946830" lon="-15.531797">
        <ele>1311.60</ele>
        <time>2018-07-13T20:44:24Z</time>
      </trkpt>
      <trkpt lat="27.946848" lon="-15.531800">
        <ele>1311.80</ele>
        <time>2018-07-13T20:44:26Z</time>
      </trkpt>
      <trkpt lat="27.946872" lon="-15.531810">
        <ele>1311.40</ele>
        <time>2018-07-13T20:44:28Z</time>
      </trkpt>
      <trkpt lat="27.946887" lon="-15.531826">
        <ele>1311.40</ele>
        <time>2018-07-13T20:44:30Z</time>
      </trkpt>
      <trkpt lat="27.946903" lon="-15.531844">
        <ele>1311.40</ele>
        <time>2018-07-13T20:44:32Z</time>
      </trkpt>
      <trkpt lat="27.946926" lon="-15.531864">
        <ele>1311.40</ele>
        <time>2018-07-13T20:44:34Z</time>
      </trkpt>
      <trkpt lat="27.946953" lon="-15.531886">
        <ele>1311.20</ele>
        <time>2018-07-13T20:44:36Z</time>
      </trkpt>
      <trkpt lat="27.946977" lon="-15.531902">
        <ele>1311.20</ele>
        <time>2018-07-13T20:44:38Z</time>
      </trkpt>
      <trkpt lat="27.947002" lon="-15.531912">
        <ele>1311.00</ele>
        <time>2018-07-13T20:44:40Z</time>
      </trkpt>
      <trkpt lat="27.947018" lon="-15.531928">
        <ele>1311.40</ele>
        <time>2018-07-13T20:44:43Z</time>
      </trkpt>
      <trkpt lat="27.947034" lon="-15.531944">
        <ele>1312.00</ele>
        <time>2018-07-13T20:44:51Z</time>
      </trkpt>
      <trkpt lat="27.947057" lon="-15.531950">
        <ele>1312.00</ele>
        <time>2018-07-13T20:44:53Z</time>
      </trkpt>
      <trkpt lat="27.947080" lon="-15.531955">
        <ele>1312.00</ele>
        <time>2018-07-13T20:44:55Z</time>
      </trkpt>
      <trkpt lat="27.947102" lon="-15.531969">
        <ele>1311.80</ele>
        <time>2018-07-13T20:44:58Z</time>
      </trkpt>
      <trkpt lat="27.947116" lon="-15.531988">
        <ele>1312.20</ele>
        <time>2018-07-13T20:45:00Z</time>
      </trkpt>
      <trkpt lat="27.947135" lon="-15.532003">
        <ele>1312.20</ele>
        <time>2018-07-13T20:45:02Z</time>
      </trkpt>
      <trkpt lat="27.947147" lon="-15.532022">
        <ele>1312.80</ele>
        <time>2018-07-13T20:45:04Z</time>
      </trkpt>
      <trkpt lat="27.947150" lon="-15.532044">
        <ele>1313.00</ele>
        <time>2018-07-13T20:45:06Z</time>
      </trkpt>
      <trkpt lat="27.947157" lon="-15.532067">
        <ele>1313.40</ele>
        <time>2018-07-13T20:45:08Z</time>
      </trkpt>
      <trkpt lat="27.947168" lon="-15.532092">
        <ele>1313.40</ele>
        <time>2018-07-13T20:45:10Z</time>
      </trkpt>
      <trkpt lat="27.947184" lon="-15.532112">
        <ele>1313.40</ele>
        <time>2018-07-13T20:45:12Z</time>
      </trkpt>
      <trkpt lat="27.947203" lon="-15.532129">
        <ele>1313.60</ele>
        <time>2018-07-13T20:45:14Z</time>
      </trkpt>
      <trkpt lat="27.947225" lon="-15.532139">
        <ele>1313.80</ele>
        <time>2018-07-13T20:45:16Z</time>
      </trkpt>
      <trkpt lat="27.947244" lon="-15.532144">
        <ele>1314.20</ele>
        <time>2018-07-13T20:45:18Z</time>
      </trkpt>
      <trkpt lat="27.947259" lon="-15.532163">
        <ele>1314.80</ele>
        <time>2018-07-13T20:45:20Z</time>
      </trkpt>
      <trkpt lat="27.947272" lon="-15.532182">
        <ele>1315.00</ele>
        <time>2018-07-13T20:45:22Z</time>
      </trkpt>
      <trkpt lat="27.947287" lon="-15.532208">
        <ele>1315.20</ele>
        <time>2018-07-13T20:45:24Z</time>
      </trkpt>
      <trkpt lat="27.947302" lon="-15.532231">
        <ele>1315.40</ele>
        <time>2018-07-13T20:45:26Z</time>
      </trkpt>
      <trkpt lat="27.947316" lon="-15.532250">
        <ele>1315.40</ele>
        <time>2018-07-13T20:45:28Z</time>
      </trkpt>
      <trkpt lat="27.947330" lon="-15.532276">
        <ele>1315.60</ele>
        <time>2018-07-13T20:45:30Z</time>
      </trkpt>
      <trkpt lat="27.947346" lon="-15.532302">
        <ele>1316.20</ele>
        <time>2018-07-13T20:45:32Z</time>
      </trkpt>
      <trkpt lat="27.947364" lon="-15.532327">
        <ele>1316.40</ele>
        <time>2018-07-13T20:45:34Z</time>
      </trkpt>
      <trkpt lat="27.947385" lon="-15.532352">
        <ele>1316.40</ele>
        <time>2018-07-13T20:45:36Z</time>
      </trkpt>
      <trkpt lat="27.947407" lon="-15.532368">
        <ele>1317.20</ele>
        <time>2018-07-13T20:45:38Z</time>
      </trkpt>
      <trkpt lat="27.947428" lon="-15.532384">
        <ele>1317.20</ele>
        <time>2018-07-13T20:45:40Z</time>
      </trkpt>
      <trkpt lat="27.947447" lon="-15.532405">
        <ele>1317.40</ele>
        <time>2018-07-13T20:45:42Z</time>
      </trkpt>
      <trkpt lat="27.947462" lon="-15.532426">
        <ele>1317.40</ele>
        <time>2018-07-13T20:45:44Z</time>
      </trkpt>
      <trkpt lat="27.947484" lon="-15.532445">
        <ele>1317.40</ele>
        <time>2018-07-13T20:45:46Z</time>
      </trkpt>
      <trkpt lat="27.947509" lon="-15.532453">
        <ele>1317.60</ele>
        <time>2018-07-13T20:45:48Z</time>
      </trkpt>
      <trkpt lat="27.947534" lon="-15.532452">
        <ele>1317.60</ele>
        <time>2018-07-13T20:45:50Z</time>
      </trkpt>
      <trkpt lat="27.947559" lon="-15.532464">
        <ele>1317.20</ele>
        <time>2018-07-13T20:45:52Z</time>
      </trkpt>
      <trkpt lat="27.947581" lon="-15.532477">
        <ele>1317.20</ele>
        <time>2018-07-13T20:45:54Z</time>
      </trkpt>
      <trkpt lat="27.947604" lon="-15.532489">
        <ele>1317.20</ele>
        <time>2018-07-13T20:45:56Z</time>
      </trkpt>
      <trkpt lat="27.947627" lon="-15.532504">
        <ele>1317.20</ele>
        <time>2018-07-13T20:45:58Z</time>
      </trkpt>
      <trkpt lat="27.947623" lon="-15.532527">
        <ele>1317.20</ele>
        <time>2018-07-13T20:46:01Z</time>
      </trkpt>
      <trkpt lat="27.947610" lon="-15.532551">
        <ele>1317.40</ele>
        <time>2018-07-13T20:46:03Z</time>
      </trkpt>
      <trkpt lat="27.947606" lon="-15.532577">
        <ele>1318.00</ele>
        <time>2018-07-13T20:46:05Z</time>
      </trkpt>
      <trkpt lat="27.947605" lon="-15.532599">
        <ele>1318.20</ele>
        <time>2018-07-13T20:46:07Z</time>
      </trkpt>
      <trkpt lat="27.947598" lon="-15.532626">
        <ele>1318.80</ele>
        <time>2018-07-13T20:46:10Z</time>
      </trkpt>
      <trkpt lat="27.947594" lon="-15.532653">
        <ele>1319.00</ele>
        <time>2018-07-13T20:46:12Z</time>
      </trkpt>
      <trkpt lat="27.947593" lon="-15.532679">
        <ele>1319.40</ele>
        <time>2018-07-13T20:46:14Z</time>
      </trkpt>
      <trkpt lat="27.947600" lon="-15.532700">
        <ele>1320.20</ele>
        <time>2018-07-13T20:46:16Z</time>
      </trkpt>
      <trkpt lat="27.947600" lon="-15.532725">
        <ele>1320.40</ele>
        <time>2018-07-13T20:46:18Z</time>
      </trkpt>
      <trkpt lat="27.947590" lon="-15.532748">
        <ele>1321.00</ele>
        <time>2018-07-13T20:46:20Z</time>
      </trkpt>
      <trkpt lat="27.947581" lon="-15.532770">
        <ele>1322.20</ele>
        <time>2018-07-13T20:46:22Z</time>
      </trkpt>
      <trkpt lat="27.947579" lon="-15.532791">
        <ele>1322.40</ele>
        <time>2018-07-13T20:46:24Z</time>
      </trkpt>
      <trkpt lat="27.947567" lon="-15.532814">
        <ele>1323.00</ele>
        <time>2018-07-13T20:46:26Z</time>
      </trkpt>
      <trkpt lat="27.947566" lon="-15.532836">
        <ele>1323.60</ele>
        <time>2018-07-13T20:46:29Z</time>
      </trkpt>
      <trkpt lat="27.947564" lon="-15.532865">
        <ele>1324.60</ele>
        <time>2018-07-13T20:46:32Z</time>
      </trkpt>
      <trkpt lat="27.947565" lon="-15.532890">
        <ele>1325.40</ele>
        <time>2018-07-13T20:46:35Z</time>
      </trkpt>
      <trkpt lat="27.947567" lon="-15.532912">
        <ele>1325.80</ele>
        <time>2018-07-13T20:46:38Z</time>
      </trkpt>
      <trkpt lat="27.947575" lon="-15.532931">
        <ele>1327.00</ele>
        <time>2018-07-13T20:46:40Z</time>
      </trkpt>
      <trkpt lat="27.947596" lon="-15.532952">
        <ele>1327.20</ele>
        <time>2018-07-13T20:46:43Z</time>
      </trkpt>
      <trkpt lat="27.947614" lon="-15.532965">
        <ele>1328.00</ele>
        <time>2018-07-13T20:46:45Z</time>
      </trkpt>
      <trkpt lat="27.947631" lon="-15.532989">
        <ele>1328.20</ele>
        <time>2018-07-13T20:46:47Z</time>
      </trkpt>
      <trkpt lat="27.947645" lon="-15.533010">
        <ele>1329.00</ele>
        <time>2018-07-13T20:46:49Z</time>
      </trkpt>
      <trkpt lat="27.947652" lon="-15.533029">
        <ele>1329.80</ele>
        <time>2018-07-13T20:46:51Z</time>
      </trkpt>
      <trkpt lat="27.947660" lon="-15.533053">
        <ele>1330.20</ele>
        <time>2018-07-13T20:46:53Z</time>
      </trkpt>
      <trkpt lat="27.947674" lon="-15.533076">
        <ele>1330.40</ele>
        <time>2018-07-13T20:46:55Z</time>
      </trkpt>
      <trkpt lat="27.947693" lon="-15.533094">
        <ele>1330.80</ele>
        <time>2018-07-13T20:46:57Z</time>
      </trkpt>
      <trkpt lat="27.947712" lon="-15.533110">
        <ele>1331.80</ele>
        <time>2018-07-13T20:46:59Z</time>
      </trkpt>
      <trkpt lat="27.947740" lon="-15.533124">
        <ele>1332.40</ele>
        <time>2018-07-13T20:47:01Z</time>
      </trkpt>
      <trkpt lat="27.947770" lon="-15.533132">
        <ele>1332.40</ele>
        <time>2018-07-13T20:47:03Z</time>
      </trkpt>
      <trkpt lat="27.947801" lon="-15.533130">
        <ele>1332.60</ele>
        <time>2018-07-13T20:47:05Z</time>
      </trkpt>
      <trkpt lat="27.947827" lon="-15.533128">
        <ele>1332.60</ele>
        <time>2018-07-13T20:47:07Z</time>
      </trkpt>
      <trkpt lat="27.947854" lon="-15.533133">
        <ele>1332.60</ele>
        <time>2018-07-13T20:47:09Z</time>
      </trkpt>
      <trkpt lat="27.947882" lon="-15.533137">
        <ele>1332.80</ele>
        <time>2018-07-13T20:47:11Z</time>
      </trkpt>
      <trkpt lat="27.947904" lon="-15.533135">
        <ele>1332.60</ele>
        <time>2018-07-13T20:47:13Z</time>
      </trkpt>
      <trkpt lat="27.947925" lon="-15.533141">
        <ele>1332.60</ele>
        <time>2018-07-13T20:47:15Z</time>
      </trkpt>
      <trkpt lat="27.947944" lon="-15.533162">
        <ele>1333.20</ele>
        <time>2018-07-13T20:47:17Z</time>
      </trkpt>
      <trkpt lat="27.947971" lon="-15.533175">
        <ele>1333.20</ele>
        <time>2018-07-13T20:47:19Z</time>
      </trkpt>
      <trkpt lat="27.947997" lon="-15.533182">
        <ele>1333.60</ele>
        <time>2018-07-13T20:47:21Z</time>
      </trkpt>
      <trkpt lat="27.948016" lon="-15.533190">
        <ele>1334.20</ele>
        <time>2018-07-13T20:47:23Z</time>
      </trkpt>
      <trkpt lat="27.948030" lon="-15.533203">
        <ele>1334.80</ele>
        <time>2018-07-13T20:47:25Z</time>
      </trkpt>
      <trkpt lat="27.948045" lon="-15.533227">
        <ele>1335.40</ele>
        <time>2018-07-13T20:47:27Z</time>
      </trkpt>
      <trkpt lat="27.948060" lon="-15.533248">
        <ele>1335.40</ele>
        <time>2018-07-13T20:47:29Z</time>
      </trkpt>
      <trkpt lat="27.948074" lon="-15.533265">
        <ele>1336.00</ele>
        <time>2018-07-13T20:47:31Z</time>
      </trkpt>
      <trkpt lat="27.948090" lon="-15.533279">
        <ele>1336.00</ele>
        <time>2018-07-13T20:47:33Z</time>
      </trkpt>
      <trkpt lat="27.948108" lon="-15.533298">
        <ele>1336.60</ele>
        <time>2018-07-13T20:47:35Z</time>
      </trkpt>
      <trkpt lat="27.948123" lon="-15.533324">
        <ele>1336.80</ele>
        <time>2018-07-13T20:47:37Z</time>
      </trkpt>
      <trkpt lat="27.948143" lon="-15.533348">
        <ele>1336.80</ele>
        <time>2018-07-13T20:47:39Z</time>
      </trkpt>
      <trkpt lat="27.948158" lon="-15.533365">
        <ele>1337.20</ele>
        <time>2018-07-13T20:47:41Z</time>
      </trkpt>
      <trkpt lat="27.948185" lon="-15.533373">
        <ele>1337.40</ele>
        <time>2018-07-13T20:47:43Z</time>
      </trkpt>
      <trkpt lat="27.948214" lon="-15.533384">
        <ele>1338.00</ele>
        <time>2018-07-13T20:47:45Z</time>
      </trkpt>
      <trkpt lat="27.948240" lon="-15.533383">
        <ele>1338.00</ele>
        <time>2018-07-13T20:47:47Z</time>
      </trkpt>
      <trkpt lat="27.948261" lon="-15.533397">
        <ele>1338.40</ele>
        <time>2018-07-13T20:47:50Z</time>
      </trkpt>
      <trkpt lat="27.948263" lon="-15.533428">
        <ele>1338.40</ele>
        <time>2018-07-13T20:47:52Z</time>
      </trkpt>
      <trkpt lat="27.948263" lon="-15.533458">
        <ele>1338.80</ele>
        <time>2018-07-13T20:47:54Z</time>
      </trkpt>
      <trkpt lat="27.948266" lon="-15.533488">
        <ele>1339.40</ele>
        <time>2018-07-13T20:47:56Z</time>
      </trkpt>
      <trkpt lat="27.948264" lon="-15.533514">
        <ele>1340.00</ele>
        <time>2018-07-13T20:47:58Z</time>
      </trkpt>
      <trkpt lat="27.948267" lon="-15.533541">
        <ele>1340.00</ele>
        <time>2018-07-13T20:48:00Z</time>
      </trkpt>
      <trkpt lat="27.948280" lon="-15.533563">
        <ele>1340.00</ele>
        <time>2018-07-13T20:48:02Z</time>
      </trkpt>
      <trkpt lat="27.948301" lon="-15.533571">
        <ele>1340.40</ele>
        <time>2018-07-13T20:48:04Z</time>
      </trkpt>
      <trkpt lat="27.948319" lon="-15.533575">
        <ele>1340.60</ele>
        <time>2018-07-13T20:48:06Z</time>
      </trkpt>
      <trkpt lat="27.948338" lon="-15.533586">
        <ele>1341.40</ele>
        <time>2018-07-13T20:48:08Z</time>
      </trkpt>
      <trkpt lat="27.948356" lon="-15.533596">
        <ele>1341.40</ele>
        <time>2018-07-13T20:48:10Z</time>
      </trkpt>
      <trkpt lat="27.948378" lon="-15.533598">
        <ele>1341.80</ele>
        <time>2018-07-13T20:48:12Z</time>
      </trkpt>
      <trkpt lat="27.948396" lon="-15.533588">
        <ele>1342.00</ele>
        <time>2018-07-13T20:48:14Z</time>
      </trkpt>
      <trkpt lat="27.948419" lon="-15.533580">
        <ele>1342.60</ele>
        <time>2018-07-13T20:48:16Z</time>
      </trkpt>
      <trkpt lat="27.948440" lon="-15.533580">
        <ele>1343.00</ele>
        <time>2018-07-13T20:48:18Z</time>
      </trkpt>
      <trkpt lat="27.948458" lon="-15.533577">
        <ele>1343.20</ele>
        <time>2018-07-13T20:48:20Z</time>
      </trkpt>
      <trkpt lat="27.948476" lon="-15.533576">
        <ele>1343.40</ele>
        <time>2018-07-13T20:48:22Z</time>
      </trkpt>
      <trkpt lat="27.948497" lon="-15.533572">
        <ele>1343.40</ele>
        <time>2018-07-13T20:48:24Z</time>
      </trkpt>
      <trkpt lat="27.948515" lon="-15.533575">
        <ele>1344.20</ele>
        <time>2018-07-13T20:48:26Z</time>
      </trkpt>
      <trkpt lat="27.948545" lon="-15.533585">
        <ele>1345.00</ele>
        <time>2018-07-13T20:48:29Z</time>
      </trkpt>
      <trkpt lat="27.948565" lon="-15.533592">
        <ele>1345.00</ele>
        <time>2018-07-13T20:48:31Z</time>
      </trkpt>
      <trkpt lat="27.948583" lon="-15.533599">
        <ele>1345.40</ele>
        <time>2018-07-13T20:48:33Z</time>
      </trkpt>
      <trkpt lat="27.948601" lon="-15.533611">
        <ele>1346.20</ele>
        <time>2018-07-13T20:48:35Z</time>
      </trkpt>
      <trkpt lat="27.948619" lon="-15.533629">
        <ele>1346.40</ele>
        <time>2018-07-13T20:48:37Z</time>
      </trkpt>
      <trkpt lat="27.948639" lon="-15.533641">
        <ele>1346.80</ele>
        <time>2018-07-13T20:48:39Z</time>
      </trkpt>
      <trkpt lat="27.948658" lon="-15.533652">
        <ele>1347.20</ele>
        <time>2018-07-13T20:48:41Z</time>
      </trkpt>
      <trkpt lat="27.948679" lon="-15.533658">
        <ele>1347.80</ele>
        <time>2018-07-13T20:48:43Z</time>
      </trkpt>
      <trkpt lat="27.948698" lon="-15.533671">
        <ele>1348.00</ele>
        <time>2018-07-13T20:48:45Z</time>
      </trkpt>
      <trkpt lat="27.948721" lon="-15.533684">
        <ele>1348.40</ele>
        <time>2018-07-13T20:48:47Z</time>
      </trkpt>
      <trkpt lat="27.948741" lon="-15.533698">
        <ele>1348.40</ele>
        <time>2018-07-13T20:48:49Z</time>
      </trkpt>
      <trkpt lat="27.948762" lon="-15.533718">
        <ele>1348.40</ele>
        <time>2018-07-13T20:48:52Z</time>
      </trkpt>
      <trkpt lat="27.948782" lon="-15.533732">
        <ele>1348.40</ele>
        <time>2018-07-13T20:48:54Z</time>
      </trkpt>
      <trkpt lat="27.948804" lon="-15.533750">
        <ele>1348.60</ele>
        <time>2018-07-13T20:48:56Z</time>
      </trkpt>
      <trkpt lat="27.948826" lon="-15.533759">
        <ele>1349.20</ele>
        <time>2018-07-13T20:48:58Z</time>
      </trkpt>
      <trkpt lat="27.948851" lon="-15.533768">
        <ele>1350.60</ele>
        <time>2018-07-13T20:49:01Z</time>
      </trkpt>
      <trkpt lat="27.948870" lon="-15.533778">
        <ele>1350.20</ele>
        <time>2018-07-13T20:49:03Z</time>
      </trkpt>
      <trkpt lat="27.948886" lon="-15.533788">
        <ele>1350.20</ele>
        <time>2018-07-13T20:49:05Z</time>
      </trkpt>
      <trkpt lat="27.948909" lon="-15.533801">
        <ele>1350.60</ele>
        <time>2018-07-13T20:49:08Z</time>
      </trkpt>
      <trkpt lat="27.948929" lon="-15.533817">
        <ele>1351.40</ele>
        <time>2018-07-13T20:49:10Z</time>
      </trkpt>
      <trkpt lat="27.948944" lon="-15.533833">
        <ele>1351.40</ele>
        <time>2018-07-13T20:49:12Z</time>
      </trkpt>
      <trkpt lat="27.948962" lon="-15.533855">
        <ele>1351.80</ele>
        <time>2018-07-13T20:49:14Z</time>
      </trkpt>
      <trkpt lat="27.948979" lon="-15.533872">
        <ele>1351.80</ele>
        <time>2018-07-13T20:49:16Z</time>
      </trkpt>
      <trkpt lat="27.948999" lon="-15.533885">
        <ele>1352.00</ele>
        <time>2018-07-13T20:49:18Z</time>
      </trkpt>
      <trkpt lat="27.949015" lon="-15.533895">
        <ele>1352.20</ele>
        <time>2018-07-13T20:49:20Z</time>
      </trkpt>
      <trkpt lat="27.949039" lon="-15.533899">
        <ele>1352.60</ele>
        <time>2018-07-13T20:49:22Z</time>
      </trkpt>
      <trkpt lat="27.949071" lon="-15.533917">
        <ele>1353.40</ele>
        <time>2018-07-13T20:49:25Z</time>
      </trkpt>
      <trkpt lat="27.949097" lon="-15.533936">
        <ele>1353.40</ele>
        <time>2018-07-13T20:49:27Z</time>
      </trkpt>
      <trkpt lat="27.949129" lon="-15.533976">
        <ele>1353.60</ele>
        <time>2018-07-13T20:49:30Z</time>
      </trkpt>
      <trkpt lat="27.949152" lon="-15.533997">
        <ele>1353.60</ele>
        <time>2018-07-13T20:49:32Z</time>
      </trkpt>
      <trkpt lat="27.949165" lon="-15.534012">
        <ele>1354.20</ele>
        <time>2018-07-13T20:49:34Z</time>
      </trkpt>
      <trkpt lat="27.949187" lon="-15.534027">
        <ele>1354.80</ele>
        <time>2018-07-13T20:49:36Z</time>
      </trkpt>
      <trkpt lat="27.949251" lon="-15.534103">
        <ele>1355.60</ele>
        <time>2018-07-13T20:49:44Z</time>
      </trkpt>
      <trkpt lat="27.949270" lon="-15.534115">
        <ele>1355.80</ele>
        <time>2018-07-13T20:49:46Z</time>
      </trkpt>
      <trkpt lat="27.949280" lon="-15.534137">
        <ele>1356.40</ele>
        <time>2018-07-13T20:49:48Z</time>
      </trkpt>
      <trkpt lat="27.949293" lon="-15.534158">
        <ele>1356.80</ele>
        <time>2018-07-13T20:49:50Z</time>
      </trkpt>
      <trkpt lat="27.949311" lon="-15.534173">
        <ele>1357.00</ele>
        <time>2018-07-13T20:49:52Z</time>
      </trkpt>
      <trkpt lat="27.949330" lon="-15.534176">
        <ele>1358.00</ele>
        <time>2018-07-13T20:49:54Z</time>
      </trkpt>
      <trkpt lat="27.949347" lon="-15.534186">
        <ele>1358.60</ele>
        <time>2018-07-13T20:49:56Z</time>
      </trkpt>
      <trkpt lat="27.949366" lon="-15.534205">
        <ele>1358.60</ele>
        <time>2018-07-13T20:49:58Z</time>
      </trkpt>
      <trkpt lat="27.949385" lon="-15.534229">
        <ele>1359.80</ele>
        <time>2018-07-13T20:50:00Z</time>
      </trkpt>
      <trkpt lat="27.949402" lon="-15.534250">
        <ele>1359.80</ele>
        <time>2018-07-13T20:50:02Z</time>
      </trkpt>
      <trkpt lat="27.949468" lon="-15.534315">
        <ele>1360.40</ele>
        <time>2018-07-13T20:50:09Z</time>
      </trkpt>
      <trkpt lat="27.949502" lon="-15.534322">
        <ele>1360.60</ele>
        <time>2018-07-13T20:50:11Z</time>
      </trkpt>
      <trkpt lat="27.949521" lon="-15.534326">
        <ele>1360.80</ele>
        <time>2018-07-13T20:50:12Z</time>
      </trkpt>
      <trkpt lat="27.949582" lon="-15.534354">
        <ele>1360.20</ele>
        <time>2018-07-13T20:50:16Z</time>
      </trkpt>
      <trkpt lat="27.949604" lon="-15.534371">
        <ele>1359.60</ele>
        <time>2018-07-13T20:50:18Z</time>
      </trkpt>
      <trkpt lat="27.949632" lon="-15.534388">
        <ele>1359.60</ele>
        <time>2018-07-13T20:50:20Z</time>
      </trkpt>
      <trkpt lat="27.949656" lon="-15.534404">
        <ele>1360.00</ele>
        <time>2018-07-13T20:50:22Z</time>
      </trkpt>
      <trkpt lat="27.949676" lon="-15.534433">
        <ele>1360.60</ele>
        <time>2018-07-13T20:50:24Z</time>
      </trkpt>
      <trkpt lat="27.949700" lon="-15.534461">
        <ele>1360.80</ele>
        <time>2018-07-13T20:50:26Z</time>
      </trkpt>
      <trkpt lat="27.949719" lon="-15.534479">
        <ele>1361.00</ele>
        <time>2018-07-13T20:50:28Z</time>
      </trkpt>
      <trkpt lat="27.949741" lon="-15.534498">
        <ele>1360.80</ele>
        <time>2018-07-13T20:50:30Z</time>
      </trkpt>
      <trkpt lat="27.949766" lon="-15.534512">
        <ele>1361.00</ele>
        <time>2018-07-13T20:50:32Z</time>
      </trkpt>
      <trkpt lat="27.949789" lon="-15.534527">
        <ele>1361.00</ele>
        <time>2018-07-13T20:50:34Z</time>
      </trkpt>
      <trkpt lat="27.949814" lon="-15.534539">
        <ele>1360.80</ele>
        <time>2018-07-13T20:50:36Z</time>
      </trkpt>
      <trkpt lat="27.949832" lon="-15.534546">
        <ele>1360.80</ele>
        <time>2018-07-13T20:50:38Z</time>
      </trkpt>
      <trkpt lat="27.949850" lon="-15.534560">
        <ele>1361.40</ele>
        <time>2018-07-13T20:50:40Z</time>
      </trkpt>
      <trkpt lat="27.949874" lon="-15.534580">
        <ele>1361.20</ele>
        <time>2018-07-13T20:50:42Z</time>
      </trkpt>
      <trkpt lat="27.949932" lon="-15.534525">
        <ele>1360.20</ele>
        <time>2018-07-13T20:50:49Z</time>
      </trkpt>
      <trkpt lat="27.949929" lon="-15.534499">
        <ele>1360.00</ele>
        <time>2018-07-13T20:50:51Z</time>
      </trkpt>
      <trkpt lat="27.949935" lon="-15.534473">
        <ele>1360.40</ele>
        <time>2018-07-13T20:50:53Z</time>
      </trkpt>
      <trkpt lat="27.949951" lon="-15.534459">
        <ele>1360.40</ele>
        <time>2018-07-13T20:50:55Z</time>
      </trkpt>
      <trkpt lat="27.949971" lon="-15.534452">
        <ele>1361.00</ele>
        <time>2018-07-13T20:50:57Z</time>
      </trkpt>
      <trkpt lat="27.949997" lon="-15.534454">
        <ele>1361.60</ele>
        <time>2018-07-13T20:50:59Z</time>
      </trkpt>
      <trkpt lat="27.950021" lon="-15.534452">
        <ele>1361.80</ele>
        <time>2018-07-13T20:51:01Z</time>
      </trkpt>
      <trkpt lat="27.950044" lon="-15.534446">
        <ele>1362.40</ele>
        <time>2018-07-13T20:51:04Z</time>
      </trkpt>
      <trkpt lat="27.950065" lon="-15.534461">
        <ele>1364.00</ele>
        <time>2018-07-13T20:51:07Z</time>
      </trkpt>
      <trkpt lat="27.950076" lon="-15.534498">
        <ele>1364.40</ele>
        <time>2018-07-13T20:51:10Z</time>
      </trkpt>
      <trkpt lat="27.950092" lon="-15.534523">
        <ele>1364.80</ele>
        <time>2018-07-13T20:51:12Z</time>
      </trkpt>
      <trkpt lat="27.950103" lon="-15.534548">
        <ele>1365.20</ele>
        <time>2018-07-13T20:51:14Z</time>
      </trkpt>
      <trkpt lat="27.950111" lon="-15.534571">
        <ele>1365.60</ele>
        <time>2018-07-13T20:51:16Z</time>
      </trkpt>
      <trkpt lat="27.950121" lon="-15.534595">
        <ele>1366.00</ele>
        <time>2018-07-13T20:51:18Z</time>
      </trkpt>
      <trkpt lat="27.950137" lon="-15.534620">
        <ele>1366.60</ele>
        <time>2018-07-13T20:51:20Z</time>
      </trkpt>
      <trkpt lat="27.950149" lon="-15.534645">
        <ele>1367.00</ele>
        <time>2018-07-13T20:51:22Z</time>
      </trkpt>
      <trkpt lat="27.950159" lon="-15.534670">
        <ele>1367.40</ele>
        <time>2018-07-13T20:51:24Z</time>
      </trkpt>
      <trkpt lat="27.950173" lon="-15.534686">
        <ele>1367.60</ele>
        <time>2018-07-13T20:51:26Z</time>
      </trkpt>
      <trkpt lat="27.950189" lon="-15.534704">
        <ele>1367.80</ele>
        <time>2018-07-13T20:51:28Z</time>
      </trkpt>
      <trkpt lat="27.950212" lon="-15.534717">
        <ele>1368.20</ele>
        <time>2018-07-13T20:51:30Z</time>
      </trkpt>
      <trkpt lat="27.950231" lon="-15.534731">
        <ele>1368.20</ele>
        <time>2018-07-13T20:51:32Z</time>
      </trkpt>
      <trkpt lat="27.950251" lon="-15.534743">
        <ele>1369.20</ele>
        <time>2018-07-13T20:51:35Z</time>
      </trkpt>
      <trkpt lat="27.950261" lon="-15.534763">
        <ele>1370.00</ele>
        <time>2018-07-13T20:51:37Z</time>
      </trkpt>
      <trkpt lat="27.950275" lon="-15.534790">
        <ele>1370.40</ele>
        <time>2018-07-13T20:51:39Z</time>
      </trkpt>
      <trkpt lat="27.950291" lon="-15.534801">
        <ele>1370.80</ele>
        <time>2018-07-13T20:51:41Z</time>
      </trkpt>
      <trkpt lat="27.950314" lon="-15.534805">
        <ele>1371.80</ele>
        <time>2018-07-13T20:51:43Z</time>
      </trkpt>
      <trkpt lat="27.950335" lon="-15.534814">
        <ele>1372.60</ele>
        <time>2018-07-13T20:51:45Z</time>
      </trkpt>
      <trkpt lat="27.950357" lon="-15.534822">
        <ele>1373.00</ele>
        <time>2018-07-13T20:51:47Z</time>
      </trkpt>
      <trkpt lat="27.950378" lon="-15.534831">
        <ele>1373.60</ele>
        <time>2018-07-13T20:51:49Z</time>
      </trkpt>
      <trkpt lat="27.950397" lon="-15.534840">
        <ele>1374.60</ele>
        <time>2018-07-13T20:51:52Z</time>
      </trkpt>
      <trkpt lat="27.950418" lon="-15.534844">
        <ele>1376.20</ele>
        <time>2018-07-13T20:51:56Z</time>
      </trkpt>
      <trkpt lat="27.950445" lon="-15.534846">
        <ele>1376.40</ele>
        <time>2018-07-13T20:51:59Z</time>
      </trkpt>
      <trkpt lat="27.950468" lon="-15.534851">
        <ele>1377.40</ele>
        <time>2018-07-13T20:52:01Z</time>
      </trkpt>
      <trkpt lat="27.950491" lon="-15.534861">
        <ele>1378.20</ele>
        <time>2018-07-13T20:52:03Z</time>
      </trkpt>
      <trkpt lat="27.950526" lon="-15.534876">
        <ele>1379.00</ele>
        <time>2018-07-13T20:52:06Z</time>
      </trkpt>
      <trkpt lat="27.950557" lon="-15.534891">
        <ele>1379.60</ele>
        <time>2018-07-13T20:52:09Z</time>
      </trkpt>
      <trkpt lat="27.950575" lon="-15.534900">
        <ele>1380.20</ele>
        <time>2018-07-13T20:52:11Z</time>
      </trkpt>
      <trkpt lat="27.950595" lon="-15.534916">
        <ele>1380.60</ele>
        <time>2018-07-13T20:52:14Z</time>
      </trkpt>
      <trkpt lat="27.950611" lon="-15.534936">
        <ele>1381.00</ele>
        <time>2018-07-13T20:52:16Z</time>
      </trkpt>
      <trkpt lat="27.950614" lon="-15.534960">
        <ele>1381.60</ele>
        <time>2018-07-13T20:52:18Z</time>
      </trkpt>
      <trkpt lat="27.950633" lon="-15.534971">
        <ele>1382.00</ele>
        <time>2018-07-13T20:52:21Z</time>
      </trkpt>
      <trkpt lat="27.950644" lon="-15.534994">
        <ele>1382.80</ele>
        <time>2018-07-13T20:52:24Z</time>
      </trkpt>
      <trkpt lat="27.950664" lon="-15.535003">
        <ele>1383.60</ele>
        <time>2018-07-13T20:52:27Z</time>
      </trkpt>
      <trkpt lat="27.950681" lon="-15.535017">
        <ele>1384.40</ele>
        <time>2018-07-13T20:52:30Z</time>
      </trkpt>
      <trkpt lat="27.950698" lon="-15.535044">
        <ele>1385.20</ele>
        <time>2018-07-13T20:52:33Z</time>
      </trkpt>
      <trkpt lat="27.950747" lon="-15.535132">
        <ele>1387.20</ele>
        <time>2018-07-13T20:52:41Z</time>
      </trkpt>
      <trkpt lat="27.950763" lon="-15.535155">
        <ele>1387.60</ele>
        <time>2018-07-13T20:52:45Z</time>
      </trkpt>
      <trkpt lat="27.950781" lon="-15.535177">
        <ele>1388.80</ele>
        <time>2018-07-13T20:52:48Z</time>
      </trkpt>
      <trkpt lat="27.950796" lon="-15.535195">
        <ele>1389.40</ele>
        <time>2018-07-13T20:52:50Z</time>
      </trkpt>
      <trkpt lat="27.950818" lon="-15.535211">
        <ele>1389.80</ele>
        <time>2018-07-13T20:52:53Z</time>
      </trkpt>
      <trkpt lat="27.950848" lon="-15.535315">
        <ele>1392.00</ele>
        <time>2018-07-13T20:53:04Z</time>
      </trkpt>
      <trkpt lat="27.950896" lon="-15.535396">
        <ele>1393.60</ele>
        <time>2018-07-13T20:53:11Z</time>
      </trkpt>
      <trkpt lat="27.950902" lon="-15.535421">
        <ele>1394.60</ele>
        <time>2018-07-13T20:53:13Z</time>
      </trkpt>
      <trkpt lat="27.950906" lon="-15.535450">
        <ele>1394.60</ele>
        <time>2018-07-13T20:53:16Z</time>
      </trkpt>
      <trkpt lat="27.950918" lon="-15.535479">
        <ele>1395.80</ele>
        <time>2018-07-13T20:53:19Z</time>
      </trkpt>
      <trkpt lat="27.950953" lon="-15.535503">
        <ele>1396.20</ele>
        <time>2018-07-13T20:53:24Z</time>
      </trkpt>
      <trkpt lat="27.950964" lon="-15.535530">
        <ele>1397.60</ele>
        <time>2018-07-13T20:53:28Z</time>
      </trkpt>
      <trkpt lat="27.950965" lon="-15.535553">
        <ele>1398.00</ele>
        <time>2018-07-13T20:53:30Z</time>
      </trkpt>
      <trkpt lat="27.950972" lon="-15.535605">
        <ele>1399.00</ele>
        <time>2018-07-13T20:53:34Z</time>
      </trkpt>
      <trkpt lat="27.950974" lon="-15.535631">
        <ele>1399.40</ele>
        <time>2018-07-13T20:53:36Z</time>
      </trkpt>
      <trkpt lat="27.950991" lon="-15.535650">
        <ele>1399.40</ele>
        <time>2018-07-13T20:53:38Z</time>
      </trkpt>
      <trkpt lat="27.951002" lon="-15.535669">
        <ele>1400.40</ele>
        <time>2018-07-13T20:53:41Z</time>
      </trkpt>
      <trkpt lat="27.951026" lon="-15.535695">
        <ele>1400.80</ele>
        <time>2018-07-13T20:53:44Z</time>
      </trkpt>
      <trkpt lat="27.951036" lon="-15.535725">
        <ele>1401.00</ele>
        <time>2018-07-13T20:53:46Z</time>
      </trkpt>
      <trkpt lat="27.951044" lon="-15.535749">
        <ele>1401.20</ele>
        <time>2018-07-13T20:53:48Z</time>
      </trkpt>
      <trkpt lat="27.951062" lon="-15.535765">
        <ele>1402.40</ele>
        <time>2018-07-13T20:53:51Z</time>
      </trkpt>
      <trkpt lat="27.951072" lon="-15.535788">
        <ele>1402.60</ele>
        <time>2018-07-13T20:53:53Z</time>
      </trkpt>
      <trkpt lat="27.951078" lon="-15.535813">
        <ele>1402.80</ele>
        <time>2018-07-13T20:53:55Z</time>
      </trkpt>
      <trkpt lat="27.951091" lon="-15.535831">
        <ele>1403.20</ele>
        <time>2018-07-13T20:53:58Z</time>
      </trkpt>
      <trkpt lat="27.951103" lon="-15.535860">
        <ele>1404.00</ele>
        <time>2018-07-13T20:54:01Z</time>
      </trkpt>
      <trkpt lat="27.951111" lon="-15.535881">
        <ele>1404.60</ele>
        <time>2018-07-13T20:54:03Z</time>
      </trkpt>
      <trkpt lat="27.951178" lon="-15.535962">
        <ele>1407.00</ele>
        <time>2018-07-13T20:54:12Z</time>
      </trkpt>
      <trkpt lat="27.951186" lon="-15.536007">
        <ele>1407.60</ele>
        <time>2018-07-13T20:54:15Z</time>
      </trkpt>
      <trkpt lat="27.951206" lon="-15.536028">
        <ele>1408.40</ele>
        <time>2018-07-13T20:54:18Z</time>
      </trkpt>
      <trkpt lat="27.951224" lon="-15.536047">
        <ele>1408.80</ele>
        <time>2018-07-13T20:54:20Z</time>
      </trkpt>
      <trkpt lat="27.951253" lon="-15.536066">
        <ele>1409.20</ele>
        <time>2018-07-13T20:54:22Z</time>
      </trkpt>
      <trkpt lat="27.951270" lon="-15.536074">
        <ele>1409.20</ele>
        <time>2018-07-13T20:54:23Z</time>
      </trkpt>
      <trkpt lat="27.951293" lon="-15.536089">
        <ele>1409.40</ele>
        <time>2018-07-13T20:54:25Z</time>
      </trkpt>
      <trkpt lat="27.951318" lon="-15.536113">
        <ele>1410.60</ele>
        <time>2018-07-13T20:54:27Z</time>
      </trkpt>
      <trkpt lat="27.951333" lon="-15.536134">
        <ele>1410.60</ele>
        <time>2018-07-13T20:54:29Z</time>
      </trkpt>
      <trkpt lat="27.951352" lon="-15.536158">
        <ele>1410.40</ele>
        <time>2018-07-13T20:54:32Z</time>
      </trkpt>
      <trkpt lat="27.951369" lon="-15.536166">
        <ele>1410.40</ele>
        <time>2018-07-13T20:54:33Z</time>
      </trkpt>
      <trkpt lat="27.951395" lon="-15.536172">
        <ele>1410.80</ele>
        <time>2018-07-13T20:54:35Z</time>
      </trkpt>
      <trkpt lat="27.951422" lon="-15.536180">
        <ele>1411.40</ele>
        <time>2018-07-13T20:54:37Z</time>
      </trkpt>
      <trkpt lat="27.951449" lon="-15.536192">
        <ele>1412.00</ele>
        <time>2018-07-13T20:54:39Z</time>
      </trkpt>
      <trkpt lat="27.951475" lon="-15.536207">
        <ele>1412.20</ele>
        <time>2018-07-13T20:54:41Z</time>
      </trkpt>
      <trkpt lat="27.951492" lon="-15.536215">
        <ele>1412.40</ele>
        <time>2018-07-13T20:54:42Z</time>
      </trkpt>
      <trkpt lat="27.951519" lon="-15.536226">
        <ele>1412.40</ele>
        <time>2018-07-13T20:54:44Z</time>
      </trkpt>
      <trkpt lat="27.951545" lon="-15.536241">
        <ele>1412.80</ele>
        <time>2018-07-13T20:54:46Z</time>
      </trkpt>
      <trkpt lat="27.951585" lon="-15.536266">
        <ele>1413.00</ele>
        <time>2018-07-13T20:54:49Z</time>
      </trkpt>
      <trkpt lat="27.951611" lon="-15.536284">
        <ele>1413.20</ele>
        <time>2018-07-13T20:54:51Z</time>
      </trkpt>
      <trkpt lat="27.951637" lon="-15.536306">
        <ele>1413.60</ele>
        <time>2018-07-13T20:54:53Z</time>
      </trkpt>
      <trkpt lat="27.951668" lon="-15.536325">
        <ele>1413.60</ele>
        <time>2018-07-13T20:54:55Z</time>
      </trkpt>
      <trkpt lat="27.951691" lon="-15.536339">
        <ele>1413.80</ele>
        <time>2018-07-13T20:54:57Z</time>
      </trkpt>
      <trkpt lat="27.951711" lon="-15.536355">
        <ele>1414.20</ele>
        <time>2018-07-13T20:54:59Z</time>
      </trkpt>
      <trkpt lat="27.951732" lon="-15.536376">
        <ele>1414.40</ele>
        <time>2018-07-13T20:55:01Z</time>
      </trkpt>
      <trkpt lat="27.951752" lon="-15.536395">
        <ele>1414.60</ele>
        <time>2018-07-13T20:55:03Z</time>
      </trkpt>
      <trkpt lat="27.951769" lon="-15.536419">
        <ele>1414.80</ele>
        <time>2018-07-13T20:55:05Z</time>
      </trkpt>
      <trkpt lat="27.951785" lon="-15.536444">
        <ele>1414.80</ele>
        <time>2018-07-13T20:55:07Z</time>
      </trkpt>
      <trkpt lat="27.951801" lon="-15.536469">
        <ele>1415.20</ele>
        <time>2018-07-13T20:55:09Z</time>
      </trkpt>
      <trkpt lat="27.951829" lon="-15.536484">
        <ele>1415.40</ele>
        <time>2018-07-13T20:55:11Z</time>
      </trkpt>
      <trkpt lat="27.951856" lon="-15.536485">
        <ele>1416.00</ele>
        <time>2018-07-13T20:55:13Z</time>
      </trkpt>
      <trkpt lat="27.951884" lon="-15.536476">
        <ele>1416.60</ele>
        <time>2018-07-13T20:55:16Z</time>
      </trkpt>
      <trkpt lat="27.951908" lon="-15.536479">
        <ele>1417.40</ele>
        <time>2018-07-13T20:55:18Z</time>
      </trkpt>
      <trkpt lat="27.951928" lon="-15.536479">
        <ele>1418.00</ele>
        <time>2018-07-13T20:55:20Z</time>
      </trkpt>
      <trkpt lat="27.951946" lon="-15.536474">
        <ele>1418.40</ele>
        <time>2018-07-13T20:55:22Z</time>
      </trkpt>
      <trkpt lat="27.951971" lon="-15.536488">
        <ele>1418.80</ele>
        <time>2018-07-13T20:55:25Z</time>
      </trkpt>
      <trkpt lat="27.951985" lon="-15.536505">
        <ele>1420.00</ele>
        <time>2018-07-13T20:55:27Z</time>
      </trkpt>
      <trkpt lat="27.951992" lon="-15.536527">
        <ele>1420.40</ele>
        <time>2018-07-13T20:55:29Z</time>
      </trkpt>
      <trkpt lat="27.952004" lon="-15.536549">
        <ele>1420.60</ele>
        <time>2018-07-13T20:55:31Z</time>
      </trkpt>
      <trkpt lat="27.952025" lon="-15.536554">
        <ele>1421.60</ele>
        <time>2018-07-13T20:55:33Z</time>
      </trkpt>
      <trkpt lat="27.952050" lon="-15.536560">
        <ele>1421.60</ele>
        <time>2018-07-13T20:55:35Z</time>
      </trkpt>
      <trkpt lat="27.952072" lon="-15.536564">
        <ele>1422.00</ele>
        <time>2018-07-13T20:55:37Z</time>
      </trkpt>
      <trkpt lat="27.952102" lon="-15.536571">
        <ele>1423.20</ele>
        <time>2018-07-13T20:55:39Z</time>
      </trkpt>
      <trkpt lat="27.952162" lon="-15.536569">
        <ele>1423.80</ele>
        <time>2018-07-13T20:55:45Z</time>
      </trkpt>
      <trkpt lat="27.952193" lon="-15.536579">
        <ele>1424.20</ele>
        <time>2018-07-13T20:55:48Z</time>
      </trkpt>
      <trkpt lat="27.952245" lon="-15.536571">
        <ele>1425.20</ele>
        <time>2018-07-13T20:55:52Z</time>
      </trkpt>
      <trkpt lat="27.952265" lon="-15.536562">
        <ele>1425.60</ele>
        <time>2018-07-13T20:55:54Z</time>
      </trkpt>
      <trkpt lat="27.952289" lon="-15.536549">
        <ele>1425.60</ele>
        <time>2018-07-13T20:55:56Z</time>
      </trkpt>
      <trkpt lat="27.952312" lon="-15.536529">
        <ele>1426.00</ele>
        <time>2018-07-13T20:55:58Z</time>
      </trkpt>
      <trkpt lat="27.952340" lon="-15.536510">
        <ele>1426.20</ele>
        <time>2018-07-13T20:56:00Z</time>
      </trkpt>
      <trkpt lat="27.952413" lon="-15.536450">
        <ele>1426.60</ele>
        <time>2018-07-13T20:56:07Z</time>
      </trkpt>
      <trkpt lat="27.952427" lon="-15.536423">
        <ele>1426.60</ele>
        <time>2018-07-13T20:56:09Z</time>
      </trkpt>
      <trkpt lat="27.952437" lon="-15.536403">
        <ele>1426.80</ele>
        <time>2018-07-13T20:56:11Z</time>
      </trkpt>
      <trkpt lat="27.952452" lon="-15.536389">
        <ele>1427.00</ele>
        <time>2018-07-13T20:56:13Z</time>
      </trkpt>
      <trkpt lat="27.952464" lon="-15.536367">
        <ele>1427.80</ele>
        <time>2018-07-13T20:56:15Z</time>
      </trkpt>
      <trkpt lat="27.952511" lon="-15.536324">
        <ele>1429.00</ele>
        <time>2018-07-13T20:56:22Z</time>
      </trkpt>
      <trkpt lat="27.952527" lon="-15.536300">
        <ele>1429.40</ele>
        <time>2018-07-13T20:56:24Z</time>
      </trkpt>
      <trkpt lat="27.952539" lon="-15.536282">
        <ele>1429.60</ele>
        <time>2018-07-13T20:56:26Z</time>
      </trkpt>
      <trkpt lat="27.952563" lon="-15.536259">
        <ele>1430.40</ele>
        <time>2018-07-13T20:56:29Z</time>
      </trkpt>
      <trkpt lat="27.952600" lon="-15.536258">
        <ele>1430.80</ele>
        <time>2018-07-13T20:56:32Z</time>
      </trkpt>
      <trkpt lat="27.952629" lon="-15.536251">
        <ele>1432.00</ele>
        <time>2018-07-13T20:56:35Z</time>
      </trkpt>
      <trkpt lat="27.952654" lon="-15.536251">
        <ele>1432.20</ele>
        <time>2018-07-13T20:56:37Z</time>
      </trkpt>
      <trkpt lat="27.952676" lon="-15.536247">
        <ele>1432.80</ele>
        <time>2018-07-13T20:56:39Z</time>
      </trkpt>
      <trkpt lat="27.952692" lon="-15.536237">
        <ele>1433.00</ele>
        <time>2018-07-13T20:56:41Z</time>
      </trkpt>
      <trkpt lat="27.952715" lon="-15.536229">
        <ele>1433.40</ele>
        <time>2018-07-13T20:56:43Z</time>
      </trkpt>
      <trkpt lat="27.952734" lon="-15.536230">
        <ele>1433.80</ele>
        <time>2018-07-13T20:56:45Z</time>
      </trkpt>
      <trkpt lat="27.952751" lon="-15.536223">
        <ele>1434.20</ele>
        <time>2018-07-13T20:56:47Z</time>
      </trkpt>
      <trkpt lat="27.952771" lon="-15.536220">
        <ele>1434.00</ele>
        <time>2018-07-13T20:56:50Z</time>
      </trkpt>
      <trkpt lat="27.952794" lon="-15.536219">
        <ele>1434.00</ele>
        <time>2018-07-13T20:56:52Z</time>
      </trkpt>
      <trkpt lat="27.952816" lon="-15.536222">
        <ele>1433.80</ele>
        <time>2018-07-13T20:56:54Z</time>
      </trkpt>
      <trkpt lat="27.952849" lon="-15.536224">
        <ele>1433.80</ele>
        <time>2018-07-13T20:56:56Z</time>
      </trkpt>
      <trkpt lat="27.952879" lon="-15.536218">
        <ele>1433.80</ele>
        <time>2018-07-13T20:56:58Z</time>
      </trkpt>
      <trkpt lat="27.952900" lon="-15.536194">
        <ele>1433.60</ele>
        <time>2018-07-13T20:57:00Z</time>
      </trkpt>
      <trkpt lat="27.952913" lon="-15.536173">
        <ele>1433.40</ele>
        <time>2018-07-13T20:57:02Z</time>
      </trkpt>
      <trkpt lat="27.952928" lon="-15.536156">
        <ele>1433.40</ele>
        <time>2018-07-13T20:57:04Z</time>
      </trkpt>
      <trkpt lat="27.952946" lon="-15.536136">
        <ele>1433.80</ele>
        <time>2018-07-13T20:57:06Z</time>
      </trkpt>
      <trkpt lat="27.952964" lon="-15.536126">
        <ele>1434.00</ele>
        <time>2018-07-13T20:57:08Z</time>
      </trkpt>
      <trkpt lat="27.952983" lon="-15.536126">
        <ele>1434.20</ele>
        <time>2018-07-13T20:57:11Z</time>
      </trkpt>
      <trkpt lat="27.953006" lon="-15.536128">
        <ele>1434.20</ele>
        <time>2018-07-13T20:57:14Z</time>
      </trkpt>
      <trkpt lat="27.953024" lon="-15.536115">
        <ele>1435.60</ele>
        <time>2018-07-13T20:57:17Z</time>
      </trkpt>
      <trkpt lat="27.953043" lon="-15.536101">
        <ele>1436.00</ele>
        <time>2018-07-13T20:57:19Z</time>
      </trkpt>
      <trkpt lat="27.953062" lon="-15.536094">
        <ele>1436.00</ele>
        <time>2018-07-13T20:57:21Z</time>
      </trkpt>
      <trkpt lat="27.953081" lon="-15.536091">
        <ele>1436.60</ele>
        <time>2018-07-13T20:57:23Z</time>
      </trkpt>
      <trkpt lat="27.953105" lon="-15.536087">
        <ele>1436.80</ele>
        <time>2018-07-13T20:57:25Z</time>
      </trkpt>
      <trkpt lat="27.953122" lon="-15.536068">
        <ele>1436.80</ele>
        <time>2018-07-13T20:57:28Z</time>
      </trkpt>
      <trkpt lat="27.953145" lon="-15.536052">
        <ele>1437.80</ele>
        <time>2018-07-13T20:57:30Z</time>
      </trkpt>
      <trkpt lat="27.953161" lon="-15.536039">
        <ele>1438.00</ele>
        <time>2018-07-13T20:57:33Z</time>
      </trkpt>
      <trkpt lat="27.953185" lon="-15.536025">
        <ele>1438.00</ele>
        <time>2018-07-13T20:57:35Z</time>
      </trkpt>
      <trkpt lat="27.953206" lon="-15.536018">
        <ele>1438.60</ele>
        <time>2018-07-13T20:57:37Z</time>
      </trkpt>
      <trkpt lat="27.953224" lon="-15.536006">
        <ele>1439.00</ele>
        <time>2018-07-13T20:57:40Z</time>
      </trkpt>
      <trkpt lat="27.953249" lon="-15.535997">
        <ele>1439.00</ele>
        <time>2018-07-13T20:57:43Z</time>
      </trkpt>
      <trkpt lat="27.953269" lon="-15.535984">
        <ele>1439.80</ele>
        <time>2018-07-13T20:57:45Z</time>
      </trkpt>
      <trkpt lat="27.953290" lon="-15.535966">
        <ele>1440.40</ele>
        <time>2018-07-13T20:57:47Z</time>
      </trkpt>
      <trkpt lat="27.953311" lon="-15.535953">
        <ele>1440.60</ele>
        <time>2018-07-13T20:57:49Z</time>
      </trkpt>
      <trkpt lat="27.953331" lon="-15.535930">
        <ele>1441.20</ele>
        <time>2018-07-13T20:57:51Z</time>
      </trkpt>
      <trkpt lat="27.953348" lon="-15.535911">
        <ele>1441.40</ele>
        <time>2018-07-13T20:57:53Z</time>
      </trkpt>
      <trkpt lat="27.953361" lon="-15.535892">
        <ele>1441.40</ele>
        <time>2018-07-13T20:57:55Z</time>
      </trkpt>
      <trkpt lat="27.953379" lon="-15.535879">
        <ele>1441.40</ele>
        <time>2018-07-13T20:57:57Z</time>
      </trkpt>
      <trkpt lat="27.953400" lon="-15.535868">
        <ele>1441.60</ele>
        <time>2018-07-13T20:57:59Z</time>
      </trkpt>
      <trkpt lat="27.953423" lon="-15.535853">
        <ele>1441.80</ele>
        <time>2018-07-13T20:58:01Z</time>
      </trkpt>
      <trkpt lat="27.953448" lon="-15.535839">
        <ele>1442.40</ele>
        <time>2018-07-13T20:58:03Z</time>
      </trkpt>
      <trkpt lat="27.953466" lon="-15.535830">
        <ele>1442.80</ele>
        <time>2018-07-13T20:58:05Z</time>
      </trkpt>
      <trkpt lat="27.953489" lon="-15.535820">
        <ele>1443.20</ele>
        <time>2018-07-13T20:58:08Z</time>
      </trkpt>
      <trkpt lat="27.953508" lon="-15.535812">
        <ele>1444.00</ele>
        <time>2018-07-13T20:58:11Z</time>
      </trkpt>
      <trkpt lat="27.953529" lon="-15.535796">
        <ele>1444.40</ele>
        <time>2018-07-13T20:58:13Z</time>
      </trkpt>
      <trkpt lat="27.953541" lon="-15.535780">
        <ele>1444.60</ele>
        <time>2018-07-13T20:58:15Z</time>
      </trkpt>
      <trkpt lat="27.953556" lon="-15.535757">
        <ele>1445.20</ele>
        <time>2018-07-13T20:58:17Z</time>
      </trkpt>
      <trkpt lat="27.953572" lon="-15.535739">
        <ele>1445.60</ele>
        <time>2018-07-13T20:58:19Z</time>
      </trkpt>
      <trkpt lat="27.953586" lon="-15.535723">
        <ele>1446.40</ele>
        <time>2018-07-13T20:58:21Z</time>
      </trkpt>
      <trkpt lat="27.953599" lon="-15.535697">
        <ele>1446.60</ele>
        <time>2018-07-13T20:58:24Z</time>
      </trkpt>
      <trkpt lat="27.953617" lon="-15.535684">
        <ele>1446.80</ele>
        <time>2018-07-13T20:58:27Z</time>
      </trkpt>
      <trkpt lat="27.953626" lon="-15.535663">
        <ele>1446.80</ele>
        <time>2018-07-13T20:58:29Z</time>
      </trkpt>
      <trkpt lat="27.953664" lon="-15.535626">
        <ele>1448.00</ele>
        <time>2018-07-13T20:58:34Z</time>
      </trkpt>
      <trkpt lat="27.953680" lon="-15.535617">
        <ele>1449.20</ele>
        <time>2018-07-13T20:58:36Z</time>
      </trkpt>
      <trkpt lat="27.953698" lon="-15.535594">
        <ele>1449.80</ele>
        <time>2018-07-13T20:58:39Z</time>
      </trkpt>
      <trkpt lat="27.953712" lon="-15.535580">
        <ele>1450.60</ele>
        <time>2018-07-13T20:58:41Z</time>
      </trkpt>
      <trkpt lat="27.953735" lon="-15.535566">
        <ele>1450.40</ele>
        <time>2018-07-13T20:58:43Z</time>
      </trkpt>
      <trkpt lat="27.953750" lon="-15.535549">
        <ele>1450.60</ele>
        <time>2018-07-13T20:58:45Z</time>
      </trkpt>
      <trkpt lat="27.953762" lon="-15.535521">
        <ele>1451.60</ele>
        <time>2018-07-13T20:58:47Z</time>
      </trkpt>
      <trkpt lat="27.953776" lon="-15.535502">
        <ele>1451.80</ele>
        <time>2018-07-13T20:58:49Z</time>
      </trkpt>
      <trkpt lat="27.953787" lon="-15.535485">
        <ele>1452.20</ele>
        <time>2018-07-13T20:58:51Z</time>
      </trkpt>
      <trkpt lat="27.953804" lon="-15.535466">
        <ele>1452.20</ele>
        <time>2018-07-13T20:58:53Z</time>
      </trkpt>
      <trkpt lat="27.953818" lon="-15.535443">
        <ele>1452.80</ele>
        <time>2018-07-13T20:58:56Z</time>
      </trkpt>
      <trkpt lat="27.953838" lon="-15.535419">
        <ele>1453.40</ele>
        <time>2018-07-13T20:58:58Z</time>
      </trkpt>
      <trkpt lat="27.953858" lon="-15.535404">
        <ele>1453.40</ele>
        <time>2018-07-13T20:59:00Z</time>
      </trkpt>
      <trkpt lat="27.953875" lon="-15.535392">
        <ele>1454.20</ele>
        <time>2018-07-13T20:59:02Z</time>
      </trkpt>
      <trkpt lat="27.953896" lon="-15.535378">
        <ele>1454.60</ele>
        <time>2018-07-13T20:59:04Z</time>
      </trkpt>
      <trkpt lat="27.953912" lon="-15.535364">
        <ele>1455.40</ele>
        <time>2018-07-13T20:59:06Z</time>
      </trkpt>
      <trkpt lat="27.953933" lon="-15.535346">
        <ele>1456.00</ele>
        <time>2018-07-13T20:59:09Z</time>
      </trkpt>
      <trkpt lat="27.953953" lon="-15.535330">
        <ele>1456.60</ele>
        <time>2018-07-13T20:59:12Z</time>
      </trkpt>
      <trkpt lat="27.953974" lon="-15.535317">
        <ele>1457.20</ele>
        <time>2018-07-13T20:59:15Z</time>
      </trkpt>
      <trkpt lat="27.953992" lon="-15.535308">
        <ele>1457.60</ele>
        <time>2018-07-13T20:59:17Z</time>
      </trkpt>
      <trkpt lat="27.954016" lon="-15.535294">
        <ele>1458.40</ele>
        <time>2018-07-13T20:59:20Z</time>
      </trkpt>
      <trkpt lat="27.954033" lon="-15.535300">
        <ele>1459.20</ele>
        <time>2018-07-13T20:59:23Z</time>
      </trkpt>
      <trkpt lat="27.954036" lon="-15.535323">
        <ele>1460.60</ele>
        <time>2018-07-13T20:59:27Z</time>
      </trkpt>
      <trkpt lat="27.954044" lon="-15.535344">
        <ele>1461.00</ele>
        <time>2018-07-13T20:59:29Z</time>
      </trkpt>
      <trkpt lat="27.954055" lon="-15.535367">
        <ele>1461.80</ele>
        <time>2018-07-13T20:59:32Z</time>
      </trkpt>
      <trkpt lat="27.954070" lon="-15.535380">
        <ele>1462.40</ele>
        <time>2018-07-13T20:59:34Z</time>
      </trkpt>
      <trkpt lat="27.954088" lon="-15.535388">
        <ele>1463.80</ele>
        <time>2018-07-13T20:59:38Z</time>
      </trkpt>
      <trkpt lat="27.954104" lon="-15.535378">
        <ele>1464.80</ele>
        <time>2018-07-13T20:59:41Z</time>
      </trkpt>
      <trkpt lat="27.954120" lon="-15.535368">
        <ele>1465.20</ele>
        <time>2018-07-13T20:59:43Z</time>
      </trkpt>
      <trkpt lat="27.954132" lon="-15.535348">
        <ele>1465.20</ele>
        <time>2018-07-13T20:59:46Z</time>
      </trkpt>
      <trkpt lat="27.954147" lon="-15.535333">
        <ele>1465.60</ele>
        <time>2018-07-13T20:59:48Z</time>
      </trkpt>
      <trkpt lat="27.954164" lon="-15.535321">
        <ele>1466.20</ele>
        <time>2018-07-13T20:59:51Z</time>
      </trkpt>
      <trkpt lat="27.954186" lon="-15.535317">
        <ele>1467.20</ele>
        <time>2018-07-13T20:59:54Z</time>
      </trkpt>
      <trkpt lat="27.954204" lon="-15.535303">
        <ele>1467.80</ele>
        <time>2018-07-13T20:59:57Z</time>
      </trkpt>
      <trkpt lat="27.954215" lon="-15.535283">
        <ele>1469.00</ele>
        <time>2018-07-13T20:59:59Z</time>
      </trkpt>
      <trkpt lat="27.954226" lon="-15.535263">
        <ele>1468.80</ele>
        <time>2018-07-13T21:00:01Z</time>
      </trkpt>
      <trkpt lat="27.954239" lon="-15.535239">
        <ele>1469.60</ele>
        <time>2018-07-13T21:00:03Z</time>
      </trkpt>
      <trkpt lat="27.954248" lon="-15.535214">
        <ele>1469.80</ele>
        <time>2018-07-13T21:00:05Z</time>
      </trkpt>
      <trkpt lat="27.954262" lon="-15.535194">
        <ele>1470.00</ele>
        <time>2018-07-13T21:00:07Z</time>
      </trkpt>
      <trkpt lat="27.954281" lon="-15.535180">
        <ele>1470.00</ele>
        <time>2018-07-13T21:00:09Z</time>
      </trkpt>
      <trkpt lat="27.954299" lon="-15.535167">
        <ele>1470.60</ele>
        <time>2018-07-13T21:00:11Z</time>
      </trkpt>
      <trkpt lat="27.954321" lon="-15.535152">
        <ele>1471.00</ele>
        <time>2018-07-13T21:00:14Z</time>
      </trkpt>
      <trkpt lat="27.954337" lon="-15.535141">
        <ele>1472.00</ele>
        <time>2018-07-13T21:00:16Z</time>
      </trkpt>
      <trkpt lat="27.954359" lon="-15.535124">
        <ele>1472.40</ele>
        <time>2018-07-13T21:00:19Z</time>
      </trkpt>
      <trkpt lat="27.954375" lon="-15.535110">
        <ele>1473.00</ele>
        <time>2018-07-13T21:00:21Z</time>
      </trkpt>
      <trkpt lat="27.954392" lon="-15.535102">
        <ele>1473.00</ele>
        <time>2018-07-13T21:00:23Z</time>
      </trkpt>
      <trkpt lat="27.954410" lon="-15.535095">
        <ele>1473.80</ele>
        <time>2018-07-13T21:00:25Z</time>
      </trkpt>
      <trkpt lat="27.954426" lon="-15.535084">
        <ele>1474.00</ele>
        <time>2018-07-13T21:00:27Z</time>
      </trkpt>
      <trkpt lat="27.954443" lon="-15.535075">
        <ele>1474.40</ele>
        <time>2018-07-13T21:00:29Z</time>
      </trkpt>
      <trkpt lat="27.954464" lon="-15.535053">
        <ele>1475.20</ele>
        <time>2018-07-13T21:00:32Z</time>
      </trkpt>
      <trkpt lat="27.954481" lon="-15.535041">
        <ele>1475.80</ele>
        <time>2018-07-13T21:00:34Z</time>
      </trkpt>
      <trkpt lat="27.954497" lon="-15.535028">
        <ele>1476.60</ele>
        <time>2018-07-13T21:00:36Z</time>
      </trkpt>
      <trkpt lat="27.954514" lon="-15.535017">
        <ele>1476.80</ele>
        <time>2018-07-13T21:00:38Z</time>
      </trkpt>
      <trkpt lat="27.954532" lon="-15.534997">
        <ele>1477.40</ele>
        <time>2018-07-13T21:00:41Z</time>
      </trkpt>
      <trkpt lat="27.954550" lon="-15.534982">
        <ele>1478.00</ele>
        <time>2018-07-13T21:00:43Z</time>
      </trkpt>
      <trkpt lat="27.954565" lon="-15.534966">
        <ele>1478.40</ele>
        <time>2018-07-13T21:00:45Z</time>
      </trkpt>
      <trkpt lat="27.954582" lon="-15.534949">
        <ele>1479.00</ele>
        <time>2018-07-13T21:00:47Z</time>
      </trkpt>
      <trkpt lat="27.954603" lon="-15.534931">
        <ele>1479.20</ele>
        <time>2018-07-13T21:00:49Z</time>
      </trkpt>
      <trkpt lat="27.954625" lon="-15.534915">
        <ele>1480.00</ele>
        <time>2018-07-13T21:00:51Z</time>
      </trkpt>
      <trkpt lat="27.954650" lon="-15.534901">
        <ele>1480.40</ele>
        <time>2018-07-13T21:00:53Z</time>
      </trkpt>
      <trkpt lat="27.954675" lon="-15.534892">
        <ele>1480.20</ele>
        <time>2018-07-13T21:00:55Z</time>
      </trkpt>
      <trkpt lat="27.954692" lon="-15.534875">
        <ele>1480.20</ele>
        <time>2018-07-13T21:00:57Z</time>
      </trkpt>
      <trkpt lat="27.954707" lon="-15.534860">
        <ele>1480.20</ele>
        <time>2018-07-13T21:00:59Z</time>
      </trkpt>
      <trkpt lat="27.954722" lon="-15.534841">
        <ele>1480.80</ele>
        <time>2018-07-13T21:01:01Z</time>
      </trkpt>
      <trkpt lat="27.954733" lon="-15.534820">
        <ele>1481.00</ele>
        <time>2018-07-13T21:01:03Z</time>
      </trkpt>
      <trkpt lat="27.954745" lon="-15.534801">
        <ele>1481.60</ele>
        <time>2018-07-13T21:01:05Z</time>
      </trkpt>
      <trkpt lat="27.954762" lon="-15.534777">
        <ele>1482.80</ele>
        <time>2018-07-13T21:01:08Z</time>
      </trkpt>
      <trkpt lat="27.954785" lon="-15.534766">
        <ele>1482.80</ele>
        <time>2018-07-13T21:01:10Z</time>
      </trkpt>
      <trkpt lat="27.954801" lon="-15.534745">
        <ele>1483.00</ele>
        <time>2018-07-13T21:01:12Z</time>
      </trkpt>
      <trkpt lat="27.954817" lon="-15.534726">
        <ele>1483.20</ele>
        <time>2018-07-13T21:01:14Z</time>
      </trkpt>
      <trkpt lat="27.954835" lon="-15.534716">
        <ele>1484.00</ele>
        <time>2018-07-13T21:01:16Z</time>
      </trkpt>
      <trkpt lat="27.954869" lon="-15.534699">
        <ele>1484.80</ele>
        <time>2018-07-13T21:01:20Z</time>
      </trkpt>
      <trkpt lat="27.954892" lon="-15.534677">
        <ele>1485.00</ele>
        <time>2018-07-13T21:01:22Z</time>
      </trkpt>
      <trkpt lat="27.954912" lon="-15.534656">
        <ele>1485.60</ele>
        <time>2018-07-13T21:01:24Z</time>
      </trkpt>
      <trkpt lat="27.954930" lon="-15.534640">
        <ele>1485.80</ele>
        <time>2018-07-13T21:01:26Z</time>
      </trkpt>
      <trkpt lat="27.954951" lon="-15.534622">
        <ele>1486.20</ele>
        <time>2018-07-13T21:01:28Z</time>
      </trkpt>
      <trkpt lat="27.954968" lon="-15.534607">
        <ele>1486.20</ele>
        <time>2018-07-13T21:01:30Z</time>
      </trkpt>
      <trkpt lat="27.954991" lon="-15.534580">
        <ele>1487.00</ele>
        <time>2018-07-13T21:01:33Z</time>
      </trkpt>
      <trkpt lat="27.955006" lon="-15.534566">
        <ele>1487.40</ele>
        <time>2018-07-13T21:01:35Z</time>
      </trkpt>
      <trkpt lat="27.955024" lon="-15.534557">
        <ele>1487.60</ele>
        <time>2018-07-13T21:01:37Z</time>
      </trkpt>
      <trkpt lat="27.955049" lon="-15.534550">
        <ele>1488.20</ele>
        <time>2018-07-13T21:01:40Z</time>
      </trkpt>
      <trkpt lat="27.955077" lon="-15.534536">
        <ele>1488.40</ele>
        <time>2018-07-13T21:01:42Z</time>
      </trkpt>
      <trkpt lat="27.955094" lon="-15.534525">
        <ele>1488.80</ele>
        <time>2018-07-13T21:01:44Z</time>
      </trkpt>
      <trkpt lat="27.955111" lon="-15.534516">
        <ele>1489.80</ele>
        <time>2018-07-13T21:01:46Z</time>
      </trkpt>
      <trkpt lat="27.955126" lon="-15.534497">
        <ele>1490.60</ele>
        <time>2018-07-13T21:01:49Z</time>
      </trkpt>
      <trkpt lat="27.955143" lon="-15.534482">
        <ele>1491.20</ele>
        <time>2018-07-13T21:01:51Z</time>
      </trkpt>
      <trkpt lat="27.955161" lon="-15.534471">
        <ele>1491.40</ele>
        <time>2018-07-13T21:01:53Z</time>
      </trkpt>
      <trkpt lat="27.955181" lon="-15.534460">
        <ele>1492.00</ele>
        <time>2018-07-13T21:01:56Z</time>
      </trkpt>
      <trkpt lat="27.955206" lon="-15.534445">
        <ele>1492.60</ele>
        <time>2018-07-13T21:01:59Z</time>
      </trkpt>
      <trkpt lat="27.955227" lon="-15.534439">
        <ele>1493.40</ele>
        <time>2018-07-13T21:02:01Z</time>
      </trkpt>
      <trkpt lat="27.955250" lon="-15.534432">
        <ele>1493.60</ele>
        <time>2018-07-13T21:02:03Z</time>
      </trkpt>
      <trkpt lat="27.955267" lon="-15.534422">
        <ele>1494.60</ele>
        <time>2018-07-13T21:02:05Z</time>
      </trkpt>
      <trkpt lat="27.955286" lon="-15.534409">
        <ele>1495.00</ele>
        <time>2018-07-13T21:02:07Z</time>
      </trkpt>
      <trkpt lat="27.955299" lon="-15.534392">
        <ele>1495.20</ele>
        <time>2018-07-13T21:02:09Z</time>
      </trkpt>
      <trkpt lat="27.955314" lon="-15.534375">
        <ele>1495.80</ele>
        <time>2018-07-13T21:02:11Z</time>
      </trkpt>
      <trkpt lat="27.955337" lon="-15.534363">
        <ele>1497.20</ele>
        <time>2018-07-13T21:02:14Z</time>
      </trkpt>
      <trkpt lat="27.955354" lon="-15.534353">
        <ele>1497.20</ele>
        <time>2018-07-13T21:02:16Z</time>
      </trkpt>
      <trkpt lat="27.955376" lon="-15.534345">
        <ele>1498.00</ele>
        <time>2018-07-13T21:02:19Z</time>
      </trkpt>
      <trkpt lat="27.955395" lon="-15.534343">
        <ele>1498.40</ele>
        <time>2018-07-13T21:02:22Z</time>
      </trkpt>
      <trkpt lat="27.955401" lon="-15.534310">
        <ele>1498.80</ele>
        <time>2018-07-13T21:02:25Z</time>
      </trkpt>
      <trkpt lat="27.955402" lon="-15.534289">
        <ele>1500.60</ele>
        <time>2018-07-13T21:02:30Z</time>
      </trkpt>
      <trkpt lat="27.955424" lon="-15.534268">
        <ele>1501.00</ele>
        <time>2018-07-13T21:02:33Z</time>
      </trkpt>
      <trkpt lat="27.955442" lon="-15.534250">
        <ele>1501.00</ele>
        <time>2018-07-13T21:02:35Z</time>
      </trkpt>
      <trkpt lat="27.955459" lon="-15.534229">
        <ele>1501.00</ele>
        <time>2018-07-13T21:02:37Z</time>
      </trkpt>
      <trkpt lat="27.955471" lon="-15.534207">
        <ele>1501.00</ele>
        <time>2018-07-13T21:02:39Z</time>
      </trkpt>
      <trkpt lat="27.955487" lon="-15.534188">
        <ele>1501.00</ele>
        <time>2018-07-13T21:02:41Z</time>
      </trkpt>
      <trkpt lat="27.955502" lon="-15.534173">
        <ele>1501.40</ele>
        <time>2018-07-13T21:02:43Z</time>
      </trkpt>
      <trkpt lat="27.955519" lon="-15.534156">
        <ele>1501.80</ele>
        <time>2018-07-13T21:02:45Z</time>
      </trkpt>
      <trkpt lat="27.955535" lon="-15.534140">
        <ele>1502.20</ele>
        <time>2018-07-13T21:02:47Z</time>
      </trkpt>
      <trkpt lat="27.955550" lon="-15.534119">
        <ele>1502.20</ele>
        <time>2018-07-13T21:02:49Z</time>
      </trkpt>
      <trkpt lat="27.955564" lon="-15.534100">
        <ele>1502.20</ele>
        <time>2018-07-13T21:02:51Z</time>
      </trkpt>
      <trkpt lat="27.955576" lon="-15.534083">
        <ele>1502.20</ele>
        <time>2018-07-13T21:02:53Z</time>
      </trkpt>
      <trkpt lat="27.955596" lon="-15.534066">
        <ele>1502.60</ele>
        <time>2018-07-13T21:02:55Z</time>
      </trkpt>
      <trkpt lat="27.955614" lon="-15.534043">
        <ele>1503.00</ele>
        <time>2018-07-13T21:02:57Z</time>
      </trkpt>
      <trkpt lat="27.955633" lon="-15.534026">
        <ele>1503.00</ele>
        <time>2018-07-13T21:02:59Z</time>
      </trkpt>
      <trkpt lat="27.955650" lon="-15.534011">
        <ele>1503.40</ele>
        <time>2018-07-13T21:03:01Z</time>
      </trkpt>
      <trkpt lat="27.955664" lon="-15.533992">
        <ele>1503.80</ele>
        <time>2018-07-13T21:03:03Z</time>
      </trkpt>
      <trkpt lat="27.955680" lon="-15.533974">
        <ele>1504.00</ele>
        <time>2018-07-13T21:03:05Z</time>
      </trkpt>
      <trkpt lat="27.955707" lon="-15.533961">
        <ele>1504.20</ele>
        <time>2018-07-13T21:03:07Z</time>
      </trkpt>
      <trkpt lat="27.955723" lon="-15.533944">
        <ele>1504.60</ele>
        <time>2018-07-13T21:03:09Z</time>
      </trkpt>
      <trkpt lat="27.955748" lon="-15.533924">
        <ele>1505.20</ele>
        <time>2018-07-13T21:03:11Z</time>
      </trkpt>
      <trkpt lat="27.955769" lon="-15.533893">
        <ele>1505.20</ele>
        <time>2018-07-13T21:03:13Z</time>
      </trkpt>
      <trkpt lat="27.955784" lon="-15.533866">
        <ele>1505.20</ele>
        <time>2018-07-13T21:03:15Z</time>
      </trkpt>
      <trkpt lat="27.955795" lon="-15.533848">
        <ele>1505.60</ele>
        <time>2018-07-13T21:03:17Z</time>
      </trkpt>
      <trkpt lat="27.955802" lon="-15.533826">
        <ele>1506.00</ele>
        <time>2018-07-13T21:03:19Z</time>
      </trkpt>
      <trkpt lat="27.955814" lon="-15.533795">
        <ele>1506.20</ele>
        <time>2018-07-13T21:03:22Z</time>
      </trkpt>
      <trkpt lat="27.955829" lon="-15.533766">
        <ele>1506.60</ele>
        <time>2018-07-13T21:03:24Z</time>
      </trkpt>
      <trkpt lat="27.955844" lon="-15.533745">
        <ele>1507.00</ele>
        <time>2018-07-13T21:03:26Z</time>
      </trkpt>
      <trkpt lat="27.955860" lon="-15.533733">
        <ele>1507.20</ele>
        <time>2018-07-13T21:03:28Z</time>
      </trkpt>
      <trkpt lat="27.955863" lon="-15.533704">
        <ele>1507.40</ele>
        <time>2018-07-13T21:03:30Z</time>
      </trkpt>
      <trkpt lat="27.955880" lon="-15.533676">
        <ele>1507.60</ele>
        <time>2018-07-13T21:03:32Z</time>
      </trkpt>
      <trkpt lat="27.955893" lon="-15.533648">
        <ele>1508.00</ele>
        <time>2018-07-13T21:03:34Z</time>
      </trkpt>
      <trkpt lat="27.955913" lon="-15.533629">
        <ele>1508.40</ele>
        <time>2018-07-13T21:03:36Z</time>
      </trkpt>
      <trkpt lat="27.955935" lon="-15.533607">
        <ele>1509.00</ele>
        <time>2018-07-13T21:03:38Z</time>
      </trkpt>
      <trkpt lat="27.955951" lon="-15.533582">
        <ele>1509.00</ele>
        <time>2018-07-13T21:03:40Z</time>
      </trkpt>
      <trkpt lat="27.955970" lon="-15.533557">
        <ele>1509.40</ele>
        <time>2018-07-13T21:03:42Z</time>
      </trkpt>
      <trkpt lat="27.955989" lon="-15.533535">
        <ele>1509.60</ele>
        <time>2018-07-13T21:03:44Z</time>
      </trkpt>
      <trkpt lat="27.956003" lon="-15.533518">
        <ele>1510.00</ele>
        <time>2018-07-13T21:03:46Z</time>
      </trkpt>
      <trkpt lat="27.956013" lon="-15.533500">
        <ele>1510.20</ele>
        <time>2018-07-13T21:03:48Z</time>
      </trkpt>
      <trkpt lat="27.956022" lon="-15.533482">
        <ele>1510.60</ele>
        <time>2018-07-13T21:03:50Z</time>
      </trkpt>
      <trkpt lat="27.956041" lon="-15.533463">
        <ele>1510.80</ele>
        <time>2018-07-13T21:03:52Z</time>
      </trkpt>
      <trkpt lat="27.956058" lon="-15.533438">
        <ele>1511.00</ele>
        <time>2018-07-13T21:03:54Z</time>
      </trkpt>
      <trkpt lat="27.956072" lon="-15.533421">
        <ele>1511.80</ele>
        <time>2018-07-13T21:03:56Z</time>
      </trkpt>
      <trkpt lat="27.956094" lon="-15.533412">
        <ele>1511.80</ele>
        <time>2018-07-13T21:03:58Z</time>
      </trkpt>
      <trkpt lat="27.956111" lon="-15.533394">
        <ele>1512.00</ele>
        <time>2018-07-13T21:04:00Z</time>
      </trkpt>
      <trkpt lat="27.956120" lon="-15.533369">
        <ele>1512.80</ele>
        <time>2018-07-13T21:04:06Z</time>
      </trkpt>
      <trkpt lat="27.956140" lon="-15.533345">
        <ele>1513.20</ele>
        <time>2018-07-13T21:04:09Z</time>
      </trkpt>
      <trkpt lat="27.956157" lon="-15.533329">
        <ele>1513.40</ele>
        <time>2018-07-13T21:04:11Z</time>
      </trkpt>
      <trkpt lat="27.956179" lon="-15.533313">
        <ele>1514.00</ele>
        <time>2018-07-13T21:04:14Z</time>
      </trkpt>
      <trkpt lat="27.956193" lon="-15.533293">
        <ele>1513.60</ele>
        <time>2018-07-13T21:04:16Z</time>
      </trkpt>
      <trkpt lat="27.956202" lon="-15.533274">
        <ele>1514.00</ele>
        <time>2018-07-13T21:04:18Z</time>
      </trkpt>
      <trkpt lat="27.956207" lon="-15.533242">
        <ele>1514.20</ele>
        <time>2018-07-13T21:04:21Z</time>
      </trkpt>
      <trkpt lat="27.956214" lon="-15.533219">
        <ele>1514.20</ele>
        <time>2018-07-13T21:04:23Z</time>
      </trkpt>
      <trkpt lat="27.956224" lon="-15.533200">
        <ele>1514.20</ele>
        <time>2018-07-13T21:04:25Z</time>
      </trkpt>
      <trkpt lat="27.956236" lon="-15.533176">
        <ele>1514.40</ele>
        <time>2018-07-13T21:04:27Z</time>
      </trkpt>
      <trkpt lat="27.956246" lon="-15.533152">
        <ele>1514.40</ele>
        <time>2018-07-13T21:04:29Z</time>
      </trkpt>
      <trkpt lat="27.956255" lon="-15.533130">
        <ele>1514.60</ele>
        <time>2018-07-13T21:04:31Z</time>
      </trkpt>
      <trkpt lat="27.956268" lon="-15.533106">
        <ele>1514.80</ele>
        <time>2018-07-13T21:04:33Z</time>
      </trkpt>
      <trkpt lat="27.956280" lon="-15.533083">
        <ele>1515.60</ele>
        <time>2018-07-13T21:04:35Z</time>
      </trkpt>
      <trkpt lat="27.956293" lon="-15.533062">
        <ele>1515.80</ele>
        <time>2018-07-13T21:04:37Z</time>
      </trkpt>
      <trkpt lat="27.956306" lon="-15.533038">
        <ele>1515.80</ele>
        <time>2018-07-13T21:04:39Z</time>
      </trkpt>
      <trkpt lat="27.956316" lon="-15.533014">
        <ele>1516.20</ele>
        <time>2018-07-13T21:04:41Z</time>
      </trkpt>
      <trkpt lat="27.956325" lon="-15.532986">
        <ele>1516.20</ele>
        <time>2018-07-13T21:04:43Z</time>
      </trkpt>
      <trkpt lat="27.956334" lon="-15.532963">
        <ele>1516.60</ele>
        <time>2018-07-13T21:04:45Z</time>
      </trkpt>
      <trkpt lat="27.956346" lon="-15.532941">
        <ele>1517.00</ele>
        <time>2018-07-13T21:04:47Z</time>
      </trkpt>
      <trkpt lat="27.956362" lon="-15.532919">
        <ele>1517.60</ele>
        <time>2018-07-13T21:04:49Z</time>
      </trkpt>
      <trkpt lat="27.956377" lon="-15.532899">
        <ele>1517.80</ele>
        <time>2018-07-13T21:04:51Z</time>
      </trkpt>
      <trkpt lat="27.956290" lon="-15.533349">
        <ele>1515.80</ele>
        <time>2018-06-30T09:26:42Z</time>
      </trkpt>
      <trkpt lat="27.956284" lon="-15.533378">
        <ele>1515.20</ele>
        <time>2018-06-30T09:26:44Z</time>
      </trkpt>
      <trkpt lat="27.956274" lon="-15.533401">
        <ele>1515.20</ele>
        <time>2018-06-30T09:26:45Z</time>
      </trkpt>
      <trkpt lat="27.956234" lon="-15.533499">
        <ele>1514.60</ele>
        <time>2018-06-30T09:26:48Z</time>
      </trkpt>
      <trkpt lat="27.956189" lon="-15.533606">
        <ele>1513.60</ele>
        <time>2018-06-30T09:26:51Z</time>
      </trkpt>
      <trkpt lat="27.956134" lon="-15.533727">
        <ele>1511.20</ele>
        <time>2018-06-30T09:26:55Z</time>
      </trkpt>
      <trkpt lat="27.956103" lon="-15.533777">
        <ele>1511.20</ele>
        <time>2018-06-30T09:26:57Z</time>
      </trkpt>
      <trkpt lat="27.956092" lon="-15.533808">
        <ele>1511.20</ele>
        <time>2018-06-30T09:26:58Z</time>
      </trkpt>
      <trkpt lat="27.956079" lon="-15.533833">
        <ele>1511.00</ele>
        <time>2018-06-30T09:26:59Z</time>
      </trkpt>
      <trkpt lat="27.956052" lon="-15.533941">
        <ele>1509.40</ele>
        <time>2018-06-30T09:27:03Z</time>
      </trkpt>
      <trkpt lat="27.956013" lon="-15.534057">
        <ele>1506.80</ele>
        <time>2018-06-30T09:27:08Z</time>
      </trkpt>
      <trkpt lat="27.955979" lon="-15.534178">
        <ele>1506.00</ele>
        <time>2018-06-30T09:27:12Z</time>
      </trkpt>
      <trkpt lat="27.955929" lon="-15.534290">
        <ele>1504.00</ele>
        <time>2018-06-30T09:27:16Z</time>
      </trkpt>
      <trkpt lat="27.955903" lon="-15.534415">
        <ele>1502.20</ele>
        <time>2018-06-30T09:27:20Z</time>
      </trkpt>
      <trkpt lat="27.955884" lon="-15.534546">
        <ele>1501.20</ele>
        <time>2018-06-30T09:27:24Z</time>
      </trkpt>
      <trkpt lat="27.955862" lon="-15.534667">
        <ele>1499.40</ele>
        <time>2018-06-30T09:27:28Z</time>
      </trkpt>
      <trkpt lat="27.955879" lon="-15.534793">
        <ele>1497.60</ele>
        <time>2018-06-30T09:27:32Z</time>
      </trkpt>
      <trkpt lat="27.955964" lon="-15.534726">
        <ele>1496.40</ele>
        <time>2018-06-30T09:27:36Z</time>
      </trkpt>
      <trkpt lat="27.956026" lon="-15.534614">
        <ele>1495.40</ele>
        <time>2018-06-30T09:27:40Z</time>
      </trkpt>
      <trkpt lat="27.956082" lon="-15.534514">
        <ele>1493.80</ele>
        <time>2018-06-30T09:27:44Z</time>
      </trkpt>
      <trkpt lat="27.956151" lon="-15.534418">
        <ele>1493.00</ele>
        <time>2018-06-30T09:27:48Z</time>
      </trkpt>
      <trkpt lat="27.956231" lon="-15.534340">
        <ele>1492.20</ele>
        <time>2018-06-30T09:27:52Z</time>
      </trkpt>
      <trkpt lat="27.956310" lon="-15.534259">
        <ele>1492.00</ele>
        <time>2018-06-30T09:27:56Z</time>
      </trkpt>
      <trkpt lat="27.956383" lon="-15.534186">
        <ele>1491.40</ele>
        <time>2018-06-30T09:28:00Z</time>
      </trkpt>
      <trkpt lat="27.956453" lon="-15.534101">
        <ele>1490.40</ele>
        <time>2018-06-30T09:28:04Z</time>
      </trkpt>
      <trkpt lat="27.956530" lon="-15.534012">
        <ele>1489.20</ele>
        <time>2018-06-30T09:28:08Z</time>
      </trkpt>
      <trkpt lat="27.956614" lon="-15.533937">
        <ele>1487.60</ele>
        <time>2018-06-30T09:28:12Z</time>
      </trkpt>
      <trkpt lat="27.956690" lon="-15.533833">
        <ele>1485.80</ele>
        <time>2018-06-30T09:28:16Z</time>
      </trkpt>
      <trkpt lat="27.956745" lon="-15.533730">
        <ele>1485.40</ele>
        <time>2018-06-30T09:28:20Z</time>
      </trkpt>
      <trkpt lat="27.956819" lon="-15.533629">
        <ele>1483.40</ele>
        <time>2018-06-30T09:28:24Z</time>
      </trkpt>
      <trkpt lat="27.956903" lon="-15.533592">
        <ele>1483.40</ele>
        <time>2018-06-30T09:28:28Z</time>
      </trkpt>
      <trkpt lat="27.957009" lon="-15.533588">
        <ele>1481.40</ele>
        <time>2018-06-30T09:28:33Z</time>
      </trkpt>
      <trkpt lat="27.957111" lon="-15.533580">
        <ele>1480.40</ele>
        <time>2018-06-30T09:28:37Z</time>
      </trkpt>
      <trkpt lat="27.957221" lon="-15.533574">
        <ele>1480.40</ele>
        <time>2018-06-30T09:28:41Z</time>
      </trkpt>
      <trkpt lat="27.957327" lon="-15.533573">
        <ele>1478.60</ele>
        <time>2018-06-30T09:28:45Z</time>
      </trkpt>
      <trkpt lat="27.957435" lon="-15.533568">
        <ele>1478.60</ele>
        <time>2018-06-30T09:28:49Z</time>
      </trkpt>
      <trkpt lat="27.957534" lon="-15.533560">
        <ele>1478.20</ele>
        <time>2018-06-30T09:28:54Z</time>
      </trkpt>
      <trkpt lat="27.957632" lon="-15.533590">
        <ele>1478.00</ele>
        <time>2018-06-30T09:28:59Z</time>
      </trkpt>
      <trkpt lat="27.957731" lon="-15.533606">
        <ele>1476.40</ele>
        <time>2018-06-30T09:29:03Z</time>
      </trkpt>
      <trkpt lat="27.957810" lon="-15.533620">
        <ele>1475.20</ele>
        <time>2018-06-30T09:29:06Z</time>
      </trkpt>
      <trkpt lat="27.957836" lon="-15.533623">
        <ele>1475.20</ele>
        <time>2018-06-30T09:29:07Z</time>
      </trkpt>
      <trkpt lat="27.957859" lon="-15.533632">
        <ele>1474.80</ele>
        <time>2018-06-30T09:29:08Z</time>
      </trkpt>
      <trkpt lat="27.957883" lon="-15.533640">
        <ele>1474.80</ele>
        <time>2018-06-30T09:29:09Z</time>
      </trkpt>
      <trkpt lat="27.957912" lon="-15.533653">
        <ele>1474.20</ele>
        <time>2018-06-30T09:29:10Z</time>
      </trkpt>
      <trkpt lat="27.957936" lon="-15.533669">
        <ele>1473.20</ele>
        <time>2018-06-30T09:29:11Z</time>
      </trkpt>
      <trkpt lat="27.957957" lon="-15.533690">
        <ele>1473.20</ele>
        <time>2018-06-30T09:29:12Z</time>
      </trkpt>
      <trkpt lat="27.957982" lon="-15.533710">
        <ele>1472.80</ele>
        <time>2018-06-30T09:29:13Z</time>
      </trkpt>
      <trkpt lat="27.958008" lon="-15.533721">
        <ele>1472.80</ele>
        <time>2018-06-30T09:29:14Z</time>
      </trkpt>
      <trkpt lat="27.958033" lon="-15.533727">
        <ele>1472.40</ele>
        <time>2018-06-30T09:29:15Z</time>
      </trkpt>
      <trkpt lat="27.958060" lon="-15.533735">
        <ele>1472.40</ele>
        <time>2018-06-30T09:29:16Z</time>
      </trkpt>
      <trkpt lat="27.958087" lon="-15.533740">
        <ele>1471.40</ele>
        <time>2018-06-30T09:29:17Z</time>
      </trkpt>
      <trkpt lat="27.958112" lon="-15.533744">
        <ele>1471.60</ele>
        <time>2018-06-30T09:29:18Z</time>
      </trkpt>
      <trkpt lat="27.958137" lon="-15.533750">
        <ele>1470.80</ele>
        <time>2018-06-30T09:29:19Z</time>
      </trkpt>
      <trkpt lat="27.958220" lon="-15.533790">
        <ele>1470.00</ele>
        <time>2018-06-30T09:29:23Z</time>
      </trkpt>
      <trkpt lat="27.958304" lon="-15.533835">
        <ele>1468.60</ele>
        <time>2018-06-30T09:29:26Z</time>
      </trkpt>
      <trkpt lat="27.958331" lon="-15.533851">
        <ele>1468.00</ele>
        <time>2018-06-30T09:29:27Z</time>
      </trkpt>
      <trkpt lat="27.958407" lon="-15.533896">
        <ele>1467.80</ele>
        <time>2018-06-30T09:29:30Z</time>
      </trkpt>
      <trkpt lat="27.958516" lon="-15.533922">
        <ele>1467.20</ele>
        <time>2018-06-30T09:29:35Z</time>
      </trkpt>
      <trkpt lat="27.958615" lon="-15.533970">
        <ele>1465.80</ele>
        <time>2018-06-30T09:29:39Z</time>
      </trkpt>
      <trkpt lat="27.958714" lon="-15.534006">
        <ele>1465.40</ele>
        <time>2018-06-30T09:29:43Z</time>
      </trkpt>
      <trkpt lat="27.958807" lon="-15.534079">
        <ele>1464.80</ele>
        <time>2018-06-30T09:29:47Z</time>
      </trkpt>
      <trkpt lat="27.958898" lon="-15.534160">
        <ele>1463.60</ele>
        <time>2018-06-30T09:29:51Z</time>
      </trkpt>
      <trkpt lat="27.958983" lon="-15.534235">
        <ele>1462.60</ele>
        <time>2018-06-30T09:29:55Z</time>
      </trkpt>
      <trkpt lat="27.959056" lon="-15.534329">
        <ele>1461.60</ele>
        <time>2018-06-30T09:29:59Z</time>
      </trkpt>
      <trkpt lat="27.959111" lon="-15.534411">
        <ele>1460.20</ele>
        <time>2018-06-30T09:30:02Z</time>
      </trkpt>
      <trkpt lat="27.959176" lon="-15.534491">
        <ele>1460.20</ele>
        <time>2018-06-30T09:30:06Z</time>
      </trkpt>
      <trkpt lat="27.959244" lon="-15.534582">
        <ele>1460.20</ele>
        <time>2018-06-30T09:30:10Z</time>
      </trkpt>
      <trkpt lat="27.959315" lon="-15.534679">
        <ele>1460.60</ele>
        <time>2018-06-30T09:30:14Z</time>
      </trkpt>
      <trkpt lat="27.959328" lon="-15.534704">
        <ele>1460.40</ele>
        <time>2018-06-30T09:30:15Z</time>
      </trkpt>
      <trkpt lat="27.959345" lon="-15.534725">
        <ele>1460.40</ele>
        <time>2018-06-30T09:30:16Z</time>
      </trkpt>
      <trkpt lat="27.959360" lon="-15.534749">
        <ele>1460.40</ele>
        <time>2018-06-30T09:30:17Z</time>
      </trkpt>
      <trkpt lat="27.959373" lon="-15.534768">
        <ele>1460.40</ele>
        <time>2018-06-30T09:30:18Z</time>
      </trkpt>
      <trkpt lat="27.959387" lon="-15.534786">
        <ele>1459.20</ele>
        <time>2018-06-30T09:30:19Z</time>
      </trkpt>
      <trkpt lat="27.959470" lon="-15.534824">
        <ele>1459.40</ele>
        <time>2018-06-30T09:30:28Z</time>
      </trkpt>
      <trkpt lat="27.959541" lon="-15.534749">
        <ele>1460.80</ele>
        <time>2018-06-30T09:30:36Z</time>
      </trkpt>
      <trkpt lat="27.959625" lon="-15.534801">
        <ele>1463.00</ele>
        <time>2018-06-30T09:30:45Z</time>
      </trkpt>
      <trkpt lat="27.959714" lon="-15.534851">
        <ele>1463.60</ele>
        <time>2018-06-30T09:30:54Z</time>
      </trkpt>
      <trkpt lat="27.959779" lon="-15.534809">
        <ele>1465.00</ele>
        <time>2018-06-30T09:31:03Z</time>
      </trkpt>
      <trkpt lat="27.959798" lon="-15.534798">
        <ele>1466.80</ele>
        <time>2018-06-30T09:31:08Z</time>
      </trkpt>
      <trkpt lat="27.959818" lon="-15.534802">
        <ele>1467.80</ele>
        <time>2018-06-30T09:31:12Z</time>
      </trkpt>
      <trkpt lat="27.959837" lon="-15.534803">
        <ele>1468.60</ele>
        <time>2018-06-30T09:31:15Z</time>
      </trkpt>
      <trkpt lat="27.959843" lon="-15.534784">
        <ele>1469.40</ele>
        <time>2018-06-30T09:31:20Z</time>
      </trkpt>
      <trkpt lat="27.959860" lon="-15.534768">
        <ele>1470.80</ele>
        <time>2018-06-30T09:31:28Z</time>
      </trkpt>
      <trkpt lat="27.959880" lon="-15.534765">
        <ele>1470.80</ele>
        <time>2018-06-30T09:31:30Z</time>
      </trkpt>
      <trkpt lat="27.959897" lon="-15.534773">
        <ele>1471.60</ele>
        <time>2018-06-30T09:31:32Z</time>
      </trkpt>
      <trkpt lat="27.959927" lon="-15.534787">
        <ele>1472.00</ele>
        <time>2018-06-30T09:31:36Z</time>
      </trkpt>
      <trkpt lat="27.959947" lon="-15.534790">
        <ele>1472.60</ele>
        <time>2018-06-30T09:31:39Z</time>
      </trkpt>
      <trkpt lat="27.959944" lon="-15.534810">
        <ele>1473.40</ele>
        <time>2018-06-30T09:31:49Z</time>
      </trkpt>
      <trkpt lat="27.959967" lon="-15.534825">
        <ele>1473.80</ele>
        <time>2018-06-30T09:31:58Z</time>
      </trkpt>
      <trkpt lat="27.959982" lon="-15.534838">
        <ele>1474.60</ele>
        <time>2018-06-30T09:32:05Z</time>
      </trkpt>
      <trkpt lat="27.960001" lon="-15.534837">
        <ele>1475.20</ele>
        <time>2018-06-30T09:32:14Z</time>
      </trkpt>
      <trkpt lat="27.960021" lon="-15.534839">
        <ele>1475.40</ele>
        <time>2018-06-30T09:32:17Z</time>
      </trkpt>
      <trkpt lat="27.960039" lon="-15.534855">
        <ele>1476.00</ele>
        <time>2018-06-30T09:32:20Z</time>
      </trkpt>
      <trkpt lat="27.960059" lon="-15.534860">
        <ele>1477.40</ele>
        <time>2018-06-30T09:32:24Z</time>
      </trkpt>
      <trkpt lat="27.960079" lon="-15.534871">
        <ele>1477.80</ele>
        <time>2018-06-30T09:32:27Z</time>
      </trkpt>
      <trkpt lat="27.960092" lon="-15.534892">
        <ele>1478.20</ele>
        <time>2018-06-30T09:32:30Z</time>
      </trkpt>
      <trkpt lat="27.960117" lon="-15.534890">
        <ele>1479.40</ele>
        <time>2018-06-30T09:32:34Z</time>
      </trkpt>
      <trkpt lat="27.960137" lon="-15.534886">
        <ele>1480.20</ele>
        <time>2018-06-30T09:32:38Z</time>
      </trkpt>
      <trkpt lat="27.960156" lon="-15.534894">
        <ele>1480.40</ele>
        <time>2018-06-30T09:32:41Z</time>
      </trkpt>
      <trkpt lat="27.960174" lon="-15.534912">
        <ele>1482.20</ele>
        <time>2018-06-30T09:32:45Z</time>
      </trkpt>
      <trkpt lat="27.960190" lon="-15.534924">
        <ele>1482.60</ele>
        <time>2018-06-30T09:32:48Z</time>
      </trkpt>
      <trkpt lat="27.960190" lon="-15.534947">
        <ele>1483.20</ele>
        <time>2018-06-30T09:32:51Z</time>
      </trkpt>
      <trkpt lat="27.960214" lon="-15.534958">
        <ele>1483.80</ele>
        <time>2018-06-30T09:32:54Z</time>
      </trkpt>
      <trkpt lat="27.960223" lon="-15.534977">
        <ele>1485.00</ele>
        <time>2018-06-30T09:32:57Z</time>
      </trkpt>
      <trkpt lat="27.960235" lon="-15.534994">
        <ele>1485.00</ele>
        <time>2018-06-30T09:33:00Z</time>
      </trkpt>
      <trkpt lat="27.960257" lon="-15.535017">
        <ele>1486.60</ele>
        <time>2018-06-30T09:33:05Z</time>
      </trkpt>
      <trkpt lat="27.960263" lon="-15.535042">
        <ele>1488.00</ele>
        <time>2018-06-30T09:33:09Z</time>
      </trkpt>
      <trkpt lat="27.960271" lon="-15.535062">
        <ele>1488.40</ele>
        <time>2018-06-30T09:33:14Z</time>
      </trkpt>
      <trkpt lat="27.960289" lon="-15.535083">
        <ele>1488.80</ele>
        <time>2018-06-30T09:33:18Z</time>
      </trkpt>
      <trkpt lat="27.960293" lon="-15.535110">
        <ele>1489.20</ele>
        <time>2018-06-30T09:33:20Z</time>
      </trkpt>
      <trkpt lat="27.960324" lon="-15.535182">
        <ele>1492.40</ele>
        <time>2018-06-30T09:33:31Z</time>
      </trkpt>
      <trkpt lat="27.960325" lon="-15.535205">
        <ele>1493.60</ele>
        <time>2018-06-30T09:33:36Z</time>
      </trkpt>
      <trkpt lat="27.960308" lon="-15.535253">
        <ele>1493.60</ele>
        <time>2018-06-30T09:33:41Z</time>
      </trkpt>
      <trkpt lat="27.960307" lon="-15.535279">
        <ele>1494.00</ele>
        <time>2018-06-30T09:33:43Z</time>
      </trkpt>
      <trkpt lat="27.960298" lon="-15.535303">
        <ele>1494.00</ele>
        <time>2018-06-30T09:33:45Z</time>
      </trkpt>
      <trkpt lat="27.960296" lon="-15.535332">
        <ele>1495.00</ele>
        <time>2018-06-30T09:33:48Z</time>
      </trkpt>
      <trkpt lat="27.960289" lon="-15.535352">
        <ele>1495.40</ele>
        <time>2018-06-30T09:33:50Z</time>
      </trkpt>
      <trkpt lat="27.960276" lon="-15.535374">
        <ele>1496.40</ele>
        <time>2018-06-30T09:33:53Z</time>
      </trkpt>
      <trkpt lat="27.960292" lon="-15.535399">
        <ele>1497.60</ele>
        <time>2018-06-30T09:33:59Z</time>
      </trkpt>
      <trkpt lat="27.960312" lon="-15.535406">
        <ele>1498.40</ele>
        <time>2018-06-30T09:34:02Z</time>
      </trkpt>
      <trkpt lat="27.960329" lon="-15.535424">
        <ele>1499.20</ele>
        <time>2018-06-30T09:34:07Z</time>
      </trkpt>
      <trkpt lat="27.960361" lon="-15.535469">
        <ele>1500.60</ele>
        <time>2018-06-30T09:34:13Z</time>
      </trkpt>
      <trkpt lat="27.960377" lon="-15.535485">
        <ele>1501.40</ele>
        <time>2018-06-30T09:34:16Z</time>
      </trkpt>
      <trkpt lat="27.960387" lon="-15.535506">
        <ele>1501.40</ele>
        <time>2018-06-30T09:34:20Z</time>
      </trkpt>
      <trkpt lat="27.960397" lon="-15.535523">
        <ele>1502.80</ele>
        <time>2018-06-30T09:34:25Z</time>
      </trkpt>
      <trkpt lat="27.960481" lon="-15.535544">
        <ele>1506.20</ele>
        <time>2018-06-30T09:34:46Z</time>
      </trkpt>
      <trkpt lat="27.960481" lon="-15.535575">
        <ele>1507.00</ele>
        <time>2018-06-30T09:34:50Z</time>
      </trkpt>
      <trkpt lat="27.960485" lon="-15.535600">
        <ele>1507.00</ele>
        <time>2018-06-30T09:34:52Z</time>
      </trkpt>
      <trkpt lat="27.960498" lon="-15.535627">
        <ele>1508.20</ele>
        <time>2018-06-30T09:34:57Z</time>
      </trkpt>
      <trkpt lat="27.960515" lon="-15.535642">
        <ele>1508.60</ele>
        <time>2018-06-30T09:35:00Z</time>
      </trkpt>
      <trkpt lat="27.960531" lon="-15.535659">
        <ele>1509.40</ele>
        <time>2018-06-30T09:35:03Z</time>
      </trkpt>
      <trkpt lat="27.960548" lon="-15.535673">
        <ele>1509.80</ele>
        <time>2018-06-30T09:35:06Z</time>
      </trkpt>
      <trkpt lat="27.960564" lon="-15.535689">
        <ele>1510.80</ele>
        <time>2018-06-30T09:35:09Z</time>
      </trkpt>
      <trkpt lat="27.960578" lon="-15.535705">
        <ele>1511.20</ele>
        <time>2018-06-30T09:35:11Z</time>
      </trkpt>
      <trkpt lat="27.960589" lon="-15.535727">
        <ele>1511.60</ele>
        <time>2018-06-30T09:35:13Z</time>
      </trkpt>
      <trkpt lat="27.960601" lon="-15.535745">
        <ele>1512.40</ele>
        <time>2018-06-30T09:35:15Z</time>
      </trkpt>
      <trkpt lat="27.960616" lon="-15.535760">
        <ele>1512.60</ele>
        <time>2018-06-30T09:35:17Z</time>
      </trkpt>
      <trkpt lat="27.960631" lon="-15.535774">
        <ele>1513.40</ele>
        <time>2018-06-30T09:35:19Z</time>
      </trkpt>
      <trkpt lat="27.960642" lon="-15.535792">
        <ele>1513.80</ele>
        <time>2018-06-30T09:35:21Z</time>
      </trkpt>
      <trkpt lat="27.960657" lon="-15.535808">
        <ele>1514.40</ele>
        <time>2018-06-30T09:35:23Z</time>
      </trkpt>
      <trkpt lat="27.960673" lon="-15.535824">
        <ele>1515.00</ele>
        <time>2018-06-30T09:35:25Z</time>
      </trkpt>
      <trkpt lat="27.960691" lon="-15.535841">
        <ele>1515.60</ele>
        <time>2018-06-30T09:35:27Z</time>
      </trkpt>
      <trkpt lat="27.960706" lon="-15.535861">
        <ele>1516.60</ele>
        <time>2018-06-30T09:35:30Z</time>
      </trkpt>
      <trkpt lat="27.960718" lon="-15.535886">
        <ele>1516.80</ele>
        <time>2018-06-30T09:35:33Z</time>
      </trkpt>
      <trkpt lat="27.960725" lon="-15.535905">
        <ele>1517.20</ele>
        <time>2018-06-30T09:35:35Z</time>
      </trkpt>
      <trkpt lat="27.960743" lon="-15.535911">
        <ele>1518.80</ele>
        <time>2018-06-30T09:35:40Z</time>
      </trkpt>
      <trkpt lat="27.960755" lon="-15.535893">
        <ele>1519.80</ele>
        <time>2018-06-30T09:35:45Z</time>
      </trkpt>
      <trkpt lat="27.960760" lon="-15.535864">
        <ele>1520.60</ele>
        <time>2018-06-30T09:35:48Z</time>
      </trkpt>
      <trkpt lat="27.960768" lon="-15.535836">
        <ele>1520.60</ele>
        <time>2018-06-30T09:35:50Z</time>
      </trkpt>
      <trkpt lat="27.960770" lon="-15.535814">
        <ele>1520.60</ele>
        <time>2018-06-30T09:35:52Z</time>
      </trkpt>
      <trkpt lat="27.960776" lon="-15.535789">
        <ele>1521.40</ele>
        <time>2018-06-30T09:35:54Z</time>
      </trkpt>
      <trkpt lat="27.960789" lon="-15.535770">
        <ele>1522.40</ele>
        <time>2018-06-30T09:35:57Z</time>
      </trkpt>
      <trkpt lat="27.960802" lon="-15.535752">
        <ele>1522.60</ele>
        <time>2018-06-30T09:35:59Z</time>
      </trkpt>
      <trkpt lat="27.960809" lon="-15.535728">
        <ele>1522.60</ele>
        <time>2018-06-30T09:36:02Z</time>
      </trkpt>
      <trkpt lat="27.960810" lon="-15.535702">
        <ele>1523.60</ele>
        <time>2018-06-30T09:36:05Z</time>
      </trkpt>
      <trkpt lat="27.960815" lon="-15.535679">
        <ele>1523.60</ele>
        <time>2018-06-30T09:36:07Z</time>
      </trkpt>
      <trkpt lat="27.960825" lon="-15.535657">
        <ele>1524.00</ele>
        <time>2018-06-30T09:36:09Z</time>
      </trkpt>
      <trkpt lat="27.960827" lon="-15.535628">
        <ele>1524.20</ele>
        <time>2018-06-30T09:36:11Z</time>
      </trkpt>
      <trkpt lat="27.960840" lon="-15.535738">
        <ele>1538.20</ele>
        <time>2018-07-13T16:47:14Z</time>
      </trkpt>
      <trkpt lat="27.960843" lon="-15.535774">
        <ele>1538.20</ele>
        <time>2018-07-13T16:47:16Z</time>
      </trkpt>
      <trkpt lat="27.960848" lon="-15.535803">
        <ele>1538.20</ele>
        <time>2018-07-13T16:47:18Z</time>
      </trkpt>
      <trkpt lat="27.960855" lon="-15.535835">
        <ele>1538.20</ele>
        <time>2018-07-13T16:47:20Z</time>
      </trkpt>
      <trkpt lat="27.960858" lon="-15.535857">
        <ele>1538.60</ele>
        <time>2018-07-13T16:47:22Z</time>
      </trkpt>
      <trkpt lat="27.960862" lon="-15.535889">
        <ele>1538.60</ele>
        <time>2018-07-13T16:47:25Z</time>
      </trkpt>
      <trkpt lat="27.960870" lon="-15.535920">
        <ele>1538.60</ele>
        <time>2018-07-13T16:47:27Z</time>
      </trkpt>
      <trkpt lat="27.960881" lon="-15.535953">
        <ele>1538.80</ele>
        <time>2018-07-13T16:47:29Z</time>
      </trkpt>
      <trkpt lat="27.960883" lon="-15.535989">
        <ele>1539.20</ele>
        <time>2018-07-13T16:47:31Z</time>
      </trkpt>
      <trkpt lat="27.960884" lon="-15.536023">
        <ele>1539.20</ele>
        <time>2018-07-13T16:47:33Z</time>
      </trkpt>
      <trkpt lat="27.960883" lon="-15.536050">
        <ele>1539.00</ele>
        <time>2018-07-13T16:47:35Z</time>
      </trkpt>
      <trkpt lat="27.960883" lon="-15.536081">
        <ele>1538.80</ele>
        <time>2018-07-13T16:47:37Z</time>
      </trkpt>
      <trkpt lat="27.960891" lon="-15.536123">
        <ele>1539.20</ele>
        <time>2018-07-13T16:47:40Z</time>
      </trkpt>
      <trkpt lat="27.960895" lon="-15.536137">
        <ele>1539.60</ele>
        <time>2018-07-13T16:47:41Z</time>
      </trkpt>
      <trkpt lat="27.960904" lon="-15.536167">
        <ele>1539.80</ele>
        <time>2018-07-13T16:47:43Z</time>
      </trkpt>
      <trkpt lat="27.960911" lon="-15.536197">
        <ele>1539.80</ele>
        <time>2018-07-13T16:47:45Z</time>
      </trkpt>
      <trkpt lat="27.960919" lon="-15.536224">
        <ele>1540.00</ele>
        <time>2018-07-13T16:47:47Z</time>
      </trkpt>
      <trkpt lat="27.960922" lon="-15.536251">
        <ele>1540.00</ele>
        <time>2018-07-13T16:47:49Z</time>
      </trkpt>
      <trkpt lat="27.960926" lon="-15.536276">
        <ele>1540.20</ele>
        <time>2018-07-13T16:47:51Z</time>
      </trkpt>
      <trkpt lat="27.960935" lon="-15.536307">
        <ele>1540.60</ele>
        <time>2018-07-13T16:47:53Z</time>
      </trkpt>
      <trkpt lat="27.960936" lon="-15.536329">
        <ele>1540.80</ele>
        <time>2018-07-13T16:47:55Z</time>
      </trkpt>
      <trkpt lat="27.960931" lon="-15.536352">
        <ele>1540.80</ele>
        <time>2018-07-13T16:47:57Z</time>
      </trkpt>
      <trkpt lat="27.960930" lon="-15.536380">
        <ele>1541.00</ele>
        <time>2018-07-13T16:47:59Z</time>
      </trkpt>
      <trkpt lat="27.960930" lon="-15.536409">
        <ele>1541.56</ele>
        <time>2018-07-13T16:48:01Z</time>
      </trkpt>
      <trkpt lat="27.960935" lon="-15.536452">
        <ele>1542.00</ele>
        <time>2018-07-13T16:48:04Z</time>
      </trkpt>
      <trkpt lat="27.960932" lon="-15.536464">
        <ele>1542.00</ele>
        <time>2018-07-13T16:48:05Z</time>
      </trkpt>
      <trkpt lat="27.960938" lon="-15.536488">
        <ele>1542.00</ele>
        <time>2018-07-13T16:48:07Z</time>
      </trkpt>
      <trkpt lat="27.960942" lon="-15.536512">
        <ele>1542.20</ele>
        <time>2018-07-13T16:48:09Z</time>
      </trkpt>
      <trkpt lat="27.960942" lon="-15.536536">
        <ele>1542.40</ele>
        <time>2018-07-13T16:48:11Z</time>
      </trkpt>
      <trkpt lat="27.960944" lon="-15.536559">
        <ele>1542.60</ele>
        <time>2018-07-13T16:48:13Z</time>
      </trkpt>
      <trkpt lat="27.960946" lon="-15.536594">
        <ele>1543.20</ele>
        <time>2018-07-13T16:48:15Z</time>
      </trkpt>
      <trkpt lat="27.960943" lon="-15.536615">
        <ele>1543.40</ele>
        <time>2018-07-13T16:48:16Z</time>
      </trkpt>
      <trkpt lat="27.960942" lon="-15.536647">
        <ele>1543.80</ele>
        <time>2018-07-13T16:48:18Z</time>
      </trkpt>
      <trkpt lat="27.960942" lon="-15.536679">
        <ele>1544.00</ele>
        <time>2018-07-13T16:48:20Z</time>
      </trkpt>
      <trkpt lat="27.960944" lon="-15.536703">
        <ele>1544.20</ele>
        <time>2018-07-13T16:48:22Z</time>
      </trkpt>
      <trkpt lat="27.960955" lon="-15.536728">
        <ele>1544.40</ele>
        <time>2018-07-13T16:48:25Z</time>
      </trkpt>
      <trkpt lat="27.960964" lon="-15.536750">
        <ele>1545.20</ele>
        <time>2018-07-13T16:48:28Z</time>
      </trkpt>
      <trkpt lat="27.960963" lon="-15.536786">
        <ele>1546.00</ele>
        <time>2018-07-13T16:48:31Z</time>
      </trkpt>
      <trkpt lat="27.960956" lon="-15.536816">
        <ele>1546.20</ele>
        <time>2018-07-13T16:48:33Z</time>
      </trkpt>
      <trkpt lat="27.960956" lon="-15.536847">
        <ele>1546.80</ele>
        <time>2018-07-13T16:48:35Z</time>
      </trkpt>
      <trkpt lat="27.960954" lon="-15.536876">
        <ele>1546.80</ele>
        <time>2018-07-13T16:48:37Z</time>
      </trkpt>
      <trkpt lat="27.960957" lon="-15.536897">
        <ele>1547.20</ele>
        <time>2018-07-13T16:48:39Z</time>
      </trkpt>
      <trkpt lat="27.960961" lon="-15.536920">
        <ele>1547.20</ele>
        <time>2018-07-13T16:48:41Z</time>
      </trkpt>
      <trkpt lat="27.960973" lon="-15.536950">
        <ele>1547.80</ele>
        <time>2018-07-13T16:48:44Z</time>
      </trkpt>
      <trkpt lat="27.960977" lon="-15.536977">
        <ele>1548.40</ele>
        <time>2018-07-13T16:48:46Z</time>
      </trkpt>
      <trkpt lat="27.960991" lon="-15.537003">
        <ele>1548.80</ele>
        <time>2018-07-13T16:48:48Z</time>
      </trkpt>
      <trkpt lat="27.961002" lon="-15.537030">
        <ele>1549.00</ele>
        <time>2018-07-13T16:48:50Z</time>
      </trkpt>
      <trkpt lat="27.961007" lon="-15.537052">
        <ele>1549.40</ele>
        <time>2018-07-13T16:48:52Z</time>
      </trkpt>
      <trkpt lat="27.961022" lon="-15.537082">
        <ele>1549.80</ele>
        <time>2018-07-13T16:48:55Z</time>
      </trkpt>
      <trkpt lat="27.961029" lon="-15.537091">
        <ele>1550.00</ele>
        <time>2018-07-13T16:48:56Z</time>
      </trkpt>
      <trkpt lat="27.961043" lon="-15.537121">
        <ele>1550.60</ele>
        <time>2018-07-13T16:48:58Z</time>
      </trkpt>
      <trkpt lat="27.961060" lon="-15.537140">
        <ele>1550.80</ele>
        <time>2018-07-13T16:49:00Z</time>
      </trkpt>
      <trkpt lat="27.961073" lon="-15.537158">
        <ele>1551.20</ele>
        <time>2018-07-13T16:49:02Z</time>
      </trkpt>
      <trkpt lat="27.961090" lon="-15.537170">
        <ele>1552.00</ele>
        <time>2018-07-13T16:49:05Z</time>
      </trkpt>
      <trkpt lat="27.961099" lon="-15.537192">
        <ele>1552.40</ele>
        <time>2018-07-13T16:49:07Z</time>
      </trkpt>
      <trkpt lat="27.961113" lon="-15.537220">
        <ele>1552.40</ele>
        <time>2018-07-13T16:49:09Z</time>
      </trkpt>
      <trkpt lat="27.961130" lon="-15.537237">
        <ele>1552.80</ele>
        <time>2018-07-13T16:49:11Z</time>
      </trkpt>
      <trkpt lat="27.961146" lon="-15.537254">
        <ele>1553.00</ele>
        <time>2018-07-13T16:49:13Z</time>
      </trkpt>
      <trkpt lat="27.961164" lon="-15.537269">
        <ele>1553.60</ele>
        <time>2018-07-13T16:49:15Z</time>
      </trkpt>
      <trkpt lat="27.961178" lon="-15.537292">
        <ele>1554.40</ele>
        <time>2018-07-13T16:49:17Z</time>
      </trkpt>
      <trkpt lat="27.961190" lon="-15.537315">
        <ele>1554.40</ele>
        <time>2018-07-13T16:49:19Z</time>
      </trkpt>
      <trkpt lat="27.961209" lon="-15.537335">
        <ele>1554.60</ele>
        <time>2018-07-13T16:49:21Z</time>
      </trkpt>
      <trkpt lat="27.961227" lon="-15.537355">
        <ele>1554.60</ele>
        <time>2018-07-13T16:49:23Z</time>
      </trkpt>
      <trkpt lat="27.961248" lon="-15.537376">
        <ele>1554.80</ele>
        <time>2018-07-13T16:49:25Z</time>
      </trkpt>
      <trkpt lat="27.961264" lon="-15.537399">
        <ele>1555.40</ele>
        <time>2018-07-13T16:49:27Z</time>
      </trkpt>
      <trkpt lat="27.961283" lon="-15.537411">
        <ele>1555.60</ele>
        <time>2018-07-13T16:49:29Z</time>
      </trkpt>
      <trkpt lat="27.961300" lon="-15.537426">
        <ele>1556.00</ele>
        <time>2018-07-13T16:49:31Z</time>
      </trkpt>
      <trkpt lat="27.961339" lon="-15.537481">
        <ele>1557.40</ele>
        <time>2018-07-13T16:49:36Z</time>
      </trkpt>
      <trkpt lat="27.961350" lon="-15.537521">
        <ele>1557.80</ele>
        <time>2018-07-13T16:49:40Z</time>
      </trkpt>
      <trkpt lat="27.961358" lon="-15.537540">
        <ele>1557.80</ele>
        <time>2018-07-13T16:49:42Z</time>
      </trkpt>
      <trkpt lat="27.961364" lon="-15.537560">
        <ele>1557.80</ele>
        <time>2018-07-13T16:49:44Z</time>
      </trkpt>
      <trkpt lat="27.961378" lon="-15.537588">
        <ele>1560.00</ele>
        <time>2018-07-13T16:49:47Z</time>
      </trkpt>
      <trkpt lat="27.961388" lon="-15.537595">
        <ele>1560.00</ele>
        <time>2018-07-13T16:49:48Z</time>
      </trkpt>
      <trkpt lat="27.961409" lon="-15.537610">
        <ele>1560.00</ele>
        <time>2018-07-13T16:49:50Z</time>
      </trkpt>
      <trkpt lat="27.961430" lon="-15.537625">
        <ele>1560.20</ele>
        <time>2018-07-13T16:49:52Z</time>
      </trkpt>
      <trkpt lat="27.961446" lon="-15.537649">
        <ele>1561.00</ele>
        <time>2018-07-13T16:49:54Z</time>
      </trkpt>
      <trkpt lat="27.961468" lon="-15.537673">
        <ele>1561.40</ele>
        <time>2018-07-13T16:49:56Z</time>
      </trkpt>
      <trkpt lat="27.961481" lon="-15.537694">
        <ele>1561.60</ele>
        <time>2018-07-13T16:49:58Z</time>
      </trkpt>
      <trkpt lat="27.961501" lon="-15.537713">
        <ele>1562.20</ele>
        <time>2018-07-13T16:50:00Z</time>
      </trkpt>
      <trkpt lat="27.961520" lon="-15.537728">
        <ele>1562.00</ele>
        <time>2018-07-13T16:50:02Z</time>
      </trkpt>
      <trkpt lat="27.961540" lon="-15.537750">
        <ele>1561.80</ele>
        <time>2018-07-13T16:50:04Z</time>
      </trkpt>
      <trkpt lat="27.961557" lon="-15.537770">
        <ele>1562.00</ele>
        <time>2018-07-13T16:50:06Z</time>
      </trkpt>
      <trkpt lat="27.961570" lon="-15.537789">
        <ele>1562.00</ele>
        <time>2018-07-13T16:50:08Z</time>
      </trkpt>
      <trkpt lat="27.961590" lon="-15.537808">
        <ele>1562.40</ele>
        <time>2018-07-13T16:50:10Z</time>
      </trkpt>
      <trkpt lat="27.961609" lon="-15.537821">
        <ele>1563.20</ele>
        <time>2018-07-13T16:50:12Z</time>
      </trkpt>
      <trkpt lat="27.961631" lon="-15.537827">
        <ele>1563.80</ele>
        <time>2018-07-13T16:50:15Z</time>
      </trkpt>
      <trkpt lat="27.961649" lon="-15.537833">
        <ele>1564.20</ele>
        <time>2018-07-13T16:50:17Z</time>
      </trkpt>
      <trkpt lat="27.961670" lon="-15.537839">
        <ele>1564.20</ele>
        <time>2018-07-13T16:50:19Z</time>
      </trkpt>
      <trkpt lat="27.961694" lon="-15.537844">
        <ele>1564.40</ele>
        <time>2018-07-13T16:50:21Z</time>
      </trkpt>
      <trkpt lat="27.961720" lon="-15.537851">
        <ele>1564.60</ele>
        <time>2018-07-13T16:50:23Z</time>
      </trkpt>
      <trkpt lat="27.961740" lon="-15.537868">
        <ele>1564.60</ele>
        <time>2018-07-13T16:50:25Z</time>
      </trkpt>
      <trkpt lat="27.961735" lon="-15.537891">
        <ele>1565.20</ele>
        <time>2018-07-13T16:50:31Z</time>
      </trkpt>
      <trkpt lat="27.961726" lon="-15.537915">
        <ele>1565.20</ele>
        <time>2018-07-13T16:50:34Z</time>
      </trkpt>
      <trkpt lat="27.961722" lon="-15.537936">
        <ele>1565.80</ele>
        <time>2018-07-13T16:50:37Z</time>
      </trkpt>
      <trkpt lat="27.961701" lon="-15.537928">
        <ele>1566.00</ele>
        <time>2018-07-13T16:50:43Z</time>
      </trkpt>
      <trkpt lat="27.961680" lon="-15.537924">
        <ele>1567.20</ele>
        <time>2018-07-13T16:50:46Z</time>
      </trkpt>
      <trkpt lat="27.961667" lon="-15.537941">
        <ele>1568.00</ele>
        <time>2018-07-13T16:50:49Z</time>
      </trkpt>
      <trkpt lat="27.961672" lon="-15.537965">
        <ele>1568.60</ele>
        <time>2018-07-13T16:50:52Z</time>
      </trkpt>
      <trkpt lat="27.961688" lon="-15.537976">
        <ele>1568.80</ele>
        <time>2018-07-13T16:50:54Z</time>
      </trkpt>
      <trkpt lat="27.961707" lon="-15.537986">
        <ele>1568.80</ele>
        <time>2018-07-13T16:50:56Z</time>
      </trkpt>
      <trkpt lat="27.961732" lon="-15.537996">
        <ele>1570.00</ele>
        <time>2018-07-13T16:50:58Z</time>
      </trkpt>
      <trkpt lat="27.961760" lon="-15.538001">
        <ele>1570.20</ele>
        <time>2018-07-13T16:51:00Z</time>
      </trkpt>
      <trkpt lat="27.961786" lon="-15.538005">
        <ele>1570.60</ele>
        <time>2018-07-13T16:51:02Z</time>
      </trkpt>
      <trkpt lat="27.961807" lon="-15.538005">
        <ele>1571.00</ele>
        <time>2018-07-13T16:51:04Z</time>
      </trkpt>
      <trkpt lat="27.961878" lon="-15.538081">
        <ele>1572.60</ele>
        <time>2018-07-13T16:51:12Z</time>
      </trkpt>
      <trkpt lat="27.961896" lon="-15.538103">
        <ele>1573.20</ele>
        <time>2018-07-13T16:51:15Z</time>
      </trkpt>
      <trkpt lat="27.961911" lon="-15.538123">
        <ele>1573.60</ele>
        <time>2018-07-13T16:51:17Z</time>
      </trkpt>
      <trkpt lat="27.961926" lon="-15.538135">
        <ele>1574.00</ele>
        <time>2018-07-13T16:51:19Z</time>
      </trkpt>
      <trkpt lat="27.961965" lon="-15.538133">
        <ele>1575.00</ele>
        <time>2018-07-13T16:51:24Z</time>
      </trkpt>
      <trkpt lat="27.962050" lon="-15.538182">
        <ele>1578.00</ele>
        <time>2018-07-13T16:51:36Z</time>
      </trkpt>
      <trkpt lat="27.962119" lon="-15.538249">
        <ele>1579.20</ele>
        <time>2018-07-13T16:51:44Z</time>
      </trkpt>
      <trkpt lat="27.962201" lon="-15.538305">
        <ele>1581.40</ele>
        <time>2018-07-13T16:51:53Z</time>
      </trkpt>
      <trkpt lat="27.962244" lon="-15.538340">
        <ele>1582.40</ele>
        <time>2018-07-13T16:51:58Z</time>
      </trkpt>
      <trkpt lat="27.962330" lon="-15.538398">
        <ele>1583.80</ele>
        <time>2018-07-13T16:52:14Z</time>
      </trkpt>
      <trkpt lat="27.962345" lon="-15.538433">
        <ele>1585.00</ele>
        <time>2018-07-13T16:52:19Z</time>
      </trkpt>
      <trkpt lat="27.962342" lon="-15.538458">
        <ele>1585.40</ele>
        <time>2018-07-13T16:52:22Z</time>
      </trkpt>
      <trkpt lat="27.962363" lon="-15.538471">
        <ele>1585.60</ele>
        <time>2018-07-13T16:52:25Z</time>
      </trkpt>
      <trkpt lat="27.962419" lon="-15.538550">
        <ele>1588.60</ele>
        <time>2018-07-13T16:52:36Z</time>
      </trkpt>
      <trkpt lat="27.962435" lon="-15.538570">
        <ele>1589.00</ele>
        <time>2018-07-13T16:52:38Z</time>
      </trkpt>
      <trkpt lat="27.962459" lon="-15.538615">
        <ele>1589.20</ele>
        <time>2018-07-13T16:52:41Z</time>
      </trkpt>
      <trkpt lat="27.962502" lon="-15.538627">
        <ele>1589.60</ele>
        <time>2018-07-13T16:52:47Z</time>
      </trkpt>
      <trkpt lat="27.962527" lon="-15.538629">
        <ele>1589.80</ele>
        <time>2018-07-13T16:52:49Z</time>
      </trkpt>
      <trkpt lat="27.962620" lon="-15.538644">
        <ele>1591.20</ele>
        <time>2018-07-13T16:52:57Z</time>
      </trkpt>
      <trkpt lat="27.962679" lon="-15.538622">
        <ele>1592.00</ele>
        <time>2018-07-13T16:53:01Z</time>
      </trkpt>
      <trkpt lat="27.962706" lon="-15.538602">
        <ele>1593.20</ele>
        <time>2018-07-13T16:53:03Z</time>
      </trkpt>
      <trkpt lat="27.962722" lon="-15.538587">
        <ele>1593.40</ele>
        <time>2018-07-13T16:53:05Z</time>
      </trkpt>
      <trkpt lat="27.962741" lon="-15.538579">
        <ele>1594.20</ele>
        <time>2018-07-13T16:53:07Z</time>
      </trkpt>
      <trkpt lat="27.962772" lon="-15.538548">
        <ele>1595.00</ele>
        <time>2018-07-13T16:53:10Z</time>
      </trkpt>
      <trkpt lat="27.962779" lon="-15.538538">
        <ele>1595.20</ele>
        <time>2018-07-13T16:53:11Z</time>
      </trkpt>
      <trkpt lat="27.962800" lon="-15.538524">
        <ele>1595.80</ele>
        <time>2018-07-13T16:53:13Z</time>
      </trkpt>
      <trkpt lat="27.962819" lon="-15.538502">
        <ele>1596.20</ele>
        <time>2018-07-13T16:53:15Z</time>
      </trkpt>
      <trkpt lat="27.962838" lon="-15.538489">
        <ele>1597.20</ele>
        <time>2018-07-13T16:53:17Z</time>
      </trkpt>
      <trkpt lat="27.962860" lon="-15.538471">
        <ele>1597.60</ele>
        <time>2018-07-13T16:53:19Z</time>
      </trkpt>
      <trkpt lat="27.962879" lon="-15.538449">
        <ele>1597.60</ele>
        <time>2018-07-13T16:53:21Z</time>
      </trkpt>
      <trkpt lat="27.962896" lon="-15.538431">
        <ele>1597.60</ele>
        <time>2018-07-13T16:53:23Z</time>
      </trkpt>
      <trkpt lat="27.962914" lon="-15.538421">
        <ele>1597.80</ele>
        <time>2018-07-13T16:53:26Z</time>
      </trkpt>
      <trkpt lat="27.962927" lon="-15.538403">
        <ele>1597.80</ele>
        <time>2018-07-13T16:53:28Z</time>
      </trkpt>
      <trkpt lat="27.962937" lon="-15.538380">
        <ele>1598.00</ele>
        <time>2018-07-13T16:53:31Z</time>
      </trkpt>
      <trkpt lat="27.962955" lon="-15.538368">
        <ele>1600.00</ele>
        <time>2018-07-13T16:53:33Z</time>
      </trkpt>
      <trkpt lat="27.962966" lon="-15.538341">
        <ele>1600.00</ele>
        <time>2018-07-13T16:53:35Z</time>
      </trkpt>
      <trkpt lat="27.962978" lon="-15.538326">
        <ele>1600.40</ele>
        <time>2018-07-13T16:53:37Z</time>
      </trkpt>
      <trkpt lat="27.962994" lon="-15.538308">
        <ele>1601.00</ele>
        <time>2018-07-13T16:53:40Z</time>
      </trkpt>
      <trkpt lat="27.963012" lon="-15.538294">
        <ele>1602.00</ele>
        <time>2018-07-13T16:53:44Z</time>
      </trkpt>
      <trkpt lat="27.963031" lon="-15.538291">
        <ele>1603.00</ele>
        <time>2018-07-13T16:53:48Z</time>
      </trkpt>
      <trkpt lat="27.963050" lon="-15.538295">
        <ele>1604.00</ele>
        <time>2018-07-13T16:53:52Z</time>
      </trkpt>
      <trkpt lat="27.963073" lon="-15.538303">
        <ele>1605.60</ele>
        <time>2018-07-13T16:53:55Z</time>
      </trkpt>
      <trkpt lat="27.963092" lon="-15.538310">
        <ele>1605.60</ele>
        <time>2018-07-13T16:53:57Z</time>
      </trkpt>
      <trkpt lat="27.963112" lon="-15.538315">
        <ele>1606.20</ele>
        <time>2018-07-13T16:53:59Z</time>
      </trkpt>
      <trkpt lat="27.963131" lon="-15.538315">
        <ele>1606.80</ele>
        <time>2018-07-13T16:54:01Z</time>
      </trkpt>
      <trkpt lat="27.963156" lon="-15.538317">
        <ele>1607.60</ele>
        <time>2018-07-13T16:54:04Z</time>
      </trkpt>
      <trkpt lat="27.963177" lon="-15.538321">
        <ele>1607.80</ele>
        <time>2018-07-13T16:54:07Z</time>
      </trkpt>
      <trkpt lat="27.963196" lon="-15.538331">
        <ele>1609.20</ele>
        <time>2018-07-13T16:54:10Z</time>
      </trkpt>
      <trkpt lat="27.963217" lon="-15.538342">
        <ele>1609.60</ele>
        <time>2018-07-13T16:54:14Z</time>
      </trkpt>
      <trkpt lat="27.963227" lon="-15.538359">
        <ele>1610.00</ele>
        <time>2018-07-13T16:54:17Z</time>
      </trkpt>
      <trkpt lat="27.963233" lon="-15.538379">
        <ele>1611.00</ele>
        <time>2018-07-13T16:54:20Z</time>
      </trkpt>
      <trkpt lat="27.963250" lon="-15.538395">
        <ele>1612.20</ele>
        <time>2018-07-13T16:54:28Z</time>
      </trkpt>
      <trkpt lat="27.963265" lon="-15.538414">
        <ele>1612.20</ele>
        <time>2018-07-13T16:54:32Z</time>
      </trkpt>
      <trkpt lat="27.963274" lon="-15.538431">
        <ele>1612.40</ele>
        <time>2018-07-13T16:54:35Z</time>
      </trkpt>
      <trkpt lat="27.963286" lon="-15.538460">
        <ele>1613.20</ele>
        <time>2018-07-13T16:54:38Z</time>
      </trkpt>
      <trkpt lat="27.963291" lon="-15.538482">
        <ele>1613.80</ele>
        <time>2018-07-13T16:54:41Z</time>
      </trkpt>
      <trkpt lat="27.963290" lon="-15.538508">
        <ele>1614.40</ele>
        <time>2018-07-13T16:54:43Z</time>
      </trkpt>
      <trkpt lat="27.963300" lon="-15.538532">
        <ele>1614.80</ele>
        <time>2018-07-13T16:54:46Z</time>
      </trkpt>
      <trkpt lat="27.963336" lon="-15.538568">
        <ele>1616.80</ele>
        <time>2018-07-13T16:54:52Z</time>
      </trkpt>
      <trkpt lat="27.963342" lon="-15.538582">
        <ele>1617.40</ele>
        <time>2018-07-13T16:54:54Z</time>
      </trkpt>
      <trkpt lat="27.963355" lon="-15.538608">
        <ele>1618.60</ele>
        <time>2018-07-13T16:54:58Z</time>
      </trkpt>
      <trkpt lat="27.963428" lon="-15.538668">
        <ele>1620.20</ele>
        <time>2018-07-13T16:55:07Z</time>
      </trkpt>
      <trkpt lat="27.963444" lon="-15.538692">
        <ele>1620.40</ele>
        <time>2018-07-13T16:55:09Z</time>
      </trkpt>
      <trkpt lat="27.963473" lon="-15.538708">
        <ele>1621.20</ele>
        <time>2018-07-13T16:55:13Z</time>
      </trkpt>
      <trkpt lat="27.963489" lon="-15.538721">
        <ele>1622.40</ele>
        <time>2018-07-13T16:55:15Z</time>
      </trkpt>
      <trkpt lat="27.963503" lon="-15.538738">
        <ele>1622.60</ele>
        <time>2018-07-13T16:55:17Z</time>
      </trkpt>
      <trkpt lat="27.963515" lon="-15.538758">
        <ele>1622.60</ele>
        <time>2018-07-13T16:55:19Z</time>
      </trkpt>
      <trkpt lat="27.963530" lon="-15.538774">
        <ele>1622.80</ele>
        <time>2018-07-13T16:55:21Z</time>
      </trkpt>
      <trkpt lat="27.963546" lon="-15.538785">
        <ele>1623.20</ele>
        <time>2018-07-13T16:55:23Z</time>
      </trkpt>
      <trkpt lat="27.963563" lon="-15.538796">
        <ele>1624.00</ele>
        <time>2018-07-13T16:55:25Z</time>
      </trkpt>
      <trkpt lat="27.963589" lon="-15.538803">
        <ele>1624.40</ele>
        <time>2018-07-13T16:55:27Z</time>
      </trkpt>
      <trkpt lat="27.963611" lon="-15.538819">
        <ele>1624.60</ele>
        <time>2018-07-13T16:55:30Z</time>
      </trkpt>
      <trkpt lat="27.963632" lon="-15.538828">
        <ele>1625.00</ele>
        <time>2018-07-13T16:55:32Z</time>
      </trkpt>
      <trkpt lat="27.963640" lon="-15.538858">
        <ele>1625.20</ele>
        <time>2018-07-13T16:55:35Z</time>
      </trkpt>
      <trkpt lat="27.963621" lon="-15.538867">
        <ele>1625.80</ele>
        <time>2018-07-13T16:55:38Z</time>
      </trkpt>
      <trkpt lat="27.963600" lon="-15.538866">
        <ele>1626.40</ele>
        <time>2018-07-13T16:55:41Z</time>
      </trkpt>
      <trkpt lat="27.963580" lon="-15.538865">
        <ele>1627.40</ele>
        <time>2018-07-13T16:55:44Z</time>
      </trkpt>
      <trkpt lat="27.963577" lon="-15.538894">
        <ele>1628.60</ele>
        <time>2018-07-13T16:55:48Z</time>
      </trkpt>
      <trkpt lat="27.963580" lon="-15.538917">
        <ele>1628.80</ele>
        <time>2018-07-13T16:55:50Z</time>
      </trkpt>
      <trkpt lat="27.963583" lon="-15.538938">
        <ele>1629.80</ele>
        <time>2018-07-13T16:55:52Z</time>
      </trkpt>
      <trkpt lat="27.963589" lon="-15.538958">
        <ele>1630.40</ele>
        <time>2018-07-13T16:55:54Z</time>
      </trkpt>
      <trkpt lat="27.963601" lon="-15.538975">
        <ele>1631.00</ele>
        <time>2018-07-13T16:55:56Z</time>
      </trkpt>
      <trkpt lat="27.963610" lon="-15.538999">
        <ele>1633.00</ele>
        <time>2018-07-13T16:56:01Z</time>
      </trkpt>
      <trkpt lat="27.963612" lon="-15.539026">
        <ele>1633.20</ele>
        <time>2018-07-13T16:56:04Z</time>
      </trkpt>
      <trkpt lat="27.963617" lon="-15.539054">
        <ele>1634.20</ele>
        <time>2018-07-13T16:56:07Z</time>
      </trkpt>
      <trkpt lat="27.963626" lon="-15.539079">
        <ele>1635.40</ele>
        <time>2018-07-13T16:56:09Z</time>
      </trkpt>
      <trkpt lat="27.963618" lon="-15.539100">
        <ele>1636.00</ele>
        <time>2018-07-13T16:56:12Z</time>
      </trkpt>
      <trkpt lat="27.963602" lon="-15.539117">
        <ele>1636.40</ele>
        <time>2018-07-13T16:56:15Z</time>
      </trkpt>
      <trkpt lat="27.963587" lon="-15.539129">
        <ele>1636.40</ele>
        <time>2018-07-13T16:56:17Z</time>
      </trkpt>
      <trkpt lat="27.963580" lon="-15.539157">
        <ele>1636.00</ele>
        <time>2018-07-13T16:56:19Z</time>
      </trkpt>
      <trkpt lat="27.963570" lon="-15.539186">
        <ele>1636.00</ele>
        <time>2018-07-13T16:56:21Z</time>
      </trkpt>
      <trkpt lat="27.963574" lon="-15.539264">
        <ele>1635.60</ele>
        <time>2018-07-13T16:56:24Z</time>
      </trkpt>
      <trkpt lat="27.963579" lon="-15.539286">
        <ele>1635.60</ele>
        <time>2018-07-13T16:56:25Z</time>
      </trkpt>
      <trkpt lat="27.963589" lon="-15.539311">
        <ele>1635.60</ele>
        <time>2018-07-13T16:56:26Z</time>
      </trkpt>
      <trkpt lat="27.963611" lon="-15.539355">
        <ele>1635.80</ele>
        <time>2018-07-13T16:56:29Z</time>
      </trkpt>
      <trkpt lat="27.963620" lon="-15.539388">
        <ele>1635.80</ele>
        <time>2018-07-13T16:56:31Z</time>
      </trkpt>
      <trkpt lat="27.963628" lon="-15.539439">
        <ele>1636.00</ele>
        <time>2018-07-13T16:56:34Z</time>
      </trkpt>
      <trkpt lat="27.963680" lon="-15.539528">
        <ele>1638.20</ele>
        <time>2018-07-13T16:56:42Z</time>
      </trkpt>
      <trkpt lat="27.963731" lon="-15.539625">
        <ele>1639.80</ele>
        <time>2018-07-13T16:56:49Z</time>
      </trkpt>
      <trkpt lat="27.963779" lon="-15.539712">
        <ele>1640.00</ele>
        <time>2018-07-13T16:56:55Z</time>
      </trkpt>
      <trkpt lat="27.963801" lon="-15.539816">
        <ele>1640.80</ele>
        <time>2018-07-13T16:57:03Z</time>
      </trkpt>
      <trkpt lat="27.963833" lon="-15.539924">
        <ele>1642.20</ele>
        <time>2018-07-13T16:57:11Z</time>
      </trkpt>
      <trkpt lat="27.963876" lon="-15.540022">
        <ele>1642.60</ele>
        <time>2018-07-13T16:57:18Z</time>
      </trkpt>
      <trkpt lat="27.963927" lon="-15.540111">
        <ele>1642.20</ele>
        <time>2018-07-13T16:57:26Z</time>
      </trkpt>
      <trkpt lat="27.963995" lon="-15.540197">
        <ele>1643.20</ele>
        <time>2018-07-13T16:57:32Z</time>
      </trkpt>
      <trkpt lat="27.964065" lon="-15.540265">
        <ele>1644.20</ele>
        <time>2018-07-13T16:57:37Z</time>
      </trkpt>
      <trkpt lat="27.964125" lon="-15.540350">
        <ele>1644.80</ele>
        <time>2018-07-13T16:57:43Z</time>
      </trkpt>
      <trkpt lat="27.964180" lon="-15.540433">
        <ele>1644.80</ele>
        <time>2018-07-13T16:57:50Z</time>
      </trkpt>
      <trkpt lat="27.964247" lon="-15.540508">
        <ele>1645.60</ele>
        <time>2018-07-13T16:57:58Z</time>
      </trkpt>
      <trkpt lat="27.964317" lon="-15.540580">
        <ele>1647.60</ele>
        <time>2018-07-13T16:58:08Z</time>
      </trkpt>
      <trkpt lat="27.964363" lon="-15.540673">
        <ele>1649.40</ele>
        <time>2018-07-13T16:58:17Z</time>
      </trkpt>
      <trkpt lat="27.964402" lon="-15.540696">
        <ele>1649.80</ele>
        <time>2018-07-13T16:58:20Z</time>
      </trkpt>
      <trkpt lat="27.964456" lon="-15.540759">
        <ele>1651.40</ele>
        <time>2018-07-13T16:58:27Z</time>
      </trkpt>
      <trkpt lat="27.964474" lon="-15.540764">
        <ele>1651.40</ele>
        <time>2018-07-13T16:58:28Z</time>
      </trkpt>
      <trkpt lat="27.964491" lon="-15.540774">
        <ele>1651.40</ele>
        <time>2018-07-13T16:58:29Z</time>
      </trkpt>
      <trkpt lat="27.964510" lon="-15.540780">
        <ele>1651.40</ele>
        <time>2018-07-13T16:58:30Z</time>
      </trkpt>
      <trkpt lat="27.964539" lon="-15.540792">
        <ele>1652.20</ele>
        <time>2018-07-13T16:58:32Z</time>
      </trkpt>
      <trkpt lat="27.964550" lon="-15.540812">
        <ele>1653.40</ele>
        <time>2018-07-13T16:58:34Z</time>
      </trkpt>
      <trkpt lat="27.964565" lon="-15.540832">
        <ele>1653.60</ele>
        <time>2018-07-13T16:58:36Z</time>
      </trkpt>
      <trkpt lat="27.964571" lon="-15.540852">
        <ele>1653.60</ele>
        <time>2018-07-13T16:58:38Z</time>
      </trkpt>
      <trkpt lat="27.964587" lon="-15.540869">
        <ele>1654.20</ele>
        <time>2018-07-13T16:58:41Z</time>
      </trkpt>
      <trkpt lat="27.964603" lon="-15.540879">
        <ele>1655.40</ele>
        <time>2018-07-13T16:58:45Z</time>
      </trkpt>
      <trkpt lat="27.964602" lon="-15.540904">
        <ele>1655.80</ele>
        <time>2018-07-13T16:58:49Z</time>
      </trkpt>
      <trkpt lat="27.964611" lon="-15.540927">
        <ele>1655.80</ele>
        <time>2018-07-13T16:58:53Z</time>
      </trkpt>
      <trkpt lat="27.964627" lon="-15.540952">
        <ele>1657.00</ele>
        <time>2018-07-13T16:58:57Z</time>
      </trkpt>
      <trkpt lat="27.964637" lon="-15.540972">
        <ele>1658.00</ele>
        <time>2018-07-13T16:58:59Z</time>
      </trkpt>
      <trkpt lat="27.964635" lon="-15.540995">
        <ele>1658.60</ele>
        <time>2018-07-13T16:59:02Z</time>
      </trkpt>
      <trkpt lat="27.964631" lon="-15.541021">
        <ele>1659.20</ele>
        <time>2018-07-13T16:59:04Z</time>
      </trkpt>
      <trkpt lat="27.964629" lon="-15.541056">
        <ele>1660.00</ele>
        <time>2018-07-13T16:59:07Z</time>
      </trkpt>
      <trkpt lat="27.964627" lon="-15.541078">
        <ele>1660.40</ele>
        <time>2018-07-13T16:59:09Z</time>
      </trkpt>
      <trkpt lat="27.964623" lon="-15.541102">
        <ele>1661.00</ele>
        <time>2018-07-13T16:59:11Z</time>
      </trkpt>
      <trkpt lat="27.964615" lon="-15.541126">
        <ele>1661.20</ele>
        <time>2018-07-13T16:59:13Z</time>
      </trkpt>
      <trkpt lat="27.964608" lon="-15.541144">
        <ele>1661.20</ele>
        <time>2018-07-13T16:59:15Z</time>
      </trkpt>
      <trkpt lat="27.964600" lon="-15.541170">
        <ele>1661.20</ele>
        <time>2018-07-13T16:59:18Z</time>
      </trkpt>
      <trkpt lat="27.964601" lon="-15.541198">
        <ele>1662.00</ele>
        <time>2018-07-13T16:59:20Z</time>
      </trkpt>
      <trkpt lat="27.964606" lon="-15.541225">
        <ele>1663.60</ele>
        <time>2018-07-13T16:59:22Z</time>
      </trkpt>
      <trkpt lat="27.964608" lon="-15.541249">
        <ele>1663.80</ele>
        <time>2018-07-13T16:59:25Z</time>
      </trkpt>
      <trkpt lat="27.964610" lon="-15.541271">
        <ele>1663.80</ele>
        <time>2018-07-13T16:59:27Z</time>
      </trkpt>
      <trkpt lat="27.964605" lon="-15.541298">
        <ele>1663.80</ele>
        <time>2018-07-13T16:59:29Z</time>
      </trkpt>
      <trkpt lat="27.964604" lon="-15.541322">
        <ele>1663.60</ele>
        <time>2018-07-13T16:59:31Z</time>
      </trkpt>
      <trkpt lat="27.964597" lon="-15.541382">
        <ele>1663.80</ele>
        <time>2018-07-13T16:59:35Z</time>
      </trkpt>
      <trkpt lat="27.964598" lon="-15.541416">
        <ele>1664.00</ele>
        <time>2018-07-13T16:59:37Z</time>
      </trkpt>
      <trkpt lat="27.964590" lon="-15.541444">
        <ele>1664.00</ele>
        <time>2018-07-13T16:59:40Z</time>
      </trkpt>
      <trkpt lat="27.964596" lon="-15.541514">
        <ele>1665.60</ele>
        <time>2018-07-13T16:59:46Z</time>
      </trkpt>
      <trkpt lat="27.964597" lon="-15.541538">
        <ele>1666.20</ele>
        <time>2018-07-13T16:59:48Z</time>
      </trkpt>
      <trkpt lat="27.964598" lon="-15.541561">
        <ele>1666.80</ele>
        <time>2018-07-13T16:59:50Z</time>
      </trkpt>
      <trkpt lat="27.964605" lon="-15.541640">
        <ele>1667.40</ele>
        <time>2018-07-13T16:59:55Z</time>
      </trkpt>
      <trkpt lat="27.964611" lon="-15.541661">
        <ele>1667.80</ele>
        <time>2018-07-13T16:59:56Z</time>
      </trkpt>
      <trkpt lat="27.964632" lon="-15.541715">
        <ele>1668.20</ele>
        <time>2018-07-13T16:59:59Z</time>
      </trkpt>
      <trkpt lat="27.964636" lon="-15.541756">
        <ele>1668.80</ele>
        <time>2018-07-13T17:00:01Z</time>
      </trkpt>
      <trkpt lat="27.964639" lon="-15.541793">
        <ele>1669.00</ele>
        <time>2018-07-13T17:00:03Z</time>
      </trkpt>
      <trkpt lat="27.964640" lon="-15.541820">
        <ele>1669.40</ele>
        <time>2018-07-13T17:00:05Z</time>
      </trkpt>
      <trkpt lat="27.964642" lon="-15.541844">
        <ele>1670.00</ele>
        <time>2018-07-13T17:00:08Z</time>
      </trkpt>
      <trkpt lat="27.964649" lon="-15.541880">
        <ele>1670.60</ele>
        <time>2018-07-13T17:00:12Z</time>
      </trkpt>
      <trkpt lat="27.964667" lon="-15.541895">
        <ele>1670.80</ele>
        <time>2018-07-13T17:00:14Z</time>
      </trkpt>
      <trkpt lat="27.964684" lon="-15.541920">
        <ele>1671.00</ele>
        <time>2018-07-13T17:00:16Z</time>
      </trkpt>
      <trkpt lat="27.964693" lon="-15.541955">
        <ele>1671.20</ele>
        <time>2018-07-13T17:00:18Z</time>
      </trkpt>
      <trkpt lat="27.964704" lon="-15.541979">
        <ele>1671.60</ele>
        <time>2018-07-13T17:00:20Z</time>
      </trkpt>
      <trkpt lat="27.964715" lon="-15.541997">
        <ele>1671.60</ele>
        <time>2018-07-13T17:00:24Z</time>
      </trkpt>
      <trkpt lat="27.964733" lon="-15.542009">
        <ele>1671.60</ele>
        <time>2018-07-13T17:00:26Z</time>
      </trkpt>
      <trkpt lat="27.964758" lon="-15.542022">
        <ele>1671.40</ele>
        <time>2018-07-13T17:00:28Z</time>
      </trkpt>
      <trkpt lat="27.964766" lon="-15.542046">
        <ele>1671.80</ele>
        <time>2018-07-13T17:00:31Z</time>
      </trkpt>
      <trkpt lat="27.964773" lon="-15.542067">
        <ele>1671.20</ele>
        <time>2018-07-13T17:00:33Z</time>
      </trkpt>
      <trkpt lat="27.964794" lon="-15.542074">
        <ele>1671.80</ele>
        <time>2018-07-13T17:00:35Z</time>
      </trkpt>
      <trkpt lat="27.964820" lon="-15.542081">
        <ele>1671.80</ele>
        <time>2018-07-13T17:00:37Z</time>
      </trkpt>
      <trkpt lat="27.964840" lon="-15.542085">
        <ele>1672.00</ele>
        <time>2018-07-13T17:00:40Z</time>
      </trkpt>
      <trkpt lat="27.964856" lon="-15.542109">
        <ele>1670.80</ele>
        <time>2018-07-13T17:00:46Z</time>
      </trkpt>
      <trkpt lat="27.964877" lon="-15.542113">
        <ele>1670.80</ele>
        <time>2018-07-13T17:00:47Z</time>
      </trkpt>
      <trkpt lat="27.964894" lon="-15.542121">
        <ele>1670.20</ele>
        <time>2018-07-13T17:00:48Z</time>
      </trkpt>
      <trkpt lat="27.964921" lon="-15.542145">
        <ele>1669.20</ele>
        <time>2018-07-13T17:00:50Z</time>
      </trkpt>
      <trkpt lat="27.964931" lon="-15.542154">
        <ele>1669.20</ele>
        <time>2018-07-13T17:00:51Z</time>
      </trkpt>
      <trkpt lat="27.964953" lon="-15.542161">
        <ele>1669.00</ele>
        <time>2018-07-13T17:00:53Z</time>
      </trkpt>
      <trkpt lat="27.964974" lon="-15.542177">
        <ele>1669.00</ele>
        <time>2018-07-13T17:00:55Z</time>
      </trkpt>
      <trkpt lat="27.965006" lon="-15.542187">
        <ele>1669.00</ele>
        <time>2018-07-13T17:00:57Z</time>
      </trkpt>
      <trkpt lat="27.965036" lon="-15.542195">
        <ele>1668.80</ele>
        <time>2018-07-13T17:00:59Z</time>
      </trkpt>
      <trkpt lat="27.965062" lon="-15.542195">
        <ele>1669.00</ele>
        <time>2018-07-13T17:01:00Z</time>
      </trkpt>
      <trkpt lat="27.965089" lon="-15.542197">
        <ele>1668.40</ele>
        <time>2018-07-13T17:01:01Z</time>
      </trkpt>
      <trkpt lat="27.965122" lon="-15.542209">
        <ele>1668.00</ele>
        <time>2018-07-13T17:01:02Z</time>
      </trkpt>
      <trkpt lat="27.965146" lon="-15.542215">
        <ele>1668.40</ele>
        <time>2018-07-13T17:01:03Z</time>
      </trkpt>
      <trkpt lat="27.965171" lon="-15.542225">
        <ele>1668.40</ele>
        <time>2018-07-13T17:01:04Z</time>
      </trkpt>
      <trkpt lat="27.965195" lon="-15.542235">
        <ele>1668.40</ele>
        <time>2018-07-13T17:01:05Z</time>
      </trkpt>
      <trkpt lat="27.965214" lon="-15.542246">
        <ele>1668.40</ele>
        <time>2018-07-13T17:01:06Z</time>
      </trkpt>
      <trkpt lat="27.965232" lon="-15.542253">
        <ele>1668.40</ele>
        <time>2018-07-13T17:01:07Z</time>
      </trkpt>
      <trkpt lat="27.965263" lon="-15.542266">
        <ele>1668.60</ele>
        <time>2018-07-13T17:01:09Z</time>
      </trkpt>
      <trkpt lat="27.965293" lon="-15.542277">
        <ele>1668.40</ele>
        <time>2018-07-13T17:01:11Z</time>
      </trkpt>
      <trkpt lat="27.965311" lon="-15.542288">
        <ele>1668.60</ele>
        <time>2018-07-13T17:01:13Z</time>
      </trkpt>
      <trkpt lat="27.965327" lon="-15.542302">
        <ele>1668.40</ele>
        <time>2018-07-13T17:01:15Z</time>
      </trkpt>
      <trkpt lat="27.965344" lon="-15.542320">
        <ele>1668.00</ele>
        <time>2018-07-13T17:01:17Z</time>
      </trkpt>
      <trkpt lat="27.965362" lon="-15.542310">
        <ele>1668.00</ele>
        <time>2018-07-13T17:01:19Z</time>
      </trkpt>
      <trkpt lat="27.965384" lon="-15.542297">
        <ele>1668.00</ele>
        <time>2018-07-13T17:01:21Z</time>
      </trkpt>
      <trkpt lat="27.965391" lon="-15.542278">
        <ele>1668.60</ele>
        <time>2018-07-13T17:01:24Z</time>
      </trkpt>
      <trkpt lat="27.965409" lon="-15.542279">
        <ele>1669.00</ele>
        <time>2018-07-13T17:01:35Z</time>
      </trkpt>
      <trkpt lat="27.965434" lon="-15.542281">
        <ele>1669.60</ele>
        <time>2018-07-13T17:01:41Z</time>
      </trkpt>
      <trkpt lat="27.965450" lon="-15.542301">
        <ele>1669.60</ele>
        <time>2018-07-13T17:01:45Z</time>
      </trkpt>
      <trkpt lat="27.965452" lon="-15.542279">
        <ele>1670.40</ele>
        <time>2018-07-13T17:02:10Z</time>
      </trkpt>
      <trkpt lat="27.965452" lon="-15.542258">
        <ele>1671.60</ele>
        <time>2018-07-13T17:02:46Z</time>
      </trkpt>
      <trkpt lat="27.965446" lon="-15.542237">
        <ele>1671.40</ele>
        <time>2018-07-13T17:02:51Z</time>
      </trkpt>
      <trkpt lat="27.965457" lon="-15.542256">
        <ele>1671.80</ele>
        <time>2018-07-13T17:02:54Z</time>
      </trkpt>
      <trkpt lat="27.965464" lon="-15.542302">
        <ele>1671.60</ele>
        <time>2018-07-13T17:02:56Z</time>
      </trkpt>
      <trkpt lat="27.965472" lon="-15.542335">
        <ele>1671.80</ele>
        <time>2018-07-13T17:02:58Z</time>
      </trkpt>
      <trkpt lat="27.965476" lon="-15.542365">
        <ele>1671.80</ele>
        <time>2018-07-13T17:03:00Z</time>
      </trkpt>
      <trkpt lat="27.965494" lon="-15.542384">
        <ele>1672.60</ele>
        <time>2018-07-13T17:03:03Z</time>
      </trkpt>
      <trkpt lat="27.965513" lon="-15.542408">
        <ele>1672.60</ele>
        <time>2018-07-13T17:03:05Z</time>
      </trkpt>
      <trkpt lat="27.965535" lon="-15.542432">
        <ele>1673.60</ele>
        <time>2018-07-13T17:03:07Z</time>
      </trkpt>
      <trkpt lat="27.965559" lon="-15.542452">
        <ele>1674.00</ele>
        <time>2018-07-13T17:03:09Z</time>
      </trkpt>
      <trkpt lat="27.965582" lon="-15.542469">
        <ele>1674.20</ele>
        <time>2018-07-13T17:03:11Z</time>
      </trkpt>
      <trkpt lat="27.965607" lon="-15.542484">
        <ele>1675.00</ele>
        <time>2018-07-13T17:03:13Z</time>
      </trkpt>
      <trkpt lat="27.965637" lon="-15.542502">
        <ele>1675.00</ele>
        <time>2018-07-13T17:03:15Z</time>
      </trkpt>
      <trkpt lat="27.965656" lon="-15.542514">
        <ele>1675.20</ele>
        <time>2018-07-13T17:03:17Z</time>
      </trkpt>
      <trkpt lat="27.965672" lon="-15.542532">
        <ele>1675.60</ele>
        <time>2018-07-13T17:03:19Z</time>
      </trkpt>
      <trkpt lat="27.965710" lon="-15.542552">
        <ele>1675.80</ele>
        <time>2018-07-13T17:03:22Z</time>
      </trkpt>
      <trkpt lat="27.965725" lon="-15.542558">
        <ele>1676.00</ele>
        <time>2018-07-13T17:03:23Z</time>
      </trkpt>
      <trkpt lat="27.965769" lon="-15.542587">
        <ele>1676.20</ele>
        <time>2018-07-13T17:03:26Z</time>
      </trkpt>
      <trkpt lat="27.965784" lon="-15.542597">
        <ele>1676.40</ele>
        <time>2018-07-13T17:03:28Z</time>
      </trkpt>
      <trkpt lat="27.965805" lon="-15.542613">
        <ele>1676.80</ele>
        <time>2018-07-13T17:03:30Z</time>
      </trkpt>
      <trkpt lat="27.965866" lon="-15.542662">
        <ele>1677.40</ele>
        <time>2018-07-13T17:03:35Z</time>
      </trkpt>
      <trkpt lat="27.965884" lon="-15.542680">
        <ele>1678.00</ele>
        <time>2018-07-13T17:03:37Z</time>
      </trkpt>
      <trkpt lat="27.965897" lon="-15.542698">
        <ele>1678.60</ele>
        <time>2018-07-13T17:03:39Z</time>
      </trkpt>
      <trkpt lat="27.965921" lon="-15.542718">
        <ele>1678.80</ele>
        <time>2018-07-13T17:03:41Z</time>
      </trkpt>
      <trkpt lat="27.965947" lon="-15.542733">
        <ele>1679.20</ele>
        <time>2018-07-13T17:03:43Z</time>
      </trkpt>
      <trkpt lat="27.965973" lon="-15.542739">
        <ele>1680.00</ele>
        <time>2018-07-13T17:03:45Z</time>
      </trkpt>
      <trkpt lat="27.965996" lon="-15.542737">
        <ele>1680.60</ele>
        <time>2018-07-13T17:03:47Z</time>
      </trkpt>
      <trkpt lat="27.966020" lon="-15.542740">
        <ele>1681.40</ele>
        <time>2018-07-13T17:03:49Z</time>
      </trkpt>
      <trkpt lat="27.966040" lon="-15.542749">
        <ele>1681.60</ele>
        <time>2018-07-13T17:03:51Z</time>
      </trkpt>
      <trkpt lat="27.966059" lon="-15.542770">
        <ele>1681.80</ele>
        <time>2018-07-13T17:03:53Z</time>
      </trkpt>
      <trkpt lat="27.966075" lon="-15.542791">
        <ele>1682.20</ele>
        <time>2018-07-13T17:03:55Z</time>
      </trkpt>
      <trkpt lat="27.966077" lon="-15.542812">
        <ele>1683.00</ele>
        <time>2018-07-13T17:03:59Z</time>
      </trkpt>
      <trkpt lat="27.966092" lon="-15.542824">
        <ele>1683.80</ele>
        <time>2018-07-13T17:04:01Z</time>
      </trkpt>
      <trkpt lat="27.966112" lon="-15.542841">
        <ele>1684.80</ele>
        <time>2018-07-13T17:04:04Z</time>
      </trkpt>
      <trkpt lat="27.966122" lon="-15.542859">
        <ele>1685.60</ele>
        <time>2018-07-13T17:04:06Z</time>
      </trkpt>
      <trkpt lat="27.966137" lon="-15.542874">
        <ele>1685.60</ele>
        <time>2018-07-13T17:04:08Z</time>
      </trkpt>
      <trkpt lat="27.966154" lon="-15.542891">
        <ele>1686.40</ele>
        <time>2018-07-13T17:04:10Z</time>
      </trkpt>
      <trkpt lat="27.966171" lon="-15.542904">
        <ele>1687.40</ele>
        <time>2018-07-13T17:04:13Z</time>
      </trkpt>
      <trkpt lat="27.966201" lon="-15.542933">
        <ele>1688.20</ele>
        <time>2018-07-13T17:04:17Z</time>
      </trkpt>
      <trkpt lat="27.966230" lon="-15.542975">
        <ele>1689.40</ele>
        <time>2018-07-13T17:04:22Z</time>
      </trkpt>
      <trkpt lat="27.966250" lon="-15.542996">
        <ele>1690.60</ele>
        <time>2018-07-13T17:04:24Z</time>
      </trkpt>
      <trkpt lat="27.966277" lon="-15.543021">
        <ele>1691.60</ele>
        <time>2018-07-13T17:04:28Z</time>
      </trkpt>
      <trkpt lat="27.966295" lon="-15.543040">
        <ele>1692.00</ele>
        <time>2018-07-13T17:04:31Z</time>
      </trkpt>
      <trkpt lat="27.966313" lon="-15.543065">
        <ele>1692.60</ele>
        <time>2018-07-13T17:04:34Z</time>
      </trkpt>
      <trkpt lat="27.966331" lon="-15.543079">
        <ele>1693.20</ele>
        <time>2018-07-13T17:04:36Z</time>
      </trkpt>
      <trkpt lat="27.966355" lon="-15.543088">
        <ele>1693.60</ele>
        <time>2018-07-13T17:04:39Z</time>
      </trkpt>
      <trkpt lat="27.966377" lon="-15.543123">
        <ele>1694.40</ele>
        <time>2018-07-13T17:04:42Z</time>
      </trkpt>
      <trkpt lat="27.966393" lon="-15.543136">
        <ele>1694.60</ele>
        <time>2018-07-13T17:04:44Z</time>
      </trkpt>
      <trkpt lat="27.966414" lon="-15.543156">
        <ele>1695.40</ele>
        <time>2018-07-13T17:04:47Z</time>
      </trkpt>
      <trkpt lat="27.966424" lon="-15.543182">
        <ele>1696.00</ele>
        <time>2018-07-13T17:04:49Z</time>
      </trkpt>
      <trkpt lat="27.966445" lon="-15.543199">
        <ele>1696.20</ele>
        <time>2018-07-13T17:04:51Z</time>
      </trkpt>
      <trkpt lat="27.966461" lon="-15.543225">
        <ele>1696.80</ele>
        <time>2018-07-13T17:04:54Z</time>
      </trkpt>
      <trkpt lat="27.966478" lon="-15.543242">
        <ele>1697.20</ele>
        <time>2018-07-13T17:04:56Z</time>
      </trkpt>
      <trkpt lat="27.966492" lon="-15.543267">
        <ele>1697.20</ele>
        <time>2018-07-13T17:04:58Z</time>
      </trkpt>
      <trkpt lat="27.966513" lon="-15.543288">
        <ele>1698.20</ele>
        <time>2018-07-13T17:05:00Z</time>
      </trkpt>
      <trkpt lat="27.966534" lon="-15.543307">
        <ele>1698.20</ele>
        <time>2018-07-13T17:05:02Z</time>
      </trkpt>
      <trkpt lat="27.966554" lon="-15.543323">
        <ele>1698.20</ele>
        <time>2018-07-13T17:05:04Z</time>
      </trkpt>
      <trkpt lat="27.966587" lon="-15.543347">
        <ele>1699.20</ele>
        <time>2018-07-13T17:05:08Z</time>
      </trkpt>
      <trkpt lat="27.966617" lon="-15.543359">
        <ele>1699.20</ele>
        <time>2018-07-13T17:05:11Z</time>
      </trkpt>
      <trkpt lat="27.966633" lon="-15.543377">
        <ele>1699.60</ele>
        <time>2018-07-13T17:05:13Z</time>
      </trkpt>
      <trkpt lat="27.966656" lon="-15.543396">
        <ele>1699.80</ele>
        <time>2018-07-13T17:05:15Z</time>
      </trkpt>
      <trkpt lat="27.966674" lon="-15.543413">
        <ele>1700.40</ele>
        <time>2018-07-13T17:05:17Z</time>
      </trkpt>
      <trkpt lat="27.966691" lon="-15.543438">
        <ele>1700.60</ele>
        <time>2018-07-13T17:05:19Z</time>
      </trkpt>
      <trkpt lat="27.966707" lon="-15.543462">
        <ele>1700.80</ele>
        <time>2018-07-13T17:05:21Z</time>
      </trkpt>
      <trkpt lat="27.966719" lon="-15.543482">
        <ele>1701.00</ele>
        <time>2018-07-13T17:05:23Z</time>
      </trkpt>
      <trkpt lat="27.966738" lon="-15.543496">
        <ele>1701.20</ele>
        <time>2018-07-13T17:05:25Z</time>
      </trkpt>
      <trkpt lat="27.966754" lon="-15.543516">
        <ele>1701.60</ele>
        <time>2018-07-13T17:05:27Z</time>
      </trkpt>
      <trkpt lat="27.966768" lon="-15.543541">
        <ele>1702.80</ele>
        <time>2018-07-13T17:05:29Z</time>
      </trkpt>
      <trkpt lat="27.966783" lon="-15.543553">
        <ele>1703.00</ele>
        <time>2018-07-13T17:05:31Z</time>
      </trkpt>
      <trkpt lat="27.966801" lon="-15.543578">
        <ele>1703.00</ele>
        <time>2018-07-13T17:05:33Z</time>
      </trkpt>
      <trkpt lat="27.966829" lon="-15.543604">
        <ele>1703.00</ele>
        <time>2018-07-13T17:05:36Z</time>
      </trkpt>
      <trkpt lat="27.966838" lon="-15.543625">
        <ele>1702.80</ele>
        <time>2018-07-13T17:05:38Z</time>
      </trkpt>
      <trkpt lat="27.966856" lon="-15.543644">
        <ele>1703.00</ele>
        <time>2018-07-13T17:05:40Z</time>
      </trkpt>
      <trkpt lat="27.966900" lon="-15.543672">
        <ele>1702.60</ele>
        <time>2018-07-13T17:05:43Z</time>
      </trkpt>
      <trkpt lat="27.966915" lon="-15.543685">
        <ele>1702.60</ele>
        <time>2018-07-13T17:05:44Z</time>
      </trkpt>
      <trkpt lat="27.966938" lon="-15.543706">
        <ele>1702.80</ele>
        <time>2018-07-13T17:05:46Z</time>
      </trkpt>
      <trkpt lat="27.966954" lon="-15.543725">
        <ele>1703.20</ele>
        <time>2018-07-13T17:05:48Z</time>
      </trkpt>
      <trkpt lat="27.966972" lon="-15.543751">
        <ele>1703.20</ele>
        <time>2018-07-13T17:05:50Z</time>
      </trkpt>
      <trkpt lat="27.966988" lon="-15.543771">
        <ele>1703.20</ele>
        <time>2018-07-13T17:05:52Z</time>
      </trkpt>
      <trkpt lat="27.967013" lon="-15.543805">
        <ele>1703.80</ele>
        <time>2018-07-13T17:05:55Z</time>
      </trkpt>
      <trkpt lat="27.967021" lon="-15.543823">
        <ele>1703.80</ele>
        <time>2018-07-13T17:05:57Z</time>
      </trkpt>
      <trkpt lat="27.967041" lon="-15.543858">
        <ele>1703.80</ele>
        <time>2018-07-13T17:06:00Z</time>
      </trkpt>
      <trkpt lat="27.967054" lon="-15.543881">
        <ele>1703.80</ele>
        <time>2018-07-13T17:06:02Z</time>
      </trkpt>
      <trkpt lat="27.967074" lon="-15.543912">
        <ele>1703.80</ele>
        <time>2018-07-13T17:06:04Z</time>
      </trkpt>
      <trkpt lat="27.967100" lon="-15.543939">
        <ele>1703.80</ele>
        <time>2018-07-13T17:06:06Z</time>
      </trkpt>
      <trkpt lat="27.967123" lon="-15.543971">
        <ele>1704.00</ele>
        <time>2018-07-13T17:06:08Z</time>
      </trkpt>
      <trkpt lat="27.967136" lon="-15.543991">
        <ele>1704.20</ele>
        <time>2018-07-13T17:06:09Z</time>
      </trkpt>
      <trkpt lat="27.967153" lon="-15.544012">
        <ele>1704.20</ele>
        <time>2018-07-13T17:06:10Z</time>
      </trkpt>
      <trkpt lat="27.967170" lon="-15.544038">
        <ele>1704.20</ele>
        <time>2018-07-13T17:06:11Z</time>
      </trkpt>
      <trkpt lat="27.967254" lon="-15.544126">
        <ele>1703.80</ele>
        <time>2018-07-13T17:06:15Z</time>
      </trkpt>
      <trkpt lat="27.967330" lon="-15.544210">
        <ele>1703.60</ele>
        <time>2018-07-13T17:06:18Z</time>
      </trkpt>
      <trkpt lat="27.967377" lon="-15.544258">
        <ele>1703.80</ele>
        <time>2018-07-13T17:06:20Z</time>
      </trkpt>
      <trkpt lat="27.967433" lon="-15.544304">
        <ele>1703.20</ele>
        <time>2018-07-13T17:06:22Z</time>
      </trkpt>
      <trkpt lat="27.967459" lon="-15.544330">
        <ele>1703.20</ele>
        <time>2018-07-13T17:06:23Z</time>
      </trkpt>
      <trkpt lat="27.967481" lon="-15.544352">
        <ele>1702.60</ele>
        <time>2018-07-13T17:06:24Z</time>
      </trkpt>
      <trkpt lat="27.967500" lon="-15.544375">
        <ele>1701.40</ele>
        <time>2018-07-13T17:06:25Z</time>
      </trkpt>
      <trkpt lat="27.967519" lon="-15.544398">
        <ele>1701.40</ele>
        <time>2018-07-13T17:06:26Z</time>
      </trkpt>
      <trkpt lat="27.967540" lon="-15.544420">
        <ele>1701.40</ele>
        <time>2018-07-13T17:06:27Z</time>
      </trkpt>
      <trkpt lat="27.967566" lon="-15.544442">
        <ele>1701.40</ele>
        <time>2018-07-13T17:06:28Z</time>
      </trkpt>
      <trkpt lat="27.967592" lon="-15.544466">
        <ele>1701.40</ele>
        <time>2018-07-13T17:06:29Z</time>
      </trkpt>
      <trkpt lat="27.967620" lon="-15.544491">
        <ele>1699.80</ele>
        <time>2018-07-13T17:06:30Z</time>
      </trkpt>
      <trkpt lat="27.967641" lon="-15.544514">
        <ele>1699.60</ele>
        <time>2018-07-13T17:06:31Z</time>
      </trkpt>
      <trkpt lat="27.967664" lon="-15.544539">
        <ele>1699.60</ele>
        <time>2018-07-13T17:06:32Z</time>
      </trkpt>
      <trkpt lat="27.967687" lon="-15.544567">
        <ele>1699.60</ele>
        <time>2018-07-13T17:06:33Z</time>
      </trkpt>
      <trkpt lat="27.967708" lon="-15.544588">
        <ele>1699.40</ele>
        <time>2018-07-13T17:06:34Z</time>
      </trkpt>
      <trkpt lat="27.967726" lon="-15.544605">
        <ele>1699.40</ele>
        <time>2018-07-13T17:06:35Z</time>
      </trkpt>
      <trkpt lat="27.967745" lon="-15.544621">
        <ele>1699.00</ele>
        <time>2018-07-13T17:06:36Z</time>
      </trkpt>
      <trkpt lat="27.967770" lon="-15.544649">
        <ele>1699.00</ele>
        <time>2018-07-13T17:06:38Z</time>
      </trkpt>
      <trkpt lat="27.967802" lon="-15.544663">
        <ele>1697.40</ele>
        <time>2018-07-13T17:06:40Z</time>
      </trkpt>
      <trkpt lat="27.967828" lon="-15.544680">
        <ele>1697.40</ele>
        <time>2018-07-13T17:06:42Z</time>
      </trkpt>
      <trkpt lat="27.967851" lon="-15.544703">
        <ele>1697.40</ele>
        <time>2018-07-13T17:06:44Z</time>
      </trkpt>
      <trkpt lat="27.967867" lon="-15.544726">
        <ele>1697.20</ele>
        <time>2018-07-13T17:06:46Z</time>
      </trkpt>
      <trkpt lat="27.967880" lon="-15.544756">
        <ele>1697.20</ele>
        <time>2018-07-13T17:06:48Z</time>
      </trkpt>
      <trkpt lat="27.967895" lon="-15.544785">
        <ele>1698.20</ele>
        <time>2018-07-13T17:06:50Z</time>
      </trkpt>
      <trkpt lat="27.967909" lon="-15.544812">
        <ele>1698.20</ele>
        <time>2018-07-13T17:06:52Z</time>
      </trkpt>
      <trkpt lat="27.967937" lon="-15.544835">
        <ele>1698.40</ele>
        <time>2018-07-13T17:06:54Z</time>
      </trkpt>
      <trkpt lat="27.967960" lon="-15.544863">
        <ele>1698.60</ele>
        <time>2018-07-13T17:06:56Z</time>
      </trkpt>
      <trkpt lat="27.967980" lon="-15.544884">
        <ele>1698.60</ele>
        <time>2018-07-13T17:06:58Z</time>
      </trkpt>
      <trkpt lat="27.968000" lon="-15.544902">
        <ele>1698.80</ele>
        <time>2018-07-13T17:07:00Z</time>
      </trkpt>
      <trkpt lat="27.968019" lon="-15.544919">
        <ele>1699.00</ele>
        <time>2018-07-13T17:07:02Z</time>
      </trkpt>
      <trkpt lat="27.968034" lon="-15.544943">
        <ele>1699.60</ele>
        <time>2018-07-13T17:07:04Z</time>
      </trkpt>
      <trkpt lat="27.968054" lon="-15.544970">
        <ele>1700.00</ele>
        <time>2018-07-13T17:07:06Z</time>
      </trkpt>
      <trkpt lat="27.968074" lon="-15.544996">
        <ele>1700.00</ele>
        <time>2018-07-13T17:07:08Z</time>
      </trkpt>
      <trkpt lat="27.968098" lon="-15.545010">
        <ele>1700.20</ele>
        <time>2018-07-13T17:07:10Z</time>
      </trkpt>
      <trkpt lat="27.968118" lon="-15.545033">
        <ele>1700.20</ele>
        <time>2018-07-13T17:07:12Z</time>
      </trkpt>
      <trkpt lat="27.968138" lon="-15.545065">
        <ele>1700.80</ele>
        <time>2018-07-13T17:07:14Z</time>
      </trkpt>
      <trkpt lat="27.968159" lon="-15.545090">
        <ele>1700.80</ele>
        <time>2018-07-13T17:07:16Z</time>
      </trkpt>
      <trkpt lat="27.968179" lon="-15.545112">
        <ele>1701.00</ele>
        <time>2018-07-13T17:07:18Z</time>
      </trkpt>
      <trkpt lat="27.968195" lon="-15.545123">
        <ele>1701.40</ele>
        <time>2018-07-13T17:07:19Z</time>
      </trkpt>
      <trkpt lat="27.968218" lon="-15.545148">
        <ele>1702.00</ele>
        <time>2018-07-13T17:07:21Z</time>
      </trkpt>
      <trkpt lat="27.968242" lon="-15.545174">
        <ele>1703.00</ele>
        <time>2018-07-13T17:07:23Z</time>
      </trkpt>
      <trkpt lat="27.968257" lon="-15.545205">
        <ele>1703.00</ele>
        <time>2018-07-13T17:07:25Z</time>
      </trkpt>
      <trkpt lat="27.968272" lon="-15.545228">
        <ele>1703.20</ele>
        <time>2018-07-13T17:07:27Z</time>
      </trkpt>
      <trkpt lat="27.968290" lon="-15.545252">
        <ele>1703.60</ele>
        <time>2018-07-13T17:07:29Z</time>
      </trkpt>
      <trkpt lat="27.968311" lon="-15.545276">
        <ele>1704.40</ele>
        <time>2018-07-13T17:07:31Z</time>
      </trkpt>
      <trkpt lat="27.968332" lon="-15.545294">
        <ele>1705.20</ele>
        <time>2018-07-13T17:07:33Z</time>
      </trkpt>
      <trkpt lat="27.968350" lon="-15.545323">
        <ele>1705.20</ele>
        <time>2018-07-13T17:07:37Z</time>
      </trkpt>
      <trkpt lat="27.968359" lon="-15.545333">
        <ele>1705.00</ele>
        <time>2018-07-13T17:07:38Z</time>
      </trkpt>
      <trkpt lat="27.968381" lon="-15.545364">
        <ele>1704.60</ele>
        <time>2018-07-13T17:07:40Z</time>
      </trkpt>
      <trkpt lat="27.968394" lon="-15.545384">
        <ele>1704.40</ele>
        <time>2018-07-13T17:07:41Z</time>
      </trkpt>
      <trkpt lat="27.968411" lon="-15.545410">
        <ele>1704.40</ele>
        <time>2018-07-13T17:07:42Z</time>
      </trkpt>
      <trkpt lat="27.968428" lon="-15.545438">
        <ele>1704.20</ele>
        <time>2018-07-13T17:07:43Z</time>
      </trkpt>
      <trkpt lat="27.968444" lon="-15.545465">
        <ele>1704.20</ele>
        <time>2018-07-13T17:07:44Z</time>
      </trkpt>
      <trkpt lat="27.968457" lon="-15.545492">
        <ele>1704.20</ele>
        <time>2018-07-13T17:07:45Z</time>
      </trkpt>
      <trkpt lat="27.968468" lon="-15.545524">
        <ele>1704.20</ele>
        <time>2018-07-13T17:07:46Z</time>
      </trkpt>
      <trkpt lat="27.968481" lon="-15.545559">
        <ele>1704.20</ele>
        <time>2018-07-13T17:07:47Z</time>
      </trkpt>
      <trkpt lat="27.968495" lon="-15.545587">
        <ele>1704.20</ele>
        <time>2018-07-13T17:07:48Z</time>
      </trkpt>
      <trkpt lat="27.968511" lon="-15.545617">
        <ele>1703.60</ele>
        <time>2018-07-13T17:07:49Z</time>
      </trkpt>
      <trkpt lat="27.968529" lon="-15.545648">
        <ele>1703.00</ele>
        <time>2018-07-13T17:07:50Z</time>
      </trkpt>
      <trkpt lat="27.968540" lon="-15.545687">
        <ele>1702.80</ele>
        <time>2018-07-13T17:07:51Z</time>
      </trkpt>
      <trkpt lat="27.968555" lon="-15.545761">
        <ele>1702.80</ele>
        <time>2018-07-13T17:07:53Z</time>
      </trkpt>
      <trkpt lat="27.968565" lon="-15.545795">
        <ele>1702.80</ele>
        <time>2018-07-13T17:07:54Z</time>
      </trkpt>
      <trkpt lat="27.968576" lon="-15.545830">
        <ele>1702.60</ele>
        <time>2018-07-13T17:07:55Z</time>
      </trkpt>
      <trkpt lat="27.968590" lon="-15.545862">
        <ele>1702.20</ele>
        <time>2018-07-13T17:07:56Z</time>
      </trkpt>
      <trkpt lat="27.968606" lon="-15.545888">
        <ele>1701.40</ele>
        <time>2018-07-13T17:07:57Z</time>
      </trkpt>
      <trkpt lat="27.968620" lon="-15.545920">
        <ele>1701.00</ele>
        <time>2018-07-13T17:07:58Z</time>
      </trkpt>
      <trkpt lat="27.968642" lon="-15.545942">
        <ele>1700.20</ele>
        <time>2018-07-13T17:07:59Z</time>
      </trkpt>
      <trkpt lat="27.968663" lon="-15.545964">
        <ele>1699.80</ele>
        <time>2018-07-13T17:08:00Z</time>
      </trkpt>
      <trkpt lat="27.968733" lon="-15.546025">
        <ele>1699.60</ele>
        <time>2018-07-13T17:08:03Z</time>
      </trkpt>
      <trkpt lat="27.968789" lon="-15.546068">
        <ele>1699.60</ele>
        <time>2018-07-13T17:08:05Z</time>
      </trkpt>
      <trkpt lat="27.968861" lon="-15.546105">
        <ele>1699.20</ele>
        <time>2018-07-13T17:08:07Z</time>
      </trkpt>
      <trkpt lat="27.968888" lon="-15.546121">
        <ele>1698.20</ele>
        <time>2018-07-13T17:08:08Z</time>
      </trkpt>
      <trkpt lat="27.968915" lon="-15.546133">
        <ele>1698.20</ele>
        <time>2018-07-13T17:08:09Z</time>
      </trkpt>
      <trkpt lat="27.968946" lon="-15.546139">
        <ele>1697.60</ele>
        <time>2018-07-13T17:08:10Z</time>
      </trkpt>
      <trkpt lat="27.968975" lon="-15.546149">
        <ele>1697.20</ele>
        <time>2018-07-13T17:08:11Z</time>
      </trkpt>
      <trkpt lat="27.969003" lon="-15.546158">
        <ele>1696.60</ele>
        <time>2018-07-13T17:08:12Z</time>
      </trkpt>
      <trkpt lat="27.969025" lon="-15.546167">
        <ele>1695.80</ele>
        <time>2018-07-13T17:08:13Z</time>
      </trkpt>
      <trkpt lat="27.969045" lon="-15.546179">
        <ele>1695.00</ele>
        <time>2018-07-13T17:08:14Z</time>
      </trkpt>
      <trkpt lat="27.969058" lon="-15.546193">
        <ele>1695.00</ele>
        <time>2018-07-13T17:08:15Z</time>
      </trkpt>
      <trkpt lat="27.969077" lon="-15.546209">
        <ele>1694.80</ele>
        <time>2018-07-13T17:08:16Z</time>
      </trkpt>
      <trkpt lat="27.969096" lon="-15.546223">
        <ele>1694.20</ele>
        <time>2018-07-13T17:08:17Z</time>
      </trkpt>
      <trkpt lat="27.969119" lon="-15.546237">
        <ele>1692.80</ele>
        <time>2018-07-13T17:08:18Z</time>
      </trkpt>
      <trkpt lat="27.969144" lon="-15.546251">
        <ele>1692.80</ele>
        <time>2018-07-13T17:08:19Z</time>
      </trkpt>
      <trkpt lat="27.969169" lon="-15.546265">
        <ele>1692.60</ele>
        <time>2018-07-13T17:08:20Z</time>
      </trkpt>
      <trkpt lat="27.969190" lon="-15.546275">
        <ele>1692.40</ele>
        <time>2018-07-13T17:08:21Z</time>
      </trkpt>
      <trkpt lat="27.969213" lon="-15.546282">
        <ele>1691.20</ele>
        <time>2018-07-13T17:08:22Z</time>
      </trkpt>
      <trkpt lat="27.969235" lon="-15.546290">
        <ele>1689.40</ele>
        <time>2018-07-13T17:08:23Z</time>
      </trkpt>
      <trkpt lat="27.969257" lon="-15.546296">
        <ele>1689.80</ele>
        <time>2018-07-13T17:08:24Z</time>
      </trkpt>
      <trkpt lat="27.969279" lon="-15.546311">
        <ele>1689.40</ele>
        <time>2018-07-13T17:08:25Z</time>
      </trkpt>
      <trkpt lat="27.969299" lon="-15.546324">
        <ele>1689.40</ele>
        <time>2018-07-13T17:08:26Z</time>
      </trkpt>
      <trkpt lat="27.969323" lon="-15.546339">
        <ele>1689.00</ele>
        <time>2018-07-13T17:08:27Z</time>
      </trkpt>
      <trkpt lat="27.969367" lon="-15.546362">
        <ele>1688.00</ele>
        <time>2018-07-13T17:08:29Z</time>
      </trkpt>
      <trkpt lat="27.969388" lon="-15.546373">
        <ele>1688.00</ele>
        <time>2018-07-13T17:08:30Z</time>
      </trkpt>
      <trkpt lat="27.969408" lon="-15.546383">
        <ele>1687.60</ele>
        <time>2018-07-13T17:08:31Z</time>
      </trkpt>
      <trkpt lat="27.969438" lon="-15.546409">
        <ele>1687.00</ele>
        <time>2018-07-13T17:08:33Z</time>
      </trkpt>
      <trkpt lat="27.969455" lon="-15.546421">
        <ele>1687.00</ele>
        <time>2018-07-13T17:08:34Z</time>
      </trkpt>
      <trkpt lat="27.969473" lon="-15.546440">
        <ele>1686.80</ele>
        <time>2018-07-13T17:08:35Z</time>
      </trkpt>
      <trkpt lat="27.969489" lon="-15.546456">
        <ele>1686.20</ele>
        <time>2018-07-13T17:08:36Z</time>
      </trkpt>
      <trkpt lat="27.969508" lon="-15.546475">
        <ele>1685.20</ele>
        <time>2018-07-13T17:08:37Z</time>
      </trkpt>
      <trkpt lat="27.969526" lon="-15.546497">
        <ele>1685.20</ele>
        <time>2018-07-13T17:08:38Z</time>
      </trkpt>
      <trkpt lat="27.969544" lon="-15.546517">
        <ele>1685.20</ele>
        <time>2018-07-13T17:08:39Z</time>
      </trkpt>
      <trkpt lat="27.969564" lon="-15.546537">
        <ele>1685.00</ele>
        <time>2018-07-13T17:08:40Z</time>
      </trkpt>
      <trkpt lat="27.969581" lon="-15.546560">
        <ele>1685.00</ele>
        <time>2018-07-13T17:08:41Z</time>
      </trkpt>
      <trkpt lat="27.969603" lon="-15.546583">
        <ele>1685.00</ele>
        <time>2018-07-13T17:08:42Z</time>
      </trkpt>
      <trkpt lat="27.969622" lon="-15.546607">
        <ele>1685.00</ele>
        <time>2018-07-13T17:08:43Z</time>
      </trkpt>
      <trkpt lat="27.969640" lon="-15.546626">
        <ele>1685.00</ele>
        <time>2018-07-13T17:08:44Z</time>
      </trkpt>
      <trkpt lat="27.969658" lon="-15.546642">
        <ele>1685.00</ele>
        <time>2018-07-13T17:08:45Z</time>
      </trkpt>
      <trkpt lat="27.969674" lon="-15.546658">
        <ele>1684.00</ele>
        <time>2018-07-13T17:08:46Z</time>
      </trkpt>
      <trkpt lat="27.969694" lon="-15.546675">
        <ele>1683.80</ele>
        <time>2018-07-13T17:08:47Z</time>
      </trkpt>
      <trkpt lat="27.969714" lon="-15.546687">
        <ele>1683.80</ele>
        <time>2018-07-13T17:08:48Z</time>
      </trkpt>
      <trkpt lat="27.969734" lon="-15.546704">
        <ele>1684.00</ele>
        <time>2018-07-13T17:08:49Z</time>
      </trkpt>
      <trkpt lat="27.969746" lon="-15.546723">
        <ele>1684.00</ele>
        <time>2018-07-13T17:08:50Z</time>
      </trkpt>
      <trkpt lat="27.969752" lon="-15.546746">
        <ele>1683.40</ele>
        <time>2018-07-13T17:08:51Z</time>
      </trkpt>
      <trkpt lat="27.969767" lon="-15.546763">
        <ele>1683.60</ele>
        <time>2018-07-13T17:08:52Z</time>
      </trkpt>
      <trkpt lat="27.969797" lon="-15.546797">
        <ele>1684.20</ele>
        <time>2018-07-13T17:08:54Z</time>
      </trkpt>
      <trkpt lat="27.969832" lon="-15.546852">
        <ele>1684.40</ele>
        <time>2018-07-13T17:08:59Z</time>
      </trkpt>
      <trkpt lat="27.969856" lon="-15.546862">
        <ele>1684.40</ele>
        <time>2018-07-13T17:09:01Z</time>
      </trkpt>
      <trkpt lat="27.969879" lon="-15.546864">
        <ele>1684.40</ele>
        <time>2018-07-13T17:09:02Z</time>
      </trkpt>
      <trkpt lat="27.969906" lon="-15.546853">
        <ele>1684.60</ele>
        <time>2018-07-13T17:09:03Z</time>
      </trkpt>
      <trkpt lat="27.969932" lon="-15.546838">
        <ele>1685.20</ele>
        <time>2018-07-13T17:09:04Z</time>
      </trkpt>
      <trkpt lat="27.969952" lon="-15.546834">
        <ele>1685.20</ele>
        <time>2018-07-13T17:09:05Z</time>
      </trkpt>
      <trkpt lat="27.969978" lon="-15.546849">
        <ele>1685.40</ele>
        <time>2018-07-13T17:09:07Z</time>
      </trkpt>
      <trkpt lat="27.969989" lon="-15.546871">
        <ele>1685.40</ele>
        <time>2018-07-13T17:09:08Z</time>
      </trkpt>
      <trkpt lat="27.970013" lon="-15.546917">
        <ele>1684.20</ele>
        <time>2018-07-13T17:09:10Z</time>
      </trkpt>
      <trkpt lat="27.970029" lon="-15.546940">
        <ele>1683.60</ele>
        <time>2018-07-13T17:09:11Z</time>
      </trkpt>
      <trkpt lat="27.970066" lon="-15.547042">
        <ele>1683.20</ele>
        <time>2018-07-13T17:09:16Z</time>
      </trkpt>
      <trkpt lat="27.970087" lon="-15.547072">
        <ele>1683.20</ele>
        <time>2018-07-13T17:09:18Z</time>
      </trkpt>
      <trkpt lat="27.970093" lon="-15.547106">
        <ele>1683.00</ele>
        <time>2018-07-13T17:09:20Z</time>
      </trkpt>
      <trkpt lat="27.970093" lon="-15.547135">
        <ele>1683.40</ele>
        <time>2018-07-13T17:09:22Z</time>
      </trkpt>
      <trkpt lat="27.970092" lon="-15.547161">
        <ele>1683.40</ele>
        <time>2018-07-13T17:09:24Z</time>
      </trkpt>
      <trkpt lat="27.970098" lon="-15.547195">
        <ele>1684.00</ele>
        <time>2018-07-13T17:09:26Z</time>
      </trkpt>
      <trkpt lat="27.970100" lon="-15.547225">
        <ele>1684.20</ele>
        <time>2018-07-13T17:09:28Z</time>
      </trkpt>
      <trkpt lat="27.970095" lon="-15.547254">
        <ele>1684.80</ele>
        <time>2018-07-13T17:09:30Z</time>
      </trkpt>
      <trkpt lat="27.970108" lon="-15.547280">
        <ele>1685.20</ele>
        <time>2018-07-13T17:09:32Z</time>
      </trkpt>
      <trkpt lat="27.970121" lon="-15.547309">
        <ele>1685.20</ele>
        <time>2018-07-13T17:09:34Z</time>
      </trkpt>
      <trkpt lat="27.970129" lon="-15.547333">
        <ele>1685.20</ele>
        <time>2018-07-13T17:09:36Z</time>
      </trkpt>
      <trkpt lat="27.970148" lon="-15.547358">
        <ele>1685.80</ele>
        <time>2018-07-13T17:09:38Z</time>
      </trkpt>
      <trkpt lat="27.970171" lon="-15.547376">
        <ele>1686.40</ele>
        <time>2018-07-13T17:09:40Z</time>
      </trkpt>
      <trkpt lat="27.970198" lon="-15.547387">
        <ele>1686.80</ele>
        <time>2018-07-13T17:09:42Z</time>
      </trkpt>
      <trkpt lat="27.970229" lon="-15.547395">
        <ele>1687.20</ele>
        <time>2018-07-13T17:09:44Z</time>
      </trkpt>
      <trkpt lat="27.970246" lon="-15.547402">
        <ele>1687.40</ele>
        <time>2018-07-13T17:09:45Z</time>
      </trkpt>
      <trkpt lat="27.970279" lon="-15.547409">
        <ele>1687.60</ele>
        <time>2018-07-13T17:09:47Z</time>
      </trkpt>
      <trkpt lat="27.970303" lon="-15.547409">
        <ele>1687.60</ele>
        <time>2018-07-13T17:09:48Z</time>
      </trkpt>
      <trkpt lat="27.970322" lon="-15.547407">
        <ele>1687.60</ele>
        <time>2018-07-13T17:09:49Z</time>
      </trkpt>
      <trkpt lat="27.970343" lon="-15.547402">
        <ele>1687.60</ele>
        <time>2018-07-13T17:09:50Z</time>
      </trkpt>
      <trkpt lat="27.970366" lon="-15.547397">
        <ele>1687.40</ele>
        <time>2018-07-13T17:09:51Z</time>
      </trkpt>
      <trkpt lat="27.970384" lon="-15.547390">
        <ele>1687.40</ele>
        <time>2018-07-13T17:09:52Z</time>
      </trkpt>
      <trkpt lat="27.970418" lon="-15.547372">
        <ele>1687.20</ele>
        <time>2018-07-13T17:09:54Z</time>
      </trkpt>
      <trkpt lat="27.970438" lon="-15.547363">
        <ele>1686.80</ele>
        <time>2018-07-13T17:09:55Z</time>
      </trkpt>
      <trkpt lat="27.970470" lon="-15.547348">
        <ele>1686.60</ele>
        <time>2018-07-13T17:09:57Z</time>
      </trkpt>
      <trkpt lat="27.970504" lon="-15.547342">
        <ele>1686.60</ele>
        <time>2018-07-13T17:09:59Z</time>
      </trkpt>
      <trkpt lat="27.970534" lon="-15.547340">
        <ele>1686.60</ele>
        <time>2018-07-13T17:10:01Z</time>
      </trkpt>
      <trkpt lat="27.970538" lon="-15.547363">
        <ele>1687.00</ele>
        <time>2018-07-13T17:10:04Z</time>
      </trkpt>
      <trkpt lat="27.970529" lon="-15.547394">
        <ele>1688.60</ele>
        <time>2018-07-13T17:10:07Z</time>
      </trkpt>
      <trkpt lat="27.970522" lon="-15.547417">
        <ele>1688.80</ele>
        <time>2018-07-13T17:10:09Z</time>
      </trkpt>
      <trkpt lat="27.970520" lon="-15.547444">
        <ele>1689.20</ele>
        <time>2018-07-13T17:10:11Z</time>
      </trkpt>
      <trkpt lat="27.970521" lon="-15.547473">
        <ele>1689.20</ele>
        <time>2018-07-13T17:10:13Z</time>
      </trkpt>
      <trkpt lat="27.970521" lon="-15.547500">
        <ele>1690.60</ele>
        <time>2018-07-13T17:10:15Z</time>
      </trkpt>
      <trkpt lat="27.970522" lon="-15.547524">
        <ele>1691.00</ele>
        <time>2018-07-13T17:10:17Z</time>
      </trkpt>
      <trkpt lat="27.970528" lon="-15.547544">
        <ele>1691.40</ele>
        <time>2018-07-13T17:10:19Z</time>
      </trkpt>
      <trkpt lat="27.970536" lon="-15.547568">
        <ele>1692.60</ele>
        <time>2018-07-13T17:10:21Z</time>
      </trkpt>
      <trkpt lat="27.970540" lon="-15.547591">
        <ele>1692.80</ele>
        <time>2018-07-13T17:10:23Z</time>
      </trkpt>
      <trkpt lat="27.970544" lon="-15.547617">
        <ele>1693.20</ele>
        <time>2018-07-13T17:10:25Z</time>
      </trkpt>
      <trkpt lat="27.970548" lon="-15.547640">
        <ele>1693.60</ele>
        <time>2018-07-13T17:10:27Z</time>
      </trkpt>
      <trkpt lat="27.970553" lon="-15.547661">
        <ele>1694.00</ele>
        <time>2018-07-13T17:10:29Z</time>
      </trkpt>
      <trkpt lat="27.970556" lon="-15.547684">
        <ele>1694.40</ele>
        <time>2018-07-13T17:10:31Z</time>
      </trkpt>
      <trkpt lat="27.970562" lon="-15.547706">
        <ele>1694.80</ele>
        <time>2018-07-13T17:10:34Z</time>
      </trkpt>
      <trkpt lat="27.970558" lon="-15.547728">
        <ele>1695.80</ele>
        <time>2018-07-13T17:10:40Z</time>
      </trkpt>
      <trkpt lat="27.970556" lon="-15.547756">
        <ele>1696.20</ele>
        <time>2018-07-13T17:10:43Z</time>
      </trkpt>
      <trkpt lat="27.970553" lon="-15.547779">
        <ele>1696.60</ele>
        <time>2018-07-13T17:10:45Z</time>
      </trkpt>
      <trkpt lat="27.970551" lon="-15.547803">
        <ele>1696.60</ele>
        <time>2018-07-13T17:10:47Z</time>
      </trkpt>
      <trkpt lat="27.970550" lon="-15.547826">
        <ele>1696.80</ele>
        <time>2018-07-13T17:10:49Z</time>
      </trkpt>
      <trkpt lat="27.970541" lon="-15.547848">
        <ele>1697.60</ele>
        <time>2018-07-13T17:10:51Z</time>
      </trkpt>
      <trkpt lat="27.970540" lon="-15.547872">
        <ele>1698.00</ele>
        <time>2018-07-13T17:10:53Z</time>
      </trkpt>
      <trkpt lat="27.970544" lon="-15.547902">
        <ele>1698.40</ele>
        <time>2018-07-13T17:10:56Z</time>
      </trkpt>
      <trkpt lat="27.970541" lon="-15.547930">
        <ele>1698.60</ele>
        <time>2018-07-13T17:10:58Z</time>
      </trkpt>
      <trkpt lat="27.970543" lon="-15.547959">
        <ele>1699.79</ele>
        <time>2018-07-13T17:11:01Z</time>
      </trkpt>
      <trkpt lat="27.970549" lon="-15.547984">
        <ele>1699.80</ele>
        <time>2018-07-13T17:11:03Z</time>
      </trkpt>
      <trkpt lat="27.970550" lon="-15.548010">
        <ele>1700.20</ele>
        <time>2018-07-13T17:11:05Z</time>
      </trkpt>
      <trkpt lat="27.970547" lon="-15.548034">
        <ele>1700.20</ele>
        <time>2018-07-13T17:11:07Z</time>
      </trkpt>
      <trkpt lat="27.970543" lon="-15.548060">
        <ele>1700.20</ele>
        <time>2018-07-13T17:11:09Z</time>
      </trkpt>
      <trkpt lat="27.970535" lon="-15.548089">
        <ele>1700.40</ele>
        <time>2018-07-13T17:11:11Z</time>
      </trkpt>
      <trkpt lat="27.970526" lon="-15.548120">
        <ele>1700.80</ele>
        <time>2018-07-13T17:11:13Z</time>
      </trkpt>
      <trkpt lat="27.970524" lon="-15.548150">
        <ele>1700.80</ele>
        <time>2018-07-13T17:11:15Z</time>
      </trkpt>
      <trkpt lat="27.970528" lon="-15.548178">
        <ele>1701.60</ele>
        <time>2018-07-13T17:11:17Z</time>
      </trkpt>
      <trkpt lat="27.970530" lon="-15.548204">
        <ele>1701.80</ele>
        <time>2018-07-13T17:11:19Z</time>
      </trkpt>
      <trkpt lat="27.970519" lon="-15.548228">
        <ele>1702.00</ele>
        <time>2018-07-13T17:11:21Z</time>
      </trkpt>
      <trkpt lat="27.970516" lon="-15.548260">
        <ele>1702.00</ele>
        <time>2018-07-13T17:11:23Z</time>
      </trkpt>
      <trkpt lat="27.970526" lon="-15.548295">
        <ele>1702.80</ele>
        <time>2018-07-13T17:11:25Z</time>
      </trkpt>
      <trkpt lat="27.970532" lon="-15.548328">
        <ele>1702.80</ele>
        <time>2018-07-13T17:11:27Z</time>
      </trkpt>
      <trkpt lat="27.970537" lon="-15.548357">
        <ele>1702.80</ele>
        <time>2018-07-13T17:11:29Z</time>
      </trkpt>
      <trkpt lat="27.970541" lon="-15.548380">
        <ele>1702.80</ele>
        <time>2018-07-13T17:11:31Z</time>
      </trkpt>
      <trkpt lat="27.970538" lon="-15.548405">
        <ele>1703.20</ele>
        <time>2018-07-13T17:11:33Z</time>
      </trkpt>
      <trkpt lat="27.970547" lon="-15.548431">
        <ele>1703.60</ele>
        <time>2018-07-13T17:11:35Z</time>
      </trkpt>
      <trkpt lat="27.970556" lon="-15.548454">
        <ele>1703.60</ele>
        <time>2018-07-13T17:11:37Z</time>
      </trkpt>
      <trkpt lat="27.970569" lon="-15.548480">
        <ele>1703.80</ele>
        <time>2018-07-13T17:11:39Z</time>
      </trkpt>
      <trkpt lat="27.970591" lon="-15.548507">
        <ele>1704.00</ele>
        <time>2018-07-13T17:11:41Z</time>
      </trkpt>
      <trkpt lat="27.970605" lon="-15.548522">
        <ele>1704.20</ele>
        <time>2018-07-13T17:11:42Z</time>
      </trkpt>
      <trkpt lat="27.970629" lon="-15.548546">
        <ele>1704.60</ele>
        <time>2018-07-13T17:11:44Z</time>
      </trkpt>
      <trkpt lat="27.970639" lon="-15.548567">
        <ele>1705.00</ele>
        <time>2018-07-13T17:11:46Z</time>
      </trkpt>
      <trkpt lat="27.970658" lon="-15.548593">
        <ele>1705.00</ele>
        <time>2018-07-13T17:11:48Z</time>
      </trkpt>
      <trkpt lat="27.970680" lon="-15.548616">
        <ele>1705.20</ele>
        <time>2018-07-13T17:11:50Z</time>
      </trkpt>
      <trkpt lat="27.970717" lon="-15.548644">
        <ele>1705.80</ele>
        <time>2018-07-13T17:11:53Z</time>
      </trkpt>
      <trkpt lat="27.970729" lon="-15.548655">
        <ele>1706.00</ele>
        <time>2018-07-13T17:11:54Z</time>
      </trkpt>
      <trkpt lat="27.970752" lon="-15.548677">
        <ele>1706.20</ele>
        <time>2018-07-13T17:11:56Z</time>
      </trkpt>
      <trkpt lat="27.970769" lon="-15.548699">
        <ele>1706.20</ele>
        <time>2018-07-13T17:11:58Z</time>
      </trkpt>
      <trkpt lat="27.970770" lon="-15.548720">
        <ele>1706.20</ele>
        <time>2018-07-13T17:12:00Z</time>
      </trkpt>
      <trkpt lat="27.970771" lon="-15.548742">
        <ele>1706.60</ele>
        <time>2018-07-13T17:12:02Z</time>
      </trkpt>
      <trkpt lat="27.970760" lon="-15.548758">
        <ele>1707.20</ele>
        <time>2018-07-13T17:12:04Z</time>
      </trkpt>
      <trkpt lat="27.970743" lon="-15.548771">
        <ele>1707.40</ele>
        <time>2018-07-13T17:12:06Z</time>
      </trkpt>
      <trkpt lat="27.970732" lon="-15.548788">
        <ele>1707.80</ele>
        <time>2018-07-13T17:12:08Z</time>
      </trkpt>
      <trkpt lat="27.970716" lon="-15.548808">
        <ele>1708.00</ele>
        <time>2018-07-13T17:12:11Z</time>
      </trkpt>
      <trkpt lat="27.970702" lon="-15.548829">
        <ele>1708.20</ele>
        <time>2018-07-13T17:12:13Z</time>
      </trkpt>
      <trkpt lat="27.970690" lon="-15.548846">
        <ele>1708.80</ele>
        <time>2018-07-13T17:12:15Z</time>
      </trkpt>
      <trkpt lat="27.970680" lon="-15.548876">
        <ele>1710.00</ele>
        <time>2018-07-13T17:12:18Z</time>
      </trkpt>
      <trkpt lat="27.970676" lon="-15.548899">
        <ele>1711.00</ele>
        <time>2018-07-13T17:12:20Z</time>
      </trkpt>
      <trkpt lat="27.970670" lon="-15.548922">
        <ele>1712.20</ele>
        <time>2018-07-13T17:12:22Z</time>
      </trkpt>
      <trkpt lat="27.970660" lon="-15.548945">
        <ele>1712.40</ele>
        <time>2018-07-13T17:12:24Z</time>
      </trkpt>
      <trkpt lat="27.970651" lon="-15.548963">
        <ele>1713.00</ele>
        <time>2018-07-13T17:12:26Z</time>
      </trkpt>
      <trkpt lat="27.970642" lon="-15.548998">
        <ele>1713.80</ele>
        <time>2018-07-13T17:12:29Z</time>
      </trkpt>
      <trkpt lat="27.970633" lon="-15.549031">
        <ele>1714.40</ele>
        <time>2018-07-13T17:12:31Z</time>
      </trkpt>
      <trkpt lat="27.970623" lon="-15.549055">
        <ele>1714.80</ele>
        <time>2018-07-13T17:12:33Z</time>
      </trkpt>
      <trkpt lat="27.970615" lon="-15.549077">
        <ele>1715.60</ele>
        <time>2018-07-13T17:12:35Z</time>
      </trkpt>
      <trkpt lat="27.970604" lon="-15.549099">
        <ele>1715.80</ele>
        <time>2018-07-13T17:12:37Z</time>
      </trkpt>
      <trkpt lat="27.970594" lon="-15.549118">
        <ele>1716.40</ele>
        <time>2018-07-13T17:12:39Z</time>
      </trkpt>
      <trkpt lat="27.970586" lon="-15.549142">
        <ele>1716.20</ele>
        <time>2018-07-13T17:12:41Z</time>
      </trkpt>
      <trkpt lat="27.970581" lon="-15.549170">
        <ele>1716.80</ele>
        <time>2018-07-13T17:12:43Z</time>
      </trkpt>
      <trkpt lat="27.970573" lon="-15.549202">
        <ele>1717.20</ele>
        <time>2018-07-13T17:12:45Z</time>
      </trkpt>
      <trkpt lat="27.970565" lon="-15.549222">
        <ele>1718.00</ele>
        <time>2018-07-13T17:12:47Z</time>
      </trkpt>
      <trkpt lat="27.970560" lon="-15.549250">
        <ele>1718.60</ele>
        <time>2018-07-13T17:12:49Z</time>
      </trkpt>
      <trkpt lat="27.970553" lon="-15.549272">
        <ele>1718.80</ele>
        <time>2018-07-13T17:12:51Z</time>
      </trkpt>
      <trkpt lat="27.970549" lon="-15.549295">
        <ele>1719.40</ele>
        <time>2018-07-13T17:12:53Z</time>
      </trkpt>
      <trkpt lat="27.970551" lon="-15.549325">
        <ele>1719.20</ele>
        <time>2018-07-13T17:12:55Z</time>
      </trkpt>
      <trkpt lat="27.970552" lon="-15.549355">
        <ele>1719.20</ele>
        <time>2018-07-13T17:12:57Z</time>
      </trkpt>
      <trkpt lat="27.970553" lon="-15.549382">
        <ele>1719.20</ele>
        <time>2018-07-13T17:12:59Z</time>
      </trkpt>
      <trkpt lat="27.970554" lon="-15.549408">
        <ele>1719.20</ele>
        <time>2018-07-13T17:13:01Z</time>
      </trkpt>
      <trkpt lat="27.970559" lon="-15.549441">
        <ele>1720.00</ele>
        <time>2018-07-13T17:13:04Z</time>
      </trkpt>
      <trkpt lat="27.970558" lon="-15.549464">
        <ele>1720.40</ele>
        <time>2018-07-13T17:13:06Z</time>
      </trkpt>
      <trkpt lat="27.970557" lon="-15.549489">
        <ele>1721.20</ele>
        <time>2018-07-13T17:13:08Z</time>
      </trkpt>
      <trkpt lat="27.970565" lon="-15.549524">
        <ele>1721.80</ele>
        <time>2018-07-13T17:13:10Z</time>
      </trkpt>
      <trkpt lat="27.970570" lon="-15.549553">
        <ele>1722.40</ele>
        <time>2018-07-13T17:13:12Z</time>
      </trkpt>
      <trkpt lat="27.970569" lon="-15.549575">
        <ele>1722.80</ele>
        <time>2018-07-13T17:13:13Z</time>
      </trkpt>
      <trkpt lat="27.970565" lon="-15.549595">
        <ele>1723.00</ele>
        <time>2018-07-13T17:13:14Z</time>
      </trkpt>
      <trkpt lat="27.970564" lon="-15.549623">
        <ele>1723.20</ele>
        <time>2018-07-13T17:13:16Z</time>
      </trkpt>
      <trkpt lat="27.970568" lon="-15.549652">
        <ele>1723.80</ele>
        <time>2018-07-13T17:13:18Z</time>
      </trkpt>
      <trkpt lat="27.970572" lon="-15.549676">
        <ele>1724.00</ele>
        <time>2018-07-13T17:13:20Z</time>
      </trkpt>
      <trkpt lat="27.970576" lon="-15.549703">
        <ele>1724.60</ele>
        <time>2018-07-13T17:13:22Z</time>
      </trkpt>
      <trkpt lat="27.970593" lon="-15.549810">
        <ele>1726.80</ele>
        <time>2018-07-13T17:13:31Z</time>
      </trkpt>
      <trkpt lat="27.970602" lon="-15.549834">
        <ele>1727.00</ele>
        <time>2018-07-13T17:13:33Z</time>
      </trkpt>
      <trkpt lat="27.970611" lon="-15.549861">
        <ele>1728.40</ele>
        <time>2018-07-13T17:13:35Z</time>
      </trkpt>
      <trkpt lat="27.970626" lon="-15.549873">
        <ele>1728.80</ele>
        <time>2018-07-13T17:13:37Z</time>
      </trkpt>
      <trkpt lat="27.970633" lon="-15.549897">
        <ele>1729.60</ele>
        <time>2018-07-13T17:13:39Z</time>
      </trkpt>
      <trkpt lat="27.970636" lon="-15.549925">
        <ele>1730.20</ele>
        <time>2018-07-13T17:13:41Z</time>
      </trkpt>
      <trkpt lat="27.970646" lon="-15.549951">
        <ele>1730.60</ele>
        <time>2018-07-13T17:13:43Z</time>
      </trkpt>
      <trkpt lat="27.970655" lon="-15.549970">
        <ele>1730.80</ele>
        <time>2018-07-13T17:13:45Z</time>
      </trkpt>
      <trkpt lat="27.970662" lon="-15.549992">
        <ele>1731.80</ele>
        <time>2018-07-13T17:13:48Z</time>
      </trkpt>
      <trkpt lat="27.970666" lon="-15.550013">
        <ele>1731.80</ele>
        <time>2018-07-13T17:13:50Z</time>
      </trkpt>
      <trkpt lat="27.970683" lon="-15.550037">
        <ele>1732.40</ele>
        <time>2018-07-13T17:13:52Z</time>
      </trkpt>
      <trkpt lat="27.970688" lon="-15.550063">
        <ele>1732.60</ele>
        <time>2018-07-13T17:13:54Z</time>
      </trkpt>
      <trkpt lat="27.970693" lon="-15.550086">
        <ele>1732.80</ele>
        <time>2018-07-13T17:13:56Z</time>
      </trkpt>
      <trkpt lat="27.970693" lon="-15.550110">
        <ele>1733.20</ele>
        <time>2018-07-13T17:13:58Z</time>
      </trkpt>
      <trkpt lat="27.970693" lon="-15.550136">
        <ele>1733.60</ele>
        <time>2018-07-13T17:14:00Z</time>
      </trkpt>
      <trkpt lat="27.970754" lon="-15.550215">
        <ele>1735.40</ele>
        <time>2018-07-13T17:14:08Z</time>
      </trkpt>
      <trkpt lat="27.970769" lon="-15.550238">
        <ele>1735.80</ele>
        <time>2018-07-13T17:14:11Z</time>
      </trkpt>
      <trkpt lat="27.970784" lon="-15.550260">
        <ele>1736.40</ele>
        <time>2018-07-13T17:14:13Z</time>
      </trkpt>
      <trkpt lat="27.970798" lon="-15.550317">
        <ele>1736.80</ele>
        <time>2018-07-13T17:14:16Z</time>
      </trkpt>
      <trkpt lat="27.970805" lon="-15.550348">
        <ele>1737.60</ele>
        <time>2018-07-13T17:14:18Z</time>
      </trkpt>
      <trkpt lat="27.970809" lon="-15.550382">
        <ele>1738.00</ele>
        <time>2018-07-13T17:14:20Z</time>
      </trkpt>
      <trkpt lat="27.970816" lon="-15.550405">
        <ele>1738.00</ele>
        <time>2018-07-13T17:14:22Z</time>
      </trkpt>
      <trkpt lat="27.970818" lon="-15.550446">
        <ele>1737.80</ele>
        <time>2018-07-13T17:14:25Z</time>
      </trkpt>
      <trkpt lat="27.970824" lon="-15.550459">
        <ele>1738.00</ele>
        <time>2018-07-13T17:14:26Z</time>
      </trkpt>
      <trkpt lat="27.970835" lon="-15.550492">
        <ele>1738.00</ele>
        <time>2018-07-13T17:14:28Z</time>
      </trkpt>
      <trkpt lat="27.970833" lon="-15.550521">
        <ele>1738.40</ele>
        <time>2018-07-13T17:14:30Z</time>
      </trkpt>
      <trkpt lat="27.970844" lon="-15.550547">
        <ele>1739.00</ele>
        <time>2018-07-13T17:14:33Z</time>
      </trkpt>
      <trkpt lat="27.970873" lon="-15.550600">
        <ele>1739.80</ele>
        <time>2018-07-13T17:14:37Z</time>
      </trkpt>
      <trkpt lat="27.970880" lon="-15.550628">
        <ele>1740.00</ele>
        <time>2018-07-13T17:14:39Z</time>
      </trkpt>
      <trkpt lat="27.970888" lon="-15.550657">
        <ele>1740.20</ele>
        <time>2018-07-13T17:14:41Z</time>
      </trkpt>
      <trkpt lat="27.970903" lon="-15.550679">
        <ele>1740.20</ele>
        <time>2018-07-13T17:14:43Z</time>
      </trkpt>
      <trkpt lat="27.970922" lon="-15.550697">
        <ele>1741.40</ele>
        <time>2018-07-13T17:14:45Z</time>
      </trkpt>
      <trkpt lat="27.970940" lon="-15.550735">
        <ele>1741.20</ele>
        <time>2018-07-13T17:14:49Z</time>
      </trkpt>
      <trkpt lat="27.970952" lon="-15.550754">
        <ele>1741.20</ele>
        <time>2018-07-13T17:14:51Z</time>
      </trkpt>
      <trkpt lat="27.970957" lon="-15.550778">
        <ele>1742.00</ele>
        <time>2018-07-13T17:14:53Z</time>
      </trkpt>
      <trkpt lat="27.970954" lon="-15.550808">
        <ele>1742.20</ele>
        <time>2018-07-13T17:14:55Z</time>
      </trkpt>
      <trkpt lat="27.970960" lon="-15.550833">
        <ele>1742.60</ele>
        <time>2018-07-13T17:14:57Z</time>
      </trkpt>
      <trkpt lat="27.970967" lon="-15.550862">
        <ele>1742.60</ele>
        <time>2018-07-13T17:14:59Z</time>
      </trkpt>
      <trkpt lat="27.970970" lon="-15.550882">
        <ele>1743.40</ele>
        <time>2018-07-13T17:15:01Z</time>
      </trkpt>
      <trkpt lat="27.970978" lon="-15.550910">
        <ele>1743.60</ele>
        <time>2018-07-13T17:15:04Z</time>
      </trkpt>
      <trkpt lat="27.970986" lon="-15.550938">
        <ele>1743.80</ele>
        <time>2018-07-13T17:15:06Z</time>
      </trkpt>
      <trkpt lat="27.970999" lon="-15.550964">
        <ele>1744.00</ele>
        <time>2018-07-13T17:15:08Z</time>
      </trkpt>
      <trkpt lat="27.971012" lon="-15.550993">
        <ele>1744.20</ele>
        <time>2018-07-13T17:15:10Z</time>
      </trkpt>
      <trkpt lat="27.971024" lon="-15.551015">
        <ele>1745.20</ele>
        <time>2018-07-13T17:15:12Z</time>
      </trkpt>
      <trkpt lat="27.971031" lon="-15.551050">
        <ele>1745.40</ele>
        <time>2018-07-13T17:15:14Z</time>
      </trkpt>
      <trkpt lat="27.971037" lon="-15.551081">
        <ele>1745.80</ele>
        <time>2018-07-13T17:15:16Z</time>
      </trkpt>
      <trkpt lat="27.971044" lon="-15.551107">
        <ele>1746.40</ele>
        <time>2018-07-13T17:15:18Z</time>
      </trkpt>
      <trkpt lat="27.971049" lon="-15.551133">
        <ele>1746.80</ele>
        <time>2018-07-13T17:15:20Z</time>
      </trkpt>
      <trkpt lat="27.971051" lon="-15.551160">
        <ele>1747.20</ele>
        <time>2018-07-13T17:15:22Z</time>
      </trkpt>
      <trkpt lat="27.971049" lon="-15.551188">
        <ele>1747.40</ele>
        <time>2018-07-13T17:15:24Z</time>
      </trkpt>
      <trkpt lat="27.971046" lon="-15.551213">
        <ele>1747.40</ele>
        <time>2018-07-13T17:15:26Z</time>
      </trkpt>
      <trkpt lat="27.971037" lon="-15.551231">
        <ele>1747.40</ele>
        <time>2018-07-13T17:15:28Z</time>
      </trkpt>
      <trkpt lat="27.971027" lon="-15.551275">
        <ele>1747.00</ele>
        <time>2018-07-13T17:15:31Z</time>
      </trkpt>
      <trkpt lat="27.971032" lon="-15.551316">
        <ele>1747.00</ele>
        <time>2018-07-13T17:15:33Z</time>
      </trkpt>
      <trkpt lat="27.971037" lon="-15.551344">
        <ele>1747.20</ele>
        <time>2018-07-13T17:15:35Z</time>
      </trkpt>
      <trkpt lat="27.971046" lon="-15.551365">
        <ele>1749.00</ele>
        <time>2018-07-13T17:15:37Z</time>
      </trkpt>
      <trkpt lat="27.971057" lon="-15.551394">
        <ele>1749.40</ele>
        <time>2018-07-13T17:15:40Z</time>
      </trkpt>
      <trkpt lat="27.971064" lon="-15.551415">
        <ele>1749.40</ele>
        <time>2018-07-13T17:15:42Z</time>
      </trkpt>
      <trkpt lat="27.971071" lon="-15.551434">
        <ele>1749.40</ele>
        <time>2018-07-13T17:15:44Z</time>
      </trkpt>
      <trkpt lat="27.971076" lon="-15.551461">
        <ele>1749.80</ele>
        <time>2018-07-13T17:15:46Z</time>
      </trkpt>
      <trkpt lat="27.971080" lon="-15.551491">
        <ele>1750.60</ele>
        <time>2018-07-13T17:15:49Z</time>
      </trkpt>
      <trkpt lat="27.971082" lon="-15.551515">
        <ele>1751.40</ele>
        <time>2018-07-13T17:15:51Z</time>
      </trkpt>
      <trkpt lat="27.971083" lon="-15.551536">
        <ele>1751.80</ele>
        <time>2018-07-13T17:15:53Z</time>
      </trkpt>
      <trkpt lat="27.971072" lon="-15.551558">
        <ele>1752.60</ele>
        <time>2018-07-13T17:15:55Z</time>
      </trkpt>
      <trkpt lat="27.971066" lon="-15.551583">
        <ele>1752.60</ele>
        <time>2018-07-13T17:15:57Z</time>
      </trkpt>
      <trkpt lat="27.971066" lon="-15.551609">
        <ele>1752.60</ele>
        <time>2018-07-13T17:15:59Z</time>
      </trkpt>
      <trkpt lat="27.971064" lon="-15.551635">
        <ele>1752.60</ele>
        <time>2018-07-13T17:16:01Z</time>
      </trkpt>
      <trkpt lat="27.971069" lon="-15.551666">
        <ele>1753.80</ele>
        <time>2018-07-13T17:16:04Z</time>
      </trkpt>
      <trkpt lat="27.971052" lon="-15.551691">
        <ele>1754.60</ele>
        <time>2018-07-13T17:16:07Z</time>
      </trkpt>
      <trkpt lat="27.971046" lon="-15.551699">
        <ele>1754.60</ele>
        <time>2018-07-13T17:16:08Z</time>
      </trkpt>
      <trkpt lat="27.971029" lon="-15.551711">
        <ele>1754.80</ele>
        <time>2018-07-13T17:16:10Z</time>
      </trkpt>
      <trkpt lat="27.971005" lon="-15.551716">
        <ele>1755.00</ele>
        <time>2018-07-13T17:16:12Z</time>
      </trkpt>
      <trkpt lat="27.971025" lon="-15.551706">
        <ele>1740.80</ele>
        <time>2018-05-25T20:26:00Z</time>
      </trkpt>
      <trkpt lat="27.971011" lon="-15.551723">
        <ele>1741.40</ele>
        <time>2018-05-25T20:26:02Z</time>
      </trkpt>
      <trkpt lat="27.970989" lon="-15.551732">
        <ele>1741.40</ele>
        <time>2018-05-25T20:26:04Z</time>
      </trkpt>
      <trkpt lat="27.970966" lon="-15.551735">
        <ele>1740.80</ele>
        <time>2018-05-25T20:26:06Z</time>
      </trkpt>
      <trkpt lat="27.970898" lon="-15.551771">
        <ele>1743.80</ele>
        <time>2018-05-25T20:26:15Z</time>
      </trkpt>
      <trkpt lat="27.970894" lon="-15.551795">
        <ele>1744.60</ele>
        <time>2018-05-25T20:26:17Z</time>
      </trkpt>
      <trkpt lat="27.970886" lon="-15.551821">
        <ele>1745.80</ele>
        <time>2018-05-25T20:26:20Z</time>
      </trkpt>
      <trkpt lat="27.970880" lon="-15.551846">
        <ele>1746.60</ele>
        <time>2018-05-25T20:26:22Z</time>
      </trkpt>
      <trkpt lat="27.970867" lon="-15.551867">
        <ele>1747.00</ele>
        <time>2018-05-25T20:26:24Z</time>
      </trkpt>
      <trkpt lat="27.970857" lon="-15.551889">
        <ele>1747.00</ele>
        <time>2018-05-25T20:26:26Z</time>
      </trkpt>
      <trkpt lat="27.970833" lon="-15.551908">
        <ele>1746.60</ele>
        <time>2018-05-25T20:26:28Z</time>
      </trkpt>
      <trkpt lat="27.970812" lon="-15.551925">
        <ele>1746.60</ele>
        <time>2018-05-25T20:26:30Z</time>
      </trkpt>
      <trkpt lat="27.970794" lon="-15.551940">
        <ele>1746.60</ele>
        <time>2018-05-25T20:26:32Z</time>
      </trkpt>
      <trkpt lat="27.970779" lon="-15.551957">
        <ele>1746.80</ele>
        <time>2018-05-25T20:26:34Z</time>
      </trkpt>
      <trkpt lat="27.970764" lon="-15.551977">
        <ele>1747.60</ele>
        <time>2018-05-25T20:26:36Z</time>
      </trkpt>
      <trkpt lat="27.970751" lon="-15.551995">
        <ele>1747.80</ele>
        <time>2018-05-25T20:26:38Z</time>
      </trkpt>
      <trkpt lat="27.970738" lon="-15.552015">
        <ele>1747.80</ele>
        <time>2018-05-25T20:26:40Z</time>
      </trkpt>
      <trkpt lat="27.970717" lon="-15.552036">
        <ele>1747.60</ele>
        <time>2018-05-25T20:26:43Z</time>
      </trkpt>
      <trkpt lat="27.970700" lon="-15.552059">
        <ele>1746.60</ele>
        <time>2018-05-25T20:26:46Z</time>
      </trkpt>
      <trkpt lat="27.970687" lon="-15.552074">
        <ele>1747.20</ele>
        <time>2018-05-25T20:26:48Z</time>
      </trkpt>
      <trkpt lat="27.970681" lon="-15.552100">
        <ele>1747.20</ele>
        <time>2018-05-25T20:26:51Z</time>
      </trkpt>
      <trkpt lat="27.970686" lon="-15.552121">
        <ele>1747.20</ele>
        <time>2018-05-25T20:26:53Z</time>
      </trkpt>
      <trkpt lat="27.970694" lon="-15.552145">
        <ele>1746.80</ele>
        <time>2018-05-25T20:26:55Z</time>
      </trkpt>
      <trkpt lat="27.970701" lon="-15.552167">
        <ele>1746.40</ele>
        <time>2018-05-25T20:26:57Z</time>
      </trkpt>
      <trkpt lat="27.970703" lon="-15.552190">
        <ele>1746.20</ele>
        <time>2018-05-25T20:26:59Z</time>
      </trkpt>
      <trkpt lat="27.970708" lon="-15.552214">
        <ele>1746.00</ele>
        <time>2018-05-25T20:27:01Z</time>
      </trkpt>
      <trkpt lat="27.970715" lon="-15.552246">
        <ele>1746.00</ele>
        <time>2018-05-25T20:27:04Z</time>
      </trkpt>
      <trkpt lat="27.970720" lon="-15.552267">
        <ele>1745.00</ele>
        <time>2018-05-25T20:27:06Z</time>
      </trkpt>
      <trkpt lat="27.970723" lon="-15.552288">
        <ele>1744.60</ele>
        <time>2018-05-25T20:27:08Z</time>
      </trkpt>
      <trkpt lat="27.970731" lon="-15.552311">
        <ele>1744.60</ele>
        <time>2018-05-25T20:27:10Z</time>
      </trkpt>
      <trkpt lat="27.970738" lon="-15.552333">
        <ele>1743.00</ele>
        <time>2018-05-25T20:27:12Z</time>
      </trkpt>
      <trkpt lat="27.970746" lon="-15.552354">
        <ele>1743.00</ele>
        <time>2018-05-25T20:27:14Z</time>
      </trkpt>
      <trkpt lat="27.970757" lon="-15.552373">
        <ele>1743.40</ele>
        <time>2018-05-25T20:27:16Z</time>
      </trkpt>
      <trkpt lat="27.970776" lon="-15.552391">
        <ele>1743.40</ele>
        <time>2018-05-25T20:27:19Z</time>
      </trkpt>
      <trkpt lat="27.970793" lon="-15.552409">
        <ele>1742.40</ele>
        <time>2018-05-25T20:27:22Z</time>
      </trkpt>
      <trkpt lat="27.970809" lon="-15.552424">
        <ele>1742.40</ele>
        <time>2018-05-25T20:27:24Z</time>
      </trkpt>
      <trkpt lat="27.970824" lon="-15.552439">
        <ele>1741.60</ele>
        <time>2018-05-25T20:27:26Z</time>
      </trkpt>
      <trkpt lat="27.970842" lon="-15.552454">
        <ele>1741.49</ele>
        <time>2018-05-25T20:27:28Z</time>
      </trkpt>
      <trkpt lat="27.970861" lon="-15.552471">
        <ele>1741.00</ele>
        <time>2018-05-25T20:27:30Z</time>
      </trkpt>
      <trkpt lat="27.970880" lon="-15.552489">
        <ele>1740.80</ele>
        <time>2018-05-25T20:27:32Z</time>
      </trkpt>
      <trkpt lat="27.970898" lon="-15.552505">
        <ele>1740.80</ele>
        <time>2018-05-25T20:27:34Z</time>
      </trkpt>
      <trkpt lat="27.970919" lon="-15.552527">
        <ele>1740.20</ele>
        <time>2018-05-25T20:27:36Z</time>
      </trkpt>
      <trkpt lat="27.970932" lon="-15.552556">
        <ele>1739.60</ele>
        <time>2018-05-25T20:27:38Z</time>
      </trkpt>
      <trkpt lat="27.970942" lon="-15.552578">
        <ele>1739.40</ele>
        <time>2018-05-25T20:27:40Z</time>
      </trkpt>
      <trkpt lat="27.970948" lon="-15.552599">
        <ele>1738.80</ele>
        <time>2018-05-25T20:27:42Z</time>
      </trkpt>
      <trkpt lat="27.970948" lon="-15.552624">
        <ele>1738.20</ele>
        <time>2018-05-25T20:27:44Z</time>
      </trkpt>
      <trkpt lat="27.970947" lon="-15.552645">
        <ele>1737.80</ele>
        <time>2018-05-25T20:27:46Z</time>
      </trkpt>
      <trkpt lat="27.970947" lon="-15.552670">
        <ele>1737.80</ele>
        <time>2018-05-25T20:27:48Z</time>
      </trkpt>
      <trkpt lat="27.970946" lon="-15.552698">
        <ele>1737.60</ele>
        <time>2018-05-25T20:27:50Z</time>
      </trkpt>
      <trkpt lat="27.970941" lon="-15.552724">
        <ele>1737.80</ele>
        <time>2018-05-25T20:27:52Z</time>
      </trkpt>
      <trkpt lat="27.970937" lon="-15.552750">
        <ele>1737.60</ele>
        <time>2018-05-25T20:27:54Z</time>
      </trkpt>
      <trkpt lat="27.970934" lon="-15.552777">
        <ele>1737.60</ele>
        <time>2018-05-25T20:27:56Z</time>
      </trkpt>
      <trkpt lat="27.970932" lon="-15.552803">
        <ele>1736.80</ele>
        <time>2018-05-25T20:27:58Z</time>
      </trkpt>
      <trkpt lat="27.970930" lon="-15.552824">
        <ele>1736.80</ele>
        <time>2018-05-25T20:28:00Z</time>
      </trkpt>
      <trkpt lat="27.970924" lon="-15.552851">
        <ele>1735.80</ele>
        <time>2018-05-25T20:28:02Z</time>
      </trkpt>
      <trkpt lat="27.970919" lon="-15.552882">
        <ele>1735.60</ele>
        <time>2018-05-25T20:28:04Z</time>
      </trkpt>
      <trkpt lat="27.970917" lon="-15.552908">
        <ele>1735.00</ele>
        <time>2018-05-25T20:28:06Z</time>
      </trkpt>
      <trkpt lat="27.970919" lon="-15.552933">
        <ele>1734.80</ele>
        <time>2018-05-25T20:28:08Z</time>
      </trkpt>
      <trkpt lat="27.970925" lon="-15.552960">
        <ele>1734.20</ele>
        <time>2018-05-25T20:28:10Z</time>
      </trkpt>
      <trkpt lat="27.970934" lon="-15.552985">
        <ele>1734.20</ele>
        <time>2018-05-25T20:28:12Z</time>
      </trkpt>
      <trkpt lat="27.970945" lon="-15.553007">
        <ele>1733.60</ele>
        <time>2018-05-25T20:28:14Z</time>
      </trkpt>
      <trkpt lat="27.970954" lon="-15.553033">
        <ele>1733.60</ele>
        <time>2018-05-25T20:28:16Z</time>
      </trkpt>
      <trkpt lat="27.970967" lon="-15.553059">
        <ele>1733.00</ele>
        <time>2018-05-25T20:28:18Z</time>
      </trkpt>
      <trkpt lat="27.970981" lon="-15.553081">
        <ele>1732.80</ele>
        <time>2018-05-25T20:28:20Z</time>
      </trkpt>
      <trkpt lat="27.970992" lon="-15.553104">
        <ele>1732.60</ele>
        <time>2018-05-25T20:28:22Z</time>
      </trkpt>
      <trkpt lat="27.971004" lon="-15.553130">
        <ele>1732.60</ele>
        <time>2018-05-25T20:28:24Z</time>
      </trkpt>
      <trkpt lat="27.971008" lon="-15.553159">
        <ele>1732.40</ele>
        <time>2018-05-25T20:28:26Z</time>
      </trkpt>
      <trkpt lat="27.971011" lon="-15.553184">
        <ele>1732.40</ele>
        <time>2018-05-25T20:28:28Z</time>
      </trkpt>
      <trkpt lat="27.971012" lon="-15.553205">
        <ele>1732.80</ele>
        <time>2018-05-25T20:28:30Z</time>
      </trkpt>
      <trkpt lat="27.971018" lon="-15.553231">
        <ele>1732.20</ele>
        <time>2018-05-25T20:28:32Z</time>
      </trkpt>
      <trkpt lat="27.971026" lon="-15.553262">
        <ele>1732.00</ele>
        <time>2018-05-25T20:28:34Z</time>
      </trkpt>
      <trkpt lat="27.971037" lon="-15.553290">
        <ele>1731.40</ele>
        <time>2018-05-25T20:28:36Z</time>
      </trkpt>
      <trkpt lat="27.971045" lon="-15.553318">
        <ele>1731.00</ele>
        <time>2018-05-25T20:28:38Z</time>
      </trkpt>
      <trkpt lat="27.971052" lon="-15.553345">
        <ele>1730.80</ele>
        <time>2018-05-25T20:28:40Z</time>
      </trkpt>
      <trkpt lat="27.971058" lon="-15.553376">
        <ele>1730.80</ele>
        <time>2018-05-25T20:28:42Z</time>
      </trkpt>
      <trkpt lat="27.971064" lon="-15.553409">
        <ele>1730.20</ele>
        <time>2018-05-25T20:28:44Z</time>
      </trkpt>
      <trkpt lat="27.971071" lon="-15.553441">
        <ele>1730.00</ele>
        <time>2018-05-25T20:28:46Z</time>
      </trkpt>
      <trkpt lat="27.971077" lon="-15.553471">
        <ele>1730.00</ele>
        <time>2018-05-25T20:28:48Z</time>
      </trkpt>
      <trkpt lat="27.971082" lon="-15.553503">
        <ele>1730.40</ele>
        <time>2018-05-25T20:28:50Z</time>
      </trkpt>
      <trkpt lat="27.971086" lon="-15.553532">
        <ele>1730.60</ele>
        <time>2018-05-25T20:28:52Z</time>
      </trkpt>
      <trkpt lat="27.971090" lon="-15.553556">
        <ele>1730.20</ele>
        <time>2018-05-25T20:28:54Z</time>
      </trkpt>
      <trkpt lat="27.971095" lon="-15.553584">
        <ele>1730.00</ele>
        <time>2018-05-25T20:28:56Z</time>
      </trkpt>
      <trkpt lat="27.971098" lon="-15.553612">
        <ele>1730.00</ele>
        <time>2018-05-25T20:28:58Z</time>
      </trkpt>
      <trkpt lat="27.971103" lon="-15.553643">
        <ele>1729.80</ele>
        <time>2018-05-25T20:29:00Z</time>
      </trkpt>
      <trkpt lat="27.971107" lon="-15.553672">
        <ele>1729.20</ele>
        <time>2018-05-25T20:29:02Z</time>
      </trkpt>
      <trkpt lat="27.971107" lon="-15.553700">
        <ele>1729.20</ele>
        <time>2018-05-25T20:29:04Z</time>
      </trkpt>
      <trkpt lat="27.971107" lon="-15.553727">
        <ele>1729.20</ele>
        <time>2018-05-25T20:29:06Z</time>
      </trkpt>
      <trkpt lat="27.971104" lon="-15.553755">
        <ele>1729.20</ele>
        <time>2018-05-25T20:29:08Z</time>
      </trkpt>
      <trkpt lat="27.971097" lon="-15.553783">
        <ele>1729.20</ele>
        <time>2018-05-25T20:29:10Z</time>
      </trkpt>
      <trkpt lat="27.971089" lon="-15.553812">
        <ele>1728.80</ele>
        <time>2018-05-25T20:29:12Z</time>
      </trkpt>
      <trkpt lat="27.971080" lon="-15.553840">
        <ele>1728.40</ele>
        <time>2018-05-25T20:29:14Z</time>
      </trkpt>
      <trkpt lat="27.971067" lon="-15.553866">
        <ele>1728.20</ele>
        <time>2018-05-25T20:29:16Z</time>
      </trkpt>
      <trkpt lat="27.971057" lon="-15.553898">
        <ele>1728.20</ele>
        <time>2018-05-25T20:29:18Z</time>
      </trkpt>
      <trkpt lat="27.971050" lon="-15.553929">
        <ele>1727.80</ele>
        <time>2018-05-25T20:29:20Z</time>
      </trkpt>
      <trkpt lat="27.971039" lon="-15.553959">
        <ele>1727.80</ele>
        <time>2018-05-25T20:29:22Z</time>
      </trkpt>
      <trkpt lat="27.971029" lon="-15.553988">
        <ele>1727.60</ele>
        <time>2018-05-25T20:29:24Z</time>
      </trkpt>
      <trkpt lat="27.971016" lon="-15.554019">
        <ele>1727.20</ele>
        <time>2018-05-25T20:29:26Z</time>
      </trkpt>
      <trkpt lat="27.971006" lon="-15.554051">
        <ele>1726.60</ele>
        <time>2018-05-25T20:29:28Z</time>
      </trkpt>
      <trkpt lat="27.971000" lon="-15.554083">
        <ele>1726.60</ele>
        <time>2018-05-25T20:29:30Z</time>
      </trkpt>
      <trkpt lat="27.970996" lon="-15.554113">
        <ele>1727.20</ele>
        <time>2018-05-25T20:29:32Z</time>
      </trkpt>
      <trkpt lat="27.970991" lon="-15.554140">
        <ele>1727.60</ele>
        <time>2018-05-25T20:29:34Z</time>
      </trkpt>
      <trkpt lat="27.970982" lon="-15.554163">
        <ele>1727.60</ele>
        <time>2018-05-25T20:29:36Z</time>
      </trkpt>
      <trkpt lat="27.970975" lon="-15.554190">
        <ele>1727.60</ele>
        <time>2018-05-25T20:29:38Z</time>
      </trkpt>
      <trkpt lat="27.970966" lon="-15.554216">
        <ele>1726.20</ele>
        <time>2018-05-25T20:29:40Z</time>
      </trkpt>
      <trkpt lat="27.970962" lon="-15.554238">
        <ele>1725.40</ele>
        <time>2018-05-25T20:29:42Z</time>
      </trkpt>
      <trkpt lat="27.970959" lon="-15.554260">
        <ele>1725.00</ele>
        <time>2018-05-25T20:29:44Z</time>
      </trkpt>
      <trkpt lat="27.970950" lon="-15.554284">
        <ele>1727.00</ele>
        <time>2018-05-25T20:29:53Z</time>
      </trkpt>
      <trkpt lat="27.970945" lon="-15.554305">
        <ele>1726.20</ele>
        <time>2018-05-25T20:29:56Z</time>
      </trkpt>
      <trkpt lat="27.970943" lon="-15.554327">
        <ele>1726.00</ele>
        <time>2018-05-25T20:29:58Z</time>
      </trkpt>
      <trkpt lat="27.970943" lon="-15.554353">
        <ele>1725.60</ele>
        <time>2018-05-25T20:30:00Z</time>
      </trkpt>
      <trkpt lat="27.970940" lon="-15.554376">
        <ele>1725.00</ele>
        <time>2018-05-25T20:30:02Z</time>
      </trkpt>
      <trkpt lat="27.970935" lon="-15.554397">
        <ele>1724.60</ele>
        <time>2018-05-25T20:30:04Z</time>
      </trkpt>
      <trkpt lat="27.970933" lon="-15.554426">
        <ele>1724.40</ele>
        <time>2018-05-25T20:30:07Z</time>
      </trkpt>
      <trkpt lat="27.970939" lon="-15.554446">
        <ele>1724.40</ele>
        <time>2018-05-25T20:30:09Z</time>
      </trkpt>
      <trkpt lat="27.970948" lon="-15.554470">
        <ele>1723.40</ele>
        <time>2018-05-25T20:30:11Z</time>
      </trkpt>
      <trkpt lat="27.970962" lon="-15.554499">
        <ele>1722.40</ele>
        <time>2018-05-25T20:30:15Z</time>
      </trkpt>
      <trkpt lat="27.970977" lon="-15.554520">
        <ele>1721.80</ele>
        <time>2018-05-25T20:30:19Z</time>
      </trkpt>
      <trkpt lat="27.970992" lon="-15.554533">
        <ele>1721.40</ele>
        <time>2018-05-25T20:30:22Z</time>
      </trkpt>
      <trkpt lat="27.970988" lon="-15.554557">
        <ele>1721.40</ele>
        <time>2018-05-25T20:30:26Z</time>
      </trkpt>
      <trkpt lat="27.970985" lon="-15.554580">
        <ele>1720.80</ele>
        <time>2018-05-25T20:30:30Z</time>
      </trkpt>
      <trkpt lat="27.970992" lon="-15.554607">
        <ele>1720.40</ele>
        <time>2018-05-25T20:30:33Z</time>
      </trkpt>
      <trkpt lat="27.970994" lon="-15.554630">
        <ele>1720.00</ele>
        <time>2018-05-25T20:30:36Z</time>
      </trkpt>
      <trkpt lat="27.970997" lon="-15.554653">
        <ele>1719.40</ele>
        <time>2018-05-25T20:30:39Z</time>
      </trkpt>
      <trkpt lat="27.970999" lon="-15.554677">
        <ele>1718.80</ele>
        <time>2018-05-25T20:30:42Z</time>
      </trkpt>
      <trkpt lat="27.971004" lon="-15.554698">
        <ele>1718.80</ele>
        <time>2018-05-25T20:30:45Z</time>
      </trkpt>
      <trkpt lat="27.971014" lon="-15.554717">
        <ele>1718.60</ele>
        <time>2018-05-25T20:30:47Z</time>
      </trkpt>
      <trkpt lat="27.971032" lon="-15.554734">
        <ele>1717.40</ele>
        <time>2018-05-25T20:30:50Z</time>
      </trkpt>
      <trkpt lat="27.971051" lon="-15.554743">
        <ele>1716.00</ele>
        <time>2018-05-25T20:30:54Z</time>
      </trkpt>
      <trkpt lat="27.971073" lon="-15.554756">
        <ele>1716.00</ele>
        <time>2018-05-25T20:30:57Z</time>
      </trkpt>
      <trkpt lat="27.971087" lon="-15.554780">
        <ele>1715.20</ele>
        <time>2018-05-25T20:31:01Z</time>
      </trkpt>
      <trkpt lat="27.971097" lon="-15.554799">
        <ele>1715.20</ele>
        <time>2018-05-25T20:31:03Z</time>
      </trkpt>
      <trkpt lat="27.971105" lon="-15.554819">
        <ele>1714.80</ele>
        <time>2018-05-25T20:31:06Z</time>
      </trkpt>
      <trkpt lat="27.971111" lon="-15.554839">
        <ele>1714.60</ele>
        <time>2018-05-25T20:31:09Z</time>
      </trkpt>
      <trkpt lat="27.971117" lon="-15.554860">
        <ele>1714.00</ele>
        <time>2018-05-25T20:31:12Z</time>
      </trkpt>
      <trkpt lat="27.971115" lon="-15.554888">
        <ele>1713.00</ele>
        <time>2018-05-25T20:31:16Z</time>
      </trkpt>
      <trkpt lat="27.971115" lon="-15.554912">
        <ele>1712.60</ele>
        <time>2018-05-25T20:31:19Z</time>
      </trkpt>
      <trkpt lat="27.971115" lon="-15.554937">
        <ele>1711.60</ele>
        <time>2018-05-25T20:31:22Z</time>
      </trkpt>
      <trkpt lat="27.971105" lon="-15.554963">
        <ele>1711.00</ele>
        <time>2018-05-25T20:31:25Z</time>
      </trkpt>
      <trkpt lat="27.971096" lon="-15.554987">
        <ele>1708.80</ele>
        <time>2018-05-25T20:31:30Z</time>
      </trkpt>
      <trkpt lat="27.971085" lon="-15.555004">
        <ele>1708.20</ele>
        <time>2018-05-25T20:31:34Z</time>
      </trkpt>
      <trkpt lat="27.971084" lon="-15.555026">
        <ele>1707.40</ele>
        <time>2018-05-25T20:31:38Z</time>
      </trkpt>
      <trkpt lat="27.971067" lon="-15.555046">
        <ele>1707.40</ele>
        <time>2018-05-25T20:31:43Z</time>
      </trkpt>
      <trkpt lat="27.971046" lon="-15.555054">
        <ele>1705.80</ele>
        <time>2018-05-25T20:31:47Z</time>
      </trkpt>
      <trkpt lat="27.971036" lon="-15.555072">
        <ele>1705.60</ele>
        <time>2018-05-25T20:31:50Z</time>
      </trkpt>
      <trkpt lat="27.971023" lon="-15.555090">
        <ele>1704.80</ele>
        <time>2018-05-25T20:31:53Z</time>
      </trkpt>
      <trkpt lat="27.971010" lon="-15.555106">
        <ele>1704.60</ele>
        <time>2018-05-25T20:31:55Z</time>
      </trkpt>
      <trkpt lat="27.970999" lon="-15.555130">
        <ele>1704.60</ele>
        <time>2018-05-25T20:31:58Z</time>
      </trkpt>
      <trkpt lat="27.970991" lon="-15.555156">
        <ele>1704.00</ele>
        <time>2018-05-25T20:32:01Z</time>
      </trkpt>
      <trkpt lat="27.970984" lon="-15.555183">
        <ele>1703.60</ele>
        <time>2018-05-25T20:32:04Z</time>
      </trkpt>
      <trkpt lat="27.970975" lon="-15.555210">
        <ele>1703.20</ele>
        <time>2018-05-25T20:32:07Z</time>
      </trkpt>
      <trkpt lat="27.970954" lon="-15.555227">
        <ele>1703.20</ele>
        <time>2018-05-25T20:32:10Z</time>
      </trkpt>
      <trkpt lat="27.970936" lon="-15.555242">
        <ele>1702.40</ele>
        <time>2018-05-25T20:32:13Z</time>
      </trkpt>
      <trkpt lat="27.970925" lon="-15.555267">
        <ele>1702.20</ele>
        <time>2018-05-25T20:32:16Z</time>
      </trkpt>
      <trkpt lat="27.970914" lon="-15.555291">
        <ele>1701.60</ele>
        <time>2018-05-25T20:32:19Z</time>
      </trkpt>
      <trkpt lat="27.970909" lon="-15.555313">
        <ele>1701.40</ele>
        <time>2018-05-25T20:32:22Z</time>
      </trkpt>
      <trkpt lat="27.970903" lon="-15.555336">
        <ele>1701.40</ele>
        <time>2018-05-25T20:32:25Z</time>
      </trkpt>
      <trkpt lat="27.970895" lon="-15.555364">
        <ele>1701.20</ele>
        <time>2018-05-25T20:32:28Z</time>
      </trkpt>
      <trkpt lat="27.970889" lon="-15.555387">
        <ele>1700.20</ele>
        <time>2018-05-25T20:32:31Z</time>
      </trkpt>
      <trkpt lat="27.970882" lon="-15.555406">
        <ele>1700.00</ele>
        <time>2018-05-25T20:32:33Z</time>
      </trkpt>
      <trkpt lat="27.970874" lon="-15.555430">
        <ele>1700.00</ele>
        <time>2018-05-25T20:32:36Z</time>
      </trkpt>
      <trkpt lat="27.970877" lon="-15.555451">
        <ele>1698.80</ele>
        <time>2018-05-25T20:32:40Z</time>
      </trkpt>
      <trkpt lat="27.970884" lon="-15.555476">
        <ele>1697.80</ele>
        <time>2018-05-25T20:32:44Z</time>
      </trkpt>
      <trkpt lat="27.970901" lon="-15.555493">
        <ele>1697.00</ele>
        <time>2018-05-25T20:32:48Z</time>
      </trkpt>
      <trkpt lat="27.970922" lon="-15.555500">
        <ele>1696.40</ele>
        <time>2018-05-25T20:32:52Z</time>
      </trkpt>
      <trkpt lat="27.970942" lon="-15.555502">
        <ele>1695.00</ele>
        <time>2018-05-25T20:32:57Z</time>
      </trkpt>
      <trkpt lat="27.970957" lon="-15.555513">
        <ele>1694.40</ele>
        <time>2018-05-25T20:33:00Z</time>
      </trkpt>
      <trkpt lat="27.970971" lon="-15.555534">
        <ele>1693.80</ele>
        <time>2018-05-25T20:33:04Z</time>
      </trkpt>
      <trkpt lat="27.970972" lon="-15.555555">
        <ele>1692.40</ele>
        <time>2018-05-25T20:33:09Z</time>
      </trkpt>
      <trkpt lat="27.970972" lon="-15.555577">
        <ele>1692.00</ele>
        <time>2018-05-25T20:33:13Z</time>
      </trkpt>
      <trkpt lat="27.970987" lon="-15.555592">
        <ele>1690.00</ele>
        <time>2018-05-25T20:33:18Z</time>
      </trkpt>
      <trkpt lat="27.971003" lon="-15.555608">
        <ele>1689.80</ele>
        <time>2018-05-25T20:33:22Z</time>
      </trkpt>
      <trkpt lat="27.971018" lon="-15.555624">
        <ele>1689.20</ele>
        <time>2018-05-25T20:33:27Z</time>
      </trkpt>
      <trkpt lat="27.971024" lon="-15.555648">
        <ele>1688.40</ele>
        <time>2018-05-25T20:33:33Z</time>
      </trkpt>
      <trkpt lat="27.971037" lon="-15.555666">
        <ele>1687.00</ele>
        <time>2018-05-25T20:33:37Z</time>
      </trkpt>
      <trkpt lat="27.971046" lon="-15.555685">
        <ele>1686.40</ele>
        <time>2018-05-25T20:33:41Z</time>
      </trkpt>
      <trkpt lat="27.971056" lon="-15.555704">
        <ele>1684.60</ele>
        <time>2018-05-25T20:33:46Z</time>
      </trkpt>
      <trkpt lat="27.971061" lon="-15.555727">
        <ele>1684.00</ele>
        <time>2018-05-25T20:33:50Z</time>
      </trkpt>
      <trkpt lat="27.971070" lon="-15.555750">
        <ele>1683.80</ele>
        <time>2018-05-25T20:33:54Z</time>
      </trkpt>
      <trkpt lat="27.971077" lon="-15.555770">
        <ele>1683.20</ele>
        <time>2018-05-25T20:33:58Z</time>
      </trkpt>
      <trkpt lat="27.971088" lon="-15.555790">
        <ele>1682.40</ele>
        <time>2018-05-25T20:34:02Z</time>
      </trkpt>
      <trkpt lat="27.971096" lon="-15.555812">
        <ele>1681.60</ele>
        <time>2018-05-25T20:34:06Z</time>
      </trkpt>
      <trkpt lat="27.971105" lon="-15.555835">
        <ele>1680.80</ele>
        <time>2018-05-25T20:34:09Z</time>
      </trkpt>
      <trkpt lat="27.971109" lon="-15.555856">
        <ele>1680.60</ele>
        <time>2018-05-25T20:34:12Z</time>
      </trkpt>
      <trkpt lat="27.971107" lon="-15.555877">
        <ele>1679.80</ele>
        <time>2018-05-25T20:34:14Z</time>
      </trkpt>
      <trkpt lat="27.971099" lon="-15.555896">
        <ele>1679.60</ele>
        <time>2018-05-25T20:34:16Z</time>
      </trkpt>
      <trkpt lat="27.971084" lon="-15.555911">
        <ele>1678.80</ele>
        <time>2018-05-25T20:34:18Z</time>
      </trkpt>
      <trkpt lat="27.971064" lon="-15.555917">
        <ele>1678.60</ele>
        <time>2018-05-25T20:34:20Z</time>
      </trkpt>
      <trkpt lat="27.971043" lon="-15.555918">
        <ele>1677.80</ele>
        <time>2018-05-25T20:34:23Z</time>
      </trkpt>
      <trkpt lat="27.971030" lon="-15.555939">
        <ele>1677.40</ele>
        <time>2018-05-25T20:34:27Z</time>
      </trkpt>
      <trkpt lat="27.971018" lon="-15.555958">
        <ele>1676.20</ele>
        <time>2018-05-25T20:34:30Z</time>
      </trkpt>
      <trkpt lat="27.971002" lon="-15.555981">
        <ele>1676.00</ele>
        <time>2018-05-25T20:34:33Z</time>
      </trkpt>
      <trkpt lat="27.970987" lon="-15.555997">
        <ele>1676.00</ele>
        <time>2018-05-25T20:34:36Z</time>
      </trkpt>
      <trkpt lat="27.970972" lon="-15.556018">
        <ele>1675.60</ele>
        <time>2018-05-25T20:34:39Z</time>
      </trkpt>
      <trkpt lat="27.970959" lon="-15.556036">
        <ele>1674.60</ele>
        <time>2018-05-25T20:34:41Z</time>
      </trkpt>
      <trkpt lat="27.970945" lon="-15.556051">
        <ele>1674.40</ele>
        <time>2018-05-25T20:34:43Z</time>
      </trkpt>
      <trkpt lat="27.970932" lon="-15.556066">
        <ele>1674.20</ele>
        <time>2018-05-25T20:34:46Z</time>
      </trkpt>
      <trkpt lat="27.970918" lon="-15.556087">
        <ele>1673.40</ele>
        <time>2018-05-25T20:34:50Z</time>
      </trkpt>
      <trkpt lat="27.970902" lon="-15.556109">
        <ele>1673.20</ele>
        <time>2018-05-25T20:34:53Z</time>
      </trkpt>
      <trkpt lat="27.970887" lon="-15.556131">
        <ele>1672.80</ele>
        <time>2018-05-25T20:34:56Z</time>
      </trkpt>
      <trkpt lat="27.970871" lon="-15.556146">
        <ele>1672.20</ele>
        <time>2018-05-25T20:34:58Z</time>
      </trkpt>
      <trkpt lat="27.970859" lon="-15.556162">
        <ele>1672.00</ele>
        <time>2018-05-25T20:35:00Z</time>
      </trkpt>
      <trkpt lat="27.970847" lon="-15.556180">
        <ele>1671.60</ele>
        <time>2018-05-25T20:35:02Z</time>
      </trkpt>
      <trkpt lat="27.970832" lon="-15.556203">
        <ele>1670.80</ele>
        <time>2018-05-25T20:35:05Z</time>
      </trkpt>
      <trkpt lat="27.970826" lon="-15.556224">
        <ele>1670.40</ele>
        <time>2018-05-25T20:35:08Z</time>
      </trkpt>
      <trkpt lat="27.970820" lon="-15.556250">
        <ele>1670.00</ele>
        <time>2018-05-25T20:35:11Z</time>
      </trkpt>
      <trkpt lat="27.970814" lon="-15.556270">
        <ele>1670.00</ele>
        <time>2018-05-25T20:35:13Z</time>
      </trkpt>
      <trkpt lat="27.970808" lon="-15.556290">
        <ele>1670.00</ele>
        <time>2018-05-25T20:35:15Z</time>
      </trkpt>
      <trkpt lat="27.970801" lon="-15.556310">
        <ele>1670.00</ele>
        <time>2018-05-25T20:35:17Z</time>
      </trkpt>
      <trkpt lat="27.970800" lon="-15.556331">
        <ele>1669.20</ele>
        <time>2018-05-25T20:35:19Z</time>
      </trkpt>
      <trkpt lat="27.970798" lon="-15.556352">
        <ele>1669.00</ele>
        <time>2018-05-25T20:35:21Z</time>
      </trkpt>
      <trkpt lat="27.970799" lon="-15.556373">
        <ele>1669.00</ele>
        <time>2018-05-25T20:35:23Z</time>
      </trkpt>
      <trkpt lat="27.970807" lon="-15.556400">
        <ele>1669.00</ele>
        <time>2018-05-25T20:35:26Z</time>
      </trkpt>
      <trkpt lat="27.970820" lon="-15.556418">
        <ele>1669.00</ele>
        <time>2018-05-25T20:35:28Z</time>
      </trkpt>
      <trkpt lat="27.970839" lon="-15.556431">
        <ele>1668.60</ele>
        <time>2018-05-25T20:35:30Z</time>
      </trkpt>
      <trkpt lat="27.970861" lon="-15.556447">
        <ele>1668.40</ele>
        <time>2018-05-25T20:35:32Z</time>
      </trkpt>
      <trkpt lat="27.970878" lon="-15.556463">
        <ele>1668.00</ele>
        <time>2018-05-25T20:35:34Z</time>
      </trkpt>
      <trkpt lat="27.970896" lon="-15.556488">
        <ele>1668.20</ele>
        <time>2018-05-25T20:35:36Z</time>
      </trkpt>
      <trkpt lat="27.970904" lon="-15.556520">
        <ele>1668.20</ele>
        <time>2018-05-25T20:35:39Z</time>
      </trkpt>
      <trkpt lat="27.970914" lon="-15.556541">
        <ele>1668.20</ele>
        <time>2018-05-25T20:35:41Z</time>
      </trkpt>
      <trkpt lat="27.970925" lon="-15.556564">
        <ele>1667.80</ele>
        <time>2018-05-25T20:35:43Z</time>
      </trkpt>
      <trkpt lat="27.970936" lon="-15.556585">
        <ele>1667.80</ele>
        <time>2018-05-25T20:35:45Z</time>
      </trkpt>
      <trkpt lat="27.970947" lon="-15.556609">
        <ele>1667.80</ele>
        <time>2018-05-25T20:35:48Z</time>
      </trkpt>
      <trkpt lat="27.970958" lon="-15.556634">
        <ele>1667.80</ele>
        <time>2018-05-25T20:35:51Z</time>
      </trkpt>
      <trkpt lat="27.970967" lon="-15.556655">
        <ele>1667.80</ele>
        <time>2018-05-25T20:35:53Z</time>
      </trkpt>
      <trkpt lat="27.970979" lon="-15.556672">
        <ele>1667.80</ele>
        <time>2018-05-25T20:35:55Z</time>
      </trkpt>
      <trkpt lat="27.970990" lon="-15.556697">
        <ele>1667.80</ele>
        <time>2018-05-25T20:35:58Z</time>
      </trkpt>
      <trkpt lat="27.970994" lon="-15.556720">
        <ele>1667.40</ele>
        <time>2018-05-25T20:36:01Z</time>
      </trkpt>
      <trkpt lat="27.971005" lon="-15.556742">
        <ele>1667.20</ele>
        <time>2018-05-25T20:36:04Z</time>
      </trkpt>
      <trkpt lat="27.971017" lon="-15.556766">
        <ele>1667.60</ele>
        <time>2018-05-25T20:36:07Z</time>
      </trkpt>
      <trkpt lat="27.971029" lon="-15.556788">
        <ele>1667.80</ele>
        <time>2018-05-25T20:36:09Z</time>
      </trkpt>
      <trkpt lat="27.971038" lon="-15.556806">
        <ele>1667.60</ele>
        <time>2018-05-25T20:36:11Z</time>
      </trkpt>
      <trkpt lat="27.971046" lon="-15.556828">
        <ele>1667.40</ele>
        <time>2018-05-25T20:36:13Z</time>
      </trkpt>
      <trkpt lat="27.971056" lon="-15.556846">
        <ele>1667.20</ele>
        <time>2018-05-25T20:36:15Z</time>
      </trkpt>
      <trkpt lat="27.971069" lon="-15.556862">
        <ele>1667.20</ele>
        <time>2018-05-25T20:36:17Z</time>
      </trkpt>
      <trkpt lat="27.971083" lon="-15.556877">
        <ele>1666.60</ele>
        <time>2018-05-25T20:36:19Z</time>
      </trkpt>
      <trkpt lat="27.971097" lon="-15.556896">
        <ele>1666.60</ele>
        <time>2018-05-25T20:36:21Z</time>
      </trkpt>
      <trkpt lat="27.971109" lon="-15.556914">
        <ele>1666.80</ele>
        <time>2018-05-25T20:36:23Z</time>
      </trkpt>
      <trkpt lat="27.971123" lon="-15.556929">
        <ele>1666.80</ele>
        <time>2018-05-25T20:36:25Z</time>
      </trkpt>
      <trkpt lat="27.971139" lon="-15.556946">
        <ele>1666.80</ele>
        <time>2018-05-25T20:36:27Z</time>
      </trkpt>
      <trkpt lat="27.971152" lon="-15.556966">
        <ele>1666.80</ele>
        <time>2018-05-25T20:36:29Z</time>
      </trkpt>
      <trkpt lat="27.971162" lon="-15.556990">
        <ele>1666.40</ele>
        <time>2018-05-25T20:36:31Z</time>
      </trkpt>
      <trkpt lat="27.971171" lon="-15.557014">
        <ele>1666.00</ele>
        <time>2018-05-25T20:36:33Z</time>
      </trkpt>
      <trkpt lat="27.971179" lon="-15.557036">
        <ele>1666.00</ele>
        <time>2018-05-25T20:36:35Z</time>
      </trkpt>
      <trkpt lat="27.971179" lon="-15.557062">
        <ele>1665.80</ele>
        <time>2018-05-25T20:36:37Z</time>
      </trkpt>
      <trkpt lat="27.971175" lon="-15.557088">
        <ele>1666.00</ele>
        <time>2018-05-25T20:36:39Z</time>
      </trkpt>
      <trkpt lat="27.971171" lon="-15.557117">
        <ele>1666.20</ele>
        <time>2018-05-25T20:36:41Z</time>
      </trkpt>
      <trkpt lat="27.971169" lon="-15.557140">
        <ele>1666.40</ele>
        <time>2018-05-25T20:36:43Z</time>
      </trkpt>
      <trkpt lat="27.971168" lon="-15.557167">
        <ele>1666.40</ele>
        <time>2018-05-25T20:36:45Z</time>
      </trkpt>
      <trkpt lat="27.971169" lon="-15.557188">
        <ele>1666.40</ele>
        <time>2018-05-25T20:36:47Z</time>
      </trkpt>
      <trkpt lat="27.971172" lon="-15.557210">
        <ele>1666.40</ele>
        <time>2018-05-25T20:36:49Z</time>
      </trkpt>
      <trkpt lat="27.971180" lon="-15.557235">
        <ele>1665.20</ele>
        <time>2018-05-25T20:36:52Z</time>
      </trkpt>
      <trkpt lat="27.971188" lon="-15.557261">
        <ele>1664.60</ele>
        <time>2018-05-25T20:36:57Z</time>
      </trkpt>
      <trkpt lat="27.971191" lon="-15.557287">
        <ele>1664.20</ele>
        <time>2018-05-25T20:37:00Z</time>
      </trkpt>
      <trkpt lat="27.971196" lon="-15.557311">
        <ele>1663.60</ele>
        <time>2018-05-25T20:37:03Z</time>
      </trkpt>
      <trkpt lat="27.971209" lon="-15.557328">
        <ele>1663.00</ele>
        <time>2018-05-25T20:37:05Z</time>
      </trkpt>
      <trkpt lat="27.971221" lon="-15.557349">
        <ele>1663.00</ele>
        <time>2018-05-25T20:37:07Z</time>
      </trkpt>
      <trkpt lat="27.971224" lon="-15.557381">
        <ele>1662.40</ele>
        <time>2018-05-25T20:37:10Z</time>
      </trkpt>
      <trkpt lat="27.971241" lon="-15.557395">
        <ele>1662.20</ele>
        <time>2018-05-25T20:37:13Z</time>
      </trkpt>
      <trkpt lat="27.971261" lon="-15.557402">
        <ele>1661.60</ele>
        <time>2018-05-25T20:37:15Z</time>
      </trkpt>
      <trkpt lat="27.971278" lon="-15.557418">
        <ele>1661.00</ele>
        <time>2018-05-25T20:37:17Z</time>
      </trkpt>
      <trkpt lat="27.971286" lon="-15.557440">
        <ele>1661.00</ele>
        <time>2018-05-25T20:37:19Z</time>
      </trkpt>
      <trkpt lat="27.971279" lon="-15.557467">
        <ele>1660.20</ele>
        <time>2018-05-25T20:37:22Z</time>
      </trkpt>
      <trkpt lat="27.971272" lon="-15.557492">
        <ele>1659.60</ele>
        <time>2018-05-25T20:37:25Z</time>
      </trkpt>
      <trkpt lat="27.971254" lon="-15.557508">
        <ele>1659.60</ele>
        <time>2018-05-25T20:37:27Z</time>
      </trkpt>
      <trkpt lat="27.971230" lon="-15.557514">
        <ele>1659.40</ele>
        <time>2018-05-25T20:37:29Z</time>
      </trkpt>
      <trkpt lat="27.971208" lon="-15.557519">
        <ele>1659.00</ele>
        <time>2018-05-25T20:37:31Z</time>
      </trkpt>
      <trkpt lat="27.971187" lon="-15.557524">
        <ele>1658.40</ele>
        <time>2018-05-25T20:37:33Z</time>
      </trkpt>
      <trkpt lat="27.971169" lon="-15.557531">
        <ele>1658.40</ele>
        <time>2018-05-25T20:37:35Z</time>
      </trkpt>
      <trkpt lat="27.971147" lon="-15.557539">
        <ele>1657.80</ele>
        <time>2018-05-25T20:37:37Z</time>
      </trkpt>
      <trkpt lat="27.971131" lon="-15.557552">
        <ele>1656.40</ele>
        <time>2018-05-25T20:37:40Z</time>
      </trkpt>
      <trkpt lat="27.971119" lon="-15.557570">
        <ele>1656.20</ele>
        <time>2018-05-25T20:37:43Z</time>
      </trkpt>
      <trkpt lat="27.971132" lon="-15.557592">
        <ele>1655.40</ele>
        <time>2018-05-25T20:37:48Z</time>
      </trkpt>
      <trkpt lat="27.971150" lon="-15.557592">
        <ele>1654.20</ele>
        <time>2018-05-25T20:37:51Z</time>
      </trkpt>
      <trkpt lat="27.971161" lon="-15.557613">
        <ele>1654.00</ele>
        <time>2018-05-25T20:37:55Z</time>
      </trkpt>
      <trkpt lat="27.971161" lon="-15.557634">
        <ele>1653.80</ele>
        <time>2018-05-25T20:37:58Z</time>
      </trkpt>
      <trkpt lat="27.971142" lon="-15.557639">
        <ele>1652.80</ele>
        <time>2018-05-25T20:38:01Z</time>
      </trkpt>
      <trkpt lat="27.971123" lon="-15.557639">
        <ele>1651.80</ele>
        <time>2018-05-25T20:38:04Z</time>
      </trkpt>
      <trkpt lat="27.971104" lon="-15.557637">
        <ele>1650.40</ele>
        <time>2018-05-25T20:38:06Z</time>
      </trkpt>
      <trkpt lat="27.971080" lon="-15.557641">
        <ele>1650.00</ele>
        <time>2018-05-25T20:38:09Z</time>
      </trkpt>
      <trkpt lat="27.971072" lon="-15.557664">
        <ele>1649.00</ele>
        <time>2018-05-25T20:38:15Z</time>
      </trkpt>
      <trkpt lat="27.971069" lon="-15.557688">
        <ele>1648.60</ele>
        <time>2018-05-25T20:38:19Z</time>
      </trkpt>
      <trkpt lat="27.971071" lon="-15.557713">
        <ele>1647.60</ele>
        <time>2018-05-25T20:38:23Z</time>
      </trkpt>
      <trkpt lat="27.971083" lon="-15.557739">
        <ele>1646.60</ele>
        <time>2018-05-25T20:38:26Z</time>
      </trkpt>
      <trkpt lat="27.971088" lon="-15.557760">
        <ele>1646.20</ele>
        <time>2018-05-25T20:38:30Z</time>
      </trkpt>
      <trkpt lat="27.971092" lon="-15.557780">
        <ele>1645.60</ele>
        <time>2018-05-25T20:38:33Z</time>
      </trkpt>
      <trkpt lat="27.971091" lon="-15.557803">
        <ele>1644.60</ele>
        <time>2018-05-25T20:38:38Z</time>
      </trkpt>
      <trkpt lat="27.971093" lon="-15.557824">
        <ele>1644.40</ele>
        <time>2018-05-25T20:38:41Z</time>
      </trkpt>
      <trkpt lat="27.971083" lon="-15.557845">
        <ele>1643.60</ele>
        <time>2018-05-25T20:38:45Z</time>
      </trkpt>
      <trkpt lat="27.971074" lon="-15.557873">
        <ele>1643.40</ele>
        <time>2018-05-25T20:38:48Z</time>
      </trkpt>
      <trkpt lat="27.971063" lon="-15.557898">
        <ele>1642.60</ele>
        <time>2018-05-25T20:38:51Z</time>
      </trkpt>
      <trkpt lat="27.971059" lon="-15.557921">
        <ele>1641.80</ele>
        <time>2018-05-25T20:38:53Z</time>
      </trkpt>
      <trkpt lat="27.971053" lon="-15.557943">
        <ele>1641.40</ele>
        <time>2018-05-25T20:38:55Z</time>
      </trkpt>
      <trkpt lat="27.971051" lon="-15.557975">
        <ele>1641.00</ele>
        <time>2018-05-25T20:38:58Z</time>
      </trkpt>
      <trkpt lat="27.971057" lon="-15.558000">
        <ele>1640.20</ele>
        <time>2018-05-25T20:39:01Z</time>
      </trkpt>
      <trkpt lat="27.971056" lon="-15.558031">
        <ele>1639.80</ele>
        <time>2018-05-25T20:39:04Z</time>
      </trkpt>
      <trkpt lat="27.971052" lon="-15.558061">
        <ele>1639.80</ele>
        <time>2018-05-25T20:39:07Z</time>
      </trkpt>
      <trkpt lat="27.971065" lon="-15.558075">
        <ele>1640.00</ele>
        <time>2018-05-25T20:39:11Z</time>
      </trkpt>
      <trkpt lat="27.971083" lon="-15.558061">
        <ele>1639.00</ele>
        <time>2018-05-25T20:39:14Z</time>
      </trkpt>
      <trkpt lat="27.971096" lon="-15.558041">
        <ele>1638.40</ele>
        <time>2018-05-25T20:39:16Z</time>
      </trkpt>
      <trkpt lat="27.971113" lon="-15.558018">
        <ele>1637.80</ele>
        <time>2018-05-25T20:39:18Z</time>
      </trkpt>
      <trkpt lat="27.971126" lon="-15.557997">
        <ele>1637.20</ele>
        <time>2018-05-25T20:39:20Z</time>
      </trkpt>
      <trkpt lat="27.971141" lon="-15.557982">
        <ele>1637.20</ele>
        <time>2018-05-25T20:39:23Z</time>
      </trkpt>
      <trkpt lat="27.971160" lon="-15.557982">
        <ele>1636.40</ele>
        <time>2018-05-25T20:39:28Z</time>
      </trkpt>
      <trkpt lat="27.971171" lon="-15.558001">
        <ele>1634.60</ele>
        <time>2018-05-25T20:39:31Z</time>
      </trkpt>
      <trkpt lat="27.971174" lon="-15.558026">
        <ele>1633.80</ele>
        <time>2018-05-25T20:39:36Z</time>
      </trkpt>
      <trkpt lat="27.971180" lon="-15.558050">
        <ele>1634.00</ele>
        <time>2018-05-25T20:39:39Z</time>
      </trkpt>
      <trkpt lat="27.971180" lon="-15.558071">
        <ele>1633.80</ele>
        <time>2018-05-25T20:39:41Z</time>
      </trkpt>
      <trkpt lat="27.971174" lon="-15.558090">
        <ele>1633.20</ele>
        <time>2018-05-25T20:39:45Z</time>
      </trkpt>
      <trkpt lat="27.971194" lon="-15.558091">
        <ele>1632.20</ele>
        <time>2018-05-25T20:39:48Z</time>
      </trkpt>
      <trkpt lat="27.971210" lon="-15.558079">
        <ele>1632.20</ele>
        <time>2018-05-25T20:39:50Z</time>
      </trkpt>
      <trkpt lat="27.971234" lon="-15.558069">
        <ele>1632.20</ele>
        <time>2018-05-25T20:39:53Z</time>
      </trkpt>
      <trkpt lat="27.971256" lon="-15.558075">
        <ele>1631.60</ele>
        <time>2018-05-25T20:39:56Z</time>
      </trkpt>
      <trkpt lat="27.971260" lon="-15.558096">
        <ele>1629.40</ele>
        <time>2018-05-25T20:40:03Z</time>
      </trkpt>
      <trkpt lat="27.971285" lon="-15.558122">
        <ele>1627.00</ele>
        <time>2018-05-25T20:40:19Z</time>
      </trkpt>
      <trkpt lat="27.971300" lon="-15.558136">
        <ele>1626.20</ele>
        <time>2018-05-25T20:40:24Z</time>
      </trkpt>
      <trkpt lat="27.971305" lon="-15.558162">
        <ele>1626.40</ele>
        <time>2018-05-25T20:40:28Z</time>
      </trkpt>
      <trkpt lat="27.971319" lon="-15.558176">
        <ele>1624.60</ele>
        <time>2018-05-25T20:40:36Z</time>
      </trkpt>
      <trkpt lat="27.971324" lon="-15.558197">
        <ele>1624.20</ele>
        <time>2018-05-25T20:40:40Z</time>
      </trkpt>
      <trkpt lat="27.971327" lon="-15.558217">
        <ele>1623.80</ele>
        <time>2018-05-25T20:40:43Z</time>
      </trkpt>
      <trkpt lat="27.971322" lon="-15.558240">
        <ele>1622.40</ele>
        <time>2018-05-25T20:40:47Z</time>
      </trkpt>
      <trkpt lat="27.971319" lon="-15.558265">
        <ele>1622.20</ele>
        <time>2018-05-25T20:40:51Z</time>
      </trkpt>
      <trkpt lat="27.971327" lon="-15.558285">
        <ele>1620.80</ele>
        <time>2018-05-25T20:40:58Z</time>
      </trkpt>
      <trkpt lat="27.971345" lon="-15.558299">
        <ele>1620.00</ele>
        <time>2018-05-25T20:41:03Z</time>
      </trkpt>
      <trkpt lat="27.971350" lon="-15.558322">
        <ele>1619.80</ele>
        <time>2018-05-25T20:41:06Z</time>
      </trkpt>
      <trkpt lat="27.971344" lon="-15.558345">
        <ele>1619.40</ele>
        <time>2018-05-25T20:41:10Z</time>
      </trkpt>
      <trkpt lat="27.971364" lon="-15.558359">
        <ele>1618.20</ele>
        <time>2018-05-25T20:41:15Z</time>
      </trkpt>
      <trkpt lat="27.971385" lon="-15.558355">
        <ele>1617.80</ele>
        <time>2018-05-25T20:41:18Z</time>
      </trkpt>
      <trkpt lat="27.971446" lon="-15.558467">
        <ele>1616.00</ele>
        <time>2016-11-26T10:29:05Z</time>
      </trkpt>
      <trkpt lat="27.971429" lon="-15.558480">
        <ele>1617.66</ele>
        <time>2016-11-26T10:29:06Z</time>
      </trkpt>
      <trkpt lat="27.971409" lon="-15.558490">
        <ele>1618.00</ele>
        <time>2016-11-26T10:29:07Z</time>
      </trkpt>
      <trkpt lat="27.971326" lon="-15.558506">
        <ele>1619.00</ele>
        <time>2016-11-26T10:29:12Z</time>
      </trkpt>
      <trkpt lat="27.971235" lon="-15.558493">
        <ele>1625.00</ele>
        <time>2016-11-26T10:29:26Z</time>
      </trkpt>
      <trkpt lat="27.971136" lon="-15.558512">
        <ele>1630.00</ele>
        <time>2016-11-26T10:29:32Z</time>
      </trkpt>
      <trkpt lat="27.971036" lon="-15.558527">
        <ele>1633.00</ele>
        <time>2016-11-26T10:29:38Z</time>
      </trkpt>
      <trkpt lat="27.971021" lon="-15.558507">
        <ele>1633.99</ele>
        <time>2016-11-26T10:29:41Z</time>
      </trkpt>
      <trkpt lat="27.971002" lon="-15.558508">
        <ele>1634.00</ele>
        <time>2016-11-26T10:29:44Z</time>
      </trkpt>
      <trkpt lat="27.970982" lon="-15.558506">
        <ele>1634.22</ele>
        <time>2016-11-26T10:29:46Z</time>
      </trkpt>
      <trkpt lat="27.970967" lon="-15.558518">
        <ele>1636.00</ele>
        <time>2016-11-26T10:29:48Z</time>
      </trkpt>
      <trkpt lat="27.970954" lon="-15.558527">
        <ele>1636.00</ele>
        <time>2016-11-26T10:29:48.82Z</time>
      </trkpt>
      <trkpt lat="27.970880" lon="-15.558562">
        <ele>1637.00</ele>
        <time>2016-11-26T10:29:55Z</time>
      </trkpt>
      <trkpt lat="27.970857" lon="-15.558575">
        <ele>1639.00</ele>
        <time>2016-11-26T10:29:57Z</time>
      </trkpt>
      <trkpt lat="27.970824" lon="-15.558577">
        <ele>1639.62</ele>
        <time>2016-11-26T10:30:01Z</time>
      </trkpt>
      <trkpt lat="27.970870" lon="-15.558518">
        <ele>1646.00</ele>
        <time>2016-11-26T10:30:12Z</time>
      </trkpt>
      <trkpt lat="27.970792" lon="-15.558573">
        <ele>1649.00</ele>
        <time>2016-11-26T10:30:17Z</time>
      </trkpt>
      <trkpt lat="27.970764" lon="-15.558594">
        <ele>1649.00</ele>
        <time>2016-11-26T10:30:19Z</time>
      </trkpt>
      <trkpt lat="27.970736" lon="-15.558603">
        <ele>1650.97</ele>
        <time>2016-11-26T10:30:21Z</time>
      </trkpt>
      <trkpt lat="27.970704" lon="-15.558601">
        <ele>1653.00</ele>
        <time>2016-11-26T10:30:23Z</time>
      </trkpt>
      <trkpt lat="27.970679" lon="-15.558611">
        <ele>1653.00</ele>
        <time>2016-11-26T10:30:25Z</time>
      </trkpt>
      <trkpt lat="27.970646" lon="-15.558633">
        <ele>1653.00</ele>
        <time>2016-11-26T10:30:28Z</time>
      </trkpt>
      <trkpt lat="27.970614" lon="-15.558649">
        <ele>1653.00</ele>
        <time>2016-11-26T10:30:30Z</time>
      </trkpt>
      <trkpt lat="27.970532" lon="-15.558705">
        <ele>1654.99</ele>
        <time>2016-11-26T10:30:36Z</time>
      </trkpt>
      <trkpt lat="27.970424" lon="-15.558743">
        <ele>1655.30</ele>
        <time>2016-11-26T10:30:41Z</time>
      </trkpt>
      <trkpt lat="27.970345" lon="-15.558806">
        <ele>1657.84</ele>
        <time>2016-11-26T10:30:46Z</time>
      </trkpt>
      <trkpt lat="27.970336" lon="-15.558822">
        <ele>1660.00</ele>
        <time>2016-11-26T10:30:46.70Z</time>
      </trkpt>
      <trkpt lat="27.970266" lon="-15.558871">
        <ele>1660.00</ele>
        <time>2016-11-26T10:30:50Z</time>
      </trkpt>
      <trkpt lat="27.970182" lon="-15.558928">
        <ele>1661.00</ele>
        <time>2016-11-26T10:30:54Z</time>
      </trkpt>
      <trkpt lat="27.970080" lon="-15.558957">
        <ele>1665.24</ele>
        <time>2016-11-26T10:31:01Z</time>
      </trkpt>
      <trkpt lat="27.969982" lon="-15.558936">
        <ele>1668.00</ele>
        <time>2016-11-26T10:31:08Z</time>
      </trkpt>
      <trkpt lat="27.969959" lon="-15.558926">
        <ele>1668.00</ele>
        <time>2016-11-26T10:31:10Z</time>
      </trkpt>
      <trkpt lat="27.969860" lon="-15.558909">
        <ele>1670.40</ele>
        <time>2016-11-26T10:31:16Z</time>
      </trkpt>
      <trkpt lat="27.969766" lon="-15.558914">
        <ele>1675.00</ele>
        <time>2016-11-26T10:31:22Z</time>
      </trkpt>
      <trkpt lat="27.969680" lon="-15.558968">
        <ele>1676.00</ele>
        <time>2016-11-26T10:31:29Z</time>
      </trkpt>
      <trkpt lat="27.969662" lon="-15.559073">
        <ele>1677.00</ele>
        <time>2016-11-26T10:31:34Z</time>
      </trkpt>
      <trkpt lat="27.969557" lon="-15.559083">
        <ele>1680.00</ele>
        <time>2016-11-26T10:31:39Z</time>
      </trkpt>
      <trkpt lat="27.969532" lon="-15.558965">
        <ele>1680.00</ele>
        <time>2016-11-26T10:31:44Z</time>
      </trkpt>
      <trkpt lat="27.969538" lon="-15.558941">
        <ele>1680.00</ele>
        <time>2016-11-26T10:31:44.91Z</time>
      </trkpt>
      <trkpt lat="27.969542" lon="-15.558858">
        <ele>1683.00</ele>
        <time>2016-11-26T10:31:50Z</time>
      </trkpt>
      <trkpt lat="27.969466" lon="-15.558939">
        <ele>1686.00</ele>
        <time>2016-11-26T10:31:55Z</time>
      </trkpt>
      <trkpt lat="27.969360" lon="-15.558948">
        <ele>1693.00</ele>
        <time>2016-11-26T10:32:10Z</time>
      </trkpt>
      <trkpt lat="27.969316" lon="-15.558980">
        <ele>1697.00</ele>
        <time>2016-11-26T10:32:13Z</time>
      </trkpt>
      <trkpt lat="27.969222" lon="-15.559008">
        <ele>1697.00</ele>
        <time>2016-11-26T10:32:18Z</time>
      </trkpt>
      <trkpt lat="27.969144" lon="-15.559066">
        <ele>1697.00</ele>
        <time>2016-11-26T10:32:22Z</time>
      </trkpt>
      <trkpt lat="27.969054" lon="-15.559133">
        <ele>1697.00</ele>
        <time>2016-11-26T10:32:27Z</time>
      </trkpt>
      <trkpt lat="27.969041" lon="-15.559236">
        <ele>1698.40</ele>
        <time>2016-11-26T10:32:31Z</time>
      </trkpt>
      <trkpt lat="27.969066" lon="-15.559358">
        <ele>1700.57</ele>
        <time>2016-11-26T10:32:35Z</time>
      </trkpt>
      <trkpt lat="27.969087" lon="-15.559478">
        <ele>1701.30</ele>
        <time>2016-11-26T10:32:39Z</time>
      </trkpt>
      <trkpt lat="27.969091" lon="-15.559502">
        <ele>1701.00</ele>
        <time>2016-11-26T10:32:40Z</time>
      </trkpt>
      <trkpt lat="27.969095" lon="-15.559525">
        <ele>1704.04</ele>
        <time>2016-11-26T10:32:41Z</time>
      </trkpt>
      <trkpt lat="27.969098" lon="-15.559551">
        <ele>1705.00</ele>
        <time>2016-11-26T10:32:42Z</time>
      </trkpt>
      <trkpt lat="27.969102" lon="-15.559577">
        <ele>1705.00</ele>
        <time>2016-11-26T10:32:43Z</time>
      </trkpt>
      <trkpt lat="27.969102" lon="-15.559577">
        <ele>1705.00</ele>
        <time>2016-11-26T10:32:43.17Z</time>
      </trkpt>
      <trkpt lat="27.969119" lon="-15.559604">
        <ele>1705.00</ele>
        <time>2016-11-26T10:32:44Z</time>
      </trkpt>
      <trkpt lat="27.969045" lon="-15.559625">
        <ele>1708.00</ele>
        <time>2016-11-26T10:32:50Z</time>
      </trkpt>
      <trkpt lat="27.969025" lon="-15.559594">
        <ele>1709.00</ele>
        <time>2016-11-26T10:32:52Z</time>
      </trkpt>
      <trkpt lat="27.969008" lon="-15.559579">
        <ele>1709.00</ele>
        <time>2016-11-26T10:32:53Z</time>
      </trkpt>
      <trkpt lat="27.968986" lon="-15.559558">
        <ele>1711.00</ele>
        <time>2016-11-26T10:32:57Z</time>
      </trkpt>
      <trkpt lat="27.968999" lon="-15.559595">
        <ele>1711.00</ele>
        <time>2016-11-26T10:32:59Z</time>
      </trkpt>
      <trkpt lat="27.969014" lon="-15.559617">
        <ele>1711.00</ele>
        <time>2016-11-26T10:33:00Z</time>
      </trkpt>
      <trkpt lat="27.969031" lon="-15.559637">
        <ele>1711.44</ele>
        <time>2016-11-26T10:33:01Z</time>
      </trkpt>
      <trkpt lat="27.969049" lon="-15.559652">
        <ele>1712.00</ele>
        <time>2016-11-26T10:33:02Z</time>
      </trkpt>
      <trkpt lat="27.969070" lon="-15.559672">
        <ele>1712.00</ele>
        <time>2016-11-26T10:33:03Z</time>
      </trkpt>
      <trkpt lat="27.969092" lon="-15.559696">
        <ele>1712.00</ele>
        <time>2016-11-26T10:33:04Z</time>
      </trkpt>
      <trkpt lat="27.969116" lon="-15.559715">
        <ele>1712.00</ele>
        <time>2016-11-26T10:33:05Z</time>
      </trkpt>
      <trkpt lat="27.969132" lon="-15.559736">
        <ele>1713.25</ele>
        <time>2016-11-26T10:33:06Z</time>
      </trkpt>
      <trkpt lat="27.969145" lon="-15.559760">
        <ele>1714.00</ele>
        <time>2016-11-26T10:33:07Z</time>
      </trkpt>
      <trkpt lat="27.969155" lon="-15.559783">
        <ele>1714.00</ele>
        <time>2016-11-26T10:33:08Z</time>
      </trkpt>
      <trkpt lat="27.969160" lon="-15.559813">
        <ele>1714.00</ele>
        <time>2016-11-26T10:33:09Z</time>
      </trkpt>
      <trkpt lat="27.969159" lon="-15.559835">
        <ele>1714.00</ele>
        <time>2016-11-26T10:33:10Z</time>
      </trkpt>
      <trkpt lat="27.969158" lon="-15.559863">
        <ele>1716.28</ele>
        <time>2016-11-26T10:33:11Z</time>
      </trkpt>
      <trkpt lat="27.969153" lon="-15.559908">
        <ele>1717.00</ele>
        <time>2016-11-26T10:33:13Z</time>
      </trkpt>
      <trkpt lat="27.969155" lon="-15.559938">
        <ele>1717.00</ele>
        <time>2016-11-26T10:33:14Z</time>
      </trkpt>
      <trkpt lat="27.969160" lon="-15.559971">
        <ele>1717.00</ele>
        <time>2016-11-26T10:33:15Z</time>
      </trkpt>
      <trkpt lat="27.969163" lon="-15.559999">
        <ele>1718.92</ele>
        <time>2016-11-26T10:33:16Z</time>
      </trkpt>
      <trkpt lat="27.969173" lon="-15.560030">
        <ele>1719.00</ele>
        <time>2016-11-26T10:33:17Z</time>
      </trkpt>
      <trkpt lat="27.969179" lon="-15.560055">
        <ele>1719.00</ele>
        <time>2016-11-26T10:33:18Z</time>
      </trkpt>
      <trkpt lat="27.969195" lon="-15.560081">
        <ele>1719.00</ele>
        <time>2016-11-26T10:33:19Z</time>
      </trkpt>
      <trkpt lat="27.969199" lon="-15.560118">
        <ele>1719.00</ele>
        <time>2016-11-26T10:33:21Z</time>
      </trkpt>
      <trkpt lat="27.969218" lon="-15.560232">
        <ele>1721.63</ele>
        <time>2016-11-26T10:33:28Z</time>
      </trkpt>
      <trkpt lat="27.969216" lon="-15.560262">
        <ele>1722.42</ele>
        <time>2016-11-26T10:33:30Z</time>
      </trkpt>
      <trkpt lat="27.969210" lon="-15.560295">
        <ele>1725.00</ele>
        <time>2016-11-26T10:33:32Z</time>
      </trkpt>
      <trkpt lat="27.969207" lon="-15.560322">
        <ele>1725.00</ele>
        <time>2016-11-26T10:33:34Z</time>
      </trkpt>
      <trkpt lat="27.969211" lon="-15.560376">
        <ele>1728.00</ele>
        <time>2016-11-26T10:33:37Z</time>
      </trkpt>
      <trkpt lat="27.969206" lon="-15.560480">
        <ele>1730.51</ele>
        <time>2016-11-26T10:33:41Z</time>
      </trkpt>
      <trkpt lat="27.969206" lon="-15.560480">
        <ele>1731.00</ele>
        <time>2016-11-26T10:33:41.16Z</time>
      </trkpt>
      <trkpt lat="27.969194" lon="-15.560503">
        <ele>1731.00</ele>
        <time>2016-11-26T10:33:42Z</time>
      </trkpt>
      <trkpt lat="27.969184" lon="-15.560521">
        <ele>1731.00</ele>
        <time>2016-11-26T10:33:43Z</time>
      </trkpt>
      <trkpt lat="27.969162" lon="-15.560557">
        <ele>1731.00</ele>
        <time>2016-11-26T10:33:45Z</time>
      </trkpt>
      <trkpt lat="27.969144" lon="-15.560591">
        <ele>1731.00</ele>
        <time>2016-11-26T10:33:47Z</time>
      </trkpt>
      <trkpt lat="27.969131" lon="-15.560625">
        <ele>1731.00</ele>
        <time>2016-11-26T10:33:49Z</time>
      </trkpt>
      <trkpt lat="27.969110" lon="-15.560648">
        <ele>1731.52</ele>
        <time>2016-11-26T10:33:51Z</time>
      </trkpt>
      <trkpt lat="27.969096" lon="-15.560672">
        <ele>1733.00</ele>
        <time>2016-11-26T10:33:53Z</time>
      </trkpt>
      <trkpt lat="27.969080" lon="-15.560685">
        <ele>1733.00</ele>
        <time>2016-11-26T10:33:55Z</time>
      </trkpt>
      <trkpt lat="27.969069" lon="-15.560705">
        <ele>1733.00</ele>
        <time>2016-11-26T10:33:58Z</time>
      </trkpt>
      <trkpt lat="27.969118" lon="-15.560795">
        <ele>1732.66</ele>
        <time>2016-11-26T10:34:06Z</time>
      </trkpt>
      <trkpt lat="27.969139" lon="-15.560819">
        <ele>1733.00</ele>
        <time>2016-11-26T10:34:08Z</time>
      </trkpt>
      <trkpt lat="27.969148" lon="-15.560852">
        <ele>1733.00</ele>
        <time>2016-11-26T10:34:10Z</time>
      </trkpt>
      <trkpt lat="27.969156" lon="-15.560882">
        <ele>1735.00</ele>
        <time>2016-11-26T10:34:12Z</time>
      </trkpt>
      <trkpt lat="27.969168" lon="-15.560910">
        <ele>1735.00</ele>
        <time>2016-11-26T10:34:14Z</time>
      </trkpt>
      <trkpt lat="27.969184" lon="-15.560943">
        <ele>1735.87</ele>
        <time>2016-11-26T10:34:16Z</time>
      </trkpt>
      <trkpt lat="27.969184" lon="-15.560973">
        <ele>1736.00</ele>
        <time>2016-11-26T10:34:18Z</time>
      </trkpt>
      <trkpt lat="27.969179" lon="-15.561002">
        <ele>1738.00</ele>
        <time>2016-11-26T10:34:25Z</time>
      </trkpt>
      <trkpt lat="27.969202" lon="-15.561021">
        <ele>1740.00</ele>
        <time>2016-11-26T10:34:27Z</time>
      </trkpt>
      <trkpt lat="27.969197" lon="-15.561045">
        <ele>1740.00</ele>
        <time>2016-11-26T10:34:29Z</time>
      </trkpt>
      <trkpt lat="27.969187" lon="-15.561075">
        <ele>1743.38</ele>
        <time>2016-11-26T10:34:31Z</time>
      </trkpt>
      <trkpt lat="27.969169" lon="-15.561107">
        <ele>1744.00</ele>
        <time>2016-11-26T10:34:33Z</time>
      </trkpt>
      <trkpt lat="27.969149" lon="-15.561136">
        <ele>1744.00</ele>
        <time>2016-11-26T10:34:35Z</time>
      </trkpt>
      <trkpt lat="27.969138" lon="-15.561163">
        <ele>1744.00</ele>
        <time>2016-11-26T10:34:37Z</time>
      </trkpt>
      <trkpt lat="27.969130" lon="-15.561188">
        <ele>1744.00</ele>
        <time>2016-11-26T10:34:38.91Z</time>
      </trkpt>
      <trkpt lat="27.969130" lon="-15.561188">
        <ele>1744.00</ele>
        <time>2016-11-26T10:34:39Z</time>
      </trkpt>
      <trkpt lat="27.969119" lon="-15.561209">
        <ele>1744.27</ele>
        <time>2016-11-26T10:34:41Z</time>
      </trkpt>
      <trkpt lat="27.969120" lon="-15.561239">
        <ele>1746.00</ele>
        <time>2016-11-26T10:34:43Z</time>
      </trkpt>
      <trkpt lat="27.969108" lon="-15.561257">
        <ele>1746.00</ele>
        <time>2016-11-26T10:34:45Z</time>
      </trkpt>
      <trkpt lat="27.969090" lon="-15.561273">
        <ele>1746.00</ele>
        <time>2016-11-26T10:34:47Z</time>
      </trkpt>
      <trkpt lat="27.969070" lon="-15.561283">
        <ele>1746.00</ele>
        <time>2016-11-26T10:34:49Z</time>
      </trkpt>
      <trkpt lat="27.969053" lon="-15.561299">
        <ele>1747.00</ele>
        <time>2016-11-26T10:34:53Z</time>
      </trkpt>
      <trkpt lat="27.969032" lon="-15.561308">
        <ele>1747.00</ele>
        <time>2016-11-26T10:34:56Z</time>
      </trkpt>
      <trkpt lat="27.969018" lon="-15.561323">
        <ele>1747.00</ele>
        <time>2016-11-26T10:34:59Z</time>
      </trkpt>
      <trkpt lat="27.969020" lon="-15.561377">
        <ele>1750.00</ele>
        <time>2016-11-26T10:35:02Z</time>
      </trkpt>
      <trkpt lat="27.969040" lon="-15.561400">
        <ele>1750.00</ele>
        <time>2016-11-26T10:35:03Z</time>
      </trkpt>
      <trkpt lat="27.969096" lon="-15.561421">
        <ele>1750.00</ele>
        <time>2016-11-26T10:35:05Z</time>
      </trkpt>
      <trkpt lat="27.969194" lon="-15.561438">
        <ele>1752.00</ele>
        <time>2016-11-26T10:35:09Z</time>
      </trkpt>
      <trkpt lat="27.969189" lon="-15.561517">
        <ele>1755.00</ele>
        <time>2016-11-26T10:35:14Z</time>
      </trkpt>
      <trkpt lat="27.969102" lon="-15.561567">
        <ele>1755.00</ele>
        <time>2016-11-26T10:35:18Z</time>
      </trkpt>
      <trkpt lat="27.968995" lon="-15.561622">
        <ele>1755.00</ele>
        <time>2016-11-26T10:35:22Z</time>
      </trkpt>
      <trkpt lat="27.968893" lon="-15.561656">
        <ele>1759.73</ele>
        <time>2016-11-26T10:35:26Z</time>
      </trkpt>
      <trkpt lat="27.968801" lon="-15.561619">
        <ele>1763.00</ele>
        <time>2016-11-26T10:35:36.19Z</time>
      </trkpt>
      <trkpt lat="27.968793" lon="-15.561634">
        <ele>1763.00</ele>
        <time>2016-11-26T10:35:39Z</time>
      </trkpt>
      <trkpt lat="27.968784" lon="-15.561709">
        <ele>1765.00</ele>
        <time>2016-11-26T10:35:48Z</time>
      </trkpt>
      <trkpt lat="27.968776" lon="-15.561730">
        <ele>1765.00</ele>
        <time>2016-11-26T10:35:50Z</time>
      </trkpt>
      <trkpt lat="27.968772" lon="-15.561753">
        <ele>1765.00</ele>
        <time>2016-11-26T10:35:52Z</time>
      </trkpt>
      <trkpt lat="27.968760" lon="-15.561775">
        <ele>1765.00</ele>
        <time>2016-11-26T10:35:56Z</time>
      </trkpt>
      <trkpt lat="27.968764" lon="-15.561753">
        <ele>1767.00</ele>
        <time>2016-11-26T10:36:10Z</time>
      </trkpt>
      <trkpt lat="27.968752" lon="-15.561816">
        <ele>1768.00</ele>
        <time>2016-11-26T10:36:17Z</time>
      </trkpt>
      <trkpt lat="27.968752" lon="-15.561841">
        <ele>1768.61</ele>
        <time>2016-11-26T10:36:31Z</time>
      </trkpt>
      <trkpt lat="27.968752" lon="-15.561841">
        <ele>1769.00</ele>
        <time>2016-11-26T10:36:31.39Z</time>
      </trkpt>
      <trkpt lat="27.968740" lon="-15.561866">
        <ele>1769.00</ele>
        <time>2016-11-26T10:36:32.96Z</time>
      </trkpt>
      <trkpt lat="27.968665" lon="-15.561940">
        <ele>1773.00</ele>
        <time>2016-11-26T10:36:38Z</time>
      </trkpt>
      <trkpt lat="27.968569" lon="-15.561892">
        <ele>1776.00</ele>
        <time>2016-11-26T10:36:43Z</time>
      </trkpt>
      <trkpt lat="27.968519" lon="-15.561791">
        <ele>1776.00</ele>
        <time>2016-11-26T10:36:50Z</time>
      </trkpt>
      <trkpt lat="27.968485" lon="-15.561683">
        <ele>1776.00</ele>
        <time>2016-11-26T10:36:55Z</time>
      </trkpt>
      <trkpt lat="27.968426" lon="-15.561596">
        <ele>1775.00</ele>
        <time>2016-11-26T10:37:00Z</time>
      </trkpt>
      <trkpt lat="27.968379" lon="-15.561491">
        <ele>1777.00</ele>
        <time>2016-11-26T10:37:04Z</time>
      </trkpt>
      <trkpt lat="27.968320" lon="-15.561409">
        <ele>1777.00</ele>
        <time>2016-11-26T10:37:08Z</time>
      </trkpt>
      <trkpt lat="27.968258" lon="-15.561309">
        <ele>1778.00</ele>
        <time>2016-11-26T10:37:12Z</time>
      </trkpt>
      <trkpt lat="27.968214" lon="-15.561207">
        <ele>1778.00</ele>
        <time>2016-11-26T10:37:16Z</time>
      </trkpt>
      <trkpt lat="27.968202" lon="-15.561188">
        <ele>1778.00</ele>
        <time>2016-11-26T10:37:17Z</time>
      </trkpt>
      <trkpt lat="27.968185" lon="-15.561167">
        <ele>1778.00</ele>
        <time>2016-11-26T10:37:18Z</time>
      </trkpt>
      <trkpt lat="27.968159" lon="-15.561134">
        <ele>1778.00</ele>
        <time>2016-11-26T10:37:20Z</time>
      </trkpt>
      <trkpt lat="27.968133" lon="-15.561103">
        <ele>1778.00</ele>
        <time>2016-11-26T10:37:22Z</time>
      </trkpt>
      <trkpt lat="27.968123" lon="-15.561085">
        <ele>1778.00</ele>
        <time>2016-11-26T10:37:23Z</time>
      </trkpt>
      <trkpt lat="27.968112" lon="-15.561069">
        <ele>1778.00</ele>
        <time>2016-11-26T10:37:24Z</time>
      </trkpt>
      <trkpt lat="27.968082" lon="-15.561049">
        <ele>1778.00</ele>
        <time>2016-11-26T10:37:26Z</time>
      </trkpt>
      <trkpt lat="27.968064" lon="-15.561030">
        <ele>1778.00</ele>
        <time>2016-11-26T10:37:28Z</time>
      </trkpt>
      <trkpt lat="27.968048" lon="-15.561019">
        <ele>1778.00</ele>
        <time>2016-11-26T10:37:29Z</time>
      </trkpt>
      <trkpt lat="27.968048" lon="-15.561019">
        <ele>1778.00</ele>
        <time>2016-11-26T10:37:29.48Z</time>
      </trkpt>
      <trkpt lat="27.968009" lon="-15.561018">
        <ele>1778.56</ele>
        <time>2016-11-26T10:37:31Z</time>
      </trkpt>
      <trkpt lat="27.967921" lon="-15.560945">
        <ele>1779.00</ele>
        <time>2016-11-26T10:37:36Z</time>
      </trkpt>
      <trkpt lat="27.967867" lon="-15.560863">
        <ele>1779.00</ele>
        <time>2016-11-26T10:37:39Z</time>
      </trkpt>
      <trkpt lat="27.967789" lon="-15.560786">
        <ele>1780.00</ele>
        <time>2016-11-26T10:37:43Z</time>
      </trkpt>
      <trkpt lat="27.967737" lon="-15.560692">
        <ele>1779.00</ele>
        <time>2016-11-26T10:37:47Z</time>
      </trkpt>
      <trkpt lat="27.967707" lon="-15.560590">
        <ele>1779.00</ele>
        <time>2016-11-26T10:37:51Z</time>
      </trkpt>
      <trkpt lat="27.967692" lon="-15.560570">
        <ele>1779.00</ele>
        <time>2016-11-26T10:37:52Z</time>
      </trkpt>
      <trkpt lat="27.967679" lon="-15.560553">
        <ele>1779.00</ele>
        <time>2016-11-26T10:37:53Z</time>
      </trkpt>
      <trkpt lat="27.967660" lon="-15.560534">
        <ele>1779.00</ele>
        <time>2016-11-26T10:37:54Z</time>
      </trkpt>
      <trkpt lat="27.967638" lon="-15.560512">
        <ele>1779.00</ele>
        <time>2016-11-26T10:37:55Z</time>
      </trkpt>
      <trkpt lat="27.967615" lon="-15.560493">
        <ele>1780.02</ele>
        <time>2016-11-26T10:37:56Z</time>
      </trkpt>
      <trkpt lat="27.967592" lon="-15.560475">
        <ele>1784.00</ele>
        <time>2016-11-26T10:37:57Z</time>
      </trkpt>
      <trkpt lat="27.967574" lon="-15.560458">
        <ele>1784.00</ele>
        <time>2016-11-26T10:37:58Z</time>
      </trkpt>
      <trkpt lat="27.967556" lon="-15.560442">
        <ele>1784.00</ele>
        <time>2016-11-26T10:37:59Z</time>
      </trkpt>
      <trkpt lat="27.967531" lon="-15.560422">
        <ele>1784.00</ele>
        <time>2016-11-26T10:38:00Z</time>
      </trkpt>
      <trkpt lat="27.967508" lon="-15.560404">
        <ele>1784.95</ele>
        <time>2016-11-26T10:38:01Z</time>
      </trkpt>
      <trkpt lat="27.967489" lon="-15.560384">
        <ele>1787.00</ele>
        <time>2016-11-26T10:38:02Z</time>
      </trkpt>
      <trkpt lat="27.967469" lon="-15.560367">
        <ele>1787.00</ele>
        <time>2016-11-26T10:38:03Z</time>
      </trkpt>
      <trkpt lat="27.967419" lon="-15.560335">
        <ele>1787.00</ele>
        <time>2016-11-26T10:38:05Z</time>
      </trkpt>
      <trkpt lat="27.967362" lon="-15.560320">
        <ele>1787.00</ele>
        <time>2016-11-26T10:38:07Z</time>
      </trkpt>
      <trkpt lat="27.967330" lon="-15.560311">
        <ele>1787.00</ele>
        <time>2016-11-26T10:38:08Z</time>
      </trkpt>
      <trkpt lat="27.967300" lon="-15.560302">
        <ele>1787.00</ele>
        <time>2016-11-26T10:38:09Z</time>
      </trkpt>
      <trkpt lat="27.967270" lon="-15.560289">
        <ele>1787.00</ele>
        <time>2016-11-26T10:38:10Z</time>
      </trkpt>
      <trkpt lat="27.967241" lon="-15.560273">
        <ele>1788.20</ele>
        <time>2016-11-26T10:38:11Z</time>
      </trkpt>
      <trkpt lat="27.967220" lon="-15.560254">
        <ele>1789.00</ele>
        <time>2016-11-26T10:38:12Z</time>
      </trkpt>
      <trkpt lat="27.967197" lon="-15.560234">
        <ele>1789.00</ele>
        <time>2016-11-26T10:38:13Z</time>
      </trkpt>
      <trkpt lat="27.967172" lon="-15.560219">
        <ele>1789.00</ele>
        <time>2016-11-26T10:38:14Z</time>
      </trkpt>
      <trkpt lat="27.967139" lon="-15.560207">
        <ele>1789.00</ele>
        <time>2016-11-26T10:38:15Z</time>
      </trkpt>
      <trkpt lat="27.967112" lon="-15.560195">
        <ele>1789.00</ele>
        <time>2016-11-26T10:38:16Z</time>
      </trkpt>
      <trkpt lat="27.967021" lon="-15.560168">
        <ele>1789.00</ele>
        <time>2016-11-26T10:38:19Z</time>
      </trkpt>
      <trkpt lat="27.966932" lon="-15.560153">
        <ele>1791.00</ele>
        <time>2016-11-26T10:38:22Z</time>
      </trkpt>
      <trkpt lat="27.966823" lon="-15.560142">
        <ele>1791.00</ele>
        <time>2016-11-26T10:38:26Z</time>
      </trkpt>
      <trkpt lat="27.966764" lon="-15.560120">
        <ele>1791.00</ele>
        <time>2016-11-26T10:38:27.76Z</time>
      </trkpt>
      <trkpt lat="27.966718" lon="-15.560094">
        <ele>1791.00</ele>
        <time>2016-11-26T10:38:30Z</time>
      </trkpt>
      <trkpt lat="27.966638" lon="-15.560051">
        <ele>1791.00</ele>
        <time>2016-11-26T10:38:33Z</time>
      </trkpt>
      <trkpt lat="27.966525" lon="-15.560013">
        <ele>1792.00</ele>
        <time>2016-11-26T10:38:37Z</time>
      </trkpt>
      <trkpt lat="27.966466" lon="-15.559998">
        <ele>1792.00</ele>
        <time>2016-11-26T10:38:39Z</time>
      </trkpt>
      <trkpt lat="27.966380" lon="-15.559973">
        <ele>1796.00</ele>
        <time>2016-11-26T10:38:44Z</time>
      </trkpt>
      <trkpt lat="27.966287" lon="-15.559942">
        <ele>1797.00</ele>
        <time>2016-11-26T10:38:55Z</time>
      </trkpt>
      <trkpt lat="27.966260" lon="-15.559977">
        <ele>1797.00</ele>
        <time>2016-11-26T10:38:58Z</time>
      </trkpt>
      <trkpt lat="27.966241" lon="-15.559996">
        <ele>1797.00</ele>
        <time>2016-11-26T10:38:59Z</time>
      </trkpt>
      <trkpt lat="27.966214" lon="-15.560062">
        <ele>1797.00</ele>
        <time>2016-11-26T10:39:02Z</time>
      </trkpt>
      <trkpt lat="27.966204" lon="-15.560167">
        <ele>1797.00</ele>
        <time>2016-11-26T10:39:06Z</time>
      </trkpt>
      <trkpt lat="27.966187" lon="-15.560221">
        <ele>1797.00</ele>
        <time>2016-11-26T10:39:08Z</time>
      </trkpt>
      <trkpt lat="27.966123" lon="-15.560345">
        <ele>1799.00</ele>
        <time>2016-11-26T10:39:12Z</time>
      </trkpt>
      <trkpt lat="27.966075" lon="-15.560455">
        <ele>1799.00</ele>
        <time>2016-11-26T10:39:16Z</time>
      </trkpt>
      <trkpt lat="27.966012" lon="-15.560561">
        <ele>1799.00</ele>
        <time>2016-11-26T10:39:20Z</time>
      </trkpt>
      <trkpt lat="27.965980" lon="-15.560672">
        <ele>1799.00</ele>
        <time>2016-11-26T10:39:24Z</time>
      </trkpt>
      <trkpt lat="27.965966" lon="-15.560697">
        <ele>1799.00</ele>
        <time>2016-11-26T10:39:25Z</time>
      </trkpt>
      <trkpt lat="27.965966" lon="-15.560697">
        <ele>1799.00</ele>
        <time>2016-11-26T10:39:25.52Z</time>
      </trkpt>
      <trkpt lat="27.965949" lon="-15.560722">
        <ele>1799.50</ele>
        <time>2016-11-26T10:39:26Z</time>
      </trkpt>
      <trkpt lat="27.965928" lon="-15.560743">
        <ele>1800.00</ele>
        <time>2016-11-26T10:39:27Z</time>
      </trkpt>
      <trkpt lat="27.965907" lon="-15.560764">
        <ele>1800.00</ele>
        <time>2016-11-26T10:39:28Z</time>
      </trkpt>
      <trkpt lat="27.965886" lon="-15.560780">
        <ele>1800.00</ele>
        <time>2016-11-26T10:39:29Z</time>
      </trkpt>
      <trkpt lat="27.965866" lon="-15.560793">
        <ele>1800.00</ele>
        <time>2016-11-26T10:39:30Z</time>
      </trkpt>
      <trkpt lat="27.965840" lon="-15.560810">
        <ele>1800.67</ele>
        <time>2016-11-26T10:39:31Z</time>
      </trkpt>
      <trkpt lat="27.965806" lon="-15.560829">
        <ele>1801.00</ele>
        <time>2016-11-26T10:39:32Z</time>
      </trkpt>
      <trkpt lat="27.965782" lon="-15.560843">
        <ele>1801.00</ele>
        <time>2016-11-26T10:39:33Z</time>
      </trkpt>
      <trkpt lat="27.965708" lon="-15.560879">
        <ele>1803.63</ele>
        <time>2016-11-26T10:39:36Z</time>
      </trkpt>
      <trkpt lat="27.965683" lon="-15.560887">
        <ele>1804.00</ele>
        <time>2016-11-26T10:39:37Z</time>
      </trkpt>
      <trkpt lat="27.965659" lon="-15.560901">
        <ele>1804.00</ele>
        <time>2016-11-26T10:39:38Z</time>
      </trkpt>
      <trkpt lat="27.965637" lon="-15.560925">
        <ele>1804.00</ele>
        <time>2016-11-26T10:39:39Z</time>
      </trkpt>
      <trkpt lat="27.965568" lon="-15.561036">
        <ele>1807.00</ele>
        <time>2016-11-26T10:39:43Z</time>
      </trkpt>
      <trkpt lat="27.965496" lon="-15.561121">
        <ele>1807.00</ele>
        <time>2016-11-26T10:39:47Z</time>
      </trkpt>
      <trkpt lat="27.965398" lon="-15.561198">
        <ele>1809.00</ele>
        <time>2016-11-26T10:39:52Z</time>
      </trkpt>
      <trkpt lat="27.965377" lon="-15.561217">
        <ele>1809.00</ele>
        <time>2016-11-26T10:39:53Z</time>
      </trkpt>
      <trkpt lat="27.965359" lon="-15.561238">
        <ele>1809.00</ele>
        <time>2016-11-26T10:39:54Z</time>
      </trkpt>
      <trkpt lat="27.965291" lon="-15.561295">
        <ele>1809.00</ele>
        <time>2016-11-26T10:39:57Z</time>
      </trkpt>
      <trkpt lat="27.965217" lon="-15.561374">
        <ele>1810.67</ele>
        <time>2016-11-26T10:40:01Z</time>
      </trkpt>
      <trkpt lat="27.965181" lon="-15.561408">
        <ele>1811.00</ele>
        <time>2016-11-26T10:40:03Z</time>
      </trkpt>
      <trkpt lat="27.965112" lon="-15.561497">
        <ele>1811.00</ele>
        <time>2016-11-26T10:40:07Z</time>
      </trkpt>
      <trkpt lat="27.965092" lon="-15.561520">
        <ele>1811.00</ele>
        <time>2016-11-26T10:40:08Z</time>
      </trkpt>
      <trkpt lat="27.965048" lon="-15.561608">
        <ele>1812.00</ele>
        <time>2016-11-26T10:40:12Z</time>
      </trkpt>
      <trkpt lat="27.964989" lon="-15.561716">
        <ele>1812.00</ele>
        <time>2016-11-26T10:40:16Z</time>
      </trkpt>
      <trkpt lat="27.964923" lon="-15.561807">
        <ele>1812.00</ele>
        <time>2016-11-26T10:40:20Z</time>
      </trkpt>
      <trkpt lat="27.964873" lon="-15.561868">
        <ele>1812.00</ele>
        <time>2016-11-26T10:40:23.45Z</time>
      </trkpt>
      <trkpt lat="27.964836" lon="-15.561894">
        <ele>1812.00</ele>
        <time>2016-11-26T10:40:25Z</time>
      </trkpt>
      <trkpt lat="27.964746" lon="-15.561934">
        <ele>1810.43</ele>
        <time>2016-11-26T10:40:31Z</time>
      </trkpt>
      <trkpt lat="27.964636" lon="-15.561916">
        <ele>1810.00</ele>
        <time>2016-11-26T10:40:40Z</time>
      </trkpt>
      <trkpt lat="27.964561" lon="-15.561980">
        <ele>1810.00</ele>
        <time>2016-11-26T10:40:47Z</time>
      </trkpt>
      <trkpt lat="27.964476" lon="-15.562045">
        <ele>1809.00</ele>
        <time>2016-11-26T10:40:55Z</time>
      </trkpt>
      <trkpt lat="27.964393" lon="-15.562106">
        <ele>1807.00</ele>
        <time>2016-11-26T10:41:03Z</time>
      </trkpt>
      <trkpt lat="27.964317" lon="-15.562172">
        <ele>1807.00</ele>
        <time>2016-11-26T10:41:10Z</time>
      </trkpt>
      <trkpt lat="27.964269" lon="-15.562271">
        <ele>1805.00</ele>
        <time>2016-11-26T10:41:18Z</time>
      </trkpt>
      <trkpt lat="27.964252" lon="-15.562280">
        <ele>1804.00</ele>
        <time>2016-11-26T10:41:21.26Z</time>
      </trkpt>
      <trkpt lat="27.964183" lon="-15.562315">
        <ele>1803.00</ele>
        <time>2016-11-26T10:41:32Z</time>
      </trkpt>
      <trkpt lat="27.964116" lon="-15.562395">
        <ele>1803.00</ele>
        <time>2016-11-26T10:41:46Z</time>
      </trkpt>
      <trkpt lat="27.964019" lon="-15.562422">
        <ele>1802.00</ele>
        <time>2016-11-26T10:41:59Z</time>
      </trkpt>
      <trkpt lat="27.963981" lon="-15.562437">
        <ele>1803.00</ele>
        <time>2016-11-26T10:42:16.42Z</time>
      </trkpt>
      <trkpt lat="27.963963" lon="-15.562506">
        <ele>1805.00</ele>
        <time>2016-11-26T10:42:22Z</time>
      </trkpt>
      <trkpt lat="27.963954" lon="-15.562530">
        <ele>1805.00</ele>
        <time>2016-11-26T10:42:23Z</time>
      </trkpt>
      <trkpt lat="27.963943" lon="-15.562556">
        <ele>1805.00</ele>
        <time>2016-11-26T10:42:24Z</time>
      </trkpt>
      <trkpt lat="27.963933" lon="-15.562579">
        <ele>1805.00</ele>
        <time>2016-11-26T10:42:25Z</time>
      </trkpt>
      <trkpt lat="27.963924" lon="-15.562603">
        <ele>1805.00</ele>
        <time>2016-11-26T10:42:26Z</time>
      </trkpt>
      <trkpt lat="27.963912" lon="-15.562624">
        <ele>1805.00</ele>
        <time>2016-11-26T10:42:27Z</time>
      </trkpt>
      <trkpt lat="27.963903" lon="-15.562646">
        <ele>1805.00</ele>
        <time>2016-11-26T10:42:28Z</time>
      </trkpt>
      <trkpt lat="27.963896" lon="-15.562668">
        <ele>1805.00</ele>
        <time>2016-11-26T10:42:29Z</time>
      </trkpt>
      <trkpt lat="27.963883" lon="-15.562708">
        <ele>1805.33</ele>
        <time>2016-11-26T10:42:31Z</time>
      </trkpt>
      <trkpt lat="27.963867" lon="-15.562750">
        <ele>1808.00</ele>
        <time>2016-11-26T10:42:33Z</time>
      </trkpt>
      <trkpt lat="27.963855" lon="-15.562772">
        <ele>1808.00</ele>
        <time>2016-11-26T10:42:34Z</time>
      </trkpt>
      <trkpt lat="27.963845" lon="-15.562792">
        <ele>1808.00</ele>
        <time>2016-11-26T10:42:35Z</time>
      </trkpt>
      <trkpt lat="27.963833" lon="-15.562812">
        <ele>1808.00</ele>
        <time>2016-11-26T10:42:36Z</time>
      </trkpt>
      <trkpt lat="27.963820" lon="-15.562834">
        <ele>1808.00</ele>
        <time>2016-11-26T10:42:37Z</time>
      </trkpt>
      <trkpt lat="27.963807" lon="-15.562859">
        <ele>1808.00</ele>
        <time>2016-11-26T10:42:38Z</time>
      </trkpt>
      <trkpt lat="27.963803" lon="-15.562888">
        <ele>1808.00</ele>
        <time>2016-11-26T10:42:39Z</time>
      </trkpt>
      <trkpt lat="27.963795" lon="-15.562914">
        <ele>1808.00</ele>
        <time>2016-11-26T10:42:40Z</time>
      </trkpt>
      <trkpt lat="27.963788" lon="-15.562942">
        <ele>1808.48</ele>
        <time>2016-11-26T10:42:41Z</time>
      </trkpt>
      <trkpt lat="27.963780" lon="-15.562967">
        <ele>1809.00</ele>
        <time>2016-11-26T10:42:42Z</time>
      </trkpt>
      <trkpt lat="27.963771" lon="-15.562992">
        <ele>1809.00</ele>
        <time>2016-11-26T10:42:43Z</time>
      </trkpt>
      <trkpt lat="27.963766" lon="-15.563018">
        <ele>1809.00</ele>
        <time>2016-11-26T10:42:44Z</time>
      </trkpt>
      <trkpt lat="27.963758" lon="-15.563041">
        <ele>1809.00</ele>
        <time>2016-11-26T10:42:45Z</time>
      </trkpt>
      <trkpt lat="27.963762" lon="-15.563064">
        <ele>1809.00</ele>
        <time>2016-11-26T10:42:46Z</time>
      </trkpt>
      <trkpt lat="27.963763" lon="-15.563090">
        <ele>1809.00</ele>
        <time>2016-11-26T10:42:47Z</time>
      </trkpt>
      <trkpt lat="27.963766" lon="-15.563119">
        <ele>1809.00</ele>
        <time>2016-11-26T10:42:48Z</time>
      </trkpt>
      <trkpt lat="27.963770" lon="-15.563145">
        <ele>1809.00</ele>
        <time>2016-11-26T10:42:49Z</time>
      </trkpt>
      <trkpt lat="27.963772" lon="-15.563171">
        <ele>1809.00</ele>
        <time>2016-11-26T10:42:50Z</time>
      </trkpt>
      <trkpt lat="27.963785" lon="-15.563219">
        <ele>1811.00</ele>
        <time>2016-11-26T10:42:52Z</time>
      </trkpt>
      <trkpt lat="27.963788" lon="-15.563262">
        <ele>1811.00</ele>
        <time>2016-11-26T10:42:54Z</time>
      </trkpt>
      <trkpt lat="27.963790" lon="-15.563287">
        <ele>1811.00</ele>
        <time>2016-11-26T10:42:55Z</time>
      </trkpt>
      <trkpt lat="27.963790" lon="-15.563309">
        <ele>1811.00</ele>
        <time>2016-11-26T10:42:56Z</time>
      </trkpt>
      <trkpt lat="27.963791" lon="-15.563335">
        <ele>1811.00</ele>
        <time>2016-11-26T10:42:57Z</time>
      </trkpt>
      <trkpt lat="27.963797" lon="-15.563355">
        <ele>1811.00</ele>
        <time>2016-11-26T10:42:58Z</time>
      </trkpt>
      <trkpt lat="27.963804" lon="-15.563377">
        <ele>1811.00</ele>
        <time>2016-11-26T10:42:59Z</time>
      </trkpt>
      <trkpt lat="27.963809" lon="-15.563400">
        <ele>1811.00</ele>
        <time>2016-11-26T10:43:00Z</time>
      </trkpt>
      <trkpt lat="27.963802" lon="-15.563434">
        <ele>1813.00</ele>
        <time>2016-11-26T10:43:02Z</time>
      </trkpt>
      <trkpt lat="27.963804" lon="-15.563475">
        <ele>1813.00</ele>
        <time>2016-11-26T10:43:04Z</time>
      </trkpt>
      <trkpt lat="27.963813" lon="-15.563500">
        <ele>1813.00</ele>
        <time>2016-11-26T10:43:05Z</time>
      </trkpt>
      <trkpt lat="27.963819" lon="-15.563525">
        <ele>1813.00</ele>
        <time>2016-11-26T10:43:06Z</time>
      </trkpt>
      <trkpt lat="27.963830" lon="-15.563554">
        <ele>1813.00</ele>
        <time>2016-11-26T10:43:07Z</time>
      </trkpt>
      <trkpt lat="27.963840" lon="-15.563586">
        <ele>1813.00</ele>
        <time>2016-11-26T10:43:08Z</time>
      </trkpt>
      <trkpt lat="27.963849" lon="-15.563614">
        <ele>1813.00</ele>
        <time>2016-11-26T10:43:09Z</time>
      </trkpt>
      <trkpt lat="27.963861" lon="-15.563651">
        <ele>1813.00</ele>
        <time>2016-11-26T10:43:10Z</time>
      </trkpt>
      <trkpt lat="27.963867" lon="-15.563690">
        <ele>1813.00</ele>
        <time>2016-11-26T10:43:11Z</time>
      </trkpt>
      <trkpt lat="27.963872" lon="-15.563722">
        <ele>1813.00</ele>
        <time>2016-11-26T10:43:12Z</time>
      </trkpt>
      <trkpt lat="27.963878" lon="-15.563750">
        <ele>1813.00</ele>
        <time>2016-11-26T10:43:13Z</time>
      </trkpt>
      <trkpt lat="27.963890" lon="-15.563779">
        <ele>1813.00</ele>
        <time>2016-11-26T10:43:14Z</time>
      </trkpt>
      <trkpt lat="27.963890" lon="-15.563779">
        <ele>1813.00</ele>
        <time>2016-11-26T10:43:14.35Z</time>
      </trkpt>
      <trkpt lat="27.963898" lon="-15.563808">
        <ele>1813.00</ele>
        <time>2016-11-26T10:43:15Z</time>
      </trkpt>
      <trkpt lat="27.963910" lon="-15.563833">
        <ele>1813.72</ele>
        <time>2016-11-26T10:43:16Z</time>
      </trkpt>
      <trkpt lat="27.963925" lon="-15.563861">
        <ele>1814.00</ele>
        <time>2016-11-26T10:43:17Z</time>
      </trkpt>
      <trkpt lat="27.963940" lon="-15.563886">
        <ele>1814.00</ele>
        <time>2016-11-26T10:43:18Z</time>
      </trkpt>
      <trkpt lat="27.963943" lon="-15.563918">
        <ele>1814.00</ele>
        <time>2016-11-26T10:43:19Z</time>
      </trkpt>
      <trkpt lat="27.963942" lon="-15.563954">
        <ele>1814.00</ele>
        <time>2016-11-26T10:43:20Z</time>
      </trkpt>
      <trkpt lat="27.963907" lon="-15.564067">
        <ele>1816.00</ele>
        <time>2016-11-26T10:43:24Z</time>
      </trkpt>
      <trkpt lat="27.963880" lon="-15.564173">
        <ele>1818.00</ele>
        <time>2016-11-26T10:43:28Z</time>
      </trkpt>
      <trkpt lat="27.963888" lon="-15.564204">
        <ele>1818.00</ele>
        <time>2016-11-26T10:43:29Z</time>
      </trkpt>
      <trkpt lat="27.963902" lon="-15.564239">
        <ele>1818.00</ele>
        <time>2016-11-26T10:43:30Z</time>
      </trkpt>
      <trkpt lat="27.963913" lon="-15.564271">
        <ele>1818.85</ele>
        <time>2016-11-26T10:43:31Z</time>
      </trkpt>
      <trkpt lat="27.963927" lon="-15.564324">
        <ele>1821.00</ele>
        <time>2016-11-26T10:43:33Z</time>
      </trkpt>
      <trkpt lat="27.963957" lon="-15.564422">
        <ele>1822.00</ele>
        <time>2016-11-26T10:43:37Z</time>
      </trkpt>
      <trkpt lat="27.963957" lon="-15.564449">
        <ele>1822.00</ele>
        <time>2016-11-26T10:43:38Z</time>
      </trkpt>
      <trkpt lat="27.963947" lon="-15.564478">
        <ele>1822.00</ele>
        <time>2016-11-26T10:43:39Z</time>
      </trkpt>
      <trkpt lat="27.963936" lon="-15.564503">
        <ele>1822.00</ele>
        <time>2016-11-26T10:43:40Z</time>
      </trkpt>
      <trkpt lat="27.963924" lon="-15.564530">
        <ele>1823.83</ele>
        <time>2016-11-26T10:43:41Z</time>
      </trkpt>
      <trkpt lat="27.963911" lon="-15.564559">
        <ele>1825.00</ele>
        <time>2016-11-26T10:43:42Z</time>
      </trkpt>
      <trkpt lat="27.963910" lon="-15.564628">
        <ele>1825.00</ele>
        <time>2016-11-26T10:43:44Z</time>
      </trkpt>
      <trkpt lat="27.963879" lon="-15.564714">
        <ele>1826.00</ele>
        <time>2016-11-26T10:43:47Z</time>
      </trkpt>
      <trkpt lat="27.963798" lon="-15.564776">
        <ele>1826.00</ele>
        <time>2016-11-26T10:43:50Z</time>
      </trkpt>
      <trkpt lat="27.963699" lon="-15.564826">
        <ele>1828.00</ele>
        <time>2016-11-26T10:43:54Z</time>
      </trkpt>
      <trkpt lat="27.963676" lon="-15.564839">
        <ele>1828.00</ele>
        <time>2016-11-26T10:43:55Z</time>
      </trkpt>
      <trkpt lat="27.963655" lon="-15.564853">
        <ele>1828.11</ele>
        <time>2016-11-26T10:43:56Z</time>
      </trkpt>
      <trkpt lat="27.963634" lon="-15.564866">
        <ele>1829.00</ele>
        <time>2016-11-26T10:43:57Z</time>
      </trkpt>
      <trkpt lat="27.963616" lon="-15.564880">
        <ele>1829.00</ele>
        <time>2016-11-26T10:43:57.96Z</time>
      </trkpt>
      <trkpt lat="27.963525" lon="-15.564920">
        <ele>1833.00</ele>
        <time>2016-11-26T10:44:04Z</time>
      </trkpt>
      <trkpt lat="27.963447" lon="-15.564973">
        <ele>1833.00</ele>
        <time>2016-11-26T10:44:10Z</time>
      </trkpt>
      <trkpt lat="27.963414" lon="-15.565012">
        <ele>1836.00</ele>
        <time>2016-11-26T10:44:12.35Z</time>
      </trkpt>
      <trkpt lat="27.963378" lon="-15.565047">
        <ele>1836.00</ele>
        <time>2016-11-26T10:44:14Z</time>
      </trkpt>
      <trkpt lat="27.963358" lon="-15.565064">
        <ele>1836.00</ele>
        <time>2016-11-26T10:44:15Z</time>
      </trkpt>
      <trkpt lat="27.963291" lon="-15.565135">
        <ele>1838.00</ele>
        <time>2016-11-26T10:44:20Z</time>
      </trkpt>
      <trkpt lat="27.963250" lon="-15.565242">
        <ele>1839.00</ele>
        <time>2016-11-26T10:44:24Z</time>
      </trkpt>
      <trkpt lat="27.963187" lon="-15.565337">
        <ele>1843.00</ele>
        <time>2016-11-26T10:44:29Z</time>
      </trkpt>
      <trkpt lat="27.963138" lon="-15.565426">
        <ele>1846.00</ele>
        <time>2016-11-26T10:44:33Z</time>
      </trkpt>
      <trkpt lat="27.963126" lon="-15.565454">
        <ele>1846.00</ele>
        <time>2016-11-26T10:44:34Z</time>
      </trkpt>
      <trkpt lat="27.963116" lon="-15.565483">
        <ele>1846.00</ele>
        <time>2016-11-26T10:44:35Z</time>
      </trkpt>
      <trkpt lat="27.963103" lon="-15.565509">
        <ele>1846.54</ele>
        <time>2016-11-26T10:44:36Z</time>
      </trkpt>
      <trkpt lat="27.963088" lon="-15.565531">
        <ele>1847.00</ele>
        <time>2016-11-26T10:44:37Z</time>
      </trkpt>
      <trkpt lat="27.963074" lon="-15.565553">
        <ele>1847.00</ele>
        <time>2016-11-26T10:44:38Z</time>
      </trkpt>
      <trkpt lat="27.963062" lon="-15.565575">
        <ele>1847.00</ele>
        <time>2016-11-26T10:44:39Z</time>
      </trkpt>
      <trkpt lat="27.963031" lon="-15.565601">
        <ele>1848.42</ele>
        <time>2016-11-26T10:44:41Z</time>
      </trkpt>
      <trkpt lat="27.962989" lon="-15.565625">
        <ele>1849.00</ele>
        <time>2016-11-26T10:44:44Z</time>
      </trkpt>
      <trkpt lat="27.962893" lon="-15.565666">
        <ele>1850.13</ele>
        <time>2016-11-26T10:44:51Z</time>
      </trkpt>
      <trkpt lat="27.962849" lon="-15.565689">
        <ele>1852.00</ele>
        <time>2016-11-26T10:44:55Z</time>
      </trkpt>
      <trkpt lat="27.962771" lon="-15.565756">
        <ele>1854.00</ele>
        <time>2016-11-26T10:45:00Z</time>
      </trkpt>
      <trkpt lat="27.962693" lon="-15.565813">
        <ele>1858.00</ele>
        <time>2016-11-26T10:45:04Z</time>
      </trkpt>
      <trkpt lat="27.962627" lon="-15.565900">
        <ele>1859.00</ele>
        <time>2016-11-26T10:45:09Z</time>
      </trkpt>
      <trkpt lat="27.962625" lon="-15.565927">
        <ele>1859.00</ele>
        <time>2016-11-26T10:45:10Z</time>
      </trkpt>
      <trkpt lat="27.962625" lon="-15.565927">
        <ele>1859.00</ele>
        <time>2016-11-26T10:45:10.31Z</time>
      </trkpt>
      <trkpt lat="27.962631" lon="-15.565949">
        <ele>1859.70</ele>
        <time>2016-11-26T10:45:11Z</time>
      </trkpt>
      <trkpt lat="27.962641" lon="-15.565967">
        <ele>1860.00</ele>
        <time>2016-11-26T10:45:12Z</time>
      </trkpt>
      <trkpt lat="27.962655" lon="-15.565995">
        <ele>1860.00</ele>
        <time>2016-11-26T10:45:14Z</time>
      </trkpt>
      <trkpt lat="27.962638" lon="-15.566032">
        <ele>1861.69</ele>
        <time>2016-11-26T10:45:16Z</time>
      </trkpt>
      <trkpt lat="27.962636" lon="-15.566055">
        <ele>1862.00</ele>
        <time>2016-11-26T10:45:17Z</time>
      </trkpt>
      <trkpt lat="27.962640" lon="-15.566080">
        <ele>1862.00</ele>
        <time>2016-11-26T10:45:18Z</time>
      </trkpt>
      <trkpt lat="27.962648" lon="-15.566099">
        <ele>1862.00</ele>
        <time>2016-11-26T10:45:19Z</time>
      </trkpt>
      <trkpt lat="27.962662" lon="-15.566132">
        <ele>1865.76</ele>
        <time>2016-11-26T10:45:21Z</time>
      </trkpt>
      <trkpt lat="27.962662" lon="-15.566161">
        <ele>1866.00</ele>
        <time>2016-11-26T10:45:23Z</time>
      </trkpt>
      <trkpt lat="27.962683" lon="-15.566181">
        <ele>1866.02</ele>
        <time>2016-11-26T10:45:25Z</time>
      </trkpt>
      <trkpt lat="27.962714" lon="-15.566199">
        <ele>1867.00</ele>
        <time>2016-11-26T10:45:27Z</time>
      </trkpt>
      <trkpt lat="27.962726" lon="-15.566215">
        <ele>1867.00</ele>
        <time>2016-11-26T10:45:28Z</time>
      </trkpt>
      <trkpt lat="27.962734" lon="-15.566236">
        <ele>1867.00</ele>
        <time>2016-11-26T10:45:29Z</time>
      </trkpt>
      <trkpt lat="27.962743" lon="-15.566258">
        <ele>1867.00</ele>
        <time>2016-11-26T10:45:30Z</time>
      </trkpt>
      <trkpt lat="27.962752" lon="-15.566281">
        <ele>1867.21</ele>
        <time>2016-11-26T10:45:31Z</time>
      </trkpt>
      <trkpt lat="27.962759" lon="-15.566303">
        <ele>1869.00</ele>
        <time>2016-11-26T10:45:32Z</time>
      </trkpt>
      <trkpt lat="27.962774" lon="-15.566338">
        <ele>1869.00</ele>
        <time>2016-11-26T10:45:34Z</time>
      </trkpt>
      <trkpt lat="27.962790" lon="-15.566360">
        <ele>1869.66</ele>
        <time>2016-11-26T10:45:36Z</time>
      </trkpt>
      <trkpt lat="27.962808" lon="-15.566389">
        <ele>1872.00</ele>
        <time>2016-11-26T10:45:38Z</time>
      </trkpt>
      <trkpt lat="27.962825" lon="-15.566421">
        <ele>1872.00</ele>
        <time>2016-11-26T10:45:40Z</time>
      </trkpt>
      <trkpt lat="27.962832" lon="-15.566461">
        <ele>1875.00</ele>
        <time>2016-11-26T10:45:42Z</time>
      </trkpt>
      <trkpt lat="27.962821" lon="-15.566546">
        <ele>1875.00</ele>
        <time>2016-11-26T10:45:48Z</time>
      </trkpt>
      <trkpt lat="27.962812" lon="-15.566568">
        <ele>1875.00</ele>
        <time>2016-11-26T10:45:49Z</time>
      </trkpt>
      <trkpt lat="27.962784" lon="-15.566627">
        <ele>1876.00</ele>
        <time>2016-11-26T10:45:52Z</time>
      </trkpt>
      <trkpt lat="27.962771" lon="-15.566657">
        <ele>1876.00</ele>
        <time>2016-11-26T10:45:54Z</time>
      </trkpt>
      <trkpt lat="27.962768" lon="-15.566679">
        <ele>1876.00</ele>
        <time>2016-11-26T10:45:55Z</time>
      </trkpt>
      <trkpt lat="27.962772" lon="-15.566702">
        <ele>1876.00</ele>
        <time>2016-11-26T10:45:56Z</time>
      </trkpt>
      <trkpt lat="27.962778" lon="-15.566736">
        <ele>1876.00</ele>
        <time>2016-11-26T10:45:58Z</time>
      </trkpt>
      <trkpt lat="27.962784" lon="-15.566769">
        <ele>1876.00</ele>
        <time>2016-11-26T10:46:00Z</time>
      </trkpt>
      <trkpt lat="27.962781" lon="-15.566802">
        <ele>1878.00</ele>
        <time>2016-11-26T10:46:02Z</time>
      </trkpt>
      <trkpt lat="27.962779" lon="-15.566822">
        <ele>1878.00</ele>
        <time>2016-11-26T10:46:03Z</time>
      </trkpt>
      <trkpt lat="27.962778" lon="-15.566846">
        <ele>1878.00</ele>
        <time>2016-11-26T10:46:04Z</time>
      </trkpt>
      <trkpt lat="27.962778" lon="-15.566873">
        <ele>1878.00</ele>
        <time>2016-11-26T10:46:05Z</time>
      </trkpt>
      <trkpt lat="27.962771" lon="-15.566902">
        <ele>1878.88</ele>
        <time>2016-11-26T10:46:06Z</time>
      </trkpt>
      <trkpt lat="27.962757" lon="-15.566924">
        <ele>1879.00</ele>
        <time>2016-11-26T10:46:07Z</time>
      </trkpt>
      <trkpt lat="27.962746" lon="-15.566946">
        <ele>1879.00</ele>
        <time>2016-11-26T10:46:08Z</time>
      </trkpt>
      <trkpt lat="27.962731" lon="-15.566970">
        <ele>1879.00</ele>
        <time>2016-11-26T10:46:08.98Z</time>
      </trkpt>
      <trkpt lat="27.962731" lon="-15.566970">
        <ele>1879.00</ele>
        <time>2016-11-26T10:46:09Z</time>
      </trkpt>
      <trkpt lat="27.962720" lon="-15.566995">
        <ele>1879.09</ele>
        <time>2016-11-26T10:46:10Z</time>
      </trkpt>
      <trkpt lat="27.962693" lon="-15.567024">
        <ele>1882.00</ele>
        <time>2016-11-26T10:46:12Z</time>
      </trkpt>
      <trkpt lat="27.962679" lon="-15.567045">
        <ele>1882.00</ele>
        <time>2016-11-26T10:46:13Z</time>
      </trkpt>
      <trkpt lat="27.962664" lon="-15.567063">
        <ele>1882.00</ele>
        <time>2016-11-26T10:46:14Z</time>
      </trkpt>
      <trkpt lat="27.962652" lon="-15.567080">
        <ele>1882.00</ele>
        <time>2016-11-26T10:46:15Z</time>
      </trkpt>
      <trkpt lat="27.962640" lon="-15.567169">
        <ele>1882.00</ele>
        <time>2016-11-26T10:46:19Z</time>
      </trkpt>
      <trkpt lat="27.962644" lon="-15.567196">
        <ele>1882.00</ele>
        <time>2016-11-26T10:46:20Z</time>
      </trkpt>
      <trkpt lat="27.962648" lon="-15.567225">
        <ele>1882.28</ele>
        <time>2016-11-26T10:46:21Z</time>
      </trkpt>
      <trkpt lat="27.962654" lon="-15.567251">
        <ele>1883.00</ele>
        <time>2016-11-26T10:46:22Z</time>
      </trkpt>
      <trkpt lat="27.962658" lon="-15.567287">
        <ele>1883.00</ele>
        <time>2016-11-26T10:46:23Z</time>
      </trkpt>
      <trkpt lat="27.962662" lon="-15.567324">
        <ele>1883.00</ele>
        <time>2016-11-26T10:46:24Z</time>
      </trkpt>
      <trkpt lat="27.962663" lon="-15.567358">
        <ele>1883.00</ele>
        <time>2016-11-26T10:46:25Z</time>
      </trkpt>
      <trkpt lat="27.962669" lon="-15.567393">
        <ele>1883.00</ele>
        <time>2016-11-26T10:46:26Z</time>
      </trkpt>
      <trkpt lat="27.962677" lon="-15.567423">
        <ele>1883.00</ele>
        <time>2016-11-26T10:46:27Z</time>
      </trkpt>
      <trkpt lat="27.962689" lon="-15.567448">
        <ele>1883.00</ele>
        <time>2016-11-26T10:46:28Z</time>
      </trkpt>
      <trkpt lat="27.962700" lon="-15.567473">
        <ele>1883.00</ele>
        <time>2016-11-26T10:46:29Z</time>
      </trkpt>
      <trkpt lat="27.962710" lon="-15.567499">
        <ele>1883.00</ele>
        <time>2016-11-26T10:46:30Z</time>
      </trkpt>
      <trkpt lat="27.962721" lon="-15.567532">
        <ele>1883.59</ele>
        <time>2016-11-26T10:46:31Z</time>
      </trkpt>
      <trkpt lat="27.962767" lon="-15.567633">
        <ele>1884.00</ele>
        <time>2016-11-26T10:46:33.96Z</time>
      </trkpt>
      <trkpt lat="27.962811" lon="-15.567723">
        <ele>1884.00</ele>
        <time>2016-11-26T10:46:37Z</time>
      </trkpt>
      <trkpt lat="27.962841" lon="-15.567819">
        <ele>1884.00</ele>
        <time>2016-11-26T10:46:40Z</time>
      </trkpt>
      <trkpt lat="27.962848" lon="-15.567846">
        <ele>1884.81</ele>
        <time>2016-11-26T10:46:41Z</time>
      </trkpt>
      <trkpt lat="27.962868" lon="-15.567896">
        <ele>1885.00</ele>
        <time>2016-11-26T10:46:43Z</time>
      </trkpt>
      <trkpt lat="27.962888" lon="-15.567938">
        <ele>1885.00</ele>
        <time>2016-11-26T10:46:45Z</time>
      </trkpt>
      <trkpt lat="27.962903" lon="-15.567961">
        <ele>1885.00</ele>
        <time>2016-11-26T10:46:46Z</time>
      </trkpt>
      <trkpt lat="27.962914" lon="-15.567979">
        <ele>1885.00</ele>
        <time>2016-11-26T10:46:47Z</time>
      </trkpt>
      <trkpt lat="27.962948" lon="-15.568061">
        <ele>1885.09</ele>
        <time>2016-11-26T10:46:51Z</time>
      </trkpt>
      <trkpt lat="27.962958" lon="-15.568083">
        <ele>1886.00</ele>
        <time>2016-11-26T10:46:52Z</time>
      </trkpt>
      <trkpt lat="27.962966" lon="-15.568103">
        <ele>1886.00</ele>
        <time>2016-11-26T10:46:53Z</time>
      </trkpt>
      <trkpt lat="27.962976" lon="-15.568128">
        <ele>1886.00</ele>
        <time>2016-11-26T10:46:54Z</time>
      </trkpt>
      <trkpt lat="27.962988" lon="-15.568168">
        <ele>1886.00</ele>
        <time>2016-11-26T10:46:56Z</time>
      </trkpt>
      <trkpt lat="27.962992" lon="-15.568191">
        <ele>1886.00</ele>
        <time>2016-11-26T10:46:57Z</time>
      </trkpt>
      <trkpt lat="27.963005" lon="-15.568238">
        <ele>1886.00</ele>
        <time>2016-11-26T10:46:59Z</time>
      </trkpt>
      <trkpt lat="27.963015" lon="-15.568259">
        <ele>1886.00</ele>
        <time>2016-11-26T10:47:00Z</time>
      </trkpt>
      <trkpt lat="27.963023" lon="-15.568279">
        <ele>1886.00</ele>
        <time>2016-11-26T10:47:01Z</time>
      </trkpt>
      <trkpt lat="27.963027" lon="-15.568299">
        <ele>1886.00</ele>
        <time>2016-11-26T10:47:02Z</time>
      </trkpt>
      <trkpt lat="27.963036" lon="-15.568318">
        <ele>1886.00</ele>
        <time>2016-11-26T10:47:03Z</time>
      </trkpt>
      <trkpt lat="27.963048" lon="-15.568337">
        <ele>1886.00</ele>
        <time>2016-11-26T10:47:04Z</time>
      </trkpt>
      <trkpt lat="27.963057" lon="-15.568360">
        <ele>1886.00</ele>
        <time>2016-11-26T10:47:05Z</time>
      </trkpt>
      <trkpt lat="27.963070" lon="-15.568386">
        <ele>1886.00</ele>
        <time>2016-11-26T10:47:06Z</time>
      </trkpt>
      <trkpt lat="27.963083" lon="-15.568415">
        <ele>1886.00</ele>
        <time>2016-11-26T10:47:07Z</time>
      </trkpt>
      <trkpt lat="27.963083" lon="-15.568415">
        <ele>1886.00</ele>
        <time>2016-11-26T10:47:07.41Z</time>
      </trkpt>
      <trkpt lat="27.963095" lon="-15.568442">
        <ele>1886.00</ele>
        <time>2016-11-26T10:47:08Z</time>
      </trkpt>
      <trkpt lat="27.963106" lon="-15.568465">
        <ele>1886.00</ele>
        <time>2016-11-26T10:47:09Z</time>
      </trkpt>
      <trkpt lat="27.963119" lon="-15.568490">
        <ele>1886.00</ele>
        <time>2016-11-26T10:47:10Z</time>
      </trkpt>
      <trkpt lat="27.963131" lon="-15.568512">
        <ele>1886.00</ele>
        <time>2016-11-26T10:47:11Z</time>
      </trkpt>
      <trkpt lat="27.963143" lon="-15.568535">
        <ele>1886.00</ele>
        <time>2016-11-26T10:47:12Z</time>
      </trkpt>
      <trkpt lat="27.963154" lon="-15.568564">
        <ele>1886.00</ele>
        <time>2016-11-26T10:47:13Z</time>
      </trkpt>
      <trkpt lat="27.963167" lon="-15.568593">
        <ele>1886.00</ele>
        <time>2016-11-26T10:47:14Z</time>
      </trkpt>
      <trkpt lat="27.963177" lon="-15.568621">
        <ele>1886.00</ele>
        <time>2016-11-26T10:47:15Z</time>
      </trkpt>
      <trkpt lat="27.963190" lon="-15.568654">
        <ele>1886.00</ele>
        <time>2016-11-26T10:47:16Z</time>
      </trkpt>
      <trkpt lat="27.963200" lon="-15.568683">
        <ele>1886.00</ele>
        <time>2016-11-26T10:47:17Z</time>
      </trkpt>
      <trkpt lat="27.963219" lon="-15.568750">
        <ele>1886.00</ele>
        <time>2016-11-26T10:47:19Z</time>
      </trkpt>
      <trkpt lat="27.963231" lon="-15.568784">
        <ele>1886.00</ele>
        <time>2016-11-26T10:47:20Z</time>
      </trkpt>
      <trkpt lat="27.963237" lon="-15.568816">
        <ele>1885.00</ele>
        <time>2016-11-26T10:47:21Z</time>
      </trkpt>
      <trkpt lat="27.963244" lon="-15.568850">
        <ele>1885.00</ele>
        <time>2016-11-26T10:47:22Z</time>
      </trkpt>
      <trkpt lat="27.963248" lon="-15.568880">
        <ele>1885.00</ele>
        <time>2016-11-26T10:47:23Z</time>
      </trkpt>
      <trkpt lat="27.963250" lon="-15.568915">
        <ele>1885.00</ele>
        <time>2016-11-26T10:47:24Z</time>
      </trkpt>
      <trkpt lat="27.963252" lon="-15.568945">
        <ele>1885.00</ele>
        <time>2016-11-26T10:47:25Z</time>
      </trkpt>
      <trkpt lat="27.963256" lon="-15.568973">
        <ele>1885.00</ele>
        <time>2016-11-26T10:47:26Z</time>
      </trkpt>
      <trkpt lat="27.963261" lon="-15.569001">
        <ele>1885.00</ele>
        <time>2016-11-26T10:47:27Z</time>
      </trkpt>
      <trkpt lat="27.963262" lon="-15.569028">
        <ele>1885.00</ele>
        <time>2016-11-26T10:47:28Z</time>
      </trkpt>
      <trkpt lat="27.963266" lon="-15.569052">
        <ele>1885.00</ele>
        <time>2016-11-26T10:47:29Z</time>
      </trkpt>
      <trkpt lat="27.963276" lon="-15.569091">
        <ele>1885.29</ele>
        <time>2016-11-26T10:47:31Z</time>
      </trkpt>
      <trkpt lat="27.963282" lon="-15.569125">
        <ele>1886.00</ele>
        <time>2016-11-26T10:47:33Z</time>
      </trkpt>
      <trkpt lat="27.963328" lon="-15.569214">
        <ele>1886.00</ele>
        <time>2016-11-26T10:47:38Z</time>
      </trkpt>
      <trkpt lat="27.963334" lon="-15.569240">
        <ele>1886.00</ele>
        <time>2016-11-26T10:47:39Z</time>
      </trkpt>
      <trkpt lat="27.963343" lon="-15.569262">
        <ele>1886.00</ele>
        <time>2016-11-26T10:47:40Z</time>
      </trkpt>
      <trkpt lat="27.963347" lon="-15.569290">
        <ele>1886.00</ele>
        <time>2016-11-26T10:47:41Z</time>
      </trkpt>
      <trkpt lat="27.963364" lon="-15.569338">
        <ele>1886.00</ele>
        <time>2016-11-26T10:47:43Z</time>
      </trkpt>
      <trkpt lat="27.963378" lon="-15.569360">
        <ele>1886.00</ele>
        <time>2016-11-26T10:47:44Z</time>
      </trkpt>
      <trkpt lat="27.963409" lon="-15.569404">
        <ele>1886.00</ele>
        <time>2016-11-26T10:47:46Z</time>
      </trkpt>
      <trkpt lat="27.963465" lon="-15.569505">
        <ele>1886.00</ele>
        <time>2016-11-26T10:47:50Z</time>
      </trkpt>
      <trkpt lat="27.963526" lon="-15.569594">
        <ele>1886.00</ele>
        <time>2016-11-26T10:47:54Z</time>
      </trkpt>
      <trkpt lat="27.963585" lon="-15.569693">
        <ele>1886.00</ele>
        <time>2016-11-26T10:47:58Z</time>
      </trkpt>
      <trkpt lat="27.963643" lon="-15.569789">
        <ele>1888.00</ele>
        <time>2016-11-26T10:48:03Z</time>
      </trkpt>
      <trkpt lat="27.963684" lon="-15.569871">
        <ele>1888.00</ele>
        <time>2016-11-26T10:48:05.97Z</time>
      </trkpt>
      <trkpt lat="27.963695" lon="-15.569898">
        <ele>1888.00</ele>
        <time>2016-11-26T10:48:07Z</time>
      </trkpt>
      <trkpt lat="27.963748" lon="-15.570006">
        <ele>1888.00</ele>
        <time>2016-11-26T10:48:11Z</time>
      </trkpt>
      <trkpt lat="27.963796" lon="-15.570100">
        <ele>1888.00</ele>
        <time>2016-11-26T10:48:15Z</time>
      </trkpt>
      <trkpt lat="27.963808" lon="-15.570121">
        <ele>1888.00</ele>
        <time>2016-11-26T10:48:16Z</time>
      </trkpt>
      <trkpt lat="27.963824" lon="-15.570140">
        <ele>1888.00</ele>
        <time>2016-11-26T10:48:17Z</time>
      </trkpt>
      <trkpt lat="27.963838" lon="-15.570166">
        <ele>1888.00</ele>
        <time>2016-11-26T10:48:18Z</time>
      </trkpt>
      <trkpt lat="27.963849" lon="-15.570184">
        <ele>1888.00</ele>
        <time>2016-11-26T10:48:19Z</time>
      </trkpt>
      <trkpt lat="27.963880" lon="-15.570245">
        <ele>1887.00</ele>
        <time>2016-11-26T10:48:22Z</time>
      </trkpt>
      <trkpt lat="27.963896" lon="-15.570273">
        <ele>1887.00</ele>
        <time>2016-11-26T10:48:23Z</time>
      </trkpt>
      <trkpt lat="27.963941" lon="-15.570364">
        <ele>1887.00</ele>
        <time>2016-11-26T10:48:26Z</time>
      </trkpt>
      <trkpt lat="27.963971" lon="-15.570465">
        <ele>1887.00</ele>
        <time>2016-11-26T10:48:30Z</time>
      </trkpt>
      <trkpt lat="27.964011" lon="-15.570563">
        <ele>1887.00</ele>
        <time>2016-11-26T10:48:34Z</time>
      </trkpt>
      <trkpt lat="27.964051" lon="-15.570667">
        <ele>1887.00</ele>
        <time>2016-11-26T10:48:38Z</time>
      </trkpt>
      <trkpt lat="27.964063" lon="-15.570696">
        <ele>1887.00</ele>
        <time>2016-11-26T10:48:39Z</time>
      </trkpt>
      <trkpt lat="27.964089" lon="-15.570748">
        <ele>1886.92</ele>
        <time>2016-11-26T10:48:41Z</time>
      </trkpt>
      <trkpt lat="27.964128" lon="-15.570865">
        <ele>1886.00</ele>
        <time>2016-11-26T10:48:45Z</time>
      </trkpt>
      <trkpt lat="27.964178" lon="-15.570971">
        <ele>1886.00</ele>
        <time>2016-11-26T10:48:49Z</time>
      </trkpt>
      <trkpt lat="27.964195" lon="-15.571000">
        <ele>1886.00</ele>
        <time>2016-11-26T10:48:50Z</time>
      </trkpt>
      <trkpt lat="27.964205" lon="-15.571031">
        <ele>1885.80</ele>
        <time>2016-11-26T10:48:51Z</time>
      </trkpt>
      <trkpt lat="27.964217" lon="-15.571057">
        <ele>1884.00</ele>
        <time>2016-11-26T10:48:52Z</time>
      </trkpt>
      <trkpt lat="27.964227" lon="-15.571079">
        <ele>1884.00</ele>
        <time>2016-11-26T10:48:53Z</time>
      </trkpt>
      <trkpt lat="27.964241" lon="-15.571103">
        <ele>1884.00</ele>
        <time>2016-11-26T10:48:54Z</time>
      </trkpt>
      <trkpt lat="27.964251" lon="-15.571127">
        <ele>1884.00</ele>
        <time>2016-11-26T10:48:55Z</time>
      </trkpt>
      <trkpt lat="27.964302" lon="-15.571238">
        <ele>1884.00</ele>
        <time>2016-11-26T10:48:59Z</time>
      </trkpt>
      <trkpt lat="27.964335" lon="-15.571356">
        <ele>1885.00</ele>
        <time>2016-11-26T10:49:03Z</time>
      </trkpt>
      <trkpt lat="27.964359" lon="-15.571439">
        <ele>1885.00</ele>
        <time>2016-11-26T10:49:06Z</time>
      </trkpt>
      <trkpt lat="27.964356" lon="-15.571472">
        <ele>1885.00</ele>
        <time>2016-11-26T10:49:06.84Z</time>
      </trkpt>
      <trkpt lat="27.964356" lon="-15.571472">
        <ele>1885.00</ele>
        <time>2016-11-26T10:49:07Z</time>
      </trkpt>
      <trkpt lat="27.964359" lon="-15.571499">
        <ele>1885.00</ele>
        <time>2016-11-26T10:49:08Z</time>
      </trkpt>
      <trkpt lat="27.964370" lon="-15.571562">
        <ele>1885.00</ele>
        <time>2016-11-26T10:49:10Z</time>
      </trkpt>
      <trkpt lat="27.964377" lon="-15.571631">
        <ele>1887.00</ele>
        <time>2016-11-26T10:49:12Z</time>
      </trkpt>
      <trkpt lat="27.964377" lon="-15.571697">
        <ele>1887.00</ele>
        <time>2016-11-26T10:49:14Z</time>
      </trkpt>
      <trkpt lat="27.964377" lon="-15.571737">
        <ele>1887.00</ele>
        <time>2016-11-26T10:49:15Z</time>
      </trkpt>
      <trkpt lat="27.964372" lon="-15.571772">
        <ele>1887.00</ele>
        <time>2016-11-26T10:49:16Z</time>
      </trkpt>
      <trkpt lat="27.964355" lon="-15.571813">
        <ele>1887.00</ele>
        <time>2016-11-26T10:49:17Z</time>
      </trkpt>
      <trkpt lat="27.964340" lon="-15.571845">
        <ele>1887.00</ele>
        <time>2016-11-26T10:49:18Z</time>
      </trkpt>
      <trkpt lat="27.964324" lon="-15.571877">
        <ele>1887.00</ele>
        <time>2016-11-26T10:49:19Z</time>
      </trkpt>
      <trkpt lat="27.964310" lon="-15.571908">
        <ele>1887.00</ele>
        <time>2016-11-26T10:49:20Z</time>
      </trkpt>
      <trkpt lat="27.964293" lon="-15.571943">
        <ele>1888.36</ele>
        <time>2016-11-26T10:49:21Z</time>
      </trkpt>
      <trkpt lat="27.964275" lon="-15.571973">
        <ele>1889.00</ele>
        <time>2016-11-26T10:49:22Z</time>
      </trkpt>
      <trkpt lat="27.964254" lon="-15.571997">
        <ele>1889.00</ele>
        <time>2016-11-26T10:49:23Z</time>
      </trkpt>
      <trkpt lat="27.964234" lon="-15.572014">
        <ele>1889.00</ele>
        <time>2016-11-26T10:49:24Z</time>
      </trkpt>
      <trkpt lat="27.964213" lon="-15.572030">
        <ele>1889.00</ele>
        <time>2016-11-26T10:49:25Z</time>
      </trkpt>
      <trkpt lat="27.964194" lon="-15.572040">
        <ele>1889.85</ele>
        <time>2016-11-26T10:49:26Z</time>
      </trkpt>
      <trkpt lat="27.964173" lon="-15.572053">
        <ele>1890.00</ele>
        <time>2016-11-26T10:49:27Z</time>
      </trkpt>
      <trkpt lat="27.964153" lon="-15.572064">
        <ele>1890.00</ele>
        <time>2016-11-26T10:49:28Z</time>
      </trkpt>
      <trkpt lat="27.964127" lon="-15.572078">
        <ele>1890.00</ele>
        <time>2016-11-26T10:49:29Z</time>
      </trkpt>
      <trkpt lat="27.964104" lon="-15.572093">
        <ele>1890.00</ele>
        <time>2016-11-26T10:49:30Z</time>
      </trkpt>
      <trkpt lat="27.964081" lon="-15.572106">
        <ele>1892.92</ele>
        <time>2016-11-26T10:49:31Z</time>
      </trkpt>
      <trkpt lat="27.964058" lon="-15.572119">
        <ele>1893.00</ele>
        <time>2016-11-26T10:49:32Z</time>
      </trkpt>
      <trkpt lat="27.964036" lon="-15.572133">
        <ele>1893.00</ele>
        <time>2016-11-26T10:49:33Z</time>
      </trkpt>
      <trkpt lat="27.964013" lon="-15.572149">
        <ele>1893.00</ele>
        <time>2016-11-26T10:49:34Z</time>
      </trkpt>
      <trkpt lat="27.963993" lon="-15.572162">
        <ele>1893.00</ele>
        <time>2016-11-26T10:49:35Z</time>
      </trkpt>
      <trkpt lat="27.963967" lon="-15.572181">
        <ele>1893.00</ele>
        <time>2016-11-26T10:49:36Z</time>
      </trkpt>
      <trkpt lat="27.963941" lon="-15.572194">
        <ele>1893.00</ele>
        <time>2016-11-26T10:49:37Z</time>
      </trkpt>
      <trkpt lat="27.963914" lon="-15.572213">
        <ele>1893.00</ele>
        <time>2016-11-26T10:49:38Z</time>
      </trkpt>
      <trkpt lat="27.963894" lon="-15.572225">
        <ele>1893.00</ele>
        <time>2016-11-26T10:49:39Z</time>
      </trkpt>
      <trkpt lat="27.963872" lon="-15.572243">
        <ele>1893.00</ele>
        <time>2016-11-26T10:49:40Z</time>
      </trkpt>
      <trkpt lat="27.963848" lon="-15.572266">
        <ele>1893.00</ele>
        <time>2016-11-26T10:49:41Z</time>
      </trkpt>
      <trkpt lat="27.963822" lon="-15.572287">
        <ele>1892.75</ele>
        <time>2016-11-26T10:49:42Z</time>
      </trkpt>
      <trkpt lat="27.963797" lon="-15.572308">
        <ele>1892.24</ele>
        <time>2016-11-26T10:49:43Z</time>
      </trkpt>
      <trkpt lat="27.963772" lon="-15.572325">
        <ele>1893.00</ele>
        <time>2016-11-26T10:49:44Z</time>
      </trkpt>
      <trkpt lat="27.963745" lon="-15.572342">
        <ele>1893.27</ele>
        <time>2016-11-26T10:49:45Z</time>
      </trkpt>
      <trkpt lat="27.963718" lon="-15.572358">
        <ele>1893.70</ele>
        <time>2016-11-26T10:49:46Z</time>
      </trkpt>
      <trkpt lat="27.963692" lon="-15.572371">
        <ele>1893.33</ele>
        <time>2016-11-26T10:49:47Z</time>
      </trkpt>
      <trkpt lat="27.963664" lon="-15.572379">
        <ele>1894.00</ele>
        <time>2016-11-26T10:49:48Z</time>
      </trkpt>
      <trkpt lat="27.963637" lon="-15.572388">
        <ele>1894.77</ele>
        <time>2016-11-26T10:49:49Z</time>
      </trkpt>
      <trkpt lat="27.963613" lon="-15.572391">
        <ele>1895.61</ele>
        <time>2016-11-26T10:49:50Z</time>
      </trkpt>
      <trkpt lat="27.963584" lon="-15.572395">
        <ele>1895.37</ele>
        <time>2016-11-26T10:49:51Z</time>
      </trkpt>
      <trkpt lat="27.963554" lon="-15.572392">
        <ele>1896.00</ele>
        <time>2016-11-26T10:49:52Z</time>
      </trkpt>
      <trkpt lat="27.963518" lon="-15.572388">
        <ele>1896.00</ele>
        <time>2016-11-26T10:49:53Z</time>
      </trkpt>
      <trkpt lat="27.963489" lon="-15.572377">
        <ele>1895.19</ele>
        <time>2016-11-26T10:49:54Z</time>
      </trkpt>
      <trkpt lat="27.963461" lon="-15.572364">
        <ele>1894.44</ele>
        <time>2016-11-26T10:49:55Z</time>
      </trkpt>
      <trkpt lat="27.963411" lon="-15.572329">
        <ele>1896.00</ele>
        <time>2016-11-26T10:49:57Z</time>
      </trkpt>
      <trkpt lat="27.963334" lon="-15.572269">
        <ele>1895.17</ele>
        <time>2016-11-26T10:50:00Z</time>
      </trkpt>
      <trkpt lat="27.963254" lon="-15.572206">
        <ele>1897.00</ele>
        <time>2016-11-26T10:50:04Z</time>
      </trkpt>
      <trkpt lat="27.963241" lon="-15.572190">
        <ele>1897.00</ele>
        <time>2016-11-26T10:50:05Z</time>
      </trkpt>
      <trkpt lat="27.963241" lon="-15.572190">
        <ele>1897.00</ele>
        <time>2016-11-26T10:50:05.39Z</time>
      </trkpt>
      <trkpt lat="27.963204" lon="-15.572162">
        <ele>1899.00</ele>
        <time>2016-11-26T10:50:07Z</time>
      </trkpt>
      <trkpt lat="27.963159" lon="-15.572139">
        <ele>1899.00</ele>
        <time>2016-11-26T10:50:09Z</time>
      </trkpt>
      <trkpt lat="27.963135" lon="-15.572128">
        <ele>1899.00</ele>
        <time>2016-11-26T10:50:10Z</time>
      </trkpt>
      <trkpt lat="27.963112" lon="-15.572118">
        <ele>1902.11</ele>
        <time>2016-11-26T10:50:11Z</time>
      </trkpt>
      <trkpt lat="27.963091" lon="-15.572108">
        <ele>1903.00</ele>
        <time>2016-11-26T10:50:12Z</time>
      </trkpt>
      <trkpt lat="27.963065" lon="-15.572103">
        <ele>1903.00</ele>
        <time>2016-11-26T10:50:13Z</time>
      </trkpt>
      <trkpt lat="27.963038" lon="-15.572104">
        <ele>1903.00</ele>
        <time>2016-11-26T10:50:14Z</time>
      </trkpt>
      <trkpt lat="27.963013" lon="-15.572098">
        <ele>1903.00</ele>
        <time>2016-11-26T10:50:15Z</time>
      </trkpt>
      <trkpt lat="27.962993" lon="-15.572091">
        <ele>1903.00</ele>
        <time>2016-11-26T10:50:16Z</time>
      </trkpt>
      <trkpt lat="27.962970" lon="-15.572083">
        <ele>1903.00</ele>
        <time>2016-11-26T10:50:17Z</time>
      </trkpt>
      <trkpt lat="27.962950" lon="-15.572073">
        <ele>1903.00</ele>
        <time>2016-11-26T10:50:18Z</time>
      </trkpt>
      <trkpt lat="27.962932" lon="-15.572066">
        <ele>1903.00</ele>
        <time>2016-11-26T10:50:19Z</time>
      </trkpt>
      <trkpt lat="27.962902" lon="-15.572046">
        <ele>1903.99</ele>
        <time>2016-11-26T10:50:21Z</time>
      </trkpt>
      <trkpt lat="27.962884" lon="-15.572039">
        <ele>1904.00</ele>
        <time>2016-11-26T10:50:22Z</time>
      </trkpt>
      <trkpt lat="27.962853" lon="-15.572031">
        <ele>1904.00</ele>
        <time>2016-11-26T10:50:24Z</time>
      </trkpt>
      <trkpt lat="27.962823" lon="-15.572025">
        <ele>1904.00</ele>
        <time>2016-11-26T10:50:26Z</time>
      </trkpt>
      <trkpt lat="27.962804" lon="-15.572019">
        <ele>1904.00</ele>
        <time>2016-11-26T10:50:27Z</time>
      </trkpt>
      <trkpt lat="27.962773" lon="-15.572007">
        <ele>1904.00</ele>
        <time>2016-11-26T10:50:29Z</time>
      </trkpt>
      <trkpt lat="27.962747" lon="-15.571995">
        <ele>1904.10</ele>
        <time>2016-11-26T10:50:31Z</time>
      </trkpt>
      <trkpt lat="27.962713" lon="-15.571991">
        <ele>1905.00</ele>
        <time>2016-11-26T10:50:33Z</time>
      </trkpt>
      <trkpt lat="27.962682" lon="-15.571991">
        <ele>1905.00</ele>
        <time>2016-11-26T10:50:34.54Z</time>
      </trkpt>
      <trkpt lat="27.962654" lon="-15.571987">
        <ele>1905.00</ele>
        <time>2016-11-26T10:50:37Z</time>
      </trkpt>
      <trkpt lat="27.962627" lon="-15.571987">
        <ele>1905.00</ele>
        <time>2016-11-26T10:50:39Z</time>
      </trkpt>
      <trkpt lat="27.962600" lon="-15.571991">
        <ele>1905.47</ele>
        <time>2016-11-26T10:50:41Z</time>
      </trkpt>
      <trkpt lat="27.962567" lon="-15.571994">
        <ele>1907.00</ele>
        <time>2016-11-26T10:50:43Z</time>
      </trkpt>
      <trkpt lat="27.962536" lon="-15.571990">
        <ele>1907.00</ele>
        <time>2016-11-26T10:50:45Z</time>
      </trkpt>
      <trkpt lat="27.962500" lon="-15.571981">
        <ele>1907.00</ele>
        <time>2016-11-26T10:50:47Z</time>
      </trkpt>
      <trkpt lat="27.962470" lon="-15.571974">
        <ele>1907.00</ele>
        <time>2016-11-26T10:50:49Z</time>
      </trkpt>
      <trkpt lat="27.962448" lon="-15.571974">
        <ele>1906.51</ele>
        <time>2016-11-26T10:50:51Z</time>
      </trkpt>
      <trkpt lat="27.962429" lon="-15.571977">
        <ele>1906.00</ele>
        <time>2016-11-26T10:50:53Z</time>
      </trkpt>
      <trkpt lat="27.962414" lon="-15.571995">
        <ele>1906.00</ele>
        <time>2016-11-26T10:50:57Z</time>
      </trkpt>
      <trkpt lat="27.962386" lon="-15.572001">
        <ele>1906.00</ele>
        <time>2016-11-26T10:50:59Z</time>
      </trkpt>
      <trkpt lat="27.962352" lon="-15.572012">
        <ele>1906.73</ele>
        <time>2016-11-26T10:51:00.99Z</time>
      </trkpt>
      <trkpt lat="27.962324" lon="-15.572017">
        <ele>1907.00</ele>
        <time>2016-11-26T10:51:03Z</time>
      </trkpt>
      <trkpt lat="27.962305" lon="-15.572016">
        <ele>1907.00</ele>
        <time>2016-11-26T10:51:04.29Z</time>
      </trkpt>
      <trkpt lat="27.962289" lon="-15.572010">
        <ele>1907.00</ele>
        <time>2016-11-26T10:51:05Z</time>
      </trkpt>
      <trkpt lat="27.962266" lon="-15.571997">
        <ele>1907.00</ele>
        <time>2016-11-26T10:51:07Z</time>
      </trkpt>
      <trkpt lat="27.962241" lon="-15.572007">
        <ele>1907.00</ele>
        <time>2016-11-26T10:51:09Z</time>
      </trkpt>
      <trkpt lat="27.962215" lon="-15.572008">
        <ele>1910.00</ele>
        <time>2016-11-26T10:51:12Z</time>
      </trkpt>
      <trkpt lat="27.962200" lon="-15.571988">
        <ele>1910.00</ele>
        <time>2016-11-26T10:51:14Z</time>
      </trkpt>
      <trkpt lat="27.962184" lon="-15.571975">
        <ele>1910.00</ele>
        <time>2016-11-26T10:51:16Z</time>
      </trkpt>
      <trkpt lat="27.962164" lon="-15.571966">
        <ele>1910.00</ele>
        <time>2016-11-26T10:51:18Z</time>
      </trkpt>
      <trkpt lat="27.962141" lon="-15.571963">
        <ele>1909.07</ele>
        <time>2016-11-26T10:51:21Z</time>
      </trkpt>
      <trkpt lat="27.962120" lon="-15.571975">
        <ele>1909.00</ele>
        <time>2016-11-26T10:51:23Z</time>
      </trkpt>
      <trkpt lat="27.962102" lon="-15.571972">
        <ele>1909.00</ele>
        <time>2016-11-26T10:51:25Z</time>
      </trkpt>
      <trkpt lat="27.962082" lon="-15.571954">
        <ele>1908.00</ele>
        <time>2016-11-26T10:51:37Z</time>
      </trkpt>
      <trkpt lat="27.962063" lon="-15.571951">
        <ele>1907.00</ele>
        <time>2016-11-26T10:51:53Z</time>
      </trkpt>
      <trkpt lat="27.962059" lon="-15.571943">
        <ele>1908.00</ele>
        <time>2016-11-26T10:52:02.97Z</time>
      </trkpt>
      <trkpt lat="27.962054" lon="-15.571932">
        <ele>1909.00</ele>
        <time>2016-11-26T10:52:19Z</time>
      </trkpt>
      <trkpt lat="27.962037" lon="-15.571926">
        <ele>1908.00</ele>
        <time>2016-11-26T10:52:30Z</time>
      </trkpt>
      <trkpt lat="27.962030" lon="-15.571947">
        <ele>1910.00</ele>
        <time>2016-11-26T10:52:59Z</time>
      </trkpt>
      <trkpt lat="27.962037" lon="-15.571953">
        <ele>1909.00</ele>
        <time>2016-11-26T10:53:01.36Z</time>
      </trkpt>
      <trkpt lat="27.962048" lon="-15.571952">
        <ele>1909.00</ele>
        <time>2016-11-26T10:53:07Z</time>
      </trkpt>
      <trkpt lat="27.962044" lon="-15.571929">
        <ele>1910.00</ele>
        <time>2016-11-26T10:53:59.87Z</time>
      </trkpt>
      <trkpt lat="27.962041" lon="-15.571931">
        <ele>1909.00</ele>
        <time>2016-11-26T10:54:21Z</time>
      </trkpt>
      <trkpt lat="27.962045" lon="-15.571951">
        <ele>1909.00</ele>
        <time>2016-11-26T10:54:35Z</time>
      </trkpt>
      <trkpt lat="27.962028" lon="-15.571961">
        <ele>1909.00</ele>
        <time>2016-11-26T10:54:48Z</time>
      </trkpt>
      <trkpt lat="27.962042" lon="-15.571947">
        <ele>1908.00</ele>
        <time>2016-11-26T10:54:58.30Z</time>
      </trkpt>
      <trkpt lat="27.962040" lon="-15.571942">
        <ele>1908.00</ele>
        <time>2016-11-26T10:55:04Z</time>
      </trkpt>
      <trkpt lat="27.962020" lon="-15.571943">
        <ele>1909.00</ele>
        <time>2016-11-26T10:55:15Z</time>
      </trkpt>
      <trkpt lat="27.962041" lon="-15.571948">
        <ele>1909.00</ele>
        <time>2016-11-26T10:55:56.67Z</time>
      </trkpt>
      <trkpt lat="27.962042" lon="-15.571940">
        <ele>1909.00</ele>
        <time>2016-11-26T10:56:18Z</time>
      </trkpt>
      <trkpt lat="27.962053" lon="-15.571921">
        <ele>1909.00</ele>
        <time>2016-11-26T10:56:54Z</time>
      </trkpt>
      <trkpt lat="27.962049" lon="-15.571922">
        <ele>1909.00</ele>
        <time>2016-11-26T10:56:55.10Z</time>
      </trkpt>
      <trkpt lat="27.962038" lon="-15.571908">
        <ele>1907.00</ele>
        <time>2016-11-26T10:57:26Z</time>
      </trkpt>
      <trkpt lat="27.962055" lon="-15.571915">
        <ele>1907.00</ele>
        <time>2016-11-26T10:57:28Z</time>
      </trkpt>
      <trkpt lat="27.962078" lon="-15.571919">
        <ele>1907.00</ele>
        <time>2016-11-26T10:57:30Z</time>
      </trkpt>
      <trkpt lat="27.962098" lon="-15.571918">
        <ele>1907.00</ele>
        <time>2016-11-26T10:57:32Z</time>
      </trkpt>
      <trkpt lat="27.962124" lon="-15.571917">
        <ele>1907.00</ele>
        <time>2016-11-26T10:57:34Z</time>
      </trkpt>
      <trkpt lat="27.962156" lon="-15.571914">
        <ele>1907.00</ele>
        <time>2016-11-26T10:57:36Z</time>
      </trkpt>
      <trkpt lat="27.962184" lon="-15.571915">
        <ele>1907.00</ele>
        <time>2016-11-26T10:57:38Z</time>
      </trkpt>
      <trkpt lat="27.962207" lon="-15.571915">
        <ele>1907.00</ele>
        <time>2016-11-26T10:57:40Z</time>
      </trkpt>
      <trkpt lat="27.962233" lon="-15.571916">
        <ele>1905.00</ele>
        <time>2016-11-26T10:57:42Z</time>
      </trkpt>
      <trkpt lat="27.962263" lon="-15.571914">
        <ele>1905.00</ele>
        <time>2016-11-26T10:57:44Z</time>
      </trkpt>
      <trkpt lat="27.962286" lon="-15.571911">
        <ele>1905.00</ele>
        <time>2016-11-26T10:57:46Z</time>
      </trkpt>
      <trkpt lat="27.962307" lon="-15.571912">
        <ele>1905.00</ele>
        <time>2016-11-26T10:57:48Z</time>
      </trkpt>
      <trkpt lat="27.962332" lon="-15.571910">
        <ele>1904.93</ele>
        <time>2016-11-26T10:57:50Z</time>
      </trkpt>
      <trkpt lat="27.962371" lon="-15.571912">
        <ele>1904.00</ele>
        <time>2016-11-26T10:57:53Z</time>
      </trkpt>
      <trkpt lat="27.962381" lon="-15.571913">
        <ele>1904.00</ele>
        <time>2016-11-26T10:57:53.94Z</time>
      </trkpt>
      <trkpt lat="27.962393" lon="-15.571915">
        <ele>1904.00</ele>
        <time>2016-11-26T10:57:55Z</time>
      </trkpt>
      <trkpt lat="27.962419" lon="-15.571915">
        <ele>1904.00</ele>
        <time>2016-11-26T10:57:57Z</time>
      </trkpt>
      <trkpt lat="27.962442" lon="-15.571919">
        <ele>1904.00</ele>
        <time>2016-11-26T10:57:59Z</time>
      </trkpt>
      <trkpt lat="27.962463" lon="-15.571922">
        <ele>1903.73</ele>
        <time>2016-11-26T10:58:01Z</time>
      </trkpt>
      <trkpt lat="27.962487" lon="-15.571924">
        <ele>1903.00</ele>
        <time>2016-11-26T10:58:04Z</time>
      </trkpt>
      <trkpt lat="27.962585" lon="-15.571918">
        <ele>1901.89</ele>
        <time>2016-11-26T10:58:11Z</time>
      </trkpt>
      <trkpt lat="27.962612" lon="-15.571916">
        <ele>1901.00</ele>
        <time>2016-11-26T10:58:13Z</time>
      </trkpt>
      <trkpt lat="27.962645" lon="-15.571907">
        <ele>1901.00</ele>
        <time>2016-11-26T10:58:17Z</time>
      </trkpt>
      <trkpt lat="27.962670" lon="-15.571909">
        <ele>1901.00</ele>
        <time>2016-11-26T10:58:19Z</time>
      </trkpt>
      <trkpt lat="27.962700" lon="-15.571913">
        <ele>1900.14</ele>
        <time>2016-11-26T10:58:21Z</time>
      </trkpt>
      <trkpt lat="27.962718" lon="-15.571917">
        <ele>1900.00</ele>
        <time>2016-11-26T10:58:22Z</time>
      </trkpt>
      <trkpt lat="27.962749" lon="-15.571925">
        <ele>1900.00</ele>
        <time>2016-11-26T10:58:24Z</time>
      </trkpt>
      <trkpt lat="27.962801" lon="-15.571940">
        <ele>1900.00</ele>
        <time>2016-11-26T10:58:28Z</time>
      </trkpt>
      <trkpt lat="27.962871" lon="-15.571958">
        <ele>1899.00</ele>
        <time>2016-11-26T10:58:33Z</time>
      </trkpt>
      <trkpt lat="27.962901" lon="-15.571969">
        <ele>1899.00</ele>
        <time>2016-11-26T10:58:35Z</time>
      </trkpt>
      <trkpt lat="27.962921" lon="-15.571976">
        <ele>1899.00</ele>
        <time>2016-11-26T10:58:36Z</time>
      </trkpt>
      <trkpt lat="27.963006" lon="-15.572007">
        <ele>1899.00</ele>
        <time>2016-11-26T10:58:40Z</time>
      </trkpt>
      <trkpt lat="27.963029" lon="-15.572013">
        <ele>1897.81</ele>
        <time>2016-11-26T10:58:41Z</time>
      </trkpt>
      <trkpt lat="27.963051" lon="-15.572022">
        <ele>1896.00</ele>
        <time>2016-11-26T10:58:42Z</time>
      </trkpt>
      <trkpt lat="27.963095" lon="-15.572028">
        <ele>1896.00</ele>
        <time>2016-11-26T10:58:44Z</time>
      </trkpt>
      <trkpt lat="27.963117" lon="-15.572031">
        <ele>1896.00</ele>
        <time>2016-11-26T10:58:45Z</time>
      </trkpt>
      <trkpt lat="27.963147" lon="-15.572038">
        <ele>1896.00</ele>
        <time>2016-11-26T10:58:46Z</time>
      </trkpt>
      <trkpt lat="27.963168" lon="-15.572046">
        <ele>1896.00</ele>
        <time>2016-11-26T10:58:47Z</time>
      </trkpt>
      <trkpt lat="27.963191" lon="-15.572054">
        <ele>1896.00</ele>
        <time>2016-11-26T10:58:48Z</time>
      </trkpt>
      <trkpt lat="27.963215" lon="-15.572065">
        <ele>1896.00</ele>
        <time>2016-11-26T10:58:49Z</time>
      </trkpt>
      <trkpt lat="27.963236" lon="-15.572081">
        <ele>1896.00</ele>
        <time>2016-11-26T10:58:50Z</time>
      </trkpt>
      <trkpt lat="27.963255" lon="-15.572096">
        <ele>1895.28</ele>
        <time>2016-11-26T10:58:51Z</time>
      </trkpt>
      <trkpt lat="27.963278" lon="-15.572106">
        <ele>1895.00</ele>
        <time>2016-11-26T10:58:52Z</time>
      </trkpt>
      <trkpt lat="27.963278" lon="-15.572106">
        <ele>1895.00</ele>
        <time>2016-11-26T10:58:52.26Z</time>
      </trkpt>
      <trkpt lat="27.963304" lon="-15.572114">
        <ele>1895.00</ele>
        <time>2016-11-26T10:58:53Z</time>
      </trkpt>
      <trkpt lat="27.963325" lon="-15.572124">
        <ele>1895.00</ele>
        <time>2016-11-26T10:58:54Z</time>
      </trkpt>
      <trkpt lat="27.963421" lon="-15.572181">
        <ele>1895.00</ele>
        <time>2016-11-26T10:58:59Z</time>
      </trkpt>
      <trkpt lat="27.963441" lon="-15.572203">
        <ele>1894.02</ele>
        <time>2016-11-26T10:59:01Z</time>
      </trkpt>
      <trkpt lat="27.963462" lon="-15.572221">
        <ele>1894.00</ele>
        <time>2016-11-26T10:59:03Z</time>
      </trkpt>
      <trkpt lat="27.963485" lon="-15.572249">
        <ele>1894.00</ele>
        <time>2016-11-26T10:59:05Z</time>
      </trkpt>
      <trkpt lat="27.963506" lon="-15.572262">
        <ele>1894.00</ele>
        <time>2016-11-26T10:59:07Z</time>
      </trkpt>
      <trkpt lat="27.963522" lon="-15.572274">
        <ele>1894.00</ele>
        <time>2016-11-26T10:59:09Z</time>
      </trkpt>
      <trkpt lat="27.963542" lon="-15.572285">
        <ele>1894.00</ele>
        <time>2016-11-26T10:59:11Z</time>
      </trkpt>
      <trkpt lat="27.963558" lon="-15.572299">
        <ele>1894.00</ele>
        <time>2016-11-26T10:59:13Z</time>
      </trkpt>
      <trkpt lat="27.963580" lon="-15.572308">
        <ele>1894.00</ele>
        <time>2016-11-26T10:59:15Z</time>
      </trkpt>
      <trkpt lat="27.963602" lon="-15.572317">
        <ele>1894.00</ele>
        <time>2016-11-26T10:59:17Z</time>
      </trkpt>
      <trkpt lat="27.963629" lon="-15.572317">
        <ele>1894.00</ele>
        <time>2016-11-26T10:59:20Z</time>
      </trkpt>
      <trkpt lat="27.963648" lon="-15.572304">
        <ele>1892.00</ele>
        <time>2016-11-26T10:59:22Z</time>
      </trkpt>
      <trkpt lat="27.963669" lon="-15.572291">
        <ele>1892.00</ele>
        <time>2016-11-26T10:59:24Z</time>
      </trkpt>
      <trkpt lat="27.963691" lon="-15.572280">
        <ele>1892.00</ele>
        <time>2016-11-26T10:59:26Z</time>
      </trkpt>
      <trkpt lat="27.963712" lon="-15.572262">
        <ele>1892.00</ele>
        <time>2016-11-26T10:59:28Z</time>
      </trkpt>
      <trkpt lat="27.963733" lon="-15.572242">
        <ele>1892.00</ele>
        <time>2016-11-26T10:59:30Z</time>
      </trkpt>
      <trkpt lat="27.963751" lon="-15.572226">
        <ele>1892.00</ele>
        <time>2016-11-26T10:59:32Z</time>
      </trkpt>
      <trkpt lat="27.963764" lon="-15.572207">
        <ele>1892.00</ele>
        <time>2016-11-26T10:59:34Z</time>
      </trkpt>
      <trkpt lat="27.963783" lon="-15.572196">
        <ele>1892.00</ele>
        <time>2016-11-26T10:59:36Z</time>
      </trkpt>
      <trkpt lat="27.963800" lon="-15.572184">
        <ele>1892.00</ele>
        <time>2016-11-26T10:59:38Z</time>
      </trkpt>
      <trkpt lat="27.963821" lon="-15.572170">
        <ele>1891.98</ele>
        <time>2016-11-26T10:59:40Z</time>
      </trkpt>
      <trkpt lat="27.963843" lon="-15.572157">
        <ele>1891.00</ele>
        <time>2016-11-26T10:59:42Z</time>
      </trkpt>
      <trkpt lat="27.963866" lon="-15.572145">
        <ele>1891.00</ele>
        <time>2016-11-26T10:59:44Z</time>
      </trkpt>
      <trkpt lat="27.963891" lon="-15.572135">
        <ele>1890.61</ele>
        <time>2016-11-26T10:59:46Z</time>
      </trkpt>
      <trkpt lat="27.963914" lon="-15.572119">
        <ele>1889.00</ele>
        <time>2016-11-26T10:59:48Z</time>
      </trkpt>
      <trkpt lat="27.963936" lon="-15.572103">
        <ele>1889.00</ele>
        <time>2016-11-26T10:59:50Z</time>
      </trkpt>
      <trkpt lat="27.963947" lon="-15.572092">
        <ele>1888.99</ele>
        <time>2016-11-26T10:59:50.81Z</time>
      </trkpt>
      <trkpt lat="27.963956" lon="-15.572083">
        <ele>1886.00</ele>
        <time>2016-11-26T10:59:52Z</time>
      </trkpt>
      <trkpt lat="27.963979" lon="-15.572068">
        <ele>1886.00</ele>
        <time>2016-11-26T10:59:54Z</time>
      </trkpt>
      <trkpt lat="27.964001" lon="-15.572049">
        <ele>1886.00</ele>
        <time>2016-11-26T10:59:57Z</time>
      </trkpt>
      <trkpt lat="27.964016" lon="-15.572036">
        <ele>1886.00</ele>
        <time>2016-11-26T10:59:58Z</time>
      </trkpt>
      <trkpt lat="27.964043" lon="-15.572013">
        <ele>1886.00</ele>
        <time>2016-11-26T11:00:00Z</time>
      </trkpt>
      <trkpt lat="27.964079" lon="-15.572000">
        <ele>1886.00</ele>
        <time>2016-11-26T11:00:02Z</time>
      </trkpt>
      <trkpt lat="27.964097" lon="-15.571992">
        <ele>1886.00</ele>
        <time>2016-11-26T11:00:04Z</time>
      </trkpt>
      <trkpt lat="27.964114" lon="-15.571980">
        <ele>1886.00</ele>
        <time>2016-11-26T11:00:07Z</time>
      </trkpt>
      <trkpt lat="27.964139" lon="-15.571969">
        <ele>1886.00</ele>
        <time>2016-11-26T11:00:09Z</time>
      </trkpt>
      <trkpt lat="27.964162" lon="-15.571958">
        <ele>1886.00</ele>
        <time>2016-11-26T11:00:11Z</time>
      </trkpt>
      <trkpt lat="27.964182" lon="-15.571944">
        <ele>1886.00</ele>
        <time>2016-11-26T11:00:13Z</time>
      </trkpt>
      <trkpt lat="27.964193" lon="-15.571918">
        <ele>1887.00</ele>
        <time>2016-11-26T11:00:15Z</time>
      </trkpt>
      <trkpt lat="27.964210" lon="-15.571894">
        <ele>1912.77</ele>
        <time>2016-11-26T11:00:17Z</time>
      </trkpt>
      <trkpt lat="27.964231" lon="-15.571868">
        <ele>1896.08</ele>
        <time>2016-11-26T11:00:19Z</time>
      </trkpt>
      <trkpt lat="27.964244" lon="-15.571832">
        <ele>1880.76</ele>
        <time>2016-11-26T11:00:21Z</time>
      </trkpt>
      <trkpt lat="27.964271" lon="-15.571781">
        <ele>1883.72</ele>
        <time>2016-11-26T11:00:24Z</time>
      </trkpt>
      <trkpt lat="27.964281" lon="-15.571666">
        <ele>1890.51</ele>
        <time>2016-11-26T11:00:29Z</time>
      </trkpt>
      <trkpt lat="27.964252" lon="-15.571552">
        <ele>1884.00</ele>
        <time>2016-11-26T11:00:34Z</time>
      </trkpt>
      <trkpt lat="27.964225" lon="-15.571447">
        <ele>1884.00</ele>
        <time>2016-11-26T11:00:40Z</time>
      </trkpt>
      <trkpt lat="27.964208" lon="-15.571331">
        <ele>1885.00</ele>
        <time>2016-11-26T11:00:44Z</time>
      </trkpt>
      <trkpt lat="27.964189" lon="-15.571211">
        <ele>1885.00</ele>
        <time>2016-11-26T11:00:48Z</time>
      </trkpt>
      <trkpt lat="27.964175" lon="-15.571151">
        <ele>1885.00</ele>
        <time>2016-11-26T11:00:50.11Z</time>
      </trkpt>
      <trkpt lat="27.964160" lon="-15.571095">
        <ele>1887.89</ele>
        <time>2016-11-26T11:00:52Z</time>
      </trkpt>
      <trkpt lat="27.964108" lon="-15.570990">
        <ele>1892.85</ele>
        <time>2016-11-26T11:00:56Z</time>
      </trkpt>
      <trkpt lat="27.964057" lon="-15.570865">
        <ele>1906.34</ele>
        <time>2016-11-26T11:01:00Z</time>
      </trkpt>
      <trkpt lat="27.964013" lon="-15.570742">
        <ele>1898.33</ele>
        <time>2016-11-26T11:01:04Z</time>
      </trkpt>
      <trkpt lat="27.963977" lon="-15.570614">
        <ele>1886.00</ele>
        <time>2016-11-26T11:01:08Z</time>
      </trkpt>
      <trkpt lat="27.963953" lon="-15.570515">
        <ele>1892.51</ele>
        <time>2016-11-26T11:01:11Z</time>
      </trkpt>
      <trkpt lat="27.963913" lon="-15.570422">
        <ele>1887.00</ele>
        <time>2016-11-26T11:01:14Z</time>
      </trkpt>
      <trkpt lat="27.963856" lon="-15.570309">
        <ele>1887.00</ele>
        <time>2016-11-26T11:01:18Z</time>
      </trkpt>
      <trkpt lat="27.963807" lon="-15.570204">
        <ele>1886.00</ele>
        <time>2016-11-26T11:01:26Z</time>
      </trkpt>
      <trkpt lat="27.963759" lon="-15.570103">
        <ele>1886.00</ele>
        <time>2016-11-26T11:01:33Z</time>
      </trkpt>
      <trkpt lat="27.963754" lon="-15.570068">
        <ele>1886.00</ele>
        <time>2016-11-26T11:01:35Z</time>
      </trkpt>
      <trkpt lat="27.963741" lon="-15.570022">
        <ele>1886.00</ele>
        <time>2016-11-26T11:01:39Z</time>
      </trkpt>
      <trkpt lat="27.963723" lon="-15.570001">
        <ele>1886.00</ele>
        <time>2016-11-26T11:01:41Z</time>
      </trkpt>
      <trkpt lat="27.963707" lon="-15.569985">
        <ele>1886.00</ele>
        <time>2016-11-26T11:01:45Z</time>
      </trkpt>
      <trkpt lat="27.963688" lon="-15.569973">
        <ele>1886.00</ele>
        <time>2016-11-26T11:01:47Z</time>
      </trkpt>
      <trkpt lat="27.963676" lon="-15.569961">
        <ele>1886.00</ele>
        <time>2016-11-26T11:01:48.48Z</time>
      </trkpt>
      <trkpt lat="27.963668" lon="-15.569950">
        <ele>1886.00</ele>
        <time>2016-11-26T11:01:49Z</time>
      </trkpt>
      <trkpt lat="27.963651" lon="-15.569931">
        <ele>1886.59</ele>
        <time>2016-11-26T11:01:51Z</time>
      </trkpt>
      <trkpt lat="27.963633" lon="-15.569908">
        <ele>1887.00</ele>
        <time>2016-11-26T11:01:53Z</time>
      </trkpt>
      <trkpt lat="27.963629" lon="-15.569883">
        <ele>1887.00</ele>
        <time>2016-11-26T11:01:55Z</time>
      </trkpt>
      <trkpt lat="27.963616" lon="-15.569854">
        <ele>1887.00</ele>
        <time>2016-11-26T11:01:57Z</time>
      </trkpt>
      <trkpt lat="27.963599" lon="-15.569822">
        <ele>1887.00</ele>
        <time>2016-11-26T11:01:59Z</time>
      </trkpt>
      <trkpt lat="27.963580" lon="-15.569793">
        <ele>1884.46</ele>
        <time>2016-11-26T11:02:01Z</time>
      </trkpt>
      <trkpt lat="27.963546" lon="-15.569735">
        <ele>1884.00</ele>
        <time>2016-11-26T11:02:04.98Z</time>
      </trkpt>
      <trkpt lat="27.963532" lon="-15.569721">
        <ele>1884.00</ele>
        <time>2016-11-26T11:02:06Z</time>
      </trkpt>
      <trkpt lat="27.963484" lon="-15.569634">
        <ele>1884.00</ele>
        <time>2016-11-26T11:02:13Z</time>
      </trkpt>
      <trkpt lat="27.963479" lon="-15.569613">
        <ele>1884.00</ele>
        <time>2016-11-26T11:02:15Z</time>
      </trkpt>
      <trkpt lat="27.963481" lon="-15.569592">
        <ele>1884.00</ele>
        <time>2016-11-26T11:02:17Z</time>
      </trkpt>
      <trkpt lat="27.963466" lon="-15.569562">
        <ele>1884.00</ele>
        <time>2016-11-26T11:02:19Z</time>
      </trkpt>
      <trkpt lat="27.963448" lon="-15.569469">
        <ele>1884.00</ele>
        <time>2016-11-26T11:02:25Z</time>
      </trkpt>
      <trkpt lat="27.963437" lon="-15.569443">
        <ele>1884.00</ele>
        <time>2016-11-26T11:02:28Z</time>
      </trkpt>
      <trkpt lat="27.963422" lon="-15.569422">
        <ele>1883.33</ele>
        <time>2016-11-26T11:02:31Z</time>
      </trkpt>
      <trkpt lat="27.963398" lon="-15.569416">
        <ele>1883.00</ele>
        <time>2016-11-26T11:02:36Z</time>
      </trkpt>
      <trkpt lat="27.963402" lon="-15.569424">
        <ele>1883.00</ele>
        <time>2016-11-26T11:02:46.91Z</time>
      </trkpt>
      <trkpt lat="27.963390" lon="-15.569441">
        <ele>1885.00</ele>
        <time>2016-11-26T11:03:45.77Z</time>
      </trkpt>
      <trkpt lat="27.963394" lon="-15.569437">
        <ele>1885.00</ele>
        <time>2016-11-26T11:03:48Z</time>
      </trkpt>
      <trkpt lat="27.963412" lon="-15.569431">
        <ele>1884.00</ele>
        <time>2016-11-26T11:04:05Z</time>
      </trkpt>
      <trkpt lat="27.963401" lon="-15.569449">
        <ele>1884.00</ele>
        <time>2016-11-26T11:04:16Z</time>
      </trkpt>
      <trkpt lat="27.963379" lon="-15.569460">
        <ele>1884.00</ele>
        <time>2016-11-26T11:04:28Z</time>
      </trkpt>
      <trkpt lat="27.963359" lon="-15.569464">
        <ele>1888.00</ele>
        <time>2016-11-26T11:04:40Z</time>
      </trkpt>
      <trkpt lat="27.963359" lon="-15.569464">
        <ele>1896.00</ele>
        <time>2016-11-26T11:04:45.46Z</time>
      </trkpt>
      <trkpt lat="27.963341" lon="-15.569465">
        <ele>1867.85</ele>
        <time>2016-11-26T11:05:00Z</time>
      </trkpt>
      <trkpt lat="27.963322" lon="-15.569447">
        <ele>1898.00</ele>
        <time>2016-11-26T11:05:03Z</time>
      </trkpt>
      <trkpt lat="27.963322" lon="-15.569422">
        <ele>1898.00</ele>
        <time>2016-11-26T11:05:05Z</time>
      </trkpt>
      <trkpt lat="27.963318" lon="-15.569387">
        <ele>1898.00</ele>
        <time>2016-11-26T11:05:07Z</time>
      </trkpt>
      <trkpt lat="27.963308" lon="-15.569364">
        <ele>1898.00</ele>
        <time>2016-11-26T11:05:08Z</time>
      </trkpt>
      <trkpt lat="27.963298" lon="-15.569346">
        <ele>1898.00</ele>
        <time>2016-11-26T11:05:09Z</time>
      </trkpt>
      <trkpt lat="27.963284" lon="-15.569321">
        <ele>1898.00</ele>
        <time>2016-11-26T11:05:10Z</time>
      </trkpt>
      <trkpt lat="27.963273" lon="-15.569295">
        <ele>1894.63</ele>
        <time>2016-11-26T11:05:11Z</time>
      </trkpt>
      <trkpt lat="27.963255" lon="-15.569267">
        <ele>1892.00</ele>
        <time>2016-11-26T11:05:12Z</time>
      </trkpt>
      <trkpt lat="27.963241" lon="-15.569236">
        <ele>1894.97</ele>
        <time>2016-11-26T11:05:13Z</time>
      </trkpt>
      <trkpt lat="27.963233" lon="-15.569201">
        <ele>1898.00</ele>
        <time>2016-11-26T11:05:14Z</time>
      </trkpt>
      <trkpt lat="27.963227" lon="-15.569164">
        <ele>1900.07</ele>
        <time>2016-11-26T11:05:15Z</time>
      </trkpt>
      <trkpt lat="27.963226" lon="-15.569125">
        <ele>1901.89</ele>
        <time>2016-11-26T11:05:16Z</time>
      </trkpt>
      <trkpt lat="27.963231" lon="-15.569092">
        <ele>1899.67</ele>
        <time>2016-11-26T11:05:17Z</time>
      </trkpt>
      <trkpt lat="27.963229" lon="-15.569065">
        <ele>1898.10</ele>
        <time>2016-11-26T11:05:18Z</time>
      </trkpt>
      <trkpt lat="27.963234" lon="-15.569042">
        <ele>1895.46</ele>
        <time>2016-11-26T11:05:19Z</time>
      </trkpt>
      <trkpt lat="27.963233" lon="-15.569018">
        <ele>1894.96</ele>
        <time>2016-11-26T11:05:20Z</time>
      </trkpt>
      <trkpt lat="27.963231" lon="-15.568996">
        <ele>1896.15</ele>
        <time>2016-11-26T11:05:21Z</time>
      </trkpt>
      <trkpt lat="27.963225" lon="-15.568967">
        <ele>1888.47</ele>
        <time>2016-11-26T11:05:22Z</time>
      </trkpt>
      <trkpt lat="27.963217" lon="-15.568941">
        <ele>1887.00</ele>
        <time>2016-11-26T11:05:23Z</time>
      </trkpt>
      <trkpt lat="27.963210" lon="-15.568917">
        <ele>1892.67</ele>
        <time>2016-11-26T11:05:24Z</time>
      </trkpt>
      <trkpt lat="27.963206" lon="-15.568888">
        <ele>1889.30</ele>
        <time>2016-11-26T11:05:25Z</time>
      </trkpt>
      <trkpt lat="27.963200" lon="-15.568856">
        <ele>1879.81</ele>
        <time>2016-11-26T11:05:26Z</time>
      </trkpt>
      <trkpt lat="27.963195" lon="-15.568828">
        <ele>1875.25</ele>
        <time>2016-11-26T11:05:27Z</time>
      </trkpt>
      <trkpt lat="27.963184" lon="-15.568801">
        <ele>1881.99</ele>
        <time>2016-11-26T11:05:28Z</time>
      </trkpt>
      <trkpt lat="27.963176" lon="-15.568775">
        <ele>1887.83</ele>
        <time>2016-11-26T11:05:29Z</time>
      </trkpt>
      <trkpt lat="27.963167" lon="-15.568748">
        <ele>1889.89</ele>
        <time>2016-11-26T11:05:30Z</time>
      </trkpt>
      <trkpt lat="27.963152" lon="-15.568722">
        <ele>1883.59</ele>
        <time>2016-11-26T11:05:31Z</time>
      </trkpt>
      <trkpt lat="27.963139" lon="-15.568695">
        <ele>1883.00</ele>
        <time>2016-11-26T11:05:32Z</time>
      </trkpt>
      <trkpt lat="27.963128" lon="-15.568666">
        <ele>1883.00</ele>
        <time>2016-11-26T11:05:33Z</time>
      </trkpt>
      <trkpt lat="27.963112" lon="-15.568634">
        <ele>1883.00</ele>
        <time>2016-11-26T11:05:34Z</time>
      </trkpt>
      <trkpt lat="27.963099" lon="-15.568604">
        <ele>1883.00</ele>
        <time>2016-11-26T11:05:35Z</time>
      </trkpt>
      <trkpt lat="27.963086" lon="-15.568576">
        <ele>1883.00</ele>
        <time>2016-11-26T11:05:36Z</time>
      </trkpt>
      <trkpt lat="27.963073" lon="-15.568549">
        <ele>1883.00</ele>
        <time>2016-11-26T11:05:37Z</time>
      </trkpt>
      <trkpt lat="27.963060" lon="-15.568518">
        <ele>1883.00</ele>
        <time>2016-11-26T11:05:38Z</time>
      </trkpt>
      <trkpt lat="27.963045" lon="-15.568486">
        <ele>1883.00</ele>
        <time>2016-11-26T11:05:39Z</time>
      </trkpt>
      <trkpt lat="27.963032" lon="-15.568459">
        <ele>1883.00</ele>
        <time>2016-11-26T11:05:40Z</time>
      </trkpt>
      <trkpt lat="27.963018" lon="-15.568430">
        <ele>1883.62</ele>
        <time>2016-11-26T11:05:41Z</time>
      </trkpt>
      <trkpt lat="27.963007" lon="-15.568407">
        <ele>1884.00</ele>
        <time>2016-11-26T11:05:42Z</time>
      </trkpt>
      <trkpt lat="27.962995" lon="-15.568383">
        <ele>1884.00</ele>
        <time>2016-11-26T11:05:43Z</time>
      </trkpt>
      <trkpt lat="27.962983" lon="-15.568357">
        <ele>1884.00</ele>
        <time>2016-11-26T11:05:44Z</time>
      </trkpt>
      <trkpt lat="27.962971" lon="-15.568326">
        <ele>1884.00</ele>
        <time>2016-11-26T11:05:45Z</time>
      </trkpt>
      <trkpt lat="27.962962" lon="-15.568297">
        <ele>1883.06</ele>
        <time>2016-11-26T11:05:46Z</time>
      </trkpt>
      <trkpt lat="27.962949" lon="-15.568267">
        <ele>1882.00</ele>
        <time>2016-11-26T11:05:47Z</time>
      </trkpt>
      <trkpt lat="27.962936" lon="-15.568240">
        <ele>1882.00</ele>
        <time>2016-11-26T11:05:47.58Z</time>
      </trkpt>
      <trkpt lat="27.962936" lon="-15.568240">
        <ele>1882.00</ele>
        <time>2016-11-26T11:05:48Z</time>
      </trkpt>
      <trkpt lat="27.962921" lon="-15.568211">
        <ele>1882.00</ele>
        <time>2016-11-26T11:05:49Z</time>
      </trkpt>
      <trkpt lat="27.962910" lon="-15.568184">
        <ele>1882.00</ele>
        <time>2016-11-26T11:05:50Z</time>
      </trkpt>
      <trkpt lat="27.962897" lon="-15.568153">
        <ele>1882.00</ele>
        <time>2016-11-26T11:05:51Z</time>
      </trkpt>
      <trkpt lat="27.962884" lon="-15.568125">
        <ele>1882.00</ele>
        <time>2016-11-26T11:05:52Z</time>
      </trkpt>
      <trkpt lat="27.962871" lon="-15.568098">
        <ele>1882.71</ele>
        <time>2016-11-26T11:05:53Z</time>
      </trkpt>
      <trkpt lat="27.962862" lon="-15.568077">
        <ele>1885.21</ele>
        <time>2016-11-26T11:05:54Z</time>
      </trkpt>
      <trkpt lat="27.962857" lon="-15.568056">
        <ele>1884.41</ele>
        <time>2016-11-26T11:05:55Z</time>
      </trkpt>
      <trkpt lat="27.962847" lon="-15.568020">
        <ele>1880.53</ele>
        <time>2016-11-26T11:05:57Z</time>
      </trkpt>
      <trkpt lat="27.962832" lon="-15.567995">
        <ele>1877.00</ele>
        <time>2016-11-26T11:05:59Z</time>
      </trkpt>
      <trkpt lat="27.962823" lon="-15.567970">
        <ele>1885.00</ele>
        <time>2016-11-26T11:06:01Z</time>
      </trkpt>
      <trkpt lat="27.962820" lon="-15.567941">
        <ele>1885.00</ele>
        <time>2016-11-26T11:06:04Z</time>
      </trkpt>
      <trkpt lat="27.962819" lon="-15.567919">
        <ele>1885.00</ele>
        <time>2016-11-26T11:06:06Z</time>
      </trkpt>
      <trkpt lat="27.962815" lon="-15.567890">
        <ele>1885.00</ele>
        <time>2016-11-26T11:06:08Z</time>
      </trkpt>
      <trkpt lat="27.962801" lon="-15.567869">
        <ele>1885.00</ele>
        <time>2016-11-26T11:06:10Z</time>
      </trkpt>
      <trkpt lat="27.962789" lon="-15.567846">
        <ele>1886.00</ele>
        <time>2016-11-26T11:06:12Z</time>
      </trkpt>
      <trkpt lat="27.962779" lon="-15.567828">
        <ele>1886.00</ele>
        <time>2016-11-26T11:06:13Z</time>
      </trkpt>
      <trkpt lat="27.962765" lon="-15.567801">
        <ele>1886.00</ele>
        <time>2016-11-26T11:06:15Z</time>
      </trkpt>
      <trkpt lat="27.962759" lon="-15.567781">
        <ele>1885.45</ele>
        <time>2016-11-26T11:06:16Z</time>
      </trkpt>
      <trkpt lat="27.962754" lon="-15.567760">
        <ele>1885.00</ele>
        <time>2016-11-26T11:06:17Z</time>
      </trkpt>
      <trkpt lat="27.962750" lon="-15.567730">
        <ele>1885.00</ele>
        <time>2016-11-26T11:06:19Z</time>
      </trkpt>
      <trkpt lat="27.962751" lon="-15.567704">
        <ele>1883.37</ele>
        <time>2016-11-26T11:06:21Z</time>
      </trkpt>
      <trkpt lat="27.962745" lon="-15.567678">
        <ele>1881.00</ele>
        <time>2016-11-26T11:06:23Z</time>
      </trkpt>
      <trkpt lat="27.962740" lon="-15.567648">
        <ele>1881.00</ele>
        <time>2016-11-26T11:06:26Z</time>
      </trkpt>
      <trkpt lat="27.962726" lon="-15.567625">
        <ele>1881.00</ele>
        <time>2016-11-26T11:06:28Z</time>
      </trkpt>
      <trkpt lat="27.962711" lon="-15.567611">
        <ele>1881.00</ele>
        <time>2016-11-26T11:06:30Z</time>
      </trkpt>
      <trkpt lat="27.962700" lon="-15.567592">
        <ele>1882.00</ele>
        <time>2016-11-26T11:06:32Z</time>
      </trkpt>
      <trkpt lat="27.962696" lon="-15.567568">
        <ele>1882.00</ele>
        <time>2016-11-26T11:06:35Z</time>
      </trkpt>
      <trkpt lat="27.962686" lon="-15.567539">
        <ele>1882.00</ele>
        <time>2016-11-26T11:06:38Z</time>
      </trkpt>
      <trkpt lat="27.962673" lon="-15.567512">
        <ele>1882.00</ele>
        <time>2016-11-26T11:06:40Z</time>
      </trkpt>
      <trkpt lat="27.962658" lon="-15.567477">
        <ele>1881.00</ele>
        <time>2016-11-26T11:06:42Z</time>
      </trkpt>
      <trkpt lat="27.962639" lon="-15.567451">
        <ele>1881.00</ele>
        <time>2016-11-26T11:06:44Z</time>
      </trkpt>
      <trkpt lat="27.962620" lon="-15.567423">
        <ele>1881.00</ele>
        <time>2016-11-26T11:06:46Z</time>
      </trkpt>
      <trkpt lat="27.962598" lon="-15.567392">
        <ele>1881.00</ele>
        <time>2016-11-26T11:06:48Z</time>
      </trkpt>
      <trkpt lat="27.962586" lon="-15.567373">
        <ele>1881.00</ele>
        <time>2016-11-26T11:06:49Z</time>
      </trkpt>
      <trkpt lat="27.962577" lon="-15.567350">
        <ele>1881.00</ele>
        <time>2016-11-26T11:06:49.63Z</time>
      </trkpt>
      <trkpt lat="27.962577" lon="-15.567350">
        <ele>1881.00</ele>
        <time>2016-11-26T11:06:50Z</time>
      </trkpt>
      <trkpt lat="27.962567" lon="-15.567326">
        <ele>1881.00</ele>
        <time>2016-11-26T11:06:51Z</time>
      </trkpt>
      <trkpt lat="27.962553" lon="-15.567306">
        <ele>1881.00</ele>
        <time>2016-11-26T11:06:52Z</time>
      </trkpt>
      <trkpt lat="27.962534" lon="-15.567284">
        <ele>1881.00</ele>
        <time>2016-11-26T11:06:53Z</time>
      </trkpt>
      <trkpt lat="27.962522" lon="-15.567266">
        <ele>1881.00</ele>
        <time>2016-11-26T11:06:54Z</time>
      </trkpt>
      <trkpt lat="27.962505" lon="-15.567246">
        <ele>1881.00</ele>
        <time>2016-11-26T11:06:55Z</time>
      </trkpt>
      <trkpt lat="27.962486" lon="-15.567228">
        <ele>1881.00</ele>
        <time>2016-11-26T11:06:56Z</time>
      </trkpt>
      <trkpt lat="27.962467" lon="-15.567208">
        <ele>1881.00</ele>
        <time>2016-11-26T11:06:57Z</time>
      </trkpt>
      <trkpt lat="27.962451" lon="-15.567189">
        <ele>1881.00</ele>
        <time>2016-11-26T11:06:58Z</time>
      </trkpt>
      <trkpt lat="27.962431" lon="-15.567171">
        <ele>1881.00</ele>
        <time>2016-11-26T11:06:59Z</time>
      </trkpt>
      <trkpt lat="27.962413" lon="-15.567154">
        <ele>1881.00</ele>
        <time>2016-11-26T11:07:00Z</time>
      </trkpt>
      <trkpt lat="27.962395" lon="-15.567137">
        <ele>1881.00</ele>
        <time>2016-11-26T11:07:01Z</time>
      </trkpt>
      <trkpt lat="27.962377" lon="-15.567120">
        <ele>1881.00</ele>
        <time>2016-11-26T11:07:02Z</time>
      </trkpt>
      <trkpt lat="27.962360" lon="-15.567104">
        <ele>1881.00</ele>
        <time>2016-11-26T11:07:03Z</time>
      </trkpt>
      <trkpt lat="27.962344" lon="-15.567087">
        <ele>1881.00</ele>
        <time>2016-11-26T11:07:04Z</time>
      </trkpt>
      <trkpt lat="27.962330" lon="-15.567071">
        <ele>1881.00</ele>
        <time>2016-11-26T11:07:05Z</time>
      </trkpt>
      <trkpt lat="27.962316" lon="-15.567051">
        <ele>1881.00</ele>
        <time>2016-11-26T11:07:06Z</time>
      </trkpt>
      <trkpt lat="27.962299" lon="-15.567032">
        <ele>1881.00</ele>
        <time>2016-11-26T11:07:07Z</time>
      </trkpt>
      <trkpt lat="27.962280" lon="-15.567013">
        <ele>1881.00</ele>
        <time>2016-11-26T11:07:08Z</time>
      </trkpt>
      <trkpt lat="27.962264" lon="-15.566996">
        <ele>1881.00</ele>
        <time>2016-11-26T11:07:09Z</time>
      </trkpt>
      <trkpt lat="27.962246" lon="-15.566979">
        <ele>1881.00</ele>
        <time>2016-11-26T11:07:10Z</time>
      </trkpt>
      <trkpt lat="27.962226" lon="-15.566960">
        <ele>1881.86</ele>
        <time>2016-11-26T11:07:11Z</time>
      </trkpt>
      <trkpt lat="27.962208" lon="-15.566944">
        <ele>1882.00</ele>
        <time>2016-11-26T11:07:12Z</time>
      </trkpt>
      <trkpt lat="27.962189" lon="-15.566925">
        <ele>1882.00</ele>
        <time>2016-11-26T11:07:13Z</time>
      </trkpt>
      <trkpt lat="27.962172" lon="-15.566906">
        <ele>1882.00</ele>
        <time>2016-11-26T11:07:14Z</time>
      </trkpt>
      <trkpt lat="27.962152" lon="-15.566886">
        <ele>1882.00</ele>
        <time>2016-11-26T11:07:15Z</time>
      </trkpt>
      <trkpt lat="27.962135" lon="-15.566867">
        <ele>1882.00</ele>
        <time>2016-11-26T11:07:16Z</time>
      </trkpt>
      <trkpt lat="27.962117" lon="-15.566847">
        <ele>1882.00</ele>
        <time>2016-11-26T11:07:17Z</time>
      </trkpt>
      <trkpt lat="27.962099" lon="-15.566824">
        <ele>1882.00</ele>
        <time>2016-11-26T11:07:18Z</time>
      </trkpt>
      <trkpt lat="27.962081" lon="-15.566800">
        <ele>1882.00</ele>
        <time>2016-11-26T11:07:19Z</time>
      </trkpt>
      <trkpt lat="27.962065" lon="-15.566775">
        <ele>1882.00</ele>
        <time>2016-11-26T11:07:20Z</time>
      </trkpt>
      <trkpt lat="27.962047" lon="-15.566754">
        <ele>1882.15</ele>
        <time>2016-11-26T11:07:21Z</time>
      </trkpt>
      <trkpt lat="27.962031" lon="-15.566736">
        <ele>1883.00</ele>
        <time>2016-11-26T11:07:22Z</time>
      </trkpt>
      <trkpt lat="27.962012" lon="-15.566714">
        <ele>1883.00</ele>
        <time>2016-11-26T11:07:23Z</time>
      </trkpt>
      <trkpt lat="27.961996" lon="-15.566695">
        <ele>1883.00</ele>
        <time>2016-11-26T11:07:24Z</time>
      </trkpt>
      <trkpt lat="27.961978" lon="-15.566676">
        <ele>1883.00</ele>
        <time>2016-11-26T11:07:25Z</time>
      </trkpt>
      <trkpt lat="27.961959" lon="-15.566655">
        <ele>1883.00</ele>
        <time>2016-11-26T11:07:26Z</time>
      </trkpt>
      <trkpt lat="27.961941" lon="-15.566632">
        <ele>1883.00</ele>
        <time>2016-11-26T11:07:27Z</time>
      </trkpt>
      <trkpt lat="27.961922" lon="-15.566608">
        <ele>1883.00</ele>
        <time>2016-11-26T11:07:28Z</time>
      </trkpt>
      <trkpt lat="27.961908" lon="-15.566588">
        <ele>1883.00</ele>
        <time>2016-11-26T11:07:29Z</time>
      </trkpt>
      <trkpt lat="27.961887" lon="-15.566565">
        <ele>1883.00</ele>
        <time>2016-11-26T11:07:30Z</time>
      </trkpt>
      <trkpt lat="27.961870" lon="-15.566546">
        <ele>1882.62</ele>
        <time>2016-11-26T11:07:31Z</time>
      </trkpt>
      <trkpt lat="27.961853" lon="-15.566528">
        <ele>1882.39</ele>
        <time>2016-11-26T11:07:32Z</time>
      </trkpt>
      <trkpt lat="27.961835" lon="-15.566507">
        <ele>1883.39</ele>
        <time>2016-11-26T11:07:33Z</time>
      </trkpt>
      <trkpt lat="27.961819" lon="-15.566490">
        <ele>1884.00</ele>
        <time>2016-11-26T11:07:34Z</time>
      </trkpt>
      <trkpt lat="27.961802" lon="-15.566472">
        <ele>1883.61</ele>
        <time>2016-11-26T11:07:35Z</time>
      </trkpt>
      <trkpt lat="27.961785" lon="-15.566453">
        <ele>1882.26</ele>
        <time>2016-11-26T11:07:35.96Z</time>
      </trkpt>
      <trkpt lat="27.961765" lon="-15.566432">
        <ele>1881.45</ele>
        <time>2016-11-26T11:07:37Z</time>
      </trkpt>
      <trkpt lat="27.961747" lon="-15.566410">
        <ele>1881.52</ele>
        <time>2016-11-26T11:07:38Z</time>
      </trkpt>
      <trkpt lat="27.961727" lon="-15.566388">
        <ele>1880.49</ele>
        <time>2016-11-26T11:07:39Z</time>
      </trkpt>
      <trkpt lat="27.961708" lon="-15.566366">
        <ele>1881.60</ele>
        <time>2016-11-26T11:07:40Z</time>
      </trkpt>
      <trkpt lat="27.961687" lon="-15.566338">
        <ele>1883.57</ele>
        <time>2016-11-26T11:07:41Z</time>
      </trkpt>
      <trkpt lat="27.961668" lon="-15.566314">
        <ele>1885.22</ele>
        <time>2016-11-26T11:07:42Z</time>
      </trkpt>
      <trkpt lat="27.961651" lon="-15.566289">
        <ele>1887.94</ele>
        <time>2016-11-26T11:07:43Z</time>
      </trkpt>
      <trkpt lat="27.961634" lon="-15.566267">
        <ele>1885.55</ele>
        <time>2016-11-26T11:07:44Z</time>
      </trkpt>
      <trkpt lat="27.961618" lon="-15.566245">
        <ele>1894.19</ele>
        <time>2016-11-26T11:07:45Z</time>
      </trkpt>
      <trkpt lat="27.961603" lon="-15.566221">
        <ele>1917.13</ele>
        <time>2016-11-26T11:07:46Z</time>
      </trkpt>
      <trkpt lat="27.961588" lon="-15.566197">
        <ele>1911.08</ele>
        <time>2016-11-26T11:07:47Z</time>
      </trkpt>
      <trkpt lat="27.961575" lon="-15.566175">
        <ele>1888.29</ele>
        <time>2016-11-26T11:07:48Z</time>
      </trkpt>
      <trkpt lat="27.961563" lon="-15.566154">
        <ele>1887.38</ele>
        <time>2016-11-26T11:07:49Z</time>
      </trkpt>
      <trkpt lat="27.961563" lon="-15.566154">
        <ele>1888.01</ele>
        <time>2016-11-26T11:07:49.15Z</time>
      </trkpt>
      <trkpt lat="27.961553" lon="-15.566129">
        <ele>1893.26</ele>
        <time>2016-11-26T11:07:50Z</time>
      </trkpt>
      <trkpt lat="27.961541" lon="-15.566109">
        <ele>1883.09</ele>
        <time>2016-11-26T11:07:51Z</time>
      </trkpt>
      <trkpt lat="27.961523" lon="-15.566089">
        <ele>1880.13</ele>
        <time>2016-11-26T11:07:52Z</time>
      </trkpt>
      <trkpt lat="27.961509" lon="-15.566068">
        <ele>1892.26</ele>
        <time>2016-11-26T11:07:53Z</time>
      </trkpt>
      <trkpt lat="27.961493" lon="-15.566047">
        <ele>1908.57</ele>
        <time>2016-11-26T11:07:54Z</time>
      </trkpt>
      <trkpt lat="27.961477" lon="-15.566023">
        <ele>1884.07</ele>
        <time>2016-11-26T11:07:55Z</time>
      </trkpt>
      <trkpt lat="27.961464" lon="-15.565997">
        <ele>1892.27</ele>
        <time>2016-11-26T11:07:56Z</time>
      </trkpt>
      <trkpt lat="27.961452" lon="-15.565972">
        <ele>1901.00</ele>
        <time>2016-11-26T11:07:57Z</time>
      </trkpt>
      <trkpt lat="27.961440" lon="-15.565950">
        <ele>1899.43</ele>
        <time>2016-11-26T11:07:58Z</time>
      </trkpt>
      <trkpt lat="27.961428" lon="-15.565930">
        <ele>1884.11</ele>
        <time>2016-11-26T11:07:59Z</time>
      </trkpt>
      <trkpt lat="27.961418" lon="-15.565913">
        <ele>1884.72</ele>
        <time>2016-11-26T11:08:00Z</time>
      </trkpt>
      <trkpt lat="27.961404" lon="-15.565889">
        <ele>1883.18</ele>
        <time>2016-11-26T11:08:01Z</time>
      </trkpt>
      <trkpt lat="27.961390" lon="-15.565861">
        <ele>1885.93</ele>
        <time>2016-11-26T11:08:02Z</time>
      </trkpt>
      <trkpt lat="27.961375" lon="-15.565836">
        <ele>1895.56</ele>
        <time>2016-11-26T11:08:03Z</time>
      </trkpt>
      <trkpt lat="27.961368" lon="-15.565807">
        <ele>1900.43</ele>
        <time>2016-11-26T11:08:04Z</time>
      </trkpt>
      <trkpt lat="27.961361" lon="-15.565774">
        <ele>1896.63</ele>
        <time>2016-11-26T11:08:05Z</time>
      </trkpt>
      <trkpt lat="27.961357" lon="-15.565744">
        <ele>1901.65</ele>
        <time>2016-11-26T11:08:06Z</time>
      </trkpt>
      <trkpt lat="27.961360" lon="-15.565715">
        <ele>1894.03</ele>
        <time>2016-11-26T11:08:07Z</time>
      </trkpt>
      <trkpt lat="27.961362" lon="-15.565686">
        <ele>1888.41</ele>
        <time>2016-11-26T11:08:08Z</time>
      </trkpt>
      <trkpt lat="27.961371" lon="-15.565644">
        <ele>1914.42</ele>
        <time>2016-11-26T11:08:10Z</time>
      </trkpt>
      <trkpt lat="27.961381" lon="-15.565623">
        <ele>1903.03</ele>
        <time>2016-11-26T11:08:11Z</time>
      </trkpt>
      <trkpt lat="27.961394" lon="-15.565601">
        <ele>1893.17</ele>
        <time>2016-11-26T11:08:12Z</time>
      </trkpt>
      <trkpt lat="27.961399" lon="-15.565579">
        <ele>1891.88</ele>
        <time>2016-11-26T11:08:13Z</time>
      </trkpt>
      <trkpt lat="27.961402" lon="-15.565556">
        <ele>1894.61</ele>
        <time>2016-11-26T11:08:14Z</time>
      </trkpt>
      <trkpt lat="27.961405" lon="-15.565532">
        <ele>1904.63</ele>
        <time>2016-11-26T11:08:15Z</time>
      </trkpt>
      <trkpt lat="27.961410" lon="-15.565507">
        <ele>1899.06</ele>
        <time>2016-11-26T11:08:16Z</time>
      </trkpt>
      <trkpt lat="27.961413" lon="-15.565486">
        <ele>1887.52</ele>
        <time>2016-11-26T11:08:17Z</time>
      </trkpt>
      <trkpt lat="27.961415" lon="-15.565460">
        <ele>1901.65</ele>
        <time>2016-11-26T11:08:18Z</time>
      </trkpt>
      <trkpt lat="27.961421" lon="-15.565439">
        <ele>1892.68</ele>
        <time>2016-11-26T11:08:19Z</time>
      </trkpt>
      <trkpt lat="27.961430" lon="-15.565418">
        <ele>1895.63</ele>
        <time>2016-11-26T11:08:20Z</time>
      </trkpt>
      <trkpt lat="27.961438" lon="-15.565395">
        <ele>1905.61</ele>
        <time>2016-11-26T11:08:21Z</time>
      </trkpt>
      <trkpt lat="27.961445" lon="-15.565369">
        <ele>1888.35</ele>
        <time>2016-11-26T11:08:22Z</time>
      </trkpt>
      <trkpt lat="27.961451" lon="-15.565339">
        <ele>1896.18</ele>
        <time>2016-11-26T11:08:23Z</time>
      </trkpt>
      <trkpt lat="27.961457" lon="-15.565318">
        <ele>1918.45</ele>
        <time>2016-11-26T11:08:24Z</time>
      </trkpt>
      <trkpt lat="27.961462" lon="-15.565295">
        <ele>1915.18</ele>
        <time>2016-11-26T11:08:25Z</time>
      </trkpt>
      <trkpt lat="27.961468" lon="-15.565272">
        <ele>1918.97</ele>
        <time>2016-11-26T11:08:26Z</time>
      </trkpt>
      <trkpt lat="27.961472" lon="-15.565251">
        <ele>1924.00</ele>
        <time>2016-11-26T11:08:27Z</time>
      </trkpt>
      <trkpt lat="27.961478" lon="-15.565223">
        <ele>1922.80</ele>
        <time>2016-11-26T11:08:28Z</time>
      </trkpt>
      <trkpt lat="27.961485" lon="-15.565202">
        <ele>1907.67</ele>
        <time>2016-11-26T11:08:29Z</time>
      </trkpt>
      <trkpt lat="27.961493" lon="-15.565183">
        <ele>1916.55</ele>
        <time>2016-11-26T11:08:30Z</time>
      </trkpt>
      <trkpt lat="27.961500" lon="-15.565154">
        <ele>1929.18</ele>
        <time>2016-11-26T11:08:32Z</time>
      </trkpt>
      <trkpt lat="27.961516" lon="-15.565122">
        <ele>1931.83</ele>
        <time>2016-11-26T11:08:34Z</time>
      </trkpt>
      <trkpt lat="27.961533" lon="-15.565089">
        <ele>1913.40</ele>
        <time>2016-11-26T11:08:36Z</time>
      </trkpt>
      <trkpt lat="27.961542" lon="-15.565067">
        <ele>1903.35</ele>
        <time>2016-11-26T11:08:37Z</time>
      </trkpt>
      <trkpt lat="27.961550" lon="-15.565039">
        <ele>1899.29</ele>
        <time>2016-11-26T11:08:38Z</time>
      </trkpt>
      <trkpt lat="27.961561" lon="-15.565007">
        <ele>1906.30</ele>
        <time>2016-11-26T11:08:39Z</time>
      </trkpt>
      <trkpt lat="27.961567" lon="-15.564976">
        <ele>1913.73</ele>
        <time>2016-11-26T11:08:40Z</time>
      </trkpt>
      <trkpt lat="27.961573" lon="-15.564934">
        <ele>1886.00</ele>
        <time>2016-11-26T11:08:42Z</time>
      </trkpt>
      <trkpt lat="27.961578" lon="-15.564901">
        <ele>1886.00</ele>
        <time>2016-11-26T11:08:44Z</time>
      </trkpt>
      <trkpt lat="27.961592" lon="-15.564877">
        <ele>1886.00</ele>
        <time>2016-11-26T11:08:47Z</time>
      </trkpt>
      <trkpt lat="27.961592" lon="-15.564877">
        <ele>1886.00</ele>
        <time>2016-11-26T11:08:47.37Z</time>
      </trkpt>
      <trkpt lat="27.961599" lon="-15.564853">
        <ele>1886.00</ele>
        <time>2016-11-26T11:08:49Z</time>
      </trkpt>
      <trkpt lat="27.961603" lon="-15.564832">
        <ele>1886.00</ele>
        <time>2016-11-26T11:08:50Z</time>
      </trkpt>
      <trkpt lat="27.961606" lon="-15.564801">
        <ele>1884.00</ele>
        <time>2016-11-26T11:08:52Z</time>
      </trkpt>
      <trkpt lat="27.961590" lon="-15.564772">
        <ele>1884.00</ele>
        <time>2016-11-26T11:08:54Z</time>
      </trkpt>
      <trkpt lat="27.961586" lon="-15.564739">
        <ele>1884.00</ele>
        <time>2016-11-26T11:08:57Z</time>
      </trkpt>
      <trkpt lat="27.961585" lon="-15.564713">
        <ele>1884.00</ele>
        <time>2016-11-26T11:08:59Z</time>
      </trkpt>
      <trkpt lat="27.961584" lon="-15.564683">
        <ele>1882.13</ele>
        <time>2016-11-26T11:09:01Z</time>
      </trkpt>
      <trkpt lat="27.961568" lon="-15.564662">
        <ele>1885.02</ele>
        <time>2016-11-26T11:09:03Z</time>
      </trkpt>
      <trkpt lat="27.961553" lon="-15.564650">
        <ele>1886.00</ele>
        <time>2016-11-26T11:09:04Z</time>
      </trkpt>
      <trkpt lat="27.961530" lon="-15.564631">
        <ele>1887.87</ele>
        <time>2016-11-26T11:09:07Z</time>
      </trkpt>
      <trkpt lat="27.961511" lon="-15.564618">
        <ele>1888.18</ele>
        <time>2016-11-26T11:09:09Z</time>
      </trkpt>
      <trkpt lat="27.961496" lon="-15.564597">
        <ele>1883.00</ele>
        <time>2016-11-26T11:09:11Z</time>
      </trkpt>
      <trkpt lat="27.961478" lon="-15.564568">
        <ele>1877.00</ele>
        <time>2016-11-26T11:09:13Z</time>
      </trkpt>
      <trkpt lat="27.961466" lon="-15.564551">
        <ele>1877.00</ele>
        <time>2016-11-26T11:09:15Z</time>
      </trkpt>
      <trkpt lat="27.961451" lon="-15.564522">
        <ele>1877.00</ele>
        <time>2016-11-26T11:09:18Z</time>
      </trkpt>
      <trkpt lat="27.961428" lon="-15.564507">
        <ele>1877.00</ele>
        <time>2016-11-26T11:09:21Z</time>
      </trkpt>
      <trkpt lat="27.961410" lon="-15.564485">
        <ele>1877.00</ele>
        <time>2016-11-26T11:09:23Z</time>
      </trkpt>
      <trkpt lat="27.961391" lon="-15.564460">
        <ele>1877.00</ele>
        <time>2016-11-26T11:09:25Z</time>
      </trkpt>
      <trkpt lat="27.961370" lon="-15.564437">
        <ele>1877.00</ele>
        <time>2016-11-26T11:09:27Z</time>
      </trkpt>
      <trkpt lat="27.961331" lon="-15.564405">
        <ele>1877.00</ele>
        <time>2016-11-26T11:09:30Z</time>
      </trkpt>
      <trkpt lat="27.961318" lon="-15.564372">
        <ele>1876.00</ele>
        <time>2016-11-26T11:09:33Z</time>
      </trkpt>
      <trkpt lat="27.961286" lon="-15.564345">
        <ele>1876.00</ele>
        <time>2016-11-26T11:09:36Z</time>
      </trkpt>
      <trkpt lat="27.961262" lon="-15.564320">
        <ele>1876.00</ele>
        <time>2016-11-26T11:09:38Z</time>
      </trkpt>
      <trkpt lat="27.961207" lon="-15.564234">
        <ele>1873.00</ele>
        <time>2016-11-26T11:09:45Z</time>
      </trkpt>
      <trkpt lat="27.961201" lon="-15.564225">
        <ele>1873.02</ele>
        <time>2016-11-26T11:09:45.85Z</time>
      </trkpt>
      <trkpt lat="27.961195" lon="-15.564217">
        <ele>1876.00</ele>
        <time>2016-11-26T11:09:47Z</time>
      </trkpt>
      <trkpt lat="27.961180" lon="-15.564199">
        <ele>1876.00</ele>
        <time>2016-11-26T11:09:49Z</time>
      </trkpt>
      <trkpt lat="27.961164" lon="-15.564181">
        <ele>1876.61</ele>
        <time>2016-11-26T11:09:51Z</time>
      </trkpt>
      <trkpt lat="27.961151" lon="-15.564155">
        <ele>1876.81</ele>
        <time>2016-11-26T11:09:54Z</time>
      </trkpt>
      <trkpt lat="27.961132" lon="-15.564134">
        <ele>1870.97</ele>
        <time>2016-11-26T11:09:57Z</time>
      </trkpt>
      <trkpt lat="27.961114" lon="-15.564108">
        <ele>1877.65</ele>
        <time>2016-11-26T11:10:00Z</time>
      </trkpt>
      <trkpt lat="27.961095" lon="-15.564092">
        <ele>1874.00</ele>
        <time>2016-11-26T11:10:02Z</time>
      </trkpt>
      <trkpt lat="27.961081" lon="-15.564079">
        <ele>1874.00</ele>
        <time>2016-11-26T11:10:04Z</time>
      </trkpt>
      <trkpt lat="27.961059" lon="-15.564048">
        <ele>1874.00</ele>
        <time>2016-11-26T11:10:07Z</time>
      </trkpt>
      <trkpt lat="27.961049" lon="-15.564027">
        <ele>1874.00</ele>
        <time>2016-11-26T11:10:09Z</time>
      </trkpt>
      <trkpt lat="27.961034" lon="-15.564009">
        <ele>1872.35</ele>
        <time>2016-11-26T11:10:11Z</time>
      </trkpt>
      <trkpt lat="27.961019" lon="-15.563983">
        <ele>1872.00</ele>
        <time>2016-11-26T11:10:14Z</time>
      </trkpt>
      <trkpt lat="27.961009" lon="-15.563966">
        <ele>1870.10</ele>
        <time>2016-11-26T11:10:16Z</time>
      </trkpt>
      <trkpt lat="27.960998" lon="-15.563938">
        <ele>1870.00</ele>
        <time>2016-11-26T11:10:18Z</time>
      </trkpt>
      <trkpt lat="27.961000" lon="-15.563906">
        <ele>1869.81</ele>
        <time>2016-11-26T11:10:21Z</time>
      </trkpt>
      <trkpt lat="27.961013" lon="-15.563888">
        <ele>1867.00</ele>
        <time>2016-11-26T11:10:23Z</time>
      </trkpt>
      <trkpt lat="27.961014" lon="-15.563858">
        <ele>1867.00</ele>
        <time>2016-11-26T11:10:25Z</time>
      </trkpt>
      <trkpt lat="27.961001" lon="-15.563819">
        <ele>1867.00</ele>
        <time>2016-11-26T11:10:27Z</time>
      </trkpt>
      <trkpt lat="27.960996" lon="-15.563797">
        <ele>1867.00</ele>
        <time>2016-11-26T11:10:29Z</time>
      </trkpt>
      <trkpt lat="27.960999" lon="-15.563766">
        <ele>1865.00</ele>
        <time>2016-11-26T11:10:32Z</time>
      </trkpt>
      <trkpt lat="27.961005" lon="-15.563736">
        <ele>1865.00</ele>
        <time>2016-11-26T11:10:34Z</time>
      </trkpt>
      <trkpt lat="27.961015" lon="-15.563678">
        <ele>1865.00</ele>
        <time>2016-11-26T11:10:38Z</time>
      </trkpt>
      <trkpt lat="27.961022" lon="-15.563648">
        <ele>1865.00</ele>
        <time>2016-11-26T11:10:40Z</time>
      </trkpt>
      <trkpt lat="27.961029" lon="-15.563622">
        <ele>1864.00</ele>
        <time>2016-11-26T11:10:42Z</time>
      </trkpt>
      <trkpt lat="27.961040" lon="-15.563597">
        <ele>1864.00</ele>
        <time>2016-11-26T11:10:44.31Z</time>
      </trkpt>
      <trkpt lat="27.961049" lon="-15.563583">
        <ele>1864.00</ele>
        <time>2016-11-26T11:10:45Z</time>
      </trkpt>
      <trkpt lat="27.961073" lon="-15.563559">
        <ele>1864.00</ele>
        <time>2016-11-26T11:10:47Z</time>
      </trkpt>
      <trkpt lat="27.961082" lon="-15.563533">
        <ele>1864.00</ele>
        <time>2016-11-26T11:10:49Z</time>
      </trkpt>
      <trkpt lat="27.961094" lon="-15.563513">
        <ele>1862.31</ele>
        <time>2016-11-26T11:10:51Z</time>
      </trkpt>
      <trkpt lat="27.961091" lon="-15.563485">
        <ele>1862.00</ele>
        <time>2016-11-26T11:10:53Z</time>
      </trkpt>
      <trkpt lat="27.961085" lon="-15.563462">
        <ele>1862.00</ele>
        <time>2016-11-26T11:10:54Z</time>
      </trkpt>
      <trkpt lat="27.961086" lon="-15.563419">
        <ele>1862.00</ele>
        <time>2016-11-26T11:10:57Z</time>
      </trkpt>
      <trkpt lat="27.961101" lon="-15.563318">
        <ele>1863.00</ele>
        <time>2016-11-26T11:11:03Z</time>
      </trkpt>
      <trkpt lat="27.961119" lon="-15.563213">
        <ele>1862.00</ele>
        <time>2016-11-26T11:11:13Z</time>
      </trkpt>
      <trkpt lat="27.961122" lon="-15.563183">
        <ele>1862.00</ele>
        <time>2016-11-26T11:11:15Z</time>
      </trkpt>
      <trkpt lat="27.961120" lon="-15.563075">
        <ele>1864.76</ele>
        <time>2016-11-26T11:11:24Z</time>
      </trkpt>
      <trkpt lat="27.961122" lon="-15.562967">
        <ele>1859.00</ele>
        <time>2016-11-26T11:11:35Z</time>
      </trkpt>
      <trkpt lat="27.961120" lon="-15.562862">
        <ele>1858.00</ele>
        <time>2016-11-26T11:11:44Z</time>
      </trkpt>
      <trkpt lat="27.961117" lon="-15.562832">
        <ele>1859.00</ele>
        <time>2016-11-26T11:11:45.59Z</time>
      </trkpt>
      <trkpt lat="27.961117" lon="-15.562832">
        <ele>1859.00</ele>
        <time>2016-11-26T11:11:46Z</time>
      </trkpt>
      <trkpt lat="27.961112" lon="-15.562808">
        <ele>1859.00</ele>
        <time>2016-11-26T11:11:47.99Z</time>
      </trkpt>
      <trkpt lat="27.961104" lon="-15.562777">
        <ele>1860.28</ele>
        <time>2016-11-26T11:11:50Z</time>
      </trkpt>
      <trkpt lat="27.961089" lon="-15.562739">
        <ele>1860.53</ele>
        <time>2016-11-26T11:11:51.99Z</time>
      </trkpt>
      <trkpt lat="27.961092" lon="-15.562701">
        <ele>1849.03</ele>
        <time>2016-11-26T11:11:54Z</time>
      </trkpt>
      <trkpt lat="27.961095" lon="-15.562681">
        <ele>1855.00</ele>
        <time>2016-11-26T11:11:55Z</time>
      </trkpt>
      <trkpt lat="27.961107" lon="-15.562648">
        <ele>1860.33</ele>
        <time>2016-11-26T11:11:57Z</time>
      </trkpt>
      <trkpt lat="27.961115" lon="-15.562628">
        <ele>1859.91</ele>
        <time>2016-11-26T11:11:58Z</time>
      </trkpt>
      <trkpt lat="27.961123" lon="-15.562602">
        <ele>1854.91</ele>
        <time>2016-11-26T11:11:59Z</time>
      </trkpt>
      <trkpt lat="27.961126" lon="-15.562576">
        <ele>1843.33</ele>
        <time>2016-11-26T11:12:00Z</time>
      </trkpt>
      <trkpt lat="27.961130" lon="-15.562550">
        <ele>1843.48</ele>
        <time>2016-11-26T11:12:01Z</time>
      </trkpt>
      <trkpt lat="27.961136" lon="-15.562525">
        <ele>1855.00</ele>
        <time>2016-11-26T11:12:02Z</time>
      </trkpt>
      <trkpt lat="27.961137" lon="-15.562500">
        <ele>1855.00</ele>
        <time>2016-11-26T11:12:03Z</time>
      </trkpt>
      <trkpt lat="27.961129" lon="-15.562456">
        <ele>1855.00</ele>
        <time>2016-11-26T11:12:05Z</time>
      </trkpt>
      <trkpt lat="27.961116" lon="-15.562433">
        <ele>1855.00</ele>
        <time>2016-11-26T11:12:06Z</time>
      </trkpt>
      <trkpt lat="27.961102" lon="-15.562413">
        <ele>1855.00</ele>
        <time>2016-11-26T11:12:07Z</time>
      </trkpt>
      <trkpt lat="27.961091" lon="-15.562393">
        <ele>1855.00</ele>
        <time>2016-11-26T11:12:08Z</time>
      </trkpt>
      <trkpt lat="27.961075" lon="-15.562371">
        <ele>1855.00</ele>
        <time>2016-11-26T11:12:09Z</time>
      </trkpt>
      <trkpt lat="27.961059" lon="-15.562349">
        <ele>1855.00</ele>
        <time>2016-11-26T11:12:10Z</time>
      </trkpt>
      <trkpt lat="27.961042" lon="-15.562325">
        <ele>1856.52</ele>
        <time>2016-11-26T11:12:11Z</time>
      </trkpt>
      <trkpt lat="27.961025" lon="-15.562303">
        <ele>1857.00</ele>
        <time>2016-11-26T11:12:12Z</time>
      </trkpt>
      <trkpt lat="27.961007" lon="-15.562282">
        <ele>1857.00</ele>
        <time>2016-11-26T11:12:13Z</time>
      </trkpt>
      <trkpt lat="27.960988" lon="-15.562264">
        <ele>1857.00</ele>
        <time>2016-11-26T11:12:14Z</time>
      </trkpt>
      <trkpt lat="27.960969" lon="-15.562245">
        <ele>1857.00</ele>
        <time>2016-11-26T11:12:15Z</time>
      </trkpt>
      <trkpt lat="27.960952" lon="-15.562223">
        <ele>1852.39</ele>
        <time>2016-11-26T11:12:16Z</time>
      </trkpt>
      <trkpt lat="27.960930" lon="-15.562202">
        <ele>1852.00</ele>
        <time>2016-11-26T11:12:17Z</time>
      </trkpt>
      <trkpt lat="27.960912" lon="-15.562178">
        <ele>1852.00</ele>
        <time>2016-11-26T11:12:18Z</time>
      </trkpt>
      <trkpt lat="27.960898" lon="-15.562151">
        <ele>1852.00</ele>
        <time>2016-11-26T11:12:19Z</time>
      </trkpt>
      <trkpt lat="27.960878" lon="-15.562125">
        <ele>1852.00</ele>
        <time>2016-11-26T11:12:20Z</time>
      </trkpt>
      <trkpt lat="27.960858" lon="-15.562101">
        <ele>1852.26</ele>
        <time>2016-11-26T11:12:21Z</time>
      </trkpt>
      <trkpt lat="27.960840" lon="-15.562081">
        <ele>1856.41</ele>
        <time>2016-11-26T11:12:22Z</time>
      </trkpt>
      <trkpt lat="27.960823" lon="-15.562054">
        <ele>1859.85</ele>
        <time>2016-11-26T11:12:23Z</time>
      </trkpt>
      <trkpt lat="27.960804" lon="-15.562031">
        <ele>1858.23</ele>
        <time>2016-11-26T11:12:24Z</time>
      </trkpt>
      <trkpt lat="27.960791" lon="-15.562012">
        <ele>1855.22</ele>
        <time>2016-11-26T11:12:25Z</time>
      </trkpt>
      <trkpt lat="27.960781" lon="-15.561993">
        <ele>1856.74</ele>
        <time>2016-11-26T11:12:26Z</time>
      </trkpt>
      <trkpt lat="27.960772" lon="-15.561971">
        <ele>1859.88</ele>
        <time>2016-11-26T11:12:27Z</time>
      </trkpt>
      <trkpt lat="27.960765" lon="-15.561947">
        <ele>1862.00</ele>
        <time>2016-11-26T11:12:28Z</time>
      </trkpt>
      <trkpt lat="27.960754" lon="-15.561925">
        <ele>1862.34</ele>
        <time>2016-11-26T11:12:29Z</time>
      </trkpt>
      <trkpt lat="27.960744" lon="-15.561899">
        <ele>1860.06</ele>
        <time>2016-11-26T11:12:30Z</time>
      </trkpt>
      <trkpt lat="27.960735" lon="-15.561876">
        <ele>1853.43</ele>
        <time>2016-11-26T11:12:31Z</time>
      </trkpt>
      <trkpt lat="27.960727" lon="-15.561857">
        <ele>1855.69</ele>
        <time>2016-11-26T11:12:32Z</time>
      </trkpt>
      <trkpt lat="27.960706" lon="-15.561781">
        <ele>1858.73</ele>
        <time>2016-11-26T11:12:37Z</time>
      </trkpt>
      <trkpt lat="27.960655" lon="-15.561684">
        <ele>1845.00</ele>
        <time>2016-11-26T11:12:44Z</time>
      </trkpt>
      <trkpt lat="27.960655" lon="-15.561684">
        <ele>1845.00</ele>
        <time>2016-11-26T11:12:44.21Z</time>
      </trkpt>
      <trkpt lat="27.960636" lon="-15.561651">
        <ele>1843.32</ele>
        <time>2016-11-26T11:12:46Z</time>
      </trkpt>
      <trkpt lat="27.960625" lon="-15.561633">
        <ele>1843.00</ele>
        <time>2016-11-26T11:12:47Z</time>
      </trkpt>
      <trkpt lat="27.960603" lon="-15.561601">
        <ele>1843.00</ele>
        <time>2016-11-26T11:12:49Z</time>
      </trkpt>
      <trkpt lat="27.960590" lon="-15.561564">
        <ele>1843.98</ele>
        <time>2016-11-26T11:12:51Z</time>
      </trkpt>
      <trkpt lat="27.960585" lon="-15.561532">
        <ele>1844.00</ele>
        <time>2016-11-26T11:12:53Z</time>
      </trkpt>
      <trkpt lat="27.960572" lon="-15.561503">
        <ele>1844.00</ele>
        <time>2016-11-26T11:12:55Z</time>
      </trkpt>
      <trkpt lat="27.960551" lon="-15.561463">
        <ele>1846.00</ele>
        <time>2016-11-26T11:12:58Z</time>
      </trkpt>
      <trkpt lat="27.960535" lon="-15.561435">
        <ele>1846.00</ele>
        <time>2016-11-26T11:13:00Z</time>
      </trkpt>
      <trkpt lat="27.960527" lon="-15.561402">
        <ele>1842.00</ele>
        <time>2016-11-26T11:13:02Z</time>
      </trkpt>
      <trkpt lat="27.960504" lon="-15.561385">
        <ele>1842.00</ele>
        <time>2016-11-26T11:13:04Z</time>
      </trkpt>
      <trkpt lat="27.960487" lon="-15.561359">
        <ele>1842.00</ele>
        <time>2016-11-26T11:13:06Z</time>
      </trkpt>
      <trkpt lat="27.960472" lon="-15.561329">
        <ele>1842.00</ele>
        <time>2016-11-26T11:13:08Z</time>
      </trkpt>
      <trkpt lat="27.960452" lon="-15.561308">
        <ele>1842.00</ele>
        <time>2016-11-26T11:13:10Z</time>
      </trkpt>
      <trkpt lat="27.960431" lon="-15.561284">
        <ele>1842.00</ele>
        <time>2016-11-26T11:13:12Z</time>
      </trkpt>
      <trkpt lat="27.960403" lon="-15.561258">
        <ele>1842.00</ele>
        <time>2016-11-26T11:13:14Z</time>
      </trkpt>
      <trkpt lat="27.960378" lon="-15.561238">
        <ele>1842.00</ele>
        <time>2016-11-26T11:13:16Z</time>
      </trkpt>
      <trkpt lat="27.960356" lon="-15.561215">
        <ele>1842.00</ele>
        <time>2016-11-26T11:13:18Z</time>
      </trkpt>
      <trkpt lat="27.960339" lon="-15.561187">
        <ele>1842.00</ele>
        <time>2016-11-26T11:13:20Z</time>
      </trkpt>
      <trkpt lat="27.960316" lon="-15.561163">
        <ele>1842.00</ele>
        <time>2016-11-26T11:13:22Z</time>
      </trkpt>
      <trkpt lat="27.960308" lon="-15.561135">
        <ele>1842.00</ele>
        <time>2016-11-26T11:13:24Z</time>
      </trkpt>
      <trkpt lat="27.960297" lon="-15.561109">
        <ele>1842.00</ele>
        <time>2016-11-26T11:13:26Z</time>
      </trkpt>
      <trkpt lat="27.960288" lon="-15.561083">
        <ele>1842.00</ele>
        <time>2016-11-26T11:13:28Z</time>
      </trkpt>
      <trkpt lat="27.960271" lon="-15.561058">
        <ele>1842.00</ele>
        <time>2016-11-26T11:13:30Z</time>
      </trkpt>
      <trkpt lat="27.960252" lon="-15.561030">
        <ele>1841.00</ele>
        <time>2016-11-26T11:13:32Z</time>
      </trkpt>
      <trkpt lat="27.960233" lon="-15.561001">
        <ele>1841.00</ele>
        <time>2016-11-26T11:13:34Z</time>
      </trkpt>
      <trkpt lat="27.960218" lon="-15.560972">
        <ele>1841.13</ele>
        <time>2016-11-26T11:13:36Z</time>
      </trkpt>
      <trkpt lat="27.960206" lon="-15.560955">
        <ele>1842.00</ele>
        <time>2016-11-26T11:13:38Z</time>
      </trkpt>
      <trkpt lat="27.960188" lon="-15.560929">
        <ele>1842.00</ele>
        <time>2016-11-26T11:13:40Z</time>
      </trkpt>
      <trkpt lat="27.960176" lon="-15.560898">
        <ele>1843.00</ele>
        <time>2016-11-26T11:13:42Z</time>
      </trkpt>
      <trkpt lat="27.960168" lon="-15.560881">
        <ele>1843.00</ele>
        <time>2016-11-26T11:13:42.70Z</time>
      </trkpt>
      <trkpt lat="27.960162" lon="-15.560863">
        <ele>1843.00</ele>
        <time>2016-11-26T11:13:44Z</time>
      </trkpt>
      <trkpt lat="27.960145" lon="-15.560833">
        <ele>1844.20</ele>
        <time>2016-11-26T11:13:46Z</time>
      </trkpt>
      <trkpt lat="27.960125" lon="-15.560808">
        <ele>1846.00</ele>
        <time>2016-11-26T11:13:48Z</time>
      </trkpt>
      <trkpt lat="27.960108" lon="-15.560785">
        <ele>1846.00</ele>
        <time>2016-11-26T11:13:50Z</time>
      </trkpt>
      <trkpt lat="27.960085" lon="-15.560767">
        <ele>1850.00</ele>
        <time>2016-11-26T11:13:52Z</time>
      </trkpt>
      <trkpt lat="27.960059" lon="-15.560752">
        <ele>1850.00</ele>
        <time>2016-11-26T11:13:54Z</time>
      </trkpt>
      <trkpt lat="27.960033" lon="-15.560743">
        <ele>1850.00</ele>
        <time>2016-11-26T11:13:56Z</time>
      </trkpt>
      <trkpt lat="27.960015" lon="-15.560729">
        <ele>1850.00</ele>
        <time>2016-11-26T11:13:58Z</time>
      </trkpt>
      <trkpt lat="27.960004" lon="-15.560708">
        <ele>1850.00</ele>
        <time>2016-11-26T11:14:00Z</time>
      </trkpt>
      <trkpt lat="27.959991" lon="-15.560683">
        <ele>1851.00</ele>
        <time>2016-11-26T11:14:03Z</time>
      </trkpt>
      <trkpt lat="27.959973" lon="-15.560663">
        <ele>1851.00</ele>
        <time>2016-11-26T11:14:06Z</time>
      </trkpt>
      <trkpt lat="27.959958" lon="-15.560649">
        <ele>1851.00</ele>
        <time>2016-11-26T11:14:08Z</time>
      </trkpt>
      <trkpt lat="27.959941" lon="-15.560639">
        <ele>1851.00</ele>
        <time>2016-11-26T11:14:10Z</time>
      </trkpt>
      <trkpt lat="27.959914" lon="-15.560624">
        <ele>1850.00</ele>
        <time>2016-11-26T11:14:12Z</time>
      </trkpt>
      <trkpt lat="27.959891" lon="-15.560610">
        <ele>1850.00</ele>
        <time>2016-11-26T11:14:14Z</time>
      </trkpt>
      <trkpt lat="27.959878" lon="-15.560588">
        <ele>1850.00</ele>
        <time>2016-11-26T11:14:17Z</time>
      </trkpt>
      <trkpt lat="27.959859" lon="-15.560587">
        <ele>1850.00</ele>
        <time>2016-11-26T11:14:20Z</time>
      </trkpt>
      <trkpt lat="27.959836" lon="-15.560582">
        <ele>1850.00</ele>
        <time>2016-11-26T11:14:22Z</time>
      </trkpt>
      <trkpt lat="27.959819" lon="-15.560577">
        <ele>1850.00</ele>
        <time>2016-11-26T11:14:23Z</time>
      </trkpt>
      <trkpt lat="27.959797" lon="-15.560562">
        <ele>1850.00</ele>
        <time>2016-11-26T11:14:25Z</time>
      </trkpt>
      <trkpt lat="27.959773" lon="-15.560560">
        <ele>1850.00</ele>
        <time>2016-11-26T11:14:27Z</time>
      </trkpt>
      <trkpt lat="27.959746" lon="-15.560559">
        <ele>1850.00</ele>
        <time>2016-11-26T11:14:29Z</time>
      </trkpt>
      <trkpt lat="27.959714" lon="-15.560560">
        <ele>1850.59</ele>
        <time>2016-11-26T11:14:31Z</time>
      </trkpt>
      <trkpt lat="27.959689" lon="-15.560545">
        <ele>1851.00</ele>
        <time>2016-11-26T11:14:33Z</time>
      </trkpt>
      <trkpt lat="27.959665" lon="-15.560521">
        <ele>1851.00</ele>
        <time>2016-11-26T11:14:35Z</time>
      </trkpt>
      <trkpt lat="27.959644" lon="-15.560506">
        <ele>1851.00</ele>
        <time>2016-11-26T11:14:37Z</time>
      </trkpt>
      <trkpt lat="27.959622" lon="-15.560495">
        <ele>1851.00</ele>
        <time>2016-11-26T11:14:39Z</time>
      </trkpt>
      <trkpt lat="27.959594" lon="-15.560487">
        <ele>1850.17</ele>
        <time>2016-11-26T11:14:41Z</time>
      </trkpt>
      <trkpt lat="27.959594" lon="-15.560487">
        <ele>1850.00</ele>
        <time>2016-11-26T11:14:41.17Z</time>
      </trkpt>
      <trkpt lat="27.959572" lon="-15.560480">
        <ele>1850.00</ele>
        <time>2016-11-26T11:14:43Z</time>
      </trkpt>
      <trkpt lat="27.959548" lon="-15.560474">
        <ele>1850.00</ele>
        <time>2016-11-26T11:14:45Z</time>
      </trkpt>
      <trkpt lat="27.959520" lon="-15.560465">
        <ele>1850.00</ele>
        <time>2016-11-26T11:14:47Z</time>
      </trkpt>
      <trkpt lat="27.959488" lon="-15.560448">
        <ele>1850.00</ele>
        <time>2016-11-26T11:14:49Z</time>
      </trkpt>
      <trkpt lat="27.959463" lon="-15.560428">
        <ele>1850.00</ele>
        <time>2016-11-26T11:14:51Z</time>
      </trkpt>
      <trkpt lat="27.959435" lon="-15.560414">
        <ele>1849.00</ele>
        <time>2016-11-26T11:14:53Z</time>
      </trkpt>
      <trkpt lat="27.959420" lon="-15.560400">
        <ele>1849.00</ele>
        <time>2016-11-26T11:14:54Z</time>
      </trkpt>
      <trkpt lat="27.959398" lon="-15.560375">
        <ele>1849.00</ele>
        <time>2016-11-26T11:14:56Z</time>
      </trkpt>
      <trkpt lat="27.959373" lon="-15.560350">
        <ele>1847.00</ele>
        <time>2016-11-26T11:14:58Z</time>
      </trkpt>
      <trkpt lat="27.959348" lon="-15.560317">
        <ele>1849.66</ele>
        <time>2016-11-26T11:15:00Z</time>
      </trkpt>
      <trkpt lat="27.959338" lon="-15.560296">
        <ele>1846.42</ele>
        <time>2016-11-26T11:15:01Z</time>
      </trkpt>
      <trkpt lat="27.959324" lon="-15.560267">
        <ele>1842.00</ele>
        <time>2016-11-26T11:15:03Z</time>
      </trkpt>
      <trkpt lat="27.959315" lon="-15.560241">
        <ele>1842.00</ele>
        <time>2016-11-26T11:15:05Z</time>
      </trkpt>
      <trkpt lat="27.959309" lon="-15.560210">
        <ele>1842.00</ele>
        <time>2016-11-26T11:15:07Z</time>
      </trkpt>
      <trkpt lat="27.959303" lon="-15.560175">
        <ele>1842.00</ele>
        <time>2016-11-26T11:15:09Z</time>
      </trkpt>
      <trkpt lat="27.959296" lon="-15.560148">
        <ele>1840.79</ele>
        <time>2016-11-26T11:15:11Z</time>
      </trkpt>
      <trkpt lat="27.959291" lon="-15.560118">
        <ele>1840.00</ele>
        <time>2016-11-26T11:15:13Z</time>
      </trkpt>
      <trkpt lat="27.959287" lon="-15.560094">
        <ele>1840.00</ele>
        <time>2016-11-26T11:15:15Z</time>
      </trkpt>
      <trkpt lat="27.959278" lon="-15.560073">
        <ele>1840.00</ele>
        <time>2016-11-26T11:15:17Z</time>
      </trkpt>
      <trkpt lat="27.959274" lon="-15.560051">
        <ele>1840.00</ele>
        <time>2016-11-26T11:15:19Z</time>
      </trkpt>
      <trkpt lat="27.959263" lon="-15.560023">
        <ele>1840.00</ele>
        <time>2016-11-26T11:15:21Z</time>
      </trkpt>
      <trkpt lat="27.959247" lon="-15.559994">
        <ele>1840.00</ele>
        <time>2016-11-26T11:15:23Z</time>
      </trkpt>
      <trkpt lat="27.959238" lon="-15.559965">
        <ele>1840.00</ele>
        <time>2016-11-26T11:15:25Z</time>
      </trkpt>
      <trkpt lat="27.959231" lon="-15.559940">
        <ele>1840.00</ele>
        <time>2016-11-26T11:15:27Z</time>
      </trkpt>
      <trkpt lat="27.959223" lon="-15.559914">
        <ele>1840.00</ele>
        <time>2016-11-26T11:15:29Z</time>
      </trkpt>
      <trkpt lat="27.959209" lon="-15.559888">
        <ele>1838.00</ele>
        <time>2016-11-26T11:15:32Z</time>
      </trkpt>
      <trkpt lat="27.959200" lon="-15.559864">
        <ele>1838.00</ele>
        <time>2016-11-26T11:15:34Z</time>
      </trkpt>
      <trkpt lat="27.959189" lon="-15.559836">
        <ele>1838.00</ele>
        <time>2016-11-26T11:15:36Z</time>
      </trkpt>
      <trkpt lat="27.959178" lon="-15.559805">
        <ele>1838.00</ele>
        <time>2016-11-26T11:15:38Z</time>
      </trkpt>
      <trkpt lat="27.959161" lon="-15.559785">
        <ele>1838.00</ele>
        <time>2016-11-26T11:15:39.78Z</time>
      </trkpt>
      <trkpt lat="27.959161" lon="-15.559785">
        <ele>1838.00</ele>
        <time>2016-11-26T11:15:40Z</time>
      </trkpt>
      <trkpt lat="27.959146" lon="-15.559765">
        <ele>1837.00</ele>
        <time>2016-11-26T11:15:42Z</time>
      </trkpt>
      <trkpt lat="27.959128" lon="-15.559740">
        <ele>1837.00</ele>
        <time>2016-11-26T11:15:44Z</time>
      </trkpt>
      <trkpt lat="27.959113" lon="-15.559713">
        <ele>1837.00</ele>
        <time>2016-11-26T11:15:46Z</time>
      </trkpt>
      <trkpt lat="27.959097" lon="-15.559696">
        <ele>1837.00</ele>
        <time>2016-11-26T11:15:47Z</time>
      </trkpt>
      <trkpt lat="27.959071" lon="-15.559664">
        <ele>1837.00</ele>
        <time>2016-11-26T11:15:49Z</time>
      </trkpt>
      <trkpt lat="27.959053" lon="-15.559641">
        <ele>1836.47</ele>
        <time>2016-11-26T11:15:51Z</time>
      </trkpt>
      <trkpt lat="27.959038" lon="-15.559618">
        <ele>1836.00</ele>
        <time>2016-11-26T11:15:53Z</time>
      </trkpt>
      <trkpt lat="27.959020" lon="-15.559594">
        <ele>1836.00</ele>
        <time>2016-11-26T11:15:55Z</time>
      </trkpt>
      <trkpt lat="27.959003" lon="-15.559569">
        <ele>1836.00</ele>
        <time>2016-11-26T11:15:57Z</time>
      </trkpt>
      <trkpt lat="27.958983" lon="-15.559541">
        <ele>1836.00</ele>
        <time>2016-11-26T11:15:59Z</time>
      </trkpt>
      <trkpt lat="27.958964" lon="-15.559520">
        <ele>1836.00</ele>
        <time>2016-11-26T11:16:01Z</time>
      </trkpt>
      <trkpt lat="27.958947" lon="-15.559503">
        <ele>1836.00</ele>
        <time>2016-11-26T11:16:03Z</time>
      </trkpt>
      <trkpt lat="27.958931" lon="-15.559477">
        <ele>1836.00</ele>
        <time>2016-11-26T11:16:05Z</time>
      </trkpt>
      <trkpt lat="27.958916" lon="-15.559455">
        <ele>1836.00</ele>
        <time>2016-11-26T11:16:07Z</time>
      </trkpt>
      <trkpt lat="27.958910" lon="-15.559435">
        <ele>1836.00</ele>
        <time>2016-11-26T11:16:09Z</time>
      </trkpt>
      <trkpt lat="27.958896" lon="-15.559406">
        <ele>1834.40</ele>
        <time>2016-11-26T11:16:11Z</time>
      </trkpt>
      <trkpt lat="27.958885" lon="-15.559390">
        <ele>1834.00</ele>
        <time>2016-11-26T11:16:12Z</time>
      </trkpt>
      <trkpt lat="27.958870" lon="-15.559359">
        <ele>1834.00</ele>
        <time>2016-11-26T11:16:14Z</time>
      </trkpt>
      <trkpt lat="27.958860" lon="-15.559336">
        <ele>1834.00</ele>
        <time>2016-11-26T11:16:16Z</time>
      </trkpt>
      <trkpt lat="27.958840" lon="-15.559308">
        <ele>1834.00</ele>
        <time>2016-11-26T11:16:18Z</time>
      </trkpt>
      <trkpt lat="27.958823" lon="-15.559282">
        <ele>1834.00</ele>
        <time>2016-11-26T11:16:20Z</time>
      </trkpt>
      <trkpt lat="27.958800" lon="-15.559260">
        <ele>1835.00</ele>
        <time>2016-11-26T11:16:22Z</time>
      </trkpt>
      <trkpt lat="27.958783" lon="-15.559240">
        <ele>1835.00</ele>
        <time>2016-11-26T11:16:24Z</time>
      </trkpt>
      <trkpt lat="27.958769" lon="-15.559215">
        <ele>1835.00</ele>
        <time>2016-11-26T11:16:27Z</time>
      </trkpt>
      <trkpt lat="27.958762" lon="-15.559196">
        <ele>1835.00</ele>
        <time>2016-11-26T11:16:29Z</time>
      </trkpt>
      <trkpt lat="27.958746" lon="-15.559176">
        <ele>1835.88</ele>
        <time>2016-11-26T11:16:31Z</time>
      </trkpt>
      <trkpt lat="27.958730" lon="-15.559155">
        <ele>1837.00</ele>
        <time>2016-11-26T11:16:33Z</time>
      </trkpt>
      <trkpt lat="27.958718" lon="-15.559140">
        <ele>1837.00</ele>
        <time>2016-11-26T11:16:34Z</time>
      </trkpt>
      <trkpt lat="27.958704" lon="-15.559122">
        <ele>1837.00</ele>
        <time>2016-11-26T11:16:35Z</time>
      </trkpt>
      <trkpt lat="27.958687" lon="-15.559096">
        <ele>1837.00</ele>
        <time>2016-11-26T11:16:37Z</time>
      </trkpt>
      <trkpt lat="27.958675" lon="-15.559079">
        <ele>1837.00</ele>
        <time>2016-11-26T11:16:38Z</time>
      </trkpt>
      <trkpt lat="27.958675" lon="-15.559079">
        <ele>1837.00</ele>
        <time>2016-11-26T11:16:38.37Z</time>
      </trkpt>
      <trkpt lat="27.958663" lon="-15.559060">
        <ele>1837.00</ele>
        <time>2016-11-26T11:16:39Z</time>
      </trkpt>
      <trkpt lat="27.958652" lon="-15.559042">
        <ele>1837.00</ele>
        <time>2016-11-26T11:16:40Z</time>
      </trkpt>
      <trkpt lat="27.958640" lon="-15.559022">
        <ele>1834.86</ele>
        <time>2016-11-26T11:16:41Z</time>
      </trkpt>
      <trkpt lat="27.958626" lon="-15.559002">
        <ele>1834.00</ele>
        <time>2016-11-26T11:16:42Z</time>
      </trkpt>
      <trkpt lat="27.958612" lon="-15.558984">
        <ele>1834.00</ele>
        <time>2016-11-26T11:16:43Z</time>
      </trkpt>
      <trkpt lat="27.958598" lon="-15.558967">
        <ele>1834.00</ele>
        <time>2016-11-26T11:16:44Z</time>
      </trkpt>
      <trkpt lat="27.958583" lon="-15.558948">
        <ele>1834.00</ele>
        <time>2016-11-26T11:16:45Z</time>
      </trkpt>
      <trkpt lat="27.958571" lon="-15.558928">
        <ele>1832.35</ele>
        <time>2016-11-26T11:16:46Z</time>
      </trkpt>
      <trkpt lat="27.958563" lon="-15.558906">
        <ele>1832.00</ele>
        <time>2016-11-26T11:16:47Z</time>
      </trkpt>
      <trkpt lat="27.958555" lon="-15.558883">
        <ele>1832.00</ele>
        <time>2016-11-26T11:16:48Z</time>
      </trkpt>
      <trkpt lat="27.958543" lon="-15.558863">
        <ele>1832.00</ele>
        <time>2016-11-26T11:16:49Z</time>
      </trkpt>
      <trkpt lat="27.958529" lon="-15.558845">
        <ele>1832.00</ele>
        <time>2016-11-26T11:16:50Z</time>
      </trkpt>
      <trkpt lat="27.958518" lon="-15.558824">
        <ele>1832.85</ele>
        <time>2016-11-26T11:16:51Z</time>
      </trkpt>
      <trkpt lat="27.958510" lon="-15.558802">
        <ele>1833.00</ele>
        <time>2016-11-26T11:16:52Z</time>
      </trkpt>
      <trkpt lat="27.958499" lon="-15.558783">
        <ele>1833.00</ele>
        <time>2016-11-26T11:16:53Z</time>
      </trkpt>
      <trkpt lat="27.958488" lon="-15.558751">
        <ele>1833.00</ele>
        <time>2016-11-26T11:16:55Z</time>
      </trkpt>
      <trkpt lat="27.958480" lon="-15.558731">
        <ele>1834.70</ele>
        <time>2016-11-26T11:16:56Z</time>
      </trkpt>
      <trkpt lat="27.958477" lon="-15.558710">
        <ele>1835.00</ele>
        <time>2016-11-26T11:16:57Z</time>
      </trkpt>
      <trkpt lat="27.958469" lon="-15.558687">
        <ele>1835.00</ele>
        <time>2016-11-26T11:16:58Z</time>
      </trkpt>
      <trkpt lat="27.958461" lon="-15.558665">
        <ele>1835.00</ele>
        <time>2016-11-26T11:16:59Z</time>
      </trkpt>
      <trkpt lat="27.958449" lon="-15.558642">
        <ele>1835.00</ele>
        <time>2016-11-26T11:17:00Z</time>
      </trkpt>
      <trkpt lat="27.958440" lon="-15.558621">
        <ele>1830.69</ele>
        <time>2016-11-26T11:17:01Z</time>
      </trkpt>
      <trkpt lat="27.958426" lon="-15.558601">
        <ele>1830.00</ele>
        <time>2016-11-26T11:17:02Z</time>
      </trkpt>
      <trkpt lat="27.958411" lon="-15.558582">
        <ele>1830.00</ele>
        <time>2016-11-26T11:17:03Z</time>
      </trkpt>
      <trkpt lat="27.958399" lon="-15.558560">
        <ele>1830.00</ele>
        <time>2016-11-26T11:17:04Z</time>
      </trkpt>
      <trkpt lat="27.958385" lon="-15.558542">
        <ele>1830.00</ele>
        <time>2016-11-26T11:17:05Z</time>
      </trkpt>
      <trkpt lat="27.958372" lon="-15.558525">
        <ele>1830.00</ele>
        <time>2016-11-26T11:17:06Z</time>
      </trkpt>
      <trkpt lat="27.958354" lon="-15.558501">
        <ele>1830.00</ele>
        <time>2016-11-26T11:17:07Z</time>
      </trkpt>
      <trkpt lat="27.958339" lon="-15.558481">
        <ele>1830.00</ele>
        <time>2016-11-26T11:17:08Z</time>
      </trkpt>
      <trkpt lat="27.958328" lon="-15.558461">
        <ele>1830.00</ele>
        <time>2016-11-26T11:17:09Z</time>
      </trkpt>
      <trkpt lat="27.958310" lon="-15.558440">
        <ele>1830.00</ele>
        <time>2016-11-26T11:17:10Z</time>
      </trkpt>
      <trkpt lat="27.958290" lon="-15.558420">
        <ele>1829.24</ele>
        <time>2016-11-26T11:17:11Z</time>
      </trkpt>
      <trkpt lat="27.958273" lon="-15.558400">
        <ele>1829.00</ele>
        <time>2016-11-26T11:17:12Z</time>
      </trkpt>
      <trkpt lat="27.958255" lon="-15.558383">
        <ele>1829.00</ele>
        <time>2016-11-26T11:17:13Z</time>
      </trkpt>
      <trkpt lat="27.958240" lon="-15.558368">
        <ele>1829.00</ele>
        <time>2016-11-26T11:17:14Z</time>
      </trkpt>
      <trkpt lat="27.958224" lon="-15.558348">
        <ele>1829.00</ele>
        <time>2016-11-26T11:17:15Z</time>
      </trkpt>
      <trkpt lat="27.958208" lon="-15.558330">
        <ele>1829.00</ele>
        <time>2016-11-26T11:17:16Z</time>
      </trkpt>
      <trkpt lat="27.958195" lon="-15.558313">
        <ele>1829.00</ele>
        <time>2016-11-26T11:17:17Z</time>
      </trkpt>
      <trkpt lat="27.958181" lon="-15.558291">
        <ele>1829.00</ele>
        <time>2016-11-26T11:17:18Z</time>
      </trkpt>
      <trkpt lat="27.958170" lon="-15.558270">
        <ele>1829.00</ele>
        <time>2016-11-26T11:17:19Z</time>
      </trkpt>
      <trkpt lat="27.958159" lon="-15.558249">
        <ele>1829.00</ele>
        <time>2016-11-26T11:17:20Z</time>
      </trkpt>
      <trkpt lat="27.958144" lon="-15.558231">
        <ele>1829.62</ele>
        <time>2016-11-26T11:17:20.95Z</time>
      </trkpt>
      <trkpt lat="27.958132" lon="-15.558212">
        <ele>1830.00</ele>
        <time>2016-11-26T11:17:22Z</time>
      </trkpt>
      <trkpt lat="27.958117" lon="-15.558193">
        <ele>1830.00</ele>
        <time>2016-11-26T11:17:23Z</time>
      </trkpt>
      <trkpt lat="27.958105" lon="-15.558176">
        <ele>1830.00</ele>
        <time>2016-11-26T11:17:24Z</time>
      </trkpt>
      <trkpt lat="27.958092" lon="-15.558157">
        <ele>1830.00</ele>
        <time>2016-11-26T11:17:24.96Z</time>
      </trkpt>
      <trkpt lat="27.958072" lon="-15.558122">
        <ele>1830.00</ele>
        <time>2016-11-26T11:17:27Z</time>
      </trkpt>
      <trkpt lat="27.958059" lon="-15.558102">
        <ele>1830.00</ele>
        <time>2016-11-26T11:17:28Z</time>
      </trkpt>
      <trkpt lat="27.958046" lon="-15.558081">
        <ele>1830.00</ele>
        <time>2016-11-26T11:17:29Z</time>
      </trkpt>
      <trkpt lat="27.958027" lon="-15.558062">
        <ele>1830.00</ele>
        <time>2016-11-26T11:17:30Z</time>
      </trkpt>
      <trkpt lat="27.958013" lon="-15.558049">
        <ele>1831.66</ele>
        <time>2016-11-26T11:17:31Z</time>
      </trkpt>
      <trkpt lat="27.957995" lon="-15.558032">
        <ele>1832.00</ele>
        <time>2016-11-26T11:17:33Z</time>
      </trkpt>
      <trkpt lat="27.957981" lon="-15.558013">
        <ele>1832.00</ele>
        <time>2016-11-26T11:17:35Z</time>
      </trkpt>
      <trkpt lat="27.957963" lon="-15.557992">
        <ele>1832.00</ele>
        <time>2016-11-26T11:17:37Z</time>
      </trkpt>
      <trkpt lat="27.957959" lon="-15.557976">
        <ele>1832.00</ele>
        <time>2016-11-26T11:17:38.01Z</time>
      </trkpt>
      <trkpt lat="27.957948" lon="-15.557953">
        <ele>1832.00</ele>
        <time>2016-11-26T11:17:40Z</time>
      </trkpt>
      <trkpt lat="27.957947" lon="-15.557925">
        <ele>1833.00</ele>
        <time>2016-11-26T11:17:42Z</time>
      </trkpt>
      <trkpt lat="27.957943" lon="-15.557900">
        <ele>1833.00</ele>
        <time>2016-11-26T11:17:44Z</time>
      </trkpt>
      <trkpt lat="27.957936" lon="-15.557867">
        <ele>1833.00</ele>
        <time>2016-11-26T11:17:46Z</time>
      </trkpt>
      <trkpt lat="27.957935" lon="-15.557834">
        <ele>1833.00</ele>
        <time>2016-11-26T11:17:48Z</time>
      </trkpt>
      <trkpt lat="27.957937" lon="-15.557806">
        <ele>1833.00</ele>
        <time>2016-11-26T11:17:50Z</time>
      </trkpt>
      <trkpt lat="27.957936" lon="-15.557780">
        <ele>1836.00</ele>
        <time>2016-11-26T11:17:52Z</time>
      </trkpt>
      <trkpt lat="27.957935" lon="-15.557750">
        <ele>1836.00</ele>
        <time>2016-11-26T11:17:54Z</time>
      </trkpt>
      <trkpt lat="27.957930" lon="-15.557729">
        <ele>1836.00</ele>
        <time>2016-11-26T11:17:55Z</time>
      </trkpt>
      <trkpt lat="27.957925" lon="-15.557708">
        <ele>1834.66</ele>
        <time>2016-11-26T11:17:56Z</time>
      </trkpt>
      <trkpt lat="27.957931" lon="-15.557455">
        <ele>1883.40</ele>
        <time>2018-07-13T19:19:55Z</time>
      </trkpt>
      <trkpt lat="27.957940" lon="-15.557436">
        <ele>1881.60</ele>
        <time>2018-07-13T19:19:57Z</time>
      </trkpt>
      <trkpt lat="27.957947" lon="-15.557412">
        <ele>1880.40</ele>
        <time>2018-07-13T19:19:59Z</time>
      </trkpt>
      <trkpt lat="27.957949" lon="-15.557378">
        <ele>1880.20</ele>
        <time>2018-07-13T19:20:02Z</time>
      </trkpt>
      <trkpt lat="27.957965" lon="-15.557356">
        <ele>1879.20</ele>
        <time>2018-07-13T19:20:04Z</time>
      </trkpt>
      <trkpt lat="27.957969" lon="-15.557334">
        <ele>1879.20</ele>
        <time>2018-07-13T19:20:05Z</time>
      </trkpt>
      <trkpt lat="27.957974" lon="-15.557311">
        <ele>1879.00</ele>
        <time>2018-07-13T19:20:06Z</time>
      </trkpt>
      <trkpt lat="27.957976" lon="-15.557286">
        <ele>1878.80</ele>
        <time>2018-07-13T19:20:07Z</time>
      </trkpt>
      <trkpt lat="27.957975" lon="-15.557260">
        <ele>1879.00</ele>
        <time>2018-07-13T19:20:08Z</time>
      </trkpt>
      <trkpt lat="27.957989" lon="-15.557237">
        <ele>1878.80</ele>
        <time>2018-07-13T19:20:09Z</time>
      </trkpt>
      <trkpt lat="27.957995" lon="-15.557207">
        <ele>1878.40</ele>
        <time>2018-07-13T19:20:10Z</time>
      </trkpt>
      <trkpt lat="27.957999" lon="-15.557178">
        <ele>1878.40</ele>
        <time>2018-07-13T19:20:11Z</time>
      </trkpt>
      <trkpt lat="27.958001" lon="-15.557148">
        <ele>1878.40</ele>
        <time>2018-07-13T19:20:12Z</time>
      </trkpt>
      <trkpt lat="27.958003" lon="-15.557118">
        <ele>1878.40</ele>
        <time>2018-07-13T19:20:13Z</time>
      </trkpt>
      <trkpt lat="27.958006" lon="-15.557080">
        <ele>1878.40</ele>
        <time>2018-07-13T19:20:14Z</time>
      </trkpt>
      <trkpt lat="27.958008" lon="-15.557047">
        <ele>1877.60</ele>
        <time>2018-07-13T19:20:15Z</time>
      </trkpt>
      <trkpt lat="27.958017" lon="-15.557019">
        <ele>1877.60</ele>
        <time>2018-07-13T19:20:16Z</time>
      </trkpt>
      <trkpt lat="27.958025" lon="-15.556986">
        <ele>1877.60</ele>
        <time>2018-07-13T19:20:17Z</time>
      </trkpt>
      <trkpt lat="27.958040" lon="-15.556958">
        <ele>1877.20</ele>
        <time>2018-07-13T19:20:18Z</time>
      </trkpt>
      <trkpt lat="27.958057" lon="-15.556938">
        <ele>1877.20</ele>
        <time>2018-07-13T19:20:19Z</time>
      </trkpt>
      <trkpt lat="27.958075" lon="-15.556920">
        <ele>1876.80</ele>
        <time>2018-07-13T19:20:20Z</time>
      </trkpt>
      <trkpt lat="27.958093" lon="-15.556899">
        <ele>1876.80</ele>
        <time>2018-07-13T19:20:21Z</time>
      </trkpt>
      <trkpt lat="27.958113" lon="-15.556885">
        <ele>1876.80</ele>
        <time>2018-07-13T19:20:22Z</time>
      </trkpt>
      <trkpt lat="27.958141" lon="-15.556875">
        <ele>1875.80</ele>
        <time>2018-07-13T19:20:23Z</time>
      </trkpt>
      <trkpt lat="27.958164" lon="-15.556867">
        <ele>1874.80</ele>
        <time>2018-07-13T19:20:24Z</time>
      </trkpt>
      <trkpt lat="27.958190" lon="-15.556857">
        <ele>1874.80</ele>
        <time>2018-07-13T19:20:25Z</time>
      </trkpt>
      <trkpt lat="27.958215" lon="-15.556847">
        <ele>1874.80</ele>
        <time>2018-07-13T19:20:26Z</time>
      </trkpt>
      <trkpt lat="27.958241" lon="-15.556839">
        <ele>1874.60</ele>
        <time>2018-07-13T19:20:27Z</time>
      </trkpt>
      <trkpt lat="27.958259" lon="-15.556832">
        <ele>1873.00</ele>
        <time>2018-07-13T19:20:28Z</time>
      </trkpt>
      <trkpt lat="27.958283" lon="-15.556820">
        <ele>1872.80</ele>
        <time>2018-07-13T19:20:29Z</time>
      </trkpt>
      <trkpt lat="27.958308" lon="-15.556810">
        <ele>1872.80</ele>
        <time>2018-07-13T19:20:30Z</time>
      </trkpt>
      <trkpt lat="27.958336" lon="-15.556798">
        <ele>1872.60</ele>
        <time>2018-07-13T19:20:31Z</time>
      </trkpt>
      <trkpt lat="27.958362" lon="-15.556789">
        <ele>1871.00</ele>
        <time>2018-07-13T19:20:32Z</time>
      </trkpt>
      <trkpt lat="27.958391" lon="-15.556777">
        <ele>1870.80</ele>
        <time>2018-07-13T19:20:33Z</time>
      </trkpt>
      <trkpt lat="27.958418" lon="-15.556767">
        <ele>1870.80</ele>
        <time>2018-07-13T19:20:34Z</time>
      </trkpt>
      <trkpt lat="27.958448" lon="-15.556758">
        <ele>1870.80</ele>
        <time>2018-07-13T19:20:35Z</time>
      </trkpt>
      <trkpt lat="27.958473" lon="-15.556749">
        <ele>1870.40</ele>
        <time>2018-07-13T19:20:36Z</time>
      </trkpt>
      <trkpt lat="27.958500" lon="-15.556733">
        <ele>1869.40</ele>
        <time>2018-07-13T19:20:37Z</time>
      </trkpt>
      <trkpt lat="27.958525" lon="-15.556712">
        <ele>1869.80</ele>
        <time>2018-07-13T19:20:38Z</time>
      </trkpt>
      <trkpt lat="27.958549" lon="-15.556692">
        <ele>1868.00</ele>
        <time>2018-07-13T19:20:39Z</time>
      </trkpt>
      <trkpt lat="27.958573" lon="-15.556677">
        <ele>1869.80</ele>
        <time>2018-07-13T19:20:40Z</time>
      </trkpt>
      <trkpt lat="27.958599" lon="-15.556663">
        <ele>1867.80</ele>
        <time>2018-07-13T19:20:41Z</time>
      </trkpt>
      <trkpt lat="27.958629" lon="-15.556648">
        <ele>1869.80</ele>
        <time>2018-07-13T19:20:42Z</time>
      </trkpt>
      <trkpt lat="27.958657" lon="-15.556634">
        <ele>1867.60</ele>
        <time>2018-07-13T19:20:43Z</time>
      </trkpt>
      <trkpt lat="27.958682" lon="-15.556623">
        <ele>1867.60</ele>
        <time>2018-07-13T19:20:44Z</time>
      </trkpt>
      <trkpt lat="27.958709" lon="-15.556615">
        <ele>1867.60</ele>
        <time>2018-07-13T19:20:45Z</time>
      </trkpt>
      <trkpt lat="27.958732" lon="-15.556607">
        <ele>1867.40</ele>
        <time>2018-07-13T19:20:46Z</time>
      </trkpt>
      <trkpt lat="27.958756" lon="-15.556600">
        <ele>1867.40</ele>
        <time>2018-07-13T19:20:47Z</time>
      </trkpt>
      <trkpt lat="27.958782" lon="-15.556599">
        <ele>1867.40</ele>
        <time>2018-07-13T19:20:48Z</time>
      </trkpt>
      <trkpt lat="27.958806" lon="-15.556599">
        <ele>1867.40</ele>
        <time>2018-07-13T19:20:49Z</time>
      </trkpt>
      <trkpt lat="27.958831" lon="-15.556597">
        <ele>1867.40</ele>
        <time>2018-07-13T19:20:50Z</time>
      </trkpt>
      <trkpt lat="27.958858" lon="-15.556593">
        <ele>1866.80</ele>
        <time>2018-07-13T19:20:51Z</time>
      </trkpt>
      <trkpt lat="27.958882" lon="-15.556588">
        <ele>1866.40</ele>
        <time>2018-07-13T19:20:52Z</time>
      </trkpt>
      <trkpt lat="27.958910" lon="-15.556581">
        <ele>1865.60</ele>
        <time>2018-07-13T19:20:53Z</time>
      </trkpt>
      <trkpt lat="27.958931" lon="-15.556578">
        <ele>1865.60</ele>
        <time>2018-07-13T19:20:54Z</time>
      </trkpt>
      <trkpt lat="27.958959" lon="-15.556570">
        <ele>1865.40</ele>
        <time>2018-07-13T19:20:55Z</time>
      </trkpt>
      <trkpt lat="27.958985" lon="-15.556556">
        <ele>1865.40</ele>
        <time>2018-07-13T19:20:56Z</time>
      </trkpt>
      <trkpt lat="27.959012" lon="-15.556542">
        <ele>1865.40</ele>
        <time>2018-07-13T19:20:57Z</time>
      </trkpt>
      <trkpt lat="27.959035" lon="-15.556527">
        <ele>1865.20</ele>
        <time>2018-07-13T19:20:58Z</time>
      </trkpt>
      <trkpt lat="27.959063" lon="-15.556517">
        <ele>1865.20</ele>
        <time>2018-07-13T19:20:59Z</time>
      </trkpt>
      <trkpt lat="27.959086" lon="-15.556509">
        <ele>1863.60</ele>
        <time>2018-07-13T19:21:00Z</time>
      </trkpt>
      <trkpt lat="27.959115" lon="-15.556496">
        <ele>1863.60</ele>
        <time>2018-07-13T19:21:01Z</time>
      </trkpt>
      <trkpt lat="27.959139" lon="-15.556476">
        <ele>1863.60</ele>
        <time>2018-07-13T19:21:02Z</time>
      </trkpt>
      <trkpt lat="27.959158" lon="-15.556452">
        <ele>1862.40</ele>
        <time>2018-07-13T19:21:03Z</time>
      </trkpt>
      <trkpt lat="27.959145" lon="-15.556420">
        <ele>1862.00</ele>
        <time>2018-07-13T19:21:04Z</time>
      </trkpt>
      <trkpt lat="27.959118" lon="-15.556394">
        <ele>1862.00</ele>
        <time>2018-07-13T19:21:05Z</time>
      </trkpt>
      <trkpt lat="27.959092" lon="-15.556375">
        <ele>1861.80</ele>
        <time>2018-07-13T19:21:06Z</time>
      </trkpt>
      <trkpt lat="27.959062" lon="-15.556360">
        <ele>1861.60</ele>
        <time>2018-07-13T19:21:07Z</time>
      </trkpt>
      <trkpt lat="27.959032" lon="-15.556343">
        <ele>1861.40</ele>
        <time>2018-07-13T19:21:08Z</time>
      </trkpt>
      <trkpt lat="27.959000" lon="-15.556324">
        <ele>1859.80</ele>
        <time>2018-07-13T19:21:09Z</time>
      </trkpt>
      <trkpt lat="27.958972" lon="-15.556306">
        <ele>1859.80</ele>
        <time>2018-07-13T19:21:10Z</time>
      </trkpt>
      <trkpt lat="27.958940" lon="-15.556291">
        <ele>1859.00</ele>
        <time>2018-07-13T19:21:11Z</time>
      </trkpt>
      <trkpt lat="27.958912" lon="-15.556274">
        <ele>1859.00</ele>
        <time>2018-07-13T19:21:12Z</time>
      </trkpt>
      <trkpt lat="27.958883" lon="-15.556263">
        <ele>1859.00</ele>
        <time>2018-07-13T19:21:13Z</time>
      </trkpt>
      <trkpt lat="27.958849" lon="-15.556257">
        <ele>1858.80</ele>
        <time>2018-07-13T19:21:14Z</time>
      </trkpt>
      <trkpt lat="27.958815" lon="-15.556253">
        <ele>1858.20</ele>
        <time>2018-07-13T19:21:15Z</time>
      </trkpt>
      <trkpt lat="27.958787" lon="-15.556249">
        <ele>1858.00</ele>
        <time>2018-07-13T19:21:16Z</time>
      </trkpt>
      <trkpt lat="27.958758" lon="-15.556245">
        <ele>1858.00</ele>
        <time>2018-07-13T19:21:17Z</time>
      </trkpt>
      <trkpt lat="27.958728" lon="-15.556243">
        <ele>1857.00</ele>
        <time>2018-07-13T19:21:18Z</time>
      </trkpt>
      <trkpt lat="27.958703" lon="-15.556244">
        <ele>1857.00</ele>
        <time>2018-07-13T19:21:19Z</time>
      </trkpt>
      <trkpt lat="27.958677" lon="-15.556246">
        <ele>1857.00</ele>
        <time>2018-07-13T19:21:20Z</time>
      </trkpt>
      <trkpt lat="27.958651" lon="-15.556248">
        <ele>1857.00</ele>
        <time>2018-07-13T19:21:21Z</time>
      </trkpt>
      <trkpt lat="27.958627" lon="-15.556253">
        <ele>1856.00</ele>
        <time>2018-07-13T19:21:22Z</time>
      </trkpt>
      <trkpt lat="27.958601" lon="-15.556258">
        <ele>1857.20</ele>
        <time>2018-07-13T19:21:23Z</time>
      </trkpt>
      <trkpt lat="27.958573" lon="-15.556267">
        <ele>1856.00</ele>
        <time>2018-07-13T19:21:24Z</time>
      </trkpt>
      <trkpt lat="27.958549" lon="-15.556279">
        <ele>1857.00</ele>
        <time>2018-07-13T19:21:25Z</time>
      </trkpt>
      <trkpt lat="27.958526" lon="-15.556289">
        <ele>1856.80</ele>
        <time>2018-07-13T19:21:26Z</time>
      </trkpt>
      <trkpt lat="27.958500" lon="-15.556298">
        <ele>1856.80</ele>
        <time>2018-07-13T19:21:27Z</time>
      </trkpt>
      <trkpt lat="27.958475" lon="-15.556307">
        <ele>1856.80</ele>
        <time>2018-07-13T19:21:28Z</time>
      </trkpt>
      <trkpt lat="27.958452" lon="-15.556316">
        <ele>1857.00</ele>
        <time>2018-07-13T19:21:29Z</time>
      </trkpt>
      <trkpt lat="27.958426" lon="-15.556323">
        <ele>1857.00</ele>
        <time>2018-07-13T19:21:30Z</time>
      </trkpt>
      <trkpt lat="27.958396" lon="-15.556329">
        <ele>1857.00</ele>
        <time>2018-07-13T19:21:31Z</time>
      </trkpt>
      <trkpt lat="27.958372" lon="-15.556334">
        <ele>1857.00</ele>
        <time>2018-07-13T19:21:32Z</time>
      </trkpt>
      <trkpt lat="27.958345" lon="-15.556335">
        <ele>1856.60</ele>
        <time>2018-07-13T19:21:33Z</time>
      </trkpt>
      <trkpt lat="27.958317" lon="-15.556336">
        <ele>1857.60</ele>
        <time>2018-07-13T19:21:34Z</time>
      </trkpt>
      <trkpt lat="27.958287" lon="-15.556334">
        <ele>1856.60</ele>
        <time>2018-07-13T19:21:35Z</time>
      </trkpt>
      <trkpt lat="27.958259" lon="-15.556331">
        <ele>1857.40</ele>
        <time>2018-07-13T19:21:36Z</time>
      </trkpt>
      <trkpt lat="27.958228" lon="-15.556327">
        <ele>1856.60</ele>
        <time>2018-07-13T19:21:37Z</time>
      </trkpt>
      <trkpt lat="27.958202" lon="-15.556323">
        <ele>1857.20</ele>
        <time>2018-07-13T19:21:38Z</time>
      </trkpt>
      <trkpt lat="27.958174" lon="-15.556322">
        <ele>1856.20</ele>
        <time>2018-07-13T19:21:39Z</time>
      </trkpt>
      <trkpt lat="27.958146" lon="-15.556323">
        <ele>1856.20</ele>
        <time>2018-07-13T19:21:40Z</time>
      </trkpt>
      <trkpt lat="27.958118" lon="-15.556323">
        <ele>1855.80</ele>
        <time>2018-07-13T19:21:41Z</time>
      </trkpt>
      <trkpt lat="27.958091" lon="-15.556323">
        <ele>1855.40</ele>
        <time>2018-07-13T19:21:42Z</time>
      </trkpt>
      <trkpt lat="27.958063" lon="-15.556319">
        <ele>1855.40</ele>
        <time>2018-07-13T19:21:43Z</time>
      </trkpt>
      <trkpt lat="27.958036" lon="-15.556319">
        <ele>1855.20</ele>
        <time>2018-07-13T19:21:44Z</time>
      </trkpt>
      <trkpt lat="27.958010" lon="-15.556320">
        <ele>1855.20</ele>
        <time>2018-07-13T19:21:45Z</time>
      </trkpt>
      <trkpt lat="27.957982" lon="-15.556324">
        <ele>1854.20</ele>
        <time>2018-07-13T19:21:46Z</time>
      </trkpt>
      <trkpt lat="27.957958" lon="-15.556325">
        <ele>1854.20</ele>
        <time>2018-07-13T19:21:47Z</time>
      </trkpt>
      <trkpt lat="27.957930" lon="-15.556324">
        <ele>1854.20</ele>
        <time>2018-07-13T19:21:48Z</time>
      </trkpt>
      <trkpt lat="27.957901" lon="-15.556322">
        <ele>1853.60</ele>
        <time>2018-07-13T19:21:49Z</time>
      </trkpt>
      <trkpt lat="27.957871" lon="-15.556316">
        <ele>1853.40</ele>
        <time>2018-07-13T19:21:50Z</time>
      </trkpt>
      <trkpt lat="27.957844" lon="-15.556308">
        <ele>1853.20</ele>
        <time>2018-07-13T19:21:51Z</time>
      </trkpt>
      <trkpt lat="27.957815" lon="-15.556300">
        <ele>1853.20</ele>
        <time>2018-07-13T19:21:52Z</time>
      </trkpt>
      <trkpt lat="27.957791" lon="-15.556290">
        <ele>1852.80</ele>
        <time>2018-07-13T19:21:53Z</time>
      </trkpt>
      <trkpt lat="27.957765" lon="-15.556281">
        <ele>1852.80</ele>
        <time>2018-07-13T19:21:54Z</time>
      </trkpt>
      <trkpt lat="27.957737" lon="-15.556271">
        <ele>1852.80</ele>
        <time>2018-07-13T19:21:55Z</time>
      </trkpt>
      <trkpt lat="27.957712" lon="-15.556261">
        <ele>1852.80</ele>
        <time>2018-07-13T19:21:56Z</time>
      </trkpt>
      <trkpt lat="27.957681" lon="-15.556254">
        <ele>1852.80</ele>
        <time>2018-07-13T19:21:57Z</time>
      </trkpt>
      <trkpt lat="27.957656" lon="-15.556250">
        <ele>1852.20</ele>
        <time>2018-07-13T19:21:58Z</time>
      </trkpt>
      <trkpt lat="27.957628" lon="-15.556245">
        <ele>1851.40</ele>
        <time>2018-07-13T19:21:59Z</time>
      </trkpt>
      <trkpt lat="27.957600" lon="-15.556241">
        <ele>1851.20</ele>
        <time>2018-07-13T19:22:00Z</time>
      </trkpt>
      <trkpt lat="27.957572" lon="-15.556236">
        <ele>1851.20</ele>
        <time>2018-07-13T19:22:01Z</time>
      </trkpt>
      <trkpt lat="27.957545" lon="-15.556231">
        <ele>1851.20</ele>
        <time>2018-07-13T19:22:02Z</time>
      </trkpt>
      <trkpt lat="27.957519" lon="-15.556228">
        <ele>1851.20</ele>
        <time>2018-07-13T19:22:03Z</time>
      </trkpt>
      <trkpt lat="27.957494" lon="-15.556227">
        <ele>1851.20</ele>
        <time>2018-07-13T19:22:04Z</time>
      </trkpt>
      <trkpt lat="27.957473" lon="-15.556228">
        <ele>1851.20</ele>
        <time>2018-07-13T19:22:05Z</time>
      </trkpt>
      <trkpt lat="27.957450" lon="-15.556222">
        <ele>1851.20</ele>
        <time>2018-07-13T19:22:06Z</time>
      </trkpt>
      <trkpt lat="27.957427" lon="-15.556215">
        <ele>1849.60</ele>
        <time>2018-07-13T19:22:07Z</time>
      </trkpt>
      <trkpt lat="27.957402" lon="-15.556210">
        <ele>1849.60</ele>
        <time>2018-07-13T19:22:08Z</time>
      </trkpt>
      <trkpt lat="27.957375" lon="-15.556201">
        <ele>1849.60</ele>
        <time>2018-07-13T19:22:09Z</time>
      </trkpt>
      <trkpt lat="27.957349" lon="-15.556189">
        <ele>1849.60</ele>
        <time>2018-07-13T19:22:10Z</time>
      </trkpt>
      <trkpt lat="27.957321" lon="-15.556176">
        <ele>1849.60</ele>
        <time>2018-07-13T19:22:11Z</time>
      </trkpt>
      <trkpt lat="27.957296" lon="-15.556162">
        <ele>1849.00</ele>
        <time>2018-07-13T19:22:12Z</time>
      </trkpt>
      <trkpt lat="27.957272" lon="-15.556145">
        <ele>1848.80</ele>
        <time>2018-07-13T19:22:13Z</time>
      </trkpt>
      <trkpt lat="27.957250" lon="-15.556128">
        <ele>1848.80</ele>
        <time>2018-07-13T19:22:14Z</time>
      </trkpt>
      <trkpt lat="27.957223" lon="-15.556108">
        <ele>1848.40</ele>
        <time>2018-07-13T19:22:15Z</time>
      </trkpt>
      <trkpt lat="27.957192" lon="-15.556095">
        <ele>1848.20</ele>
        <time>2018-07-13T19:22:16Z</time>
      </trkpt>
      <trkpt lat="27.957162" lon="-15.556085">
        <ele>1847.40</ele>
        <time>2018-07-13T19:22:17Z</time>
      </trkpt>
      <trkpt lat="27.957135" lon="-15.556075">
        <ele>1847.40</ele>
        <time>2018-07-13T19:22:18Z</time>
      </trkpt>
      <trkpt lat="27.957106" lon="-15.556070">
        <ele>1846.80</ele>
        <time>2018-07-13T19:22:19Z</time>
      </trkpt>
      <trkpt lat="27.957076" lon="-15.556069">
        <ele>1846.40</ele>
        <time>2018-07-13T19:22:20Z</time>
      </trkpt>
      <trkpt lat="27.957048" lon="-15.556072">
        <ele>1846.60</ele>
        <time>2018-07-13T19:22:21Z</time>
      </trkpt>
      <trkpt lat="27.957020" lon="-15.556077">
        <ele>1846.00</ele>
        <time>2018-07-13T19:22:22Z</time>
      </trkpt>
      <trkpt lat="27.956991" lon="-15.556084">
        <ele>1846.00</ele>
        <time>2018-07-13T19:22:23Z</time>
      </trkpt>
      <trkpt lat="27.956968" lon="-15.556089">
        <ele>1846.00</ele>
        <time>2018-07-13T19:22:24Z</time>
      </trkpt>
      <trkpt lat="27.956947" lon="-15.556093">
        <ele>1845.80</ele>
        <time>2018-07-13T19:22:25Z</time>
      </trkpt>
      <trkpt lat="27.956912" lon="-15.556087">
        <ele>1844.80</ele>
        <time>2018-07-13T19:22:27Z</time>
      </trkpt>
      <trkpt lat="27.956893" lon="-15.556058">
        <ele>1844.60</ele>
        <time>2018-07-13T19:22:29Z</time>
      </trkpt>
      <trkpt lat="27.956916" lon="-15.556035">
        <ele>1842.60</ele>
        <time>2018-07-13T19:22:31Z</time>
      </trkpt>
      <trkpt lat="27.956940" lon="-15.556030">
        <ele>1842.40</ele>
        <time>2018-07-13T19:22:32Z</time>
      </trkpt>
      <trkpt lat="27.956963" lon="-15.556026">
        <ele>1842.40</ele>
        <time>2018-07-13T19:22:33Z</time>
      </trkpt>
      <trkpt lat="27.956990" lon="-15.556020">
        <ele>1842.20</ele>
        <time>2018-07-13T19:22:34Z</time>
      </trkpt>
      <trkpt lat="27.957017" lon="-15.556015">
        <ele>1842.20</ele>
        <time>2018-07-13T19:22:35Z</time>
      </trkpt>
      <trkpt lat="27.957040" lon="-15.556014">
        <ele>1842.00</ele>
        <time>2018-07-13T19:22:36Z</time>
      </trkpt>
      <trkpt lat="27.957066" lon="-15.556011">
        <ele>1842.00</ele>
        <time>2018-07-13T19:22:37Z</time>
      </trkpt>
      <trkpt lat="27.957096" lon="-15.556005">
        <ele>1842.00</ele>
        <time>2018-07-13T19:22:38Z</time>
      </trkpt>
      <trkpt lat="27.957123" lon="-15.556003">
        <ele>1842.00</ele>
        <time>2018-07-13T19:22:39Z</time>
      </trkpt>
      <trkpt lat="27.957146" lon="-15.556006">
        <ele>1842.00</ele>
        <time>2018-07-13T19:22:40Z</time>
      </trkpt>
      <trkpt lat="27.957172" lon="-15.556008">
        <ele>1842.80</ele>
        <time>2018-07-13T19:22:41Z</time>
      </trkpt>
      <trkpt lat="27.957200" lon="-15.556008">
        <ele>1840.40</ele>
        <time>2018-07-13T19:22:42Z</time>
      </trkpt>
      <trkpt lat="27.957227" lon="-15.556009">
        <ele>1841.40</ele>
        <time>2018-07-13T19:22:43Z</time>
      </trkpt>
      <trkpt lat="27.957254" lon="-15.556011">
        <ele>1840.20</ele>
        <time>2018-07-13T19:22:44Z</time>
      </trkpt>
      <trkpt lat="27.957278" lon="-15.556013">
        <ele>1841.40</ele>
        <time>2018-07-13T19:22:45Z</time>
      </trkpt>
      <trkpt lat="27.957299" lon="-15.556019">
        <ele>1841.40</ele>
        <time>2018-07-13T19:22:46Z</time>
      </trkpt>
      <trkpt lat="27.957325" lon="-15.556023">
        <ele>1841.40</ele>
        <time>2018-07-13T19:22:47Z</time>
      </trkpt>
      <trkpt lat="27.957354" lon="-15.556024">
        <ele>1841.40</ele>
        <time>2018-07-13T19:22:48Z</time>
      </trkpt>
      <trkpt lat="27.957378" lon="-15.556027">
        <ele>1841.40</ele>
        <time>2018-07-13T19:22:49Z</time>
      </trkpt>
      <trkpt lat="27.957407" lon="-15.556027">
        <ele>1841.40</ele>
        <time>2018-07-13T19:22:50Z</time>
      </trkpt>
      <trkpt lat="27.957433" lon="-15.556020">
        <ele>1841.40</ele>
        <time>2018-07-13T19:22:51Z</time>
      </trkpt>
      <trkpt lat="27.957449" lon="-15.555999">
        <ele>1840.40</ele>
        <time>2018-07-13T19:22:52Z</time>
      </trkpt>
      <trkpt lat="27.957451" lon="-15.555968">
        <ele>1840.20</ele>
        <time>2018-07-13T19:22:53Z</time>
      </trkpt>
      <trkpt lat="27.957445" lon="-15.555932">
        <ele>1840.20</ele>
        <time>2018-07-13T19:22:54Z</time>
      </trkpt>
      <trkpt lat="27.957425" lon="-15.555904">
        <ele>1839.20</ele>
        <time>2018-07-13T19:22:55Z</time>
      </trkpt>
      <trkpt lat="27.957405" lon="-15.555886">
        <ele>1839.20</ele>
        <time>2018-07-13T19:22:56Z</time>
      </trkpt>
      <trkpt lat="27.957378" lon="-15.555869">
        <ele>1839.00</ele>
        <time>2018-07-13T19:22:57Z</time>
      </trkpt>
      <trkpt lat="27.957347" lon="-15.555854">
        <ele>1839.20</ele>
        <time>2018-07-13T19:22:58Z</time>
      </trkpt>
      <trkpt lat="27.957319" lon="-15.555838">
        <ele>1839.00</ele>
        <time>2018-07-13T19:22:59Z</time>
      </trkpt>
      <trkpt lat="27.957293" lon="-15.555823">
        <ele>1837.40</ele>
        <time>2018-07-13T19:23:00Z</time>
      </trkpt>
      <trkpt lat="27.957264" lon="-15.555810">
        <ele>1837.40</ele>
        <time>2018-07-13T19:23:01Z</time>
      </trkpt>
      <trkpt lat="27.957238" lon="-15.555794">
        <ele>1837.20</ele>
        <time>2018-07-13T19:23:02Z</time>
      </trkpt>
      <trkpt lat="27.957211" lon="-15.555781">
        <ele>1837.00</ele>
        <time>2018-07-13T19:23:03Z</time>
      </trkpt>
      <trkpt lat="27.957186" lon="-15.555769">
        <ele>1836.80</ele>
        <time>2018-07-13T19:23:04Z</time>
      </trkpt>
      <trkpt lat="27.957159" lon="-15.555757">
        <ele>1836.80</ele>
        <time>2018-07-13T19:23:05Z</time>
      </trkpt>
      <trkpt lat="27.957136" lon="-15.555742">
        <ele>1836.60</ele>
        <time>2018-07-13T19:23:06Z</time>
      </trkpt>
      <trkpt lat="27.957111" lon="-15.555730">
        <ele>1836.60</ele>
        <time>2018-07-13T19:23:07Z</time>
      </trkpt>
      <trkpt lat="27.957084" lon="-15.555721">
        <ele>1836.20</ele>
        <time>2018-07-13T19:23:08Z</time>
      </trkpt>
      <trkpt lat="27.957059" lon="-15.555713">
        <ele>1836.80</ele>
        <time>2018-07-13T19:23:09Z</time>
      </trkpt>
      <trkpt lat="27.957034" lon="-15.555708">
        <ele>1835.40</ele>
        <time>2018-07-13T19:23:10Z</time>
      </trkpt>
      <trkpt lat="27.957007" lon="-15.555705">
        <ele>1835.40</ele>
        <time>2018-07-13T19:23:11Z</time>
      </trkpt>
      <trkpt lat="27.956982" lon="-15.555705">
        <ele>1835.20</ele>
        <time>2018-07-13T19:23:12Z</time>
      </trkpt>
      <trkpt lat="27.956956" lon="-15.555705">
        <ele>1834.80</ele>
        <time>2018-07-13T19:23:13Z</time>
      </trkpt>
      <trkpt lat="27.956930" lon="-15.555708">
        <ele>1834.80</ele>
        <time>2018-07-13T19:23:14Z</time>
      </trkpt>
      <trkpt lat="27.956902" lon="-15.555719">
        <ele>1834.60</ele>
        <time>2018-07-13T19:23:15Z</time>
      </trkpt>
      <trkpt lat="27.956876" lon="-15.555728">
        <ele>1834.60</ele>
        <time>2018-07-13T19:23:16Z</time>
      </trkpt>
      <trkpt lat="27.956847" lon="-15.555732">
        <ele>1834.40</ele>
        <time>2018-07-13T19:23:17Z</time>
      </trkpt>
      <trkpt lat="27.956816" lon="-15.555731">
        <ele>1834.40</ele>
        <time>2018-07-13T19:23:18Z</time>
      </trkpt>
      <trkpt lat="27.956786" lon="-15.555730">
        <ele>1834.40</ele>
        <time>2018-07-13T19:23:19Z</time>
      </trkpt>
      <trkpt lat="27.956756" lon="-15.555732">
        <ele>1834.00</ele>
        <time>2018-07-13T19:23:20Z</time>
      </trkpt>
      <trkpt lat="27.956729" lon="-15.555731">
        <ele>1834.00</ele>
        <time>2018-07-13T19:23:21Z</time>
      </trkpt>
      <trkpt lat="27.956702" lon="-15.555729">
        <ele>1834.00</ele>
        <time>2018-07-13T19:23:22Z</time>
      </trkpt>
      <trkpt lat="27.956678" lon="-15.555725">
        <ele>1834.00</ele>
        <time>2018-07-13T19:23:23Z</time>
      </trkpt>
      <trkpt lat="27.956654" lon="-15.555717">
        <ele>1834.00</ele>
        <time>2018-07-13T19:23:24Z</time>
      </trkpt>
      <trkpt lat="27.956628" lon="-15.555711">
        <ele>1834.00</ele>
        <time>2018-07-13T19:23:25Z</time>
      </trkpt>
      <trkpt lat="27.956599" lon="-15.555708">
        <ele>1834.00</ele>
        <time>2018-07-13T19:23:26Z</time>
      </trkpt>
      <trkpt lat="27.956570" lon="-15.555709">
        <ele>1833.40</ele>
        <time>2018-07-13T19:23:27Z</time>
      </trkpt>
      <trkpt lat="27.956542" lon="-15.555712">
        <ele>1833.40</ele>
        <time>2018-07-13T19:23:28Z</time>
      </trkpt>
      <trkpt lat="27.956518" lon="-15.555720">
        <ele>1833.40</ele>
        <time>2018-07-13T19:23:29Z</time>
      </trkpt>
      <trkpt lat="27.956493" lon="-15.555725">
        <ele>1833.40</ele>
        <time>2018-07-13T19:23:30Z</time>
      </trkpt>
      <trkpt lat="27.956469" lon="-15.555726">
        <ele>1833.40</ele>
        <time>2018-07-13T19:23:31Z</time>
      </trkpt>
      <trkpt lat="27.956443" lon="-15.555725">
        <ele>1833.40</ele>
        <time>2018-07-13T19:23:32Z</time>
      </trkpt>
      <trkpt lat="27.956418" lon="-15.555723">
        <ele>1833.40</ele>
        <time>2018-07-13T19:23:33Z</time>
      </trkpt>
      <trkpt lat="27.956394" lon="-15.555719">
        <ele>1832.80</ele>
        <time>2018-07-13T19:23:34Z</time>
      </trkpt>
      <trkpt lat="27.956368" lon="-15.555711">
        <ele>1832.60</ele>
        <time>2018-07-13T19:23:35Z</time>
      </trkpt>
      <trkpt lat="27.956345" lon="-15.555697">
        <ele>1832.00</ele>
        <time>2018-07-13T19:23:36Z</time>
      </trkpt>
      <trkpt lat="27.956328" lon="-15.555675">
        <ele>1832.00</ele>
        <time>2018-07-13T19:23:37Z</time>
      </trkpt>
      <trkpt lat="27.956312" lon="-15.555650">
        <ele>1832.00</ele>
        <time>2018-07-13T19:23:38Z</time>
      </trkpt>
      <trkpt lat="27.956301" lon="-15.555622">
        <ele>1831.80</ele>
        <time>2018-07-13T19:23:39Z</time>
      </trkpt>
      <trkpt lat="27.956294" lon="-15.555593">
        <ele>1830.80</ele>
        <time>2018-07-13T19:23:40Z</time>
      </trkpt>
      <trkpt lat="27.956290" lon="-15.555567">
        <ele>1830.80</ele>
        <time>2018-07-13T19:23:41Z</time>
      </trkpt>
      <trkpt lat="27.956284" lon="-15.555540">
        <ele>1830.40</ele>
        <time>2018-07-13T19:23:42Z</time>
      </trkpt>
      <trkpt lat="27.956285" lon="-15.555515">
        <ele>1830.40</ele>
        <time>2018-07-13T19:23:43Z</time>
      </trkpt>
      <trkpt lat="27.956294" lon="-15.555493">
        <ele>1829.40</ele>
        <time>2018-07-13T19:23:44Z</time>
      </trkpt>
      <trkpt lat="27.956306" lon="-15.555470">
        <ele>1829.40</ele>
        <time>2018-07-13T19:23:45Z</time>
      </trkpt>
      <trkpt lat="27.956325" lon="-15.555443">
        <ele>1829.40</ele>
        <time>2018-07-13T19:23:46Z</time>
      </trkpt>
      <trkpt lat="27.956342" lon="-15.555428">
        <ele>1829.40</ele>
        <time>2018-07-13T19:23:47Z</time>
      </trkpt>
      <trkpt lat="27.956363" lon="-15.555412">
        <ele>1829.40</ele>
        <time>2018-07-13T19:23:48Z</time>
      </trkpt>
      <trkpt lat="27.956385" lon="-15.555398">
        <ele>1829.40</ele>
        <time>2018-07-13T19:23:49Z</time>
      </trkpt>
      <trkpt lat="27.956409" lon="-15.555388">
        <ele>1829.40</ele>
        <time>2018-07-13T19:23:50Z</time>
      </trkpt>
      <trkpt lat="27.956434" lon="-15.555378">
        <ele>1829.40</ele>
        <time>2018-07-13T19:23:51Z</time>
      </trkpt>
      <trkpt lat="27.956460" lon="-15.555371">
        <ele>1828.40</ele>
        <time>2018-07-13T19:23:52Z</time>
      </trkpt>
      <trkpt lat="27.956485" lon="-15.555365">
        <ele>1827.80</ele>
        <time>2018-07-13T19:23:53Z</time>
      </trkpt>
      <trkpt lat="27.956510" lon="-15.555356">
        <ele>1827.60</ele>
        <time>2018-07-13T19:23:54Z</time>
      </trkpt>
      <trkpt lat="27.956536" lon="-15.555351">
        <ele>1827.60</ele>
        <time>2018-07-13T19:23:55Z</time>
      </trkpt>
      <trkpt lat="27.956563" lon="-15.555348">
        <ele>1827.60</ele>
        <time>2018-07-13T19:23:56Z</time>
      </trkpt>
      <trkpt lat="27.956593" lon="-15.555340">
        <ele>1827.60</ele>
        <time>2018-07-13T19:23:57Z</time>
      </trkpt>
      <trkpt lat="27.956619" lon="-15.555339">
        <ele>1827.60</ele>
        <time>2018-07-13T19:23:58Z</time>
      </trkpt>
      <trkpt lat="27.956645" lon="-15.555340">
        <ele>1827.40</ele>
        <time>2018-07-13T19:23:59Z</time>
      </trkpt>
      <trkpt lat="27.956669" lon="-15.555341">
        <ele>1827.40</ele>
        <time>2018-07-13T19:24:00Z</time>
      </trkpt>
      <trkpt lat="27.956696" lon="-15.555341">
        <ele>1826.40</ele>
        <time>2018-07-13T19:24:01Z</time>
      </trkpt>
      <trkpt lat="27.956722" lon="-15.555345">
        <ele>1826.40</ele>
        <time>2018-07-13T19:24:02Z</time>
      </trkpt>
      <trkpt lat="27.956746" lon="-15.555350">
        <ele>1826.40</ele>
        <time>2018-07-13T19:24:03Z</time>
      </trkpt>
      <trkpt lat="27.956772" lon="-15.555355">
        <ele>1826.40</ele>
        <time>2018-07-13T19:24:04Z</time>
      </trkpt>
      <trkpt lat="27.956801" lon="-15.555360">
        <ele>1826.40</ele>
        <time>2018-07-13T19:24:05Z</time>
      </trkpt>
      <trkpt lat="27.956826" lon="-15.555364">
        <ele>1826.40</ele>
        <time>2018-07-13T19:24:06Z</time>
      </trkpt>
      <trkpt lat="27.956852" lon="-15.555368">
        <ele>1826.40</ele>
        <time>2018-07-13T19:24:07Z</time>
      </trkpt>
      <trkpt lat="27.956874" lon="-15.555378">
        <ele>1826.60</ele>
        <time>2018-07-13T19:24:08Z</time>
      </trkpt>
      <trkpt lat="27.956901" lon="-15.555385">
        <ele>1825.80</ele>
        <time>2018-07-13T19:24:09Z</time>
      </trkpt>
      <trkpt lat="27.956921" lon="-15.555397">
        <ele>1826.40</ele>
        <time>2018-07-13T19:24:10Z</time>
      </trkpt>
      <trkpt lat="27.956947" lon="-15.555402">
        <ele>1825.00</ele>
        <time>2018-07-13T19:24:11Z</time>
      </trkpt>
      <trkpt lat="27.956978" lon="-15.555403">
        <ele>1825.00</ele>
        <time>2018-07-13T19:24:12Z</time>
      </trkpt>
      <trkpt lat="27.957004" lon="-15.555403">
        <ele>1824.20</ele>
        <time>2018-07-13T19:24:13Z</time>
      </trkpt>
      <trkpt lat="27.957033" lon="-15.555396">
        <ele>1824.20</ele>
        <time>2018-07-13T19:24:14Z</time>
      </trkpt>
      <trkpt lat="27.957056" lon="-15.555376">
        <ele>1824.00</ele>
        <time>2018-07-13T19:24:15Z</time>
      </trkpt>
      <trkpt lat="27.957067" lon="-15.555349">
        <ele>1824.00</ele>
        <time>2018-07-13T19:24:16Z</time>
      </trkpt>
      <trkpt lat="27.957063" lon="-15.555320">
        <ele>1822.80</ele>
        <time>2018-07-13T19:24:17Z</time>
      </trkpt>
      <trkpt lat="27.957064" lon="-15.555286">
        <ele>1823.00</ele>
        <time>2018-07-13T19:24:18Z</time>
      </trkpt>
      <trkpt lat="27.957065" lon="-15.555252">
        <ele>1822.80</ele>
        <time>2018-07-13T19:24:19Z</time>
      </trkpt>
      <trkpt lat="27.957064" lon="-15.555212">
        <ele>1822.80</ele>
        <time>2018-07-13T19:24:20Z</time>
      </trkpt>
      <trkpt lat="27.957056" lon="-15.555176">
        <ele>1821.60</ele>
        <time>2018-07-13T19:24:21Z</time>
      </trkpt>
      <trkpt lat="27.957043" lon="-15.555144">
        <ele>1821.40</ele>
        <time>2018-07-13T19:24:22Z</time>
      </trkpt>
      <trkpt lat="27.957033" lon="-15.555109">
        <ele>1820.80</ele>
        <time>2018-07-13T19:24:23Z</time>
      </trkpt>
      <trkpt lat="27.957016" lon="-15.555078">
        <ele>1820.80</ele>
        <time>2018-07-13T19:24:24Z</time>
      </trkpt>
      <trkpt lat="27.957002" lon="-15.555047">
        <ele>1820.60</ele>
        <time>2018-07-13T19:24:25Z</time>
      </trkpt>
      <trkpt lat="27.956985" lon="-15.555018">
        <ele>1820.60</ele>
        <time>2018-07-13T19:24:26Z</time>
      </trkpt>
      <trkpt lat="27.956969" lon="-15.554984">
        <ele>1820.60</ele>
        <time>2018-07-13T19:24:27Z</time>
      </trkpt>
      <trkpt lat="27.956951" lon="-15.554951">
        <ele>1819.20</ele>
        <time>2018-07-13T19:24:28Z</time>
      </trkpt>
      <trkpt lat="27.956931" lon="-15.554922">
        <ele>1819.20</ele>
        <time>2018-07-13T19:24:29Z</time>
      </trkpt>
      <trkpt lat="27.956915" lon="-15.554889">
        <ele>1818.60</ele>
        <time>2018-07-13T19:24:30Z</time>
      </trkpt>
      <trkpt lat="27.956892" lon="-15.554864">
        <ele>1818.40</ele>
        <time>2018-07-13T19:24:31Z</time>
      </trkpt>
      <trkpt lat="27.956868" lon="-15.554838">
        <ele>1818.40</ele>
        <time>2018-07-13T19:24:32Z</time>
      </trkpt>
      <trkpt lat="27.956846" lon="-15.554811">
        <ele>1818.40</ele>
        <time>2018-07-13T19:24:33Z</time>
      </trkpt>
      <trkpt lat="27.956820" lon="-15.554785">
        <ele>1818.20</ele>
        <time>2018-07-13T19:24:34Z</time>
      </trkpt>
      <trkpt lat="27.956794" lon="-15.554760">
        <ele>1817.80</ele>
        <time>2018-07-13T19:24:35Z</time>
      </trkpt>
      <trkpt lat="27.956767" lon="-15.554743">
        <ele>1816.60</ele>
        <time>2018-07-13T19:24:36Z</time>
      </trkpt>
      <trkpt lat="27.956740" lon="-15.554727">
        <ele>1816.40</ele>
        <time>2018-07-13T19:24:37Z</time>
      </trkpt>
      <trkpt lat="27.956711" lon="-15.554711">
        <ele>1816.40</ele>
        <time>2018-07-13T19:24:38Z</time>
      </trkpt>
      <trkpt lat="27.956685" lon="-15.554696">
        <ele>1816.20</ele>
        <time>2018-07-13T19:24:39Z</time>
      </trkpt>
      <trkpt lat="27.956656" lon="-15.554688">
        <ele>1816.20</ele>
        <time>2018-07-13T19:24:40Z</time>
      </trkpt>
      <trkpt lat="27.956624" lon="-15.554681">
        <ele>1815.60</ele>
        <time>2018-07-13T19:24:41Z</time>
      </trkpt>
      <trkpt lat="27.956594" lon="-15.554671">
        <ele>1815.60</ele>
        <time>2018-07-13T19:24:42Z</time>
      </trkpt>
      <trkpt lat="27.956561" lon="-15.554668">
        <ele>1815.60</ele>
        <time>2018-07-13T19:24:43Z</time>
      </trkpt>
      <trkpt lat="27.956531" lon="-15.554663">
        <ele>1815.60</ele>
        <time>2018-07-13T19:24:44Z</time>
      </trkpt>
      <trkpt lat="27.956503" lon="-15.554656">
        <ele>1814.20</ele>
        <time>2018-07-13T19:24:45Z</time>
      </trkpt>
      <trkpt lat="27.956473" lon="-15.554654">
        <ele>1813.80</ele>
        <time>2018-07-13T19:24:46Z</time>
      </trkpt>
      <trkpt lat="27.956440" lon="-15.554654">
        <ele>1813.80</ele>
        <time>2018-07-13T19:24:47Z</time>
      </trkpt>
      <trkpt lat="27.956411" lon="-15.554653">
        <ele>1813.20</ele>
        <time>2018-07-13T19:24:48Z</time>
      </trkpt>
      <trkpt lat="27.956385" lon="-15.554653">
        <ele>1813.20</ele>
        <time>2018-07-13T19:24:49Z</time>
      </trkpt>
      <trkpt lat="27.956353" lon="-15.554657">
        <ele>1813.20</ele>
        <time>2018-07-13T19:24:50Z</time>
      </trkpt>
      <trkpt lat="27.956322" lon="-15.554666">
        <ele>1812.60</ele>
        <time>2018-07-13T19:24:51Z</time>
      </trkpt>
      <trkpt lat="27.956290" lon="-15.554674">
        <ele>1812.60</ele>
        <time>2018-07-13T19:24:52Z</time>
      </trkpt>
      <trkpt lat="27.956265" lon="-15.554683">
        <ele>1812.00</ele>
        <time>2018-07-13T19:24:53Z</time>
      </trkpt>
      <trkpt lat="27.956237" lon="-15.554690">
        <ele>1811.40</ele>
        <time>2018-07-13T19:24:54Z</time>
      </trkpt>
      <trkpt lat="27.956211" lon="-15.554697">
        <ele>1811.40</ele>
        <time>2018-07-13T19:24:55Z</time>
      </trkpt>
      <trkpt lat="27.956188" lon="-15.554699">
        <ele>1811.40</ele>
        <time>2018-07-13T19:24:56Z</time>
      </trkpt>
      <trkpt lat="27.956162" lon="-15.554701">
        <ele>1811.40</ele>
        <time>2018-07-13T19:24:57Z</time>
      </trkpt>
      <trkpt lat="27.956134" lon="-15.554703">
        <ele>1810.60</ele>
        <time>2018-07-13T19:24:58Z</time>
      </trkpt>
      <trkpt lat="27.956105" lon="-15.554708">
        <ele>1810.40</ele>
        <time>2018-07-13T19:24:59Z</time>
      </trkpt>
      <trkpt lat="27.956077" lon="-15.554713">
        <ele>1810.20</ele>
        <time>2018-07-13T19:25:00Z</time>
      </trkpt>
      <trkpt lat="27.956046" lon="-15.554718">
        <ele>1809.60</ele>
        <time>2018-07-13T19:25:01Z</time>
      </trkpt>
      <trkpt lat="27.956016" lon="-15.554725">
        <ele>1808.80</ele>
        <time>2018-07-13T19:25:02Z</time>
      </trkpt>
      <trkpt lat="27.955984" lon="-15.554729">
        <ele>1808.80</ele>
        <time>2018-07-13T19:25:03Z</time>
      </trkpt>
      <trkpt lat="27.955951" lon="-15.554732">
        <ele>1808.80</ele>
        <time>2018-07-13T19:25:04Z</time>
      </trkpt>
      <trkpt lat="27.955920" lon="-15.554732">
        <ele>1808.80</ele>
        <time>2018-07-13T19:25:05Z</time>
      </trkpt>
      <trkpt lat="27.955889" lon="-15.554733">
        <ele>1808.80</ele>
        <time>2018-07-13T19:25:06Z</time>
      </trkpt>
      <trkpt lat="27.955859" lon="-15.554734">
        <ele>1808.40</ele>
        <time>2018-07-13T19:25:07Z</time>
      </trkpt>
      <trkpt lat="27.955827" lon="-15.554732">
        <ele>1808.40</ele>
        <time>2018-07-13T19:25:08Z</time>
      </trkpt>
      <trkpt lat="27.955799" lon="-15.554733">
        <ele>1807.60</ele>
        <time>2018-07-13T19:25:09Z</time>
      </trkpt>
      <trkpt lat="27.955767" lon="-15.554732">
        <ele>1806.20</ele>
        <time>2018-07-13T19:25:10Z</time>
      </trkpt>
      <trkpt lat="27.955735" lon="-15.554728">
        <ele>1806.60</ele>
        <time>2018-07-13T19:25:11Z</time>
      </trkpt>
      <trkpt lat="27.955704" lon="-15.554722">
        <ele>1806.20</ele>
        <time>2018-07-13T19:25:12Z</time>
      </trkpt>
      <trkpt lat="27.955677" lon="-15.554719">
        <ele>1806.20</ele>
        <time>2018-07-13T19:25:13Z</time>
      </trkpt>
      <trkpt lat="27.955648" lon="-15.554717">
        <ele>1806.20</ele>
        <time>2018-07-13T19:25:14Z</time>
      </trkpt>
      <trkpt lat="27.955618" lon="-15.554717">
        <ele>1806.20</ele>
        <time>2018-07-13T19:25:15Z</time>
      </trkpt>
      <trkpt lat="27.955590" lon="-15.554716">
        <ele>1805.60</ele>
        <time>2018-07-13T19:25:16Z</time>
      </trkpt>
      <trkpt lat="27.955559" lon="-15.554714">
        <ele>1805.60</ele>
        <time>2018-07-13T19:25:17Z</time>
      </trkpt>
      <trkpt lat="27.955533" lon="-15.554708">
        <ele>1804.20</ele>
        <time>2018-07-13T19:25:18Z</time>
      </trkpt>
      <trkpt lat="27.955504" lon="-15.554703">
        <ele>1803.80</ele>
        <time>2018-07-13T19:25:19Z</time>
      </trkpt>
      <trkpt lat="27.955477" lon="-15.554697">
        <ele>1803.40</ele>
        <time>2018-07-13T19:25:20Z</time>
      </trkpt>
      <trkpt lat="27.955449" lon="-15.554691">
        <ele>1803.40</ele>
        <time>2018-07-13T19:25:21Z</time>
      </trkpt>
      <trkpt lat="27.955423" lon="-15.554680">
        <ele>1803.40</ele>
        <time>2018-07-13T19:25:22Z</time>
      </trkpt>
      <trkpt lat="27.955394" lon="-15.554672">
        <ele>1803.40</ele>
        <time>2018-07-13T19:25:23Z</time>
      </trkpt>
      <trkpt lat="27.955365" lon="-15.554662">
        <ele>1803.40</ele>
        <time>2018-07-13T19:25:24Z</time>
      </trkpt>
      <trkpt lat="27.955340" lon="-15.554654">
        <ele>1801.80</ele>
        <time>2018-07-13T19:25:25Z</time>
      </trkpt>
      <trkpt lat="27.955312" lon="-15.554653">
        <ele>1801.80</ele>
        <time>2018-07-13T19:25:26Z</time>
      </trkpt>
      <trkpt lat="27.955284" lon="-15.554656">
        <ele>1801.00</ele>
        <time>2018-07-13T19:25:27Z</time>
      </trkpt>
      <trkpt lat="27.955255" lon="-15.554662">
        <ele>1800.80</ele>
        <time>2018-07-13T19:25:28Z</time>
      </trkpt>
      <trkpt lat="27.955228" lon="-15.554661">
        <ele>1800.40</ele>
        <time>2018-07-13T19:25:29Z</time>
      </trkpt>
      <trkpt lat="27.955198" lon="-15.554661">
        <ele>1799.80</ele>
        <time>2018-07-13T19:25:30Z</time>
      </trkpt>
      <trkpt lat="27.955173" lon="-15.554657">
        <ele>1799.60</ele>
        <time>2018-07-13T19:25:31Z</time>
      </trkpt>
      <trkpt lat="27.955148" lon="-15.554650">
        <ele>1799.60</ele>
        <time>2018-07-13T19:25:32Z</time>
      </trkpt>
      <trkpt lat="27.955123" lon="-15.554644">
        <ele>1799.60</ele>
        <time>2018-07-13T19:25:33Z</time>
      </trkpt>
      <trkpt lat="27.955096" lon="-15.554637">
        <ele>1799.60</ele>
        <time>2018-07-13T19:25:34Z</time>
      </trkpt>
      <trkpt lat="27.955068" lon="-15.554633">
        <ele>1799.20</ele>
        <time>2018-07-13T19:25:35Z</time>
      </trkpt>
      <trkpt lat="27.955040" lon="-15.554629">
        <ele>1799.20</ele>
        <time>2018-07-13T19:25:36Z</time>
      </trkpt>
      <trkpt lat="27.955012" lon="-15.554621">
        <ele>1799.20</ele>
        <time>2018-07-13T19:25:37Z</time>
      </trkpt>
      <trkpt lat="27.954986" lon="-15.554609">
        <ele>1799.40</ele>
        <time>2018-07-13T19:25:38Z</time>
      </trkpt>
      <trkpt lat="27.954961" lon="-15.554592">
        <ele>1798.00</ele>
        <time>2018-07-13T19:25:39Z</time>
      </trkpt>
      <trkpt lat="27.954937" lon="-15.554574">
        <ele>1798.00</ele>
        <time>2018-07-13T19:25:40Z</time>
      </trkpt>
      <trkpt lat="27.954910" lon="-15.554555">
        <ele>1798.00</ele>
        <time>2018-07-13T19:25:41Z</time>
      </trkpt>
      <trkpt lat="27.954886" lon="-15.554542">
        <ele>1798.00</ele>
        <time>2018-07-13T19:25:42Z</time>
      </trkpt>
      <trkpt lat="27.954868" lon="-15.554526">
        <ele>1797.60</ele>
        <time>2018-07-13T19:25:43Z</time>
      </trkpt>
      <trkpt lat="27.954850" lon="-15.554508">
        <ele>1797.60</ele>
        <time>2018-07-13T19:25:44Z</time>
      </trkpt>
      <trkpt lat="27.954835" lon="-15.554490">
        <ele>1797.60</ele>
        <time>2018-07-13T19:25:45Z</time>
      </trkpt>
      <trkpt lat="27.954818" lon="-15.554467">
        <ele>1797.60</ele>
        <time>2018-07-13T19:25:46Z</time>
      </trkpt>
      <trkpt lat="27.954802" lon="-15.554449">
        <ele>1797.60</ele>
        <time>2018-07-13T19:25:47Z</time>
      </trkpt>
      <trkpt lat="27.954787" lon="-15.554430">
        <ele>1797.40</ele>
        <time>2018-07-13T19:25:48Z</time>
      </trkpt>
      <trkpt lat="27.954774" lon="-15.554413">
        <ele>1797.60</ele>
        <time>2018-07-13T19:25:49Z</time>
      </trkpt>
      <trkpt lat="27.954763" lon="-15.554392">
        <ele>1795.60</ele>
        <time>2018-07-13T19:25:50Z</time>
      </trkpt>
      <trkpt lat="27.954757" lon="-15.554371">
        <ele>1796.20</ele>
        <time>2018-07-13T19:25:51Z</time>
      </trkpt>
      <trkpt lat="27.954750" lon="-15.554349">
        <ele>1795.80</ele>
        <time>2018-07-13T19:25:52Z</time>
      </trkpt>
      <trkpt lat="27.954744" lon="-15.554330">
        <ele>1795.80</ele>
        <time>2018-07-13T19:25:53Z</time>
      </trkpt>
      <trkpt lat="27.954729" lon="-15.554289">
        <ele>1795.80</ele>
        <time>2018-07-13T19:25:55Z</time>
      </trkpt>
      <trkpt lat="27.954720" lon="-15.554265">
        <ele>1795.80</ele>
        <time>2018-07-13T19:25:56Z</time>
      </trkpt>
      <trkpt lat="27.954708" lon="-15.554243">
        <ele>1795.80</ele>
        <time>2018-07-13T19:25:57Z</time>
      </trkpt>
      <trkpt lat="27.954696" lon="-15.554221">
        <ele>1795.80</ele>
        <time>2018-07-13T19:25:58Z</time>
      </trkpt>
      <trkpt lat="27.954682" lon="-15.554199">
        <ele>1795.80</ele>
        <time>2018-07-13T19:25:59Z</time>
      </trkpt>
      <trkpt lat="27.954669" lon="-15.554177">
        <ele>1796.00</ele>
        <time>2018-07-13T19:26:00Z</time>
      </trkpt>
      <trkpt lat="27.954651" lon="-15.554155">
        <ele>1796.00</ele>
        <time>2018-07-13T19:26:01Z</time>
      </trkpt>
      <trkpt lat="27.954637" lon="-15.554135">
        <ele>1796.00</ele>
        <time>2018-07-13T19:26:02Z</time>
      </trkpt>
      <trkpt lat="27.954622" lon="-15.554114">
        <ele>1796.00</ele>
        <time>2018-07-13T19:26:03Z</time>
      </trkpt>
      <trkpt lat="27.954605" lon="-15.554091">
        <ele>1796.00</ele>
        <time>2018-07-13T19:26:04Z</time>
      </trkpt>
      <trkpt lat="27.954587" lon="-15.554072">
        <ele>1796.00</ele>
        <time>2018-07-13T19:26:05Z</time>
      </trkpt>
      <trkpt lat="27.954569" lon="-15.554051">
        <ele>1796.00</ele>
        <time>2018-07-13T19:26:06Z</time>
      </trkpt>
      <trkpt lat="27.954552" lon="-15.554030">
        <ele>1796.00</ele>
        <time>2018-07-13T19:26:07Z</time>
      </trkpt>
      <trkpt lat="27.954534" lon="-15.554008">
        <ele>1795.60</ele>
        <time>2018-07-13T19:26:08Z</time>
      </trkpt>
      <trkpt lat="27.954517" lon="-15.553987">
        <ele>1797.40</ele>
        <time>2018-07-13T19:26:09Z</time>
      </trkpt>
      <trkpt lat="27.954499" lon="-15.553967">
        <ele>1796.60</ele>
        <time>2018-07-13T19:26:10Z</time>
      </trkpt>
      <trkpt lat="27.954482" lon="-15.553947">
        <ele>1797.00</ele>
        <time>2018-07-13T19:26:11Z</time>
      </trkpt>
      <trkpt lat="27.954460" lon="-15.553934">
        <ele>1796.60</ele>
        <time>2018-07-13T19:26:12Z</time>
      </trkpt>
      <trkpt lat="27.954435" lon="-15.553917">
        <ele>1796.60</ele>
        <time>2018-07-13T19:26:13Z</time>
      </trkpt>
      <trkpt lat="27.954415" lon="-15.553900">
        <ele>1796.60</ele>
        <time>2018-07-13T19:26:14Z</time>
      </trkpt>
      <trkpt lat="27.954392" lon="-15.553879">
        <ele>1796.60</ele>
        <time>2018-07-13T19:26:15Z</time>
      </trkpt>
      <trkpt lat="27.954369" lon="-15.553865">
        <ele>1796.20</ele>
        <time>2018-07-13T19:26:16Z</time>
      </trkpt>
      <trkpt lat="27.954346" lon="-15.553849">
        <ele>1796.00</ele>
        <time>2018-07-13T19:26:17Z</time>
      </trkpt>
      <trkpt lat="27.954325" lon="-15.553835">
        <ele>1795.40</ele>
        <time>2018-07-13T19:26:18Z</time>
      </trkpt>
      <trkpt lat="27.954303" lon="-15.553818">
        <ele>1795.40</ele>
        <time>2018-07-13T19:26:19Z</time>
      </trkpt>
      <trkpt lat="27.954282" lon="-15.553799">
        <ele>1795.20</ele>
        <time>2018-07-13T19:26:20Z</time>
      </trkpt>
      <trkpt lat="27.954260" lon="-15.553781">
        <ele>1795.20</ele>
        <time>2018-07-13T19:26:21Z</time>
      </trkpt>
      <trkpt lat="27.954237" lon="-15.553764">
        <ele>1795.20</ele>
        <time>2018-07-13T19:26:22Z</time>
      </trkpt>
      <trkpt lat="27.954216" lon="-15.553746">
        <ele>1795.20</ele>
        <time>2018-07-13T19:26:23Z</time>
      </trkpt>
      <trkpt lat="27.954191" lon="-15.553732">
        <ele>1795.20</ele>
        <time>2018-07-13T19:26:24Z</time>
      </trkpt>
      <trkpt lat="27.954168" lon="-15.553718">
        <ele>1794.80</ele>
        <time>2018-07-13T19:26:25Z</time>
      </trkpt>
      <trkpt lat="27.954145" lon="-15.553702">
        <ele>1793.20</ele>
        <time>2018-07-13T19:26:26Z</time>
      </trkpt>
      <trkpt lat="27.954124" lon="-15.553683">
        <ele>1793.20</ele>
        <time>2018-07-13T19:26:27Z</time>
      </trkpt>
      <trkpt lat="27.954105" lon="-15.553663">
        <ele>1792.80</ele>
        <time>2018-07-13T19:26:28Z</time>
      </trkpt>
      <trkpt lat="27.954088" lon="-15.553640">
        <ele>1792.80</ele>
        <time>2018-07-13T19:26:29Z</time>
      </trkpt>
      <trkpt lat="27.954068" lon="-15.553618">
        <ele>1792.80</ele>
        <time>2018-07-13T19:26:30Z</time>
      </trkpt>
      <trkpt lat="27.954046" lon="-15.553596">
        <ele>1792.60</ele>
        <time>2018-07-13T19:26:31Z</time>
      </trkpt>
      <trkpt lat="27.954025" lon="-15.553578">
        <ele>1792.60</ele>
        <time>2018-07-13T19:26:32Z</time>
      </trkpt>
      <trkpt lat="27.954003" lon="-15.553560">
        <ele>1792.60</ele>
        <time>2018-07-13T19:26:33Z</time>
      </trkpt>
      <trkpt lat="27.953982" lon="-15.553540">
        <ele>1792.60</ele>
        <time>2018-07-13T19:26:34Z</time>
      </trkpt>
      <trkpt lat="27.953957" lon="-15.553528">
        <ele>1792.00</ele>
        <time>2018-07-13T19:26:35Z</time>
      </trkpt>
      <trkpt lat="27.953933" lon="-15.553517">
        <ele>1791.80</ele>
        <time>2018-07-13T19:26:36Z</time>
      </trkpt>
      <trkpt lat="27.953907" lon="-15.553504">
        <ele>1791.60</ele>
        <time>2018-07-13T19:26:37Z</time>
      </trkpt>
      <trkpt lat="27.953883" lon="-15.553490">
        <ele>1791.20</ele>
        <time>2018-07-13T19:26:38Z</time>
      </trkpt>
      <trkpt lat="27.953858" lon="-15.553476">
        <ele>1791.20</ele>
        <time>2018-07-13T19:26:39Z</time>
      </trkpt>
      <trkpt lat="27.953834" lon="-15.553456">
        <ele>1790.60</ele>
        <time>2018-07-13T19:26:40Z</time>
      </trkpt>
      <trkpt lat="27.953812" lon="-15.553436">
        <ele>1790.60</ele>
        <time>2018-07-13T19:26:41Z</time>
      </trkpt>
      <trkpt lat="27.953786" lon="-15.553417">
        <ele>1790.40</ele>
        <time>2018-07-13T19:26:42Z</time>
      </trkpt>
      <trkpt lat="27.953763" lon="-15.553403">
        <ele>1790.40</ele>
        <time>2018-07-13T19:26:43Z</time>
      </trkpt>
      <trkpt lat="27.953738" lon="-15.553389">
        <ele>1790.00</ele>
        <time>2018-07-13T19:26:44Z</time>
      </trkpt>
      <trkpt lat="27.953715" lon="-15.553376">
        <ele>1789.40</ele>
        <time>2018-07-13T19:26:45Z</time>
      </trkpt>
      <trkpt lat="27.953689" lon="-15.553364">
        <ele>1789.20</ele>
        <time>2018-07-13T19:26:46Z</time>
      </trkpt>
      <trkpt lat="27.953664" lon="-15.553352">
        <ele>1789.20</ele>
        <time>2018-07-13T19:26:47Z</time>
      </trkpt>
      <trkpt lat="27.953638" lon="-15.553339">
        <ele>1789.20</ele>
        <time>2018-07-13T19:26:48Z</time>
      </trkpt>
      <trkpt lat="27.953612" lon="-15.553328">
        <ele>1789.20</ele>
        <time>2018-07-13T19:26:49Z</time>
      </trkpt>
      <trkpt lat="27.953590" lon="-15.553314">
        <ele>1789.20</ele>
        <time>2018-07-13T19:26:50Z</time>
      </trkpt>
      <trkpt lat="27.953565" lon="-15.553303">
        <ele>1789.20</ele>
        <time>2018-07-13T19:26:51Z</time>
      </trkpt>
      <trkpt lat="27.953543" lon="-15.553290">
        <ele>1788.40</ele>
        <time>2018-07-13T19:26:52Z</time>
      </trkpt>
      <trkpt lat="27.953518" lon="-15.553276">
        <ele>1787.80</ele>
        <time>2018-07-13T19:26:53Z</time>
      </trkpt>
      <trkpt lat="27.953496" lon="-15.553260">
        <ele>1787.80</ele>
        <time>2018-07-13T19:26:54Z</time>
      </trkpt>
      <trkpt lat="27.953473" lon="-15.553245">
        <ele>1787.80</ele>
        <time>2018-07-13T19:26:55Z</time>
      </trkpt>
      <trkpt lat="27.953449" lon="-15.553227">
        <ele>1787.60</ele>
        <time>2018-07-13T19:26:56Z</time>
      </trkpt>
      <trkpt lat="27.953426" lon="-15.553210">
        <ele>1787.60</ele>
        <time>2018-07-13T19:26:57Z</time>
      </trkpt>
      <trkpt lat="27.953404" lon="-15.553194">
        <ele>1787.20</ele>
        <time>2018-07-13T19:26:58Z</time>
      </trkpt>
      <trkpt lat="27.953383" lon="-15.553178">
        <ele>1787.20</ele>
        <time>2018-07-13T19:26:59Z</time>
      </trkpt>
      <trkpt lat="27.953356" lon="-15.553165">
        <ele>1787.20</ele>
        <time>2018-07-13T19:27:00Z</time>
      </trkpt>
      <trkpt lat="27.953334" lon="-15.553154">
        <ele>1786.60</ele>
        <time>2018-07-13T19:27:01Z</time>
      </trkpt>
      <trkpt lat="27.953310" lon="-15.553139">
        <ele>1786.40</ele>
        <time>2018-07-13T19:27:02Z</time>
      </trkpt>
      <trkpt lat="27.953287" lon="-15.553121">
        <ele>1786.40</ele>
        <time>2018-07-13T19:27:03Z</time>
      </trkpt>
      <trkpt lat="27.953267" lon="-15.553101">
        <ele>1786.20</ele>
        <time>2018-07-13T19:27:04Z</time>
      </trkpt>
      <trkpt lat="27.953247" lon="-15.553080">
        <ele>1786.20</ele>
        <time>2018-07-13T19:27:05Z</time>
      </trkpt>
      <trkpt lat="27.953228" lon="-15.553057">
        <ele>1786.20</ele>
        <time>2018-07-13T19:27:06Z</time>
      </trkpt>
      <trkpt lat="27.953208" lon="-15.553035">
        <ele>1786.20</ele>
        <time>2018-07-13T19:27:07Z</time>
      </trkpt>
      <trkpt lat="27.953191" lon="-15.553011">
        <ele>1784.80</ele>
        <time>2018-07-13T19:27:08Z</time>
      </trkpt>
      <trkpt lat="27.953175" lon="-15.552989">
        <ele>1784.80</ele>
        <time>2018-07-13T19:27:09Z</time>
      </trkpt>
      <trkpt lat="27.953157" lon="-15.552967">
        <ele>1784.80</ele>
        <time>2018-07-13T19:27:10Z</time>
      </trkpt>
      <trkpt lat="27.953141" lon="-15.552948">
        <ele>1784.80</ele>
        <time>2018-07-13T19:27:11Z</time>
      </trkpt>
      <trkpt lat="27.953123" lon="-15.552925">
        <ele>1784.80</ele>
        <time>2018-07-13T19:27:12Z</time>
      </trkpt>
      <trkpt lat="27.953110" lon="-15.552905">
        <ele>1784.80</ele>
        <time>2018-07-13T19:27:13Z</time>
      </trkpt>
      <trkpt lat="27.953093" lon="-15.552884">
        <ele>1784.80</ele>
        <time>2018-07-13T19:27:14Z</time>
      </trkpt>
      <trkpt lat="27.953075" lon="-15.552863">
        <ele>1784.80</ele>
        <time>2018-07-13T19:27:15Z</time>
      </trkpt>
      <trkpt lat="27.953059" lon="-15.552842">
        <ele>1784.80</ele>
        <time>2018-07-13T19:27:16Z</time>
      </trkpt>
      <trkpt lat="27.953046" lon="-15.552821">
        <ele>1783.40</ele>
        <time>2018-07-13T19:27:17Z</time>
      </trkpt>
      <trkpt lat="27.953031" lon="-15.552797">
        <ele>1782.60</ele>
        <time>2018-07-13T19:27:18Z</time>
      </trkpt>
      <trkpt lat="27.953018" lon="-15.552774">
        <ele>1783.00</ele>
        <time>2018-07-13T19:27:19Z</time>
      </trkpt>
      <trkpt lat="27.953008" lon="-15.552748">
        <ele>1782.80</ele>
        <time>2018-07-13T19:27:20Z</time>
      </trkpt>
      <trkpt lat="27.952995" lon="-15.552711">
        <ele>1782.80</ele>
        <time>2018-07-13T19:27:22Z</time>
      </trkpt>
      <trkpt lat="27.952988" lon="-15.552690">
        <ele>1782.80</ele>
        <time>2018-07-13T19:27:23Z</time>
      </trkpt>
      <trkpt lat="27.952979" lon="-15.552668">
        <ele>1782.80</ele>
        <time>2018-07-13T19:27:24Z</time>
      </trkpt>
      <trkpt lat="27.952971" lon="-15.552644">
        <ele>1782.80</ele>
        <time>2018-07-13T19:27:25Z</time>
      </trkpt>
      <trkpt lat="27.952965" lon="-15.552621">
        <ele>1783.00</ele>
        <time>2018-07-13T19:27:26Z</time>
      </trkpt>
      <trkpt lat="27.952956" lon="-15.552597">
        <ele>1782.40</ele>
        <time>2018-07-13T19:27:27Z</time>
      </trkpt>
      <trkpt lat="27.952946" lon="-15.552572">
        <ele>1782.80</ele>
        <time>2018-07-13T19:27:28Z</time>
      </trkpt>
      <trkpt lat="27.952935" lon="-15.552550">
        <ele>1782.80</ele>
        <time>2018-07-13T19:27:29Z</time>
      </trkpt>
      <trkpt lat="27.952923" lon="-15.552528">
        <ele>1782.80</ele>
        <time>2018-07-13T19:27:30Z</time>
      </trkpt>
      <trkpt lat="27.952910" lon="-15.552505">
        <ele>1782.80</ele>
        <time>2018-07-13T19:27:31Z</time>
      </trkpt>
      <trkpt lat="27.952898" lon="-15.552478">
        <ele>1782.80</ele>
        <time>2018-07-13T19:27:32Z</time>
      </trkpt>
      <trkpt lat="27.952885" lon="-15.552454">
        <ele>1782.80</ele>
        <time>2018-07-13T19:27:33Z</time>
      </trkpt>
      <trkpt lat="27.952869" lon="-15.552433">
        <ele>1782.80</ele>
        <time>2018-07-13T19:27:34Z</time>
      </trkpt>
      <trkpt lat="27.952855" lon="-15.552414">
        <ele>1782.40</ele>
        <time>2018-07-13T19:27:35Z</time>
      </trkpt>
      <trkpt lat="27.952837" lon="-15.552396">
        <ele>1782.00</ele>
        <time>2018-07-13T19:27:36Z</time>
      </trkpt>
      <trkpt lat="27.952820" lon="-15.552375">
        <ele>1782.00</ele>
        <time>2018-07-13T19:27:37Z</time>
      </trkpt>
      <trkpt lat="27.952803" lon="-15.552355">
        <ele>1782.00</ele>
        <time>2018-07-13T19:27:38Z</time>
      </trkpt>
      <trkpt lat="27.952781" lon="-15.552339">
        <ele>1782.00</ele>
        <time>2018-07-13T19:27:39Z</time>
      </trkpt>
      <trkpt lat="27.952760" lon="-15.552323">
        <ele>1782.00</ele>
        <time>2018-07-13T19:27:40Z</time>
      </trkpt>
      <trkpt lat="27.952735" lon="-15.552308">
        <ele>1782.00</ele>
        <time>2018-07-13T19:27:41Z</time>
      </trkpt>
      <trkpt lat="27.952714" lon="-15.552292">
        <ele>1782.00</ele>
        <time>2018-07-13T19:27:42Z</time>
      </trkpt>
      <trkpt lat="27.952691" lon="-15.552280">
        <ele>1782.80</ele>
        <time>2018-07-13T19:27:43Z</time>
      </trkpt>
      <trkpt lat="27.952671" lon="-15.552262">
        <ele>1782.80</ele>
        <time>2018-07-13T19:27:44Z</time>
      </trkpt>
      <trkpt lat="27.952653" lon="-15.552244">
        <ele>1782.80</ele>
        <time>2018-07-13T19:27:45Z</time>
      </trkpt>
      <trkpt lat="27.952634" lon="-15.552222">
        <ele>1782.80</ele>
        <time>2018-07-13T19:27:46Z</time>
      </trkpt>
      <trkpt lat="27.952617" lon="-15.552202">
        <ele>1782.80</ele>
        <time>2018-07-13T19:27:47Z</time>
      </trkpt>
      <trkpt lat="27.952601" lon="-15.552180">
        <ele>1782.80</ele>
        <time>2018-07-13T19:27:48Z</time>
      </trkpt>
      <trkpt lat="27.952585" lon="-15.552156">
        <ele>1781.60</ele>
        <time>2018-07-13T19:27:49Z</time>
      </trkpt>
      <trkpt lat="27.952569" lon="-15.552134">
        <ele>1781.00</ele>
        <time>2018-07-13T19:27:50Z</time>
      </trkpt>
      <trkpt lat="27.952554" lon="-15.552114">
        <ele>1781.00</ele>
        <time>2018-07-13T19:27:51Z</time>
      </trkpt>
      <trkpt lat="27.952543" lon="-15.552089">
        <ele>1781.00</ele>
        <time>2018-07-13T19:27:52Z</time>
      </trkpt>
      <trkpt lat="27.952532" lon="-15.552065">
        <ele>1781.00</ele>
        <time>2018-07-13T19:27:53Z</time>
      </trkpt>
      <trkpt lat="27.952519" lon="-15.552040">
        <ele>1781.00</ele>
        <time>2018-07-13T19:27:54Z</time>
      </trkpt>
      <trkpt lat="27.952506" lon="-15.552013">
        <ele>1780.20</ele>
        <time>2018-07-13T19:27:55Z</time>
      </trkpt>
      <trkpt lat="27.952493" lon="-15.551991">
        <ele>1780.20</ele>
        <time>2018-07-13T19:27:56Z</time>
      </trkpt>
      <trkpt lat="27.952478" lon="-15.551968">
        <ele>1779.80</ele>
        <time>2018-07-13T19:27:57Z</time>
      </trkpt>
      <trkpt lat="27.952462" lon="-15.551945">
        <ele>1780.20</ele>
        <time>2018-07-13T19:27:58Z</time>
      </trkpt>
      <trkpt lat="27.952444" lon="-15.551925">
        <ele>1780.00</ele>
        <time>2018-07-13T19:27:59Z</time>
      </trkpt>
      <trkpt lat="27.952426" lon="-15.551905">
        <ele>1780.00</ele>
        <time>2018-07-13T19:28:00Z</time>
      </trkpt>
      <trkpt lat="27.952412" lon="-15.551884">
        <ele>1780.00</ele>
        <time>2018-07-13T19:28:01Z</time>
      </trkpt>
      <trkpt lat="27.952395" lon="-15.551862">
        <ele>1780.00</ele>
        <time>2018-07-13T19:28:02Z</time>
      </trkpt>
      <trkpt lat="27.952376" lon="-15.551842">
        <ele>1779.80</ele>
        <time>2018-07-13T19:28:03Z</time>
      </trkpt>
      <trkpt lat="27.952354" lon="-15.551820">
        <ele>1779.80</ele>
        <time>2018-07-13T19:28:04Z</time>
      </trkpt>
      <trkpt lat="27.952335" lon="-15.551798">
        <ele>1779.80</ele>
        <time>2018-07-13T19:28:05Z</time>
      </trkpt>
      <trkpt lat="27.952312" lon="-15.551774">
        <ele>1779.80</ele>
        <time>2018-07-13T19:28:06Z</time>
      </trkpt>
      <trkpt lat="27.952291" lon="-15.551757">
        <ele>1779.00</ele>
        <time>2018-07-13T19:28:07Z</time>
      </trkpt>
      <trkpt lat="27.952271" lon="-15.551740">
        <ele>1779.00</ele>
        <time>2018-07-13T19:28:08Z</time>
      </trkpt>
      <trkpt lat="27.952255" lon="-15.551717">
        <ele>1779.00</ele>
        <time>2018-07-13T19:28:09Z</time>
      </trkpt>
      <trkpt lat="27.952241" lon="-15.551695">
        <ele>1778.60</ele>
        <time>2018-07-13T19:28:10Z</time>
      </trkpt>
      <trkpt lat="27.952223" lon="-15.551672">
        <ele>1778.40</ele>
        <time>2018-07-13T19:28:11Z</time>
      </trkpt>
      <trkpt lat="27.952206" lon="-15.551651">
        <ele>1778.40</ele>
        <time>2018-07-13T19:28:12Z</time>
      </trkpt>
      <trkpt lat="27.952191" lon="-15.551631">
        <ele>1778.40</ele>
        <time>2018-07-13T19:28:13Z</time>
      </trkpt>
      <trkpt lat="27.952173" lon="-15.551606">
        <ele>1778.40</ele>
        <time>2018-07-13T19:28:14Z</time>
      </trkpt>
      <trkpt lat="27.952157" lon="-15.551586">
        <ele>1778.40</ele>
        <time>2018-07-13T19:28:15Z</time>
      </trkpt>
      <trkpt lat="27.952139" lon="-15.551564">
        <ele>1778.00</ele>
        <time>2018-07-13T19:28:16Z</time>
      </trkpt>
      <trkpt lat="27.952121" lon="-15.551541">
        <ele>1778.00</ele>
        <time>2018-07-13T19:28:17Z</time>
      </trkpt>
      <trkpt lat="27.952100" lon="-15.551521">
        <ele>1778.00</ele>
        <time>2018-07-13T19:28:18Z</time>
      </trkpt>
      <trkpt lat="27.952080" lon="-15.551501">
        <ele>1778.00</ele>
        <time>2018-07-13T19:28:19Z</time>
      </trkpt>
      <trkpt lat="27.952059" lon="-15.551482">
        <ele>1778.00</ele>
        <time>2018-07-13T19:28:20Z</time>
      </trkpt>
      <trkpt lat="27.952037" lon="-15.551461">
        <ele>1777.80</ele>
        <time>2018-07-13T19:28:21Z</time>
      </trkpt>
      <trkpt lat="27.952015" lon="-15.551447">
        <ele>1777.20</ele>
        <time>2018-07-13T19:28:22Z</time>
      </trkpt>
      <trkpt lat="27.951996" lon="-15.551436">
        <ele>1776.80</ele>
        <time>2018-07-13T19:28:23Z</time>
      </trkpt>
      <trkpt lat="27.951963" lon="-15.551421">
        <ele>1776.80</ele>
        <time>2018-07-13T19:28:25Z</time>
      </trkpt>
      <trkpt lat="27.951934" lon="-15.551415">
        <ele>1776.40</ele>
        <time>2018-07-13T19:28:27Z</time>
      </trkpt>
      <trkpt lat="27.951905" lon="-15.551417">
        <ele>1776.20</ele>
        <time>2018-07-13T19:28:29Z</time>
      </trkpt>
      <trkpt lat="27.951878" lon="-15.551421">
        <ele>1776.40</ele>
        <time>2018-07-13T19:28:31Z</time>
      </trkpt>
      <trkpt lat="27.951848" lon="-15.551424">
        <ele>1776.20</ele>
        <time>2018-07-13T19:28:33Z</time>
      </trkpt>
      <trkpt lat="27.951820" lon="-15.551423">
        <ele>1775.60</ele>
        <time>2018-07-13T19:28:35Z</time>
      </trkpt>
      <trkpt lat="27.951796" lon="-15.551426">
        <ele>1775.00</ele>
        <time>2018-07-13T19:28:37Z</time>
      </trkpt>
      <trkpt lat="27.951770" lon="-15.551432">
        <ele>1774.80</ele>
        <time>2018-07-13T19:28:39Z</time>
      </trkpt>
      <trkpt lat="27.951750" lon="-15.551436">
        <ele>1774.80</ele>
        <time>2018-07-13T19:28:41Z</time>
      </trkpt>
      <trkpt lat="27.951724" lon="-15.551442">
        <ele>1775.20</ele>
        <time>2018-07-13T19:28:44Z</time>
      </trkpt>
      <trkpt lat="27.951701" lon="-15.551437">
        <ele>1775.20</ele>
        <time>2018-07-13T19:28:46Z</time>
      </trkpt>
      <trkpt lat="27.951679" lon="-15.551434">
        <ele>1775.20</ele>
        <time>2018-07-13T19:28:48Z</time>
      </trkpt>
      <trkpt lat="27.951660" lon="-15.551439">
        <ele>1775.00</ele>
        <time>2018-07-13T19:28:49Z</time>
      </trkpt>
      <trkpt lat="27.951631" lon="-15.551440">
        <ele>1774.40</ele>
        <time>2018-07-13T19:28:51Z</time>
      </trkpt>
      <trkpt lat="27.951603" lon="-15.551443">
        <ele>1774.40</ele>
        <time>2018-07-13T19:28:53Z</time>
      </trkpt>
      <trkpt lat="27.951576" lon="-15.551455">
        <ele>1774.80</ele>
        <time>2018-07-13T19:28:55Z</time>
      </trkpt>
      <trkpt lat="27.951588" lon="-15.551426">
        <ele>1774.20</ele>
        <time>2018-07-13T19:29:23Z</time>
      </trkpt>
      <trkpt lat="27.951589" lon="-15.551403">
        <ele>1774.40</ele>
        <time>2018-07-13T19:29:25Z</time>
      </trkpt>
      <trkpt lat="27.951597" lon="-15.551381">
        <ele>1774.40</ele>
        <time>2018-07-13T19:29:27Z</time>
      </trkpt>
      <trkpt lat="27.951583" lon="-15.551408">
        <ele>1773.20</ele>
        <time>2018-07-13T19:29:55Z</time>
      </trkpt>
      <trkpt lat="27.951572" lon="-15.551433">
        <ele>1773.00</ele>
        <time>2018-07-13T19:29:58Z</time>
      </trkpt>
      <trkpt lat="27.951564" lon="-15.551452">
        <ele>1772.80</ele>
        <time>2018-07-13T19:30:00Z</time>
      </trkpt>
      <trkpt lat="27.951554" lon="-15.551473">
        <ele>1772.60</ele>
        <time>2018-07-13T19:30:04Z</time>
      </trkpt>
      <trkpt lat="27.951565" lon="-15.551490">
        <ele>1772.60</ele>
        <time>2018-07-13T19:30:24Z</time>
      </trkpt>
      <trkpt lat="27.951582" lon="-15.551517">
        <ele>1772.60</ele>
        <time>2018-07-13T19:30:58Z</time>
      </trkpt>
      <trkpt lat="27.951588" lon="-15.551541">
        <ele>1772.20</ele>
        <time>2018-07-13T19:30:59Z</time>
      </trkpt>
      <trkpt lat="27.951596" lon="-15.551569">
        <ele>1772.00</ele>
        <time>2018-07-13T19:31:00Z</time>
      </trkpt>
      <trkpt lat="27.951606" lon="-15.551597">
        <ele>1771.80</ele>
        <time>2018-07-13T19:31:01Z</time>
      </trkpt>
      <trkpt lat="27.951613" lon="-15.551620">
        <ele>1771.80</ele>
        <time>2018-07-13T19:31:02Z</time>
      </trkpt>
      <trkpt lat="27.951624" lon="-15.551647">
        <ele>1771.80</ele>
        <time>2018-07-13T19:31:03Z</time>
      </trkpt>
      <trkpt lat="27.951636" lon="-15.551674">
        <ele>1771.80</ele>
        <time>2018-07-13T19:31:04Z</time>
      </trkpt>
      <trkpt lat="27.951647" lon="-15.551704">
        <ele>1770.20</ele>
        <time>2018-07-13T19:31:05Z</time>
      </trkpt>
      <trkpt lat="27.951659" lon="-15.551734">
        <ele>1770.20</ele>
        <time>2018-07-13T19:31:06Z</time>
      </trkpt>
      <trkpt lat="27.951674" lon="-15.551761">
        <ele>1769.80</ele>
        <time>2018-07-13T19:31:07Z</time>
      </trkpt>
      <trkpt lat="27.951684" lon="-15.551787">
        <ele>1769.80</ele>
        <time>2018-07-13T19:31:08Z</time>
      </trkpt>
      <trkpt lat="27.951695" lon="-15.551818">
        <ele>1769.80</ele>
        <time>2018-07-13T19:31:09Z</time>
      </trkpt>
      <trkpt lat="27.951704" lon="-15.551844">
        <ele>1769.40</ele>
        <time>2018-07-13T19:31:10Z</time>
      </trkpt>
      <trkpt lat="27.951711" lon="-15.551868">
        <ele>1769.40</ele>
        <time>2018-07-13T19:31:11Z</time>
      </trkpt>
      <trkpt lat="27.951721" lon="-15.551893">
        <ele>1769.40</ele>
        <time>2018-07-13T19:31:12Z</time>
      </trkpt>
      <trkpt lat="27.951729" lon="-15.551916">
        <ele>1769.40</ele>
        <time>2018-07-13T19:31:13Z</time>
      </trkpt>
      <trkpt lat="27.951742" lon="-15.551943">
        <ele>1769.40</ele>
        <time>2018-07-13T19:31:14Z</time>
      </trkpt>
      <trkpt lat="27.951750" lon="-15.551965">
        <ele>1768.60</ele>
        <time>2018-07-13T19:31:15Z</time>
      </trkpt>
      <trkpt lat="27.951758" lon="-15.551986">
        <ele>1768.60</ele>
        <time>2018-07-13T19:31:16Z</time>
      </trkpt>
      <trkpt lat="27.951768" lon="-15.552009">
        <ele>1767.60</ele>
        <time>2018-07-13T19:31:17Z</time>
      </trkpt>
      <trkpt lat="27.951776" lon="-15.552033">
        <ele>1767.60</ele>
        <time>2018-07-13T19:31:18Z</time>
      </trkpt>
      <trkpt lat="27.951788" lon="-15.552057">
        <ele>1767.60</ele>
        <time>2018-07-13T19:31:19Z</time>
      </trkpt>
      <trkpt lat="27.951799" lon="-15.552079">
        <ele>1767.40</ele>
        <time>2018-07-13T19:31:20Z</time>
      </trkpt>
      <trkpt lat="27.951811" lon="-15.552099">
        <ele>1766.80</ele>
        <time>2018-07-13T19:31:21Z</time>
      </trkpt>
      <trkpt lat="27.951823" lon="-15.552122">
        <ele>1766.60</ele>
        <time>2018-07-13T19:31:22Z</time>
      </trkpt>
      <trkpt lat="27.951838" lon="-15.552146">
        <ele>1766.40</ele>
        <time>2018-07-13T19:31:23Z</time>
      </trkpt>
      <trkpt lat="27.951851" lon="-15.552167">
        <ele>1765.60</ele>
        <time>2018-07-13T19:31:24Z</time>
      </trkpt>
      <trkpt lat="27.951864" lon="-15.552189">
        <ele>1765.60</ele>
        <time>2018-07-13T19:31:25Z</time>
      </trkpt>
      <trkpt lat="27.951876" lon="-15.552211">
        <ele>1765.40</ele>
        <time>2018-07-13T19:31:26Z</time>
      </trkpt>
      <trkpt lat="27.951892" lon="-15.552234">
        <ele>1765.00</ele>
        <time>2018-07-13T19:31:27Z</time>
      </trkpt>
      <trkpt lat="27.951910" lon="-15.552256">
        <ele>1764.40</ele>
        <time>2018-07-13T19:31:28Z</time>
      </trkpt>
      <trkpt lat="27.951932" lon="-15.552277">
        <ele>1764.40</ele>
        <time>2018-07-13T19:31:29Z</time>
      </trkpt>
      <trkpt lat="27.951949" lon="-15.552299">
        <ele>1764.40</ele>
        <time>2018-07-13T19:31:30Z</time>
      </trkpt>
      <trkpt lat="27.951968" lon="-15.552320">
        <ele>1763.60</ele>
        <time>2018-07-13T19:31:31Z</time>
      </trkpt>
      <trkpt lat="27.951990" lon="-15.552340">
        <ele>1763.00</ele>
        <time>2018-07-13T19:31:32Z</time>
      </trkpt>
      <trkpt lat="27.952011" lon="-15.552354">
        <ele>1763.00</ele>
        <time>2018-07-13T19:31:33Z</time>
      </trkpt>
      <trkpt lat="27.952032" lon="-15.552371">
        <ele>1762.40</ele>
        <time>2018-07-13T19:31:34Z</time>
      </trkpt>
      <trkpt lat="27.952055" lon="-15.552392">
        <ele>1761.80</ele>
        <time>2018-07-13T19:31:35Z</time>
      </trkpt>
      <trkpt lat="27.952073" lon="-15.552415">
        <ele>1761.60</ele>
        <time>2018-07-13T19:31:36Z</time>
      </trkpt>
      <trkpt lat="27.952087" lon="-15.552440">
        <ele>1761.60</ele>
        <time>2018-07-13T19:31:37Z</time>
      </trkpt>
      <trkpt lat="27.952103" lon="-15.552472">
        <ele>1760.80</ele>
        <time>2018-07-13T19:31:38Z</time>
      </trkpt>
      <trkpt lat="27.952113" lon="-15.552498">
        <ele>1760.80</ele>
        <time>2018-07-13T19:31:39Z</time>
      </trkpt>
      <trkpt lat="27.952129" lon="-15.552525">
        <ele>1760.20</ele>
        <time>2018-07-13T19:31:40Z</time>
      </trkpt>
      <trkpt lat="27.952143" lon="-15.552553">
        <ele>1760.00</ele>
        <time>2018-07-13T19:31:41Z</time>
      </trkpt>
      <trkpt lat="27.952157" lon="-15.552586">
        <ele>1759.20</ele>
        <time>2018-07-13T19:31:42Z</time>
      </trkpt>
      <trkpt lat="27.952169" lon="-15.552616">
        <ele>1759.20</ele>
        <time>2018-07-13T19:31:43Z</time>
      </trkpt>
      <trkpt lat="27.952179" lon="-15.552644">
        <ele>1759.20</ele>
        <time>2018-07-13T19:31:44Z</time>
      </trkpt>
      <trkpt lat="27.952190" lon="-15.552672">
        <ele>1759.20</ele>
        <time>2018-07-13T19:31:45Z</time>
      </trkpt>
      <trkpt lat="27.952203" lon="-15.552704">
        <ele>1759.20</ele>
        <time>2018-07-13T19:31:46Z</time>
      </trkpt>
      <trkpt lat="27.952211" lon="-15.552735">
        <ele>1759.00</ele>
        <time>2018-07-13T19:31:47Z</time>
      </trkpt>
      <trkpt lat="27.952218" lon="-15.552766">
        <ele>1759.00</ele>
        <time>2018-07-13T19:31:48Z</time>
      </trkpt>
      <trkpt lat="27.952225" lon="-15.552796">
        <ele>1758.40</ele>
        <time>2018-07-13T19:31:49Z</time>
      </trkpt>
      <trkpt lat="27.952233" lon="-15.552824">
        <ele>1758.00</ele>
        <time>2018-07-13T19:31:50Z</time>
      </trkpt>
      <trkpt lat="27.952242" lon="-15.552849">
        <ele>1757.00</ele>
        <time>2018-07-13T19:31:51Z</time>
      </trkpt>
      <trkpt lat="27.952252" lon="-15.552876">
        <ele>1757.00</ele>
        <time>2018-07-13T19:31:52Z</time>
      </trkpt>
      <trkpt lat="27.952264" lon="-15.552906">
        <ele>1756.60</ele>
        <time>2018-07-13T19:31:53Z</time>
      </trkpt>
      <trkpt lat="27.952276" lon="-15.552934">
        <ele>1756.60</ele>
        <time>2018-07-13T19:31:54Z</time>
      </trkpt>
      <trkpt lat="27.952290" lon="-15.552966">
        <ele>1756.60</ele>
        <time>2018-07-13T19:31:55Z</time>
      </trkpt>
      <trkpt lat="27.952303" lon="-15.552994">
        <ele>1756.00</ele>
        <time>2018-07-13T19:31:56Z</time>
      </trkpt>
      <trkpt lat="27.952317" lon="-15.553020">
        <ele>1756.00</ele>
        <time>2018-07-13T19:31:57Z</time>
      </trkpt>
      <trkpt lat="27.952332" lon="-15.553046">
        <ele>1755.80</ele>
        <time>2018-07-13T19:31:58Z</time>
      </trkpt>
      <trkpt lat="27.952345" lon="-15.553068">
        <ele>1755.80</ele>
        <time>2018-07-13T19:31:59Z</time>
      </trkpt>
      <trkpt lat="27.952361" lon="-15.553093">
        <ele>1755.80</ele>
        <time>2018-07-13T19:32:00Z</time>
      </trkpt>
      <trkpt lat="27.952382" lon="-15.553119">
        <ele>1755.40</ele>
        <time>2018-07-13T19:32:01Z</time>
      </trkpt>
      <trkpt lat="27.952403" lon="-15.553145">
        <ele>1754.80</ele>
        <time>2018-07-13T19:32:02Z</time>
      </trkpt>
      <trkpt lat="27.952423" lon="-15.553169">
        <ele>1755.00</ele>
        <time>2018-07-13T19:32:03Z</time>
      </trkpt>
      <trkpt lat="27.952447" lon="-15.553189">
        <ele>1754.80</ele>
        <time>2018-07-13T19:32:04Z</time>
      </trkpt>
      <trkpt lat="27.952472" lon="-15.553208">
        <ele>1755.00</ele>
        <time>2018-07-13T19:32:05Z</time>
      </trkpt>
      <trkpt lat="27.952495" lon="-15.553227">
        <ele>1753.80</ele>
        <time>2018-07-13T19:32:06Z</time>
      </trkpt>
      <trkpt lat="27.952520" lon="-15.553249">
        <ele>1753.40</ele>
        <time>2018-07-13T19:32:07Z</time>
      </trkpt>
      <trkpt lat="27.952546" lon="-15.553269">
        <ele>1753.20</ele>
        <time>2018-07-13T19:32:08Z</time>
      </trkpt>
      <trkpt lat="27.952569" lon="-15.553292">
        <ele>1752.80</ele>
        <time>2018-07-13T19:32:09Z</time>
      </trkpt>
      <trkpt lat="27.952595" lon="-15.553310">
        <ele>1752.60</ele>
        <time>2018-07-13T19:32:10Z</time>
      </trkpt>
      <trkpt lat="27.952621" lon="-15.553326">
        <ele>1751.80</ele>
        <time>2018-07-13T19:32:11Z</time>
      </trkpt>
      <trkpt lat="27.952644" lon="-15.553342">
        <ele>1751.40</ele>
        <time>2018-07-13T19:32:12Z</time>
      </trkpt>
      <trkpt lat="27.952663" lon="-15.553361">
        <ele>1751.60</ele>
        <time>2018-07-13T19:32:13Z</time>
      </trkpt>
      <trkpt lat="27.952683" lon="-15.553382">
        <ele>1751.40</ele>
        <time>2018-07-13T19:32:14Z</time>
      </trkpt>
      <trkpt lat="27.952700" lon="-15.553410">
        <ele>1751.40</ele>
        <time>2018-07-13T19:32:15Z</time>
      </trkpt>
      <trkpt lat="27.952717" lon="-15.553437">
        <ele>1751.40</ele>
        <time>2018-07-13T19:32:16Z</time>
      </trkpt>
      <trkpt lat="27.952729" lon="-15.553462">
        <ele>1751.40</ele>
        <time>2018-07-13T19:32:17Z</time>
      </trkpt>
      <trkpt lat="27.952739" lon="-15.553487">
        <ele>1751.40</ele>
        <time>2018-07-13T19:32:18Z</time>
      </trkpt>
      <trkpt lat="27.952741" lon="-15.553509">
        <ele>1751.40</ele>
        <time>2018-07-13T19:32:19Z</time>
      </trkpt>
      <trkpt lat="27.952746" lon="-15.553539">
        <ele>1750.20</ele>
        <time>2018-07-13T19:32:20Z</time>
      </trkpt>
      <trkpt lat="27.952753" lon="-15.553569">
        <ele>1750.00</ele>
        <time>2018-07-13T19:32:21Z</time>
      </trkpt>
      <trkpt lat="27.952759" lon="-15.553599">
        <ele>1749.80</ele>
        <time>2018-07-13T19:32:22Z</time>
      </trkpt>
      <trkpt lat="27.952764" lon="-15.553629">
        <ele>1749.40</ele>
        <time>2018-07-13T19:32:23Z</time>
      </trkpt>
      <trkpt lat="27.952767" lon="-15.553655">
        <ele>1749.00</ele>
        <time>2018-07-13T19:32:24Z</time>
      </trkpt>
      <trkpt lat="27.952772" lon="-15.553682">
        <ele>1748.40</ele>
        <time>2018-07-13T19:32:25Z</time>
      </trkpt>
      <trkpt lat="27.952778" lon="-15.553713">
        <ele>1748.20</ele>
        <time>2018-07-13T19:32:26Z</time>
      </trkpt>
      <trkpt lat="27.952786" lon="-15.553741">
        <ele>1747.20</ele>
        <time>2018-07-13T19:32:27Z</time>
      </trkpt>
      <trkpt lat="27.952794" lon="-15.553775">
        <ele>1747.20</ele>
        <time>2018-07-13T19:32:28Z</time>
      </trkpt>
      <trkpt lat="27.952803" lon="-15.553811">
        <ele>1746.80</ele>
        <time>2018-07-13T19:32:29Z</time>
      </trkpt>
      <trkpt lat="27.952811" lon="-15.553843">
        <ele>1746.20</ele>
        <time>2018-07-13T19:32:30Z</time>
      </trkpt>
      <trkpt lat="27.952818" lon="-15.553876">
        <ele>1745.40</ele>
        <time>2018-07-13T19:32:31Z</time>
      </trkpt>
      <trkpt lat="27.952828" lon="-15.553915">
        <ele>1745.00</ele>
        <time>2018-07-13T19:32:32Z</time>
      </trkpt>
      <trkpt lat="27.952835" lon="-15.553947">
        <ele>1744.40</ele>
        <time>2018-07-13T19:32:33Z</time>
      </trkpt>
      <trkpt lat="27.952844" lon="-15.553976">
        <ele>1744.20</ele>
        <time>2018-07-13T19:32:34Z</time>
      </trkpt>
      <trkpt lat="27.952850" lon="-15.554003">
        <ele>1743.40</ele>
        <time>2018-07-13T19:32:35Z</time>
      </trkpt>
      <trkpt lat="27.952858" lon="-15.554031">
        <ele>1743.40</ele>
        <time>2018-07-13T19:32:36Z</time>
      </trkpt>
      <trkpt lat="27.952859" lon="-15.554056">
        <ele>1743.20</ele>
        <time>2018-07-13T19:32:37Z</time>
      </trkpt>
      <trkpt lat="27.952862" lon="-15.554082">
        <ele>1742.20</ele>
        <time>2018-07-13T19:32:38Z</time>
      </trkpt>
      <trkpt lat="27.952871" lon="-15.554110">
        <ele>1742.20</ele>
        <time>2018-07-13T19:32:39Z</time>
      </trkpt>
      <trkpt lat="27.952874" lon="-15.554142">
        <ele>1741.60</ele>
        <time>2018-07-13T19:32:40Z</time>
      </trkpt>
      <trkpt lat="27.952878" lon="-15.554179">
        <ele>1741.40</ele>
        <time>2018-07-13T19:32:41Z</time>
      </trkpt>
      <trkpt lat="27.952891" lon="-15.554210">
        <ele>1741.00</ele>
        <time>2018-07-13T19:32:42Z</time>
      </trkpt>
      <trkpt lat="27.952908" lon="-15.554237">
        <ele>1740.80</ele>
        <time>2018-07-13T19:32:43Z</time>
      </trkpt>
      <trkpt lat="27.952923" lon="-15.554268">
        <ele>1740.80</ele>
        <time>2018-07-13T19:32:44Z</time>
      </trkpt>
      <trkpt lat="27.952935" lon="-15.554298">
        <ele>1740.20</ele>
        <time>2018-07-13T19:32:45Z</time>
      </trkpt>
      <trkpt lat="27.952947" lon="-15.554325">
        <ele>1740.40</ele>
        <time>2018-07-13T19:32:46Z</time>
      </trkpt>
      <trkpt lat="27.952960" lon="-15.554357">
        <ele>1740.40</ele>
        <time>2018-07-13T19:32:47Z</time>
      </trkpt>
      <trkpt lat="27.952972" lon="-15.554388">
        <ele>1740.20</ele>
        <time>2018-07-13T19:32:48Z</time>
      </trkpt>
      <trkpt lat="27.952984" lon="-15.554419">
        <ele>1739.80</ele>
        <time>2018-07-13T19:32:49Z</time>
      </trkpt>
      <trkpt lat="27.952993" lon="-15.554449">
        <ele>1739.80</ele>
        <time>2018-07-13T19:32:50Z</time>
      </trkpt>
      <trkpt lat="27.953006" lon="-15.554477">
        <ele>1738.80</ele>
        <time>2018-07-13T19:32:51Z</time>
      </trkpt>
      <trkpt lat="27.953016" lon="-15.554501">
        <ele>1737.80</ele>
        <time>2018-07-13T19:32:52Z</time>
      </trkpt>
      <trkpt lat="27.953027" lon="-15.554528">
        <ele>1737.60</ele>
        <time>2018-07-13T19:32:53Z</time>
      </trkpt>
      <trkpt lat="27.953038" lon="-15.554552">
        <ele>1737.40</ele>
        <time>2018-07-13T19:32:54Z</time>
      </trkpt>
      <trkpt lat="27.953046" lon="-15.554576">
        <ele>1737.00</ele>
        <time>2018-07-13T19:32:55Z</time>
      </trkpt>
      <trkpt lat="27.953056" lon="-15.554601">
        <ele>1737.00</ele>
        <time>2018-07-13T19:32:56Z</time>
      </trkpt>
      <trkpt lat="27.953067" lon="-15.554627">
        <ele>1736.80</ele>
        <time>2018-07-13T19:32:57Z</time>
      </trkpt>
      <trkpt lat="27.953081" lon="-15.554656">
        <ele>1736.80</ele>
        <time>2018-07-13T19:32:58Z</time>
      </trkpt>
      <trkpt lat="27.953092" lon="-15.554675">
        <ele>1736.00</ele>
        <time>2018-07-13T19:32:59Z</time>
      </trkpt>
      <trkpt lat="27.953102" lon="-15.554699">
        <ele>1735.20</ele>
        <time>2018-07-13T19:33:00Z</time>
      </trkpt>
      <trkpt lat="27.953108" lon="-15.554720">
        <ele>1735.00</ele>
        <time>2018-07-13T19:33:01Z</time>
      </trkpt>
      <trkpt lat="27.953121" lon="-15.554749">
        <ele>1735.20</ele>
        <time>2018-07-13T19:33:02Z</time>
      </trkpt>
      <trkpt lat="27.953136" lon="-15.554773">
        <ele>1734.60</ele>
        <time>2018-07-13T19:33:03Z</time>
      </trkpt>
      <trkpt lat="27.953155" lon="-15.554798">
        <ele>1734.40</ele>
        <time>2018-07-13T19:33:04Z</time>
      </trkpt>
      <trkpt lat="27.953176" lon="-15.554821">
        <ele>1733.80</ele>
        <time>2018-07-13T19:33:05Z</time>
      </trkpt>
      <trkpt lat="27.953199" lon="-15.554841">
        <ele>1733.00</ele>
        <time>2018-07-13T19:33:06Z</time>
      </trkpt>
      <trkpt lat="27.953219" lon="-15.554860">
        <ele>1733.00</ele>
        <time>2018-07-13T19:33:07Z</time>
      </trkpt>
      <trkpt lat="27.953234" lon="-15.554879">
        <ele>1732.40</ele>
        <time>2018-07-13T19:33:08Z</time>
      </trkpt>
      <trkpt lat="27.953237" lon="-15.554916">
        <ele>1731.20</ele>
        <time>2018-07-13T19:33:10Z</time>
      </trkpt>
      <trkpt lat="27.953210" lon="-15.554916">
        <ele>1729.80</ele>
        <time>2018-07-13T19:33:12Z</time>
      </trkpt>
      <trkpt lat="27.953193" lon="-15.554898">
        <ele>1729.80</ele>
        <time>2018-07-13T19:33:13Z</time>
      </trkpt>
      <trkpt lat="27.953172" lon="-15.554877">
        <ele>1730.00</ele>
        <time>2018-07-13T19:33:14Z</time>
      </trkpt>
      <trkpt lat="27.953151" lon="-15.554854">
        <ele>1729.60</ele>
        <time>2018-07-13T19:33:15Z</time>
      </trkpt>
      <trkpt lat="27.953121" lon="-15.554832">
        <ele>1729.00</ele>
        <time>2018-07-13T19:33:16Z</time>
      </trkpt>
      <trkpt lat="27.953095" lon="-15.554817">
        <ele>1729.00</ele>
        <time>2018-07-13T19:33:17Z</time>
      </trkpt>
      <trkpt lat="27.953068" lon="-15.554806">
        <ele>1728.60</ele>
        <time>2018-07-13T19:33:18Z</time>
      </trkpt>
      <trkpt lat="27.953042" lon="-15.554793">
        <ele>1727.80</ele>
        <time>2018-07-13T19:33:19Z</time>
      </trkpt>
      <trkpt lat="27.953015" lon="-15.554782">
        <ele>1727.60</ele>
        <time>2018-07-13T19:33:20Z</time>
      </trkpt>
      <trkpt lat="27.952990" lon="-15.554768">
        <ele>1726.80</ele>
        <time>2018-07-13T19:33:21Z</time>
      </trkpt>
      <trkpt lat="27.952964" lon="-15.554750">
        <ele>1726.60</ele>
        <time>2018-07-13T19:33:22Z</time>
      </trkpt>
      <trkpt lat="27.952915" lon="-15.554711">
        <ele>1725.60</ele>
        <time>2018-07-13T19:33:24Z</time>
      </trkpt>
      <trkpt lat="27.952873" lon="-15.554668">
        <ele>1724.80</ele>
        <time>2018-07-13T19:33:26Z</time>
      </trkpt>
      <trkpt lat="27.952855" lon="-15.554646">
        <ele>1723.60</ele>
        <time>2018-07-13T19:33:27Z</time>
      </trkpt>
      <trkpt lat="27.952839" lon="-15.554626">
        <ele>1723.20</ele>
        <time>2018-07-13T19:33:28Z</time>
      </trkpt>
      <trkpt lat="27.952828" lon="-15.554602">
        <ele>1722.60</ele>
        <time>2018-07-13T19:33:29Z</time>
      </trkpt>
      <trkpt lat="27.952807" lon="-15.554576">
        <ele>1722.40</ele>
        <time>2018-07-13T19:33:30Z</time>
      </trkpt>
      <trkpt lat="27.952783" lon="-15.554553">
        <ele>1721.80</ele>
        <time>2018-07-13T19:33:31Z</time>
      </trkpt>
      <trkpt lat="27.952761" lon="-15.554534">
        <ele>1721.60</ele>
        <time>2018-07-13T19:33:32Z</time>
      </trkpt>
      <trkpt lat="27.952739" lon="-15.554513">
        <ele>1721.20</ele>
        <time>2018-07-13T19:33:33Z</time>
      </trkpt>
      <trkpt lat="27.952718" lon="-15.554490">
        <ele>1720.60</ele>
        <time>2018-07-13T19:33:34Z</time>
      </trkpt>
      <trkpt lat="27.952703" lon="-15.554466">
        <ele>1720.40</ele>
        <time>2018-07-13T19:33:35Z</time>
      </trkpt>
      <trkpt lat="27.952688" lon="-15.554443">
        <ele>1719.60</ele>
        <time>2018-07-13T19:33:36Z</time>
      </trkpt>
      <trkpt lat="27.952669" lon="-15.554424">
        <ele>1718.80</ele>
        <time>2018-07-13T19:33:37Z</time>
      </trkpt>
      <trkpt lat="27.952647" lon="-15.554402">
        <ele>1718.40</ele>
        <time>2018-07-13T19:33:38Z</time>
      </trkpt>
      <trkpt lat="27.952624" lon="-15.554380">
        <ele>1718.00</ele>
        <time>2018-07-13T19:33:39Z</time>
      </trkpt>
      <trkpt lat="27.952605" lon="-15.554356">
        <ele>1717.20</ele>
        <time>2018-07-13T19:33:40Z</time>
      </trkpt>
      <trkpt lat="27.952586" lon="-15.554330">
        <ele>1717.20</ele>
        <time>2018-07-13T19:33:41Z</time>
      </trkpt>
      <trkpt lat="27.952568" lon="-15.554305">
        <ele>1717.20</ele>
        <time>2018-07-13T19:33:42Z</time>
      </trkpt>
      <trkpt lat="27.952552" lon="-15.554277">
        <ele>1716.40</ele>
        <time>2018-07-13T19:33:43Z</time>
      </trkpt>
      <trkpt lat="27.952546" lon="-15.554244">
        <ele>1716.00</ele>
        <time>2018-07-13T19:33:44Z</time>
      </trkpt>
      <trkpt lat="27.952535" lon="-15.554215">
        <ele>1716.00</ele>
        <time>2018-07-13T19:33:45Z</time>
      </trkpt>
      <trkpt lat="27.952521" lon="-15.554185">
        <ele>1715.80</ele>
        <time>2018-07-13T19:33:46Z</time>
      </trkpt>
      <trkpt lat="27.952507" lon="-15.554154">
        <ele>1715.60</ele>
        <time>2018-07-13T19:33:47Z</time>
      </trkpt>
      <trkpt lat="27.952493" lon="-15.554130">
        <ele>1715.60</ele>
        <time>2018-07-13T19:33:48Z</time>
      </trkpt>
      <trkpt lat="27.952475" lon="-15.554100">
        <ele>1715.20</ele>
        <time>2018-07-13T19:33:49Z</time>
      </trkpt>
      <trkpt lat="27.952462" lon="-15.554076">
        <ele>1714.60</ele>
        <time>2018-07-13T19:33:50Z</time>
      </trkpt>
      <trkpt lat="27.952444" lon="-15.554050">
        <ele>1713.60</ele>
        <time>2018-07-13T19:33:51Z</time>
      </trkpt>
      <trkpt lat="27.952425" lon="-15.554026">
        <ele>1713.40</ele>
        <time>2018-07-13T19:33:52Z</time>
      </trkpt>
      <trkpt lat="27.952408" lon="-15.554000">
        <ele>1713.00</ele>
        <time>2018-07-13T19:33:53Z</time>
      </trkpt>
      <trkpt lat="27.952390" lon="-15.553973">
        <ele>1712.20</ele>
        <time>2018-07-13T19:33:54Z</time>
      </trkpt>
      <trkpt lat="27.952372" lon="-15.553949">
        <ele>1712.20</ele>
        <time>2018-07-13T19:33:55Z</time>
      </trkpt>
      <trkpt lat="27.952357" lon="-15.553926">
        <ele>1711.40</ele>
        <time>2018-07-13T19:33:56Z</time>
      </trkpt>
      <trkpt lat="27.952342" lon="-15.553902">
        <ele>1711.40</ele>
        <time>2018-07-13T19:33:57Z</time>
      </trkpt>
      <trkpt lat="27.952321" lon="-15.553879">
        <ele>1711.20</ele>
        <time>2018-07-13T19:33:58Z</time>
      </trkpt>
      <trkpt lat="27.952302" lon="-15.553853">
        <ele>1710.80</ele>
        <time>2018-07-13T19:33:59Z</time>
      </trkpt>
      <trkpt lat="27.952286" lon="-15.553832">
        <ele>1710.80</ele>
        <time>2018-07-13T19:34:00Z</time>
      </trkpt>
      <trkpt lat="27.952266" lon="-15.553809">
        <ele>1710.40</ele>
        <time>2018-07-13T19:34:01Z</time>
      </trkpt>
      <trkpt lat="27.952244" lon="-15.553795">
        <ele>1709.80</ele>
        <time>2018-07-13T19:34:02Z</time>
      </trkpt>
      <trkpt lat="27.952129" lon="-15.553772">
        <ele>1708.20</ele>
        <time>2018-07-13T19:34:06Z</time>
      </trkpt>
      <trkpt lat="27.952021" lon="-15.553761">
        <ele>1708.00</ele>
        <time>2018-07-13T19:34:10Z</time>
      </trkpt>
      <trkpt lat="27.951926" lon="-15.553754">
        <ele>1705.40</ele>
        <time>2018-07-13T19:34:14Z</time>
      </trkpt>
      <trkpt lat="27.951826" lon="-15.553749">
        <ele>1704.40</ele>
        <time>2018-07-13T19:34:18Z</time>
      </trkpt>
      <trkpt lat="27.951711" lon="-15.553734">
        <ele>1702.60</ele>
        <time>2018-07-13T19:34:22Z</time>
      </trkpt>
      <trkpt lat="27.951686" lon="-15.553728">
        <ele>1702.60</ele>
        <time>2018-07-13T19:34:23Z</time>
      </trkpt>
      <trkpt lat="27.951660" lon="-15.553715">
        <ele>1701.80</ele>
        <time>2018-07-13T19:34:24Z</time>
      </trkpt>
      <trkpt lat="27.951638" lon="-15.553692">
        <ele>1701.80</ele>
        <time>2018-07-13T19:34:25Z</time>
      </trkpt>
      <trkpt lat="27.951623" lon="-15.553665">
        <ele>1701.00</ele>
        <time>2018-07-13T19:34:26Z</time>
      </trkpt>
      <trkpt lat="27.951613" lon="-15.553639">
        <ele>1701.20</ele>
        <time>2018-07-13T19:34:27Z</time>
      </trkpt>
      <trkpt lat="27.951608" lon="-15.553611">
        <ele>1701.20</ele>
        <time>2018-07-13T19:34:28Z</time>
      </trkpt>
      <trkpt lat="27.951594" lon="-15.553584">
        <ele>1700.40</ele>
        <time>2018-07-13T19:34:29Z</time>
      </trkpt>
      <trkpt lat="27.951582" lon="-15.553557">
        <ele>1699.40</ele>
        <time>2018-07-13T19:34:30Z</time>
      </trkpt>
      <trkpt lat="27.951572" lon="-15.553530">
        <ele>1699.60</ele>
        <time>2018-07-13T19:34:31Z</time>
      </trkpt>
      <trkpt lat="27.951559" lon="-15.553502">
        <ele>1699.40</ele>
        <time>2018-07-13T19:34:32Z</time>
      </trkpt>
      <trkpt lat="27.951549" lon="-15.553474">
        <ele>1698.80</ele>
        <time>2018-07-13T19:34:33Z</time>
      </trkpt>
      <trkpt lat="27.951532" lon="-15.553444">
        <ele>1698.60</ele>
        <time>2018-07-13T19:34:34Z</time>
      </trkpt>
      <trkpt lat="27.951490" lon="-15.553348">
        <ele>1697.60</ele>
        <time>2018-07-13T19:34:37Z</time>
      </trkpt>
      <trkpt lat="27.951460" lon="-15.553230">
        <ele>1697.80</ele>
        <time>2018-07-13T19:34:41Z</time>
      </trkpt>
      <trkpt lat="27.951419" lon="-15.553113">
        <ele>1696.20</ele>
        <time>2018-07-13T19:34:46Z</time>
      </trkpt>
      <trkpt lat="27.951321" lon="-15.553066">
        <ele>1697.20</ele>
        <time>2018-07-13T19:34:51Z</time>
      </trkpt>
      <trkpt lat="27.951223" lon="-15.553053">
        <ele>1698.00</ele>
        <time>2018-07-13T19:34:57Z</time>
      </trkpt>
      <trkpt lat="27.951187" lon="-15.553027">
        <ele>1697.20</ele>
        <time>2018-07-13T19:35:00Z</time>
      </trkpt>
      <trkpt lat="27.951168" lon="-15.553006">
        <ele>1697.20</ele>
        <time>2018-07-13T19:35:02Z</time>
      </trkpt>
      <trkpt lat="27.951149" lon="-15.552994">
        <ele>1697.20</ele>
        <time>2018-07-13T19:35:04Z</time>
      </trkpt>
      <trkpt lat="27.951076" lon="-15.552909">
        <ele>1697.40</ele>
        <time>2018-07-13T19:35:09Z</time>
      </trkpt>
      <trkpt lat="27.951056" lon="-15.552894">
        <ele>1697.40</ele>
        <time>2018-07-13T19:35:10Z</time>
      </trkpt>
      <trkpt lat="27.951032" lon="-15.552878">
        <ele>1697.80</ele>
        <time>2018-07-13T19:35:11Z</time>
      </trkpt>
      <trkpt lat="27.950943" lon="-15.552809">
        <ele>1699.00</ele>
        <time>2018-07-13T19:35:15Z</time>
      </trkpt>
      <trkpt lat="27.950848" lon="-15.552746">
        <ele>1698.80</ele>
        <time>2018-07-13T19:35:19Z</time>
      </trkpt>
      <trkpt lat="27.950809" lon="-15.552704">
        <ele>1698.20</ele>
        <time>2018-07-13T19:35:21Z</time>
      </trkpt>
      <trkpt lat="27.950792" lon="-15.552679">
        <ele>1698.20</ele>
        <time>2018-07-13T19:35:22Z</time>
      </trkpt>
      <trkpt lat="27.950745" lon="-15.552581">
        <ele>1697.80</ele>
        <time>2018-07-13T19:35:26Z</time>
      </trkpt>
      <trkpt lat="27.950732" lon="-15.552476">
        <ele>1696.80</ele>
        <time>2018-07-13T19:35:30Z</time>
      </trkpt>
      <trkpt lat="27.950765" lon="-15.552361">
        <ele>1696.80</ele>
        <time>2018-07-13T19:35:34Z</time>
      </trkpt>
      <trkpt lat="27.950794" lon="-15.552237">
        <ele>1696.60</ele>
        <time>2018-07-13T19:35:39Z</time>
      </trkpt>
      <trkpt lat="27.950800" lon="-15.552109">
        <ele>1696.40</ele>
        <time>2018-07-13T19:35:43Z</time>
      </trkpt>
      <trkpt lat="27.950796" lon="-15.552003">
        <ele>1696.40</ele>
        <time>2018-07-13T19:35:46Z</time>
      </trkpt>
      <trkpt lat="27.950784" lon="-15.551898">
        <ele>1696.60</ele>
        <time>2018-07-13T19:35:49Z</time>
      </trkpt>
      <trkpt lat="27.950767" lon="-15.551792">
        <ele>1696.60</ele>
        <time>2018-07-13T19:35:53Z</time>
      </trkpt>
      <trkpt lat="27.950730" lon="-15.551682">
        <ele>1696.60</ele>
        <time>2018-07-13T19:35:57Z</time>
      </trkpt>
      <trkpt lat="27.950701" lon="-15.551574">
        <ele>1697.20</ele>
        <time>2018-07-13T19:36:01Z</time>
      </trkpt>
      <trkpt lat="27.950656" lon="-15.551464">
        <ele>1696.40</ele>
        <time>2018-07-13T19:36:06Z</time>
      </trkpt>
      <trkpt lat="27.950609" lon="-15.551353">
        <ele>1696.60</ele>
        <time>2018-07-13T19:36:11Z</time>
      </trkpt>
      <trkpt lat="27.950551" lon="-15.551263">
        <ele>1696.80</ele>
        <time>2018-07-13T19:36:15Z</time>
      </trkpt>
      <trkpt lat="27.950448" lon="-15.551234">
        <ele>1696.60</ele>
        <time>2018-07-13T19:36:19Z</time>
      </trkpt>
      <trkpt lat="27.950340" lon="-15.551208">
        <ele>1695.60</ele>
        <time>2018-07-13T19:36:23Z</time>
      </trkpt>
      <trkpt lat="27.950225" lon="-15.551155">
        <ele>1694.40</ele>
        <time>2018-07-13T19:36:27Z</time>
      </trkpt>
      <trkpt lat="27.950126" lon="-15.551125">
        <ele>1693.40</ele>
        <time>2018-07-13T19:36:30Z</time>
      </trkpt>
      <trkpt lat="27.950015" lon="-15.551115">
        <ele>1692.80</ele>
        <time>2018-07-13T19:36:34Z</time>
      </trkpt>
      <trkpt lat="27.949922" lon="-15.551155">
        <ele>1692.60</ele>
        <time>2018-07-13T19:36:37Z</time>
      </trkpt>
      <trkpt lat="27.949824" lon="-15.551156">
        <ele>1691.80</ele>
        <time>2018-07-13T19:36:41Z</time>
      </trkpt>
      <trkpt lat="27.949729" lon="-15.551177">
        <ele>1691.60</ele>
        <time>2018-07-13T19:36:48Z</time>
      </trkpt>
      <trkpt lat="27.949640" lon="-15.551212">
        <ele>1692.40</ele>
        <time>2018-07-13T19:36:55Z</time>
      </trkpt>
      <trkpt lat="27.949541" lon="-15.551231">
        <ele>1693.20</ele>
        <time>2018-07-13T19:37:01Z</time>
      </trkpt>
      <trkpt lat="27.949471" lon="-15.551250">
        <ele>1693.80</ele>
        <time>2018-07-13T19:37:06Z</time>
      </trkpt>
      <trkpt lat="27.949442" lon="-15.551250">
        <ele>1692.40</ele>
        <time>2018-07-13T19:37:08Z</time>
      </trkpt>
      <trkpt lat="27.949377" lon="-15.551267">
        <ele>1692.40</ele>
        <time>2018-07-13T19:37:13Z</time>
      </trkpt>
      <trkpt lat="27.949362" lon="-15.551280">
        <ele>1692.60</ele>
        <time>2018-07-13T19:37:14Z</time>
      </trkpt>
      <trkpt lat="27.949336" lon="-15.551294">
        <ele>1692.80</ele>
        <time>2018-07-13T19:37:16Z</time>
      </trkpt>
      <trkpt lat="27.949309" lon="-15.551307">
        <ele>1693.20</ele>
        <time>2018-07-13T19:37:18Z</time>
      </trkpt>
      <trkpt lat="27.949262" lon="-15.551316">
        <ele>1693.20</ele>
        <time>2018-07-13T19:37:22Z</time>
      </trkpt>
      <trkpt lat="27.949238" lon="-15.551313">
        <ele>1693.40</ele>
        <time>2018-07-13T19:37:24Z</time>
      </trkpt>
      <trkpt lat="27.949209" lon="-15.551306">
        <ele>1693.40</ele>
        <time>2018-07-13T19:37:26Z</time>
      </trkpt>
      <trkpt lat="27.949187" lon="-15.551304">
        <ele>1693.60</ele>
        <time>2018-07-13T19:37:28Z</time>
      </trkpt>
      <trkpt lat="27.949165" lon="-15.551299">
        <ele>1694.00</ele>
        <time>2018-07-13T19:37:30Z</time>
      </trkpt>
      <trkpt lat="27.949149" lon="-15.551285">
        <ele>1694.00</ele>
        <time>2018-07-13T19:37:32Z</time>
      </trkpt>
      <trkpt lat="27.949124" lon="-15.551269">
        <ele>1694.00</ele>
        <time>2018-07-13T19:37:34Z</time>
      </trkpt>
      <trkpt lat="27.949107" lon="-15.551263">
        <ele>1693.40</ele>
        <time>2018-07-13T19:37:35Z</time>
      </trkpt>
      <trkpt lat="27.949076" lon="-15.551256">
        <ele>1693.00</ele>
        <time>2018-07-13T19:37:37Z</time>
      </trkpt>
      <trkpt lat="27.949049" lon="-15.551247">
        <ele>1693.20</ele>
        <time>2018-07-13T19:37:39Z</time>
      </trkpt>
      <trkpt lat="27.949024" lon="-15.551243">
        <ele>1692.80</ele>
        <time>2018-07-13T19:37:41Z</time>
      </trkpt>
      <trkpt lat="27.949000" lon="-15.551245">
        <ele>1692.80</ele>
        <time>2018-07-13T19:37:42Z</time>
      </trkpt>
      <trkpt lat="27.948972" lon="-15.551252">
        <ele>1692.40</ele>
        <time>2018-07-13T19:37:43Z</time>
      </trkpt>
      <trkpt lat="27.948941" lon="-15.551263">
        <ele>1692.20</ele>
        <time>2018-07-13T19:37:44Z</time>
      </trkpt>
      <trkpt lat="27.948914" lon="-15.551274">
        <ele>1692.20</ele>
        <time>2018-07-13T19:37:45Z</time>
      </trkpt>
      <trkpt lat="27.948886" lon="-15.551289">
        <ele>1692.00</ele>
        <time>2018-07-13T19:37:46Z</time>
      </trkpt>
      <trkpt lat="27.948861" lon="-15.551302">
        <ele>1692.00</ele>
        <time>2018-07-13T19:37:47Z</time>
      </trkpt>
      <trkpt lat="27.948836" lon="-15.551318">
        <ele>1692.00</ele>
        <time>2018-07-13T19:37:48Z</time>
      </trkpt>
      <trkpt lat="27.948813" lon="-15.551327">
        <ele>1691.40</ele>
        <time>2018-07-13T19:37:49Z</time>
      </trkpt>
      <trkpt lat="27.948784" lon="-15.551336">
        <ele>1691.80</ele>
        <time>2018-07-13T19:37:50Z</time>
      </trkpt>
      <trkpt lat="27.948754" lon="-15.551341">
        <ele>1690.80</ele>
        <time>2018-07-13T19:37:51Z</time>
      </trkpt>
      <trkpt lat="27.948724" lon="-15.551340">
        <ele>1690.80</ele>
        <time>2018-07-13T19:37:52Z</time>
      </trkpt>
      <trkpt lat="27.948689" lon="-15.551337">
        <ele>1690.80</ele>
        <time>2018-07-13T19:37:53Z</time>
      </trkpt>
      <trkpt lat="27.948660" lon="-15.551332">
        <ele>1690.80</ele>
        <time>2018-07-13T19:37:54Z</time>
      </trkpt>
      <trkpt lat="27.948631" lon="-15.551327">
        <ele>1690.80</ele>
        <time>2018-07-13T19:37:55Z</time>
      </trkpt>
      <trkpt lat="27.948603" lon="-15.551317">
        <ele>1689.00</ele>
        <time>2018-07-13T19:37:56Z</time>
      </trkpt>
      <trkpt lat="27.948578" lon="-15.551303">
        <ele>1689.00</ele>
        <time>2018-07-13T19:37:57Z</time>
      </trkpt>
      <trkpt lat="27.948552" lon="-15.551288">
        <ele>1688.40</ele>
        <time>2018-07-13T19:37:58Z</time>
      </trkpt>
      <trkpt lat="27.948530" lon="-15.551266">
        <ele>1687.80</ele>
        <time>2018-07-13T19:37:59Z</time>
      </trkpt>
      <trkpt lat="27.948519" lon="-15.551235">
        <ele>1687.00</ele>
        <time>2018-07-13T19:38:00Z</time>
      </trkpt>
      <trkpt lat="27.948507" lon="-15.551200">
        <ele>1687.00</ele>
        <time>2018-07-13T19:38:01Z</time>
      </trkpt>
      <trkpt lat="27.948502" lon="-15.551167">
        <ele>1685.80</ele>
        <time>2018-07-13T19:38:02Z</time>
      </trkpt>
      <trkpt lat="27.948494" lon="-15.551133">
        <ele>1685.60</ele>
        <time>2018-07-13T19:38:03Z</time>
      </trkpt>
      <trkpt lat="27.948489" lon="-15.551103">
        <ele>1685.60</ele>
        <time>2018-07-13T19:38:04Z</time>
      </trkpt>
      <trkpt lat="27.948492" lon="-15.551075">
        <ele>1685.60</ele>
        <time>2018-07-13T19:38:05Z</time>
      </trkpt>
      <trkpt lat="27.948499" lon="-15.551043">
        <ele>1685.60</ele>
        <time>2018-07-13T19:38:06Z</time>
      </trkpt>
      <trkpt lat="27.948501" lon="-15.551010">
        <ele>1685.60</ele>
        <time>2018-07-13T19:38:07Z</time>
      </trkpt>
      <trkpt lat="27.948500" lon="-15.550975">
        <ele>1685.60</ele>
        <time>2018-07-13T19:38:08Z</time>
      </trkpt>
      <trkpt lat="27.948495" lon="-15.550941">
        <ele>1685.20</ele>
        <time>2018-07-13T19:38:09Z</time>
      </trkpt>
      <trkpt lat="27.948488" lon="-15.550904">
        <ele>1684.00</ele>
        <time>2018-07-13T19:38:10Z</time>
      </trkpt>
      <trkpt lat="27.948476" lon="-15.550866">
        <ele>1683.80</ele>
        <time>2018-07-13T19:38:11Z</time>
      </trkpt>
      <trkpt lat="27.948467" lon="-15.550829">
        <ele>1683.60</ele>
        <time>2018-07-13T19:38:12Z</time>
      </trkpt>
      <trkpt lat="27.948459" lon="-15.550797">
        <ele>1682.80</ele>
        <time>2018-07-13T19:38:13Z</time>
      </trkpt>
      <trkpt lat="27.948450" lon="-15.550761">
        <ele>1683.20</ele>
        <time>2018-07-13T19:38:14Z</time>
      </trkpt>
      <trkpt lat="27.948437" lon="-15.550729">
        <ele>1681.80</ele>
        <time>2018-07-13T19:38:15Z</time>
      </trkpt>
      <trkpt lat="27.948426" lon="-15.550697">
        <ele>1682.60</ele>
        <time>2018-07-13T19:38:16Z</time>
      </trkpt>
      <trkpt lat="27.948416" lon="-15.550667">
        <ele>1680.60</ele>
        <time>2018-07-13T19:38:17Z</time>
      </trkpt>
      <trkpt lat="27.948407" lon="-15.550635">
        <ele>1681.00</ele>
        <time>2018-07-13T19:38:18Z</time>
      </trkpt>
      <trkpt lat="27.948402" lon="-15.550599">
        <ele>1679.60</ele>
        <time>2018-07-13T19:38:19Z</time>
      </trkpt>
      <trkpt lat="27.948400" lon="-15.550561">
        <ele>1679.60</ele>
        <time>2018-07-13T19:38:20Z</time>
      </trkpt>
      <trkpt lat="27.948398" lon="-15.550527">
        <ele>1679.40</ele>
        <time>2018-07-13T19:38:21Z</time>
      </trkpt>
      <trkpt lat="27.948404" lon="-15.550488">
        <ele>1679.40</ele>
        <time>2018-07-13T19:38:22Z</time>
      </trkpt>
      <trkpt lat="27.948406" lon="-15.550452">
        <ele>1679.40</ele>
        <time>2018-07-13T19:38:23Z</time>
      </trkpt>
      <trkpt lat="27.948412" lon="-15.550418">
        <ele>1679.40</ele>
        <time>2018-07-13T19:38:24Z</time>
      </trkpt>
      <trkpt lat="27.948416" lon="-15.550382">
        <ele>1678.40</ele>
        <time>2018-07-13T19:38:25Z</time>
      </trkpt>
      <trkpt lat="27.948419" lon="-15.550349">
        <ele>1679.40</ele>
        <time>2018-07-13T19:38:26Z</time>
      </trkpt>
      <trkpt lat="27.948423" lon="-15.550318">
        <ele>1678.40</ele>
        <time>2018-07-13T19:38:27Z</time>
      </trkpt>
      <trkpt lat="27.948427" lon="-15.550289">
        <ele>1678.40</ele>
        <time>2018-07-13T19:38:28Z</time>
      </trkpt>
      <trkpt lat="27.948431" lon="-15.550254">
        <ele>1677.40</ele>
        <time>2018-07-13T19:38:29Z</time>
      </trkpt>
      <trkpt lat="27.948435" lon="-15.550223">
        <ele>1678.40</ele>
        <time>2018-07-13T19:38:30Z</time>
      </trkpt>
      <trkpt lat="27.948442" lon="-15.550190">
        <ele>1677.00</ele>
        <time>2018-07-13T19:38:31Z</time>
      </trkpt>
      <trkpt lat="27.948450" lon="-15.550158">
        <ele>1678.00</ele>
        <time>2018-07-13T19:38:32Z</time>
      </trkpt>
      <trkpt lat="27.948453" lon="-15.550125">
        <ele>1677.00</ele>
        <time>2018-07-13T19:38:33Z</time>
      </trkpt>
      <trkpt lat="27.948458" lon="-15.550094">
        <ele>1677.00</ele>
        <time>2018-07-13T19:38:34Z</time>
      </trkpt>
      <trkpt lat="27.948458" lon="-15.550066">
        <ele>1675.00</ele>
        <time>2018-07-13T19:38:35Z</time>
      </trkpt>
      <trkpt lat="27.948452" lon="-15.550035">
        <ele>1675.00</ele>
        <time>2018-07-13T19:38:36Z</time>
      </trkpt>
      <trkpt lat="27.948441" lon="-15.549999">
        <ele>1675.00</ele>
        <time>2018-07-13T19:38:37Z</time>
      </trkpt>
      <trkpt lat="27.948428" lon="-15.549968">
        <ele>1674.60</ele>
        <time>2018-07-13T19:38:38Z</time>
      </trkpt>
      <trkpt lat="27.948413" lon="-15.549935">
        <ele>1674.60</ele>
        <time>2018-07-13T19:38:39Z</time>
      </trkpt>
      <trkpt lat="27.948392" lon="-15.549906">
        <ele>1674.60</ele>
        <time>2018-07-13T19:38:40Z</time>
      </trkpt>
      <trkpt lat="27.948365" lon="-15.549886">
        <ele>1674.60</ele>
        <time>2018-07-13T19:38:41Z</time>
      </trkpt>
      <trkpt lat="27.948340" lon="-15.549871">
        <ele>1674.20</ele>
        <time>2018-07-13T19:38:42Z</time>
      </trkpt>
      <trkpt lat="27.948313" lon="-15.549858">
        <ele>1673.80</ele>
        <time>2018-07-13T19:38:43Z</time>
      </trkpt>
      <trkpt lat="27.948289" lon="-15.549842">
        <ele>1673.80</ele>
        <time>2018-07-13T19:38:44Z</time>
      </trkpt>
      <trkpt lat="27.948266" lon="-15.549824">
        <ele>1672.20</ele>
        <time>2018-07-13T19:38:45Z</time>
      </trkpt>
      <trkpt lat="27.948243" lon="-15.549806">
        <ele>1672.00</ele>
        <time>2018-07-13T19:38:46Z</time>
      </trkpt>
      <trkpt lat="27.948213" lon="-15.549783">
        <ele>1671.60</ele>
        <time>2018-07-13T19:38:47Z</time>
      </trkpt>
      <trkpt lat="27.948180" lon="-15.549764">
        <ele>1671.60</ele>
        <time>2018-07-13T19:38:48Z</time>
      </trkpt>
      <trkpt lat="27.948147" lon="-15.549744">
        <ele>1670.60</ele>
        <time>2018-07-13T19:38:49Z</time>
      </trkpt>
      <trkpt lat="27.948124" lon="-15.549715">
        <ele>1670.40</ele>
        <time>2018-07-13T19:38:50Z</time>
      </trkpt>
      <trkpt lat="27.948102" lon="-15.549684">
        <ele>1670.20</ele>
        <time>2018-07-13T19:38:51Z</time>
      </trkpt>
      <trkpt lat="27.948087" lon="-15.549651">
        <ele>1669.80</ele>
        <time>2018-07-13T19:38:52Z</time>
      </trkpt>
      <trkpt lat="27.948078" lon="-15.549621">
        <ele>1668.20</ele>
        <time>2018-07-13T19:38:53Z</time>
      </trkpt>
      <trkpt lat="27.948072" lon="-15.549592">
        <ele>1667.40</ele>
        <time>2018-07-13T19:38:54Z</time>
      </trkpt>
      <trkpt lat="27.948068" lon="-15.549561">
        <ele>1667.40</ele>
        <time>2018-07-13T19:38:55Z</time>
      </trkpt>
      <trkpt lat="27.948068" lon="-15.549530">
        <ele>1667.40</ele>
        <time>2018-07-13T19:38:56Z</time>
      </trkpt>
      <trkpt lat="27.948069" lon="-15.549506">
        <ele>1667.40</ele>
        <time>2018-07-13T19:38:57Z</time>
      </trkpt>
      <trkpt lat="27.948070" lon="-15.549474">
        <ele>1666.80</ele>
        <time>2018-07-13T19:38:58Z</time>
      </trkpt>
      <trkpt lat="27.948070" lon="-15.549446">
        <ele>1666.20</ele>
        <time>2018-07-13T19:38:59Z</time>
      </trkpt>
      <trkpt lat="27.948068" lon="-15.549418">
        <ele>1666.20</ele>
        <time>2018-07-13T19:39:00Z</time>
      </trkpt>
      <trkpt lat="27.948066" lon="-15.549393">
        <ele>1665.40</ele>
        <time>2018-07-13T19:39:01Z</time>
      </trkpt>
      <trkpt lat="27.948064" lon="-15.549363">
        <ele>1665.40</ele>
        <time>2018-07-13T19:39:02Z</time>
      </trkpt>
      <trkpt lat="27.948061" lon="-15.549333">
        <ele>1665.40</ele>
        <time>2018-07-13T19:39:03Z</time>
      </trkpt>
      <trkpt lat="27.948058" lon="-15.549304">
        <ele>1666.80</ele>
        <time>2018-07-13T19:39:04Z</time>
      </trkpt>
      <trkpt lat="27.948056" lon="-15.549273">
        <ele>1666.00</ele>
        <time>2018-07-13T19:39:05Z</time>
      </trkpt>
      <trkpt lat="27.948053" lon="-15.549238">
        <ele>1666.40</ele>
        <time>2018-07-13T19:39:06Z</time>
      </trkpt>
      <trkpt lat="27.948055" lon="-15.549211">
        <ele>1666.00</ele>
        <time>2018-07-13T19:39:07Z</time>
      </trkpt>
      <trkpt lat="27.948054" lon="-15.549186">
        <ele>1666.00</ele>
        <time>2018-07-13T19:39:08Z</time>
      </trkpt>
      <trkpt lat="27.948056" lon="-15.549153">
        <ele>1665.80</ele>
        <time>2018-07-13T19:39:09Z</time>
      </trkpt>
      <trkpt lat="27.948059" lon="-15.549121">
        <ele>1665.80</ele>
        <time>2018-07-13T19:39:10Z</time>
      </trkpt>
      <trkpt lat="27.948066" lon="-15.549092">
        <ele>1665.80</ele>
        <time>2018-07-13T19:39:11Z</time>
      </trkpt>
      <trkpt lat="27.948065" lon="-15.549063">
        <ele>1665.40</ele>
        <time>2018-07-13T19:39:12Z</time>
      </trkpt>
      <trkpt lat="27.948067" lon="-15.549031">
        <ele>1665.40</ele>
        <time>2018-07-13T19:39:13Z</time>
      </trkpt>
      <trkpt lat="27.948069" lon="-15.549006">
        <ele>1665.40</ele>
        <time>2018-07-13T19:39:14Z</time>
      </trkpt>
      <trkpt lat="27.948074" lon="-15.548976">
        <ele>1665.80</ele>
        <time>2018-07-13T19:39:15Z</time>
      </trkpt>
      <trkpt lat="27.948081" lon="-15.548947">
        <ele>1664.20</ele>
        <time>2018-07-13T19:39:16Z</time>
      </trkpt>
      <trkpt lat="27.948091" lon="-15.548925">
        <ele>1665.80</ele>
        <time>2018-07-13T19:39:17Z</time>
      </trkpt>
      <trkpt lat="27.948090" lon="-15.548903">
        <ele>1664.80</ele>
        <time>2018-07-13T19:39:18Z</time>
      </trkpt>
      <trkpt lat="27.948097" lon="-15.548884">
        <ele>1664.80</ele>
        <time>2018-07-13T19:39:19Z</time>
      </trkpt>
      <trkpt lat="27.948101" lon="-15.548849">
        <ele>1664.80</ele>
        <time>2018-07-13T19:39:21Z</time>
      </trkpt>
      <trkpt lat="27.948108" lon="-15.548818">
        <ele>1664.60</ele>
        <time>2018-07-13T19:39:23Z</time>
      </trkpt>
      <trkpt lat="27.948132" lon="-15.548796">
        <ele>1664.60</ele>
        <time>2018-07-13T19:39:25Z</time>
      </trkpt>
      <trkpt lat="27.948142" lon="-15.548778">
        <ele>1664.60</ele>
        <time>2018-07-13T19:39:26Z</time>
      </trkpt>
      <trkpt lat="27.948156" lon="-15.548761">
        <ele>1664.60</ele>
        <time>2018-07-13T19:39:27Z</time>
      </trkpt>
      <trkpt lat="27.948170" lon="-15.548745">
        <ele>1664.80</ele>
        <time>2018-07-13T19:39:28Z</time>
      </trkpt>
      <trkpt lat="27.948187" lon="-15.548735">
        <ele>1665.00</ele>
        <time>2018-07-13T19:39:29Z</time>
      </trkpt>
      <trkpt lat="27.948206" lon="-15.548720">
        <ele>1665.00</ele>
        <time>2018-07-13T19:39:30Z</time>
      </trkpt>
      <trkpt lat="27.948226" lon="-15.548709">
        <ele>1665.00</ele>
        <time>2018-07-13T19:39:31Z</time>
      </trkpt>
      <trkpt lat="27.948250" lon="-15.548691">
        <ele>1665.00</ele>
        <time>2018-07-13T19:39:32Z</time>
      </trkpt>
      <trkpt lat="27.948270" lon="-15.548673">
        <ele>1665.20</ele>
        <time>2018-07-13T19:39:33Z</time>
      </trkpt>
      <trkpt lat="27.948290" lon="-15.548650">
        <ele>1665.40</ele>
        <time>2018-07-13T19:39:34Z</time>
      </trkpt>
      <trkpt lat="27.948306" lon="-15.548623">
        <ele>1665.40</ele>
        <time>2018-07-13T19:39:35Z</time>
      </trkpt>
      <trkpt lat="27.948319" lon="-15.548596">
        <ele>1665.40</ele>
        <time>2018-07-13T19:39:36Z</time>
      </trkpt>
      <trkpt lat="27.948332" lon="-15.548569">
        <ele>1665.40</ele>
        <time>2018-07-13T19:39:37Z</time>
      </trkpt>
      <trkpt lat="27.948343" lon="-15.548546">
        <ele>1665.40</ele>
        <time>2018-07-13T19:39:38Z</time>
      </trkpt>
      <trkpt lat="27.948354" lon="-15.548518">
        <ele>1665.40</ele>
        <time>2018-07-13T19:39:39Z</time>
      </trkpt>
      <trkpt lat="27.948364" lon="-15.548492">
        <ele>1666.00</ele>
        <time>2018-07-13T19:39:40Z</time>
      </trkpt>
      <trkpt lat="27.948370" lon="-15.548468">
        <ele>1665.00</ele>
        <time>2018-07-13T19:39:41Z</time>
      </trkpt>
      <trkpt lat="27.948384" lon="-15.548436">
        <ele>1666.20</ele>
        <time>2018-07-13T19:39:43Z</time>
      </trkpt>
      <trkpt lat="27.948400" lon="-15.548409">
        <ele>1665.60</ele>
        <time>2018-07-13T19:39:45Z</time>
      </trkpt>
      <trkpt lat="27.948422" lon="-15.548383">
        <ele>1665.40</ele>
        <time>2018-07-13T19:39:47Z</time>
      </trkpt>
      <trkpt lat="27.948447" lon="-15.548366">
        <ele>1665.20</ele>
        <time>2018-07-13T19:39:49Z</time>
      </trkpt>
      <trkpt lat="27.948469" lon="-15.548348">
        <ele>1665.00</ele>
        <time>2018-07-13T19:39:51Z</time>
      </trkpt>
      <trkpt lat="27.948492" lon="-15.548335">
        <ele>1664.80</ele>
        <time>2018-07-13T19:39:53Z</time>
      </trkpt>
      <trkpt lat="27.948513" lon="-15.548319">
        <ele>1664.80</ele>
        <time>2018-07-13T19:39:55Z</time>
      </trkpt>
      <trkpt lat="27.948532" lon="-15.548304">
        <ele>1664.80</ele>
        <time>2018-07-13T19:39:57Z</time>
      </trkpt>
      <trkpt lat="27.948563" lon="-15.548275">
        <ele>1665.20</ele>
        <time>2018-07-13T19:39:59Z</time>
      </trkpt>
      <trkpt lat="27.948575" lon="-15.548257">
        <ele>1665.40</ele>
        <time>2018-07-13T19:40:00Z</time>
      </trkpt>
      <trkpt lat="27.948586" lon="-15.548240">
        <ele>1665.80</ele>
        <time>2018-07-13T19:40:01Z</time>
      </trkpt>
      <trkpt lat="27.948599" lon="-15.548219">
        <ele>1665.80</ele>
        <time>2018-07-13T19:40:02Z</time>
      </trkpt>
      <trkpt lat="27.948614" lon="-15.548199">
        <ele>1665.80</ele>
        <time>2018-07-13T19:40:03Z</time>
      </trkpt>
      <trkpt lat="27.948625" lon="-15.548179">
        <ele>1666.20</ele>
        <time>2018-07-13T19:40:04Z</time>
      </trkpt>
      <trkpt lat="27.948636" lon="-15.548153">
        <ele>1666.20</ele>
        <time>2018-07-13T19:40:05Z</time>
      </trkpt>
      <trkpt lat="27.948644" lon="-15.548129">
        <ele>1666.80</ele>
        <time>2018-07-13T19:40:06Z</time>
      </trkpt>
      <trkpt lat="27.948651" lon="-15.548105">
        <ele>1666.80</ele>
        <time>2018-07-13T19:40:07Z</time>
      </trkpt>
      <trkpt lat="27.948659" lon="-15.548078">
        <ele>1666.80</ele>
        <time>2018-07-13T19:40:08Z</time>
      </trkpt>
      <trkpt lat="27.948668" lon="-15.548053">
        <ele>1666.80</ele>
        <time>2018-07-13T19:40:09Z</time>
      </trkpt>
      <trkpt lat="27.948676" lon="-15.548024">
        <ele>1666.80</ele>
        <time>2018-07-13T19:40:10Z</time>
      </trkpt>
      <trkpt lat="27.948683" lon="-15.547998">
        <ele>1666.80</ele>
        <time>2018-07-13T19:40:11Z</time>
      </trkpt>
      <trkpt lat="27.948685" lon="-15.547971">
        <ele>1666.80</ele>
        <time>2018-07-13T19:40:12Z</time>
      </trkpt>
      <trkpt lat="27.948686" lon="-15.547942">
        <ele>1667.00</ele>
        <time>2018-07-13T19:40:13Z</time>
      </trkpt>
      <trkpt lat="27.948690" lon="-15.547912">
        <ele>1666.20</ele>
        <time>2018-07-13T19:40:14Z</time>
      </trkpt>
      <trkpt lat="27.948694" lon="-15.547884">
        <ele>1666.20</ele>
        <time>2018-07-13T19:40:15Z</time>
      </trkpt>
      <trkpt lat="27.948700" lon="-15.547855">
        <ele>1666.20</ele>
        <time>2018-07-13T19:40:16Z</time>
      </trkpt>
      <trkpt lat="27.948705" lon="-15.547819">
        <ele>1666.20</ele>
        <time>2018-07-13T19:40:17Z</time>
      </trkpt>
      <trkpt lat="27.948710" lon="-15.547785">
        <ele>1666.00</ele>
        <time>2018-07-13T19:40:18Z</time>
      </trkpt>
      <trkpt lat="27.948712" lon="-15.547758">
        <ele>1666.00</ele>
        <time>2018-07-13T19:40:19Z</time>
      </trkpt>
      <trkpt lat="27.948720" lon="-15.547728">
        <ele>1666.00</ele>
        <time>2018-07-13T19:40:20Z</time>
      </trkpt>
      <trkpt lat="27.948721" lon="-15.547700">
        <ele>1666.00</ele>
        <time>2018-07-13T19:40:21Z</time>
      </trkpt>
      <trkpt lat="27.948717" lon="-15.547672">
        <ele>1666.20</ele>
        <time>2018-07-13T19:40:22Z</time>
      </trkpt>
      <trkpt lat="27.948708" lon="-15.547640">
        <ele>1665.00</ele>
        <time>2018-07-13T19:40:23Z</time>
      </trkpt>
      <trkpt lat="27.948691" lon="-15.547606">
        <ele>1666.20</ele>
        <time>2018-07-13T19:40:24Z</time>
      </trkpt>
      <trkpt lat="27.948670" lon="-15.547577">
        <ele>1665.00</ele>
        <time>2018-07-13T19:40:25Z</time>
      </trkpt>
      <trkpt lat="27.948646" lon="-15.547552">
        <ele>1665.60</ele>
        <time>2018-07-13T19:40:26Z</time>
      </trkpt>
      <trkpt lat="27.948618" lon="-15.547530">
        <ele>1665.60</ele>
        <time>2018-07-13T19:40:27Z</time>
      </trkpt>
      <trkpt lat="27.948590" lon="-15.547515">
        <ele>1665.40</ele>
        <time>2018-07-13T19:40:28Z</time>
      </trkpt>
      <trkpt lat="27.948562" lon="-15.547495">
        <ele>1664.60</ele>
        <time>2018-07-13T19:40:29Z</time>
      </trkpt>
      <trkpt lat="27.948538" lon="-15.547485">
        <ele>1664.60</ele>
        <time>2018-07-13T19:40:30Z</time>
      </trkpt>
      <trkpt lat="27.948517" lon="-15.547479">
        <ele>1664.60</ele>
        <time>2018-07-13T19:40:31Z</time>
      </trkpt>
      <trkpt lat="27.948500" lon="-15.547469">
        <ele>1664.60</ele>
        <time>2018-07-13T19:40:32Z</time>
      </trkpt>
      <trkpt lat="27.948481" lon="-15.547460">
        <ele>1663.60</ele>
        <time>2018-07-13T19:40:33Z</time>
      </trkpt>
      <trkpt lat="27.948443" lon="-15.547450">
        <ele>1663.20</ele>
        <time>2018-07-13T19:40:35Z</time>
      </trkpt>
      <trkpt lat="27.948412" lon="-15.547443">
        <ele>1663.20</ele>
        <time>2018-07-13T19:40:37Z</time>
      </trkpt>
      <trkpt lat="27.948394" lon="-15.547429">
        <ele>1662.80</ele>
        <time>2018-07-13T19:40:39Z</time>
      </trkpt>
      <trkpt lat="27.948365" lon="-15.547419">
        <ele>1662.60</ele>
        <time>2018-07-13T19:40:41Z</time>
      </trkpt>
      <trkpt lat="27.948339" lon="-15.547408">
        <ele>1662.60</ele>
        <time>2018-07-13T19:40:43Z</time>
      </trkpt>
      <trkpt lat="27.948318" lon="-15.547392">
        <ele>1662.80</ele>
        <time>2018-07-13T19:40:45Z</time>
      </trkpt>
      <trkpt lat="27.948289" lon="-15.547374">
        <ele>1662.80</ele>
        <time>2018-07-13T19:40:47Z</time>
      </trkpt>
      <trkpt lat="27.948258" lon="-15.547359">
        <ele>1662.60</ele>
        <time>2018-07-13T19:40:49Z</time>
      </trkpt>
      <trkpt lat="27.948228" lon="-15.547343">
        <ele>1662.20</ele>
        <time>2018-07-13T19:40:51Z</time>
      </trkpt>
      <trkpt lat="27.948208" lon="-15.547326">
        <ele>1662.20</ele>
        <time>2018-07-13T19:40:53Z</time>
      </trkpt>
      <trkpt lat="27.948190" lon="-15.547305">
        <ele>1662.20</ele>
        <time>2018-07-13T19:40:55Z</time>
      </trkpt>
      <trkpt lat="27.948177" lon="-15.547291">
        <ele>1662.00</ele>
        <time>2018-07-13T19:40:56Z</time>
      </trkpt>
      <trkpt lat="27.948162" lon="-15.547269">
        <ele>1661.60</ele>
        <time>2018-07-13T19:40:58Z</time>
      </trkpt>
      <trkpt lat="27.948145" lon="-15.547257">
        <ele>1661.60</ele>
        <time>2018-07-13T19:41:00Z</time>
      </trkpt>
      <trkpt lat="27.948136" lon="-15.547239">
        <ele>1661.40</ele>
        <time>2018-07-13T19:41:02Z</time>
      </trkpt>
      <trkpt lat="27.948127" lon="-15.547211">
        <ele>1661.60</ele>
        <time>2018-07-13T19:41:04Z</time>
      </trkpt>
      <trkpt lat="27.948129" lon="-15.547184">
        <ele>1661.80</ele>
        <time>2018-07-13T19:41:06Z</time>
      </trkpt>
      <trkpt lat="27.948131" lon="-15.547155">
        <ele>1661.40</ele>
        <time>2018-07-13T19:41:08Z</time>
      </trkpt>
      <trkpt lat="27.948144" lon="-15.547134">
        <ele>1660.80</ele>
        <time>2018-07-13T19:41:10Z</time>
      </trkpt>
      <trkpt lat="27.948164" lon="-15.547109">
        <ele>1660.40</ele>
        <time>2018-07-13T19:41:13Z</time>
      </trkpt>
      <trkpt lat="27.948171" lon="-15.547084">
        <ele>1660.60</ele>
        <time>2018-07-13T19:41:15Z</time>
      </trkpt>
      <trkpt lat="27.948190" lon="-15.547060">
        <ele>1661.00</ele>
        <time>2018-07-13T19:41:17Z</time>
      </trkpt>
      <trkpt lat="27.948211" lon="-15.547036">
        <ele>1661.20</ele>
        <time>2018-07-13T19:41:19Z</time>
      </trkpt>
      <trkpt lat="27.948225" lon="-15.547008">
        <ele>1661.20</ele>
        <time>2018-07-13T19:41:21Z</time>
      </trkpt>
      <trkpt lat="27.948243" lon="-15.546977">
        <ele>1661.40</ele>
        <time>2018-07-13T19:41:23Z</time>
      </trkpt>
      <trkpt lat="27.948268" lon="-15.546954">
        <ele>1661.40</ele>
        <time>2018-07-13T19:41:25Z</time>
      </trkpt>
      <trkpt lat="27.948291" lon="-15.546934">
        <ele>1661.40</ele>
        <time>2018-07-13T19:41:27Z</time>
      </trkpt>
      <trkpt lat="27.948303" lon="-15.546909">
        <ele>1661.00</ele>
        <time>2018-07-13T19:41:30Z</time>
      </trkpt>
      <trkpt lat="27.948311" lon="-15.546883">
        <ele>1660.80</ele>
        <time>2018-07-13T19:41:32Z</time>
      </trkpt>
      <trkpt lat="27.948308" lon="-15.546855">
        <ele>1660.80</ele>
        <time>2018-07-13T19:41:34Z</time>
      </trkpt>
      <trkpt lat="27.948300" lon="-15.546829">
        <ele>1660.80</ele>
        <time>2018-07-13T19:41:35Z</time>
      </trkpt>
      <trkpt lat="27.948303" lon="-15.546808">
        <ele>1660.60</ele>
        <time>2018-07-13T19:41:36Z</time>
      </trkpt>
      <trkpt lat="27.948312" lon="-15.546777">
        <ele>1660.60</ele>
        <time>2018-07-13T19:41:38Z</time>
      </trkpt>
      <trkpt lat="27.948308" lon="-15.546743">
        <ele>1660.80</ele>
        <time>2018-07-13T19:41:40Z</time>
      </trkpt>
      <trkpt lat="27.948306" lon="-15.546723">
        <ele>1660.80</ele>
        <time>2018-07-13T19:41:41Z</time>
      </trkpt>
      <trkpt lat="27.948300" lon="-15.546689">
        <ele>1661.00</ele>
        <time>2018-07-13T19:41:43Z</time>
      </trkpt>
      <trkpt lat="27.948286" lon="-15.546655">
        <ele>1661.00</ele>
        <time>2018-07-13T19:41:45Z</time>
      </trkpt>
      <trkpt lat="27.948285" lon="-15.546616">
        <ele>1661.00</ele>
        <time>2018-07-13T19:41:47Z</time>
      </trkpt>
      <trkpt lat="27.948287" lon="-15.546581">
        <ele>1661.20</ele>
        <time>2018-07-13T19:41:49Z</time>
      </trkpt>
      <trkpt lat="27.948281" lon="-15.546562">
        <ele>1661.60</ele>
        <time>2018-07-13T19:41:50Z</time>
      </trkpt>
      <trkpt lat="27.948264" lon="-15.546532">
        <ele>1662.00</ele>
        <time>2018-07-13T19:41:52Z</time>
      </trkpt>
      <trkpt lat="27.948258" lon="-15.546501">
        <ele>1662.80</ele>
        <time>2018-07-13T19:41:54Z</time>
      </trkpt>
      <trkpt lat="27.948260" lon="-15.546474">
        <ele>1662.80</ele>
        <time>2018-07-13T19:41:56Z</time>
      </trkpt>
      <trkpt lat="27.948266" lon="-15.546454">
        <ele>1663.40</ele>
        <time>2018-07-13T19:41:58Z</time>
      </trkpt>
      <trkpt lat="27.948264" lon="-15.546431">
        <ele>1663.40</ele>
        <time>2018-07-13T19:42:00Z</time>
      </trkpt>
      <trkpt lat="27.948262" lon="-15.546402">
        <ele>1663.60</ele>
        <time>2018-07-13T19:42:02Z</time>
      </trkpt>
      <trkpt lat="27.948263" lon="-15.546378">
        <ele>1663.80</ele>
        <time>2018-07-13T19:42:04Z</time>
      </trkpt>
      <trkpt lat="27.948262" lon="-15.546348">
        <ele>1663.80</ele>
        <time>2018-07-13T19:42:06Z</time>
      </trkpt>
      <trkpt lat="27.948258" lon="-15.546321">
        <ele>1664.20</ele>
        <time>2018-07-13T19:42:08Z</time>
      </trkpt>
      <trkpt lat="27.948265" lon="-15.546296">
        <ele>1664.20</ele>
        <time>2018-07-13T19:42:10Z</time>
      </trkpt>
      <trkpt lat="27.948269" lon="-15.546270">
        <ele>1664.60</ele>
        <time>2018-07-13T19:42:12Z</time>
      </trkpt>
      <trkpt lat="27.948274" lon="-15.546241">
        <ele>1664.20</ele>
        <time>2018-07-13T19:42:14Z</time>
      </trkpt>
      <trkpt lat="27.948278" lon="-15.546214">
        <ele>1664.20</ele>
        <time>2018-07-13T19:42:16Z</time>
      </trkpt>
      <trkpt lat="27.948273" lon="-15.546182">
        <ele>1664.20</ele>
        <time>2018-07-13T19:42:18Z</time>
      </trkpt>
      <trkpt lat="27.948268" lon="-15.546144">
        <ele>1665.00</ele>
        <time>2018-07-13T19:42:20Z</time>
      </trkpt>
      <trkpt lat="27.948261" lon="-15.546113">
        <ele>1665.60</ele>
        <time>2018-07-13T19:42:22Z</time>
      </trkpt>
      <trkpt lat="27.948247" lon="-15.546094">
        <ele>1665.40</ele>
        <time>2018-07-13T19:42:26Z</time>
      </trkpt>
      <trkpt lat="27.948252" lon="-15.546073">
        <ele>1665.60</ele>
        <time>2018-07-13T19:42:30Z</time>
      </trkpt>
      <trkpt lat="27.948243" lon="-15.546043">
        <ele>1665.80</ele>
        <time>2018-07-13T19:42:32Z</time>
      </trkpt>
      <trkpt lat="27.948240" lon="-15.546006">
        <ele>1665.80</ele>
        <time>2018-07-13T19:42:34Z</time>
      </trkpt>
      <trkpt lat="27.948243" lon="-15.545970">
        <ele>1666.00</ele>
        <time>2018-07-13T19:42:36Z</time>
      </trkpt>
      <trkpt lat="27.948247" lon="-15.545937">
        <ele>1666.00</ele>
        <time>2018-07-13T19:42:38Z</time>
      </trkpt>
      <trkpt lat="27.948248" lon="-15.545908">
        <ele>1666.00</ele>
        <time>2018-07-13T19:42:40Z</time>
      </trkpt>
      <trkpt lat="27.948245" lon="-15.545876">
        <ele>1666.00</ele>
        <time>2018-07-13T19:42:42Z</time>
      </trkpt>
      <trkpt lat="27.948239" lon="-15.545856">
        <ele>1666.00</ele>
        <time>2018-07-13T19:42:43Z</time>
      </trkpt>
      <trkpt lat="27.948235" lon="-15.545828">
        <ele>1666.20</ele>
        <time>2018-07-13T19:42:45Z</time>
      </trkpt>
      <trkpt lat="27.948236" lon="-15.545797">
        <ele>1666.80</ele>
        <time>2018-07-13T19:42:47Z</time>
      </trkpt>
      <trkpt lat="27.948241" lon="-15.545777">
        <ele>1666.60</ele>
        <time>2018-07-13T19:42:49Z</time>
      </trkpt>
      <trkpt lat="27.948250" lon="-15.545747">
        <ele>1666.00</ele>
        <time>2018-07-13T19:42:52Z</time>
      </trkpt>
      <trkpt lat="27.948243" lon="-15.545714">
        <ele>1665.80</ele>
        <time>2018-07-13T19:42:54Z</time>
      </trkpt>
      <trkpt lat="27.948241" lon="-15.545684">
        <ele>1665.80</ele>
        <time>2018-07-13T19:42:56Z</time>
      </trkpt>
      <trkpt lat="27.948248" lon="-15.545660">
        <ele>1665.80</ele>
        <time>2018-07-13T19:42:58Z</time>
      </trkpt>
      <trkpt lat="27.948259" lon="-15.545640">
        <ele>1665.60</ele>
        <time>2018-07-13T19:43:00Z</time>
      </trkpt>
      <trkpt lat="27.948236" lon="-15.545602">
        <ele>1665.60</ele>
        <time>2018-07-13T19:43:02Z</time>
      </trkpt>
      <trkpt lat="27.948239" lon="-15.545568">
        <ele>1665.60</ele>
        <time>2018-07-13T19:43:04Z</time>
      </trkpt>
      <trkpt lat="27.948244" lon="-15.545530">
        <ele>1665.80</ele>
        <time>2018-07-13T19:43:06Z</time>
      </trkpt>
      <trkpt lat="27.948246" lon="-15.545492">
        <ele>1666.00</ele>
        <time>2018-07-13T19:43:08Z</time>
      </trkpt>
      <trkpt lat="27.948240" lon="-15.545462">
        <ele>1666.00</ele>
        <time>2018-07-13T19:43:09Z</time>
      </trkpt>
      <trkpt lat="27.948231" lon="-15.545431">
        <ele>1665.80</ele>
        <time>2018-07-13T19:43:10Z</time>
      </trkpt>
      <trkpt lat="27.948224" lon="-15.545403">
        <ele>1665.80</ele>
        <time>2018-07-13T19:43:11Z</time>
      </trkpt>
      <trkpt lat="27.948216" lon="-15.545373">
        <ele>1665.60</ele>
        <time>2018-07-13T19:43:12Z</time>
      </trkpt>
      <trkpt lat="27.948212" lon="-15.545343">
        <ele>1665.40</ele>
        <time>2018-07-13T19:43:13Z</time>
      </trkpt>
      <trkpt lat="27.948209" lon="-15.545314">
        <ele>1665.60</ele>
        <time>2018-07-13T19:43:14Z</time>
      </trkpt>
      <trkpt lat="27.948202" lon="-15.545285">
        <ele>1665.40</ele>
        <time>2018-07-13T19:43:15Z</time>
      </trkpt>
      <trkpt lat="27.948194" lon="-15.545262">
        <ele>1665.40</ele>
        <time>2018-07-13T19:43:16Z</time>
      </trkpt>
      <trkpt lat="27.948186" lon="-15.545234">
        <ele>1665.40</ele>
        <time>2018-07-13T19:43:17Z</time>
      </trkpt>
      <trkpt lat="27.948181" lon="-15.545204">
        <ele>1665.40</ele>
        <time>2018-07-13T19:43:18Z</time>
      </trkpt>
      <trkpt lat="27.948173" lon="-15.545172">
        <ele>1665.40</ele>
        <time>2018-07-13T19:43:19Z</time>
      </trkpt>
      <trkpt lat="27.948168" lon="-15.545143">
        <ele>1666.80</ele>
        <time>2018-07-13T19:43:20Z</time>
      </trkpt>
      <trkpt lat="27.948165" lon="-15.545113">
        <ele>1665.40</ele>
        <time>2018-07-13T19:43:21Z</time>
      </trkpt>
      <trkpt lat="27.948161" lon="-15.545088">
        <ele>1666.00</ele>
        <time>2018-07-13T19:43:22Z</time>
      </trkpt>
      <trkpt lat="27.948155" lon="-15.545053">
        <ele>1665.20</ele>
        <time>2018-07-13T19:43:23Z</time>
      </trkpt>
      <trkpt lat="27.948152" lon="-15.545025">
        <ele>1665.20</ele>
        <time>2018-07-13T19:43:24Z</time>
      </trkpt>
      <trkpt lat="27.948152" lon="-15.544993">
        <ele>1665.20</ele>
        <time>2018-07-13T19:43:25Z</time>
      </trkpt>
      <trkpt lat="27.948151" lon="-15.544960">
        <ele>1665.20</ele>
        <time>2018-07-13T19:43:26Z</time>
      </trkpt>
      <trkpt lat="27.948154" lon="-15.544929">
        <ele>1665.20</ele>
        <time>2018-07-13T19:43:27Z</time>
      </trkpt>
      <trkpt lat="27.948155" lon="-15.544898">
        <ele>1665.20</ele>
        <time>2018-07-13T19:43:28Z</time>
      </trkpt>
      <trkpt lat="27.948154" lon="-15.544869">
        <ele>1665.20</ele>
        <time>2018-07-13T19:43:29Z</time>
      </trkpt>
      <trkpt lat="27.948152" lon="-15.544838">
        <ele>1665.20</ele>
        <time>2018-07-13T19:43:30Z</time>
      </trkpt>
      <trkpt lat="27.948152" lon="-15.544811">
        <ele>1666.00</ele>
        <time>2018-07-13T19:43:31Z</time>
      </trkpt>
      <trkpt lat="27.948153" lon="-15.544778">
        <ele>1664.80</ele>
        <time>2018-07-13T19:43:32Z</time>
      </trkpt>
      <trkpt lat="27.948152" lon="-15.544755">
        <ele>1665.80</ele>
        <time>2018-07-13T19:43:33Z</time>
      </trkpt>
      <trkpt lat="27.948150" lon="-15.544725">
        <ele>1664.80</ele>
        <time>2018-07-13T19:43:34Z</time>
      </trkpt>
      <trkpt lat="27.948149" lon="-15.544694">
        <ele>1665.80</ele>
        <time>2018-07-13T19:43:35Z</time>
      </trkpt>
      <trkpt lat="27.948146" lon="-15.544665">
        <ele>1663.80</ele>
        <time>2018-07-13T19:43:36Z</time>
      </trkpt>
      <trkpt lat="27.948148" lon="-15.544635">
        <ele>1664.80</ele>
        <time>2018-07-13T19:43:37Z</time>
      </trkpt>
      <trkpt lat="27.948150" lon="-15.544603">
        <ele>1663.60</ele>
        <time>2018-07-13T19:43:38Z</time>
      </trkpt>
      <trkpt lat="27.948153" lon="-15.544571">
        <ele>1664.80</ele>
        <time>2018-07-13T19:43:39Z</time>
      </trkpt>
      <trkpt lat="27.948157" lon="-15.544544">
        <ele>1663.60</ele>
        <time>2018-07-13T19:43:40Z</time>
      </trkpt>
      <trkpt lat="27.948159" lon="-15.544512">
        <ele>1663.80</ele>
        <time>2018-07-13T19:43:41Z</time>
      </trkpt>
      <trkpt lat="27.948159" lon="-15.544478">
        <ele>1663.60</ele>
        <time>2018-07-13T19:43:42Z</time>
      </trkpt>
      <trkpt lat="27.948164" lon="-15.544447">
        <ele>1663.60</ele>
        <time>2018-07-13T19:43:43Z</time>
      </trkpt>
      <trkpt lat="27.948162" lon="-15.544417">
        <ele>1663.60</ele>
        <time>2018-07-13T19:43:44Z</time>
      </trkpt>
      <trkpt lat="27.948163" lon="-15.544385">
        <ele>1663.40</ele>
        <time>2018-07-13T19:43:45Z</time>
      </trkpt>
      <trkpt lat="27.948160" lon="-15.544356">
        <ele>1663.40</ele>
        <time>2018-07-13T19:43:46Z</time>
      </trkpt>
      <trkpt lat="27.948156" lon="-15.544322">
        <ele>1663.20</ele>
        <time>2018-07-13T19:43:47Z</time>
      </trkpt>
      <trkpt lat="27.948157" lon="-15.544295">
        <ele>1663.20</ele>
        <time>2018-07-13T19:43:48Z</time>
      </trkpt>
      <trkpt lat="27.948160" lon="-15.544269">
        <ele>1663.20</ele>
        <time>2018-07-13T19:43:49Z</time>
      </trkpt>
      <trkpt lat="27.948161" lon="-15.544244">
        <ele>1663.60</ele>
        <time>2018-07-13T19:43:50Z</time>
      </trkpt>
      <trkpt lat="27.948159" lon="-15.544219">
        <ele>1663.00</ele>
        <time>2018-07-13T19:43:51Z</time>
      </trkpt>
      <trkpt lat="27.948160" lon="-15.544199">
        <ele>1664.00</ele>
        <time>2018-07-13T19:43:52Z</time>
      </trkpt>
      <trkpt lat="27.948158" lon="-15.544178">
        <ele>1663.20</ele>
        <time>2018-07-13T19:43:53Z</time>
      </trkpt>
      <trkpt lat="27.948147" lon="-15.544148">
        <ele>1663.20</ele>
        <time>2018-07-13T19:43:55Z</time>
      </trkpt>
      <trkpt lat="27.948144" lon="-15.544108">
        <ele>1663.20</ele>
        <time>2018-07-13T19:43:57Z</time>
      </trkpt>
      <trkpt lat="27.948142" lon="-15.544088">
        <ele>1663.00</ele>
        <time>2018-07-13T19:43:58Z</time>
      </trkpt>
      <trkpt lat="27.948139" lon="-15.544067">
        <ele>1663.00</ele>
        <time>2018-07-13T19:43:59Z</time>
      </trkpt>
      <trkpt lat="27.948127" lon="-15.544027">
        <ele>1662.60</ele>
        <time>2018-07-13T19:44:01Z</time>
      </trkpt>
      <trkpt lat="27.948121" lon="-15.543998">
        <ele>1663.00</ele>
        <time>2018-07-13T19:44:03Z</time>
      </trkpt>
      <trkpt lat="27.948116" lon="-15.543969">
        <ele>1664.00</ele>
        <time>2018-07-13T19:44:05Z</time>
      </trkpt>
      <trkpt lat="27.948106" lon="-15.543936">
        <ele>1664.00</ele>
        <time>2018-07-13T19:44:07Z</time>
      </trkpt>
      <trkpt lat="27.948093" lon="-15.543909">
        <ele>1663.80</ele>
        <time>2018-07-13T19:44:09Z</time>
      </trkpt>
      <trkpt lat="27.948086" lon="-15.543880">
        <ele>1663.60</ele>
        <time>2018-07-13T19:44:11Z</time>
      </trkpt>
      <trkpt lat="27.948077" lon="-15.543852">
        <ele>1663.60</ele>
        <time>2018-07-13T19:44:13Z</time>
      </trkpt>
      <trkpt lat="27.948074" lon="-15.543826">
        <ele>1663.60</ele>
        <time>2018-07-13T19:44:15Z</time>
      </trkpt>
      <trkpt lat="27.948070" lon="-15.543792">
        <ele>1663.80</ele>
        <time>2018-07-13T19:44:17Z</time>
      </trkpt>
      <trkpt lat="27.948068" lon="-15.543762">
        <ele>1663.40</ele>
        <time>2018-07-13T19:44:19Z</time>
      </trkpt>
      <trkpt lat="27.948071" lon="-15.543738">
        <ele>1663.40</ele>
        <time>2018-07-13T19:44:21Z</time>
      </trkpt>
      <trkpt lat="27.948068" lon="-15.543718">
        <ele>1663.20</ele>
        <time>2018-07-13T19:44:23Z</time>
      </trkpt>
      <trkpt lat="27.948061" lon="-15.543686">
        <ele>1663.20</ele>
        <time>2018-07-13T19:44:25Z</time>
      </trkpt>
      <trkpt lat="27.948060" lon="-15.543656">
        <ele>1663.60</ele>
        <time>2018-07-13T19:44:27Z</time>
      </trkpt>
      <trkpt lat="27.948063" lon="-15.543629">
        <ele>1663.80</ele>
        <time>2018-07-13T19:44:29Z</time>
      </trkpt>
      <trkpt lat="27.948061" lon="-15.543597">
        <ele>1664.40</ele>
        <time>2018-07-13T19:44:31Z</time>
      </trkpt>
      <trkpt lat="27.948058" lon="-15.543567">
        <ele>1664.40</ele>
        <time>2018-07-13T19:44:33Z</time>
      </trkpt>
      <trkpt lat="27.948055" lon="-15.543540">
        <ele>1665.00</ele>
        <time>2018-07-13T19:44:35Z</time>
      </trkpt>
      <trkpt lat="27.948038" lon="-15.543510">
        <ele>1665.00</ele>
        <time>2018-07-13T19:44:37Z</time>
      </trkpt>
      <trkpt lat="27.948026" lon="-15.543480">
        <ele>1664.80</ele>
        <time>2018-07-13T19:44:39Z</time>
      </trkpt>
      <trkpt lat="27.948018" lon="-15.543451">
        <ele>1664.80</ele>
        <time>2018-07-13T19:44:41Z</time>
      </trkpt>
      <trkpt lat="27.948011" lon="-15.543417">
        <ele>1665.40</ele>
        <time>2018-07-13T19:44:43Z</time>
      </trkpt>
      <trkpt lat="27.948009" lon="-15.543390">
        <ele>1665.60</ele>
        <time>2018-07-13T19:44:45Z</time>
      </trkpt>
      <trkpt lat="27.948005" lon="-15.543365">
        <ele>1665.60</ele>
        <time>2018-07-13T19:44:47Z</time>
      </trkpt>
      <trkpt lat="27.947995" lon="-15.543333">
        <ele>1665.80</ele>
        <time>2018-07-13T19:44:49Z</time>
      </trkpt>
      <trkpt lat="27.948000" lon="-15.543302">
        <ele>1666.80</ele>
        <time>2018-07-13T19:44:51Z</time>
      </trkpt>
      <trkpt lat="27.948011" lon="-15.543272">
        <ele>1667.00</ele>
        <time>2018-07-13T19:44:53Z</time>
      </trkpt>
      <trkpt lat="27.948018" lon="-15.543243">
        <ele>1667.00</ele>
        <time>2018-07-13T19:44:55Z</time>
      </trkpt>
      <trkpt lat="27.948028" lon="-15.543219">
        <ele>1667.20</ele>
        <time>2018-07-13T19:44:57Z</time>
      </trkpt>
      <trkpt lat="27.948040" lon="-15.543196">
        <ele>1667.80</ele>
        <time>2018-07-13T19:44:59Z</time>
      </trkpt>
      <trkpt lat="27.948048" lon="-15.543171">
        <ele>1667.80</ele>
        <time>2018-07-13T19:45:01Z</time>
      </trkpt>
      <trkpt lat="27.948042" lon="-15.543139">
        <ele>1667.80</ele>
        <time>2018-07-13T19:45:03Z</time>
      </trkpt>
      <trkpt lat="27.948022" lon="-15.543122">
        <ele>1667.60</ele>
        <time>2018-07-13T19:45:04Z</time>
      </trkpt>
      <trkpt lat="27.947998" lon="-15.543105">
        <ele>1666.80</ele>
        <time>2018-07-13T19:45:05Z</time>
      </trkpt>
      <trkpt lat="27.947976" lon="-15.543094">
        <ele>1666.20</ele>
        <time>2018-07-13T19:45:06Z</time>
      </trkpt>
      <trkpt lat="27.947958" lon="-15.543084">
        <ele>1666.20</ele>
        <time>2018-07-13T19:45:07Z</time>
      </trkpt>
      <trkpt lat="27.947939" lon="-15.543073">
        <ele>1666.20</ele>
        <time>2018-07-13T19:45:08Z</time>
      </trkpt>
      <trkpt lat="27.947921" lon="-15.543065">
        <ele>1666.20</ele>
        <time>2018-07-13T19:45:09Z</time>
      </trkpt>
      <trkpt lat="27.947888" lon="-15.543053">
        <ele>1666.40</ele>
        <time>2018-07-13T19:45:11Z</time>
      </trkpt>
      <trkpt lat="27.947862" lon="-15.543044">
        <ele>1666.40</ele>
        <time>2018-07-13T19:45:13Z</time>
      </trkpt>
      <trkpt lat="27.947836" lon="-15.543034">
        <ele>1666.40</ele>
        <time>2018-07-13T19:45:15Z</time>
      </trkpt>
      <trkpt lat="27.947802" lon="-15.543026">
        <ele>1666.60</ele>
        <time>2018-07-13T19:45:17Z</time>
      </trkpt>
      <trkpt lat="27.947772" lon="-15.543021">
        <ele>1666.60</ele>
        <time>2018-07-13T19:45:19Z</time>
      </trkpt>
      <trkpt lat="27.947745" lon="-15.543008">
        <ele>1666.20</ele>
        <time>2018-07-13T19:45:21Z</time>
      </trkpt>
      <trkpt lat="27.947721" lon="-15.542995">
        <ele>1666.00</ele>
        <time>2018-07-13T19:45:23Z</time>
      </trkpt>
      <trkpt lat="27.947696" lon="-15.542989">
        <ele>1666.00</ele>
        <time>2018-07-13T19:45:25Z</time>
      </trkpt>
      <trkpt lat="27.947671" lon="-15.542984">
        <ele>1666.00</ele>
        <time>2018-07-13T19:45:27Z</time>
      </trkpt>
      <trkpt lat="27.947649" lon="-15.542970">
        <ele>1665.60</ele>
        <time>2018-07-13T19:45:29Z</time>
      </trkpt>
      <trkpt lat="27.947624" lon="-15.542959">
        <ele>1664.80</ele>
        <time>2018-07-13T19:45:31Z</time>
      </trkpt>
      <trkpt lat="27.947601" lon="-15.542953">
        <ele>1664.80</ele>
        <time>2018-07-13T19:45:33Z</time>
      </trkpt>
      <trkpt lat="27.947571" lon="-15.542944">
        <ele>1664.80</ele>
        <time>2018-07-13T19:45:35Z</time>
      </trkpt>
      <trkpt lat="27.947542" lon="-15.542930">
        <ele>1664.60</ele>
        <time>2018-07-13T19:45:37Z</time>
      </trkpt>
      <trkpt lat="27.947518" lon="-15.542927">
        <ele>1664.00</ele>
        <time>2018-07-13T19:45:40Z</time>
      </trkpt>
      <trkpt lat="27.947505" lon="-15.542900">
        <ele>1663.00</ele>
        <time>2018-07-13T19:45:45Z</time>
      </trkpt>
      <trkpt lat="27.947488" lon="-15.542894">
        <ele>1663.00</ele>
        <time>2018-07-13T19:45:46Z</time>
      </trkpt>
      <trkpt lat="27.947470" lon="-15.542891">
        <ele>1663.00</ele>
        <time>2018-07-13T19:45:47Z</time>
      </trkpt>
      <trkpt lat="27.947435" lon="-15.542883">
        <ele>1663.00</ele>
        <time>2018-07-13T19:45:49Z</time>
      </trkpt>
      <trkpt lat="27.947417" lon="-15.542880">
        <ele>1663.00</ele>
        <time>2018-07-13T19:45:50Z</time>
      </trkpt>
      <trkpt lat="27.947394" lon="-15.542883">
        <ele>1663.00</ele>
        <time>2018-07-13T19:45:51Z</time>
      </trkpt>
      <trkpt lat="27.947368" lon="-15.542886">
        <ele>1663.00</ele>
        <time>2018-07-13T19:45:52Z</time>
      </trkpt>
      <trkpt lat="27.947343" lon="-15.542892">
        <ele>1663.00</ele>
        <time>2018-07-13T19:45:53Z</time>
      </trkpt>
      <trkpt lat="27.947314" lon="-15.542904">
        <ele>1663.00</ele>
        <time>2018-07-13T19:45:54Z</time>
      </trkpt>
      <trkpt lat="27.947284" lon="-15.542917">
        <ele>1663.00</ele>
        <time>2018-07-13T19:45:55Z</time>
      </trkpt>
      <trkpt lat="27.947261" lon="-15.542925">
        <ele>1663.00</ele>
        <time>2018-07-13T19:45:56Z</time>
      </trkpt>
      <trkpt lat="27.947239" lon="-15.542916">
        <ele>1663.40</ele>
        <time>2018-07-13T19:45:59Z</time>
      </trkpt>
      <trkpt lat="27.947217" lon="-15.542906">
        <ele>1662.80</ele>
        <time>2018-07-13T19:46:01Z</time>
      </trkpt>
      <trkpt lat="27.947185" lon="-15.542894">
        <ele>1662.40</ele>
        <time>2018-07-13T19:46:03Z</time>
      </trkpt>
      <trkpt lat="27.947158" lon="-15.542871">
        <ele>1662.00</ele>
        <time>2018-07-13T19:46:05Z</time>
      </trkpt>
      <trkpt lat="27.947142" lon="-15.542858">
        <ele>1662.20</ele>
        <time>2018-07-13T19:46:06Z</time>
      </trkpt>
      <trkpt lat="27.947123" lon="-15.542846">
        <ele>1662.00</ele>
        <time>2018-07-13T19:46:07Z</time>
      </trkpt>
      <trkpt lat="27.947099" lon="-15.542840">
        <ele>1662.00</ele>
        <time>2018-07-13T19:46:08Z</time>
      </trkpt>
      <trkpt lat="27.947077" lon="-15.542835">
        <ele>1662.00</ele>
        <time>2018-07-13T19:46:09Z</time>
      </trkpt>
      <trkpt lat="27.947054" lon="-15.542832">
        <ele>1661.80</ele>
        <time>2018-07-13T19:46:10Z</time>
      </trkpt>
      <trkpt lat="27.947030" lon="-15.542829">
        <ele>1661.80</ele>
        <time>2018-07-13T19:46:11Z</time>
      </trkpt>
      <trkpt lat="27.947006" lon="-15.542827">
        <ele>1661.80</ele>
        <time>2018-07-13T19:46:12Z</time>
      </trkpt>
      <trkpt lat="27.946987" lon="-15.542827">
        <ele>1661.80</ele>
        <time>2018-07-13T19:46:13Z</time>
      </trkpt>
      <trkpt lat="27.946962" lon="-15.542823">
        <ele>1660.60</ele>
        <time>2018-07-13T19:46:15Z</time>
      </trkpt>
      <trkpt lat="27.946937" lon="-15.542814">
        <ele>1659.80</ele>
        <time>2018-07-13T19:46:17Z</time>
      </trkpt>
      <trkpt lat="27.946909" lon="-15.542816">
        <ele>1659.00</ele>
        <time>2018-07-13T19:46:19Z</time>
      </trkpt>
      <trkpt lat="27.946890" lon="-15.542805">
        <ele>1658.00</ele>
        <time>2018-07-13T19:46:21Z</time>
      </trkpt>
      <trkpt lat="27.946872" lon="-15.542802">
        <ele>1658.20</ele>
        <time>2018-07-13T19:46:22Z</time>
      </trkpt>
      <trkpt lat="27.946842" lon="-15.542799">
        <ele>1658.00</ele>
        <time>2018-07-13T19:46:24Z</time>
      </trkpt>
      <trkpt lat="27.946820" lon="-15.542793">
        <ele>1658.20</ele>
        <time>2018-07-13T19:46:25Z</time>
      </trkpt>
      <trkpt lat="27.946798" lon="-15.542789">
        <ele>1658.20</ele>
        <time>2018-07-13T19:46:26Z</time>
      </trkpt>
      <trkpt lat="27.946777" lon="-15.542784">
        <ele>1658.20</ele>
        <time>2018-07-13T19:46:27Z</time>
      </trkpt>
      <trkpt lat="27.946754" lon="-15.542780">
        <ele>1658.60</ele>
        <time>2018-07-13T19:46:28Z</time>
      </trkpt>
      <trkpt lat="27.946729" lon="-15.542780">
        <ele>1658.60</ele>
        <time>2018-07-13T19:46:29Z</time>
      </trkpt>
      <trkpt lat="27.946704" lon="-15.542777">
        <ele>1658.60</ele>
        <time>2018-07-13T19:46:30Z</time>
      </trkpt>
      <trkpt lat="27.946678" lon="-15.542774">
        <ele>1659.20</ele>
        <time>2018-07-13T19:46:31Z</time>
      </trkpt>
      <trkpt lat="27.946651" lon="-15.542770">
        <ele>1659.20</ele>
        <time>2018-07-13T19:46:32Z</time>
      </trkpt>
      <trkpt lat="27.946623" lon="-15.542768">
        <ele>1658.60</ele>
        <time>2018-07-13T19:46:33Z</time>
      </trkpt>
      <trkpt lat="27.946595" lon="-15.542769">
        <ele>1658.60</ele>
        <time>2018-07-13T19:46:34Z</time>
      </trkpt>
      <trkpt lat="27.946566" lon="-15.542770">
        <ele>1658.20</ele>
        <time>2018-07-13T19:46:35Z</time>
      </trkpt>
      <trkpt lat="27.946539" lon="-15.542769">
        <ele>1658.20</ele>
        <time>2018-07-13T19:46:36Z</time>
      </trkpt>
      <trkpt lat="27.946511" lon="-15.542771">
        <ele>1658.00</ele>
        <time>2018-07-13T19:46:37Z</time>
      </trkpt>
      <trkpt lat="27.946483" lon="-15.542769">
        <ele>1658.00</ele>
        <time>2018-07-13T19:46:38Z</time>
      </trkpt>
      <trkpt lat="27.946453" lon="-15.542766">
        <ele>1657.80</ele>
        <time>2018-07-13T19:46:39Z</time>
      </trkpt>
      <trkpt lat="27.946429" lon="-15.542761">
        <ele>1658.80</ele>
        <time>2018-07-13T19:46:40Z</time>
      </trkpt>
      <trkpt lat="27.946403" lon="-15.542756">
        <ele>1657.80</ele>
        <time>2018-07-13T19:46:41Z</time>
      </trkpt>
      <trkpt lat="27.946378" lon="-15.542751">
        <ele>1657.20</ele>
        <time>2018-07-13T19:46:42Z</time>
      </trkpt>
      <trkpt lat="27.946350" lon="-15.542747">
        <ele>1657.20</ele>
        <time>2018-07-13T19:46:43Z</time>
      </trkpt>
      <trkpt lat="27.946323" lon="-15.542742">
        <ele>1657.20</ele>
        <time>2018-07-13T19:46:44Z</time>
      </trkpt>
      <trkpt lat="27.946294" lon="-15.542738">
        <ele>1657.20</ele>
        <time>2018-07-13T19:46:45Z</time>
      </trkpt>
      <trkpt lat="27.946263" lon="-15.542734">
        <ele>1657.20</ele>
        <time>2018-07-13T19:46:46Z</time>
      </trkpt>
      <trkpt lat="27.946229" lon="-15.542732">
        <ele>1657.20</ele>
        <time>2018-07-13T19:46:47Z</time>
      </trkpt>
      <trkpt lat="27.946197" lon="-15.542731">
        <ele>1657.20</ele>
        <time>2018-07-13T19:46:48Z</time>
      </trkpt>
      <trkpt lat="27.946164" lon="-15.542728">
        <ele>1657.20</ele>
        <time>2018-07-13T19:46:49Z</time>
      </trkpt>
      <trkpt lat="27.946132" lon="-15.542720">
        <ele>1656.40</ele>
        <time>2018-07-13T19:46:50Z</time>
      </trkpt>
      <trkpt lat="27.946104" lon="-15.542713">
        <ele>1656.40</ele>
        <time>2018-07-13T19:46:51Z</time>
      </trkpt>
      <trkpt lat="27.946077" lon="-15.542708">
        <ele>1655.40</ele>
        <time>2018-07-13T19:46:52Z</time>
      </trkpt>
      <trkpt lat="27.946048" lon="-15.542710">
        <ele>1655.20</ele>
        <time>2018-07-13T19:46:53Z</time>
      </trkpt>
      <trkpt lat="27.946019" lon="-15.542717">
        <ele>1654.80</ele>
        <time>2018-07-13T19:46:54Z</time>
      </trkpt>
      <trkpt lat="27.945990" lon="-15.542727">
        <ele>1654.20</ele>
        <time>2018-07-13T19:46:55Z</time>
      </trkpt>
      <trkpt lat="27.945959" lon="-15.542735">
        <ele>1653.60</ele>
        <time>2018-07-13T19:46:56Z</time>
      </trkpt>
      <trkpt lat="27.945930" lon="-15.542736">
        <ele>1653.00</ele>
        <time>2018-07-13T19:46:57Z</time>
      </trkpt>
      <trkpt lat="27.945903" lon="-15.542736">
        <ele>1652.60</ele>
        <time>2018-07-13T19:46:58Z</time>
      </trkpt>
      <trkpt lat="27.945873" lon="-15.542740">
        <ele>1653.00</ele>
        <time>2018-07-13T19:46:59Z</time>
      </trkpt>
      <trkpt lat="27.945846" lon="-15.542736">
        <ele>1652.60</ele>
        <time>2018-07-13T19:47:00Z</time>
      </trkpt>
      <trkpt lat="27.945816" lon="-15.542732">
        <ele>1652.80</ele>
        <time>2018-07-13T19:47:01Z</time>
      </trkpt>
      <trkpt lat="27.945788" lon="-15.542730">
        <ele>1652.60</ele>
        <time>2018-07-13T19:47:02Z</time>
      </trkpt>
      <trkpt lat="27.945760" lon="-15.542725">
        <ele>1652.60</ele>
        <time>2018-07-13T19:47:03Z</time>
      </trkpt>
      <trkpt lat="27.945728" lon="-15.542724">
        <ele>1652.20</ele>
        <time>2018-07-13T19:47:04Z</time>
      </trkpt>
      <trkpt lat="27.945700" lon="-15.542717">
        <ele>1651.80</ele>
        <time>2018-07-13T19:47:05Z</time>
      </trkpt>
      <trkpt lat="27.945671" lon="-15.542712">
        <ele>1651.80</ele>
        <time>2018-07-13T19:47:06Z</time>
      </trkpt>
      <trkpt lat="27.945643" lon="-15.542710">
        <ele>1651.80</ele>
        <time>2018-07-13T19:47:07Z</time>
      </trkpt>
      <trkpt lat="27.945616" lon="-15.542711">
        <ele>1650.80</ele>
        <time>2018-07-13T19:47:08Z</time>
      </trkpt>
      <trkpt lat="27.945588" lon="-15.542710">
        <ele>1651.80</ele>
        <time>2018-07-13T19:47:09Z</time>
      </trkpt>
      <trkpt lat="27.945561" lon="-15.542707">
        <ele>1649.60</ele>
        <time>2018-07-13T19:47:10Z</time>
      </trkpt>
      <trkpt lat="27.945532" lon="-15.542709">
        <ele>1650.20</ele>
        <time>2018-07-13T19:47:11Z</time>
      </trkpt>
      <trkpt lat="27.945508" lon="-15.542708">
        <ele>1649.60</ele>
        <time>2018-07-13T19:47:12Z</time>
      </trkpt>
      <trkpt lat="27.945484" lon="-15.542703">
        <ele>1650.20</ele>
        <time>2018-07-13T19:47:13Z</time>
      </trkpt>
      <trkpt lat="27.945455" lon="-15.542704">
        <ele>1648.80</ele>
        <time>2018-07-13T19:47:14Z</time>
      </trkpt>
      <trkpt lat="27.945427" lon="-15.542707">
        <ele>1649.20</ele>
        <time>2018-07-13T19:47:15Z</time>
      </trkpt>
      <trkpt lat="27.945397" lon="-15.542711">
        <ele>1648.80</ele>
        <time>2018-07-13T19:47:16Z</time>
      </trkpt>
      <trkpt lat="27.945366" lon="-15.542714">
        <ele>1648.40</ele>
        <time>2018-07-13T19:47:17Z</time>
      </trkpt>
      <trkpt lat="27.945337" lon="-15.542718">
        <ele>1647.80</ele>
        <time>2018-07-13T19:47:18Z</time>
      </trkpt>
      <trkpt lat="27.945309" lon="-15.542721">
        <ele>1647.80</ele>
        <time>2018-07-13T19:47:19Z</time>
      </trkpt>
      <trkpt lat="27.945281" lon="-15.542724">
        <ele>1647.80</ele>
        <time>2018-07-13T19:47:20Z</time>
      </trkpt>
      <trkpt lat="27.945253" lon="-15.542725">
        <ele>1647.80</ele>
        <time>2018-07-13T19:47:21Z</time>
      </trkpt>
      <trkpt lat="27.945226" lon="-15.542722">
        <ele>1647.80</ele>
        <time>2018-07-13T19:47:22Z</time>
      </trkpt>
      <trkpt lat="27.945200" lon="-15.542717">
        <ele>1647.80</ele>
        <time>2018-07-13T19:47:23Z</time>
      </trkpt>
      <trkpt lat="27.945171" lon="-15.542718">
        <ele>1647.80</ele>
        <time>2018-07-13T19:47:24Z</time>
      </trkpt>
      <trkpt lat="27.945136" lon="-15.542721">
        <ele>1647.80</ele>
        <time>2018-07-13T19:47:25Z</time>
      </trkpt>
      <trkpt lat="27.945104" lon="-15.542722">
        <ele>1646.60</ele>
        <time>2018-07-13T19:47:26Z</time>
      </trkpt>
      <trkpt lat="27.945070" lon="-15.542724">
        <ele>1645.60</ele>
        <time>2018-07-13T19:47:27Z</time>
      </trkpt>
      <trkpt lat="27.945039" lon="-15.542724">
        <ele>1645.60</ele>
        <time>2018-07-13T19:47:28Z</time>
      </trkpt>
      <trkpt lat="27.945007" lon="-15.542729">
        <ele>1645.40</ele>
        <time>2018-07-13T19:47:29Z</time>
      </trkpt>
      <trkpt lat="27.944976" lon="-15.542737">
        <ele>1645.40</ele>
        <time>2018-07-13T19:47:30Z</time>
      </trkpt>
      <trkpt lat="27.944947" lon="-15.542745">
        <ele>1645.40</ele>
        <time>2018-07-13T19:47:31Z</time>
      </trkpt>
      <trkpt lat="27.944915" lon="-15.542752">
        <ele>1645.00</ele>
        <time>2018-07-13T19:47:32Z</time>
      </trkpt>
      <trkpt lat="27.944888" lon="-15.542753">
        <ele>1645.00</ele>
        <time>2018-07-13T19:47:33Z</time>
      </trkpt>
      <trkpt lat="27.944861" lon="-15.542757">
        <ele>1645.00</ele>
        <time>2018-07-13T19:47:34Z</time>
      </trkpt>
      <trkpt lat="27.944834" lon="-15.542759">
        <ele>1645.00</ele>
        <time>2018-07-13T19:47:35Z</time>
      </trkpt>
      <trkpt lat="27.944806" lon="-15.542760">
        <ele>1645.00</ele>
        <time>2018-07-13T19:47:36Z</time>
      </trkpt>
      <trkpt lat="27.944776" lon="-15.542759">
        <ele>1644.40</ele>
        <time>2018-07-13T19:47:37Z</time>
      </trkpt>
      <trkpt lat="27.944744" lon="-15.542754">
        <ele>1643.40</ele>
        <time>2018-07-13T19:47:38Z</time>
      </trkpt>
      <trkpt lat="27.944714" lon="-15.542749">
        <ele>1644.40</ele>
        <time>2018-07-13T19:47:39Z</time>
      </trkpt>
      <trkpt lat="27.944683" lon="-15.542749">
        <ele>1643.40</ele>
        <time>2018-07-13T19:47:40Z</time>
      </trkpt>
      <trkpt lat="27.944651" lon="-15.542752">
        <ele>1644.40</ele>
        <time>2018-07-13T19:47:41Z</time>
      </trkpt>
      <trkpt lat="27.944618" lon="-15.542755">
        <ele>1642.60</ele>
        <time>2018-07-13T19:47:42Z</time>
      </trkpt>
      <trkpt lat="27.944589" lon="-15.542757">
        <ele>1643.60</ele>
        <time>2018-07-13T19:47:43Z</time>
      </trkpt>
      <trkpt lat="27.944554" lon="-15.542760">
        <ele>1642.60</ele>
        <time>2018-07-13T19:47:44Z</time>
      </trkpt>
      <trkpt lat="27.944525" lon="-15.542763">
        <ele>1642.80</ele>
        <time>2018-07-13T19:47:45Z</time>
      </trkpt>
      <trkpt lat="27.944501" lon="-15.542764">
        <ele>1642.40</ele>
        <time>2018-07-13T19:47:46Z</time>
      </trkpt>
      <trkpt lat="27.944480" lon="-15.542769">
        <ele>1642.60</ele>
        <time>2018-07-13T19:47:47Z</time>
      </trkpt>
      <trkpt lat="27.944461" lon="-15.542772">
        <ele>1642.60</ele>
        <time>2018-07-13T19:47:48Z</time>
      </trkpt>
      <trkpt lat="27.944437" lon="-15.542763">
        <ele>1642.60</ele>
        <time>2018-07-13T19:47:50Z</time>
      </trkpt>
      <trkpt lat="27.944410" lon="-15.542751">
        <ele>1642.60</ele>
        <time>2018-07-13T19:47:52Z</time>
      </trkpt>
      <trkpt lat="27.944392" lon="-15.542741">
        <ele>1642.00</ele>
        <time>2018-07-13T19:47:54Z</time>
      </trkpt>
      <trkpt lat="27.944375" lon="-15.542728">
        <ele>1641.00</ele>
        <time>2018-07-13T19:47:56Z</time>
      </trkpt>
      <trkpt lat="27.944346" lon="-15.542715">
        <ele>1640.80</ele>
        <time>2018-07-13T19:47:58Z</time>
      </trkpt>
      <trkpt lat="27.944320" lon="-15.542699">
        <ele>1641.00</ele>
        <time>2018-07-13T19:48:00Z</time>
      </trkpt>
      <trkpt lat="27.944292" lon="-15.542686">
        <ele>1640.80</ele>
        <time>2018-07-13T19:48:02Z</time>
      </trkpt>
      <trkpt lat="27.944268" lon="-15.542671">
        <ele>1640.80</ele>
        <time>2018-07-13T19:48:04Z</time>
      </trkpt>
      <trkpt lat="27.944243" lon="-15.542662">
        <ele>1640.80</ele>
        <time>2018-07-13T19:48:06Z</time>
      </trkpt>
      <trkpt lat="27.944215" lon="-15.542656">
        <ele>1640.40</ele>
        <time>2018-07-13T19:48:08Z</time>
      </trkpt>
      <trkpt lat="27.944182" lon="-15.542634">
        <ele>1640.40</ele>
        <time>2018-07-13T19:48:10Z</time>
      </trkpt>
      <trkpt lat="27.944158" lon="-15.542622">
        <ele>1640.00</ele>
        <time>2018-07-13T19:48:11Z</time>
      </trkpt>
      <trkpt lat="27.944134" lon="-15.542614">
        <ele>1640.00</ele>
        <time>2018-07-13T19:48:12Z</time>
      </trkpt>
      <trkpt lat="27.944112" lon="-15.542609">
        <ele>1640.00</ele>
        <time>2018-07-13T19:48:13Z</time>
      </trkpt>
      <trkpt lat="27.944085" lon="-15.542607">
        <ele>1640.00</ele>
        <time>2018-07-13T19:48:14Z</time>
      </trkpt>
      <trkpt lat="27.944061" lon="-15.542602">
        <ele>1640.20</ele>
        <time>2018-07-13T19:48:15Z</time>
      </trkpt>
      <trkpt lat="27.944031" lon="-15.542600">
        <ele>1640.00</ele>
        <time>2018-07-13T19:48:16Z</time>
      </trkpt>
      <trkpt lat="27.944003" lon="-15.542601">
        <ele>1640.00</ele>
        <time>2018-07-13T19:48:17Z</time>
      </trkpt>
      <trkpt lat="27.943977" lon="-15.542598">
        <ele>1639.60</ele>
        <time>2018-07-13T19:48:18Z</time>
      </trkpt>
      <trkpt lat="27.943956" lon="-15.542587">
        <ele>1639.40</ele>
        <time>2018-07-13T19:48:19Z</time>
      </trkpt>
      <trkpt lat="27.943931" lon="-15.542572">
        <ele>1638.80</ele>
        <time>2018-07-13T19:48:20Z</time>
      </trkpt>
      <trkpt lat="27.943906" lon="-15.542561">
        <ele>1638.20</ele>
        <time>2018-07-13T19:48:21Z</time>
      </trkpt>
      <trkpt lat="27.943881" lon="-15.542550">
        <ele>1638.00</ele>
        <time>2018-07-13T19:48:22Z</time>
      </trkpt>
      <trkpt lat="27.943856" lon="-15.542537">
        <ele>1638.00</ele>
        <time>2018-07-13T19:48:23Z</time>
      </trkpt>
      <trkpt lat="27.943834" lon="-15.542513">
        <ele>1637.80</ele>
        <time>2018-07-13T19:48:24Z</time>
      </trkpt>
      <trkpt lat="27.943817" lon="-15.542485">
        <ele>1637.80</ele>
        <time>2018-07-13T19:48:25Z</time>
      </trkpt>
      <trkpt lat="27.943807" lon="-15.542455">
        <ele>1637.00</ele>
        <time>2018-07-13T19:48:26Z</time>
      </trkpt>
      <trkpt lat="27.943796" lon="-15.542426">
        <ele>1636.60</ele>
        <time>2018-07-13T19:48:27Z</time>
      </trkpt>
      <trkpt lat="27.943789" lon="-15.542396">
        <ele>1636.40</ele>
        <time>2018-07-13T19:48:28Z</time>
      </trkpt>
      <trkpt lat="27.943779" lon="-15.542364">
        <ele>1636.05</ele>
        <time>2018-07-13T19:48:29Z</time>
      </trkpt>
      <trkpt lat="27.943769" lon="-15.542335">
        <ele>1635.40</ele>
        <time>2018-07-13T19:48:30Z</time>
      </trkpt>
      <trkpt lat="27.943759" lon="-15.542305">
        <ele>1635.40</ele>
        <time>2018-07-13T19:48:31Z</time>
      </trkpt>
      <trkpt lat="27.943751" lon="-15.542276">
        <ele>1634.20</ele>
        <time>2018-07-13T19:48:32Z</time>
      </trkpt>
      <trkpt lat="27.943743" lon="-15.542248">
        <ele>1634.00</ele>
        <time>2018-07-13T19:48:33Z</time>
      </trkpt>
      <trkpt lat="27.943734" lon="-15.542221">
        <ele>1633.00</ele>
        <time>2018-07-13T19:48:34Z</time>
      </trkpt>
      <trkpt lat="27.943725" lon="-15.542190">
        <ele>1632.20</ele>
        <time>2018-07-13T19:48:35Z</time>
      </trkpt>
      <trkpt lat="27.943718" lon="-15.542160">
        <ele>1632.00</ele>
        <time>2018-07-13T19:48:36Z</time>
      </trkpt>
      <trkpt lat="27.943713" lon="-15.542129">
        <ele>1632.00</ele>
        <time>2018-07-13T19:48:37Z</time>
      </trkpt>
      <trkpt lat="27.943713" lon="-15.542096">
        <ele>1632.00</ele>
        <time>2018-07-13T19:48:38Z</time>
      </trkpt>
      <trkpt lat="27.943718" lon="-15.542067">
        <ele>1631.60</ele>
        <time>2018-07-13T19:48:39Z</time>
      </trkpt>
      <trkpt lat="27.943722" lon="-15.542037">
        <ele>1631.00</ele>
        <time>2018-07-13T19:48:40Z</time>
      </trkpt>
      <trkpt lat="27.943722" lon="-15.542000">
        <ele>1629.40</ele>
        <time>2018-07-13T19:48:41Z</time>
      </trkpt>
      <trkpt lat="27.943721" lon="-15.541963">
        <ele>1629.40</ele>
        <time>2018-07-13T19:48:42Z</time>
      </trkpt>
      <trkpt lat="27.943722" lon="-15.541930">
        <ele>1628.40</ele>
        <time>2018-07-13T19:48:43Z</time>
      </trkpt>
      <trkpt lat="27.943724" lon="-15.541899">
        <ele>1628.20</ele>
        <time>2018-07-13T19:48:44Z</time>
      </trkpt>
      <trkpt lat="27.943731" lon="-15.541866">
        <ele>1628.00</ele>
        <time>2018-07-13T19:48:45Z</time>
      </trkpt>
      <trkpt lat="27.943740" lon="-15.541836">
        <ele>1627.00</ele>
        <time>2018-07-13T19:48:46Z</time>
      </trkpt>
      <trkpt lat="27.943746" lon="-15.541804">
        <ele>1626.60</ele>
        <time>2018-07-13T19:48:47Z</time>
      </trkpt>
      <trkpt lat="27.943743" lon="-15.541768">
        <ele>1626.60</ele>
        <time>2018-07-13T19:48:48Z</time>
      </trkpt>
      <trkpt lat="27.943739" lon="-15.541735">
        <ele>1626.60</ele>
        <time>2018-07-13T19:48:49Z</time>
      </trkpt>
      <trkpt lat="27.943725" lon="-15.541698">
        <ele>1626.00</ele>
        <time>2018-07-13T19:48:50Z</time>
      </trkpt>
      <trkpt lat="27.943708" lon="-15.541663">
        <ele>1625.80</ele>
        <time>2018-07-13T19:48:51Z</time>
      </trkpt>
      <trkpt lat="27.943696" lon="-15.541634">
        <ele>1625.80</ele>
        <time>2018-07-13T19:48:52Z</time>
      </trkpt>
      <trkpt lat="27.943681" lon="-15.541607">
        <ele>1624.20</ele>
        <time>2018-07-13T19:48:53Z</time>
      </trkpt>
      <trkpt lat="27.943679" lon="-15.541586">
        <ele>1624.20</ele>
        <time>2018-07-13T19:48:54Z</time>
      </trkpt>
      <trkpt lat="27.943682" lon="-15.541565">
        <ele>1624.20</ele>
        <time>2018-07-13T19:48:55Z</time>
      </trkpt>
      <trkpt lat="27.943684" lon="-15.541537">
        <ele>1624.00</ele>
        <time>2018-07-13T19:48:56Z</time>
      </trkpt>
      <trkpt lat="27.943687" lon="-15.541513">
        <ele>1624.00</ele>
        <time>2018-07-13T19:48:57Z</time>
      </trkpt>
      <trkpt lat="27.943686" lon="-15.541484">
        <ele>1623.40</ele>
        <time>2018-07-13T19:48:58Z</time>
      </trkpt>
      <trkpt lat="27.943690" lon="-15.541457">
        <ele>1623.60</ele>
        <time>2018-07-13T19:48:59Z</time>
      </trkpt>
      <trkpt lat="27.943693" lon="-15.541427">
        <ele>1623.60</ele>
        <time>2018-07-13T19:49:00Z</time>
      </trkpt>
      <trkpt lat="27.943700" lon="-15.541397">
        <ele>1623.80</ele>
        <time>2018-07-13T19:49:01Z</time>
      </trkpt>
      <trkpt lat="27.943706" lon="-15.541369">
        <ele>1623.00</ele>
        <time>2018-07-13T19:49:02Z</time>
      </trkpt>
      <trkpt lat="27.943712" lon="-15.541344">
        <ele>1622.60</ele>
        <time>2018-07-13T19:49:03Z</time>
      </trkpt>
      <trkpt lat="27.943707" lon="-15.541324">
        <ele>1622.60</ele>
        <time>2018-07-13T19:49:04Z</time>
      </trkpt>
      <trkpt lat="27.943704" lon="-15.541303">
        <ele>1622.40</ele>
        <time>2018-07-13T19:49:05Z</time>
      </trkpt>
      <trkpt lat="27.943719" lon="-15.541273">
        <ele>1622.20</ele>
        <time>2018-07-13T19:49:07Z</time>
      </trkpt>
      <trkpt lat="27.943732" lon="-15.541253">
        <ele>1622.20</ele>
        <time>2018-07-13T19:49:09Z</time>
      </trkpt>
      <trkpt lat="27.943758" lon="-15.541235">
        <ele>1621.60</ele>
        <time>2018-07-13T19:49:11Z</time>
      </trkpt>
      <trkpt lat="27.943778" lon="-15.541224">
        <ele>1621.60</ele>
        <time>2018-07-13T19:49:13Z</time>
      </trkpt>
      <trkpt lat="27.943797" lon="-15.541217">
        <ele>1621.60</ele>
        <time>2018-07-13T19:49:15Z</time>
      </trkpt>
      <trkpt lat="27.943818" lon="-15.541219">
        <ele>1621.80</ele>
        <time>2018-07-13T19:49:17Z</time>
      </trkpt>
      <trkpt lat="27.943838" lon="-15.541225">
        <ele>1622.00</ele>
        <time>2018-07-13T19:49:19Z</time>
      </trkpt>
      <trkpt lat="27.943866" lon="-15.541244">
        <ele>1621.00</ele>
        <time>2018-07-13T19:49:21Z</time>
      </trkpt>
      <trkpt lat="27.943895" lon="-15.541256">
        <ele>1620.80</ele>
        <time>2018-07-13T19:49:23Z</time>
      </trkpt>
      <trkpt lat="27.943936" lon="-15.541255">
        <ele>1621.20</ele>
        <time>2018-07-13T19:49:25Z</time>
      </trkpt>
      <trkpt lat="27.943958" lon="-15.541249">
        <ele>1621.20</ele>
        <time>2018-07-13T19:49:26Z</time>
      </trkpt>
      <trkpt lat="27.943982" lon="-15.541241">
        <ele>1621.20</ele>
        <time>2018-07-13T19:49:27Z</time>
      </trkpt>
      <trkpt lat="27.944000" lon="-15.541235">
        <ele>1621.60</ele>
        <time>2018-07-13T19:49:28Z</time>
      </trkpt>
      <trkpt lat="27.944022" lon="-15.541224">
        <ele>1621.60</ele>
        <time>2018-07-13T19:49:29Z</time>
      </trkpt>
      <trkpt lat="27.944044" lon="-15.541213">
        <ele>1621.80</ele>
        <time>2018-07-13T19:49:30Z</time>
      </trkpt>
      <trkpt lat="27.944063" lon="-15.541197">
        <ele>1621.80</ele>
        <time>2018-07-13T19:49:31Z</time>
      </trkpt>
      <trkpt lat="27.944081" lon="-15.541185">
        <ele>1621.80</ele>
        <time>2018-07-13T19:49:32Z</time>
      </trkpt>
      <trkpt lat="27.944100" lon="-15.541172">
        <ele>1621.80</ele>
        <time>2018-07-13T19:49:33Z</time>
      </trkpt>
      <trkpt lat="27.944120" lon="-15.541164">
        <ele>1622.00</ele>
        <time>2018-07-13T19:49:34Z</time>
      </trkpt>
      <trkpt lat="27.944146" lon="-15.541155">
        <ele>1622.20</ele>
        <time>2018-07-13T19:49:36Z</time>
      </trkpt>
      <trkpt lat="27.944169" lon="-15.541153">
        <ele>1622.00</ele>
        <time>2018-07-13T19:49:38Z</time>
      </trkpt>
      <trkpt lat="27.944190" lon="-15.541161">
        <ele>1621.20</ele>
        <time>2018-07-13T19:49:41Z</time>
      </trkpt>
      <trkpt lat="27.944209" lon="-15.541166">
        <ele>1621.20</ele>
        <time>2018-07-13T19:49:43Z</time>
      </trkpt>
      <trkpt lat="27.944227" lon="-15.541165">
        <ele>1621.20</ele>
        <time>2018-07-13T19:49:45Z</time>
      </trkpt>
      <trkpt lat="27.944250" lon="-15.541155">
        <ele>1621.40</ele>
        <time>2018-07-13T19:49:46Z</time>
      </trkpt>
      <trkpt lat="27.944268" lon="-15.541147">
        <ele>1621.40</ele>
        <time>2018-07-13T19:49:47Z</time>
      </trkpt>
      <trkpt lat="27.944301" lon="-15.541129">
        <ele>1621.40</ele>
        <time>2018-07-13T19:49:49Z</time>
      </trkpt>
      <trkpt lat="27.944329" lon="-15.541110">
        <ele>1620.80</ele>
        <time>2018-07-13T19:49:51Z</time>
      </trkpt>
      <trkpt lat="27.944343" lon="-15.541098">
        <ele>1620.80</ele>
        <time>2018-07-13T19:49:52Z</time>
      </trkpt>
      <trkpt lat="27.944359" lon="-15.541086">
        <ele>1620.80</ele>
        <time>2018-07-13T19:49:53Z</time>
      </trkpt>
      <trkpt lat="27.944375" lon="-15.541075">
        <ele>1620.80</ele>
        <time>2018-07-13T19:49:54Z</time>
      </trkpt>
      <trkpt lat="27.944401" lon="-15.541054">
        <ele>1621.80</ele>
        <time>2018-07-13T19:49:56Z</time>
      </trkpt>
      <trkpt lat="27.944425" lon="-15.541042">
        <ele>1622.40</ele>
        <time>2018-07-13T19:49:58Z</time>
      </trkpt>
      <trkpt lat="27.944449" lon="-15.541023">
        <ele>1622.40</ele>
        <time>2018-07-13T19:50:00Z</time>
      </trkpt>
      <trkpt lat="27.944465" lon="-15.541010">
        <ele>1622.60</ele>
        <time>2018-07-13T19:50:02Z</time>
      </trkpt>
      <trkpt lat="27.944488" lon="-15.540987">
        <ele>1622.40</ele>
        <time>2018-07-13T19:50:04Z</time>
      </trkpt>
      <trkpt lat="27.944512" lon="-15.540967">
        <ele>1622.20</ele>
        <time>2018-07-13T19:50:06Z</time>
      </trkpt>
      <trkpt lat="27.944536" lon="-15.540955">
        <ele>1621.80</ele>
        <time>2018-07-13T19:50:08Z</time>
      </trkpt>
      <trkpt lat="27.944558" lon="-15.540945">
        <ele>1621.80</ele>
        <time>2018-07-13T19:50:10Z</time>
      </trkpt>
      <trkpt lat="27.944578" lon="-15.540934">
        <ele>1621.40</ele>
        <time>2018-07-13T19:50:12Z</time>
      </trkpt>
      <trkpt lat="27.944596" lon="-15.540916">
        <ele>1621.40</ele>
        <time>2018-07-13T19:50:14Z</time>
      </trkpt>
      <trkpt lat="27.944616" lon="-15.540896">
        <ele>1621.60</ele>
        <time>2018-07-13T19:50:16Z</time>
      </trkpt>
      <trkpt lat="27.944642" lon="-15.540875">
        <ele>1621.80</ele>
        <time>2018-07-13T19:50:18Z</time>
      </trkpt>
      <trkpt lat="27.944669" lon="-15.540843">
        <ele>1621.80</ele>
        <time>2018-07-13T19:50:20Z</time>
      </trkpt>
      <trkpt lat="27.944688" lon="-15.540823">
        <ele>1621.80</ele>
        <time>2018-07-13T19:50:21Z</time>
      </trkpt>
      <trkpt lat="27.944704" lon="-15.540809">
        <ele>1621.80</ele>
        <time>2018-07-13T19:50:22Z</time>
      </trkpt>
      <trkpt lat="27.944719" lon="-15.540797">
        <ele>1622.00</ele>
        <time>2018-07-13T19:50:23Z</time>
      </trkpt>
      <trkpt lat="27.944745" lon="-15.540777">
        <ele>1622.80</ele>
        <time>2018-07-13T19:50:25Z</time>
      </trkpt>
      <trkpt lat="27.944762" lon="-15.540759">
        <ele>1623.00</ele>
        <time>2018-07-13T19:50:27Z</time>
      </trkpt>
      <trkpt lat="27.944779" lon="-15.540740">
        <ele>1622.80</ele>
        <time>2018-07-13T19:50:29Z</time>
      </trkpt>
      <trkpt lat="27.944800" lon="-15.540714">
        <ele>1622.60</ele>
        <time>2018-07-13T19:50:31Z</time>
      </trkpt>
      <trkpt lat="27.944821" lon="-15.540689">
        <ele>1622.60</ele>
        <time>2018-07-13T19:50:33Z</time>
      </trkpt>
      <trkpt lat="27.944846" lon="-15.540658">
        <ele>1622.60</ele>
        <time>2018-07-13T19:50:35Z</time>
      </trkpt>
      <trkpt lat="27.944860" lon="-15.540642">
        <ele>1622.60</ele>
        <time>2018-07-13T19:50:36Z</time>
      </trkpt>
      <trkpt lat="27.944874" lon="-15.540628">
        <ele>1622.80</ele>
        <time>2018-07-13T19:50:37Z</time>
      </trkpt>
      <trkpt lat="27.944897" lon="-15.540608">
        <ele>1623.00</ele>
        <time>2018-07-13T19:50:39Z</time>
      </trkpt>
      <trkpt lat="27.944920" lon="-15.540588">
        <ele>1622.80</ele>
        <time>2018-07-13T19:50:41Z</time>
      </trkpt>
      <trkpt lat="27.944932" lon="-15.540572">
        <ele>1623.00</ele>
        <time>2018-07-13T19:50:42Z</time>
      </trkpt>
      <trkpt lat="27.944951" lon="-15.540540">
        <ele>1623.00</ele>
        <time>2018-07-13T19:50:44Z</time>
      </trkpt>
      <trkpt lat="27.944975" lon="-15.540515">
        <ele>1622.80</ele>
        <time>2018-07-13T19:50:46Z</time>
      </trkpt>
      <trkpt lat="27.944988" lon="-15.540480">
        <ele>1622.40</ele>
        <time>2018-07-13T19:50:48Z</time>
      </trkpt>
      <trkpt lat="27.945000" lon="-15.540456">
        <ele>1622.20</ele>
        <time>2018-07-13T19:50:50Z</time>
      </trkpt>
      <trkpt lat="27.945005" lon="-15.540436">
        <ele>1622.40</ele>
        <time>2018-07-13T19:50:51Z</time>
      </trkpt>
      <trkpt lat="27.945012" lon="-15.540411">
        <ele>1622.40</ele>
        <time>2018-07-13T19:50:53Z</time>
      </trkpt>
      <trkpt lat="27.945023" lon="-15.540391">
        <ele>1622.40</ele>
        <time>2018-07-13T19:50:55Z</time>
      </trkpt>
      <trkpt lat="27.945040" lon="-15.540362">
        <ele>1622.20</ele>
        <time>2018-07-13T19:50:57Z</time>
      </trkpt>
      <trkpt lat="27.945052" lon="-15.540336">
        <ele>1622.00</ele>
        <time>2018-07-13T19:50:59Z</time>
      </trkpt>
      <trkpt lat="27.945066" lon="-15.540306">
        <ele>1622.00</ele>
        <time>2018-07-13T19:51:01Z</time>
      </trkpt>
      <trkpt lat="27.945080" lon="-15.540275">
        <ele>1621.80</ele>
        <time>2018-07-13T19:51:03Z</time>
      </trkpt>
      <trkpt lat="27.945097" lon="-15.540242">
        <ele>1621.80</ele>
        <time>2018-07-13T19:51:05Z</time>
      </trkpt>
      <trkpt lat="27.945113" lon="-15.540207">
        <ele>1621.60</ele>
        <time>2018-07-13T19:51:07Z</time>
      </trkpt>
      <trkpt lat="27.945129" lon="-15.540178">
        <ele>1621.60</ele>
        <time>2018-07-13T19:51:09Z</time>
      </trkpt>
      <trkpt lat="27.945140" lon="-15.540151">
        <ele>1621.60</ele>
        <time>2018-07-13T19:51:11Z</time>
      </trkpt>
      <trkpt lat="27.945155" lon="-15.540118">
        <ele>1621.60</ele>
        <time>2018-07-13T19:51:13Z</time>
      </trkpt>
      <trkpt lat="27.945168" lon="-15.540088">
        <ele>1621.40</ele>
        <time>2018-07-13T19:51:15Z</time>
      </trkpt>
      <trkpt lat="27.945186" lon="-15.540066">
        <ele>1621.60</ele>
        <time>2018-07-13T19:51:17Z</time>
      </trkpt>
      <trkpt lat="27.945202" lon="-15.540038">
        <ele>1621.60</ele>
        <time>2018-07-13T19:51:19Z</time>
      </trkpt>
      <trkpt lat="27.945213" lon="-15.540018">
        <ele>1621.60</ele>
        <time>2018-07-13T19:51:20Z</time>
      </trkpt>
      <trkpt lat="27.945227" lon="-15.539987">
        <ele>1621.60</ele>
        <time>2018-07-13T19:51:22Z</time>
      </trkpt>
      <trkpt lat="27.945230" lon="-15.539948">
        <ele>1621.40</ele>
        <time>2018-07-13T19:51:24Z</time>
      </trkpt>
      <trkpt lat="27.945242" lon="-15.539923">
        <ele>1621.20</ele>
        <time>2018-07-13T19:51:26Z</time>
      </trkpt>
      <trkpt lat="27.945250" lon="-15.539894">
        <ele>1621.00</ele>
        <time>2018-07-13T19:51:28Z</time>
      </trkpt>
      <trkpt lat="27.945258" lon="-15.539865">
        <ele>1620.80</ele>
        <time>2018-07-13T19:51:30Z</time>
      </trkpt>
      <trkpt lat="27.945268" lon="-15.539838">
        <ele>1620.80</ele>
        <time>2018-07-13T19:51:32Z</time>
      </trkpt>
      <trkpt lat="27.945287" lon="-15.539809">
        <ele>1620.80</ele>
        <time>2018-07-13T19:51:34Z</time>
      </trkpt>
      <trkpt lat="27.945298" lon="-15.539780">
        <ele>1620.80</ele>
        <time>2018-07-13T19:51:36Z</time>
      </trkpt>
      <trkpt lat="27.945297" lon="-15.539737">
        <ele>1620.80</ele>
        <time>2018-07-13T19:51:38Z</time>
      </trkpt>
      <trkpt lat="27.945301" lon="-15.539717">
        <ele>1620.80</ele>
        <time>2018-07-13T19:51:39Z</time>
      </trkpt>
      <trkpt lat="27.945307" lon="-15.539696">
        <ele>1621.00</ele>
        <time>2018-07-13T19:51:40Z</time>
      </trkpt>
      <trkpt lat="27.945323" lon="-15.539668">
        <ele>1621.00</ele>
        <time>2018-07-13T19:51:42Z</time>
      </trkpt>
      <trkpt lat="27.945336" lon="-15.539652">
        <ele>1620.80</ele>
        <time>2018-07-13T19:51:43Z</time>
      </trkpt>
      <trkpt lat="27.945344" lon="-15.539633">
        <ele>1620.40</ele>
        <time>2018-07-13T19:51:44Z</time>
      </trkpt>
      <trkpt lat="27.945360" lon="-15.539617">
        <ele>1620.40</ele>
        <time>2018-07-13T19:51:45Z</time>
      </trkpt>
      <trkpt lat="27.945374" lon="-15.539594">
        <ele>1620.80</ele>
        <time>2018-07-13T19:51:46Z</time>
      </trkpt>
      <trkpt lat="27.945391" lon="-15.539573">
        <ele>1620.40</ele>
        <time>2018-07-13T19:51:47Z</time>
      </trkpt>
      <trkpt lat="27.945410" lon="-15.539550">
        <ele>1620.40</ele>
        <time>2018-07-13T19:51:48Z</time>
      </trkpt>
      <trkpt lat="27.945429" lon="-15.539524">
        <ele>1620.40</ele>
        <time>2018-07-13T19:51:49Z</time>
      </trkpt>
      <trkpt lat="27.945444" lon="-15.539504">
        <ele>1620.40</ele>
        <time>2018-07-13T19:51:50Z</time>
      </trkpt>
      <trkpt lat="27.945464" lon="-15.539489">
        <ele>1620.40</ele>
        <time>2018-07-13T19:51:51Z</time>
      </trkpt>
      <trkpt lat="27.945487" lon="-15.539473">
        <ele>1619.80</ele>
        <time>2018-07-13T19:51:52Z</time>
      </trkpt>
      <trkpt lat="27.945513" lon="-15.539456">
        <ele>1619.20</ele>
        <time>2018-07-13T19:51:53Z</time>
      </trkpt>
      <trkpt lat="27.945535" lon="-15.539444">
        <ele>1618.00</ele>
        <time>2018-07-13T19:51:54Z</time>
      </trkpt>
      <trkpt lat="27.945556" lon="-15.539442">
        <ele>1618.00</ele>
        <time>2018-07-13T19:51:55Z</time>
      </trkpt>
      <trkpt lat="27.945589" lon="-15.539435">
        <ele>1616.20</ele>
        <time>2018-07-13T19:51:57Z</time>
      </trkpt>
      <trkpt lat="27.945607" lon="-15.539430">
        <ele>1616.20</ele>
        <time>2018-07-13T19:51:58Z</time>
      </trkpt>
      <trkpt lat="27.945633" lon="-15.539430">
        <ele>1616.00</ele>
        <time>2018-07-13T19:51:59Z</time>
      </trkpt>
      <trkpt lat="27.945665" lon="-15.539425">
        <ele>1616.00</ele>
        <time>2018-07-13T19:52:00Z</time>
      </trkpt>
      <trkpt lat="27.945687" lon="-15.539422">
        <ele>1616.00</ele>
        <time>2018-07-13T19:52:01Z</time>
      </trkpt>
      <trkpt lat="27.945710" lon="-15.539424">
        <ele>1615.20</ele>
        <time>2018-07-13T19:52:02Z</time>
      </trkpt>
      <trkpt lat="27.945732" lon="-15.539424">
        <ele>1615.00</ele>
        <time>2018-07-13T19:52:03Z</time>
      </trkpt>
      <trkpt lat="27.945748" lon="-15.539434">
        <ele>1614.40</ele>
        <time>2018-07-13T19:52:04Z</time>
      </trkpt>
      <trkpt lat="27.945768" lon="-15.539442">
        <ele>1613.60</ele>
        <time>2018-07-13T19:52:05Z</time>
      </trkpt>
      <trkpt lat="27.945796" lon="-15.539448">
        <ele>1613.20</ele>
        <time>2018-07-13T19:52:06Z</time>
      </trkpt>
      <trkpt lat="27.945828" lon="-15.539457">
        <ele>1613.20</ele>
        <time>2018-07-13T19:52:07Z</time>
      </trkpt>
      <trkpt lat="27.945862" lon="-15.539469">
        <ele>1612.20</ele>
        <time>2018-07-13T19:52:08Z</time>
      </trkpt>
      <trkpt lat="27.945891" lon="-15.539484">
        <ele>1612.20</ele>
        <time>2018-07-13T19:52:09Z</time>
      </trkpt>
      <trkpt lat="27.945916" lon="-15.539496">
        <ele>1611.60</ele>
        <time>2018-07-13T19:52:10Z</time>
      </trkpt>
      <trkpt lat="27.945941" lon="-15.539511">
        <ele>1611.20</ele>
        <time>2018-07-13T19:52:11Z</time>
      </trkpt>
      <trkpt lat="27.945968" lon="-15.539524">
        <ele>1610.80</ele>
        <time>2018-07-13T19:52:12Z</time>
      </trkpt>
      <trkpt lat="27.945993" lon="-15.539537">
        <ele>1610.00</ele>
        <time>2018-07-13T19:52:13Z</time>
      </trkpt>
      <trkpt lat="27.946021" lon="-15.539547">
        <ele>1609.20</ele>
        <time>2018-07-13T19:52:14Z</time>
      </trkpt>
      <trkpt lat="27.946050" lon="-15.539562">
        <ele>1608.40</ele>
        <time>2018-07-13T19:52:15Z</time>
      </trkpt>
      <trkpt lat="27.946133" lon="-15.539595">
        <ele>1607.20</ele>
        <time>2018-07-13T19:52:18Z</time>
      </trkpt>
      <trkpt lat="27.946236" lon="-15.539649">
        <ele>1606.20</ele>
        <time>2018-07-13T19:52:21Z</time>
      </trkpt>
      <trkpt lat="27.946314" lon="-15.539702">
        <ele>1606.00</ele>
        <time>2018-07-13T19:52:24Z</time>
      </trkpt>
      <trkpt lat="27.946340" lon="-15.539716">
        <ele>1604.60</ele>
        <time>2018-07-13T19:52:25Z</time>
      </trkpt>
      <trkpt lat="27.946372" lon="-15.539727">
        <ele>1604.00</ele>
        <time>2018-07-13T19:52:26Z</time>
      </trkpt>
      <trkpt lat="27.946406" lon="-15.539732">
        <ele>1604.00</ele>
        <time>2018-07-13T19:52:27Z</time>
      </trkpt>
      <trkpt lat="27.946445" lon="-15.539728">
        <ele>1603.80</ele>
        <time>2018-07-13T19:52:28Z</time>
      </trkpt>
      <trkpt lat="27.946474" lon="-15.539722">
        <ele>1603.80</ele>
        <time>2018-07-13T19:52:29Z</time>
      </trkpt>
      <trkpt lat="27.946500" lon="-15.539710">
        <ele>1602.60</ele>
        <time>2018-07-13T19:52:30Z</time>
      </trkpt>
      <trkpt lat="27.946524" lon="-15.539693">
        <ele>1602.60</ele>
        <time>2018-07-13T19:52:31Z</time>
      </trkpt>
      <trkpt lat="27.946544" lon="-15.539679">
        <ele>1602.60</ele>
        <time>2018-07-13T19:52:32Z</time>
      </trkpt>
      <trkpt lat="27.946565" lon="-15.539659">
        <ele>1602.40</ele>
        <time>2018-07-13T19:52:33Z</time>
      </trkpt>
      <trkpt lat="27.946588" lon="-15.539643">
        <ele>1602.40</ele>
        <time>2018-07-13T19:52:34Z</time>
      </trkpt>
      <trkpt lat="27.946607" lon="-15.539629">
        <ele>1602.80</ele>
        <time>2018-07-13T19:52:35Z</time>
      </trkpt>
      <trkpt lat="27.946594" lon="-15.539610">
        <ele>1603.40</ele>
        <time>2018-07-13T19:52:40Z</time>
      </trkpt>
      <trkpt lat="27.946612" lon="-15.539581">
        <ele>1604.00</ele>
        <time>2018-07-13T19:52:45Z</time>
      </trkpt>
      <trkpt lat="27.946625" lon="-15.539552">
        <ele>1604.00</ele>
        <time>2018-07-13T19:52:47Z</time>
      </trkpt>
      <trkpt lat="27.946643" lon="-15.539531">
        <ele>1604.00</ele>
        <time>2018-07-13T19:52:49Z</time>
      </trkpt>
      <trkpt lat="27.946664" lon="-15.539515">
        <ele>1604.00</ele>
        <time>2018-07-13T19:52:51Z</time>
      </trkpt>
      <trkpt lat="27.946684" lon="-15.539508">
        <ele>1604.20</ele>
        <time>2018-07-13T19:52:53Z</time>
      </trkpt>
      <trkpt lat="27.946701" lon="-15.539521">
        <ele>1604.60</ele>
        <time>2018-07-13T19:52:56Z</time>
      </trkpt>
      <trkpt lat="27.946715" lon="-15.539505">
        <ele>1604.80</ele>
        <time>2018-07-13T19:52:57Z</time>
      </trkpt>
      <trkpt lat="27.946727" lon="-15.539489">
        <ele>1605.00</ele>
        <time>2018-07-13T19:52:58Z</time>
      </trkpt>
      <trkpt lat="27.946740" lon="-15.539472">
        <ele>1605.20</ele>
        <time>2018-07-13T19:52:59Z</time>
      </trkpt>
      <trkpt lat="27.946760" lon="-15.539442">
        <ele>1605.40</ele>
        <time>2018-07-13T19:53:01Z</time>
      </trkpt>
      <trkpt lat="27.946762" lon="-15.539407">
        <ele>1605.60</ele>
        <time>2018-07-13T19:53:03Z</time>
      </trkpt>
      <trkpt lat="27.946761" lon="-15.539372">
        <ele>1606.00</ele>
        <time>2018-07-13T19:53:05Z</time>
      </trkpt>
      <trkpt lat="27.946752" lon="-15.539349">
        <ele>1606.00</ele>
        <time>2018-07-13T19:53:06Z</time>
      </trkpt>
      <trkpt lat="27.946740" lon="-15.539322">
        <ele>1606.00</ele>
        <time>2018-07-13T19:53:07Z</time>
      </trkpt>
      <trkpt lat="27.946732" lon="-15.539297">
        <ele>1606.00</ele>
        <time>2018-07-13T19:53:08Z</time>
      </trkpt>
      <trkpt lat="27.946726" lon="-15.539273">
        <ele>1606.00</ele>
        <time>2018-07-13T19:53:09Z</time>
      </trkpt>
      <trkpt lat="27.946717" lon="-15.539243">
        <ele>1606.00</ele>
        <time>2018-07-13T19:53:11Z</time>
      </trkpt>
      <trkpt lat="27.946697" lon="-15.539211">
        <ele>1606.20</ele>
        <time>2018-07-13T19:53:13Z</time>
      </trkpt>
      <trkpt lat="27.946682" lon="-15.539191">
        <ele>1607.20</ele>
        <time>2018-07-13T19:53:14Z</time>
      </trkpt>
      <trkpt lat="27.946671" lon="-15.539172">
        <ele>1607.20</ele>
        <time>2018-07-13T19:53:15Z</time>
      </trkpt>
      <trkpt lat="27.946664" lon="-15.539133">
        <ele>1607.00</ele>
        <time>2018-07-13T19:53:17Z</time>
      </trkpt>
      <trkpt lat="27.946669" lon="-15.539103">
        <ele>1605.40</ele>
        <time>2018-07-13T19:53:19Z</time>
      </trkpt>
      <trkpt lat="27.946662" lon="-15.539070">
        <ele>1605.00</ele>
        <time>2018-07-13T19:53:21Z</time>
      </trkpt>
      <trkpt lat="27.946654" lon="-15.539034">
        <ele>1604.60</ele>
        <time>2018-07-13T19:53:23Z</time>
      </trkpt>
      <trkpt lat="27.946633" lon="-15.539007">
        <ele>1604.40</ele>
        <time>2018-07-13T19:53:25Z</time>
      </trkpt>
      <trkpt lat="27.946615" lon="-15.538980">
        <ele>1604.40</ele>
        <time>2018-07-13T19:53:27Z</time>
      </trkpt>
      <trkpt lat="27.946602" lon="-15.538955">
        <ele>1605.20</ele>
        <time>2018-07-13T19:53:28Z</time>
      </trkpt>
      <trkpt lat="27.946598" lon="-15.538930">
        <ele>1605.20</ele>
        <time>2018-07-13T19:53:29Z</time>
      </trkpt>
      <trkpt lat="27.946597" lon="-15.538903">
        <ele>1605.20</ele>
        <time>2018-07-13T19:53:30Z</time>
      </trkpt>
      <trkpt lat="27.946594" lon="-15.538880">
        <ele>1605.20</ele>
        <time>2018-07-13T19:53:31Z</time>
      </trkpt>
      <trkpt lat="27.946593" lon="-15.538856">
        <ele>1605.40</ele>
        <time>2018-07-13T19:53:32Z</time>
      </trkpt>
      <trkpt lat="27.946592" lon="-15.538828">
        <ele>1605.20</ele>
        <time>2018-07-13T19:53:33Z</time>
      </trkpt>
      <trkpt lat="27.946596" lon="-15.538806">
        <ele>1605.20</ele>
        <time>2018-07-13T19:53:34Z</time>
      </trkpt>
      <trkpt lat="27.946602" lon="-15.538779">
        <ele>1604.60</ele>
        <time>2018-07-13T19:53:35Z</time>
      </trkpt>
      <trkpt lat="27.946611" lon="-15.538747">
        <ele>1604.00</ele>
        <time>2018-07-13T19:53:36Z</time>
      </trkpt>
      <trkpt lat="27.946620" lon="-15.538716">
        <ele>1603.80</ele>
        <time>2018-07-13T19:53:37Z</time>
      </trkpt>
      <trkpt lat="27.946630" lon="-15.538688">
        <ele>1603.60</ele>
        <time>2018-07-13T19:53:38Z</time>
      </trkpt>
      <trkpt lat="27.946640" lon="-15.538661">
        <ele>1603.60</ele>
        <time>2018-07-13T19:53:39Z</time>
      </trkpt>
      <trkpt lat="27.946647" lon="-15.538632">
        <ele>1603.40</ele>
        <time>2018-07-13T19:53:40Z</time>
      </trkpt>
      <trkpt lat="27.946657" lon="-15.538604">
        <ele>1603.40</ele>
        <time>2018-07-13T19:53:41Z</time>
      </trkpt>
      <trkpt lat="27.946666" lon="-15.538582">
        <ele>1603.40</ele>
        <time>2018-07-13T19:53:42Z</time>
      </trkpt>
      <trkpt lat="27.946672" lon="-15.538554">
        <ele>1602.60</ele>
        <time>2018-07-13T19:53:43Z</time>
      </trkpt>
      <trkpt lat="27.946680" lon="-15.538527">
        <ele>1602.40</ele>
        <time>2018-07-13T19:53:44Z</time>
      </trkpt>
      <trkpt lat="27.946681" lon="-15.538495">
        <ele>1602.60</ele>
        <time>2018-07-13T19:53:45Z</time>
      </trkpt>
      <trkpt lat="27.946684" lon="-15.538458">
        <ele>1602.40</ele>
        <time>2018-07-13T19:53:46Z</time>
      </trkpt>
      <trkpt lat="27.946684" lon="-15.538424">
        <ele>1601.80</ele>
        <time>2018-07-13T19:53:47Z</time>
      </trkpt>
      <trkpt lat="27.946688" lon="-15.538393">
        <ele>1601.60</ele>
        <time>2018-07-13T19:53:48Z</time>
      </trkpt>
      <trkpt lat="27.946692" lon="-15.538359">
        <ele>1601.00</ele>
        <time>2018-07-13T19:53:49Z</time>
      </trkpt>
      <trkpt lat="27.946692" lon="-15.538328">
        <ele>1600.40</ele>
        <time>2018-07-13T19:53:50Z</time>
      </trkpt>
      <trkpt lat="27.946692" lon="-15.538289">
        <ele>1600.40</ele>
        <time>2018-07-13T19:53:51Z</time>
      </trkpt>
      <trkpt lat="27.946692" lon="-15.538252">
        <ele>1600.40</ele>
        <time>2018-07-13T19:53:52Z</time>
      </trkpt>
      <trkpt lat="27.946695" lon="-15.538219">
        <ele>1599.20</ele>
        <time>2018-07-13T19:53:53Z</time>
      </trkpt>
      <trkpt lat="27.946697" lon="-15.538189">
        <ele>1598.80</ele>
        <time>2018-07-13T19:53:54Z</time>
      </trkpt>
      <trkpt lat="27.946695" lon="-15.538162">
        <ele>1598.80</ele>
        <time>2018-07-13T19:53:55Z</time>
      </trkpt>
      <trkpt lat="27.946691" lon="-15.538131">
        <ele>1598.40</ele>
        <time>2018-07-13T19:53:56Z</time>
      </trkpt>
      <trkpt lat="27.946684" lon="-15.538096">
        <ele>1597.60</ele>
        <time>2018-07-13T19:53:57Z</time>
      </trkpt>
      <trkpt lat="27.946681" lon="-15.538060">
        <ele>1597.40</ele>
        <time>2018-07-13T19:53:58Z</time>
      </trkpt>
      <trkpt lat="27.946678" lon="-15.538027">
        <ele>1596.00</ele>
        <time>2018-07-13T19:53:59Z</time>
      </trkpt>
      <trkpt lat="27.946675" lon="-15.537994">
        <ele>1596.00</ele>
        <time>2018-07-13T19:54:00Z</time>
      </trkpt>
      <trkpt lat="27.946673" lon="-15.537957">
        <ele>1596.00</ele>
        <time>2018-07-13T19:54:01Z</time>
      </trkpt>
      <trkpt lat="27.946666" lon="-15.537912">
        <ele>1596.00</ele>
        <time>2018-07-13T19:54:02Z</time>
      </trkpt>
      <trkpt lat="27.946658" lon="-15.537868">
        <ele>1594.60</ele>
        <time>2018-07-13T19:54:03Z</time>
      </trkpt>
      <trkpt lat="27.946646" lon="-15.537827">
        <ele>1594.60</ele>
        <time>2018-07-13T19:54:04Z</time>
      </trkpt>
      <trkpt lat="27.946620" lon="-15.537790">
        <ele>1594.40</ele>
        <time>2018-07-13T19:54:05Z</time>
      </trkpt>
      <trkpt lat="27.946591" lon="-15.537758">
        <ele>1593.40</ele>
        <time>2018-07-13T19:54:06Z</time>
      </trkpt>
      <trkpt lat="27.946561" lon="-15.537732">
        <ele>1592.40</ele>
        <time>2018-07-13T19:54:07Z</time>
      </trkpt>
      <trkpt lat="27.946529" lon="-15.537703">
        <ele>1592.20</ele>
        <time>2018-07-13T19:54:08Z</time>
      </trkpt>
      <trkpt lat="27.946501" lon="-15.537677">
        <ele>1591.60</ele>
        <time>2018-07-13T19:54:09Z</time>
      </trkpt>
      <trkpt lat="27.946470" lon="-15.537654">
        <ele>1591.60</ele>
        <time>2018-07-13T19:54:10Z</time>
      </trkpt>
      <trkpt lat="27.946436" lon="-15.537636">
        <ele>1590.20</ele>
        <time>2018-07-13T19:54:11Z</time>
      </trkpt>
      <trkpt lat="27.946407" lon="-15.537609">
        <ele>1590.00</ele>
        <time>2018-07-13T19:54:12Z</time>
      </trkpt>
      <trkpt lat="27.946383" lon="-15.537581">
        <ele>1590.00</ele>
        <time>2018-07-13T19:54:13Z</time>
      </trkpt>
      <trkpt lat="27.946369" lon="-15.537561">
        <ele>1590.00</ele>
        <time>2018-07-13T19:54:14Z</time>
      </trkpt>
      <trkpt lat="27.946361" lon="-15.537534">
        <ele>1589.60</ele>
        <time>2018-07-13T19:54:15Z</time>
      </trkpt>
      <trkpt lat="27.946362" lon="-15.537511">
        <ele>1589.20</ele>
        <time>2018-07-13T19:54:16Z</time>
      </trkpt>
      <trkpt lat="27.946369" lon="-15.537486">
        <ele>1587.40</ele>
        <time>2018-07-13T19:54:17Z</time>
      </trkpt>
      <trkpt lat="27.946380" lon="-15.537459">
        <ele>1586.80</ele>
        <time>2018-07-13T19:54:18Z</time>
      </trkpt>
      <trkpt lat="27.946392" lon="-15.537434">
        <ele>1586.60</ele>
        <time>2018-07-13T19:54:19Z</time>
      </trkpt>
      <trkpt lat="27.946405" lon="-15.537407">
        <ele>1586.60</ele>
        <time>2018-07-13T19:54:20Z</time>
      </trkpt>
      <trkpt lat="27.946420" lon="-15.537372">
        <ele>1586.20</ele>
        <time>2018-07-13T19:54:21Z</time>
      </trkpt>
      <trkpt lat="27.946428" lon="-15.537338">
        <ele>1585.60</ele>
        <time>2018-07-13T19:54:22Z</time>
      </trkpt>
      <trkpt lat="27.946437" lon="-15.537302">
        <ele>1584.80</ele>
        <time>2018-07-13T19:54:23Z</time>
      </trkpt>
      <trkpt lat="27.946444" lon="-15.537271">
        <ele>1584.00</ele>
        <time>2018-07-13T19:54:24Z</time>
      </trkpt>
      <trkpt lat="27.946450" lon="-15.537237">
        <ele>1583.00</ele>
        <time>2018-07-13T19:54:25Z</time>
      </trkpt>
      <trkpt lat="27.946457" lon="-15.537206">
        <ele>1583.00</ele>
        <time>2018-07-13T19:54:26Z</time>
      </trkpt>
      <trkpt lat="27.946466" lon="-15.537177">
        <ele>1582.80</ele>
        <time>2018-07-13T19:54:27Z</time>
      </trkpt>
      <trkpt lat="27.946472" lon="-15.537156">
        <ele>1582.80</ele>
        <time>2018-07-13T19:54:28Z</time>
      </trkpt>
      <trkpt lat="27.946480" lon="-15.537131">
        <ele>1582.60</ele>
        <time>2018-07-13T19:54:29Z</time>
      </trkpt>
      <trkpt lat="27.946487" lon="-15.537104">
        <ele>1581.80</ele>
        <time>2018-07-13T19:54:30Z</time>
      </trkpt>
      <trkpt lat="27.946497" lon="-15.537069">
        <ele>1581.60</ele>
        <time>2018-07-13T19:54:31Z</time>
      </trkpt>
      <trkpt lat="27.946504" lon="-15.537031">
        <ele>1580.80</ele>
        <time>2018-07-13T19:54:32Z</time>
      </trkpt>
      <trkpt lat="27.946493" lon="-15.536994">
        <ele>1580.40</ele>
        <time>2018-07-13T19:54:33Z</time>
      </trkpt>
      <trkpt lat="27.946477" lon="-15.536948">
        <ele>1580.20</ele>
        <time>2018-07-13T19:54:34Z</time>
      </trkpt>
      <trkpt lat="27.946466" lon="-15.536902">
        <ele>1579.00</ele>
        <time>2018-07-13T19:54:35Z</time>
      </trkpt>
      <trkpt lat="27.946454" lon="-15.536861">
        <ele>1578.80</ele>
        <time>2018-07-13T19:54:36Z</time>
      </trkpt>
      <trkpt lat="27.946442" lon="-15.536819">
        <ele>1578.20</ele>
        <time>2018-07-13T19:54:37Z</time>
      </trkpt>
      <trkpt lat="27.946419" lon="-15.536780">
        <ele>1578.20</ele>
        <time>2018-07-13T19:54:38Z</time>
      </trkpt>
      <trkpt lat="27.946396" lon="-15.536742">
        <ele>1577.40</ele>
        <time>2018-07-13T19:54:39Z</time>
      </trkpt>
      <trkpt lat="27.946375" lon="-15.536712">
        <ele>1576.60</ele>
        <time>2018-07-13T19:54:40Z</time>
      </trkpt>
      <trkpt lat="27.946354" lon="-15.536677">
        <ele>1576.40</ele>
        <time>2018-07-13T19:54:41Z</time>
      </trkpt>
      <trkpt lat="27.946332" lon="-15.536651">
        <ele>1576.40</ele>
        <time>2018-07-13T19:54:42Z</time>
      </trkpt>
      <trkpt lat="27.946310" lon="-15.536627">
        <ele>1576.40</ele>
        <time>2018-07-13T19:54:43Z</time>
      </trkpt>
      <trkpt lat="27.946283" lon="-15.536605">
        <ele>1576.40</ele>
        <time>2018-07-13T19:54:44Z</time>
      </trkpt>
      <trkpt lat="27.946258" lon="-15.536586">
        <ele>1576.60</ele>
        <time>2018-07-13T19:54:45Z</time>
      </trkpt>
      <trkpt lat="27.946234" lon="-15.536562">
        <ele>1576.60</ele>
        <time>2018-07-13T19:54:46Z</time>
      </trkpt>
      <trkpt lat="27.946208" lon="-15.536542">
        <ele>1576.60</ele>
        <time>2018-07-13T19:54:47Z</time>
      </trkpt>
      <trkpt lat="27.946186" lon="-15.536528">
        <ele>1576.60</ele>
        <time>2018-07-13T19:54:48Z</time>
      </trkpt>
      <trkpt lat="27.946169" lon="-15.536518">
        <ele>1577.00</ele>
        <time>2018-07-13T19:54:49Z</time>
      </trkpt>
      <trkpt lat="27.946145" lon="-15.536500">
        <ele>1575.80</ele>
        <time>2018-07-13T19:54:51Z</time>
      </trkpt>
      <trkpt lat="27.946123" lon="-15.536488">
        <ele>1575.80</ele>
        <time>2018-07-13T19:54:53Z</time>
      </trkpt>
      <trkpt lat="27.946104" lon="-15.536481">
        <ele>1575.60</ele>
        <time>2018-07-13T19:54:54Z</time>
      </trkpt>
      <trkpt lat="27.946084" lon="-15.536469">
        <ele>1575.60</ele>
        <time>2018-07-13T19:54:56Z</time>
      </trkpt>
      <trkpt lat="27.946068" lon="-15.536443">
        <ele>1575.80</ele>
        <time>2018-07-13T19:54:58Z</time>
      </trkpt>
      <trkpt lat="27.946053" lon="-15.536420">
        <ele>1576.00</ele>
        <time>2018-07-13T19:55:00Z</time>
      </trkpt>
      <trkpt lat="27.946039" lon="-15.536393">
        <ele>1576.00</ele>
        <time>2018-07-13T19:55:02Z</time>
      </trkpt>
      <trkpt lat="27.946018" lon="-15.536370">
        <ele>1576.20</ele>
        <time>2018-07-13T19:55:04Z</time>
      </trkpt>
      <trkpt lat="27.945990" lon="-15.536354">
        <ele>1576.40</ele>
        <time>2018-07-13T19:55:06Z</time>
      </trkpt>
      <trkpt lat="27.945964" lon="-15.536338">
        <ele>1576.60</ele>
        <time>2018-07-13T19:55:08Z</time>
      </trkpt>
      <trkpt lat="27.945931" lon="-15.536332">
        <ele>1577.40</ele>
        <time>2018-07-13T19:55:10Z</time>
      </trkpt>
      <trkpt lat="27.945904" lon="-15.536328">
        <ele>1577.60</ele>
        <time>2018-07-13T19:55:12Z</time>
      </trkpt>
      <trkpt lat="27.945869" lon="-15.536319">
        <ele>1577.80</ele>
        <time>2018-07-13T19:55:14Z</time>
      </trkpt>
      <trkpt lat="27.945837" lon="-15.536315">
        <ele>1577.80</ele>
        <time>2018-07-13T19:55:16Z</time>
      </trkpt>
      <trkpt lat="27.945810" lon="-15.536312">
        <ele>1578.20</ele>
        <time>2018-07-13T19:55:18Z</time>
      </trkpt>
      <trkpt lat="27.945784" lon="-15.536296">
        <ele>1578.20</ele>
        <time>2018-07-13T19:55:20Z</time>
      </trkpt>
      <trkpt lat="27.945755" lon="-15.536275">
        <ele>1578.20</ele>
        <time>2018-07-13T19:55:22Z</time>
      </trkpt>
      <trkpt lat="27.945726" lon="-15.536261">
        <ele>1577.80</ele>
        <time>2018-07-13T19:55:24Z</time>
      </trkpt>
      <trkpt lat="27.945699" lon="-15.536237">
        <ele>1577.80</ele>
        <time>2018-07-13T19:55:26Z</time>
      </trkpt>
      <trkpt lat="27.945676" lon="-15.536214">
        <ele>1577.60</ele>
        <time>2018-07-13T19:55:28Z</time>
      </trkpt>
      <trkpt lat="27.945653" lon="-15.536195">
        <ele>1577.40</ele>
        <time>2018-07-13T19:55:30Z</time>
      </trkpt>
      <trkpt lat="27.945632" lon="-15.536171">
        <ele>1577.60</ele>
        <time>2018-07-13T19:55:32Z</time>
      </trkpt>
      <trkpt lat="27.945611" lon="-15.536153">
        <ele>1577.80</ele>
        <time>2018-07-13T19:55:34Z</time>
      </trkpt>
      <trkpt lat="27.945584" lon="-15.536142">
        <ele>1577.80</ele>
        <time>2018-07-13T19:55:36Z</time>
      </trkpt>
      <trkpt lat="27.945554" lon="-15.536128">
        <ele>1577.80</ele>
        <time>2018-07-13T19:55:38Z</time>
      </trkpt>
      <trkpt lat="27.945525" lon="-15.536112">
        <ele>1578.20</ele>
        <time>2018-07-13T19:55:40Z</time>
      </trkpt>
      <trkpt lat="27.945497" lon="-15.536098">
        <ele>1578.40</ele>
        <time>2018-07-13T19:55:42Z</time>
      </trkpt>
      <trkpt lat="27.945467" lon="-15.536090">
        <ele>1578.40</ele>
        <time>2018-07-13T19:55:44Z</time>
      </trkpt>
      <trkpt lat="27.945438" lon="-15.536091">
        <ele>1578.40</ele>
        <time>2018-07-13T19:55:46Z</time>
      </trkpt>
      <trkpt lat="27.945412" lon="-15.536090">
        <ele>1578.80</ele>
        <time>2018-07-13T19:55:48Z</time>
      </trkpt>
      <trkpt lat="27.945381" lon="-15.536089">
        <ele>1579.20</ele>
        <time>2018-07-13T19:55:50Z</time>
      </trkpt>
      <trkpt lat="27.945348" lon="-15.536091">
        <ele>1579.60</ele>
        <time>2018-07-13T19:55:52Z</time>
      </trkpt>
      <trkpt lat="27.945330" lon="-15.536090">
        <ele>1579.80</ele>
        <time>2018-07-13T19:55:53Z</time>
      </trkpt>
      <trkpt lat="27.945301" lon="-15.536083">
        <ele>1580.00</ele>
        <time>2018-07-13T19:55:55Z</time>
      </trkpt>
      <trkpt lat="27.945266" lon="-15.536072">
        <ele>1580.40</ele>
        <time>2018-07-13T19:55:57Z</time>
      </trkpt>
      <trkpt lat="27.945243" lon="-15.536063">
        <ele>1581.00</ele>
        <time>2018-07-13T19:55:59Z</time>
      </trkpt>
      <trkpt lat="27.945212" lon="-15.536052">
        <ele>1581.00</ele>
        <time>2018-07-13T19:56:01Z</time>
      </trkpt>
      <trkpt lat="27.945177" lon="-15.536040">
        <ele>1581.00</ele>
        <time>2018-07-13T19:56:03Z</time>
      </trkpt>
      <trkpt lat="27.945144" lon="-15.536022">
        <ele>1581.00</ele>
        <time>2018-07-13T19:56:05Z</time>
      </trkpt>
      <trkpt lat="27.945113" lon="-15.536006">
        <ele>1581.20</ele>
        <time>2018-07-13T19:56:07Z</time>
      </trkpt>
      <trkpt lat="27.945087" lon="-15.535993">
        <ele>1581.40</ele>
        <time>2018-07-13T19:56:09Z</time>
      </trkpt>
      <trkpt lat="27.945058" lon="-15.535983">
        <ele>1581.40</ele>
        <time>2018-07-13T19:56:11Z</time>
      </trkpt>
      <trkpt lat="27.945030" lon="-15.535980">
        <ele>1582.20</ele>
        <time>2018-07-13T19:56:13Z</time>
      </trkpt>
      <trkpt lat="27.945004" lon="-15.535970">
        <ele>1582.00</ele>
        <time>2018-07-13T19:56:15Z</time>
      </trkpt>
      <trkpt lat="27.944976" lon="-15.535949">
        <ele>1582.00</ele>
        <time>2018-07-13T19:56:17Z</time>
      </trkpt>
      <trkpt lat="27.944958" lon="-15.535940">
        <ele>1582.00</ele>
        <time>2018-07-13T19:56:18Z</time>
      </trkpt>
      <trkpt lat="27.944928" lon="-15.535930">
        <ele>1581.80</ele>
        <time>2018-07-13T19:56:20Z</time>
      </trkpt>
      <trkpt lat="27.944900" lon="-15.535929">
        <ele>1581.20</ele>
        <time>2018-07-13T19:56:22Z</time>
      </trkpt>
      <trkpt lat="27.944871" lon="-15.535917">
        <ele>1580.80</ele>
        <time>2018-07-13T19:56:24Z</time>
      </trkpt>
      <trkpt lat="27.944845" lon="-15.535906">
        <ele>1580.80</ele>
        <time>2018-07-13T19:56:26Z</time>
      </trkpt>
      <trkpt lat="27.944813" lon="-15.535891">
        <ele>1580.60</ele>
        <time>2018-07-13T19:56:28Z</time>
      </trkpt>
      <trkpt lat="27.944788" lon="-15.535872">
        <ele>1580.40</ele>
        <time>2018-07-13T19:56:30Z</time>
      </trkpt>
      <trkpt lat="27.944762" lon="-15.535853">
        <ele>1580.80</ele>
        <time>2018-07-13T19:56:32Z</time>
      </trkpt>
      <trkpt lat="27.944744" lon="-15.535842">
        <ele>1581.00</ele>
        <time>2018-07-13T19:56:33Z</time>
      </trkpt>
      <trkpt lat="27.944714" lon="-15.535826">
        <ele>1581.20</ele>
        <time>2018-07-13T19:56:35Z</time>
      </trkpt>
      <trkpt lat="27.944682" lon="-15.535811">
        <ele>1581.40</ele>
        <time>2018-07-13T19:56:37Z</time>
      </trkpt>
      <trkpt lat="27.944650" lon="-15.535808">
        <ele>1581.20</ele>
        <time>2018-07-13T19:56:39Z</time>
      </trkpt>
      <trkpt lat="27.944616" lon="-15.535800">
        <ele>1581.40</ele>
        <time>2018-07-13T19:56:41Z</time>
      </trkpt>
      <trkpt lat="27.944600" lon="-15.535793">
        <ele>1581.40</ele>
        <time>2018-07-13T19:56:42Z</time>
      </trkpt>
      <trkpt lat="27.944566" lon="-15.535780">
        <ele>1581.80</ele>
        <time>2018-07-13T19:56:44Z</time>
      </trkpt>
      <trkpt lat="27.944534" lon="-15.535778">
        <ele>1583.20</ele>
        <time>2018-07-13T19:56:46Z</time>
      </trkpt>
      <trkpt lat="27.944503" lon="-15.535778">
        <ele>1583.00</ele>
        <time>2018-07-13T19:56:48Z</time>
      </trkpt>
      <trkpt lat="27.944474" lon="-15.535774">
        <ele>1581.40</ele>
        <time>2018-07-13T19:56:50Z</time>
      </trkpt>
      <trkpt lat="27.944452" lon="-15.535765">
        <ele>1581.20</ele>
        <time>2018-07-13T19:56:52Z</time>
      </trkpt>
      <trkpt lat="27.944426" lon="-15.535761">
        <ele>1581.80</ele>
        <time>2018-07-13T19:56:54Z</time>
      </trkpt>
      <trkpt lat="27.944401" lon="-15.535755">
        <ele>1581.60</ele>
        <time>2018-07-13T19:56:56Z</time>
      </trkpt>
      <trkpt lat="27.944371" lon="-15.535742">
        <ele>1581.80</ele>
        <time>2018-07-13T19:56:58Z</time>
      </trkpt>
      <trkpt lat="27.944342" lon="-15.535733">
        <ele>1581.80</ele>
        <time>2018-07-13T19:57:00Z</time>
      </trkpt>
      <trkpt lat="27.944313" lon="-15.535722">
        <ele>1582.40</ele>
        <time>2018-07-13T19:57:02Z</time>
      </trkpt>
      <trkpt lat="27.944288" lon="-15.535717">
        <ele>1582.40</ele>
        <time>2018-07-13T19:57:04Z</time>
      </trkpt>
      <trkpt lat="27.944255" lon="-15.535713">
        <ele>1582.60</ele>
        <time>2018-07-13T19:57:06Z</time>
      </trkpt>
      <trkpt lat="27.944225" lon="-15.535709">
        <ele>1583.20</ele>
        <time>2018-07-13T19:57:08Z</time>
      </trkpt>
      <trkpt lat="27.944197" lon="-15.535705">
        <ele>1584.00</ele>
        <time>2018-07-13T19:57:10Z</time>
      </trkpt>
      <trkpt lat="27.944166" lon="-15.535704">
        <ele>1584.20</ele>
        <time>2018-07-13T19:57:12Z</time>
      </trkpt>
      <trkpt lat="27.944137" lon="-15.535700">
        <ele>1584.20</ele>
        <time>2018-07-13T19:57:14Z</time>
      </trkpt>
      <trkpt lat="27.944112" lon="-15.535695">
        <ele>1584.40</ele>
        <time>2018-07-13T19:57:16Z</time>
      </trkpt>
      <trkpt lat="27.944086" lon="-15.535684">
        <ele>1584.40</ele>
        <time>2018-07-13T19:57:18Z</time>
      </trkpt>
      <trkpt lat="27.944056" lon="-15.535682">
        <ele>1585.00</ele>
        <time>2018-07-13T19:57:20Z</time>
      </trkpt>
      <trkpt lat="27.944028" lon="-15.535672">
        <ele>1585.00</ele>
        <time>2018-07-13T19:57:22Z</time>
      </trkpt>
      <trkpt lat="27.943998" lon="-15.535663">
        <ele>1585.40</ele>
        <time>2018-07-13T19:57:24Z</time>
      </trkpt>
      <trkpt lat="27.943967" lon="-15.535657">
        <ele>1585.40</ele>
        <time>2018-07-13T19:57:26Z</time>
      </trkpt>
      <trkpt lat="27.943937" lon="-15.535655">
        <ele>1586.00</ele>
        <time>2018-07-13T19:57:28Z</time>
      </trkpt>
      <trkpt lat="27.943919" lon="-15.535653">
        <ele>1586.60</ele>
        <time>2018-07-13T19:57:29Z</time>
      </trkpt>
      <trkpt lat="27.943889" lon="-15.535649">
        <ele>1586.60</ele>
        <time>2018-07-13T19:57:31Z</time>
      </trkpt>
      <trkpt lat="27.943856" lon="-15.535646">
        <ele>1586.40</ele>
        <time>2018-07-13T19:57:33Z</time>
      </trkpt>
      <trkpt lat="27.943827" lon="-15.535642">
        <ele>1586.40</ele>
        <time>2018-07-13T19:57:35Z</time>
      </trkpt>
      <trkpt lat="27.943794" lon="-15.535642">
        <ele>1586.20</ele>
        <time>2018-07-13T19:57:37Z</time>
      </trkpt>
      <trkpt lat="27.943764" lon="-15.535634">
        <ele>1586.00</ele>
        <time>2018-07-13T19:57:39Z</time>
      </trkpt>
      <trkpt lat="27.943739" lon="-15.535623">
        <ele>1586.00</ele>
        <time>2018-07-13T19:57:41Z</time>
      </trkpt>
      <trkpt lat="27.943721" lon="-15.535613">
        <ele>1585.80</ele>
        <time>2018-07-13T19:57:42Z</time>
      </trkpt>
      <trkpt lat="27.943700" lon="-15.535596">
        <ele>1585.60</ele>
        <time>2018-07-13T19:57:43Z</time>
      </trkpt>
      <trkpt lat="27.943676" lon="-15.535578">
        <ele>1585.60</ele>
        <time>2018-07-13T19:57:44Z</time>
      </trkpt>
      <trkpt lat="27.943652" lon="-15.535558">
        <ele>1585.80</ele>
        <time>2018-07-13T19:57:45Z</time>
      </trkpt>
      <trkpt lat="27.943632" lon="-15.535536">
        <ele>1585.80</ele>
        <time>2018-07-13T19:57:46Z</time>
      </trkpt>
      <trkpt lat="27.943612" lon="-15.535512">
        <ele>1585.80</ele>
        <time>2018-07-13T19:57:47Z</time>
      </trkpt>
      <trkpt lat="27.943592" lon="-15.535490">
        <ele>1585.80</ele>
        <time>2018-07-13T19:57:48Z</time>
      </trkpt>
      <trkpt lat="27.943570" lon="-15.535465">
        <ele>1585.80</ele>
        <time>2018-07-13T19:57:49Z</time>
      </trkpt>
      <trkpt lat="27.943548" lon="-15.535440">
        <ele>1586.00</ele>
        <time>2018-07-13T19:57:50Z</time>
      </trkpt>
      <trkpt lat="27.943527" lon="-15.535411">
        <ele>1586.00</ele>
        <time>2018-07-13T19:57:51Z</time>
      </trkpt>
      <trkpt lat="27.943507" lon="-15.535384">
        <ele>1586.00</ele>
        <time>2018-07-13T19:57:52Z</time>
      </trkpt>
      <trkpt lat="27.943486" lon="-15.535357">
        <ele>1585.80</ele>
        <time>2018-07-13T19:57:53Z</time>
      </trkpt>
      <trkpt lat="27.943466" lon="-15.535330">
        <ele>1585.80</ele>
        <time>2018-07-13T19:57:54Z</time>
      </trkpt>
      <trkpt lat="27.943448" lon="-15.535299">
        <ele>1585.80</ele>
        <time>2018-07-13T19:57:55Z</time>
      </trkpt>
      <trkpt lat="27.943430" lon="-15.535266">
        <ele>1585.80</ele>
        <time>2018-07-13T19:57:56Z</time>
      </trkpt>
      <trkpt lat="27.943407" lon="-15.535236">
        <ele>1585.20</ele>
        <time>2018-07-13T19:57:57Z</time>
      </trkpt>
      <trkpt lat="27.943381" lon="-15.535202">
        <ele>1585.00</ele>
        <time>2018-07-13T19:57:58Z</time>
      </trkpt>
      <trkpt lat="27.943353" lon="-15.535172">
        <ele>1584.80</ele>
        <time>2018-07-13T19:57:59Z</time>
      </trkpt>
      <trkpt lat="27.943324" lon="-15.535146">
        <ele>1584.20</ele>
        <time>2018-07-13T19:58:00Z</time>
      </trkpt>
      <trkpt lat="27.943294" lon="-15.535124">
        <ele>1584.00</ele>
        <time>2018-07-13T19:58:01Z</time>
      </trkpt>
      <trkpt lat="27.943267" lon="-15.535103">
        <ele>1583.00</ele>
        <time>2018-07-13T19:58:02Z</time>
      </trkpt>
      <trkpt lat="27.943248" lon="-15.535086">
        <ele>1582.80</ele>
        <time>2018-07-13T19:58:03Z</time>
      </trkpt>
      <trkpt lat="27.943229" lon="-15.535077">
        <ele>1582.20</ele>
        <time>2018-07-13T19:58:04Z</time>
      </trkpt>
      <trkpt lat="27.943203" lon="-15.535057">
        <ele>1582.20</ele>
        <time>2018-07-13T19:58:06Z</time>
      </trkpt>
      <trkpt lat="27.943185" lon="-15.535034">
        <ele>1580.20</ele>
        <time>2018-07-13T19:58:08Z</time>
      </trkpt>
      <trkpt lat="27.943166" lon="-15.535015">
        <ele>1580.60</ele>
        <time>2018-07-13T19:58:10Z</time>
      </trkpt>
      <trkpt lat="27.943147" lon="-15.534993">
        <ele>1580.60</ele>
        <time>2018-07-13T19:58:12Z</time>
      </trkpt>
      <trkpt lat="27.943126" lon="-15.534972">
        <ele>1581.00</ele>
        <time>2018-07-13T19:58:14Z</time>
      </trkpt>
      <trkpt lat="27.943106" lon="-15.534953">
        <ele>1581.20</ele>
        <time>2018-07-13T19:58:16Z</time>
      </trkpt>
      <trkpt lat="27.943097" lon="-15.534929">
        <ele>1581.80</ele>
        <time>2018-07-13T19:58:18Z</time>
      </trkpt>
      <trkpt lat="27.943085" lon="-15.534904">
        <ele>1581.80</ele>
        <time>2018-07-13T19:58:20Z</time>
      </trkpt>
      <trkpt lat="27.943072" lon="-15.534881">
        <ele>1582.20</ele>
        <time>2018-07-13T19:58:22Z</time>
      </trkpt>
      <trkpt lat="27.943058" lon="-15.534866">
        <ele>1582.60</ele>
        <time>2018-07-13T19:58:24Z</time>
      </trkpt>
      <trkpt lat="27.943049" lon="-15.534840">
        <ele>1582.80</ele>
        <time>2018-07-13T19:58:26Z</time>
      </trkpt>
      <trkpt lat="27.943032" lon="-15.534822">
        <ele>1583.00</ele>
        <time>2018-07-13T19:58:28Z</time>
      </trkpt>
      <trkpt lat="27.943014" lon="-15.534804">
        <ele>1583.40</ele>
        <time>2018-07-13T19:58:30Z</time>
      </trkpt>
      <trkpt lat="27.942995" lon="-15.534790">
        <ele>1584.20</ele>
        <time>2018-07-13T19:58:32Z</time>
      </trkpt>
      <trkpt lat="27.942979" lon="-15.534772">
        <ele>1584.40</ele>
        <time>2018-07-13T19:58:34Z</time>
      </trkpt>
      <trkpt lat="27.942962" lon="-15.534752">
        <ele>1584.60</ele>
        <time>2018-07-13T19:58:36Z</time>
      </trkpt>
      <trkpt lat="27.942947" lon="-15.534729">
        <ele>1584.60</ele>
        <time>2018-07-13T19:58:38Z</time>
      </trkpt>
      <trkpt lat="27.942933" lon="-15.534706">
        <ele>1584.80</ele>
        <time>2018-07-13T19:58:40Z</time>
      </trkpt>
      <trkpt lat="27.942917" lon="-15.534687">
        <ele>1585.40</ele>
        <time>2018-07-13T19:58:42Z</time>
      </trkpt>
      <trkpt lat="27.942902" lon="-15.534665">
        <ele>1586.00</ele>
        <time>2018-07-13T19:58:44Z</time>
      </trkpt>
      <trkpt lat="27.942887" lon="-15.534652">
        <ele>1586.20</ele>
        <time>2018-07-13T19:58:48Z</time>
      </trkpt>
      <trkpt lat="27.942861" lon="-15.534625">
        <ele>1586.20</ele>
        <time>2018-07-13T19:58:50Z</time>
      </trkpt>
      <trkpt lat="27.942839" lon="-15.534600">
        <ele>1586.60</ele>
        <time>2018-07-13T19:58:52Z</time>
      </trkpt>
      <trkpt lat="27.942818" lon="-15.534571">
        <ele>1586.80</ele>
        <time>2018-07-13T19:58:54Z</time>
      </trkpt>
      <trkpt lat="27.942806" lon="-15.534546">
        <ele>1587.40</ele>
        <time>2018-07-13T19:58:56Z</time>
      </trkpt>
      <trkpt lat="27.942786" lon="-15.534512">
        <ele>1587.40</ele>
        <time>2018-07-13T19:58:58Z</time>
      </trkpt>
      <trkpt lat="27.942774" lon="-15.534492">
        <ele>1587.40</ele>
        <time>2018-07-13T19:58:59Z</time>
      </trkpt>
      <trkpt lat="27.942759" lon="-15.534455">
        <ele>1587.60</ele>
        <time>2018-07-13T19:59:01Z</time>
      </trkpt>
      <trkpt lat="27.942739" lon="-15.534427">
        <ele>1587.60</ele>
        <time>2018-07-13T19:59:03Z</time>
      </trkpt>
      <trkpt lat="27.942726" lon="-15.534411">
        <ele>1587.60</ele>
        <time>2018-07-13T19:59:04Z</time>
      </trkpt>
      <trkpt lat="27.942707" lon="-15.534377">
        <ele>1587.80</ele>
        <time>2018-07-13T19:59:06Z</time>
      </trkpt>
      <trkpt lat="27.942692" lon="-15.534356">
        <ele>1587.80</ele>
        <time>2018-07-13T19:59:07Z</time>
      </trkpt>
      <trkpt lat="27.942673" lon="-15.534337">
        <ele>1587.80</ele>
        <time>2018-07-13T19:59:08Z</time>
      </trkpt>
      <trkpt lat="27.942653" lon="-15.534319">
        <ele>1587.80</ele>
        <time>2018-07-13T19:59:09Z</time>
      </trkpt>
      <trkpt lat="27.942636" lon="-15.534301">
        <ele>1588.20</ele>
        <time>2018-07-13T19:59:10Z</time>
      </trkpt>
      <trkpt lat="27.942617" lon="-15.534280">
        <ele>1588.00</ele>
        <time>2018-07-13T19:59:11Z</time>
      </trkpt>
      <trkpt lat="27.942598" lon="-15.534262">
        <ele>1588.40</ele>
        <time>2018-07-13T19:59:12Z</time>
      </trkpt>
      <trkpt lat="27.942578" lon="-15.534240">
        <ele>1587.40</ele>
        <time>2018-07-13T19:59:13Z</time>
      </trkpt>
      <trkpt lat="27.942560" lon="-15.534220">
        <ele>1588.40</ele>
        <time>2018-07-13T19:59:14Z</time>
      </trkpt>
      <trkpt lat="27.942540" lon="-15.534198">
        <ele>1588.40</ele>
        <time>2018-07-13T19:59:15Z</time>
      </trkpt>
      <trkpt lat="27.942523" lon="-15.534176">
        <ele>1587.20</ele>
        <time>2018-07-13T19:59:16Z</time>
      </trkpt>
      <trkpt lat="27.942508" lon="-15.534154">
        <ele>1587.20</ele>
        <time>2018-07-13T19:59:17Z</time>
      </trkpt>
      <trkpt lat="27.942486" lon="-15.534131">
        <ele>1587.20</ele>
        <time>2018-07-13T19:59:18Z</time>
      </trkpt>
      <trkpt lat="27.942463" lon="-15.534106">
        <ele>1587.00</ele>
        <time>2018-07-13T19:59:19Z</time>
      </trkpt>
      <trkpt lat="27.942440" lon="-15.534079">
        <ele>1587.00</ele>
        <time>2018-07-13T19:59:20Z</time>
      </trkpt>
      <trkpt lat="27.942421" lon="-15.534053">
        <ele>1586.60</ele>
        <time>2018-07-13T19:59:21Z</time>
      </trkpt>
      <trkpt lat="27.942400" lon="-15.534026">
        <ele>1586.60</ele>
        <time>2018-07-13T19:59:22Z</time>
      </trkpt>
      <trkpt lat="27.942379" lon="-15.534002">
        <ele>1585.60</ele>
        <time>2018-07-13T19:59:23Z</time>
      </trkpt>
      <trkpt lat="27.942352" lon="-15.533982">
        <ele>1585.00</ele>
        <time>2018-07-13T19:59:24Z</time>
      </trkpt>
      <trkpt lat="27.942330" lon="-15.533962">
        <ele>1584.20</ele>
        <time>2018-07-13T19:59:25Z</time>
      </trkpt>
      <trkpt lat="27.942306" lon="-15.533940">
        <ele>1584.00</ele>
        <time>2018-07-13T19:59:26Z</time>
      </trkpt>
      <trkpt lat="27.942279" lon="-15.533916">
        <ele>1583.80</ele>
        <time>2018-07-13T19:59:27Z</time>
      </trkpt>
      <trkpt lat="27.942253" lon="-15.533887">
        <ele>1582.20</ele>
        <time>2018-07-13T19:59:28Z</time>
      </trkpt>
      <trkpt lat="27.942233" lon="-15.533861">
        <ele>1582.00</ele>
        <time>2018-07-13T19:59:29Z</time>
      </trkpt>
      <trkpt lat="27.942216" lon="-15.533825">
        <ele>1582.00</ele>
        <time>2018-07-13T19:59:30Z</time>
      </trkpt>
      <trkpt lat="27.942205" lon="-15.533796">
        <ele>1581.60</ele>
        <time>2018-07-13T19:59:31Z</time>
      </trkpt>
      <trkpt lat="27.942193" lon="-15.533767">
        <ele>1580.20</ele>
        <time>2018-07-13T19:59:32Z</time>
      </trkpt>
      <trkpt lat="27.942178" lon="-15.533739">
        <ele>1579.80</ele>
        <time>2018-07-13T19:59:33Z</time>
      </trkpt>
      <trkpt lat="27.942170" lon="-15.533704">
        <ele>1579.00</ele>
        <time>2018-07-13T19:59:34Z</time>
      </trkpt>
      <trkpt lat="27.942168" lon="-15.533670">
        <ele>1579.00</ele>
        <time>2018-07-13T19:59:35Z</time>
      </trkpt>
      <trkpt lat="27.942164" lon="-15.533633">
        <ele>1578.60</ele>
        <time>2018-07-13T19:59:36Z</time>
      </trkpt>
      <trkpt lat="27.942159" lon="-15.533590">
        <ele>1578.20</ele>
        <time>2018-07-13T19:59:37Z</time>
      </trkpt>
      <trkpt lat="27.942159" lon="-15.533554">
        <ele>1578.00</ele>
        <time>2018-07-13T19:59:38Z</time>
      </trkpt>
      <trkpt lat="27.942162" lon="-15.533521">
        <ele>1577.60</ele>
        <time>2018-07-13T19:59:39Z</time>
      </trkpt>
      <trkpt lat="27.942163" lon="-15.533486">
        <ele>1576.60</ele>
        <time>2018-07-13T19:59:40Z</time>
      </trkpt>
      <trkpt lat="27.942156" lon="-15.533452">
        <ele>1576.00</ele>
        <time>2018-07-13T19:59:41Z</time>
      </trkpt>
      <trkpt lat="27.942148" lon="-15.533415">
        <ele>1575.20</ele>
        <time>2018-07-13T19:59:42Z</time>
      </trkpt>
      <trkpt lat="27.942139" lon="-15.533382">
        <ele>1574.80</ele>
        <time>2018-07-13T19:59:43Z</time>
      </trkpt>
      <trkpt lat="27.942129" lon="-15.533347">
        <ele>1573.80</ele>
        <time>2018-07-13T19:59:44Z</time>
      </trkpt>
      <trkpt lat="27.942114" lon="-15.533312">
        <ele>1573.60</ele>
        <time>2018-07-13T19:59:45Z</time>
      </trkpt>
      <trkpt lat="27.942096" lon="-15.533279">
        <ele>1573.60</ele>
        <time>2018-07-13T19:59:46Z</time>
      </trkpt>
      <trkpt lat="27.942077" lon="-15.533247">
        <ele>1573.40</ele>
        <time>2018-07-13T19:59:47Z</time>
      </trkpt>
      <trkpt lat="27.942056" lon="-15.533216">
        <ele>1572.80</ele>
        <time>2018-07-13T19:59:48Z</time>
      </trkpt>
      <trkpt lat="27.942037" lon="-15.533187">
        <ele>1571.80</ele>
        <time>2018-07-13T19:59:49Z</time>
      </trkpt>
      <trkpt lat="27.942015" lon="-15.533157">
        <ele>1571.60</ele>
        <time>2018-07-13T19:59:50Z</time>
      </trkpt>
      <trkpt lat="27.941997" lon="-15.533130">
        <ele>1570.40</ele>
        <time>2018-07-13T19:59:51Z</time>
      </trkpt>
      <trkpt lat="27.941976" lon="-15.533098">
        <ele>1570.20</ele>
        <time>2018-07-13T19:59:52Z</time>
      </trkpt>
      <trkpt lat="27.941956" lon="-15.533072">
        <ele>1569.80</ele>
        <time>2018-07-13T19:59:53Z</time>
      </trkpt>
      <trkpt lat="27.941936" lon="-15.533046">
        <ele>1569.00</ele>
        <time>2018-07-13T19:59:54Z</time>
      </trkpt>
      <trkpt lat="27.941917" lon="-15.533019">
        <ele>1568.40</ele>
        <time>2018-07-13T19:59:55Z</time>
      </trkpt>
      <trkpt lat="27.941897" lon="-15.532992">
        <ele>1567.20</ele>
        <time>2018-07-13T19:59:56Z</time>
      </trkpt>
      <trkpt lat="27.941877" lon="-15.532961">
        <ele>1566.20</ele>
        <time>2018-07-13T19:59:57Z</time>
      </trkpt>
      <trkpt lat="27.941860" lon="-15.532934">
        <ele>1566.20</ele>
        <time>2018-07-13T19:59:58Z</time>
      </trkpt>
      <trkpt lat="27.941838" lon="-15.532904">
        <ele>1566.20</ele>
        <time>2018-07-13T19:59:59Z</time>
      </trkpt>
      <trkpt lat="27.941814" lon="-15.532876">
        <ele>1565.80</ele>
        <time>2018-07-13T20:00:00Z</time>
      </trkpt>
      <trkpt lat="27.941790" lon="-15.532848">
        <ele>1565.12</ele>
        <time>2018-07-13T20:00:01Z</time>
      </trkpt>
      <trkpt lat="27.941768" lon="-15.532817">
        <ele>1564.40</ele>
        <time>2018-07-13T20:00:02Z</time>
      </trkpt>
      <trkpt lat="27.941750" lon="-15.532786">
        <ele>1563.40</ele>
        <time>2018-07-13T20:00:03Z</time>
      </trkpt>
      <trkpt lat="27.941735" lon="-15.532754">
        <ele>1562.80</ele>
        <time>2018-07-13T20:00:04Z</time>
      </trkpt>
      <trkpt lat="27.941720" lon="-15.532724">
        <ele>1562.80</ele>
        <time>2018-07-13T20:00:05Z</time>
      </trkpt>
      <trkpt lat="27.941704" lon="-15.532697">
        <ele>1562.80</ele>
        <time>2018-07-13T20:00:06Z</time>
      </trkpt>
      <trkpt lat="27.941681" lon="-15.532676">
        <ele>1562.00</ele>
        <time>2018-07-13T20:00:07Z</time>
      </trkpt>
      <trkpt lat="27.941659" lon="-15.532652">
        <ele>1561.20</ele>
        <time>2018-07-13T20:00:08Z</time>
      </trkpt>
      <trkpt lat="27.941637" lon="-15.532625">
        <ele>1560.60</ele>
        <time>2018-07-13T20:00:09Z</time>
      </trkpt>
      <trkpt lat="27.941617" lon="-15.532601">
        <ele>1560.20</ele>
        <time>2018-07-13T20:00:10Z</time>
      </trkpt>
      <trkpt lat="27.941593" lon="-15.532578">
        <ele>1560.60</ele>
        <time>2018-07-13T20:00:11Z</time>
      </trkpt>
      <trkpt lat="27.941568" lon="-15.532557">
        <ele>1559.60</ele>
        <time>2018-07-13T20:00:12Z</time>
      </trkpt>
      <trkpt lat="27.941547" lon="-15.532540">
        <ele>1560.00</ele>
        <time>2018-07-13T20:00:13Z</time>
      </trkpt>
      <trkpt lat="27.941525" lon="-15.532523">
        <ele>1559.40</ele>
        <time>2018-07-13T20:00:14Z</time>
      </trkpt>
      <trkpt lat="27.941504" lon="-15.532503">
        <ele>1558.40</ele>
        <time>2018-07-13T20:00:15Z</time>
      </trkpt>
      <trkpt lat="27.941480" lon="-15.532494">
        <ele>1557.60</ele>
        <time>2018-07-13T20:00:16Z</time>
      </trkpt>
      <trkpt lat="27.941455" lon="-15.532489">
        <ele>1557.40</ele>
        <time>2018-07-13T20:00:17Z</time>
      </trkpt>
      <trkpt lat="27.941422" lon="-15.532481">
        <ele>1557.40</ele>
        <time>2018-07-13T20:00:18Z</time>
      </trkpt>
      <trkpt lat="27.941390" lon="-15.532479">
        <ele>1557.40</ele>
        <time>2018-07-13T20:00:19Z</time>
      </trkpt>
      <trkpt lat="27.941358" lon="-15.532478">
        <ele>1557.23</ele>
        <time>2018-07-13T20:00:20Z</time>
      </trkpt>
      <trkpt lat="27.941328" lon="-15.532480">
        <ele>1557.20</ele>
        <time>2018-07-13T20:00:21Z</time>
      </trkpt>
      <trkpt lat="27.941295" lon="-15.532483">
        <ele>1556.20</ele>
        <time>2018-07-13T20:00:22Z</time>
      </trkpt>
      <trkpt lat="27.941265" lon="-15.532485">
        <ele>1555.60</ele>
        <time>2018-07-13T20:00:23Z</time>
      </trkpt>
      <trkpt lat="27.941236" lon="-15.532483">
        <ele>1555.60</ele>
        <time>2018-07-13T20:00:24Z</time>
      </trkpt>
      <trkpt lat="27.941208" lon="-15.532479">
        <ele>1555.60</ele>
        <time>2018-07-13T20:00:25Z</time>
      </trkpt>
      <trkpt lat="27.941184" lon="-15.532473">
        <ele>1555.60</ele>
        <time>2018-07-13T20:00:26Z</time>
      </trkpt>
      <trkpt lat="27.941151" lon="-15.532452">
        <ele>1555.20</ele>
        <time>2018-07-13T20:00:28Z</time>
      </trkpt>
      <trkpt lat="27.941134" lon="-15.532433">
        <ele>1554.80</ele>
        <time>2018-07-13T20:00:29Z</time>
      </trkpt>
      <trkpt lat="27.941112" lon="-15.532415">
        <ele>1554.80</ele>
        <time>2018-07-13T20:00:30Z</time>
      </trkpt>
      <trkpt lat="27.941088" lon="-15.532397">
        <ele>1554.43</ele>
        <time>2018-07-13T20:00:31Z</time>
      </trkpt>
      <trkpt lat="27.941061" lon="-15.532382">
        <ele>1553.20</ele>
        <time>2018-07-13T20:00:32Z</time>
      </trkpt>
      <trkpt lat="27.941037" lon="-15.532367">
        <ele>1553.00</ele>
        <time>2018-07-13T20:00:33Z</time>
      </trkpt>
      <trkpt lat="27.941016" lon="-15.532354">
        <ele>1553.00</ele>
        <time>2018-07-13T20:00:34Z</time>
      </trkpt>
      <trkpt lat="27.940994" lon="-15.532340">
        <ele>1553.00</ele>
        <time>2018-07-13T20:00:35Z</time>
      </trkpt>
      <trkpt lat="27.940971" lon="-15.532324">
        <ele>1551.80</ele>
        <time>2018-07-13T20:00:36Z</time>
      </trkpt>
      <trkpt lat="27.940947" lon="-15.532306">
        <ele>1551.80</ele>
        <time>2018-07-13T20:00:37Z</time>
      </trkpt>
      <trkpt lat="27.940924" lon="-15.532290">
        <ele>1551.60</ele>
        <time>2018-07-13T20:00:38Z</time>
      </trkpt>
      <trkpt lat="27.940901" lon="-15.532277">
        <ele>1551.40</ele>
        <time>2018-07-13T20:00:39Z</time>
      </trkpt>
      <trkpt lat="27.940884" lon="-15.532260">
        <ele>1551.00</ele>
        <time>2018-07-13T20:00:40Z</time>
      </trkpt>
      <trkpt lat="27.940867" lon="-15.532237">
        <ele>1550.00</ele>
        <time>2018-07-13T20:00:41Z</time>
      </trkpt>
      <trkpt lat="27.940849" lon="-15.532211">
        <ele>1549.80</ele>
        <time>2018-07-13T20:00:42Z</time>
      </trkpt>
      <trkpt lat="27.940830" lon="-15.532187">
        <ele>1549.40</ele>
        <time>2018-07-13T20:00:43Z</time>
      </trkpt>
      <trkpt lat="27.940812" lon="-15.532168">
        <ele>1549.00</ele>
        <time>2018-07-13T20:00:44Z</time>
      </trkpt>
      <trkpt lat="27.940793" lon="-15.532147">
        <ele>1548.80</ele>
        <time>2018-07-13T20:00:45Z</time>
      </trkpt>
      <trkpt lat="27.940777" lon="-15.532128">
        <ele>1548.00</ele>
        <time>2018-07-13T20:00:46Z</time>
      </trkpt>
      <trkpt lat="27.940758" lon="-15.532109">
        <ele>1547.40</ele>
        <time>2018-07-13T20:00:47Z</time>
      </trkpt>
      <trkpt lat="27.940740" lon="-15.532091">
        <ele>1547.40</ele>
        <time>2018-07-13T20:00:48Z</time>
      </trkpt>
      <trkpt lat="27.940720" lon="-15.532067">
        <ele>1546.60</ele>
        <time>2018-07-13T20:00:49Z</time>
      </trkpt>
      <trkpt lat="27.940700" lon="-15.532045">
        <ele>1546.40</ele>
        <time>2018-07-13T20:00:50Z</time>
      </trkpt>
      <trkpt lat="27.940681" lon="-15.532024">
        <ele>1546.40</ele>
        <time>2018-07-13T20:00:51Z</time>
      </trkpt>
      <trkpt lat="27.940661" lon="-15.532007">
        <ele>1545.20</ele>
        <time>2018-07-13T20:00:52Z</time>
      </trkpt>
      <trkpt lat="27.940642" lon="-15.531986">
        <ele>1544.80</ele>
        <time>2018-07-13T20:00:53Z</time>
      </trkpt>
      <trkpt lat="27.940622" lon="-15.531966">
        <ele>1544.60</ele>
        <time>2018-07-13T20:00:54Z</time>
      </trkpt>
      <trkpt lat="27.940601" lon="-15.531948">
        <ele>1544.00</ele>
        <time>2018-07-13T20:00:55Z</time>
      </trkpt>
      <trkpt lat="27.940591" lon="-15.531926">
        <ele>1543.60</ele>
        <time>2018-07-13T20:00:56Z</time>
      </trkpt>
      <trkpt lat="27.940591" lon="-15.531905">
        <ele>1542.40</ele>
        <time>2018-07-13T20:00:57Z</time>
      </trkpt>
      <trkpt lat="27.940596" lon="-15.531882">
        <ele>1542.00</ele>
        <time>2018-07-13T20:00:58Z</time>
      </trkpt>
      <trkpt lat="27.940601" lon="-15.531860">
        <ele>1541.80</ele>
        <time>2018-07-13T20:00:59Z</time>
      </trkpt>
      <trkpt lat="27.940608" lon="-15.531834">
        <ele>1541.00</ele>
        <time>2018-07-13T20:01:00Z</time>
      </trkpt>
      <trkpt lat="27.940614" lon="-15.531804">
        <ele>1540.40</ele>
        <time>2018-07-13T20:01:01Z</time>
      </trkpt>
      <trkpt lat="27.940619" lon="-15.531774">
        <ele>1540.00</ele>
        <time>2018-07-13T20:01:02Z</time>
      </trkpt>
      <trkpt lat="27.940624" lon="-15.531747">
        <ele>1539.40</ele>
        <time>2018-07-13T20:01:03Z</time>
      </trkpt>
      <trkpt lat="27.940626" lon="-15.531724">
        <ele>1539.40</ele>
        <time>2018-07-13T20:01:04Z</time>
      </trkpt>
      <trkpt lat="27.940640" lon="-15.531712">
        <ele>1539.20</ele>
        <time>2018-07-13T20:01:05Z</time>
      </trkpt>
      <trkpt lat="27.940657" lon="-15.531697">
        <ele>1539.00</ele>
        <time>2018-07-13T20:01:06Z</time>
      </trkpt>
      <trkpt lat="27.940674" lon="-15.531675">
        <ele>1538.40</ele>
        <time>2018-07-13T20:01:07Z</time>
      </trkpt>
      <trkpt lat="27.940685" lon="-15.531647">
        <ele>1537.80</ele>
        <time>2018-07-13T20:01:08Z</time>
      </trkpt>
      <trkpt lat="27.940691" lon="-15.531615">
        <ele>1537.40</ele>
        <time>2018-07-13T20:01:09Z</time>
      </trkpt>
      <trkpt lat="27.940697" lon="-15.531582">
        <ele>1536.80</ele>
        <time>2018-07-13T20:01:10Z</time>
      </trkpt>
      <trkpt lat="27.940693" lon="-15.531551">
        <ele>1535.80</ele>
        <time>2018-07-13T20:01:11Z</time>
      </trkpt>
      <trkpt lat="27.940689" lon="-15.531519">
        <ele>1535.60</ele>
        <time>2018-07-13T20:01:12Z</time>
      </trkpt>
      <trkpt lat="27.940686" lon="-15.531490">
        <ele>1535.40</ele>
        <time>2018-07-13T20:01:13Z</time>
      </trkpt>
      <trkpt lat="27.940683" lon="-15.531457">
        <ele>1534.60</ele>
        <time>2018-07-13T20:01:14Z</time>
      </trkpt>
      <trkpt lat="27.940680" lon="-15.531424">
        <ele>1534.20</ele>
        <time>2018-07-13T20:01:15Z</time>
      </trkpt>
      <trkpt lat="27.940675" lon="-15.531390">
        <ele>1534.00</ele>
        <time>2018-07-13T20:01:16Z</time>
      </trkpt>
      <trkpt lat="27.940669" lon="-15.531358">
        <ele>1533.60</ele>
        <time>2018-07-13T20:01:17Z</time>
      </trkpt>
      <trkpt lat="27.940665" lon="-15.531326">
        <ele>1533.20</ele>
        <time>2018-07-13T20:01:18Z</time>
      </trkpt>
      <trkpt lat="27.940662" lon="-15.531295">
        <ele>1532.00</ele>
        <time>2018-07-13T20:01:19Z</time>
      </trkpt>
      <trkpt lat="27.940661" lon="-15.531271">
        <ele>1531.80</ele>
        <time>2018-07-13T20:01:20Z</time>
      </trkpt>
      <trkpt lat="27.940654" lon="-15.531241">
        <ele>1531.60</ele>
        <time>2018-07-13T20:01:21Z</time>
      </trkpt>
      <trkpt lat="27.940648" lon="-15.531212">
        <ele>1531.00</ele>
        <time>2018-07-13T20:01:22Z</time>
      </trkpt>
      <trkpt lat="27.940641" lon="-15.531180">
        <ele>1530.80</ele>
        <time>2018-07-13T20:01:23Z</time>
      </trkpt>
      <trkpt lat="27.940633" lon="-15.531146">
        <ele>1529.60</ele>
        <time>2018-07-13T20:01:24Z</time>
      </trkpt>
      <trkpt lat="27.940627" lon="-15.531114">
        <ele>1529.20</ele>
        <time>2018-07-13T20:01:25Z</time>
      </trkpt>
      <trkpt lat="27.940615" lon="-15.531083">
        <ele>1529.00</ele>
        <time>2018-07-13T20:01:26Z</time>
      </trkpt>
      <trkpt lat="27.940597" lon="-15.531057">
        <ele>1528.80</ele>
        <time>2018-07-13T20:01:27Z</time>
      </trkpt>
      <trkpt lat="27.940573" lon="-15.531030">
        <ele>1527.40</ele>
        <time>2018-07-13T20:01:28Z</time>
      </trkpt>
      <trkpt lat="27.940555" lon="-15.531009">
        <ele>1527.40</ele>
        <time>2018-07-13T20:01:29Z</time>
      </trkpt>
      <trkpt lat="27.940532" lon="-15.530989">
        <ele>1527.20</ele>
        <time>2018-07-13T20:01:30Z</time>
      </trkpt>
      <trkpt lat="27.940514" lon="-15.530968">
        <ele>1527.20</ele>
        <time>2018-07-13T20:01:31Z</time>
      </trkpt>
      <trkpt lat="27.940492" lon="-15.530949">
        <ele>1526.20</ele>
        <time>2018-07-13T20:01:32Z</time>
      </trkpt>
      <trkpt lat="27.940469" lon="-15.530931">
        <ele>1525.40</ele>
        <time>2018-07-13T20:01:33Z</time>
      </trkpt>
      <trkpt lat="27.940448" lon="-15.530915">
        <ele>1525.00</ele>
        <time>2018-07-13T20:01:34Z</time>
      </trkpt>
      <trkpt lat="27.940429" lon="-15.530897">
        <ele>1525.20</ele>
        <time>2018-07-13T20:01:35Z</time>
      </trkpt>
      <trkpt lat="27.940415" lon="-15.530877">
        <ele>1524.20</ele>
        <time>2018-07-13T20:01:36Z</time>
      </trkpt>
      <trkpt lat="27.940409" lon="-15.530852">
        <ele>1524.20</ele>
        <time>2018-07-13T20:01:37Z</time>
      </trkpt>
      <trkpt lat="27.940401" lon="-15.530830">
        <ele>1523.80</ele>
        <time>2018-07-13T20:01:38Z</time>
      </trkpt>
      <trkpt lat="27.940396" lon="-15.530804">
        <ele>1523.00</ele>
        <time>2018-07-13T20:01:39Z</time>
      </trkpt>
      <trkpt lat="27.940388" lon="-15.530776">
        <ele>1522.60</ele>
        <time>2018-07-13T20:01:40Z</time>
      </trkpt>
      <trkpt lat="27.940378" lon="-15.530750">
        <ele>1522.40</ele>
        <time>2018-07-13T20:01:41Z</time>
      </trkpt>
      <trkpt lat="27.940368" lon="-15.530723">
        <ele>1522.40</ele>
        <time>2018-07-13T20:01:42Z</time>
      </trkpt>
      <trkpt lat="27.940358" lon="-15.530694">
        <ele>1522.20</ele>
        <time>2018-07-13T20:01:43Z</time>
      </trkpt>
      <trkpt lat="27.940344" lon="-15.530667">
        <ele>1522.20</ele>
        <time>2018-07-13T20:01:44Z</time>
      </trkpt>
      <trkpt lat="27.940329" lon="-15.530649">
        <ele>1520.60</ele>
        <time>2018-07-13T20:01:45Z</time>
      </trkpt>
      <trkpt lat="27.940311" lon="-15.530633">
        <ele>1520.60</ele>
        <time>2018-07-13T20:01:46Z</time>
      </trkpt>
      <trkpt lat="27.940289" lon="-15.530620">
        <ele>1520.40</ele>
        <time>2018-07-13T20:01:47Z</time>
      </trkpt>
      <trkpt lat="27.940271" lon="-15.530607">
        <ele>1520.20</ele>
        <time>2018-07-13T20:01:48Z</time>
      </trkpt>
      <trkpt lat="27.940251" lon="-15.530611">
        <ele>1519.00</ele>
        <time>2018-07-13T20:01:50Z</time>
      </trkpt>
      <trkpt lat="27.940226" lon="-15.530616">
        <ele>1518.40</ele>
        <time>2018-07-13T20:01:52Z</time>
      </trkpt>
      <trkpt lat="27.940200" lon="-15.530613">
        <ele>1517.60</ele>
        <time>2018-07-13T20:01:53Z</time>
      </trkpt>
      <trkpt lat="27.940174" lon="-15.530613">
        <ele>1517.00</ele>
        <time>2018-07-13T20:01:54Z</time>
      </trkpt>
      <trkpt lat="27.940149" lon="-15.530614">
        <ele>1517.20</ele>
        <time>2018-07-13T20:01:55Z</time>
      </trkpt>
      <trkpt lat="27.940123" lon="-15.530607">
        <ele>1517.20</ele>
        <time>2018-07-13T20:01:56Z</time>
      </trkpt>
      <trkpt lat="27.940098" lon="-15.530603">
        <ele>1517.20</ele>
        <time>2018-07-13T20:01:57Z</time>
      </trkpt>
      <trkpt lat="27.940072" lon="-15.530597">
        <ele>1517.20</ele>
        <time>2018-07-13T20:01:58Z</time>
      </trkpt>
      <trkpt lat="27.940044" lon="-15.530593">
        <ele>1517.20</ele>
        <time>2018-07-13T20:01:59Z</time>
      </trkpt>
      <trkpt lat="27.940021" lon="-15.530589">
        <ele>1516.60</ele>
        <time>2018-07-13T20:02:00Z</time>
      </trkpt>
      <trkpt lat="27.940002" lon="-15.530586">
        <ele>1516.20</ele>
        <time>2018-07-13T20:02:01Z</time>
      </trkpt>
      <trkpt lat="27.939979" lon="-15.530578">
        <ele>1516.20</ele>
        <time>2018-07-13T20:02:02Z</time>
      </trkpt>
      <trkpt lat="27.939954" lon="-15.530576">
        <ele>1515.80</ele>
        <time>2018-07-13T20:02:03Z</time>
      </trkpt>
      <trkpt lat="27.939926" lon="-15.530580">
        <ele>1515.00</ele>
        <time>2018-07-13T20:02:04Z</time>
      </trkpt>
      <trkpt lat="27.939895" lon="-15.530582">
        <ele>1514.60</ele>
        <time>2018-07-13T20:02:05Z</time>
      </trkpt>
      <trkpt lat="27.939866" lon="-15.530579">
        <ele>1514.20</ele>
        <time>2018-07-13T20:02:06Z</time>
      </trkpt>
      <trkpt lat="27.939847" lon="-15.530569">
        <ele>1513.60</ele>
        <time>2018-07-13T20:02:07Z</time>
      </trkpt>
      <trkpt lat="27.939832" lon="-15.530556">
        <ele>1512.60</ele>
        <time>2018-07-13T20:02:08Z</time>
      </trkpt>
      <trkpt lat="27.939844" lon="-15.530522">
        <ele>1511.80</ele>
        <time>2018-07-13T20:02:10Z</time>
      </trkpt>
      <trkpt lat="27.939859" lon="-15.530501">
        <ele>1511.40</ele>
        <time>2018-07-13T20:02:11Z</time>
      </trkpt>
      <trkpt lat="27.939877" lon="-15.530475">
        <ele>1511.00</ele>
        <time>2018-07-13T20:02:12Z</time>
      </trkpt>
      <trkpt lat="27.939897" lon="-15.530446">
        <ele>1510.20</ele>
        <time>2018-07-13T20:02:13Z</time>
      </trkpt>
      <trkpt lat="27.939908" lon="-15.530418">
        <ele>1510.20</ele>
        <time>2018-07-13T20:02:14Z</time>
      </trkpt>
      <trkpt lat="27.939916" lon="-15.530389">
        <ele>1510.20</ele>
        <time>2018-07-13T20:02:15Z</time>
      </trkpt>
      <trkpt lat="27.939905" lon="-15.530356">
        <ele>1509.40</ele>
        <time>2018-07-13T20:02:16Z</time>
      </trkpt>
      <trkpt lat="27.939886" lon="-15.530321">
        <ele>1509.40</ele>
        <time>2018-07-13T20:02:17Z</time>
      </trkpt>
      <trkpt lat="27.939862" lon="-15.530288">
        <ele>1509.00</ele>
        <time>2018-07-13T20:02:18Z</time>
      </trkpt>
      <trkpt lat="27.939832" lon="-15.530256">
        <ele>1508.40</ele>
        <time>2018-07-13T20:02:19Z</time>
      </trkpt>
      <trkpt lat="27.939803" lon="-15.530234">
        <ele>1508.40</ele>
        <time>2018-07-13T20:02:20Z</time>
      </trkpt>
      <trkpt lat="27.939776" lon="-15.530216">
        <ele>1508.00</ele>
        <time>2018-07-13T20:02:21Z</time>
      </trkpt>
      <trkpt lat="27.939751" lon="-15.530202">
        <ele>1507.60</ele>
        <time>2018-07-13T20:02:22Z</time>
      </trkpt>
      <trkpt lat="27.939727" lon="-15.530188">
        <ele>1506.60</ele>
        <time>2018-07-13T20:02:23Z</time>
      </trkpt>
      <trkpt lat="27.939700" lon="-15.530177">
        <ele>1506.80</ele>
        <time>2018-07-13T20:02:24Z</time>
      </trkpt>
      <trkpt lat="27.939676" lon="-15.530168">
        <ele>1505.80</ele>
        <time>2018-07-13T20:02:25Z</time>
      </trkpt>
      <trkpt lat="27.939651" lon="-15.530160">
        <ele>1505.60</ele>
        <time>2018-07-13T20:02:26Z</time>
      </trkpt>
      <trkpt lat="27.939624" lon="-15.530152">
        <ele>1505.00</ele>
        <time>2018-07-13T20:02:27Z</time>
      </trkpt>
      <trkpt lat="27.939598" lon="-15.530141">
        <ele>1504.60</ele>
        <time>2018-07-13T20:02:28Z</time>
      </trkpt>
      <trkpt lat="27.939572" lon="-15.530130">
        <ele>1504.20</ele>
        <time>2018-07-13T20:02:29Z</time>
      </trkpt>
      <trkpt lat="27.939551" lon="-15.530114">
        <ele>1504.00</ele>
        <time>2018-07-13T20:02:30Z</time>
      </trkpt>
      <trkpt lat="27.939534" lon="-15.530089">
        <ele>1504.00</ele>
        <time>2018-07-13T20:02:31Z</time>
      </trkpt>
      <trkpt lat="27.939518" lon="-15.530063">
        <ele>1503.80</ele>
        <time>2018-07-13T20:02:32Z</time>
      </trkpt>
      <trkpt lat="27.939506" lon="-15.530038">
        <ele>1503.40</ele>
        <time>2018-07-13T20:02:33Z</time>
      </trkpt>
      <trkpt lat="27.939491" lon="-15.530017">
        <ele>1502.20</ele>
        <time>2018-07-13T20:02:34Z</time>
      </trkpt>
      <trkpt lat="27.939476" lon="-15.529996">
        <ele>1502.40</ele>
        <time>2018-07-13T20:02:35Z</time>
      </trkpt>
      <trkpt lat="27.939458" lon="-15.529976">
        <ele>1501.60</ele>
        <time>2018-07-13T20:02:36Z</time>
      </trkpt>
      <trkpt lat="27.939440" lon="-15.529956">
        <ele>1501.20</ele>
        <time>2018-07-13T20:02:37Z</time>
      </trkpt>
      <trkpt lat="27.939424" lon="-15.529934">
        <ele>1500.80</ele>
        <time>2018-07-13T20:02:38Z</time>
      </trkpt>
      <trkpt lat="27.939407" lon="-15.529911">
        <ele>1500.80</ele>
        <time>2018-07-13T20:02:39Z</time>
      </trkpt>
      <trkpt lat="27.939385" lon="-15.529890">
        <ele>1500.40</ele>
        <time>2018-07-13T20:02:40Z</time>
      </trkpt>
      <trkpt lat="27.939368" lon="-15.529868">
        <ele>1500.00</ele>
        <time>2018-07-13T20:02:41Z</time>
      </trkpt>
      <trkpt lat="27.939349" lon="-15.529845">
        <ele>1499.80</ele>
        <time>2018-07-13T20:02:42Z</time>
      </trkpt>
      <trkpt lat="27.939331" lon="-15.529821">
        <ele>1499.40</ele>
        <time>2018-07-13T20:02:43Z</time>
      </trkpt>
      <trkpt lat="27.939314" lon="-15.529797">
        <ele>1499.60</ele>
        <time>2018-07-13T20:02:44Z</time>
      </trkpt>
      <trkpt lat="27.939295" lon="-15.529769">
        <ele>1499.20</ele>
        <time>2018-07-13T20:02:45Z</time>
      </trkpt>
      <trkpt lat="27.939277" lon="-15.529741">
        <ele>1498.60</ele>
        <time>2018-07-13T20:02:46Z</time>
      </trkpt>
      <trkpt lat="27.939255" lon="-15.529712">
        <ele>1498.60</ele>
        <time>2018-07-13T20:02:47Z</time>
      </trkpt>
      <trkpt lat="27.939236" lon="-15.529686">
        <ele>1498.20</ele>
        <time>2018-07-13T20:02:48Z</time>
      </trkpt>
      <trkpt lat="27.939220" lon="-15.529660">
        <ele>1498.40</ele>
        <time>2018-07-13T20:02:49Z</time>
      </trkpt>
      <trkpt lat="27.939205" lon="-15.529636">
        <ele>1497.40</ele>
        <time>2018-07-13T20:02:50Z</time>
      </trkpt>
      <trkpt lat="27.939188" lon="-15.529608">
        <ele>1497.40</ele>
        <time>2018-07-13T20:02:51Z</time>
      </trkpt>
      <trkpt lat="27.939171" lon="-15.529581">
        <ele>1496.60</ele>
        <time>2018-07-13T20:02:52Z</time>
      </trkpt>
      <trkpt lat="27.939155" lon="-15.529562">
        <ele>1496.60</ele>
        <time>2018-07-13T20:02:53Z</time>
      </trkpt>
      <trkpt lat="27.939139" lon="-15.529536">
        <ele>1496.20</ele>
        <time>2018-07-13T20:02:54Z</time>
      </trkpt>
      <trkpt lat="27.939121" lon="-15.529507">
        <ele>1495.60</ele>
        <time>2018-07-13T20:02:55Z</time>
      </trkpt>
      <trkpt lat="27.939104" lon="-15.529483">
        <ele>1495.40</ele>
        <time>2018-07-13T20:02:56Z</time>
      </trkpt>
      <trkpt lat="27.939090" lon="-15.529456">
        <ele>1494.60</ele>
        <time>2018-07-13T20:02:57Z</time>
      </trkpt>
      <trkpt lat="27.939073" lon="-15.529424">
        <ele>1494.60</ele>
        <time>2018-07-13T20:02:58Z</time>
      </trkpt>
      <trkpt lat="27.939059" lon="-15.529398">
        <ele>1494.20</ele>
        <time>2018-07-13T20:02:59Z</time>
      </trkpt>
      <trkpt lat="27.939044" lon="-15.529371">
        <ele>1494.20</ele>
        <time>2018-07-13T20:03:00Z</time>
      </trkpt>
      <trkpt lat="27.939029" lon="-15.529346">
        <ele>1494.20</ele>
        <time>2018-07-13T20:03:01Z</time>
      </trkpt>
      <trkpt lat="27.939015" lon="-15.529319">
        <ele>1494.20</ele>
        <time>2018-07-13T20:03:02Z</time>
      </trkpt>
      <trkpt lat="27.939000" lon="-15.529292">
        <ele>1494.20</ele>
        <time>2018-07-13T20:03:03Z</time>
      </trkpt>
      <trkpt lat="27.938982" lon="-15.529265">
        <ele>1494.20</ele>
        <time>2018-07-13T20:03:04Z</time>
      </trkpt>
      <trkpt lat="27.938967" lon="-15.529239">
        <ele>1494.20</ele>
        <time>2018-07-13T20:03:05Z</time>
      </trkpt>
      <trkpt lat="27.938951" lon="-15.529214">
        <ele>1494.40</ele>
        <time>2018-07-13T20:03:06Z</time>
      </trkpt>
      <trkpt lat="27.938933" lon="-15.529187">
        <ele>1492.80</ele>
        <time>2018-07-13T20:03:07Z</time>
      </trkpt>
      <trkpt lat="27.938918" lon="-15.529161">
        <ele>1493.00</ele>
        <time>2018-07-13T20:03:08Z</time>
      </trkpt>
      <trkpt lat="27.938903" lon="-15.529134">
        <ele>1492.60</ele>
        <time>2018-07-13T20:03:09Z</time>
      </trkpt>
      <trkpt lat="27.938885" lon="-15.529105">
        <ele>1491.80</ele>
        <time>2018-07-13T20:03:10Z</time>
      </trkpt>
      <trkpt lat="27.938870" lon="-15.529079">
        <ele>1491.80</ele>
        <time>2018-07-13T20:03:11Z</time>
      </trkpt>
      <trkpt lat="27.938855" lon="-15.529054">
        <ele>1491.60</ele>
        <time>2018-07-13T20:03:12Z</time>
      </trkpt>
      <trkpt lat="27.938837" lon="-15.529024">
        <ele>1491.60</ele>
        <time>2018-07-13T20:03:13Z</time>
      </trkpt>
      <trkpt lat="27.938822" lon="-15.528998">
        <ele>1491.40</ele>
        <time>2018-07-13T20:03:14Z</time>
      </trkpt>
      <trkpt lat="27.938807" lon="-15.528974">
        <ele>1491.40</ele>
        <time>2018-07-13T20:03:15Z</time>
      </trkpt>
      <trkpt lat="27.938795" lon="-15.528951">
        <ele>1491.40</ele>
        <time>2018-07-13T20:03:16Z</time>
      </trkpt>
      <trkpt lat="27.938778" lon="-15.528927">
        <ele>1491.40</ele>
        <time>2018-07-13T20:03:17Z</time>
      </trkpt>
      <trkpt lat="27.938767" lon="-15.528902">
        <ele>1491.40</ele>
        <time>2018-07-13T20:03:18Z</time>
      </trkpt>
      <trkpt lat="27.938753" lon="-15.528877">
        <ele>1491.40</ele>
        <time>2018-07-13T20:03:19Z</time>
      </trkpt>
      <trkpt lat="27.938738" lon="-15.528850">
        <ele>1491.40</ele>
        <time>2018-07-13T20:03:20Z</time>
      </trkpt>
      <trkpt lat="27.938720" lon="-15.528824">
        <ele>1491.40</ele>
        <time>2018-07-13T20:03:21Z</time>
      </trkpt>
      <trkpt lat="27.938706" lon="-15.528795">
        <ele>1490.20</ele>
        <time>2018-07-13T20:03:22Z</time>
      </trkpt>
      <trkpt lat="27.938689" lon="-15.528766">
        <ele>1490.80</ele>
        <time>2018-07-13T20:03:23Z</time>
      </trkpt>
      <trkpt lat="27.938672" lon="-15.528737">
        <ele>1489.80</ele>
        <time>2018-07-13T20:03:24Z</time>
      </trkpt>
      <trkpt lat="27.938654" lon="-15.528711">
        <ele>1489.20</ele>
        <time>2018-07-13T20:03:25Z</time>
      </trkpt>
      <trkpt lat="27.938639" lon="-15.528683">
        <ele>1489.20</ele>
        <time>2018-07-13T20:03:26Z</time>
      </trkpt>
      <trkpt lat="27.938623" lon="-15.528657">
        <ele>1489.20</ele>
        <time>2018-07-13T20:03:27Z</time>
      </trkpt>
      <trkpt lat="27.938610" lon="-15.528630">
        <ele>1489.20</ele>
        <time>2018-07-13T20:03:28Z</time>
      </trkpt>
      <trkpt lat="27.938597" lon="-15.528606">
        <ele>1489.00</ele>
        <time>2018-07-13T20:03:29Z</time>
      </trkpt>
      <trkpt lat="27.938588" lon="-15.528581">
        <ele>1489.00</ele>
        <time>2018-07-13T20:03:30Z</time>
      </trkpt>
      <trkpt lat="27.938579" lon="-15.528553">
        <ele>1489.00</ele>
        <time>2018-07-13T20:03:31Z</time>
      </trkpt>
      <trkpt lat="27.938574" lon="-15.528529">
        <ele>1489.00</ele>
        <time>2018-07-13T20:03:32Z</time>
      </trkpt>
      <trkpt lat="27.938565" lon="-15.528500">
        <ele>1489.00</ele>
        <time>2018-07-13T20:03:33Z</time>
      </trkpt>
      <trkpt lat="27.938515" lon="-15.528399">
        <ele>1487.60</ele>
        <time>2018-07-13T20:03:37Z</time>
      </trkpt>
      <trkpt lat="27.938501" lon="-15.528372">
        <ele>1487.60</ele>
        <time>2018-07-13T20:03:38Z</time>
      </trkpt>
      <trkpt lat="27.938486" lon="-15.528345">
        <ele>1487.60</ele>
        <time>2018-07-13T20:03:39Z</time>
      </trkpt>
      <trkpt lat="27.938472" lon="-15.528319">
        <ele>1487.60</ele>
        <time>2018-07-13T20:03:40Z</time>
      </trkpt>
      <trkpt lat="27.938460" lon="-15.528291">
        <ele>1487.60</ele>
        <time>2018-07-13T20:03:41Z</time>
      </trkpt>
      <trkpt lat="27.938447" lon="-15.528262">
        <ele>1487.60</ele>
        <time>2018-07-13T20:03:42Z</time>
      </trkpt>
      <trkpt lat="27.938433" lon="-15.528236">
        <ele>1487.60</ele>
        <time>2018-07-13T20:03:43Z</time>
      </trkpt>
      <trkpt lat="27.938417" lon="-15.528208">
        <ele>1487.60</ele>
        <time>2018-07-13T20:03:44Z</time>
      </trkpt>
      <trkpt lat="27.938402" lon="-15.528182">
        <ele>1487.20</ele>
        <time>2018-07-13T20:03:45Z</time>
      </trkpt>
      <trkpt lat="27.938387" lon="-15.528154">
        <ele>1486.60</ele>
        <time>2018-07-13T20:03:46Z</time>
      </trkpt>
      <trkpt lat="27.938372" lon="-15.528128">
        <ele>1486.60</ele>
        <time>2018-07-13T20:03:47Z</time>
      </trkpt>
      <trkpt lat="27.938356" lon="-15.528101">
        <ele>1486.40</ele>
        <time>2018-07-13T20:03:48Z</time>
      </trkpt>
      <trkpt lat="27.938348" lon="-15.528075">
        <ele>1486.40</ele>
        <time>2018-07-13T20:03:49Z</time>
      </trkpt>
      <trkpt lat="27.938339" lon="-15.528050">
        <ele>1486.40</ele>
        <time>2018-07-13T20:03:50Z</time>
      </trkpt>
      <trkpt lat="27.938329" lon="-15.528024">
        <ele>1486.40</ele>
        <time>2018-07-13T20:03:51Z</time>
      </trkpt>
      <trkpt lat="27.938319" lon="-15.528001">
        <ele>1486.40</ele>
        <time>2018-07-13T20:03:52Z</time>
      </trkpt>
      <trkpt lat="27.938306" lon="-15.527976">
        <ele>1484.80</ele>
        <time>2018-07-13T20:03:53Z</time>
      </trkpt>
      <trkpt lat="27.938299" lon="-15.527952">
        <ele>1485.20</ele>
        <time>2018-07-13T20:03:54Z</time>
      </trkpt>
      <trkpt lat="27.938291" lon="-15.527924">
        <ele>1484.00</ele>
        <time>2018-07-13T20:03:55Z</time>
      </trkpt>
      <trkpt lat="27.938282" lon="-15.527896">
        <ele>1485.20</ele>
        <time>2018-07-13T20:03:56Z</time>
      </trkpt>
      <trkpt lat="27.938272" lon="-15.527868">
        <ele>1484.80</ele>
        <time>2018-07-13T20:03:57Z</time>
      </trkpt>
      <trkpt lat="27.938260" lon="-15.527845">
        <ele>1484.80</ele>
        <time>2018-07-13T20:03:58Z</time>
      </trkpt>
      <trkpt lat="27.938250" lon="-15.527824">
        <ele>1484.60</ele>
        <time>2018-07-13T20:03:59Z</time>
      </trkpt>
      <trkpt lat="27.938234" lon="-15.527796">
        <ele>1484.60</ele>
        <time>2018-07-13T20:04:00Z</time>
      </trkpt>
      <trkpt lat="27.938223" lon="-15.527776">
        <ele>1484.40</ele>
        <time>2018-07-13T20:04:01Z</time>
      </trkpt>
      <trkpt lat="27.938210" lon="-15.527750">
        <ele>1484.40</ele>
        <time>2018-07-13T20:04:02Z</time>
      </trkpt>
      <trkpt lat="27.938196" lon="-15.527725">
        <ele>1484.20</ele>
        <time>2018-07-13T20:04:03Z</time>
      </trkpt>
      <trkpt lat="27.938183" lon="-15.527699">
        <ele>1484.20</ele>
        <time>2018-07-13T20:04:04Z</time>
      </trkpt>
      <trkpt lat="27.938174" lon="-15.527680">
        <ele>1484.20</ele>
        <time>2018-07-13T20:04:05Z</time>
      </trkpt>
      <trkpt lat="27.938162" lon="-15.527655">
        <ele>1484.20</ele>
        <time>2018-07-13T20:04:06Z</time>
      </trkpt>
      <trkpt lat="27.938150" lon="-15.527630">
        <ele>1484.20</ele>
        <time>2018-07-13T20:04:07Z</time>
      </trkpt>
      <trkpt lat="27.938138" lon="-15.527607">
        <ele>1483.80</ele>
        <time>2018-07-13T20:04:08Z</time>
      </trkpt>
      <trkpt lat="27.938129" lon="-15.527587">
        <ele>1483.80</ele>
        <time>2018-07-13T20:04:09Z</time>
      </trkpt>
      <trkpt lat="27.938119" lon="-15.527566">
        <ele>1482.40</ele>
        <time>2018-07-13T20:04:10Z</time>
      </trkpt>
      <trkpt lat="27.938105" lon="-15.527548">
        <ele>1482.40</ele>
        <time>2018-07-13T20:04:11Z</time>
      </trkpt>
      <trkpt lat="27.938084" lon="-15.527531">
        <ele>1482.40</ele>
        <time>2018-07-13T20:04:13Z</time>
      </trkpt>
      <trkpt lat="27.938064" lon="-15.527519">
        <ele>1482.20</ele>
        <time>2018-07-13T20:04:14Z</time>
      </trkpt>
      <trkpt lat="27.938045" lon="-15.527504">
        <ele>1481.60</ele>
        <time>2018-07-13T20:04:15Z</time>
      </trkpt>
      <trkpt lat="27.938025" lon="-15.527488">
        <ele>1481.60</ele>
        <time>2018-07-13T20:04:16Z</time>
      </trkpt>
      <trkpt lat="27.938007" lon="-15.527468">
        <ele>1481.60</ele>
        <time>2018-07-13T20:04:17Z</time>
      </trkpt>
      <trkpt lat="27.937991" lon="-15.527448">
        <ele>1481.20</ele>
        <time>2018-07-13T20:04:18Z</time>
      </trkpt>
      <trkpt lat="27.937969" lon="-15.527429">
        <ele>1480.20</ele>
        <time>2018-07-13T20:04:19Z</time>
      </trkpt>
      <trkpt lat="27.937948" lon="-15.527415">
        <ele>1480.00</ele>
        <time>2018-07-13T20:04:20Z</time>
      </trkpt>
      <trkpt lat="27.937926" lon="-15.527405">
        <ele>1479.80</ele>
        <time>2018-07-13T20:04:21Z</time>
      </trkpt>
      <trkpt lat="27.937900" lon="-15.527389">
        <ele>1477.80</ele>
        <time>2018-07-13T20:04:23Z</time>
      </trkpt>
      <trkpt lat="27.937887" lon="-15.527365">
        <ele>1477.40</ele>
        <time>2018-07-13T20:04:25Z</time>
      </trkpt>
      <trkpt lat="27.937879" lon="-15.527328">
        <ele>1476.00</ele>
        <time>2018-07-13T20:04:27Z</time>
      </trkpt>
      <trkpt lat="27.937862" lon="-15.527312">
        <ele>1476.00</ele>
        <time>2018-07-13T20:04:28Z</time>
      </trkpt>
      <trkpt lat="27.937843" lon="-15.527296">
        <ele>1475.80</ele>
        <time>2018-07-13T20:04:29Z</time>
      </trkpt>
      <trkpt lat="27.937827" lon="-15.527281">
        <ele>1475.80</ele>
        <time>2018-07-13T20:04:30Z</time>
      </trkpt>
      <trkpt lat="27.937812" lon="-15.527258">
        <ele>1475.40</ele>
        <time>2018-07-13T20:04:31Z</time>
      </trkpt>
      <trkpt lat="27.937800" lon="-15.527235">
        <ele>1475.20</ele>
        <time>2018-07-13T20:04:32Z</time>
      </trkpt>
      <trkpt lat="27.937791" lon="-15.527216">
        <ele>1474.20</ele>
        <time>2018-07-13T20:04:33Z</time>
      </trkpt>
      <trkpt lat="27.937785" lon="-15.527178">
        <ele>1473.80</ele>
        <time>2018-07-13T20:04:35Z</time>
      </trkpt>
      <trkpt lat="27.937776" lon="-15.527155">
        <ele>1473.80</ele>
        <time>2018-07-13T20:04:36Z</time>
      </trkpt>
      <trkpt lat="27.937767" lon="-15.527137">
        <ele>1473.80</ele>
        <time>2018-07-13T20:04:37Z</time>
      </trkpt>
      <trkpt lat="27.937757" lon="-15.527110">
        <ele>1473.80</ele>
        <time>2018-07-13T20:04:38Z</time>
      </trkpt>
      <trkpt lat="27.937746" lon="-15.527083">
        <ele>1473.60</ele>
        <time>2018-07-13T20:04:39Z</time>
      </trkpt>
      <trkpt lat="27.937733" lon="-15.527062">
        <ele>1473.20</ele>
        <time>2018-07-13T20:04:40Z</time>
      </trkpt>
      <trkpt lat="27.937721" lon="-15.527043">
        <ele>1472.20</ele>
        <time>2018-07-13T20:04:41Z</time>
      </trkpt>
      <trkpt lat="27.937707" lon="-15.527022">
        <ele>1471.60</ele>
        <time>2018-07-13T20:04:42Z</time>
      </trkpt>
      <trkpt lat="27.937695" lon="-15.526996">
        <ele>1471.60</ele>
        <time>2018-07-13T20:04:43Z</time>
      </trkpt>
      <trkpt lat="27.937684" lon="-15.526973">
        <ele>1470.80</ele>
        <time>2018-07-13T20:04:44Z</time>
      </trkpt>
      <trkpt lat="27.937672" lon="-15.526949">
        <ele>1470.60</ele>
        <time>2018-07-13T20:04:45Z</time>
      </trkpt>
      <trkpt lat="27.937660" lon="-15.526926">
        <ele>1470.40</ele>
        <time>2018-07-13T20:04:46Z</time>
      </trkpt>
      <trkpt lat="27.937650" lon="-15.526903">
        <ele>1470.00</ele>
        <time>2018-07-13T20:04:47Z</time>
      </trkpt>
      <trkpt lat="27.937639" lon="-15.526885">
        <ele>1469.60</ele>
        <time>2018-07-13T20:04:48Z</time>
      </trkpt>
      <trkpt lat="27.937625" lon="-15.526868">
        <ele>1469.60</ele>
        <time>2018-07-13T20:04:49Z</time>
      </trkpt>
      <trkpt lat="27.937609" lon="-15.526853">
        <ele>1468.60</ele>
        <time>2018-07-13T20:04:50Z</time>
      </trkpt>
      <trkpt lat="27.937596" lon="-15.526833">
        <ele>1468.40</ele>
        <time>2018-07-13T20:04:51Z</time>
      </trkpt>
      <trkpt lat="27.937585" lon="-15.526811">
        <ele>1468.40</ele>
        <time>2018-07-13T20:04:52Z</time>
      </trkpt>
      <trkpt lat="27.937574" lon="-15.526793">
        <ele>1468.40</ele>
        <time>2018-07-13T20:04:53Z</time>
      </trkpt>
      <trkpt lat="27.937561" lon="-15.526778">
        <ele>1468.20</ele>
        <time>2018-07-13T20:04:54Z</time>
      </trkpt>
      <trkpt lat="27.937533" lon="-15.526753">
        <ele>1467.00</ele>
        <time>2018-07-13T20:04:56Z</time>
      </trkpt>
      <trkpt lat="27.937514" lon="-15.526740">
        <ele>1466.20</ele>
        <time>2018-07-13T20:04:57Z</time>
      </trkpt>
      <trkpt lat="27.937497" lon="-15.526723">
        <ele>1466.20</ele>
        <time>2018-07-13T20:04:58Z</time>
      </trkpt>
      <trkpt lat="27.937476" lon="-15.526710">
        <ele>1465.40</ele>
        <time>2018-07-13T20:04:59Z</time>
      </trkpt>
      <trkpt lat="27.937458" lon="-15.526696">
        <ele>1465.20</ele>
        <time>2018-07-13T20:05:00Z</time>
      </trkpt>
      <trkpt lat="27.937447" lon="-15.526659">
        <ele>1464.60</ele>
        <time>2018-07-13T20:05:02Z</time>
      </trkpt>
      <trkpt lat="27.937440" lon="-15.526635">
        <ele>1464.60</ele>
        <time>2018-07-13T20:05:03Z</time>
      </trkpt>
      <trkpt lat="27.937424" lon="-15.526611">
        <ele>1464.40</ele>
        <time>2018-07-13T20:05:04Z</time>
      </trkpt>
      <trkpt lat="27.937401" lon="-15.526589">
        <ele>1464.40</ele>
        <time>2018-07-13T20:05:05Z</time>
      </trkpt>
      <trkpt lat="27.937376" lon="-15.526569">
        <ele>1464.00</ele>
        <time>2018-07-13T20:05:06Z</time>
      </trkpt>
      <trkpt lat="27.937354" lon="-15.526547">
        <ele>1464.00</ele>
        <time>2018-07-13T20:05:07Z</time>
      </trkpt>
      <trkpt lat="27.937334" lon="-15.526521">
        <ele>1464.00</ele>
        <time>2018-07-13T20:05:08Z</time>
      </trkpt>
      <trkpt lat="27.937311" lon="-15.526500">
        <ele>1463.60</ele>
        <time>2018-07-13T20:05:09Z</time>
      </trkpt>
      <trkpt lat="27.937268" lon="-15.526440">
        <ele>1463.00</ele>
        <time>2018-07-13T20:05:11Z</time>
      </trkpt>
      <trkpt lat="27.937247" lon="-15.526404">
        <ele>1463.00</ele>
        <time>2018-07-13T20:05:12Z</time>
      </trkpt>
      <trkpt lat="27.937226" lon="-15.526373">
        <ele>1462.20</ele>
        <time>2018-07-13T20:05:13Z</time>
      </trkpt>
      <trkpt lat="27.937205" lon="-15.526345">
        <ele>1462.20</ele>
        <time>2018-07-13T20:05:14Z</time>
      </trkpt>
      <trkpt lat="27.937186" lon="-15.526320">
        <ele>1462.00</ele>
        <time>2018-07-13T20:05:15Z</time>
      </trkpt>
      <trkpt lat="27.937163" lon="-15.526292">
        <ele>1461.40</ele>
        <time>2018-07-13T20:05:16Z</time>
      </trkpt>
      <trkpt lat="27.937143" lon="-15.526268">
        <ele>1461.40</ele>
        <time>2018-07-13T20:05:17Z</time>
      </trkpt>
      <trkpt lat="27.937118" lon="-15.526246">
        <ele>1460.60</ele>
        <time>2018-07-13T20:05:18Z</time>
      </trkpt>
      <trkpt lat="27.937090" lon="-15.526221">
        <ele>1460.40</ele>
        <time>2018-07-13T20:05:19Z</time>
      </trkpt>
      <trkpt lat="27.937065" lon="-15.526196">
        <ele>1460.20</ele>
        <time>2018-07-13T20:05:20Z</time>
      </trkpt>
      <trkpt lat="27.937040" lon="-15.526170">
        <ele>1459.60</ele>
        <time>2018-07-13T20:05:21Z</time>
      </trkpt>
      <trkpt lat="27.937018" lon="-15.526146">
        <ele>1458.20</ele>
        <time>2018-07-13T20:05:22Z</time>
      </trkpt>
      <trkpt lat="27.936995" lon="-15.526122">
        <ele>1458.00</ele>
        <time>2018-07-13T20:05:23Z</time>
      </trkpt>
      <trkpt lat="27.936977" lon="-15.526100">
        <ele>1457.80</ele>
        <time>2018-07-13T20:05:24Z</time>
      </trkpt>
      <trkpt lat="27.936959" lon="-15.526073">
        <ele>1457.80</ele>
        <time>2018-07-13T20:05:25Z</time>
      </trkpt>
      <trkpt lat="27.936940" lon="-15.526051">
        <ele>1457.80</ele>
        <time>2018-07-13T20:05:26Z</time>
      </trkpt>
      <trkpt lat="27.936920" lon="-15.526028">
        <ele>1457.60</ele>
        <time>2018-07-13T20:05:27Z</time>
      </trkpt>
      <trkpt lat="27.936897" lon="-15.526003">
        <ele>1457.00</ele>
        <time>2018-07-13T20:05:28Z</time>
      </trkpt>
      <trkpt lat="27.936873" lon="-15.525981">
        <ele>1456.80</ele>
        <time>2018-07-13T20:05:29Z</time>
      </trkpt>
      <trkpt lat="27.936852" lon="-15.525959">
        <ele>1456.80</ele>
        <time>2018-07-13T20:05:30Z</time>
      </trkpt>
      <trkpt lat="27.936830" lon="-15.525939">
        <ele>1456.20</ele>
        <time>2018-07-13T20:05:31Z</time>
      </trkpt>
      <trkpt lat="27.936808" lon="-15.525915">
        <ele>1456.00</ele>
        <time>2018-07-13T20:05:32Z</time>
      </trkpt>
      <trkpt lat="27.936784" lon="-15.525896">
        <ele>1454.60</ele>
        <time>2018-07-13T20:05:33Z</time>
      </trkpt>
      <trkpt lat="27.936761" lon="-15.525881">
        <ele>1454.40</ele>
        <time>2018-07-13T20:05:34Z</time>
      </trkpt>
      <trkpt lat="27.936742" lon="-15.525861">
        <ele>1454.00</ele>
        <time>2018-07-13T20:05:35Z</time>
      </trkpt>
      <trkpt lat="27.936726" lon="-15.525838">
        <ele>1454.00</ele>
        <time>2018-07-13T20:05:36Z</time>
      </trkpt>
      <trkpt lat="27.936714" lon="-15.525815">
        <ele>1454.00</ele>
        <time>2018-07-13T20:05:37Z</time>
      </trkpt>
      <trkpt lat="27.936698" lon="-15.525788">
        <ele>1454.00</ele>
        <time>2018-07-13T20:05:38Z</time>
      </trkpt>
      <trkpt lat="27.936679" lon="-15.525762">
        <ele>1454.00</ele>
        <time>2018-07-13T20:05:39Z</time>
      </trkpt>
      <trkpt lat="27.936664" lon="-15.525736">
        <ele>1454.20</ele>
        <time>2018-07-13T20:05:40Z</time>
      </trkpt>
      <trkpt lat="27.936645" lon="-15.525709">
        <ele>1454.20</ele>
        <time>2018-07-13T20:05:41Z</time>
      </trkpt>
      <trkpt lat="27.936630" lon="-15.525687">
        <ele>1454.20</ele>
        <time>2018-07-13T20:05:42Z</time>
      </trkpt>
      <trkpt lat="27.936609" lon="-15.525665">
        <ele>1453.60</ele>
        <time>2018-07-13T20:05:43Z</time>
      </trkpt>
      <trkpt lat="27.936589" lon="-15.525646">
        <ele>1452.40</ele>
        <time>2018-07-13T20:05:44Z</time>
      </trkpt>
      <trkpt lat="27.936563" lon="-15.525624">
        <ele>1452.20</ele>
        <time>2018-07-13T20:05:45Z</time>
      </trkpt>
      <trkpt lat="27.936542" lon="-15.525606">
        <ele>1452.40</ele>
        <time>2018-07-13T20:05:46Z</time>
      </trkpt>
      <trkpt lat="27.936523" lon="-15.525586">
        <ele>1452.20</ele>
        <time>2018-07-13T20:05:47Z</time>
      </trkpt>
      <trkpt lat="27.936501" lon="-15.525566">
        <ele>1452.00</ele>
        <time>2018-07-13T20:05:48Z</time>
      </trkpt>
      <trkpt lat="27.936478" lon="-15.525543">
        <ele>1452.00</ele>
        <time>2018-07-13T20:05:49Z</time>
      </trkpt>
      <trkpt lat="27.936455" lon="-15.525525">
        <ele>1452.00</ele>
        <time>2018-07-13T20:05:50Z</time>
      </trkpt>
      <trkpt lat="27.936432" lon="-15.525503">
        <ele>1452.00</ele>
        <time>2018-07-13T20:05:51Z</time>
      </trkpt>
      <trkpt lat="27.936413" lon="-15.525479">
        <ele>1452.00</ele>
        <time>2018-07-13T20:05:52Z</time>
      </trkpt>
      <trkpt lat="27.936400" lon="-15.525454">
        <ele>1452.00</ele>
        <time>2018-07-13T20:05:53Z</time>
      </trkpt>
      <trkpt lat="27.936386" lon="-15.525428">
        <ele>1450.60</ele>
        <time>2018-07-13T20:05:54Z</time>
      </trkpt>
      <trkpt lat="27.936375" lon="-15.525404">
        <ele>1451.40</ele>
        <time>2018-07-13T20:05:55Z</time>
      </trkpt>
      <trkpt lat="27.936364" lon="-15.525376">
        <ele>1450.40</ele>
        <time>2018-07-13T20:05:56Z</time>
      </trkpt>
      <trkpt lat="27.936355" lon="-15.525347">
        <ele>1450.60</ele>
        <time>2018-07-13T20:05:57Z</time>
      </trkpt>
      <trkpt lat="27.936347" lon="-15.525321">
        <ele>1450.00</ele>
        <time>2018-07-13T20:05:58Z</time>
      </trkpt>
      <trkpt lat="27.936342" lon="-15.525297">
        <ele>1450.20</ele>
        <time>2018-07-13T20:05:59Z</time>
      </trkpt>
      <trkpt lat="27.936341" lon="-15.525267">
        <ele>1450.00</ele>
        <time>2018-07-13T20:06:00Z</time>
      </trkpt>
      <trkpt lat="27.936336" lon="-15.525237">
        <ele>1450.00</ele>
        <time>2018-07-13T20:06:01Z</time>
      </trkpt>
      <trkpt lat="27.936330" lon="-15.525208">
        <ele>1450.00</ele>
        <time>2018-07-13T20:06:02Z</time>
      </trkpt>
      <trkpt lat="27.936320" lon="-15.525174">
        <ele>1450.00</ele>
        <time>2018-07-13T20:06:03Z</time>
      </trkpt>
      <trkpt lat="27.936314" lon="-15.525144">
        <ele>1450.00</ele>
        <time>2018-07-13T20:06:04Z</time>
      </trkpt>
      <trkpt lat="27.936309" lon="-15.525116">
        <ele>1450.00</ele>
        <time>2018-07-13T20:06:05Z</time>
      </trkpt>
      <trkpt lat="27.936305" lon="-15.525091">
        <ele>1450.00</ele>
        <time>2018-07-13T20:06:06Z</time>
      </trkpt>
      <trkpt lat="27.936297" lon="-15.525059">
        <ele>1448.60</ele>
        <time>2018-07-13T20:06:07Z</time>
      </trkpt>
      <trkpt lat="27.936288" lon="-15.525028">
        <ele>1448.20</ele>
        <time>2018-07-13T20:06:08Z</time>
      </trkpt>
      <trkpt lat="27.936284" lon="-15.524998">
        <ele>1447.80</ele>
        <time>2018-07-13T20:06:09Z</time>
      </trkpt>
      <trkpt lat="27.936280" lon="-15.524968">
        <ele>1448.20</ele>
        <time>2018-07-13T20:06:10Z</time>
      </trkpt>
      <trkpt lat="27.936276" lon="-15.524936">
        <ele>1448.20</ele>
        <time>2018-07-13T20:06:11Z</time>
      </trkpt>
      <trkpt lat="27.936273" lon="-15.524905">
        <ele>1448.20</ele>
        <time>2018-07-13T20:06:12Z</time>
      </trkpt>
      <trkpt lat="27.936268" lon="-15.524871">
        <ele>1448.00</ele>
        <time>2018-07-13T20:06:13Z</time>
      </trkpt>
      <trkpt lat="27.936262" lon="-15.524839">
        <ele>1448.00</ele>
        <time>2018-07-13T20:06:14Z</time>
      </trkpt>
      <trkpt lat="27.936252" lon="-15.524808">
        <ele>1448.00</ele>
        <time>2018-07-13T20:06:15Z</time>
      </trkpt>
      <trkpt lat="27.936244" lon="-15.524778">
        <ele>1448.00</ele>
        <time>2018-07-13T20:06:16Z</time>
      </trkpt>
      <trkpt lat="27.936236" lon="-15.524749">
        <ele>1447.20</ele>
        <time>2018-07-13T20:06:17Z</time>
      </trkpt>
      <trkpt lat="27.936225" lon="-15.524726">
        <ele>1447.00</ele>
        <time>2018-07-13T20:06:18Z</time>
      </trkpt>
      <trkpt lat="27.936216" lon="-15.524708">
        <ele>1445.80</ele>
        <time>2018-07-13T20:06:19Z</time>
      </trkpt>
      <trkpt lat="27.936210" lon="-15.524685">
        <ele>1445.80</ele>
        <time>2018-07-13T20:06:20Z</time>
      </trkpt>
      <trkpt lat="27.936206" lon="-15.524655">
        <ele>1445.60</ele>
        <time>2018-07-13T20:06:21Z</time>
      </trkpt>
      <trkpt lat="27.936202" lon="-15.524627">
        <ele>1445.60</ele>
        <time>2018-07-13T20:06:22Z</time>
      </trkpt>
      <trkpt lat="27.936198" lon="-15.524597">
        <ele>1445.40</ele>
        <time>2018-07-13T20:06:23Z</time>
      </trkpt>
      <trkpt lat="27.936195" lon="-15.524560">
        <ele>1445.20</ele>
        <time>2018-07-13T20:06:24Z</time>
      </trkpt>
      <trkpt lat="27.936189" lon="-15.524530">
        <ele>1445.20</ele>
        <time>2018-07-13T20:06:25Z</time>
      </trkpt>
      <trkpt lat="27.936180" lon="-15.524497">
        <ele>1445.00</ele>
        <time>2018-07-13T20:06:26Z</time>
      </trkpt>
      <trkpt lat="27.936170" lon="-15.524464">
        <ele>1445.00</ele>
        <time>2018-07-13T20:06:27Z</time>
      </trkpt>
      <trkpt lat="27.936160" lon="-15.524430">
        <ele>1445.00</ele>
        <time>2018-07-13T20:06:28Z</time>
      </trkpt>
      <trkpt lat="27.936151" lon="-15.524397">
        <ele>1444.40</ele>
        <time>2018-07-13T20:06:29Z</time>
      </trkpt>
      <trkpt lat="27.936137" lon="-15.524365">
        <ele>1444.40</ele>
        <time>2018-07-13T20:06:30Z</time>
      </trkpt>
      <trkpt lat="27.936126" lon="-15.524333">
        <ele>1444.40</ele>
        <time>2018-07-13T20:06:31Z</time>
      </trkpt>
      <trkpt lat="27.936115" lon="-15.524304">
        <ele>1443.40</ele>
        <time>2018-07-13T20:06:32Z</time>
      </trkpt>
      <trkpt lat="27.936098" lon="-15.524271">
        <ele>1443.00</ele>
        <time>2018-07-13T20:06:33Z</time>
      </trkpt>
      <trkpt lat="27.936079" lon="-15.524245">
        <ele>1442.60</ele>
        <time>2018-07-13T20:06:34Z</time>
      </trkpt>
      <trkpt lat="27.936065" lon="-15.524214">
        <ele>1442.00</ele>
        <time>2018-07-13T20:06:35Z</time>
      </trkpt>
      <trkpt lat="27.936050" lon="-15.524181">
        <ele>1441.60</ele>
        <time>2018-07-13T20:06:36Z</time>
      </trkpt>
      <trkpt lat="27.936030" lon="-15.524118">
        <ele>1441.40</ele>
        <time>2018-07-13T20:06:38Z</time>
      </trkpt>
      <trkpt lat="27.936009" lon="-15.524058">
        <ele>1440.80</ele>
        <time>2018-07-13T20:06:40Z</time>
      </trkpt>
      <trkpt lat="27.935999" lon="-15.524034">
        <ele>1440.80</ele>
        <time>2018-07-13T20:06:41Z</time>
      </trkpt>
      <trkpt lat="27.935988" lon="-15.524010">
        <ele>1440.80</ele>
        <time>2018-07-13T20:06:42Z</time>
      </trkpt>
      <trkpt lat="27.935976" lon="-15.523984">
        <ele>1439.80</ele>
        <time>2018-07-13T20:06:43Z</time>
      </trkpt>
      <trkpt lat="27.935960" lon="-15.523959">
        <ele>1439.40</ele>
        <time>2018-07-13T20:06:44Z</time>
      </trkpt>
      <trkpt lat="27.935947" lon="-15.523935">
        <ele>1439.40</ele>
        <time>2018-07-13T20:06:45Z</time>
      </trkpt>
      <trkpt lat="27.935933" lon="-15.523907">
        <ele>1438.80</ele>
        <time>2018-07-13T20:06:46Z</time>
      </trkpt>
      <trkpt lat="27.935922" lon="-15.523879">
        <ele>1438.40</ele>
        <time>2018-07-13T20:06:47Z</time>
      </trkpt>
      <trkpt lat="27.935912" lon="-15.523852">
        <ele>1437.80</ele>
        <time>2018-07-13T20:06:48Z</time>
      </trkpt>
      <trkpt lat="27.935899" lon="-15.523826">
        <ele>1437.60</ele>
        <time>2018-07-13T20:06:49Z</time>
      </trkpt>
      <trkpt lat="27.935886" lon="-15.523801">
        <ele>1437.40</ele>
        <time>2018-07-13T20:06:50Z</time>
      </trkpt>
      <trkpt lat="27.935871" lon="-15.523774">
        <ele>1437.40</ele>
        <time>2018-07-13T20:06:51Z</time>
      </trkpt>
      <trkpt lat="27.935855" lon="-15.523748">
        <ele>1437.00</ele>
        <time>2018-07-13T20:06:52Z</time>
      </trkpt>
      <trkpt lat="27.935838" lon="-15.523717">
        <ele>1436.20</ele>
        <time>2018-07-13T20:06:53Z</time>
      </trkpt>
      <trkpt lat="27.935822" lon="-15.523683">
        <ele>1436.20</ele>
        <time>2018-07-13T20:06:54Z</time>
      </trkpt>
      <trkpt lat="27.935804" lon="-15.523647">
        <ele>1435.60</ele>
        <time>2018-07-13T20:06:55Z</time>
      </trkpt>
      <trkpt lat="27.935746" lon="-15.523553">
        <ele>1434.40</ele>
        <time>2018-07-13T20:06:58Z</time>
      </trkpt>
      <trkpt lat="27.935726" lon="-15.523523">
        <ele>1433.40</ele>
        <time>2018-07-13T20:06:59Z</time>
      </trkpt>
      <trkpt lat="27.935699" lon="-15.523498">
        <ele>1433.00</ele>
        <time>2018-07-13T20:07:00Z</time>
      </trkpt>
      <trkpt lat="27.935668" lon="-15.523477">
        <ele>1431.80</ele>
        <time>2018-07-13T20:07:01Z</time>
      </trkpt>
      <trkpt lat="27.935635" lon="-15.523462">
        <ele>1431.40</ele>
        <time>2018-07-13T20:07:02Z</time>
      </trkpt>
      <trkpt lat="27.935610" lon="-15.523450">
        <ele>1431.40</ele>
        <time>2018-07-13T20:07:03Z</time>
      </trkpt>
      <trkpt lat="27.935586" lon="-15.523440">
        <ele>1431.00</ele>
        <time>2018-07-13T20:07:04Z</time>
      </trkpt>
      <trkpt lat="27.935560" lon="-15.523427">
        <ele>1431.00</ele>
        <time>2018-07-13T20:07:05Z</time>
      </trkpt>
      <trkpt lat="27.935540" lon="-15.523412">
        <ele>1430.80</ele>
        <time>2018-07-13T20:07:06Z</time>
      </trkpt>
      <trkpt lat="27.935523" lon="-15.523389">
        <ele>1430.20</ele>
        <time>2018-07-13T20:07:07Z</time>
      </trkpt>
      <trkpt lat="27.935513" lon="-15.523365">
        <ele>1429.00</ele>
        <time>2018-07-13T20:07:08Z</time>
      </trkpt>
      <trkpt lat="27.935508" lon="-15.523340">
        <ele>1429.00</ele>
        <time>2018-07-13T20:07:09Z</time>
      </trkpt>
      <trkpt lat="27.935505" lon="-15.523310">
        <ele>1429.00</ele>
        <time>2018-07-13T20:07:10Z</time>
      </trkpt>
      <trkpt lat="27.935502" lon="-15.523276">
        <ele>1429.00</ele>
        <time>2018-07-13T20:07:11Z</time>
      </trkpt>
      <trkpt lat="27.935486" lon="-15.523148">
        <ele>1427.40</ele>
        <time>2018-07-13T20:07:15Z</time>
      </trkpt>
      <trkpt lat="27.935475" lon="-15.523015">
        <ele>1425.60</ele>
        <time>2018-07-13T20:07:19Z</time>
      </trkpt>
      <trkpt lat="27.935465" lon="-15.522892">
        <ele>1424.60</ele>
        <time>2018-07-13T20:07:23Z</time>
      </trkpt>
      <trkpt lat="27.935459" lon="-15.522779">
        <ele>1424.40</ele>
        <time>2018-07-13T20:07:27Z</time>
      </trkpt>
      <trkpt lat="27.935411" lon="-15.522666">
        <ele>1423.80</ele>
        <time>2018-07-13T20:07:31Z</time>
      </trkpt>
      <trkpt lat="27.935403" lon="-15.522635">
        <ele>1423.80</ele>
        <time>2018-07-13T20:07:32Z</time>
      </trkpt>
      <trkpt lat="27.935398" lon="-15.522606">
        <ele>1423.80</ele>
        <time>2018-07-13T20:07:33Z</time>
      </trkpt>
      <trkpt lat="27.935392" lon="-15.522578">
        <ele>1422.80</ele>
        <time>2018-07-13T20:07:34Z</time>
      </trkpt>
      <trkpt lat="27.935390" lon="-15.522556">
        <ele>1422.80</ele>
        <time>2018-07-13T20:07:35Z</time>
      </trkpt>
      <trkpt lat="27.935371" lon="-15.522484">
        <ele>1422.40</ele>
        <time>2018-07-13T20:07:38Z</time>
      </trkpt>
      <trkpt lat="27.935373" lon="-15.522461">
        <ele>1423.40</ele>
        <time>2018-07-13T20:07:39Z</time>
      </trkpt>
      <trkpt lat="27.935356" lon="-15.522349">
        <ele>1422.80</ele>
        <time>2018-07-13T20:07:43Z</time>
      </trkpt>
      <trkpt lat="27.935304" lon="-15.522240">
        <ele>1421.40</ele>
        <time>2018-07-13T20:07:47Z</time>
      </trkpt>
      <trkpt lat="27.935290" lon="-15.522215">
        <ele>1421.40</ele>
        <time>2018-07-13T20:07:48Z</time>
      </trkpt>
      <trkpt lat="27.935280" lon="-15.522196">
        <ele>1421.00</ele>
        <time>2018-07-13T20:07:49Z</time>
      </trkpt>
      <trkpt lat="27.935263" lon="-15.522166">
        <ele>1421.00</ele>
        <time>2018-07-13T20:07:51Z</time>
      </trkpt>
      <trkpt lat="27.935252" lon="-15.522134">
        <ele>1421.40</ele>
        <time>2018-07-13T20:07:53Z</time>
      </trkpt>
      <trkpt lat="27.935241" lon="-15.522104">
        <ele>1420.80</ele>
        <time>2018-07-13T20:07:55Z</time>
      </trkpt>
      <trkpt lat="27.935227" lon="-15.522079">
        <ele>1420.80</ele>
        <time>2018-07-13T20:07:57Z</time>
      </trkpt>
      <trkpt lat="27.935216" lon="-15.522054">
        <ele>1421.00</ele>
        <time>2018-07-13T20:07:59Z</time>
      </trkpt>
      <trkpt lat="27.935207" lon="-15.522028">
        <ele>1421.00</ele>
        <time>2018-07-13T20:08:01Z</time>
      </trkpt>
      <trkpt lat="27.935188" lon="-15.522000">
        <ele>1421.00</ele>
        <time>2018-07-13T20:08:03Z</time>
      </trkpt>
      <trkpt lat="27.935175" lon="-15.521973">
        <ele>1421.00</ele>
        <time>2018-07-13T20:08:05Z</time>
      </trkpt>
      <trkpt lat="27.935163" lon="-15.521943">
        <ele>1421.40</ele>
        <time>2018-07-13T20:08:07Z</time>
      </trkpt>
      <trkpt lat="27.935150" lon="-15.521917">
        <ele>1421.40</ele>
        <time>2018-07-13T20:08:09Z</time>
      </trkpt>
      <trkpt lat="27.935140" lon="-15.521889">
        <ele>1421.20</ele>
        <time>2018-07-13T20:08:11Z</time>
      </trkpt>
      <trkpt lat="27.935129" lon="-15.521859">
        <ele>1421.20</ele>
        <time>2018-07-13T20:08:13Z</time>
      </trkpt>
      <trkpt lat="27.935122" lon="-15.521836">
        <ele>1421.20</ele>
        <time>2018-07-13T20:08:15Z</time>
      </trkpt>
      <trkpt lat="27.935108" lon="-15.521806">
        <ele>1421.60</ele>
        <time>2018-07-13T20:08:17Z</time>
      </trkpt>
      <trkpt lat="27.935091" lon="-15.521786">
        <ele>1421.80</ele>
        <time>2018-07-13T20:08:18Z</time>
      </trkpt>
      <trkpt lat="27.935077" lon="-15.521762">
        <ele>1421.80</ele>
        <time>2018-07-13T20:08:19Z</time>
      </trkpt>
      <trkpt lat="27.935056" lon="-15.521736">
        <ele>1422.20</ele>
        <time>2018-07-13T20:08:20Z</time>
      </trkpt>
      <trkpt lat="27.935035" lon="-15.521714">
        <ele>1422.20</ele>
        <time>2018-07-13T20:08:21Z</time>
      </trkpt>
      <trkpt lat="27.935013" lon="-15.521689">
        <ele>1422.60</ele>
        <time>2018-07-13T20:08:22Z</time>
      </trkpt>
      <trkpt lat="27.934992" lon="-15.521666">
        <ele>1422.60</ele>
        <time>2018-07-13T20:08:23Z</time>
      </trkpt>
      <trkpt lat="27.934971" lon="-15.521644">
        <ele>1422.60</ele>
        <time>2018-07-13T20:08:24Z</time>
      </trkpt>
      <trkpt lat="27.934948" lon="-15.521620">
        <ele>1422.60</ele>
        <time>2018-07-13T20:08:25Z</time>
      </trkpt>
      <trkpt lat="27.934924" lon="-15.521597">
        <ele>1422.60</ele>
        <time>2018-07-13T20:08:26Z</time>
      </trkpt>
      <trkpt lat="27.934905" lon="-15.521575">
        <ele>1422.60</ele>
        <time>2018-07-13T20:08:27Z</time>
      </trkpt>
      <trkpt lat="27.934883" lon="-15.521554">
        <ele>1422.60</ele>
        <time>2018-07-13T20:08:28Z</time>
      </trkpt>
      <trkpt lat="27.934857" lon="-15.521529">
        <ele>1421.80</ele>
        <time>2018-07-13T20:08:29Z</time>
      </trkpt>
      <trkpt lat="27.934834" lon="-15.521503">
        <ele>1422.80</ele>
        <time>2018-07-13T20:08:30Z</time>
      </trkpt>
      <trkpt lat="27.934807" lon="-15.521477">
        <ele>1421.20</ele>
        <time>2018-07-13T20:08:31Z</time>
      </trkpt>
      <trkpt lat="27.934784" lon="-15.521452">
        <ele>1421.00</ele>
        <time>2018-07-13T20:08:32Z</time>
      </trkpt>
      <trkpt lat="27.934761" lon="-15.521427">
        <ele>1420.80</ele>
        <time>2018-07-13T20:08:33Z</time>
      </trkpt>
      <trkpt lat="27.934738" lon="-15.521402">
        <ele>1420.60</ele>
        <time>2018-07-13T20:08:34Z</time>
      </trkpt>
      <trkpt lat="27.934718" lon="-15.521378">
        <ele>1420.60</ele>
        <time>2018-07-13T20:08:35Z</time>
      </trkpt>
      <trkpt lat="27.934697" lon="-15.521352">
        <ele>1420.40</ele>
        <time>2018-07-13T20:08:36Z</time>
      </trkpt>
      <trkpt lat="27.934678" lon="-15.521329">
        <ele>1420.40</ele>
        <time>2018-07-13T20:08:37Z</time>
      </trkpt>
      <trkpt lat="27.934659" lon="-15.521308">
        <ele>1420.20</ele>
        <time>2018-07-13T20:08:38Z</time>
      </trkpt>
      <trkpt lat="27.934634" lon="-15.521284">
        <ele>1420.20</ele>
        <time>2018-07-13T20:08:39Z</time>
      </trkpt>
      <trkpt lat="27.934612" lon="-15.521257">
        <ele>1420.20</ele>
        <time>2018-07-13T20:08:40Z</time>
      </trkpt>
      <trkpt lat="27.934591" lon="-15.521231">
        <ele>1420.20</ele>
        <time>2018-07-13T20:08:41Z</time>
      </trkpt>
      <trkpt lat="27.934570" lon="-15.521208">
        <ele>1419.20</ele>
        <time>2018-07-13T20:08:42Z</time>
      </trkpt>
      <trkpt lat="27.934547" lon="-15.521182">
        <ele>1419.40</ele>
        <time>2018-07-13T20:08:43Z</time>
      </trkpt>
      <trkpt lat="27.934523" lon="-15.521156">
        <ele>1418.40</ele>
        <time>2018-07-13T20:08:44Z</time>
      </trkpt>
      <trkpt lat="27.934498" lon="-15.521129">
        <ele>1418.60</ele>
        <time>2018-07-13T20:08:45Z</time>
      </trkpt>
      <trkpt lat="27.934478" lon="-15.521100">
        <ele>1417.80</ele>
        <time>2018-07-13T20:08:46Z</time>
      </trkpt>
      <trkpt lat="27.934457" lon="-15.521075">
        <ele>1418.20</ele>
        <time>2018-07-13T20:08:47Z</time>
      </trkpt>
      <trkpt lat="27.934438" lon="-15.521052">
        <ele>1417.20</ele>
        <time>2018-07-13T20:08:48Z</time>
      </trkpt>
      <trkpt lat="27.934418" lon="-15.521031">
        <ele>1417.60</ele>
        <time>2018-07-13T20:08:49Z</time>
      </trkpt>
      <trkpt lat="27.934400" lon="-15.521007">
        <ele>1416.40</ele>
        <time>2018-07-13T20:08:50Z</time>
      </trkpt>
      <trkpt lat="27.934383" lon="-15.520985">
        <ele>1416.60</ele>
        <time>2018-07-13T20:08:51Z</time>
      </trkpt>
      <trkpt lat="27.934366" lon="-15.520959">
        <ele>1415.20</ele>
        <time>2018-07-13T20:08:52Z</time>
      </trkpt>
      <trkpt lat="27.934350" lon="-15.520934">
        <ele>1415.80</ele>
        <time>2018-07-13T20:08:53Z</time>
      </trkpt>
      <trkpt lat="27.934333" lon="-15.520905">
        <ele>1415.40</ele>
        <time>2018-07-13T20:08:54Z</time>
      </trkpt>
      <trkpt lat="27.934316" lon="-15.520880">
        <ele>1415.40</ele>
        <time>2018-07-13T20:08:55Z</time>
      </trkpt>
      <trkpt lat="27.934299" lon="-15.520850">
        <ele>1415.40</ele>
        <time>2018-07-13T20:08:56Z</time>
      </trkpt>
      <trkpt lat="27.934282" lon="-15.520823">
        <ele>1415.20</ele>
        <time>2018-07-13T20:08:57Z</time>
      </trkpt>
      <trkpt lat="27.934265" lon="-15.520796">
        <ele>1415.20</ele>
        <time>2018-07-13T20:08:58Z</time>
      </trkpt>
      <trkpt lat="27.934247" lon="-15.520770">
        <ele>1415.20</ele>
        <time>2018-07-13T20:08:59Z</time>
      </trkpt>
      <trkpt lat="27.934230" lon="-15.520745">
        <ele>1415.20</ele>
        <time>2018-07-13T20:09:00Z</time>
      </trkpt>
      <trkpt lat="27.934211" lon="-15.520721">
        <ele>1414.20</ele>
        <time>2018-07-13T20:09:01Z</time>
      </trkpt>
      <trkpt lat="27.934194" lon="-15.520697">
        <ele>1415.60</ele>
        <time>2018-07-13T20:09:02Z</time>
      </trkpt>
      <trkpt lat="27.934176" lon="-15.520672">
        <ele>1414.00</ele>
        <time>2018-07-13T20:09:03Z</time>
      </trkpt>
      <trkpt lat="27.934158" lon="-15.520649">
        <ele>1414.40</ele>
        <time>2018-07-13T20:09:04Z</time>
      </trkpt>
      <trkpt lat="27.934138" lon="-15.520624">
        <ele>1413.60</ele>
        <time>2018-07-13T20:09:05Z</time>
      </trkpt>
      <trkpt lat="27.934123" lon="-15.520600">
        <ele>1413.40</ele>
        <time>2018-07-13T20:09:06Z</time>
      </trkpt>
      <trkpt lat="27.934105" lon="-15.520572">
        <ele>1412.80</ele>
        <time>2018-07-13T20:09:07Z</time>
      </trkpt>
      <trkpt lat="27.934091" lon="-15.520552">
        <ele>1412.80</ele>
        <time>2018-07-13T20:09:08Z</time>
      </trkpt>
      <trkpt lat="27.934071" lon="-15.520529">
        <ele>1412.80</ele>
        <time>2018-07-13T20:09:09Z</time>
      </trkpt>
      <trkpt lat="27.934056" lon="-15.520507">
        <ele>1412.80</ele>
        <time>2018-07-13T20:09:10Z</time>
      </trkpt>
      <trkpt lat="27.934040" lon="-15.520480">
        <ele>1412.80</ele>
        <time>2018-07-13T20:09:11Z</time>
      </trkpt>
      <trkpt lat="27.934025" lon="-15.520453">
        <ele>1412.80</ele>
        <time>2018-07-13T20:09:12Z</time>
      </trkpt>
      <trkpt lat="27.934011" lon="-15.520425">
        <ele>1412.80</ele>
        <time>2018-07-13T20:09:13Z</time>
      </trkpt>
      <trkpt lat="27.933999" lon="-15.520395">
        <ele>1412.80</ele>
        <time>2018-07-13T20:09:14Z</time>
      </trkpt>
      <trkpt lat="27.933986" lon="-15.520366">
        <ele>1413.00</ele>
        <time>2018-07-13T20:09:15Z</time>
      </trkpt>
      <trkpt lat="27.933971" lon="-15.520338">
        <ele>1411.80</ele>
        <time>2018-07-13T20:09:16Z</time>
      </trkpt>
      <trkpt lat="27.933958" lon="-15.520314">
        <ele>1413.00</ele>
        <time>2018-07-13T20:09:17Z</time>
      </trkpt>
      <trkpt lat="27.933941" lon="-15.520290">
        <ele>1411.60</ele>
        <time>2018-07-13T20:09:18Z</time>
      </trkpt>
      <trkpt lat="27.933924" lon="-15.520269">
        <ele>1412.20</ele>
        <time>2018-07-13T20:09:19Z</time>
      </trkpt>
      <trkpt lat="27.933908" lon="-15.520246">
        <ele>1411.60</ele>
        <time>2018-07-13T20:09:20Z</time>
      </trkpt>
      <trkpt lat="27.933890" lon="-15.520225">
        <ele>1411.80</ele>
        <time>2018-07-13T20:09:21Z</time>
      </trkpt>
      <trkpt lat="27.933869" lon="-15.520197">
        <ele>1411.40</ele>
        <time>2018-07-13T20:09:22Z</time>
      </trkpt>
      <trkpt lat="27.933847" lon="-15.520174">
        <ele>1411.40</ele>
        <time>2018-07-13T20:09:23Z</time>
      </trkpt>
      <trkpt lat="27.933830" lon="-15.520147">
        <ele>1411.40</ele>
        <time>2018-07-13T20:09:24Z</time>
      </trkpt>
      <trkpt lat="27.933815" lon="-15.520123">
        <ele>1411.40</ele>
        <time>2018-07-13T20:09:25Z</time>
      </trkpt>
      <trkpt lat="27.933805" lon="-15.520096">
        <ele>1411.20</ele>
        <time>2018-07-13T20:09:26Z</time>
      </trkpt>
      <trkpt lat="27.933793" lon="-15.520071">
        <ele>1411.20</ele>
        <time>2018-07-13T20:09:27Z</time>
      </trkpt>
      <trkpt lat="27.933779" lon="-15.520045">
        <ele>1411.20</ele>
        <time>2018-07-13T20:09:28Z</time>
      </trkpt>
      <trkpt lat="27.933765" lon="-15.520021">
        <ele>1410.00</ele>
        <time>2018-07-13T20:09:29Z</time>
      </trkpt>
      <trkpt lat="27.933753" lon="-15.519997">
        <ele>1411.80</ele>
        <time>2018-07-13T20:09:30Z</time>
      </trkpt>
      <trkpt lat="27.933740" lon="-15.519973">
        <ele>1410.00</ele>
        <time>2018-07-13T20:09:31Z</time>
      </trkpt>
      <trkpt lat="27.933727" lon="-15.519947">
        <ele>1411.00</ele>
        <time>2018-07-13T20:09:32Z</time>
      </trkpt>
      <trkpt lat="27.933716" lon="-15.519919">
        <ele>1410.00</ele>
        <time>2018-07-13T20:09:33Z</time>
      </trkpt>
      <trkpt lat="27.933706" lon="-15.519889">
        <ele>1410.40</ele>
        <time>2018-07-13T20:09:34Z</time>
      </trkpt>
      <trkpt lat="27.933695" lon="-15.519856">
        <ele>1410.40</ele>
        <time>2018-07-13T20:09:35Z</time>
      </trkpt>
      <trkpt lat="27.933685" lon="-15.519828">
        <ele>1410.40</ele>
        <time>2018-07-13T20:09:36Z</time>
      </trkpt>
      <trkpt lat="27.933674" lon="-15.519799">
        <ele>1410.20</ele>
        <time>2018-07-13T20:09:37Z</time>
      </trkpt>
      <trkpt lat="27.933663" lon="-15.519772">
        <ele>1410.20</ele>
        <time>2018-07-13T20:09:38Z</time>
      </trkpt>
      <trkpt lat="27.933652" lon="-15.519743">
        <ele>1410.20</ele>
        <time>2018-07-13T20:09:39Z</time>
      </trkpt>
      <trkpt lat="27.933642" lon="-15.519711">
        <ele>1410.20</ele>
        <time>2018-07-13T20:09:40Z</time>
      </trkpt>
      <trkpt lat="27.933635" lon="-15.519679">
        <ele>1410.20</ele>
        <time>2018-07-13T20:09:41Z</time>
      </trkpt>
      <trkpt lat="27.933625" lon="-15.519644">
        <ele>1409.20</ele>
        <time>2018-07-13T20:09:42Z</time>
      </trkpt>
      <trkpt lat="27.933615" lon="-15.519612">
        <ele>1409.00</ele>
        <time>2018-07-13T20:09:43Z</time>
      </trkpt>
      <trkpt lat="27.933605" lon="-15.519579">
        <ele>1408.60</ele>
        <time>2018-07-13T20:09:44Z</time>
      </trkpt>
      <trkpt lat="27.933596" lon="-15.519552">
        <ele>1408.40</ele>
        <time>2018-07-13T20:09:45Z</time>
      </trkpt>
      <trkpt lat="27.933592" lon="-15.519521">
        <ele>1408.20</ele>
        <time>2018-07-13T20:09:46Z</time>
      </trkpt>
      <trkpt lat="27.933589" lon="-15.519485">
        <ele>1407.60</ele>
        <time>2018-07-13T20:09:47Z</time>
      </trkpt>
      <trkpt lat="27.933559" lon="-15.519391">
        <ele>1407.60</ele>
        <time>2018-07-13T20:09:50Z</time>
      </trkpt>
      <trkpt lat="27.933549" lon="-15.519360">
        <ele>1406.80</ele>
        <time>2018-07-13T20:09:51Z</time>
      </trkpt>
      <trkpt lat="27.933546" lon="-15.519334">
        <ele>1406.00</ele>
        <time>2018-07-13T20:09:52Z</time>
      </trkpt>
      <trkpt lat="27.933543" lon="-15.519306">
        <ele>1406.20</ele>
        <time>2018-07-13T20:09:53Z</time>
      </trkpt>
      <trkpt lat="27.933543" lon="-15.519278">
        <ele>1406.00</ele>
        <time>2018-07-13T20:09:54Z</time>
      </trkpt>
      <trkpt lat="27.933547" lon="-15.519222">
        <ele>1405.20</ele>
        <time>2018-07-13T20:09:56Z</time>
      </trkpt>
      <trkpt lat="27.933532" lon="-15.519095">
        <ele>1405.20</ele>
        <time>2018-07-13T20:10:00Z</time>
      </trkpt>
      <trkpt lat="27.933492" lon="-15.519010">
        <ele>1404.20</ele>
        <time>2018-07-13T20:10:03Z</time>
      </trkpt>
      <trkpt lat="27.933487" lon="-15.518983">
        <ele>1405.60</ele>
        <time>2018-07-13T20:10:04Z</time>
      </trkpt>
      <trkpt lat="27.933479" lon="-15.518954">
        <ele>1404.80</ele>
        <time>2018-07-13T20:10:05Z</time>
      </trkpt>
      <trkpt lat="27.933474" lon="-15.518926">
        <ele>1404.80</ele>
        <time>2018-07-13T20:10:06Z</time>
      </trkpt>
      <trkpt lat="27.933464" lon="-15.518892">
        <ele>1404.60</ele>
        <time>2018-07-13T20:10:07Z</time>
      </trkpt>
      <trkpt lat="27.933439" lon="-15.518770">
        <ele>1404.60</ele>
        <time>2018-07-13T20:10:11Z</time>
      </trkpt>
      <trkpt lat="27.933414" lon="-15.518670">
        <ele>1403.60</ele>
        <time>2018-07-13T20:10:14Z</time>
      </trkpt>
      <trkpt lat="27.933392" lon="-15.518544">
        <ele>1402.40</ele>
        <time>2018-07-13T20:10:18Z</time>
      </trkpt>
      <trkpt lat="27.933366" lon="-15.518429">
        <ele>1401.40</ele>
        <time>2018-07-13T20:10:22Z</time>
      </trkpt>
      <trkpt lat="27.933335" lon="-15.518327">
        <ele>1402.40</ele>
        <time>2018-07-13T20:10:26Z</time>
      </trkpt>
      <trkpt lat="27.933333" lon="-15.518296">
        <ele>1401.80</ele>
        <time>2018-07-13T20:10:28Z</time>
      </trkpt>
      <trkpt lat="27.933327" lon="-15.518247">
        <ele>1401.40</ele>
        <time>2018-07-13T20:10:31Z</time>
      </trkpt>
      <trkpt lat="27.933328" lon="-15.518216">
        <ele>1401.60</ele>
        <time>2018-07-13T20:10:33Z</time>
      </trkpt>
      <trkpt lat="27.933336" lon="-15.518197">
        <ele>1401.60</ele>
        <time>2018-07-13T20:10:34Z</time>
      </trkpt>
      <trkpt lat="27.933340" lon="-15.518174">
        <ele>1401.40</ele>
        <time>2018-07-13T20:10:35Z</time>
      </trkpt>
      <trkpt lat="27.933343" lon="-15.518149">
        <ele>1401.60</ele>
        <time>2018-07-13T20:10:36Z</time>
      </trkpt>
      <trkpt lat="27.933346" lon="-15.518119">
        <ele>1401.40</ele>
        <time>2018-07-13T20:10:37Z</time>
      </trkpt>
      <trkpt lat="27.933349" lon="-15.518085">
        <ele>1401.60</ele>
        <time>2018-07-13T20:10:38Z</time>
      </trkpt>
      <trkpt lat="27.933350" lon="-15.518046">
        <ele>1401.20</ele>
        <time>2018-07-13T20:10:39Z</time>
      </trkpt>
      <trkpt lat="27.933347" lon="-15.518005">
        <ele>1401.20</ele>
        <time>2018-07-13T20:10:40Z</time>
      </trkpt>
      <trkpt lat="27.933341" lon="-15.517970">
        <ele>1401.00</ele>
        <time>2018-07-13T20:10:41Z</time>
      </trkpt>
      <trkpt lat="27.933326" lon="-15.517932">
        <ele>1400.60</ele>
        <time>2018-07-13T20:10:42Z</time>
      </trkpt>
      <trkpt lat="27.933309" lon="-15.517902">
        <ele>1400.00</ele>
        <time>2018-07-13T20:10:43Z</time>
      </trkpt>
      <trkpt lat="27.933285" lon="-15.517874">
        <ele>1399.60</ele>
        <time>2018-07-13T20:10:44Z</time>
      </trkpt>
      <trkpt lat="27.933257" lon="-15.517848">
        <ele>1399.60</ele>
        <time>2018-07-13T20:10:45Z</time>
      </trkpt>
      <trkpt lat="27.933231" lon="-15.517829">
        <ele>1399.00</ele>
        <time>2018-07-13T20:10:46Z</time>
      </trkpt>
      <trkpt lat="27.933207" lon="-15.517807">
        <ele>1399.00</ele>
        <time>2018-07-13T20:10:47Z</time>
      </trkpt>
      <trkpt lat="27.933182" lon="-15.517786">
        <ele>1397.00</ele>
        <time>2018-07-13T20:10:48Z</time>
      </trkpt>
      <trkpt lat="27.933158" lon="-15.517769">
        <ele>1397.40</ele>
        <time>2018-07-13T20:10:49Z</time>
      </trkpt>
      <trkpt lat="27.933129" lon="-15.517762">
        <ele>1397.20</ele>
        <time>2018-07-13T20:10:50Z</time>
      </trkpt>
      <trkpt lat="27.933106" lon="-15.517764">
        <ele>1397.20</ele>
        <time>2018-07-13T20:10:51Z</time>
      </trkpt>
      <trkpt lat="27.933085" lon="-15.517754">
        <ele>1397.20</ele>
        <time>2018-07-13T20:10:52Z</time>
      </trkpt>
      <trkpt lat="27.933068" lon="-15.517738">
        <ele>1397.00</ele>
        <time>2018-07-13T20:10:53Z</time>
      </trkpt>
      <trkpt lat="27.933060" lon="-15.517711">
        <ele>1397.00</ele>
        <time>2018-07-13T20:10:54Z</time>
      </trkpt>
      <trkpt lat="27.933053" lon="-15.517686">
        <ele>1397.00</ele>
        <time>2018-07-13T20:10:55Z</time>
      </trkpt>
      <trkpt lat="27.933046" lon="-15.517659">
        <ele>1397.00</ele>
        <time>2018-07-13T20:10:56Z</time>
      </trkpt>
      <trkpt lat="27.933039" lon="-15.517632">
        <ele>1396.20</ele>
        <time>2018-07-13T20:10:57Z</time>
      </trkpt>
      <trkpt lat="27.933031" lon="-15.517606">
        <ele>1396.20</ele>
        <time>2018-07-13T20:10:58Z</time>
      </trkpt>
      <trkpt lat="27.933016" lon="-15.517586">
        <ele>1396.20</ele>
        <time>2018-07-13T20:10:59Z</time>
      </trkpt>
      <trkpt lat="27.933000" lon="-15.517569">
        <ele>1396.20</ele>
        <time>2018-07-13T20:11:00Z</time>
      </trkpt>
      <trkpt lat="27.932983" lon="-15.517551">
        <ele>1396.00</ele>
        <time>2018-07-13T20:11:02Z</time>
      </trkpt>
      <trkpt lat="27.932984" lon="-15.517527">
        <ele>1396.00</ele>
        <time>2018-07-13T20:11:04Z</time>
      </trkpt>
      <trkpt lat="27.932991" lon="-15.517502">
        <ele>1394.20</ele>
        <time>2018-07-13T20:11:07Z</time>
      </trkpt>
      <trkpt lat="27.933004" lon="-15.517484">
        <ele>1393.00</ele>
        <time>2018-07-13T20:11:09Z</time>
      </trkpt>
      <trkpt lat="27.933019" lon="-15.517467">
        <ele>1392.40</ele>
        <time>2018-07-13T20:11:11Z</time>
      </trkpt>
      <trkpt lat="27.933037" lon="-15.517439">
        <ele>1391.00</ele>
        <time>2018-07-13T20:11:13Z</time>
      </trkpt>
      <trkpt lat="27.933055" lon="-15.517432">
        <ele>1390.80</ele>
        <time>2018-07-13T20:11:14Z</time>
      </trkpt>
      <trkpt lat="27.933092" lon="-15.517426">
        <ele>1390.40</ele>
        <time>2018-07-13T20:11:16Z</time>
      </trkpt>
      <trkpt lat="27.933110" lon="-15.517416">
        <ele>1390.00</ele>
        <time>2018-07-13T20:11:17Z</time>
      </trkpt>
      <trkpt lat="27.933115" lon="-15.517378">
        <ele>1389.80</ele>
        <time>2018-07-13T20:11:19Z</time>
      </trkpt>
      <trkpt lat="27.933103" lon="-15.517357">
        <ele>1388.80</ele>
        <time>2018-07-13T20:11:20Z</time>
      </trkpt>
      <trkpt lat="27.933087" lon="-15.517336">
        <ele>1388.00</ele>
        <time>2018-07-13T20:11:21Z</time>
      </trkpt>
      <trkpt lat="27.933073" lon="-15.517311">
        <ele>1387.60</ele>
        <time>2018-07-13T20:11:22Z</time>
      </trkpt>
      <trkpt lat="27.933063" lon="-15.517288">
        <ele>1387.20</ele>
        <time>2018-07-13T20:11:23Z</time>
      </trkpt>
      <trkpt lat="27.933053" lon="-15.517259">
        <ele>1387.00</ele>
        <time>2018-07-13T20:11:24Z</time>
      </trkpt>
      <trkpt lat="27.933051" lon="-15.517234">
        <ele>1386.60</ele>
        <time>2018-07-13T20:11:25Z</time>
      </trkpt>
      <trkpt lat="27.933055" lon="-15.517210">
        <ele>1386.40</ele>
        <time>2018-07-13T20:11:26Z</time>
      </trkpt>
      <trkpt lat="27.933050" lon="-15.517188">
        <ele>1385.40</ele>
        <time>2018-07-13T20:11:27Z</time>
      </trkpt>
      <trkpt lat="27.933043" lon="-15.517155">
        <ele>1384.20</ele>
        <time>2018-07-13T20:11:29Z</time>
      </trkpt>
      <trkpt lat="27.933058" lon="-15.517119">
        <ele>1383.40</ele>
        <time>2018-07-13T20:11:31Z</time>
      </trkpt>
      <trkpt lat="27.933072" lon="-15.517092">
        <ele>1382.60</ele>
        <time>2018-07-13T20:11:32Z</time>
      </trkpt>
      <trkpt lat="27.933082" lon="-15.517068">
        <ele>1381.40</ele>
        <time>2018-07-13T20:11:33Z</time>
      </trkpt>
      <trkpt lat="27.933092" lon="-15.517045">
        <ele>1380.80</ele>
        <time>2018-07-13T20:11:34Z</time>
      </trkpt>
      <trkpt lat="27.933100" lon="-15.517027">
        <ele>1380.60</ele>
        <time>2018-07-13T20:11:35Z</time>
      </trkpt>
      <trkpt lat="27.933098" lon="-15.516992">
        <ele>1380.00</ele>
        <time>2018-07-13T20:11:37Z</time>
      </trkpt>
      <trkpt lat="27.933087" lon="-15.516962">
        <ele>1376.80</ele>
        <time>2018-07-13T20:11:39Z</time>
      </trkpt>
      <trkpt lat="27.933092" lon="-15.516939">
        <ele>1375.40</ele>
        <time>2018-07-13T20:11:42Z</time>
      </trkpt>
      <trkpt lat="27.933086" lon="-15.516918">
        <ele>1375.40</ele>
        <time>2018-07-13T20:11:44Z</time>
      </trkpt>
      <trkpt lat="27.933103" lon="-15.516907">
        <ele>1376.00</ele>
        <time>2018-07-13T20:11:54Z</time>
      </trkpt>
      <trkpt lat="27.933084" lon="-15.516902">
        <ele>1375.40</ele>
        <time>2018-07-13T20:12:03Z</time>
      </trkpt>
      <trkpt lat="27.933081" lon="-15.516925">
        <ele>1375.40</ele>
        <time>2018-07-13T20:12:07Z</time>
      </trkpt>
      <trkpt lat="27.933103" lon="-15.516937">
        <ele>1375.20</ele>
        <time>2018-07-13T20:12:12Z</time>
      </trkpt>
      <trkpt lat="27.933123" lon="-15.516943">
        <ele>1374.80</ele>
        <time>2018-07-13T20:12:15Z</time>
      </trkpt>
      <trkpt lat="27.933139" lon="-15.516955">
        <ele>1374.20</ele>
        <time>2018-07-13T20:12:21Z</time>
      </trkpt>
      <trkpt lat="27.933154" lon="-15.516970">
        <ele>1374.00</ele>
        <time>2018-07-13T20:12:24Z</time>
      </trkpt>
      <trkpt lat="27.933171" lon="-15.516982">
        <ele>1374.20</ele>
        <time>2018-07-13T20:12:27Z</time>
      </trkpt>
      <trkpt lat="27.933197" lon="-15.516994">
        <ele>1374.20</ele>
        <time>2018-07-13T20:12:30Z</time>
      </trkpt>
      <trkpt lat="27.933213" lon="-15.517006">
        <ele>1373.80</ele>
        <time>2018-07-13T20:12:32Z</time>
      </trkpt>
      <trkpt lat="27.933229" lon="-15.517022">
        <ele>1373.20</ele>
        <time>2018-07-13T20:12:34Z</time>
      </trkpt>
      <trkpt lat="27.933248" lon="-15.517028">
        <ele>1373.00</ele>
        <time>2018-07-13T20:12:36Z</time>
      </trkpt>
      <trkpt lat="27.933271" lon="-15.517040">
        <ele>1371.20</ele>
        <time>2018-07-13T20:12:39Z</time>
      </trkpt>
      <trkpt lat="27.933296" lon="-15.517072">
        <ele>1371.20</ele>
        <time>2018-07-13T20:12:41Z</time>
      </trkpt>
      <trkpt lat="27.933323" lon="-15.517093">
        <ele>1370.80</ele>
        <time>2018-07-13T20:12:43Z</time>
      </trkpt>
      <trkpt lat="27.933340" lon="-15.517110">
        <ele>1370.80</ele>
        <time>2018-07-13T20:12:45Z</time>
      </trkpt>
      <trkpt lat="27.933347" lon="-15.517130">
        <ele>1371.80</ele>
        <time>2018-07-13T20:12:47Z</time>
      </trkpt>
      <trkpt lat="27.933365" lon="-15.517148">
        <ele>1371.80</ele>
        <time>2018-07-13T20:12:49Z</time>
      </trkpt>
      <trkpt lat="27.933388" lon="-15.517164">
        <ele>1370.80</ele>
        <time>2018-07-13T20:12:51Z</time>
      </trkpt>
      <trkpt lat="27.933408" lon="-15.517185">
        <ele>1370.60</ele>
        <time>2018-07-13T20:12:53Z</time>
      </trkpt>
      <trkpt lat="27.933440" lon="-15.517211">
        <ele>1370.80</ele>
        <time>2018-07-13T20:12:55Z</time>
      </trkpt>
      <trkpt lat="27.933459" lon="-15.517224">
        <ele>1370.80</ele>
        <time>2018-07-13T20:12:56Z</time>
      </trkpt>
      <trkpt lat="27.933478" lon="-15.517241">
        <ele>1370.80</ele>
        <time>2018-07-13T20:12:57Z</time>
      </trkpt>
      <trkpt lat="27.933497" lon="-15.517257">
        <ele>1371.00</ele>
        <time>2018-07-13T20:12:58Z</time>
      </trkpt>
      <trkpt lat="27.933516" lon="-15.517279">
        <ele>1371.00</ele>
        <time>2018-07-13T20:12:59Z</time>
      </trkpt>
      <trkpt lat="27.933538" lon="-15.517292">
        <ele>1371.00</ele>
        <time>2018-07-13T20:13:00Z</time>
      </trkpt>
      <trkpt lat="27.933560" lon="-15.517309">
        <ele>1371.00</ele>
        <time>2018-07-13T20:13:01Z</time>
      </trkpt>
      <trkpt lat="27.933580" lon="-15.517326">
        <ele>1370.60</ele>
        <time>2018-07-13T20:13:02Z</time>
      </trkpt>
      <trkpt lat="27.933600" lon="-15.517340">
        <ele>1370.60</ele>
        <time>2018-07-13T20:13:03Z</time>
      </trkpt>
      <trkpt lat="27.933620" lon="-15.517360">
        <ele>1370.00</ele>
        <time>2018-07-13T20:13:04Z</time>
      </trkpt>
      <trkpt lat="27.933638" lon="-15.517380">
        <ele>1369.80</ele>
        <time>2018-07-13T20:13:05Z</time>
      </trkpt>
      <trkpt lat="27.933661" lon="-15.517398">
        <ele>1369.40</ele>
        <time>2018-07-13T20:13:06Z</time>
      </trkpt>
      <trkpt lat="27.933680" lon="-15.517415">
        <ele>1369.40</ele>
        <time>2018-07-13T20:13:07Z</time>
      </trkpt>
      <trkpt lat="27.933701" lon="-15.517434">
        <ele>1369.40</ele>
        <time>2018-07-13T20:13:08Z</time>
      </trkpt>
      <trkpt lat="27.933721" lon="-15.517452">
        <ele>1369.20</ele>
        <time>2018-07-13T20:13:09Z</time>
      </trkpt>
      <trkpt lat="27.933741" lon="-15.517468">
        <ele>1369.20</ele>
        <time>2018-07-13T20:13:10Z</time>
      </trkpt>
      <trkpt lat="27.933755" lon="-15.517488">
        <ele>1369.00</ele>
        <time>2018-07-13T20:13:11Z</time>
      </trkpt>
      <trkpt lat="27.933770" lon="-15.517508">
        <ele>1368.80</ele>
        <time>2018-07-13T20:13:12Z</time>
      </trkpt>
      <trkpt lat="27.933787" lon="-15.517529">
        <ele>1368.80</ele>
        <time>2018-07-13T20:13:13Z</time>
      </trkpt>
      <trkpt lat="27.933800" lon="-15.517550">
        <ele>1368.80</ele>
        <time>2018-07-13T20:13:14Z</time>
      </trkpt>
      <trkpt lat="27.933816" lon="-15.517573">
        <ele>1368.80</ele>
        <time>2018-07-13T20:13:15Z</time>
      </trkpt>
      <trkpt lat="27.933833" lon="-15.517600">
        <ele>1369.40</ele>
        <time>2018-07-13T20:13:16Z</time>
      </trkpt>
      <trkpt lat="27.933844" lon="-15.517631">
        <ele>1368.20</ele>
        <time>2018-07-13T20:13:17Z</time>
      </trkpt>
      <trkpt lat="27.933856" lon="-15.517660">
        <ele>1369.40</ele>
        <time>2018-07-13T20:13:18Z</time>
      </trkpt>
      <trkpt lat="27.933870" lon="-15.517684">
        <ele>1367.60</ele>
        <time>2018-07-13T20:13:19Z</time>
      </trkpt>
      <trkpt lat="27.933884" lon="-15.517705">
        <ele>1368.00</ele>
        <time>2018-07-13T20:13:20Z</time>
      </trkpt>
      <trkpt lat="27.933939" lon="-15.517826">
        <ele>1366.60</ele>
        <time>2018-07-13T20:13:24Z</time>
      </trkpt>
      <trkpt lat="27.933978" lon="-15.517919">
        <ele>1365.80</ele>
        <time>2018-07-13T20:13:28Z</time>
      </trkpt>
      <trkpt lat="27.934031" lon="-15.518035">
        <ele>1365.80</ele>
        <time>2018-07-13T20:13:32Z</time>
      </trkpt>
      <trkpt lat="27.934088" lon="-15.518150">
        <ele>1364.40</ele>
        <time>2018-07-13T20:13:36Z</time>
      </trkpt>
      <trkpt lat="27.934133" lon="-15.518246">
        <ele>1363.40</ele>
        <time>2018-07-13T20:13:40Z</time>
      </trkpt>
      <trkpt lat="27.934198" lon="-15.518340">
        <ele>1362.60</ele>
        <time>2018-07-13T20:13:44Z</time>
      </trkpt>
      <trkpt lat="27.934258" lon="-15.518425">
        <ele>1362.20</ele>
        <time>2018-07-13T20:13:48Z</time>
      </trkpt>
      <trkpt lat="27.934333" lon="-15.518524">
        <ele>1361.20</ele>
        <time>2018-07-13T20:13:52Z</time>
      </trkpt>
      <trkpt lat="27.934389" lon="-15.518622">
        <ele>1360.40</ele>
        <time>2018-07-13T20:13:56Z</time>
      </trkpt>
      <trkpt lat="27.934460" lon="-15.518724">
        <ele>1359.20</ele>
        <time>2018-07-13T20:14:00Z</time>
      </trkpt>
      <trkpt lat="27.934506" lon="-15.518838">
        <ele>1357.60</ele>
        <time>2018-07-13T20:14:04Z</time>
      </trkpt>
      <trkpt lat="27.934559" lon="-15.518950">
        <ele>1357.00</ele>
        <time>2018-07-13T20:14:08Z</time>
      </trkpt>
      <trkpt lat="27.934616" lon="-15.519046">
        <ele>1357.00</ele>
        <time>2018-07-13T20:14:12Z</time>
      </trkpt>
      <trkpt lat="27.934655" lon="-15.519080">
        <ele>1357.00</ele>
        <time>2018-07-13T20:14:14Z</time>
      </trkpt>
      <trkpt lat="27.934680" lon="-15.519077">
        <ele>1356.40</ele>
        <time>2018-07-13T20:14:15Z</time>
      </trkpt>
      <trkpt lat="27.934713" lon="-15.519058">
        <ele>1355.80</ele>
        <time>2018-07-13T20:14:17Z</time>
      </trkpt>
      <trkpt lat="27.934738" lon="-15.519040">
        <ele>1355.80</ele>
        <time>2018-07-13T20:14:19Z</time>
      </trkpt>
      <trkpt lat="27.934752" lon="-15.519021">
        <ele>1355.80</ele>
        <time>2018-07-13T20:14:21Z</time>
      </trkpt>
      <trkpt lat="27.934773" lon="-15.518994">
        <ele>1355.80</ele>
        <time>2018-07-13T20:14:23Z</time>
      </trkpt>
      <trkpt lat="27.934788" lon="-15.518964">
        <ele>1356.00</ele>
        <time>2018-07-13T20:14:25Z</time>
      </trkpt>
      <trkpt lat="27.934793" lon="-15.518942">
        <ele>1356.20</ele>
        <time>2018-07-13T20:14:28Z</time>
      </trkpt>
      <trkpt lat="27.934806" lon="-15.518920">
        <ele>1356.60</ele>
        <time>2018-07-13T20:14:30Z</time>
      </trkpt>
      <trkpt lat="27.934822" lon="-15.518899">
        <ele>1356.60</ele>
        <time>2018-07-13T20:14:32Z</time>
      </trkpt>
      <trkpt lat="27.934842" lon="-15.518885">
        <ele>1356.60</ele>
        <time>2018-07-13T20:14:34Z</time>
      </trkpt>
      <trkpt lat="27.934864" lon="-15.518875">
        <ele>1356.80</ele>
        <time>2018-07-13T20:14:36Z</time>
      </trkpt>
      <trkpt lat="27.934884" lon="-15.518863">
        <ele>1357.00</ele>
        <time>2018-07-13T20:14:38Z</time>
      </trkpt>
      <trkpt lat="27.934906" lon="-15.518849">
        <ele>1357.40</ele>
        <time>2018-07-13T20:14:40Z</time>
      </trkpt>
      <trkpt lat="27.934929" lon="-15.518841">
        <ele>1358.20</ele>
        <time>2018-07-13T20:14:42Z</time>
      </trkpt>
      <trkpt lat="27.934947" lon="-15.518831">
        <ele>1358.20</ele>
        <time>2018-07-13T20:14:44Z</time>
      </trkpt>
      <trkpt lat="27.934975" lon="-15.518822">
        <ele>1358.20</ele>
        <time>2018-07-13T20:14:46Z</time>
      </trkpt>
      <trkpt lat="27.934997" lon="-15.518809">
        <ele>1358.40</ele>
        <time>2018-07-13T20:14:48Z</time>
      </trkpt>
      <trkpt lat="27.935021" lon="-15.518804">
        <ele>1358.40</ele>
        <time>2018-07-13T20:14:50Z</time>
      </trkpt>
      <trkpt lat="27.935047" lon="-15.518800">
        <ele>1358.60</ele>
        <time>2018-07-13T20:14:52Z</time>
      </trkpt>
      <trkpt lat="27.935074" lon="-15.518790">
        <ele>1359.20</ele>
        <time>2018-07-13T20:14:54Z</time>
      </trkpt>
      <trkpt lat="27.935097" lon="-15.518785">
        <ele>1359.80</ele>
        <time>2018-07-13T20:14:56Z</time>
      </trkpt>
      <trkpt lat="27.935127" lon="-15.518777">
        <ele>1360.20</ele>
        <time>2018-07-13T20:14:58Z</time>
      </trkpt>
      <trkpt lat="27.935152" lon="-15.518773">
        <ele>1360.40</ele>
        <time>2018-07-13T20:15:00Z</time>
      </trkpt>
      <trkpt lat="27.935176" lon="-15.518762">
        <ele>1360.60</ele>
        <time>2018-07-13T20:15:02Z</time>
      </trkpt>
      <trkpt lat="27.935201" lon="-15.518761">
        <ele>1361.20</ele>
        <time>2018-07-13T20:15:04Z</time>
      </trkpt>
      <trkpt lat="27.935227" lon="-15.518767">
        <ele>1361.40</ele>
        <time>2018-07-13T20:15:06Z</time>
      </trkpt>
      <trkpt lat="27.935246" lon="-15.518774">
        <ele>1361.20</ele>
        <time>2018-07-13T20:15:07Z</time>
      </trkpt>
      <trkpt lat="27.935268" lon="-15.518781">
        <ele>1361.40</ele>
        <time>2018-07-13T20:15:08Z</time>
      </trkpt>
      <trkpt lat="27.935295" lon="-15.518791">
        <ele>1361.60</ele>
        <time>2018-07-13T20:15:09Z</time>
      </trkpt>
      <trkpt lat="27.935322" lon="-15.518804">
        <ele>1361.60</ele>
        <time>2018-07-13T20:15:10Z</time>
      </trkpt>
      <trkpt lat="27.935348" lon="-15.518817">
        <ele>1361.60</ele>
        <time>2018-07-13T20:15:11Z</time>
      </trkpt>
      <trkpt lat="27.935377" lon="-15.518833">
        <ele>1362.00</ele>
        <time>2018-07-13T20:15:12Z</time>
      </trkpt>
      <trkpt lat="27.935403" lon="-15.518854">
        <ele>1362.00</ele>
        <time>2018-07-13T20:15:13Z</time>
      </trkpt>
      <trkpt lat="27.935429" lon="-15.518877">
        <ele>1362.00</ele>
        <time>2018-07-13T20:15:14Z</time>
      </trkpt>
      <trkpt lat="27.935454" lon="-15.518897">
        <ele>1362.00</ele>
        <time>2018-07-13T20:15:15Z</time>
      </trkpt>
      <trkpt lat="27.935480" lon="-15.518911">
        <ele>1362.20</ele>
        <time>2018-07-13T20:15:16Z</time>
      </trkpt>
      <trkpt lat="27.935508" lon="-15.518926">
        <ele>1361.40</ele>
        <time>2018-07-13T20:15:17Z</time>
      </trkpt>
      <trkpt lat="27.935530" lon="-15.518942">
        <ele>1361.60</ele>
        <time>2018-07-13T20:15:18Z</time>
      </trkpt>
      <trkpt lat="27.935556" lon="-15.518963">
        <ele>1360.80</ele>
        <time>2018-07-13T20:15:19Z</time>
      </trkpt>
      <trkpt lat="27.935578" lon="-15.518985">
        <ele>1360.80</ele>
        <time>2018-07-13T20:15:20Z</time>
      </trkpt>
      <trkpt lat="27.935598" lon="-15.519013">
        <ele>1360.80</ele>
        <time>2018-07-13T20:15:21Z</time>
      </trkpt>
      <trkpt lat="27.935613" lon="-15.519037">
        <ele>1360.80</ele>
        <time>2018-07-13T20:15:22Z</time>
      </trkpt>
      <trkpt lat="27.935628" lon="-15.519063">
        <ele>1360.80</ele>
        <time>2018-07-13T20:15:23Z</time>
      </trkpt>
      <trkpt lat="27.935646" lon="-15.519091">
        <ele>1360.80</ele>
        <time>2018-07-13T20:15:24Z</time>
      </trkpt>
      <trkpt lat="27.935662" lon="-15.519116">
        <ele>1360.60</ele>
        <time>2018-07-13T20:15:25Z</time>
      </trkpt>
      <trkpt lat="27.935675" lon="-15.519137">
        <ele>1360.60</ele>
        <time>2018-07-13T20:15:26Z</time>
      </trkpt>
      <trkpt lat="27.935689" lon="-15.519157">
        <ele>1360.80</ele>
        <time>2018-07-13T20:15:27Z</time>
      </trkpt>
      <trkpt lat="27.935698" lon="-15.519176">
        <ele>1360.60</ele>
        <time>2018-07-13T20:15:28Z</time>
      </trkpt>
      <trkpt lat="27.935714" lon="-15.519196">
        <ele>1361.60</ele>
        <time>2018-07-13T20:15:29Z</time>
      </trkpt>
      <trkpt lat="27.935729" lon="-15.519216">
        <ele>1360.40</ele>
        <time>2018-07-13T20:15:30Z</time>
      </trkpt>
      <trkpt lat="27.935740" lon="-15.519235">
        <ele>1360.60</ele>
        <time>2018-07-13T20:15:31Z</time>
      </trkpt>
      <trkpt lat="27.935764" lon="-15.519267">
        <ele>1360.60</ele>
        <time>2018-07-13T20:15:33Z</time>
      </trkpt>
      <trkpt lat="27.935778" lon="-15.519289">
        <ele>1360.60</ele>
        <time>2018-07-13T20:15:34Z</time>
      </trkpt>
      <trkpt lat="27.935795" lon="-15.519310">
        <ele>1361.40</ele>
        <time>2018-07-13T20:15:35Z</time>
      </trkpt>
      <trkpt lat="27.935807" lon="-15.519329">
        <ele>1361.40</ele>
        <time>2018-07-13T20:15:36Z</time>
      </trkpt>
      <trkpt lat="27.935822" lon="-15.519353">
        <ele>1361.40</ele>
        <time>2018-07-13T20:15:37Z</time>
      </trkpt>
      <trkpt lat="27.935838" lon="-15.519375">
        <ele>1361.40</ele>
        <time>2018-07-13T20:15:38Z</time>
      </trkpt>
      <trkpt lat="27.935857" lon="-15.519396">
        <ele>1361.60</ele>
        <time>2018-07-13T20:15:39Z</time>
      </trkpt>
      <trkpt lat="27.935873" lon="-15.519414">
        <ele>1361.80</ele>
        <time>2018-07-13T20:15:40Z</time>
      </trkpt>
      <trkpt lat="27.935891" lon="-15.519440">
        <ele>1361.60</ele>
        <time>2018-07-13T20:15:41Z</time>
      </trkpt>
      <trkpt lat="27.935906" lon="-15.519476">
        <ele>1362.00</ele>
        <time>2018-07-13T20:15:43Z</time>
      </trkpt>
      <trkpt lat="27.935918" lon="-15.519494">
        <ele>1362.20</ele>
        <time>2018-07-13T20:15:44Z</time>
      </trkpt>
      <trkpt lat="27.935932" lon="-15.519514">
        <ele>1362.00</ele>
        <time>2018-07-13T20:15:45Z</time>
      </trkpt>
      <trkpt lat="27.935946" lon="-15.519539">
        <ele>1362.00</ele>
        <time>2018-07-13T20:15:46Z</time>
      </trkpt>
      <trkpt lat="27.935961" lon="-15.519569">
        <ele>1362.00</ele>
        <time>2018-07-13T20:15:47Z</time>
      </trkpt>
      <trkpt lat="27.935995" lon="-15.519679">
        <ele>1361.80</ele>
        <time>2018-07-13T20:15:51Z</time>
      </trkpt>
      <trkpt lat="27.936040" lon="-15.519773">
        <ele>1361.00</ele>
        <time>2018-07-13T20:15:55Z</time>
      </trkpt>
      <trkpt lat="27.936106" lon="-15.519871">
        <ele>1360.60</ele>
        <time>2018-07-13T20:16:00Z</time>
      </trkpt>
      <trkpt lat="27.936185" lon="-15.519956">
        <ele>1361.40</ele>
        <time>2018-07-13T20:16:05Z</time>
      </trkpt>
      <trkpt lat="27.936234" lon="-15.520044">
        <ele>1361.80</ele>
        <time>2018-07-13T20:16:09Z</time>
      </trkpt>
      <trkpt lat="27.936294" lon="-15.520120">
        <ele>1362.60</ele>
        <time>2018-07-13T20:16:13Z</time>
      </trkpt>
      <trkpt lat="27.936324" lon="-15.520158">
        <ele>1362.60</ele>
        <time>2018-07-13T20:16:15Z</time>
      </trkpt>
      <trkpt lat="27.936337" lon="-15.520179">
        <ele>1362.60</ele>
        <time>2018-07-13T20:16:16Z</time>
      </trkpt>
      <trkpt lat="27.936352" lon="-15.520200">
        <ele>1362.60</ele>
        <time>2018-07-13T20:16:17Z</time>
      </trkpt>
      <trkpt lat="27.936357" lon="-15.520220">
        <ele>1362.60</ele>
        <time>2018-07-13T20:16:18Z</time>
      </trkpt>
      <trkpt lat="27.936368" lon="-15.520252">
        <ele>1363.00</ele>
        <time>2018-07-13T20:16:20Z</time>
      </trkpt>
      <trkpt lat="27.936378" lon="-15.520271">
        <ele>1363.00</ele>
        <time>2018-07-13T20:16:21Z</time>
      </trkpt>
      <trkpt lat="27.936389" lon="-15.520291">
        <ele>1363.00</ele>
        <time>2018-07-13T20:16:22Z</time>
      </trkpt>
      <trkpt lat="27.936403" lon="-15.520309">
        <ele>1363.00</ele>
        <time>2018-07-13T20:16:23Z</time>
      </trkpt>
      <trkpt lat="27.936467" lon="-15.520399">
        <ele>1362.00</ele>
        <time>2018-07-13T20:16:27Z</time>
      </trkpt>
      <trkpt lat="27.936537" lon="-15.520495">
        <ele>1361.40</ele>
        <time>2018-07-13T20:16:31Z</time>
      </trkpt>
      <trkpt lat="27.936585" lon="-15.520601">
        <ele>1361.80</ele>
        <time>2018-07-13T20:16:36Z</time>
      </trkpt>
      <trkpt lat="27.936619" lon="-15.520705">
        <ele>1361.80</ele>
        <time>2018-07-13T20:16:42Z</time>
      </trkpt>
      <trkpt lat="27.936650" lon="-15.520809">
        <ele>1362.20</ele>
        <time>2018-07-13T20:16:48Z</time>
      </trkpt>
      <trkpt lat="27.936648" lon="-15.520911">
        <ele>1362.00</ele>
        <time>2018-07-13T20:16:52Z</time>
      </trkpt>
      <trkpt lat="27.936629" lon="-15.521036">
        <ele>1362.60</ele>
        <time>2018-07-13T20:16:57Z</time>
      </trkpt>
      <trkpt lat="27.936608" lon="-15.521142">
        <ele>1361.80</ele>
        <time>2018-07-13T20:17:01Z</time>
      </trkpt>
      <trkpt lat="27.936589" lon="-15.521245">
        <ele>1362.00</ele>
        <time>2018-07-13T20:17:05Z</time>
      </trkpt>
      <trkpt lat="27.936622" lon="-15.521371">
        <ele>1362.60</ele>
        <time>2018-07-13T20:17:10Z</time>
      </trkpt>
      <trkpt lat="27.936679" lon="-15.521458">
        <ele>1362.40</ele>
        <time>2018-07-13T20:17:14Z</time>
      </trkpt>
      <trkpt lat="27.936725" lon="-15.521556">
        <ele>1363.40</ele>
        <time>2018-07-13T20:17:18Z</time>
      </trkpt>
      <trkpt lat="27.936781" lon="-15.521638">
        <ele>1362.00</ele>
        <time>2018-07-13T20:17:23Z</time>
      </trkpt>
      <trkpt lat="27.936835" lon="-15.521733">
        <ele>1360.80</ele>
        <time>2018-07-13T20:17:29Z</time>
      </trkpt>
      <trkpt lat="27.936833" lon="-15.521857">
        <ele>1359.00</ele>
        <time>2018-07-13T20:17:35Z</time>
      </trkpt>
      <trkpt lat="27.936811" lon="-15.521957">
        <ele>1358.00</ele>
        <time>2018-07-13T20:17:39Z</time>
      </trkpt>
      <trkpt lat="27.936900" lon="-15.522011">
        <ele>1354.60</ele>
        <time>2018-07-13T20:17:49Z</time>
      </trkpt>
      <trkpt lat="27.936928" lon="-15.521997">
        <ele>1354.20</ele>
        <time>2018-07-13T20:17:51Z</time>
      </trkpt>
      <trkpt lat="27.936967" lon="-15.521975">
        <ele>1354.00</ele>
        <time>2018-07-13T20:17:54Z</time>
      </trkpt>
      <trkpt lat="27.937035" lon="-15.521897">
        <ele>1351.60</ele>
        <time>2018-07-13T20:18:02Z</time>
      </trkpt>
      <trkpt lat="27.937061" lon="-15.521863">
        <ele>1350.60</ele>
        <time>2018-07-13T20:18:04Z</time>
      </trkpt>
      <trkpt lat="27.937083" lon="-15.521829">
        <ele>1350.00</ele>
        <time>2018-07-13T20:18:06Z</time>
      </trkpt>
      <trkpt lat="27.937100" lon="-15.521798">
        <ele>1350.00</ele>
        <time>2018-07-13T20:18:08Z</time>
      </trkpt>
      <trkpt lat="27.937114" lon="-15.521775">
        <ele>1349.00</ele>
        <time>2018-07-13T20:18:10Z</time>
      </trkpt>
      <trkpt lat="27.937130" lon="-15.521750">
        <ele>1348.40</ele>
        <time>2018-07-13T20:18:12Z</time>
      </trkpt>
      <trkpt lat="27.937154" lon="-15.521725">
        <ele>1347.80</ele>
        <time>2018-07-13T20:18:14Z</time>
      </trkpt>
      <trkpt lat="27.937166" lon="-15.521706">
        <ele>1347.60</ele>
        <time>2018-07-13T20:18:15Z</time>
      </trkpt>
      <trkpt lat="27.937180" lon="-15.521673">
        <ele>1347.40</ele>
        <time>2018-07-13T20:18:17Z</time>
      </trkpt>
      <trkpt lat="27.937187" lon="-15.521651">
        <ele>1347.00</ele>
        <time>2018-07-13T20:18:18Z</time>
      </trkpt>
      <trkpt lat="27.937192" lon="-15.521627">
        <ele>1346.80</ele>
        <time>2018-07-13T20:18:19Z</time>
      </trkpt>
      <trkpt lat="27.937194" lon="-15.521591">
        <ele>1346.40</ele>
        <time>2018-07-13T20:18:21Z</time>
      </trkpt>
      <trkpt lat="27.937194" lon="-15.521565">
        <ele>1345.00</ele>
        <time>2018-07-13T20:18:23Z</time>
      </trkpt>
      <trkpt lat="27.937193" lon="-15.521536">
        <ele>1344.80</ele>
        <time>2018-07-13T20:18:25Z</time>
      </trkpt>
      <trkpt lat="27.937178" lon="-15.521516">
        <ele>1344.60</ele>
        <time>2018-07-13T20:18:26Z</time>
      </trkpt>
      <trkpt lat="27.937164" lon="-15.521489">
        <ele>1344.00</ele>
        <time>2018-07-13T20:18:28Z</time>
      </trkpt>
      <trkpt lat="27.937170" lon="-15.521514">
        <ele>1342.20</ele>
        <time>2018-07-13T20:18:34Z</time>
      </trkpt>
      <trkpt lat="27.937182" lon="-15.521491">
        <ele>1340.40</ele>
        <time>2018-07-13T20:18:37Z</time>
      </trkpt>
      <trkpt lat="27.937194" lon="-15.521456">
        <ele>1340.00</ele>
        <time>2018-07-13T20:18:41Z</time>
      </trkpt>
      <trkpt lat="27.937179" lon="-15.521410">
        <ele>1341.00</ele>
        <time>2018-07-13T20:18:44Z</time>
      </trkpt>
      <trkpt lat="27.937175" lon="-15.521389">
        <ele>1341.00</ele>
        <time>2018-07-13T20:18:46Z</time>
      </trkpt>
      <trkpt lat="27.937175" lon="-15.521365">
        <ele>1342.00</ele>
        <time>2018-07-13T20:18:49Z</time>
      </trkpt>
      <trkpt lat="27.937168" lon="-15.521345">
        <ele>1342.00</ele>
        <time>2018-07-13T20:18:52Z</time>
      </trkpt>
      <trkpt lat="27.937164" lon="-15.521320">
        <ele>1342.40</ele>
        <time>2018-07-13T20:18:54Z</time>
      </trkpt>
      <trkpt lat="27.937154" lon="-15.521300">
        <ele>1343.20</ele>
        <time>2018-07-13T20:18:56Z</time>
      </trkpt>
      <trkpt lat="27.937149" lon="-15.521270">
        <ele>1343.80</ele>
        <time>2018-07-13T20:18:58Z</time>
      </trkpt>
      <trkpt lat="27.937151" lon="-15.521246">
        <ele>1344.00</ele>
        <time>2018-07-13T20:19:00Z</time>
      </trkpt>
      <trkpt lat="27.937148" lon="-15.521219">
        <ele>1344.20</ele>
        <time>2018-07-13T20:19:02Z</time>
      </trkpt>
      <trkpt lat="27.937142" lon="-15.521198">
        <ele>1344.20</ele>
        <time>2018-07-13T20:19:04Z</time>
      </trkpt>
      <trkpt lat="27.937133" lon="-15.521172">
        <ele>1343.80</ele>
        <time>2018-07-13T20:19:07Z</time>
      </trkpt>
      <trkpt lat="27.937128" lon="-15.521142">
        <ele>1343.00</ele>
        <time>2018-07-13T20:19:10Z</time>
      </trkpt>
      <trkpt lat="27.937129" lon="-15.521118">
        <ele>1341.60</ele>
        <time>2018-07-13T20:19:14Z</time>
      </trkpt>
      <trkpt lat="27.937136" lon="-15.521095">
        <ele>1341.20</ele>
        <time>2018-07-13T20:19:19Z</time>
      </trkpt>
      <trkpt lat="27.937149" lon="-15.521075">
        <ele>1340.60</ele>
        <time>2018-07-13T20:19:29Z</time>
      </trkpt>
      <trkpt lat="27.937160" lon="-15.521054">
        <ele>1340.40</ele>
        <time>2018-07-13T20:19:41Z</time>
      </trkpt>
      <trkpt lat="27.937168" lon="-15.521035">
        <ele>1340.40</ele>
        <time>2018-07-13T20:19:43Z</time>
      </trkpt>
      <trkpt lat="27.937179" lon="-15.521014">
        <ele>1339.80</ele>
        <time>2018-07-13T20:19:46Z</time>
      </trkpt>
      <trkpt lat="27.937194" lon="-15.520993">
        <ele>1339.20</ele>
        <time>2018-07-13T20:19:49Z</time>
      </trkpt>
      <trkpt lat="27.937200" lon="-15.520972">
        <ele>1338.40</ele>
        <time>2018-07-13T20:19:53Z</time>
      </trkpt>
      <trkpt lat="27.937204" lon="-15.520945">
        <ele>1338.40</ele>
        <time>2018-07-13T20:19:57Z</time>
      </trkpt>
      <trkpt lat="27.937216" lon="-15.520924">
        <ele>1338.60</ele>
        <time>2018-07-13T20:20:00Z</time>
      </trkpt>
      <trkpt lat="27.937228" lon="-15.520899">
        <ele>1337.80</ele>
        <time>2018-07-13T20:20:03Z</time>
      </trkpt>
      <trkpt lat="27.937235" lon="-15.520877">
        <ele>1337.40</ele>
        <time>2018-07-13T20:20:05Z</time>
      </trkpt>
      <trkpt lat="27.937241" lon="-15.520854">
        <ele>1336.80</ele>
        <time>2018-07-13T20:20:07Z</time>
      </trkpt>
      <trkpt lat="27.937255" lon="-15.520830">
        <ele>1336.00</ele>
        <time>2018-07-13T20:20:09Z</time>
      </trkpt>
      <trkpt lat="27.937267" lon="-15.520804">
        <ele>1335.60</ele>
        <time>2018-07-13T20:20:11Z</time>
      </trkpt>
      <trkpt lat="27.937282" lon="-15.520779">
        <ele>1335.40</ele>
        <time>2018-07-13T20:20:13Z</time>
      </trkpt>
      <trkpt lat="27.937296" lon="-15.520755">
        <ele>1335.20</ele>
        <time>2018-07-13T20:20:15Z</time>
      </trkpt>
      <trkpt lat="27.937315" lon="-15.520728">
        <ele>1335.20</ele>
        <time>2018-07-13T20:20:17Z</time>
      </trkpt>
      <trkpt lat="27.937332" lon="-15.520704">
        <ele>1334.80</ele>
        <time>2018-07-13T20:20:19Z</time>
      </trkpt>
      <trkpt lat="27.937347" lon="-15.520678">
        <ele>1334.60</ele>
        <time>2018-07-13T20:20:21Z</time>
      </trkpt>
      <trkpt lat="27.937364" lon="-15.520655">
        <ele>1334.80</ele>
        <time>2018-07-13T20:20:23Z</time>
      </trkpt>
      <trkpt lat="27.937377" lon="-15.520634">
        <ele>1334.40</ele>
        <time>2018-07-13T20:20:25Z</time>
      </trkpt>
      <trkpt lat="27.937388" lon="-15.520617">
        <ele>1334.40</ele>
        <time>2018-07-13T20:20:27Z</time>
      </trkpt>
      <trkpt lat="27.937400" lon="-15.520599">
        <ele>1334.20</ele>
        <time>2018-07-13T20:20:29Z</time>
      </trkpt>
      <trkpt lat="27.937407" lon="-15.520576">
        <ele>1334.00</ele>
        <time>2018-07-13T20:20:31Z</time>
      </trkpt>
      <trkpt lat="27.937413" lon="-15.520555">
        <ele>1333.80</ele>
        <time>2018-07-13T20:20:33Z</time>
      </trkpt>
      <trkpt lat="27.937413" lon="-15.520530">
        <ele>1333.80</ele>
        <time>2018-07-13T20:20:35Z</time>
      </trkpt>
      <trkpt lat="27.937409" lon="-15.520503">
        <ele>1333.80</ele>
        <time>2018-07-13T20:20:37Z</time>
      </trkpt>
      <trkpt lat="27.937406" lon="-15.520476">
        <ele>1333.60</ele>
        <time>2018-07-13T20:20:39Z</time>
      </trkpt>
      <trkpt lat="27.937397" lon="-15.520448">
        <ele>1333.40</ele>
        <time>2018-07-13T20:20:41Z</time>
      </trkpt>
      <trkpt lat="27.937387" lon="-15.520427">
        <ele>1333.00</ele>
        <time>2018-07-13T20:20:43Z</time>
      </trkpt>
      <trkpt lat="27.937379" lon="-15.520400">
        <ele>1332.40</ele>
        <time>2018-07-13T20:20:45Z</time>
      </trkpt>
      <trkpt lat="27.937362" lon="-15.520370">
        <ele>1331.20</ele>
        <time>2018-07-13T20:20:47Z</time>
      </trkpt>
      <trkpt lat="27.937354" lon="-15.520349">
        <ele>1330.80</ele>
        <time>2018-07-13T20:20:49Z</time>
      </trkpt>
      <trkpt lat="27.937340" lon="-15.520320">
        <ele>1330.80</ele>
        <time>2018-07-13T20:20:52Z</time>
      </trkpt>
      <trkpt lat="27.937325" lon="-15.520297">
        <ele>1330.80</ele>
        <time>2018-07-13T20:20:54Z</time>
      </trkpt>
      <trkpt lat="27.937313" lon="-15.520264">
        <ele>1330.40</ele>
        <time>2018-07-13T20:20:56Z</time>
      </trkpt>
      <trkpt lat="27.937315" lon="-15.520243">
        <ele>1330.40</ele>
        <time>2018-07-13T20:20:57Z</time>
      </trkpt>
      <trkpt lat="27.937322" lon="-15.520210">
        <ele>1330.40</ele>
        <time>2018-07-13T20:20:59Z</time>
      </trkpt>
      <trkpt lat="27.937333" lon="-15.520194">
        <ele>1330.20</ele>
        <time>2018-07-13T20:21:01Z</time>
      </trkpt>
      <trkpt lat="27.937354" lon="-15.520183">
        <ele>1330.20</ele>
        <time>2018-07-13T20:21:03Z</time>
      </trkpt>
      <trkpt lat="27.937373" lon="-15.520182">
        <ele>1330.20</ele>
        <time>2018-07-13T20:21:05Z</time>
      </trkpt>
      <trkpt lat="27.937389" lon="-15.520193">
        <ele>1331.80</ele>
        <time>2018-07-13T20:21:07Z</time>
      </trkpt>
      <trkpt lat="27.937412" lon="-15.520211">
        <ele>1332.00</ele>
        <time>2018-07-13T20:21:09Z</time>
      </trkpt>
      <trkpt lat="27.937430" lon="-15.520224">
        <ele>1331.80</ele>
        <time>2018-07-13T20:21:11Z</time>
      </trkpt>
      <trkpt lat="27.937443" lon="-15.520239">
        <ele>1331.80</ele>
        <time>2018-07-13T20:21:14Z</time>
      </trkpt>
      <trkpt lat="27.937460" lon="-15.520248">
        <ele>1331.80</ele>
        <time>2018-07-13T20:21:22Z</time>
      </trkpt>
      <trkpt lat="27.937478" lon="-15.520258">
        <ele>1332.40</ele>
        <time>2018-07-13T20:21:30Z</time>
      </trkpt>
      <trkpt lat="27.937492" lon="-15.520273">
        <ele>1333.00</ele>
        <time>2018-07-13T20:21:36Z</time>
      </trkpt>
      <trkpt lat="27.937511" lon="-15.520296">
        <ele>1333.00</ele>
        <time>2018-07-13T20:21:39Z</time>
      </trkpt>
      <trkpt lat="27.937525" lon="-15.520320">
        <ele>1333.00</ele>
        <time>2018-07-13T20:21:42Z</time>
      </trkpt>
      <trkpt lat="27.937540" lon="-15.520340">
        <ele>1332.80</ele>
        <time>2018-07-13T20:21:44Z</time>
      </trkpt>
      <trkpt lat="27.937552" lon="-15.520357">
        <ele>1332.60</ele>
        <time>2018-07-13T20:21:45Z</time>
      </trkpt>
      <trkpt lat="27.937564" lon="-15.520377">
        <ele>1332.60</ele>
        <time>2018-07-13T20:21:46Z</time>
      </trkpt>
      <trkpt lat="27.937577" lon="-15.520397">
        <ele>1333.20</ele>
        <time>2018-07-13T20:21:47Z</time>
      </trkpt>
      <trkpt lat="27.937592" lon="-15.520418">
        <ele>1332.40</ele>
        <time>2018-07-13T20:21:48Z</time>
      </trkpt>
      <trkpt lat="27.937609" lon="-15.520435">
        <ele>1332.20</ele>
        <time>2018-07-13T20:21:49Z</time>
      </trkpt>
      <trkpt lat="27.937624" lon="-15.520453">
        <ele>1332.20</ele>
        <time>2018-07-13T20:21:50Z</time>
      </trkpt>
      <trkpt lat="27.937640" lon="-15.520468">
        <ele>1332.20</ele>
        <time>2018-07-13T20:21:51Z</time>
      </trkpt>
      <trkpt lat="27.937661" lon="-15.520486">
        <ele>1333.00</ele>
        <time>2018-07-13T20:21:52Z</time>
      </trkpt>
      <trkpt lat="27.937676" lon="-15.520503">
        <ele>1333.20</ele>
        <time>2018-07-13T20:21:53Z</time>
      </trkpt>
      <trkpt lat="27.937696" lon="-15.520524">
        <ele>1333.00</ele>
        <time>2018-07-13T20:21:54Z</time>
      </trkpt>
      <trkpt lat="27.937715" lon="-15.520543">
        <ele>1334.20</ele>
        <time>2018-07-13T20:21:55Z</time>
      </trkpt>
      <trkpt lat="27.937738" lon="-15.520562">
        <ele>1334.20</ele>
        <time>2018-07-13T20:21:56Z</time>
      </trkpt>
      <trkpt lat="27.937759" lon="-15.520579">
        <ele>1334.20</ele>
        <time>2018-07-13T20:21:57Z</time>
      </trkpt>
      <trkpt lat="27.937785" lon="-15.520595">
        <ele>1334.20</ele>
        <time>2018-07-13T20:21:58Z</time>
      </trkpt>
      <trkpt lat="27.937808" lon="-15.520612">
        <ele>1334.20</ele>
        <time>2018-07-13T20:21:59Z</time>
      </trkpt>
      <trkpt lat="27.937830" lon="-15.520631">
        <ele>1334.20</ele>
        <time>2018-07-13T20:22:00Z</time>
      </trkpt>
      <trkpt lat="27.937850" lon="-15.520651">
        <ele>1334.20</ele>
        <time>2018-07-13T20:22:01Z</time>
      </trkpt>
      <trkpt lat="27.937865" lon="-15.520674">
        <ele>1334.20</ele>
        <time>2018-07-13T20:22:02Z</time>
      </trkpt>
      <trkpt lat="27.937878" lon="-15.520700">
        <ele>1333.60</ele>
        <time>2018-07-13T20:22:03Z</time>
      </trkpt>
      <trkpt lat="27.937891" lon="-15.520720">
        <ele>1334.40</ele>
        <time>2018-07-13T20:22:04Z</time>
      </trkpt>
      <trkpt lat="27.937905" lon="-15.520743">
        <ele>1333.60</ele>
        <time>2018-07-13T20:22:05Z</time>
      </trkpt>
      <trkpt lat="27.937961" lon="-15.520833">
        <ele>1335.80</ele>
        <time>2018-07-13T20:22:11Z</time>
      </trkpt>
      <trkpt lat="27.937976" lon="-15.520858">
        <ele>1335.80</ele>
        <time>2018-07-13T20:22:13Z</time>
      </trkpt>
      <trkpt lat="27.937993" lon="-15.520886">
        <ele>1335.80</ele>
        <time>2018-07-13T20:22:15Z</time>
      </trkpt>
      <trkpt lat="27.938059" lon="-15.520973">
        <ele>1335.80</ele>
        <time>2018-07-13T20:22:19Z</time>
      </trkpt>
      <trkpt lat="27.938137" lon="-15.521046">
        <ele>1336.20</ele>
        <time>2018-07-13T20:22:24Z</time>
      </trkpt>
      <trkpt lat="27.938189" lon="-15.521085">
        <ele>1337.60</ele>
        <time>2018-07-13T20:22:27Z</time>
      </trkpt>
      <trkpt lat="27.938245" lon="-15.521128">
        <ele>1337.60</ele>
        <time>2018-07-13T20:22:30Z</time>
      </trkpt>
      <trkpt lat="27.938259" lon="-15.521146">
        <ele>1337.60</ele>
        <time>2018-07-13T20:22:31Z</time>
      </trkpt>
      <trkpt lat="27.938270" lon="-15.521166">
        <ele>1336.80</ele>
        <time>2018-07-13T20:22:32Z</time>
      </trkpt>
      <trkpt lat="27.938284" lon="-15.521181">
        <ele>1336.80</ele>
        <time>2018-07-13T20:22:33Z</time>
      </trkpt>
      <trkpt lat="27.938305" lon="-15.521203">
        <ele>1338.20</ele>
        <time>2018-07-13T20:22:35Z</time>
      </trkpt>
      <trkpt lat="27.938325" lon="-15.521217">
        <ele>1338.40</ele>
        <time>2018-07-13T20:22:37Z</time>
      </trkpt>
      <trkpt lat="27.938342" lon="-15.521229">
        <ele>1338.40</ele>
        <time>2018-07-13T20:22:39Z</time>
      </trkpt>
      <trkpt lat="27.938364" lon="-15.521233">
        <ele>1338.80</ele>
        <time>2018-07-13T20:22:41Z</time>
      </trkpt>
      <trkpt lat="27.938394" lon="-15.521234">
        <ele>1338.60</ele>
        <time>2018-07-13T20:22:43Z</time>
      </trkpt>
      <trkpt lat="27.938426" lon="-15.521233">
        <ele>1338.40</ele>
        <time>2018-07-13T20:22:45Z</time>
      </trkpt>
      <trkpt lat="27.938458" lon="-15.521246">
        <ele>1338.00</ele>
        <time>2018-07-13T20:22:47Z</time>
      </trkpt>
      <trkpt lat="27.938478" lon="-15.521253">
        <ele>1337.80</ele>
        <time>2018-07-13T20:22:48Z</time>
      </trkpt>
      <trkpt lat="27.938498" lon="-15.521261">
        <ele>1337.80</ele>
        <time>2018-07-13T20:22:49Z</time>
      </trkpt>
      <trkpt lat="27.938540" lon="-15.521282">
        <ele>1337.80</ele>
        <time>2018-07-13T20:22:52Z</time>
      </trkpt>
      <trkpt lat="27.938568" lon="-15.521292">
        <ele>1338.40</ele>
        <time>2018-07-13T20:22:54Z</time>
      </trkpt>
      <trkpt lat="27.938600" lon="-15.521297">
        <ele>1338.60</ele>
        <time>2018-07-13T20:22:56Z</time>
      </trkpt>
      <trkpt lat="27.938636" lon="-15.521303">
        <ele>1338.60</ele>
        <time>2018-07-13T20:22:58Z</time>
      </trkpt>
      <trkpt lat="27.938737" lon="-15.521331">
        <ele>1339.00</ele>
        <time>2018-07-13T20:23:03Z</time>
      </trkpt>
      <trkpt lat="27.938822" lon="-15.521347">
        <ele>1339.00</ele>
        <time>2018-07-13T20:23:07Z</time>
      </trkpt>
      <trkpt lat="27.938849" lon="-15.521344">
        <ele>1339.00</ele>
        <time>2018-07-13T20:23:08Z</time>
      </trkpt>
      <trkpt lat="27.938871" lon="-15.521341">
        <ele>1339.00</ele>
        <time>2018-07-13T20:23:09Z</time>
      </trkpt>
      <trkpt lat="27.938891" lon="-15.521334">
        <ele>1339.20</ele>
        <time>2018-07-13T20:23:10Z</time>
      </trkpt>
      <trkpt lat="27.938929" lon="-15.521325">
        <ele>1339.00</ele>
        <time>2018-07-13T20:23:12Z</time>
      </trkpt>
      <trkpt lat="27.938948" lon="-15.521321">
        <ele>1339.00</ele>
        <time>2018-07-13T20:23:13Z</time>
      </trkpt>
      <trkpt lat="27.938966" lon="-15.521320">
        <ele>1339.40</ele>
        <time>2018-07-13T20:23:14Z</time>
      </trkpt>
      <trkpt lat="27.939024" lon="-15.521345">
        <ele>1339.80</ele>
        <time>2018-07-13T20:23:17Z</time>
      </trkpt>
      <trkpt lat="27.939047" lon="-15.521355">
        <ele>1339.60</ele>
        <time>2018-07-13T20:23:18Z</time>
      </trkpt>
      <trkpt lat="27.939073" lon="-15.521364">
        <ele>1339.60</ele>
        <time>2018-07-13T20:23:19Z</time>
      </trkpt>
      <trkpt lat="27.939099" lon="-15.521368">
        <ele>1339.60</ele>
        <time>2018-07-13T20:23:20Z</time>
      </trkpt>
      <trkpt lat="27.939119" lon="-15.521378">
        <ele>1339.60</ele>
        <time>2018-07-13T20:23:21Z</time>
      </trkpt>
      <trkpt lat="27.939143" lon="-15.521398">
        <ele>1339.40</ele>
        <time>2018-07-13T20:23:23Z</time>
      </trkpt>
      <trkpt lat="27.939165" lon="-15.521409">
        <ele>1339.80</ele>
        <time>2018-07-13T20:23:25Z</time>
      </trkpt>
      <trkpt lat="27.939186" lon="-15.521422">
        <ele>1339.80</ele>
        <time>2018-07-13T20:23:27Z</time>
      </trkpt>
      <trkpt lat="27.939210" lon="-15.521434">
        <ele>1339.60</ele>
        <time>2018-07-13T20:23:29Z</time>
      </trkpt>
      <trkpt lat="27.939244" lon="-15.521452">
        <ele>1340.00</ele>
        <time>2018-07-13T20:23:32Z</time>
      </trkpt>
      <trkpt lat="27.939265" lon="-15.521459">
        <ele>1340.00</ele>
        <time>2018-07-13T20:23:34Z</time>
      </trkpt>
      <trkpt lat="27.939317" lon="-15.521500">
        <ele>1340.20</ele>
        <time>2018-07-13T20:23:38Z</time>
      </trkpt>
      <trkpt lat="27.939397" lon="-15.521575">
        <ele>1340.20</ele>
        <time>2018-07-13T20:23:43Z</time>
      </trkpt>
      <trkpt lat="27.939496" lon="-15.521627">
        <ele>1339.60</ele>
        <time>2018-07-13T20:23:47Z</time>
      </trkpt>
      <trkpt lat="27.939520" lon="-15.521643">
        <ele>1339.60</ele>
        <time>2018-07-13T20:23:48Z</time>
      </trkpt>
      <trkpt lat="27.939543" lon="-15.521653">
        <ele>1339.00</ele>
        <time>2018-07-13T20:23:49Z</time>
      </trkpt>
      <trkpt lat="27.939565" lon="-15.521666">
        <ele>1339.60</ele>
        <time>2018-07-13T20:23:50Z</time>
      </trkpt>
      <trkpt lat="27.939587" lon="-15.521680">
        <ele>1338.80</ele>
        <time>2018-07-13T20:23:51Z</time>
      </trkpt>
      <trkpt lat="27.939619" lon="-15.521704">
        <ele>1339.20</ele>
        <time>2018-07-13T20:23:53Z</time>
      </trkpt>
      <trkpt lat="27.939674" lon="-15.521715">
        <ele>1339.40</ele>
        <time>2018-07-13T20:23:56Z</time>
      </trkpt>
      <trkpt lat="27.939701" lon="-15.521714">
        <ele>1339.80</ele>
        <time>2018-07-13T20:23:58Z</time>
      </trkpt>
      <trkpt lat="27.939720" lon="-15.521712">
        <ele>1339.80</ele>
        <time>2018-07-13T20:23:59Z</time>
      </trkpt>
      <trkpt lat="27.939753" lon="-15.521712">
        <ele>1340.20</ele>
        <time>2018-07-13T20:24:01Z</time>
      </trkpt>
      <trkpt lat="27.939774" lon="-15.521710">
        <ele>1340.20</ele>
        <time>2018-07-13T20:24:02Z</time>
      </trkpt>
      <trkpt lat="27.939792" lon="-15.521712">
        <ele>1340.80</ele>
        <time>2018-07-13T20:24:03Z</time>
      </trkpt>
      <trkpt lat="27.939829" lon="-15.521720">
        <ele>1341.20</ele>
        <time>2018-07-13T20:24:05Z</time>
      </trkpt>
      <trkpt lat="27.939863" lon="-15.521732">
        <ele>1341.00</ele>
        <time>2018-07-13T20:24:07Z</time>
      </trkpt>
      <trkpt lat="27.939882" lon="-15.521737">
        <ele>1342.00</ele>
        <time>2018-07-13T20:24:08Z</time>
      </trkpt>
      <trkpt lat="27.939908" lon="-15.521756">
        <ele>1342.00</ele>
        <time>2018-07-13T20:24:10Z</time>
      </trkpt>
      <trkpt lat="27.939925" lon="-15.521766">
        <ele>1341.80</ele>
        <time>2018-07-13T20:24:11Z</time>
      </trkpt>
      <trkpt lat="27.939943" lon="-15.521774">
        <ele>1341.80</ele>
        <time>2018-07-13T20:24:12Z</time>
      </trkpt>
      <trkpt lat="27.939961" lon="-15.521785">
        <ele>1341.80</ele>
        <time>2018-07-13T20:24:13Z</time>
      </trkpt>
      <trkpt lat="27.939977" lon="-15.521802">
        <ele>1341.40</ele>
        <time>2018-07-13T20:24:14Z</time>
      </trkpt>
      <trkpt lat="27.939995" lon="-15.521821">
        <ele>1341.40</ele>
        <time>2018-07-13T20:24:15Z</time>
      </trkpt>
      <trkpt lat="27.940010" lon="-15.521845">
        <ele>1340.60</ele>
        <time>2018-07-13T20:24:16Z</time>
      </trkpt>
      <trkpt lat="27.940015" lon="-15.521872">
        <ele>1340.60</ele>
        <time>2018-07-13T20:24:17Z</time>
      </trkpt>
      <trkpt lat="27.940015" lon="-15.521894">
        <ele>1340.40</ele>
        <time>2018-07-13T20:24:18Z</time>
      </trkpt>
      <trkpt lat="27.940011" lon="-15.521917">
        <ele>1340.40</ele>
        <time>2018-07-13T20:24:19Z</time>
      </trkpt>
      <trkpt lat="27.940001" lon="-15.521938">
        <ele>1339.60</ele>
        <time>2018-07-13T20:24:20Z</time>
      </trkpt>
      <trkpt lat="27.939955" lon="-15.522031">
        <ele>1338.20</ele>
        <time>2018-07-13T20:24:25Z</time>
      </trkpt>
      <trkpt lat="27.940028" lon="-15.522136">
        <ele>1337.40</ele>
        <time>2018-07-13T20:24:30Z</time>
      </trkpt>
      <trkpt lat="27.940099" lon="-15.522226">
        <ele>1336.60</ele>
        <time>2018-07-13T20:24:33Z</time>
      </trkpt>
      <trkpt lat="27.940155" lon="-15.522316">
        <ele>1335.80</ele>
        <time>2018-07-13T20:24:36Z</time>
      </trkpt>
      <trkpt lat="27.940224" lon="-15.522407">
        <ele>1335.40</ele>
        <time>2018-07-13T20:24:40Z</time>
      </trkpt>
      <trkpt lat="27.940315" lon="-15.522441">
        <ele>1334.60</ele>
        <time>2018-07-13T20:24:44Z</time>
      </trkpt>
      <trkpt lat="27.940411" lon="-15.522460">
        <ele>1333.60</ele>
        <time>2018-07-13T20:24:49Z</time>
      </trkpt>
      <trkpt lat="27.940502" lon="-15.522495">
        <ele>1332.40</ele>
        <time>2018-07-13T20:24:54Z</time>
      </trkpt>
      <trkpt lat="27.940606" lon="-15.522517">
        <ele>1331.60</ele>
        <time>2018-07-13T20:24:59Z</time>
      </trkpt>
      <trkpt lat="27.940685" lon="-15.522591">
        <ele>1329.80</ele>
        <time>2018-07-13T20:25:03Z</time>
      </trkpt>
      <trkpt lat="27.940747" lon="-15.522675">
        <ele>1329.80</ele>
        <time>2018-07-13T20:25:07Z</time>
      </trkpt>
      <trkpt lat="27.940801" lon="-15.522769">
        <ele>1329.40</ele>
        <time>2018-07-13T20:25:12Z</time>
      </trkpt>
      <trkpt lat="27.940803" lon="-15.522888">
        <ele>1328.80</ele>
        <time>2018-07-13T20:25:18Z</time>
      </trkpt>
      <trkpt lat="27.940756" lon="-15.522983">
        <ele>1328.00</ele>
        <time>2018-07-13T20:25:23Z</time>
      </trkpt>
      <trkpt lat="27.940799" lon="-15.523084">
        <ele>1326.60</ele>
        <time>2018-07-13T20:25:28Z</time>
      </trkpt>
      <trkpt lat="27.940840" lon="-15.523181">
        <ele>1325.80</ele>
        <time>2018-07-13T20:25:32Z</time>
      </trkpt>
      <trkpt lat="27.940912" lon="-15.523255">
        <ele>1326.00</ele>
        <time>2018-07-13T20:25:36Z</time>
      </trkpt>
      <trkpt lat="27.940931" lon="-15.523269">
        <ele>1326.40</ele>
        <time>2018-07-13T20:25:37Z</time>
      </trkpt>
      <trkpt lat="27.940969" lon="-15.523306">
        <ele>1326.40</ele>
        <time>2018-07-13T20:25:40Z</time>
      </trkpt>
      <trkpt lat="27.941057" lon="-15.523364">
        <ele>1327.20</ele>
        <time>2018-07-13T20:25:48Z</time>
      </trkpt>
      <trkpt lat="27.941115" lon="-15.523402">
        <ele>1328.20</ele>
        <time>2018-07-13T20:25:52Z</time>
      </trkpt>
      <trkpt lat="27.941136" lon="-15.523425">
        <ele>1329.40</ele>
        <time>2018-07-13T20:25:54Z</time>
      </trkpt>
      <trkpt lat="27.941155" lon="-15.523456">
        <ele>1329.40</ele>
        <time>2018-07-13T20:25:56Z</time>
      </trkpt>
      <trkpt lat="27.941170" lon="-15.523476">
        <ele>1329.40</ele>
        <time>2018-07-13T20:25:57Z</time>
      </trkpt>
      <trkpt lat="27.941239" lon="-15.523556">
        <ele>1329.40</ele>
        <time>2018-07-13T20:26:02Z</time>
      </trkpt>
      <trkpt lat="27.941282" lon="-15.523656">
        <ele>1331.00</ele>
        <time>2018-07-13T20:26:07Z</time>
      </trkpt>
      <trkpt lat="27.941360" lon="-15.523722">
        <ele>1331.80</ele>
        <time>2018-07-13T20:26:13Z</time>
      </trkpt>
      <trkpt lat="27.941379" lon="-15.523735">
        <ele>1331.80</ele>
        <time>2018-07-13T20:26:15Z</time>
      </trkpt>
      <trkpt lat="27.941443" lon="-15.523782">
        <ele>1331.40</ele>
        <time>2018-07-13T20:26:20Z</time>
      </trkpt>
      <trkpt lat="27.941493" lon="-15.523782">
        <ele>1331.20</ele>
        <time>2018-07-13T20:26:24Z</time>
      </trkpt>
      <trkpt lat="27.941519" lon="-15.523786">
        <ele>1330.20</ele>
        <time>2018-07-13T20:26:26Z</time>
      </trkpt>
      <trkpt lat="27.941544" lon="-15.523801">
        <ele>1329.40</ele>
        <time>2018-07-13T20:26:28Z</time>
      </trkpt>
      <trkpt lat="27.941563" lon="-15.523809">
        <ele>1329.20</ele>
        <time>2018-07-13T20:26:29Z</time>
      </trkpt>
      <trkpt lat="27.941592" lon="-15.523823">
        <ele>1328.80</ele>
        <time>2018-07-13T20:26:31Z</time>
      </trkpt>
      <trkpt lat="27.941610" lon="-15.523830">
        <ele>1328.20</ele>
        <time>2018-07-13T20:26:32Z</time>
      </trkpt>
      <trkpt lat="27.941705" lon="-15.523781">
        <ele>1326.80</ele>
        <time>2018-07-13T20:26:37Z</time>
      </trkpt>
      <trkpt lat="27.941720" lon="-15.523764">
        <ele>1326.80</ele>
        <time>2018-07-13T20:26:38Z</time>
      </trkpt>
      <trkpt lat="27.941733" lon="-15.523745">
        <ele>1326.80</ele>
        <time>2018-07-13T20:26:39Z</time>
      </trkpt>
      <trkpt lat="27.941775" lon="-15.523627">
        <ele>1327.20</ele>
        <time>2018-07-13T20:26:45Z</time>
      </trkpt>
      <trkpt lat="27.941788" lon="-15.523598">
        <ele>1327.20</ele>
        <time>2018-07-13T20:26:46Z</time>
      </trkpt>
      <trkpt lat="27.941803" lon="-15.523567">
        <ele>1326.80</ele>
        <time>2018-07-13T20:26:47Z</time>
      </trkpt>
      <trkpt lat="27.941859" lon="-15.523470">
        <ele>1326.20</ele>
        <time>2018-07-13T20:26:51Z</time>
      </trkpt>
      <trkpt lat="27.941916" lon="-15.523378">
        <ele>1324.80</ele>
        <time>2018-07-13T20:26:55Z</time>
      </trkpt>
      <trkpt lat="27.941997" lon="-15.523326">
        <ele>1323.80</ele>
        <time>2018-07-13T20:27:00Z</time>
      </trkpt>
      <trkpt lat="27.942079" lon="-15.523284">
        <ele>1322.60</ele>
        <time>2018-07-13T20:27:04Z</time>
      </trkpt>
      <trkpt lat="27.942170" lon="-15.523220">
        <ele>1322.00</ele>
        <time>2018-07-13T20:27:09Z</time>
      </trkpt>
      <trkpt lat="27.942261" lon="-15.523279">
        <ele>1321.40</ele>
        <time>2018-07-13T20:27:13Z</time>
      </trkpt>
      <trkpt lat="27.942344" lon="-15.523375">
        <ele>1321.60</ele>
        <time>2018-07-13T20:27:17Z</time>
      </trkpt>
      <trkpt lat="27.942411" lon="-15.523453">
        <ele>1321.60</ele>
        <time>2018-07-13T20:27:20Z</time>
      </trkpt>
      <trkpt lat="27.942493" lon="-15.523515">
        <ele>1320.60</ele>
        <time>2018-07-13T20:27:24Z</time>
      </trkpt>
      <trkpt lat="27.942554" lon="-15.523595">
        <ele>1320.60</ele>
        <time>2018-07-13T20:27:29Z</time>
      </trkpt>
      <trkpt lat="27.942626" lon="-15.523661">
        <ele>1319.80</ele>
        <time>2018-07-13T20:27:32Z</time>
      </trkpt>
      <trkpt lat="27.942692" lon="-15.523731">
        <ele>1318.40</ele>
        <time>2018-07-13T20:27:36Z</time>
      </trkpt>
      <trkpt lat="27.942776" lon="-15.523797">
        <ele>1318.80</ele>
        <time>2018-07-13T20:27:41Z</time>
      </trkpt>
      <trkpt lat="27.942821" lon="-15.523846">
        <ele>1319.00</ele>
        <time>2018-07-13T20:27:46Z</time>
      </trkpt>
      <trkpt lat="27.942838" lon="-15.523856">
        <ele>1319.40</ele>
        <time>2018-07-13T20:27:48Z</time>
      </trkpt>
      <trkpt lat="27.942866" lon="-15.523870">
        <ele>1319.40</ele>
        <time>2018-07-13T20:27:50Z</time>
      </trkpt>
      <trkpt lat="27.942893" lon="-15.523864">
        <ele>1320.20</ele>
        <time>2018-07-13T20:27:51Z</time>
      </trkpt>
      <trkpt lat="27.942976" lon="-15.523891">
        <ele>1320.80</ele>
        <time>2018-07-13T20:27:56Z</time>
      </trkpt>
      <trkpt lat="27.942992" lon="-15.523902">
        <ele>1321.00</ele>
        <time>2018-07-13T20:27:57Z</time>
      </trkpt>
      <trkpt lat="27.943019" lon="-15.523931">
        <ele>1321.20</ele>
        <time>2018-07-13T20:27:59Z</time>
      </trkpt>
      <trkpt lat="27.943038" lon="-15.523951">
        <ele>1321.00</ele>
        <time>2018-07-13T20:28:01Z</time>
      </trkpt>
      <trkpt lat="27.943070" lon="-15.523957">
        <ele>1321.00</ele>
        <time>2018-07-13T20:28:03Z</time>
      </trkpt>
      <trkpt lat="27.943094" lon="-15.523961">
        <ele>1321.80</ele>
        <time>2018-07-13T20:28:05Z</time>
      </trkpt>
      <trkpt lat="27.943122" lon="-15.523963">
        <ele>1321.80</ele>
        <time>2018-07-13T20:28:07Z</time>
      </trkpt>
      <trkpt lat="27.943148" lon="-15.523964">
        <ele>1322.40</ele>
        <time>2018-07-13T20:28:09Z</time>
      </trkpt>
      <trkpt lat="27.943167" lon="-15.523969">
        <ele>1322.40</ele>
        <time>2018-07-13T20:28:11Z</time>
      </trkpt>
      <trkpt lat="27.943186" lon="-15.523983">
        <ele>1322.40</ele>
        <time>2018-07-13T20:28:13Z</time>
      </trkpt>
      <trkpt lat="27.943207" lon="-15.523995">
        <ele>1322.40</ele>
        <time>2018-07-13T20:28:14Z</time>
      </trkpt>
      <trkpt lat="27.943227" lon="-15.524000">
        <ele>1322.00</ele>
        <time>2018-07-13T20:28:15Z</time>
      </trkpt>
      <trkpt lat="27.943262" lon="-15.523998">
        <ele>1321.40</ele>
        <time>2018-07-13T20:28:17Z</time>
      </trkpt>
      <trkpt lat="27.943362" lon="-15.524004">
        <ele>1322.20</ele>
        <time>2018-07-13T20:28:22Z</time>
      </trkpt>
      <trkpt lat="27.943456" lon="-15.524033">
        <ele>1322.20</ele>
        <time>2018-07-13T20:28:26Z</time>
      </trkpt>
      <trkpt lat="27.943533" lon="-15.524072">
        <ele>1323.40</ele>
        <time>2018-07-13T20:28:31Z</time>
      </trkpt>
      <trkpt lat="27.943557" lon="-15.524089">
        <ele>1323.40</ele>
        <time>2018-07-13T20:28:33Z</time>
      </trkpt>
      <trkpt lat="27.943576" lon="-15.524110">
        <ele>1323.80</ele>
        <time>2018-07-13T20:28:35Z</time>
      </trkpt>
      <trkpt lat="27.943596" lon="-15.524119">
        <ele>1323.80</ele>
        <time>2018-07-13T20:28:37Z</time>
      </trkpt>
      <trkpt lat="27.943685" lon="-15.524142">
        <ele>1324.40</ele>
        <time>2018-07-13T20:28:42Z</time>
      </trkpt>
      <trkpt lat="27.943742" lon="-15.524140">
        <ele>1325.20</ele>
        <time>2018-07-13T20:28:44Z</time>
      </trkpt>
      <trkpt lat="27.943834" lon="-15.524165">
        <ele>1325.60</ele>
        <time>2018-07-13T20:28:48Z</time>
      </trkpt>
      <trkpt lat="27.943938" lon="-15.524169">
        <ele>1325.40</ele>
        <time>2018-07-13T20:28:54Z</time>
      </trkpt>
      <trkpt lat="27.943995" lon="-15.524230">
        <ele>1322.80</ele>
        <time>2018-07-13T20:28:59Z</time>
      </trkpt>
      <trkpt lat="27.944014" lon="-15.524259">
        <ele>1322.60</ele>
        <time>2018-07-13T20:29:01Z</time>
      </trkpt>
      <trkpt lat="27.944036" lon="-15.524283">
        <ele>1321.20</ele>
        <time>2018-07-13T20:29:03Z</time>
      </trkpt>
      <trkpt lat="27.944060" lon="-15.524301">
        <ele>1321.20</ele>
        <time>2018-07-13T20:29:05Z</time>
      </trkpt>
      <trkpt lat="27.944081" lon="-15.524330">
        <ele>1320.60</ele>
        <time>2018-07-13T20:29:07Z</time>
      </trkpt>
      <trkpt lat="27.944093" lon="-15.524355">
        <ele>1319.00</ele>
        <time>2018-07-13T20:29:09Z</time>
      </trkpt>
      <trkpt lat="27.944103" lon="-15.524372">
        <ele>1318.40</ele>
        <time>2018-07-13T20:29:11Z</time>
      </trkpt>
      <trkpt lat="27.944121" lon="-15.524392">
        <ele>1317.60</ele>
        <time>2018-07-13T20:29:13Z</time>
      </trkpt>
      <trkpt lat="27.944138" lon="-15.524411">
        <ele>1316.40</ele>
        <time>2018-07-13T20:29:15Z</time>
      </trkpt>
      <trkpt lat="27.944156" lon="-15.524424">
        <ele>1315.40</ele>
        <time>2018-07-13T20:29:17Z</time>
      </trkpt>
      <trkpt lat="27.944173" lon="-15.524438">
        <ele>1315.00</ele>
        <time>2018-07-13T20:29:19Z</time>
      </trkpt>
      <trkpt lat="27.944191" lon="-15.524450">
        <ele>1314.60</ele>
        <time>2018-07-13T20:29:21Z</time>
      </trkpt>
      <trkpt lat="27.944218" lon="-15.524467">
        <ele>1313.80</ele>
        <time>2018-07-13T20:29:24Z</time>
      </trkpt>
      <trkpt lat="27.944232" lon="-15.524493">
        <ele>1312.80</ele>
        <time>2018-07-13T20:29:27Z</time>
      </trkpt>
      <trkpt lat="27.944288" lon="-15.524579">
        <ele>1309.40</ele>
        <time>2018-07-13T20:29:36Z</time>
      </trkpt>
      <trkpt lat="27.944301" lon="-15.524601">
        <ele>1308.20</ele>
        <time>2018-07-13T20:29:39Z</time>
      </trkpt>
      <trkpt lat="27.944320" lon="-15.524627">
        <ele>1306.40</ele>
        <time>2018-07-13T20:29:41Z</time>
      </trkpt>
      <trkpt lat="27.944365" lon="-15.524722">
        <ele>1304.40</ele>
        <time>2018-07-13T20:29:47Z</time>
      </trkpt>
      <trkpt lat="27.944425" lon="-15.524806">
        <ele>1301.40</ele>
        <time>2018-07-13T20:29:55Z</time>
      </trkpt>
      <trkpt lat="27.944488" lon="-15.524886">
        <ele>1298.20</ele>
        <time>2018-07-13T20:30:02Z</time>
      </trkpt>
      <trkpt lat="27.944559" lon="-15.524808">
        <ele>1293.60</ele>
        <time>2018-07-13T20:30:16Z</time>
      </trkpt>
      <trkpt lat="27.944603" lon="-15.524820">
        <ele>1288.40</ele>
        <time>2018-07-13T20:30:30Z</time>
      </trkpt>
      <trkpt lat="27.944631" lon="-15.524825">
        <ele>1287.60</ele>
        <time>2018-07-13T20:30:32Z</time>
      </trkpt>
      <trkpt lat="27.944655" lon="-15.524812">
        <ele>1287.20</ele>
        <time>2018-07-13T20:30:34Z</time>
      </trkpt>
      <trkpt lat="27.944666" lon="-15.524777">
        <ele>1286.60</ele>
        <time>2018-07-13T20:30:38Z</time>
      </trkpt>
      <trkpt lat="27.944687" lon="-15.524847">
        <ele>1284.20</ele>
        <time>2018-07-13T20:30:47Z</time>
      </trkpt>
      <trkpt lat="27.944748" lon="-15.524768">
        <ele>1281.40</ele>
        <time>2018-07-13T20:30:56Z</time>
      </trkpt>
      <trkpt lat="27.944838" lon="-15.524814">
        <ele>1277.60</ele>
        <time>2018-07-13T20:31:10Z</time>
      </trkpt>
      <trkpt lat="27.944939" lon="-15.524802">
        <ele>1274.20</ele>
        <time>2018-07-13T20:31:25Z</time>
      </trkpt>
      <trkpt lat="27.944948" lon="-15.524828">
        <ele>1272.00</ele>
        <time>2018-07-13T20:31:28Z</time>
      </trkpt>
      <trkpt lat="27.945028" lon="-15.524876">
        <ele>1268.20</ele>
        <time>2018-07-13T20:31:44Z</time>
      </trkpt>
      <trkpt lat="27.945079" lon="-15.524965">
        <ele>1266.40</ele>
        <time>2018-07-13T20:31:50Z</time>
      </trkpt>
      <trkpt lat="27.945117" lon="-15.525062">
        <ele>1264.40</ele>
        <time>2018-07-13T20:31:57Z</time>
      </trkpt>
      <trkpt lat="27.945130" lon="-15.525128">
        <ele>1263.40</ele>
        <time>2018-07-13T20:32:01Z</time>
      </trkpt>
      <trkpt lat="27.945144" lon="-15.525146">
        <ele>1263.20</ele>
        <time>2018-07-13T20:32:03Z</time>
      </trkpt>
      <trkpt lat="27.945243" lon="-15.525137">
        <ele>1259.60</ele>
        <time>2018-07-13T20:32:13Z</time>
      </trkpt>
      <trkpt lat="27.945264" lon="-15.525132">
        <ele>1259.40</ele>
        <time>2018-07-13T20:32:15Z</time>
      </trkpt>
      <trkpt lat="27.945282" lon="-15.525117">
        <ele>1258.60</ele>
        <time>2018-07-13T20:32:17Z</time>
      </trkpt>
      <trkpt lat="27.945295" lon="-15.525099">
        <ele>1258.60</ele>
        <time>2018-07-13T20:32:20Z</time>
      </trkpt>
      <trkpt lat="27.945326" lon="-15.525095">
        <ele>1255.60</ele>
        <time>2018-07-13T20:32:29Z</time>
      </trkpt>
      <trkpt lat="27.945344" lon="-15.525107">
        <ele>1256.60</ele>
        <time>2018-07-13T20:32:44Z</time>
      </trkpt>
      <trkpt lat="27.945319" lon="-15.525087">
        <ele>1217.80</ele>
        <time>2018-08-06T19:51:17Z</time>
      </trkpt>
      <trkpt lat="27.945314" lon="-15.525052">
        <ele>1217.20</ele>
        <time>2018-08-06T19:51:18Z</time>
      </trkpt>
      <trkpt lat="27.945315" lon="-15.525019">
        <ele>1217.00</ele>
        <time>2018-08-06T19:51:19Z</time>
      </trkpt>
      <trkpt lat="27.945314" lon="-15.524989">
        <ele>1216.80</ele>
        <time>2018-08-06T19:51:20Z</time>
      </trkpt>
      <trkpt lat="27.945315" lon="-15.524965">
        <ele>1216.60</ele>
        <time>2018-08-06T19:51:21Z</time>
      </trkpt>
      <trkpt lat="27.945311" lon="-15.524942">
        <ele>1216.40</ele>
        <time>2018-08-06T19:51:22Z</time>
      </trkpt>
      <trkpt lat="27.945321" lon="-15.524919">
        <ele>1216.20</ele>
        <time>2018-08-06T19:51:23Z</time>
      </trkpt>
      <trkpt lat="27.945335" lon="-15.524898">
        <ele>1216.00</ele>
        <time>2018-08-06T19:51:24Z</time>
      </trkpt>
      <trkpt lat="27.945346" lon="-15.524877">
        <ele>1215.60</ele>
        <time>2018-08-06T19:51:25Z</time>
      </trkpt>
      <trkpt lat="27.945364" lon="-15.524861">
        <ele>1215.40</ele>
        <time>2018-08-06T19:51:26Z</time>
      </trkpt>
      <trkpt lat="27.945384" lon="-15.524848">
        <ele>1215.00</ele>
        <time>2018-08-06T19:51:27Z</time>
      </trkpt>
      <trkpt lat="27.945405" lon="-15.524832">
        <ele>1214.60</ele>
        <time>2018-08-06T19:51:28Z</time>
      </trkpt>
      <trkpt lat="27.945421" lon="-15.524813">
        <ele>1214.00</ele>
        <time>2018-08-06T19:51:29Z</time>
      </trkpt>
      <trkpt lat="27.945435" lon="-15.524793">
        <ele>1213.60</ele>
        <time>2018-08-06T19:51:30Z</time>
      </trkpt>
      <trkpt lat="27.945442" lon="-15.524768">
        <ele>1212.60</ele>
        <time>2018-08-06T19:51:31Z</time>
      </trkpt>
      <trkpt lat="27.945445" lon="-15.524745">
        <ele>1212.00</ele>
        <time>2018-08-06T19:51:32Z</time>
      </trkpt>
      <trkpt lat="27.945452" lon="-15.524725">
        <ele>1211.40</ele>
        <time>2018-08-06T19:51:33Z</time>
      </trkpt>
      <trkpt lat="27.945460" lon="-15.524706">
        <ele>1210.80</ele>
        <time>2018-08-06T19:51:34Z</time>
      </trkpt>
      <trkpt lat="27.945470" lon="-15.524691">
        <ele>1210.20</ele>
        <time>2018-08-06T19:51:35Z</time>
      </trkpt>
      <trkpt lat="27.945487" lon="-15.524679">
        <ele>1209.20</ele>
        <time>2018-08-06T19:51:36Z</time>
      </trkpt>
      <trkpt lat="27.945485" lon="-15.524658">
        <ele>1208.20</ele>
        <time>2018-08-06T19:51:37Z</time>
      </trkpt>
      <trkpt lat="27.945492" lon="-15.524640">
        <ele>1206.80</ele>
        <time>2018-08-06T19:51:38Z</time>
      </trkpt>
      <trkpt lat="27.945496" lon="-15.524623">
        <ele>1205.80</ele>
        <time>2018-08-06T19:51:39Z</time>
      </trkpt>
      <trkpt lat="27.945501" lon="-15.524613">
        <ele>1205.20</ele>
        <time>2018-08-06T19:51:40Z</time>
      </trkpt>
      <trkpt lat="27.945503" lon="-15.524602">
        <ele>1204.80</ele>
        <time>2018-08-06T19:51:41Z</time>
      </trkpt>
      <trkpt lat="27.945514" lon="-15.524588">
        <ele>1204.40</ele>
        <time>2018-08-06T19:51:42Z</time>
      </trkpt>
      <trkpt lat="27.945511" lon="-15.524572">
        <ele>1204.20</ele>
        <time>2018-08-06T19:51:43Z</time>
      </trkpt>
      <trkpt lat="27.945513" lon="-15.524554">
        <ele>1203.80</ele>
        <time>2018-08-06T19:51:44Z</time>
      </trkpt>
      <trkpt lat="27.945519" lon="-15.524537">
        <ele>1203.20</ele>
        <time>2018-08-06T19:51:45Z</time>
      </trkpt>
      <trkpt lat="27.945518" lon="-15.524516">
        <ele>1202.40</ele>
        <time>2018-08-06T19:51:46Z</time>
      </trkpt>
      <trkpt lat="27.945521" lon="-15.524497">
        <ele>1201.60</ele>
        <time>2018-08-06T19:51:47Z</time>
      </trkpt>
      <trkpt lat="27.945524" lon="-15.524475">
        <ele>1201.00</ele>
        <time>2018-08-06T19:51:48Z</time>
      </trkpt>
      <trkpt lat="27.945526" lon="-15.524452">
        <ele>1200.20</ele>
        <time>2018-08-06T19:51:49Z</time>
      </trkpt>
      <trkpt lat="27.945531" lon="-15.524427">
        <ele>1199.40</ele>
        <time>2018-08-06T19:51:50Z</time>
      </trkpt>
      <trkpt lat="27.945540" lon="-15.524401">
        <ele>1198.60</ele>
        <time>2018-08-06T19:51:51Z</time>
      </trkpt>
      <trkpt lat="27.945545" lon="-15.524378">
        <ele>1198.00</ele>
        <time>2018-08-06T19:51:52Z</time>
      </trkpt>
      <trkpt lat="27.945549" lon="-15.524358">
        <ele>1197.80</ele>
        <time>2018-08-06T19:51:53Z</time>
      </trkpt>
      <trkpt lat="27.945559" lon="-15.524342">
        <ele>1197.40</ele>
        <time>2018-08-06T19:51:54Z</time>
      </trkpt>
      <trkpt lat="27.945565" lon="-15.524322">
        <ele>1197.40</ele>
        <time>2018-08-06T19:51:55Z</time>
      </trkpt>
      <trkpt lat="27.945569" lon="-15.524303">
        <ele>1197.20</ele>
        <time>2018-08-06T19:51:56Z</time>
      </trkpt>
      <trkpt lat="27.945567" lon="-15.524284">
        <ele>1197.00</ele>
        <time>2018-08-06T19:51:57Z</time>
      </trkpt>
      <trkpt lat="27.945563" lon="-15.524265">
        <ele>1196.80</ele>
        <time>2018-08-06T19:51:58Z</time>
      </trkpt>
      <trkpt lat="27.945561" lon="-15.524242">
        <ele>1196.40</ele>
        <time>2018-08-06T19:51:59Z</time>
      </trkpt>
      <trkpt lat="27.945554" lon="-15.524217">
        <ele>1196.00</ele>
        <time>2018-08-06T19:52:00Z</time>
      </trkpt>
      <trkpt lat="27.945545" lon="-15.524188">
        <ele>1195.40</ele>
        <time>2018-08-06T19:52:01Z</time>
      </trkpt>
      <trkpt lat="27.945528" lon="-15.524157">
        <ele>1194.80</ele>
        <time>2018-08-06T19:52:02Z</time>
      </trkpt>
      <trkpt lat="27.945514" lon="-15.524123">
        <ele>1194.40</ele>
        <time>2018-08-06T19:52:03Z</time>
      </trkpt>
      <trkpt lat="27.945499" lon="-15.524095">
        <ele>1193.80</ele>
        <time>2018-08-06T19:52:04Z</time>
      </trkpt>
      <trkpt lat="27.945487" lon="-15.524073">
        <ele>1193.40</ele>
        <time>2018-08-06T19:52:05Z</time>
      </trkpt>
      <trkpt lat="27.945470" lon="-15.524050">
        <ele>1192.80</ele>
        <time>2018-08-06T19:52:06Z</time>
      </trkpt>
      <trkpt lat="27.945447" lon="-15.524027">
        <ele>1192.40</ele>
        <time>2018-08-06T19:52:07Z</time>
      </trkpt>
      <trkpt lat="27.945426" lon="-15.524002">
        <ele>1192.00</ele>
        <time>2018-08-06T19:52:08Z</time>
      </trkpt>
      <trkpt lat="27.945402" lon="-15.523975">
        <ele>1191.40</ele>
        <time>2018-08-06T19:52:09Z</time>
      </trkpt>
      <trkpt lat="27.945382" lon="-15.523943">
        <ele>1191.20</ele>
        <time>2018-08-06T19:52:10Z</time>
      </trkpt>
      <trkpt lat="27.945368" lon="-15.523911">
        <ele>1190.80</ele>
        <time>2018-08-06T19:52:11Z</time>
      </trkpt>
      <trkpt lat="27.945358" lon="-15.523877">
        <ele>1190.60</ele>
        <time>2018-08-06T19:52:12Z</time>
      </trkpt>
      <trkpt lat="27.945344" lon="-15.523844">
        <ele>1190.20</ele>
        <time>2018-08-06T19:52:13Z</time>
      </trkpt>
      <trkpt lat="27.945328" lon="-15.523815">
        <ele>1189.80</ele>
        <time>2018-08-06T19:52:14Z</time>
      </trkpt>
      <trkpt lat="27.945314" lon="-15.523791">
        <ele>1189.40</ele>
        <time>2018-08-06T19:52:15Z</time>
      </trkpt>
      <trkpt lat="27.945299" lon="-15.523772">
        <ele>1188.80</ele>
        <time>2018-08-06T19:52:16Z</time>
      </trkpt>
      <trkpt lat="27.945284" lon="-15.523754">
        <ele>1188.40</ele>
        <time>2018-08-06T19:52:17Z</time>
      </trkpt>
      <trkpt lat="27.945270" lon="-15.523730">
        <ele>1188.00</ele>
        <time>2018-08-06T19:52:18Z</time>
      </trkpt>
      <trkpt lat="27.945261" lon="-15.523708">
        <ele>1187.60</ele>
        <time>2018-08-06T19:52:19Z</time>
      </trkpt>
      <trkpt lat="27.945253" lon="-15.523688">
        <ele>1187.20</ele>
        <time>2018-08-06T19:52:20Z</time>
      </trkpt>
      <trkpt lat="27.945242" lon="-15.523667">
        <ele>1187.00</ele>
        <time>2018-08-06T19:52:21Z</time>
      </trkpt>
      <trkpt lat="27.945235" lon="-15.523647">
        <ele>1186.60</ele>
        <time>2018-08-06T19:52:22Z</time>
      </trkpt>
      <trkpt lat="27.945234" lon="-15.523625">
        <ele>1186.20</ele>
        <time>2018-08-06T19:52:23Z</time>
      </trkpt>
      <trkpt lat="27.945243" lon="-15.523603">
        <ele>1186.00</ele>
        <time>2018-08-06T19:52:24Z</time>
      </trkpt>
      <trkpt lat="27.945258" lon="-15.523578">
        <ele>1185.40</ele>
        <time>2018-08-06T19:52:25Z</time>
      </trkpt>
      <trkpt lat="27.945270" lon="-15.523551">
        <ele>1185.00</ele>
        <time>2018-08-06T19:52:26Z</time>
      </trkpt>
      <trkpt lat="27.945273" lon="-15.523528">
        <ele>1184.40</ele>
        <time>2018-08-06T19:52:27Z</time>
      </trkpt>
      <trkpt lat="27.945270" lon="-15.523509">
        <ele>1184.00</ele>
        <time>2018-08-06T19:52:28Z</time>
      </trkpt>
      <trkpt lat="27.945262" lon="-15.523487">
        <ele>1183.60</ele>
        <time>2018-08-06T19:52:29Z</time>
      </trkpt>
      <trkpt lat="27.945248" lon="-15.523463">
        <ele>1183.20</ele>
        <time>2018-08-06T19:52:30Z</time>
      </trkpt>
      <trkpt lat="27.945229" lon="-15.523438">
        <ele>1183.00</ele>
        <time>2018-08-06T19:52:31Z</time>
      </trkpt>
      <trkpt lat="27.945204" lon="-15.523414">
        <ele>1182.80</ele>
        <time>2018-08-06T19:52:32Z</time>
      </trkpt>
      <trkpt lat="27.945180" lon="-15.523390">
        <ele>1182.60</ele>
        <time>2018-08-06T19:52:33Z</time>
      </trkpt>
      <trkpt lat="27.945154" lon="-15.523367">
        <ele>1182.40</ele>
        <time>2018-08-06T19:52:34Z</time>
      </trkpt>
      <trkpt lat="27.945127" lon="-15.523346">
        <ele>1182.00</ele>
        <time>2018-08-06T19:52:35Z</time>
      </trkpt>
      <trkpt lat="27.945099" lon="-15.523327">
        <ele>1181.80</ele>
        <time>2018-08-06T19:52:36Z</time>
      </trkpt>
      <trkpt lat="27.945071" lon="-15.523308">
        <ele>1181.60</ele>
        <time>2018-08-06T19:52:37Z</time>
      </trkpt>
      <trkpt lat="27.945044" lon="-15.523288">
        <ele>1181.40</ele>
        <time>2018-08-06T19:52:38Z</time>
      </trkpt>
      <trkpt lat="27.945026" lon="-15.523264">
        <ele>1181.00</ele>
        <time>2018-08-06T19:52:39Z</time>
      </trkpt>
      <trkpt lat="27.945017" lon="-15.523244">
        <ele>1181.00</ele>
        <time>2018-08-06T19:52:40Z</time>
      </trkpt>
      <trkpt lat="27.945009" lon="-15.523215">
        <ele>1180.80</ele>
        <time>2018-08-06T19:52:41Z</time>
      </trkpt>
      <trkpt lat="27.944997" lon="-15.523184">
        <ele>1180.60</ele>
        <time>2018-08-06T19:52:42Z</time>
      </trkpt>
      <trkpt lat="27.944985" lon="-15.523160">
        <ele>1180.20</ele>
        <time>2018-08-06T19:52:43Z</time>
      </trkpt>
      <trkpt lat="27.944975" lon="-15.523137">
        <ele>1179.80</ele>
        <time>2018-08-06T19:52:44Z</time>
      </trkpt>
      <trkpt lat="27.944965" lon="-15.523115">
        <ele>1179.40</ele>
        <time>2018-08-06T19:52:45Z</time>
      </trkpt>
      <trkpt lat="27.944953" lon="-15.523095">
        <ele>1179.00</ele>
        <time>2018-08-06T19:52:46Z</time>
      </trkpt>
      <trkpt lat="27.944941" lon="-15.523078">
        <ele>1178.80</ele>
        <time>2018-08-06T19:52:47Z</time>
      </trkpt>
      <trkpt lat="27.944927" lon="-15.523066">
        <ele>1178.60</ele>
        <time>2018-08-06T19:52:48Z</time>
      </trkpt>
      <trkpt lat="27.944914" lon="-15.523053">
        <ele>1178.20</ele>
        <time>2018-08-06T19:52:49Z</time>
      </trkpt>
      <trkpt lat="27.944906" lon="-15.523036">
        <ele>1177.80</ele>
        <time>2018-08-06T19:52:50Z</time>
      </trkpt>
      <trkpt lat="27.944894" lon="-15.523022">
        <ele>1177.40</ele>
        <time>2018-08-06T19:52:51Z</time>
      </trkpt>
      <trkpt lat="27.944879" lon="-15.523004">
        <ele>1177.20</ele>
        <time>2018-08-06T19:52:52Z</time>
      </trkpt>
      <trkpt lat="27.944860" lon="-15.522983">
        <ele>1176.80</ele>
        <time>2018-08-06T19:52:53Z</time>
      </trkpt>
      <trkpt lat="27.944841" lon="-15.522963">
        <ele>1176.40</ele>
        <time>2018-08-06T19:52:54Z</time>
      </trkpt>
      <trkpt lat="27.944820" lon="-15.522935">
        <ele>1176.20</ele>
        <time>2018-08-06T19:52:55Z</time>
      </trkpt>
      <trkpt lat="27.944801" lon="-15.522913">
        <ele>1176.20</ele>
        <time>2018-08-06T19:52:56Z</time>
      </trkpt>
      <trkpt lat="27.944780" lon="-15.522891">
        <ele>1176.20</ele>
        <time>2018-08-06T19:52:57Z</time>
      </trkpt>
      <trkpt lat="27.944756" lon="-15.522867">
        <ele>1176.40</ele>
        <time>2018-08-06T19:52:58Z</time>
      </trkpt>
      <trkpt lat="27.944728" lon="-15.522823">
        <ele>1176.60</ele>
        <time>2018-08-06T19:52:59Z</time>
      </trkpt>
      <trkpt lat="27.944703" lon="-15.522791">
        <ele>1176.60</ele>
        <time>2018-08-06T19:53:00Z</time>
      </trkpt>
      <trkpt lat="27.944679" lon="-15.522757">
        <ele>1176.80</ele>
        <time>2018-08-06T19:53:01Z</time>
      </trkpt>
      <trkpt lat="27.944656" lon="-15.522728">
        <ele>1176.80</ele>
        <time>2018-08-06T19:53:02Z</time>
      </trkpt>
      <trkpt lat="27.944632" lon="-15.522697">
        <ele>1176.80</ele>
        <time>2018-08-06T19:53:03Z</time>
      </trkpt>
      <trkpt lat="27.944607" lon="-15.522670">
        <ele>1177.00</ele>
        <time>2018-08-06T19:53:04Z</time>
      </trkpt>
      <trkpt lat="27.944579" lon="-15.522633">
        <ele>1176.80</ele>
        <time>2018-08-06T19:53:05Z</time>
      </trkpt>
      <trkpt lat="27.944550" lon="-15.522602">
        <ele>1177.00</ele>
        <time>2018-08-06T19:53:06Z</time>
      </trkpt>
      <trkpt lat="27.944518" lon="-15.522565">
        <ele>1177.00</ele>
        <time>2018-08-06T19:53:07Z</time>
      </trkpt>
      <trkpt lat="27.944487" lon="-15.522537">
        <ele>1177.00</ele>
        <time>2018-08-06T19:53:08Z</time>
      </trkpt>
      <trkpt lat="27.944455" lon="-15.522508">
        <ele>1176.80</ele>
        <time>2018-08-06T19:53:09Z</time>
      </trkpt>
      <trkpt lat="27.944423" lon="-15.522481">
        <ele>1176.40</ele>
        <time>2018-08-06T19:53:10Z</time>
      </trkpt>
      <trkpt lat="27.944393" lon="-15.522454">
        <ele>1176.00</ele>
        <time>2018-08-06T19:53:11Z</time>
      </trkpt>
      <trkpt lat="27.944364" lon="-15.522429">
        <ele>1175.60</ele>
        <time>2018-08-06T19:53:12Z</time>
      </trkpt>
      <trkpt lat="27.944335" lon="-15.522401">
        <ele>1175.20</ele>
        <time>2018-08-06T19:53:13Z</time>
      </trkpt>
      <trkpt lat="27.944307" lon="-15.522372">
        <ele>1174.40</ele>
        <time>2018-08-06T19:53:14Z</time>
      </trkpt>
      <trkpt lat="27.944287" lon="-15.522349">
        <ele>1173.60</ele>
        <time>2018-08-06T19:53:15Z</time>
      </trkpt>
      <trkpt lat="27.944263" lon="-15.522326">
        <ele>1172.80</ele>
        <time>2018-08-06T19:53:16Z</time>
      </trkpt>
      <trkpt lat="27.944240" lon="-15.522309">
        <ele>1172.20</ele>
        <time>2018-08-06T19:53:17Z</time>
      </trkpt>
      <trkpt lat="27.944215" lon="-15.522293">
        <ele>1171.40</ele>
        <time>2018-08-06T19:53:18Z</time>
      </trkpt>
      <trkpt lat="27.944186" lon="-15.522276">
        <ele>1170.60</ele>
        <time>2018-08-06T19:53:19Z</time>
      </trkpt>
      <trkpt lat="27.944159" lon="-15.522257">
        <ele>1170.00</ele>
        <time>2018-08-06T19:53:20Z</time>
      </trkpt>
      <trkpt lat="27.944134" lon="-15.522238">
        <ele>1169.20</ele>
        <time>2018-08-06T19:53:21Z</time>
      </trkpt>
      <trkpt lat="27.944110" lon="-15.522166">
        <ele>1168.20</ele>
        <time>2018-08-06T19:53:22Z</time>
      </trkpt>
      <trkpt lat="27.944083" lon="-15.522155">
        <ele>1167.00</ele>
        <time>2018-08-06T19:53:23Z</time>
      </trkpt>
      <trkpt lat="27.944055" lon="-15.522131">
        <ele>1166.20</ele>
        <time>2018-08-06T19:53:24Z</time>
      </trkpt>
      <trkpt lat="27.944025" lon="-15.522114">
        <ele>1165.20</ele>
        <time>2018-08-06T19:53:25Z</time>
      </trkpt>
      <trkpt lat="27.943996" lon="-15.522093">
        <ele>1164.40</ele>
        <time>2018-08-06T19:53:26Z</time>
      </trkpt>
      <trkpt lat="27.943968" lon="-15.522067">
        <ele>1163.80</ele>
        <time>2018-08-06T19:53:27Z</time>
      </trkpt>
      <trkpt lat="27.943943" lon="-15.522040">
        <ele>1163.20</ele>
        <time>2018-08-06T19:53:28Z</time>
      </trkpt>
      <trkpt lat="27.943921" lon="-15.521987">
        <ele>1162.60</ele>
        <time>2018-08-06T19:53:29Z</time>
      </trkpt>
      <trkpt lat="27.943892" lon="-15.521956">
        <ele>1161.80</ele>
        <time>2018-08-06T19:53:30Z</time>
      </trkpt>
      <trkpt lat="27.943863" lon="-15.521924">
        <ele>1160.80</ele>
        <time>2018-08-06T19:53:31Z</time>
      </trkpt>
      <trkpt lat="27.943833" lon="-15.521898">
        <ele>1160.00</ele>
        <time>2018-08-06T19:53:32Z</time>
      </trkpt>
      <trkpt lat="27.943806" lon="-15.521867">
        <ele>1159.20</ele>
        <time>2018-08-06T19:53:33Z</time>
      </trkpt>
      <trkpt lat="27.943777" lon="-15.521837">
        <ele>1158.60</ele>
        <time>2018-08-06T19:53:34Z</time>
      </trkpt>
      <trkpt lat="27.943749" lon="-15.521810">
        <ele>1158.00</ele>
        <time>2018-08-06T19:53:35Z</time>
      </trkpt>
      <trkpt lat="27.943721" lon="-15.521788">
        <ele>1157.60</ele>
        <time>2018-08-06T19:53:36Z</time>
      </trkpt>
      <trkpt lat="27.943693" lon="-15.521762">
        <ele>1156.80</ele>
        <time>2018-08-06T19:53:37Z</time>
      </trkpt>
      <trkpt lat="27.943667" lon="-15.521736">
        <ele>1156.40</ele>
        <time>2018-08-06T19:53:38Z</time>
      </trkpt>
      <trkpt lat="27.943642" lon="-15.521708">
        <ele>1155.80</ele>
        <time>2018-08-06T19:53:39Z</time>
      </trkpt>
      <trkpt lat="27.943612" lon="-15.521686">
        <ele>1155.40</ele>
        <time>2018-08-06T19:53:40Z</time>
      </trkpt>
      <trkpt lat="27.943578" lon="-15.521665">
        <ele>1154.60</ele>
        <time>2018-08-06T19:53:41Z</time>
      </trkpt>
      <trkpt lat="27.943546" lon="-15.521644">
        <ele>1154.00</ele>
        <time>2018-08-06T19:53:42Z</time>
      </trkpt>
      <trkpt lat="27.943511" lon="-15.521629">
        <ele>1153.20</ele>
        <time>2018-08-06T19:53:43Z</time>
      </trkpt>
      <trkpt lat="27.943477" lon="-15.521615">
        <ele>1152.60</ele>
        <time>2018-08-06T19:53:44Z</time>
      </trkpt>
      <trkpt lat="27.943444" lon="-15.521600">
        <ele>1152.00</ele>
        <time>2018-08-06T19:53:45Z</time>
      </trkpt>
      <trkpt lat="27.943412" lon="-15.521588">
        <ele>1151.20</ele>
        <time>2018-08-06T19:53:46Z</time>
      </trkpt>
      <trkpt lat="27.943381" lon="-15.521578">
        <ele>1150.40</ele>
        <time>2018-08-06T19:53:47Z</time>
      </trkpt>
      <trkpt lat="27.943349" lon="-15.521575">
        <ele>1149.60</ele>
        <time>2018-08-06T19:53:48Z</time>
      </trkpt>
      <trkpt lat="27.943317" lon="-15.521574">
        <ele>1149.00</ele>
        <time>2018-08-06T19:53:49Z</time>
      </trkpt>
      <trkpt lat="27.943289" lon="-15.521568">
        <ele>1148.20</ele>
        <time>2018-08-06T19:53:50Z</time>
      </trkpt>
      <trkpt lat="27.943261" lon="-15.521560">
        <ele>1147.40</ele>
        <time>2018-08-06T19:53:51Z</time>
      </trkpt>
      <trkpt lat="27.943234" lon="-15.521546">
        <ele>1146.60</ele>
        <time>2018-08-06T19:53:52Z</time>
      </trkpt>
      <trkpt lat="27.943208" lon="-15.521525">
        <ele>1145.80</ele>
        <time>2018-08-06T19:53:53Z</time>
      </trkpt>
      <trkpt lat="27.943185" lon="-15.521495">
        <ele>1145.00</ele>
        <time>2018-08-06T19:53:54Z</time>
      </trkpt>
      <trkpt lat="27.943163" lon="-15.521458">
        <ele>1144.20</ele>
        <time>2018-08-06T19:53:55Z</time>
      </trkpt>
      <trkpt lat="27.943141" lon="-15.521418">
        <ele>1143.40</ele>
        <time>2018-08-06T19:53:56Z</time>
      </trkpt>
      <trkpt lat="27.943124" lon="-15.521377">
        <ele>1143.00</ele>
        <time>2018-08-06T19:53:57Z</time>
      </trkpt>
      <trkpt lat="27.943113" lon="-15.521338">
        <ele>1142.80</ele>
        <time>2018-08-06T19:53:58Z</time>
      </trkpt>
      <trkpt lat="27.943105" lon="-15.521300">
        <ele>1142.60</ele>
        <time>2018-08-06T19:53:59Z</time>
      </trkpt>
      <trkpt lat="27.943100" lon="-15.521261">
        <ele>1142.60</ele>
        <time>2018-08-06T19:54:00Z</time>
      </trkpt>
      <trkpt lat="27.943099" lon="-15.521223">
        <ele>1142.60</ele>
        <time>2018-08-06T19:54:01Z</time>
      </trkpt>
      <trkpt lat="27.943100" lon="-15.521188">
        <ele>1142.80</ele>
        <time>2018-08-06T19:54:02Z</time>
      </trkpt>
      <trkpt lat="27.943098" lon="-15.521154">
        <ele>1142.80</ele>
        <time>2018-08-06T19:54:03Z</time>
      </trkpt>
      <trkpt lat="27.943097" lon="-15.521122">
        <ele>1143.20</ele>
        <time>2018-08-06T19:54:04Z</time>
      </trkpt>
      <trkpt lat="27.943088" lon="-15.521087">
        <ele>1143.20</ele>
        <time>2018-08-06T19:54:05Z</time>
      </trkpt>
      <trkpt lat="27.943082" lon="-15.521052">
        <ele>1143.60</ele>
        <time>2018-08-06T19:54:06Z</time>
      </trkpt>
      <trkpt lat="27.943073" lon="-15.521017">
        <ele>1143.80</ele>
        <time>2018-08-06T19:54:07Z</time>
      </trkpt>
      <trkpt lat="27.943065" lon="-15.520981">
        <ele>1144.20</ele>
        <time>2018-08-06T19:54:08Z</time>
      </trkpt>
      <trkpt lat="27.943051" lon="-15.520948">
        <ele>1144.40</ele>
        <time>2018-08-06T19:54:09Z</time>
      </trkpt>
      <trkpt lat="27.943039" lon="-15.520919">
        <ele>1144.80</ele>
        <time>2018-08-06T19:54:10Z</time>
      </trkpt>
      <trkpt lat="27.943024" lon="-15.520892">
        <ele>1145.00</ele>
        <time>2018-08-06T19:54:11Z</time>
      </trkpt>
      <trkpt lat="27.943009" lon="-15.520859">
        <ele>1145.20</ele>
        <time>2018-08-06T19:54:12Z</time>
      </trkpt>
      <trkpt lat="27.942989" lon="-15.520830">
        <ele>1145.40</ele>
        <time>2018-08-06T19:54:13Z</time>
      </trkpt>
      <trkpt lat="27.942967" lon="-15.520801">
        <ele>1145.40</ele>
        <time>2018-08-06T19:54:14Z</time>
      </trkpt>
      <trkpt lat="27.942942" lon="-15.520773">
        <ele>1145.60</ele>
        <time>2018-08-06T19:54:15Z</time>
      </trkpt>
      <trkpt lat="27.942913" lon="-15.520748">
        <ele>1145.80</ele>
        <time>2018-08-06T19:54:16Z</time>
      </trkpt>
      <trkpt lat="27.942884" lon="-15.520722">
        <ele>1145.80</ele>
        <time>2018-08-06T19:54:17Z</time>
      </trkpt>
      <trkpt lat="27.942855" lon="-15.520699">
        <ele>1145.80</ele>
        <time>2018-08-06T19:54:18Z</time>
      </trkpt>
      <trkpt lat="27.942829" lon="-15.520679">
        <ele>1145.60</ele>
        <time>2018-08-06T19:54:19Z</time>
      </trkpt>
      <trkpt lat="27.942803" lon="-15.520663">
        <ele>1145.60</ele>
        <time>2018-08-06T19:54:20Z</time>
      </trkpt>
      <trkpt lat="27.942781" lon="-15.520644">
        <ele>1145.60</ele>
        <time>2018-08-06T19:54:21Z</time>
      </trkpt>
      <trkpt lat="27.942760" lon="-15.520617">
        <ele>1145.80</ele>
        <time>2018-08-06T19:54:22Z</time>
      </trkpt>
      <trkpt lat="27.942737" lon="-15.520590">
        <ele>1146.00</ele>
        <time>2018-08-06T19:54:23Z</time>
      </trkpt>
      <trkpt lat="27.942715" lon="-15.520565">
        <ele>1146.40</ele>
        <time>2018-08-06T19:54:24Z</time>
      </trkpt>
      <trkpt lat="27.942696" lon="-15.520541">
        <ele>1146.60</ele>
        <time>2018-08-06T19:54:25Z</time>
      </trkpt>
      <trkpt lat="27.942677" lon="-15.520514">
        <ele>1146.80</ele>
        <time>2018-08-06T19:54:26Z</time>
      </trkpt>
      <trkpt lat="27.942659" lon="-15.520486">
        <ele>1146.60</ele>
        <time>2018-08-06T19:54:27Z</time>
      </trkpt>
      <trkpt lat="27.942640" lon="-15.520454">
        <ele>1146.60</ele>
        <time>2018-08-06T19:54:28Z</time>
      </trkpt>
      <trkpt lat="27.942616" lon="-15.520421">
        <ele>1146.40</ele>
        <time>2018-08-06T19:54:29Z</time>
      </trkpt>
      <trkpt lat="27.942589" lon="-15.520394">
        <ele>1146.00</ele>
        <time>2018-08-06T19:54:30Z</time>
      </trkpt>
      <trkpt lat="27.942557" lon="-15.520376">
        <ele>1145.80</ele>
        <time>2018-08-06T19:54:31Z</time>
      </trkpt>
      <trkpt lat="27.942525" lon="-15.520368">
        <ele>1145.80</ele>
        <time>2018-08-06T19:54:32Z</time>
      </trkpt>
      <trkpt lat="27.942489" lon="-15.520366">
        <ele>1145.60</ele>
        <time>2018-08-06T19:54:33Z</time>
      </trkpt>
      <trkpt lat="27.942458" lon="-15.520358">
        <ele>1145.40</ele>
        <time>2018-08-06T19:54:34Z</time>
      </trkpt>
      <trkpt lat="27.942429" lon="-15.520347">
        <ele>1145.40</ele>
        <time>2018-08-06T19:54:35Z</time>
      </trkpt>
      <trkpt lat="27.942398" lon="-15.520334">
        <ele>1145.20</ele>
        <time>2018-08-06T19:54:36Z</time>
      </trkpt>
      <trkpt lat="27.942372" lon="-15.520318">
        <ele>1144.80</ele>
        <time>2018-08-06T19:54:37Z</time>
      </trkpt>
      <trkpt lat="27.942344" lon="-15.520305">
        <ele>1144.60</ele>
        <time>2018-08-06T19:54:38Z</time>
      </trkpt>
      <trkpt lat="27.942311" lon="-15.520288">
        <ele>1144.00</ele>
        <time>2018-08-06T19:54:39Z</time>
      </trkpt>
      <trkpt lat="27.942277" lon="-15.520276">
        <ele>1143.40</ele>
        <time>2018-08-06T19:54:40Z</time>
      </trkpt>
      <trkpt lat="27.942243" lon="-15.520265">
        <ele>1142.80</ele>
        <time>2018-08-06T19:54:41Z</time>
      </trkpt>
      <trkpt lat="27.942208" lon="-15.520256">
        <ele>1142.20</ele>
        <time>2018-08-06T19:54:42Z</time>
      </trkpt>
      <trkpt lat="27.942172" lon="-15.520251">
        <ele>1141.60</ele>
        <time>2018-08-06T19:54:43Z</time>
      </trkpt>
      <trkpt lat="27.942135" lon="-15.520248">
        <ele>1141.20</ele>
        <time>2018-08-06T19:54:44Z</time>
      </trkpt>
      <trkpt lat="27.942100" lon="-15.520245">
        <ele>1140.60</ele>
        <time>2018-08-06T19:54:45Z</time>
      </trkpt>
      <trkpt lat="27.942063" lon="-15.520244">
        <ele>1140.00</ele>
        <time>2018-08-06T19:54:46Z</time>
      </trkpt>
      <trkpt lat="27.942031" lon="-15.520243">
        <ele>1139.40</ele>
        <time>2018-08-06T19:54:47Z</time>
      </trkpt>
      <trkpt lat="27.941997" lon="-15.520241">
        <ele>1138.60</ele>
        <time>2018-08-06T19:54:48Z</time>
      </trkpt>
      <trkpt lat="27.941973" lon="-15.520223">
        <ele>1138.20</ele>
        <time>2018-08-06T19:54:49Z</time>
      </trkpt>
      <trkpt lat="27.941955" lon="-15.520195">
        <ele>1137.80</ele>
        <time>2018-08-06T19:54:50Z</time>
      </trkpt>
      <trkpt lat="27.941936" lon="-15.520168">
        <ele>1137.60</ele>
        <time>2018-08-06T19:54:51Z</time>
      </trkpt>
      <trkpt lat="27.941916" lon="-15.520143">
        <ele>1137.20</ele>
        <time>2018-08-06T19:54:52Z</time>
      </trkpt>
      <trkpt lat="27.941893" lon="-15.520121">
        <ele>1136.80</ele>
        <time>2018-08-06T19:54:53Z</time>
      </trkpt>
      <trkpt lat="27.941864" lon="-15.520103">
        <ele>1136.60</ele>
        <time>2018-08-06T19:54:54Z</time>
      </trkpt>
      <trkpt lat="27.941837" lon="-15.520081">
        <ele>1136.20</ele>
        <time>2018-08-06T19:54:55Z</time>
      </trkpt>
      <trkpt lat="27.941810" lon="-15.520053">
        <ele>1136.00</ele>
        <time>2018-08-06T19:54:56Z</time>
      </trkpt>
      <trkpt lat="27.941782" lon="-15.520017">
        <ele>1135.60</ele>
        <time>2018-08-06T19:54:57Z</time>
      </trkpt>
      <trkpt lat="27.941761" lon="-15.519979">
        <ele>1135.00</ele>
        <time>2018-08-06T19:54:58Z</time>
      </trkpt>
      <trkpt lat="27.941735" lon="-15.519942">
        <ele>1134.40</ele>
        <time>2018-08-06T19:54:59Z</time>
      </trkpt>
      <trkpt lat="27.941712" lon="-15.519911">
        <ele>1134.00</ele>
        <time>2018-08-06T19:55:00Z</time>
      </trkpt>
      <trkpt lat="27.941685" lon="-15.519881">
        <ele>1133.60</ele>
        <time>2018-08-06T19:55:01Z</time>
      </trkpt>
      <trkpt lat="27.941656" lon="-15.519849">
        <ele>1133.20</ele>
        <time>2018-08-06T19:55:02Z</time>
      </trkpt>
      <trkpt lat="27.941626" lon="-15.519822">
        <ele>1132.80</ele>
        <time>2018-08-06T19:55:03Z</time>
      </trkpt>
      <trkpt lat="27.941598" lon="-15.519794">
        <ele>1132.60</ele>
        <time>2018-08-06T19:55:04Z</time>
      </trkpt>
      <trkpt lat="27.941569" lon="-15.519769">
        <ele>1132.40</ele>
        <time>2018-08-06T19:55:05Z</time>
      </trkpt>
      <trkpt lat="27.941535" lon="-15.519743">
        <ele>1132.20</ele>
        <time>2018-08-06T19:55:06Z</time>
      </trkpt>
      <trkpt lat="27.941501" lon="-15.519716">
        <ele>1132.00</ele>
        <time>2018-08-06T19:55:07Z</time>
      </trkpt>
      <trkpt lat="27.941472" lon="-15.519687">
        <ele>1131.80</ele>
        <time>2018-08-06T19:55:08Z</time>
      </trkpt>
      <trkpt lat="27.941439" lon="-15.519656">
        <ele>1131.60</ele>
        <time>2018-08-06T19:55:09Z</time>
      </trkpt>
      <trkpt lat="27.941409" lon="-15.519623">
        <ele>1131.40</ele>
        <time>2018-08-06T19:55:10Z</time>
      </trkpt>
      <trkpt lat="27.941377" lon="-15.519595">
        <ele>1130.80</ele>
        <time>2018-08-06T19:55:11Z</time>
      </trkpt>
      <trkpt lat="27.941345" lon="-15.519566">
        <ele>1130.40</ele>
        <time>2018-08-06T19:55:12Z</time>
      </trkpt>
      <trkpt lat="27.941310" lon="-15.519530">
        <ele>1129.80</ele>
        <time>2018-08-06T19:55:13Z</time>
      </trkpt>
      <trkpt lat="27.941281" lon="-15.519494">
        <ele>1129.40</ele>
        <time>2018-08-06T19:55:14Z</time>
      </trkpt>
      <trkpt lat="27.941258" lon="-15.519457">
        <ele>1129.00</ele>
        <time>2018-08-06T19:55:15Z</time>
      </trkpt>
      <trkpt lat="27.941237" lon="-15.519421">
        <ele>1128.60</ele>
        <time>2018-08-06T19:55:16Z</time>
      </trkpt>
      <trkpt lat="27.941220" lon="-15.519385">
        <ele>1128.40</ele>
        <time>2018-08-06T19:55:17Z</time>
      </trkpt>
      <trkpt lat="27.941198" lon="-15.519349">
        <ele>1128.20</ele>
        <time>2018-08-06T19:55:18Z</time>
      </trkpt>
      <trkpt lat="27.941178" lon="-15.519309">
        <ele>1128.00</ele>
        <time>2018-08-06T19:55:19Z</time>
      </trkpt>
      <trkpt lat="27.941164" lon="-15.519269">
        <ele>1127.80</ele>
        <time>2018-08-06T19:55:20Z</time>
      </trkpt>
      <trkpt lat="27.941149" lon="-15.519231">
        <ele>1127.40</ele>
        <time>2018-08-06T19:55:21Z</time>
      </trkpt>
      <trkpt lat="27.941132" lon="-15.519198">
        <ele>1127.40</ele>
        <time>2018-08-06T19:55:22Z</time>
      </trkpt>
      <trkpt lat="27.941110" lon="-15.519167">
        <ele>1127.20</ele>
        <time>2018-08-06T19:55:23Z</time>
      </trkpt>
      <trkpt lat="27.941085" lon="-15.519139">
        <ele>1127.20</ele>
        <time>2018-08-06T19:55:24Z</time>
      </trkpt>
      <trkpt lat="27.941058" lon="-15.519113">
        <ele>1127.20</ele>
        <time>2018-08-06T19:55:25Z</time>
      </trkpt>
      <trkpt lat="27.941032" lon="-15.519084">
        <ele>1127.20</ele>
        <time>2018-08-06T19:55:26Z</time>
      </trkpt>
      <trkpt lat="27.941011" lon="-15.519052">
        <ele>1127.20</ele>
        <time>2018-08-06T19:55:27Z</time>
      </trkpt>
      <trkpt lat="27.940988" lon="-15.519017">
        <ele>1127.20</ele>
        <time>2018-08-06T19:55:28Z</time>
      </trkpt>
      <trkpt lat="27.940966" lon="-15.518982">
        <ele>1127.00</ele>
        <time>2018-08-06T19:55:29Z</time>
      </trkpt>
      <trkpt lat="27.940939" lon="-15.518954">
        <ele>1127.00</ele>
        <time>2018-08-06T19:55:30Z</time>
      </trkpt>
      <trkpt lat="27.940912" lon="-15.518929">
        <ele>1126.60</ele>
        <time>2018-08-06T19:55:31Z</time>
      </trkpt>
      <trkpt lat="27.940885" lon="-15.518904">
        <ele>1126.60</ele>
        <time>2018-08-06T19:55:32Z</time>
      </trkpt>
      <trkpt lat="27.940859" lon="-15.518879">
        <ele>1126.40</ele>
        <time>2018-08-06T19:55:33Z</time>
      </trkpt>
      <trkpt lat="27.940833" lon="-15.518852">
        <ele>1126.40</ele>
        <time>2018-08-06T19:55:34Z</time>
      </trkpt>
      <trkpt lat="27.940809" lon="-15.518823">
        <ele>1126.20</ele>
        <time>2018-08-06T19:55:35Z</time>
      </trkpt>
      <trkpt lat="27.940789" lon="-15.518793">
        <ele>1125.80</ele>
        <time>2018-08-06T19:55:36Z</time>
      </trkpt>
      <trkpt lat="27.940772" lon="-15.518759">
        <ele>1125.40</ele>
        <time>2018-08-06T19:55:37Z</time>
      </trkpt>
      <trkpt lat="27.940750" lon="-15.518727">
        <ele>1124.60</ele>
        <time>2018-08-06T19:55:38Z</time>
      </trkpt>
      <trkpt lat="27.940724" lon="-15.518700">
        <ele>1124.00</ele>
        <time>2018-08-06T19:55:39Z</time>
      </trkpt>
      <trkpt lat="27.940691" lon="-15.518685">
        <ele>1123.40</ele>
        <time>2018-08-06T19:55:40Z</time>
      </trkpt>
      <trkpt lat="27.940657" lon="-15.518682">
        <ele>1122.80</ele>
        <time>2018-08-06T19:55:41Z</time>
      </trkpt>
      <trkpt lat="27.940624" lon="-15.518681">
        <ele>1122.20</ele>
        <time>2018-08-06T19:55:42Z</time>
      </trkpt>
      <trkpt lat="27.940591" lon="-15.518677">
        <ele>1121.60</ele>
        <time>2018-08-06T19:55:43Z</time>
      </trkpt>
      <trkpt lat="27.940556" lon="-15.518670">
        <ele>1121.40</ele>
        <time>2018-08-06T19:55:44Z</time>
      </trkpt>
      <trkpt lat="27.940527" lon="-15.518661">
        <ele>1121.40</ele>
        <time>2018-08-06T19:55:45Z</time>
      </trkpt>
      <trkpt lat="27.940496" lon="-15.518648">
        <ele>1121.20</ele>
        <time>2018-08-06T19:55:46Z</time>
      </trkpt>
      <trkpt lat="27.940466" lon="-15.518633">
        <ele>1121.20</ele>
        <time>2018-08-06T19:55:47Z</time>
      </trkpt>
      <trkpt lat="27.940435" lon="-15.518613">
        <ele>1121.20</ele>
        <time>2018-08-06T19:55:48Z</time>
      </trkpt>
      <trkpt lat="27.940404" lon="-15.518595">
        <ele>1121.20</ele>
        <time>2018-08-06T19:55:49Z</time>
      </trkpt>
      <trkpt lat="27.940373" lon="-15.518576">
        <ele>1121.20</ele>
        <time>2018-08-06T19:55:50Z</time>
      </trkpt>
      <trkpt lat="27.940342" lon="-15.518561">
        <ele>1121.00</ele>
        <time>2018-08-06T19:55:51Z</time>
      </trkpt>
      <trkpt lat="27.940315" lon="-15.518545">
        <ele>1120.80</ele>
        <time>2018-08-06T19:55:52Z</time>
      </trkpt>
      <trkpt lat="27.940285" lon="-15.518532">
        <ele>1120.80</ele>
        <time>2018-08-06T19:55:53Z</time>
      </trkpt>
      <trkpt lat="27.940255" lon="-15.518523">
        <ele>1120.80</ele>
        <time>2018-08-06T19:55:54Z</time>
      </trkpt>
      <trkpt lat="27.940225" lon="-15.518504">
        <ele>1120.60</ele>
        <time>2018-08-06T19:55:55Z</time>
      </trkpt>
      <trkpt lat="27.940199" lon="-15.518487">
        <ele>1120.60</ele>
        <time>2018-08-06T19:55:56Z</time>
      </trkpt>
      <trkpt lat="27.940170" lon="-15.518464">
        <ele>1120.60</ele>
        <time>2018-08-06T19:55:57Z</time>
      </trkpt>
      <trkpt lat="27.940141" lon="-15.518445">
        <ele>1120.40</ele>
        <time>2018-08-06T19:55:58Z</time>
      </trkpt>
      <trkpt lat="27.940113" lon="-15.518428">
        <ele>1120.40</ele>
        <time>2018-08-06T19:55:59Z</time>
      </trkpt>
      <trkpt lat="27.940085" lon="-15.518408">
        <ele>1120.40</ele>
        <time>2018-08-06T19:56:00Z</time>
      </trkpt>
      <trkpt lat="27.940059" lon="-15.518390">
        <ele>1120.20</ele>
        <time>2018-08-06T19:56:01Z</time>
      </trkpt>
      <trkpt lat="27.940031" lon="-15.518371">
        <ele>1120.00</ele>
        <time>2018-08-06T19:56:02Z</time>
      </trkpt>
      <trkpt lat="27.940002" lon="-15.518352">
        <ele>1120.00</ele>
        <time>2018-08-06T19:56:03Z</time>
      </trkpt>
      <trkpt lat="27.939970" lon="-15.518330">
        <ele>1119.60</ele>
        <time>2018-08-06T19:56:04Z</time>
      </trkpt>
      <trkpt lat="27.939939" lon="-15.518309">
        <ele>1119.60</ele>
        <time>2018-08-06T19:56:05Z</time>
      </trkpt>
      <trkpt lat="27.939904" lon="-15.518290">
        <ele>1119.20</ele>
        <time>2018-08-06T19:56:06Z</time>
      </trkpt>
      <trkpt lat="27.939876" lon="-15.518264">
        <ele>1119.00</ele>
        <time>2018-08-06T19:56:07Z</time>
      </trkpt>
      <trkpt lat="27.939849" lon="-15.518237">
        <ele>1118.80</ele>
        <time>2018-08-06T19:56:08Z</time>
      </trkpt>
      <trkpt lat="27.939821" lon="-15.518213">
        <ele>1118.40</ele>
        <time>2018-08-06T19:56:09Z</time>
      </trkpt>
      <trkpt lat="27.939790" lon="-15.518193">
        <ele>1117.80</ele>
        <time>2018-08-06T19:56:10Z</time>
      </trkpt>
      <trkpt lat="27.939764" lon="-15.518168">
        <ele>1117.20</ele>
        <time>2018-08-06T19:56:11Z</time>
      </trkpt>
      <trkpt lat="27.939736" lon="-15.518142">
        <ele>1117.00</ele>
        <time>2018-08-06T19:56:12Z</time>
      </trkpt>
      <trkpt lat="27.939708" lon="-15.518121">
        <ele>1116.80</ele>
        <time>2018-08-06T19:56:13Z</time>
      </trkpt>
      <trkpt lat="27.939681" lon="-15.518102">
        <ele>1116.60</ele>
        <time>2018-08-06T19:56:14Z</time>
      </trkpt>
      <trkpt lat="27.939649" lon="-15.518087">
        <ele>1116.20</ele>
        <time>2018-08-06T19:56:15Z</time>
      </trkpt>
      <trkpt lat="27.939625" lon="-15.518067">
        <ele>1115.80</ele>
        <time>2018-08-06T19:56:16Z</time>
      </trkpt>
      <trkpt lat="27.939605" lon="-15.518043">
        <ele>1115.40</ele>
        <time>2018-08-06T19:56:17Z</time>
      </trkpt>
      <trkpt lat="27.939587" lon="-15.518014">
        <ele>1114.80</ele>
        <time>2018-08-06T19:56:18Z</time>
      </trkpt>
      <trkpt lat="27.939587" lon="-15.517973">
        <ele>1114.40</ele>
        <time>2018-08-06T19:56:19Z</time>
      </trkpt>
      <trkpt lat="27.939589" lon="-15.517935">
        <ele>1114.20</ele>
        <time>2018-08-06T19:56:20Z</time>
      </trkpt>
      <trkpt lat="27.939598" lon="-15.517896">
        <ele>1113.80</ele>
        <time>2018-08-06T19:56:21Z</time>
      </trkpt>
      <trkpt lat="27.939619" lon="-15.517855">
        <ele>1113.40</ele>
        <time>2018-08-06T19:56:22Z</time>
      </trkpt>
      <trkpt lat="27.939634" lon="-15.517821">
        <ele>1113.00</ele>
        <time>2018-08-06T19:56:23Z</time>
      </trkpt>
      <trkpt lat="27.939655" lon="-15.517792">
        <ele>1112.40</ele>
        <time>2018-08-06T19:56:24Z</time>
      </trkpt>
      <trkpt lat="27.939673" lon="-15.517761">
        <ele>1112.00</ele>
        <time>2018-08-06T19:56:25Z</time>
      </trkpt>
      <trkpt lat="27.939686" lon="-15.517724">
        <ele>1111.60</ele>
        <time>2018-08-06T19:56:26Z</time>
      </trkpt>
      <trkpt lat="27.939696" lon="-15.517686">
        <ele>1111.20</ele>
        <time>2018-08-06T19:56:27Z</time>
      </trkpt>
      <trkpt lat="27.939702" lon="-15.517647">
        <ele>1111.00</ele>
        <time>2018-08-06T19:56:28Z</time>
      </trkpt>
      <trkpt lat="27.939704" lon="-15.517613">
        <ele>1110.60</ele>
        <time>2018-08-06T19:56:29Z</time>
      </trkpt>
      <trkpt lat="27.939707" lon="-15.517578">
        <ele>1110.20</ele>
        <time>2018-08-06T19:56:30Z</time>
      </trkpt>
      <trkpt lat="27.939717" lon="-15.517546">
        <ele>1109.80</ele>
        <time>2018-08-06T19:56:31Z</time>
      </trkpt>
      <trkpt lat="27.939731" lon="-15.517518">
        <ele>1109.20</ele>
        <time>2018-08-06T19:56:32Z</time>
      </trkpt>
      <trkpt lat="27.939746" lon="-15.517491">
        <ele>1108.60</ele>
        <time>2018-08-06T19:56:33Z</time>
      </trkpt>
      <trkpt lat="27.939768" lon="-15.517466">
        <ele>1107.80</ele>
        <time>2018-08-06T19:56:34Z</time>
      </trkpt>
      <trkpt lat="27.939789" lon="-15.517431">
        <ele>1107.40</ele>
        <time>2018-08-06T19:56:35Z</time>
      </trkpt>
      <trkpt lat="27.939807" lon="-15.517390">
        <ele>1107.00</ele>
        <time>2018-08-06T19:56:36Z</time>
      </trkpt>
      <trkpt lat="27.939825" lon="-15.517350">
        <ele>1106.40</ele>
        <time>2018-08-06T19:56:37Z</time>
      </trkpt>
      <trkpt lat="27.939846" lon="-15.517308">
        <ele>1105.80</ele>
        <time>2018-08-06T19:56:38Z</time>
      </trkpt>
      <trkpt lat="27.939864" lon="-15.517265">
        <ele>1105.40</ele>
        <time>2018-08-06T19:56:39Z</time>
      </trkpt>
      <trkpt lat="27.939882" lon="-15.517224">
        <ele>1104.80</ele>
        <time>2018-08-06T19:56:40Z</time>
      </trkpt>
      <trkpt lat="27.939898" lon="-15.517180">
        <ele>1104.20</ele>
        <time>2018-08-06T19:56:41Z</time>
      </trkpt>
      <trkpt lat="27.939912" lon="-15.517132">
        <ele>1103.60</ele>
        <time>2018-08-06T19:56:42Z</time>
      </trkpt>
      <trkpt lat="27.939924" lon="-15.517085">
        <ele>1102.80</ele>
        <time>2018-08-06T19:56:43Z</time>
      </trkpt>
      <trkpt lat="27.939933" lon="-15.517037">
        <ele>1102.40</ele>
        <time>2018-08-06T19:56:44Z</time>
      </trkpt>
      <trkpt lat="27.939945" lon="-15.516995">
        <ele>1102.00</ele>
        <time>2018-08-06T19:56:45Z</time>
      </trkpt>
      <trkpt lat="27.939958" lon="-15.516953">
        <ele>1101.60</ele>
        <time>2018-08-06T19:56:46Z</time>
      </trkpt>
      <trkpt lat="27.939976" lon="-15.516915">
        <ele>1101.00</ele>
        <time>2018-08-06T19:56:47Z</time>
      </trkpt>
      <trkpt lat="27.939990" lon="-15.516875">
        <ele>1100.40</ele>
        <time>2018-08-06T19:56:48Z</time>
      </trkpt>
      <trkpt lat="27.940003" lon="-15.516836">
        <ele>1099.80</ele>
        <time>2018-08-06T19:56:49Z</time>
      </trkpt>
      <trkpt lat="27.940025" lon="-15.516806">
        <ele>1099.40</ele>
        <time>2018-08-06T19:56:50Z</time>
      </trkpt>
      <trkpt lat="27.940033" lon="-15.516768">
        <ele>1099.00</ele>
        <time>2018-08-06T19:56:51Z</time>
      </trkpt>
      <trkpt lat="27.940053" lon="-15.516738">
        <ele>1099.00</ele>
        <time>2018-08-06T19:56:52Z</time>
      </trkpt>
      <trkpt lat="27.940053" lon="-15.516700">
        <ele>1098.80</ele>
        <time>2018-08-06T19:56:53Z</time>
      </trkpt>
      <trkpt lat="27.940042" lon="-15.516666">
        <ele>1098.60</ele>
        <time>2018-08-06T19:56:54Z</time>
      </trkpt>
      <trkpt lat="27.940017" lon="-15.516640">
        <ele>1098.40</ele>
        <time>2018-08-06T19:56:55Z</time>
      </trkpt>
      <trkpt lat="27.939990" lon="-15.516615">
        <ele>1098.00</ele>
        <time>2018-08-06T19:56:56Z</time>
      </trkpt>
      <trkpt lat="27.939975" lon="-15.516602">
        <ele>1097.80</ele>
        <time>2018-08-06T19:56:57Z</time>
      </trkpt>
      <trkpt lat="27.939967" lon="-15.516593">
        <ele>1097.40</ele>
        <time>2018-08-06T19:56:58Z</time>
      </trkpt>
      <trkpt lat="27.939975" lon="-15.516590">
        <ele>1097.00</ele>
        <time>2018-08-06T19:56:59Z</time>
      </trkpt>
      <trkpt lat="27.939963" lon="-15.516557">
        <ele>1096.80</ele>
        <time>2018-08-06T19:57:00Z</time>
      </trkpt>
      <trkpt lat="27.939961" lon="-15.516523">
        <ele>1096.40</ele>
        <time>2018-08-06T19:57:01Z</time>
      </trkpt>
      <trkpt lat="27.939958" lon="-15.516482">
        <ele>1096.40</ele>
        <time>2018-08-06T19:57:02Z</time>
      </trkpt>
      <trkpt lat="27.939956" lon="-15.516443">
        <ele>1096.20</ele>
        <time>2018-08-06T19:57:03Z</time>
      </trkpt>
      <trkpt lat="27.939957" lon="-15.516408">
        <ele>1096.20</ele>
        <time>2018-08-06T19:57:04Z</time>
      </trkpt>
      <trkpt lat="27.939952" lon="-15.516371">
        <ele>1096.00</ele>
        <time>2018-08-06T19:57:05Z</time>
      </trkpt>
      <trkpt lat="27.939952" lon="-15.516338">
        <ele>1096.00</ele>
        <time>2018-08-06T19:57:06Z</time>
      </trkpt>
      <trkpt lat="27.939939" lon="-15.516297">
        <ele>1095.80</ele>
        <time>2018-08-06T19:57:07Z</time>
      </trkpt>
      <trkpt lat="27.939926" lon="-15.516260">
        <ele>1095.60</ele>
        <time>2018-08-06T19:57:08Z</time>
      </trkpt>
      <trkpt lat="27.939917" lon="-15.516224">
        <ele>1095.40</ele>
        <time>2018-08-06T19:57:09Z</time>
      </trkpt>
      <trkpt lat="27.939899" lon="-15.516187">
        <ele>1095.00</ele>
        <time>2018-08-06T19:57:10Z</time>
      </trkpt>
      <trkpt lat="27.939881" lon="-15.516153">
        <ele>1094.60</ele>
        <time>2018-08-06T19:57:11Z</time>
      </trkpt>
      <trkpt lat="27.939857" lon="-15.516124">
        <ele>1094.60</ele>
        <time>2018-08-06T19:57:12Z</time>
      </trkpt>
      <trkpt lat="27.939830" lon="-15.516102">
        <ele>1094.20</ele>
        <time>2018-08-06T19:57:13Z</time>
      </trkpt>
      <trkpt lat="27.939800" lon="-15.516083">
        <ele>1093.80</ele>
        <time>2018-08-06T19:57:14Z</time>
      </trkpt>
      <trkpt lat="27.939768" lon="-15.516065">
        <ele>1093.40</ele>
        <time>2018-08-06T19:57:15Z</time>
      </trkpt>
      <trkpt lat="27.939736" lon="-15.516049">
        <ele>1092.80</ele>
        <time>2018-08-06T19:57:16Z</time>
      </trkpt>
      <trkpt lat="27.939705" lon="-15.516031">
        <ele>1092.40</ele>
        <time>2018-08-06T19:57:17Z</time>
      </trkpt>
      <trkpt lat="27.939672" lon="-15.516013">
        <ele>1092.00</ele>
        <time>2018-08-06T19:57:18Z</time>
      </trkpt>
      <trkpt lat="27.939643" lon="-15.515992">
        <ele>1091.80</ele>
        <time>2018-08-06T19:57:19Z</time>
      </trkpt>
      <trkpt lat="27.939613" lon="-15.515968">
        <ele>1091.60</ele>
        <time>2018-08-06T19:57:20Z</time>
      </trkpt>
      <trkpt lat="27.939584" lon="-15.515943">
        <ele>1091.20</ele>
        <time>2018-08-06T19:57:21Z</time>
      </trkpt>
      <trkpt lat="27.939557" lon="-15.515914">
        <ele>1090.80</ele>
        <time>2018-08-06T19:57:22Z</time>
      </trkpt>
      <trkpt lat="27.939536" lon="-15.515880">
        <ele>1090.60</ele>
        <time>2018-08-06T19:57:23Z</time>
      </trkpt>
      <trkpt lat="27.939519" lon="-15.515840">
        <ele>1090.20</ele>
        <time>2018-08-06T19:57:24Z</time>
      </trkpt>
      <trkpt lat="27.939511" lon="-15.515799">
        <ele>1089.80</ele>
        <time>2018-08-06T19:57:25Z</time>
      </trkpt>
      <trkpt lat="27.939508" lon="-15.515761">
        <ele>1089.40</ele>
        <time>2018-08-06T19:57:26Z</time>
      </trkpt>
      <trkpt lat="27.939504" lon="-15.515725">
        <ele>1089.00</ele>
        <time>2018-08-06T19:57:27Z</time>
      </trkpt>
      <trkpt lat="27.939492" lon="-15.515690">
        <ele>1088.60</ele>
        <time>2018-08-06T19:57:28Z</time>
      </trkpt>
      <trkpt lat="27.939473" lon="-15.515661">
        <ele>1088.20</ele>
        <time>2018-08-06T19:57:29Z</time>
      </trkpt>
      <trkpt lat="27.939449" lon="-15.515632">
        <ele>1087.80</ele>
        <time>2018-08-06T19:57:30Z</time>
      </trkpt>
      <trkpt lat="27.939422" lon="-15.515604">
        <ele>1087.40</ele>
        <time>2018-08-06T19:57:31Z</time>
      </trkpt>
      <trkpt lat="27.939394" lon="-15.515576">
        <ele>1087.00</ele>
        <time>2018-08-06T19:57:32Z</time>
      </trkpt>
      <trkpt lat="27.939368" lon="-15.515551">
        <ele>1086.60</ele>
        <time>2018-08-06T19:57:33Z</time>
      </trkpt>
      <trkpt lat="27.939344" lon="-15.515524">
        <ele>1086.20</ele>
        <time>2018-08-06T19:57:34Z</time>
      </trkpt>
      <trkpt lat="27.939323" lon="-15.515495">
        <ele>1086.00</ele>
        <time>2018-08-06T19:57:35Z</time>
      </trkpt>
      <trkpt lat="27.939305" lon="-15.515467">
        <ele>1085.80</ele>
        <time>2018-08-06T19:57:36Z</time>
      </trkpt>
      <trkpt lat="27.939297" lon="-15.515438">
        <ele>1085.40</ele>
        <time>2018-08-06T19:57:37Z</time>
      </trkpt>
      <trkpt lat="27.939290" lon="-15.515406">
        <ele>1084.80</ele>
        <time>2018-08-06T19:57:38Z</time>
      </trkpt>
      <trkpt lat="27.939281" lon="-15.515371">
        <ele>1084.40</ele>
        <time>2018-08-06T19:57:39Z</time>
      </trkpt>
      <trkpt lat="27.939273" lon="-15.515329">
        <ele>1084.00</ele>
        <time>2018-08-06T19:57:40Z</time>
      </trkpt>
      <trkpt lat="27.939255" lon="-15.515291">
        <ele>1083.60</ele>
        <time>2018-08-06T19:57:41Z</time>
      </trkpt>
      <trkpt lat="27.939219" lon="-15.515268">
        <ele>1083.00</ele>
        <time>2018-08-06T19:57:42Z</time>
      </trkpt>
      <trkpt lat="27.939194" lon="-15.515242">
        <ele>1082.40</ele>
        <time>2018-08-06T19:57:43Z</time>
      </trkpt>
      <trkpt lat="27.939161" lon="-15.515226">
        <ele>1081.80</ele>
        <time>2018-08-06T19:57:44Z</time>
      </trkpt>
      <trkpt lat="27.939128" lon="-15.515209">
        <ele>1081.00</ele>
        <time>2018-08-06T19:57:45Z</time>
      </trkpt>
      <trkpt lat="27.939096" lon="-15.515188">
        <ele>1080.20</ele>
        <time>2018-08-06T19:57:46Z</time>
      </trkpt>
      <trkpt lat="27.939063" lon="-15.515168">
        <ele>1079.60</ele>
        <time>2018-08-06T19:57:47Z</time>
      </trkpt>
      <trkpt lat="27.939034" lon="-15.515145">
        <ele>1079.00</ele>
        <time>2018-08-06T19:57:48Z</time>
      </trkpt>
      <trkpt lat="27.939006" lon="-15.515121">
        <ele>1078.20</ele>
        <time>2018-08-06T19:57:49Z</time>
      </trkpt>
      <trkpt lat="27.938985" lon="-15.515092">
        <ele>1077.80</ele>
        <time>2018-08-06T19:57:50Z</time>
      </trkpt>
      <trkpt lat="27.938966" lon="-15.515062">
        <ele>1077.00</ele>
        <time>2018-08-06T19:57:51Z</time>
      </trkpt>
      <trkpt lat="27.938941" lon="-15.515038">
        <ele>1076.40</ele>
        <time>2018-08-06T19:57:52Z</time>
      </trkpt>
      <trkpt lat="27.938908" lon="-15.515011">
        <ele>1075.80</ele>
        <time>2018-08-06T19:57:53Z</time>
      </trkpt>
      <trkpt lat="27.938880" lon="-15.514983">
        <ele>1075.20</ele>
        <time>2018-08-06T19:57:54Z</time>
      </trkpt>
      <trkpt lat="27.938851" lon="-15.514957">
        <ele>1074.40</ele>
        <time>2018-08-06T19:57:55Z</time>
      </trkpt>
      <trkpt lat="27.938826" lon="-15.514929">
        <ele>1073.60</ele>
        <time>2018-08-06T19:57:56Z</time>
      </trkpt>
      <trkpt lat="27.938810" lon="-15.514897">
        <ele>1072.80</ele>
        <time>2018-08-06T19:57:57Z</time>
      </trkpt>
      <trkpt lat="27.938797" lon="-15.514863">
        <ele>1072.20</ele>
        <time>2018-08-06T19:57:58Z</time>
      </trkpt>
      <trkpt lat="27.938787" lon="-15.514826">
        <ele>1071.80</ele>
        <time>2018-08-06T19:57:59Z</time>
      </trkpt>
      <trkpt lat="27.938782" lon="-15.514791">
        <ele>1071.20</ele>
        <time>2018-08-06T19:58:00Z</time>
      </trkpt>
      <trkpt lat="27.938775" lon="-15.514753">
        <ele>1070.40</ele>
        <time>2018-08-06T19:58:01Z</time>
      </trkpt>
      <trkpt lat="27.938768" lon="-15.514724">
        <ele>1069.40</ele>
        <time>2018-08-06T19:58:02Z</time>
      </trkpt>
      <trkpt lat="27.938763" lon="-15.514695">
        <ele>1069.00</ele>
        <time>2018-08-06T19:58:03Z</time>
      </trkpt>
      <trkpt lat="27.938755" lon="-15.514667">
        <ele>1068.40</ele>
        <time>2018-08-06T19:58:04Z</time>
      </trkpt>
      <trkpt lat="27.938740" lon="-15.514644">
        <ele>1067.60</ele>
        <time>2018-08-06T19:58:05Z</time>
      </trkpt>
      <trkpt lat="27.938714" lon="-15.514653">
        <ele>1066.80</ele>
        <time>2018-08-06T19:58:06Z</time>
      </trkpt>
      <trkpt lat="27.938718" lon="-15.514678">
        <ele>1066.00</ele>
        <time>2018-08-06T19:58:07Z</time>
      </trkpt>
      <trkpt lat="27.938726" lon="-15.514714">
        <ele>1065.20</ele>
        <time>2018-08-06T19:58:08Z</time>
      </trkpt>
      <trkpt lat="27.938725" lon="-15.514755">
        <ele>1064.80</ele>
        <time>2018-08-06T19:58:09Z</time>
      </trkpt>
      <trkpt lat="27.938732" lon="-15.514796">
        <ele>1064.20</ele>
        <time>2018-08-06T19:58:10Z</time>
      </trkpt>
      <trkpt lat="27.938730" lon="-15.514836">
        <ele>1063.60</ele>
        <time>2018-08-06T19:58:11Z</time>
      </trkpt>
      <trkpt lat="27.938722" lon="-15.514875">
        <ele>1063.00</ele>
        <time>2018-08-06T19:58:12Z</time>
      </trkpt>
      <trkpt lat="27.938716" lon="-15.514916">
        <ele>1062.40</ele>
        <time>2018-08-06T19:58:13Z</time>
      </trkpt>
      <trkpt lat="27.938718" lon="-15.514956">
        <ele>1061.80</ele>
        <time>2018-08-06T19:58:14Z</time>
      </trkpt>
      <trkpt lat="27.938722" lon="-15.514996">
        <ele>1061.20</ele>
        <time>2018-08-06T19:58:15Z</time>
      </trkpt>
      <trkpt lat="27.938722" lon="-15.515035">
        <ele>1060.60</ele>
        <time>2018-08-06T19:58:16Z</time>
      </trkpt>
      <trkpt lat="27.938718" lon="-15.515070">
        <ele>1060.20</ele>
        <time>2018-08-06T19:58:17Z</time>
      </trkpt>
      <trkpt lat="27.938710" lon="-15.515097">
        <ele>1059.40</ele>
        <time>2018-08-06T19:58:18Z</time>
      </trkpt>
      <trkpt lat="27.938690" lon="-15.515104">
        <ele>1058.80</ele>
        <time>2018-08-06T19:58:19Z</time>
      </trkpt>
      <trkpt lat="27.938667" lon="-15.515089">
        <ele>1058.40</ele>
        <time>2018-08-06T19:58:20Z</time>
      </trkpt>
      <trkpt lat="27.938643" lon="-15.515061">
        <ele>1057.80</ele>
        <time>2018-08-06T19:58:21Z</time>
      </trkpt>
      <trkpt lat="27.938627" lon="-15.515022">
        <ele>1057.20</ele>
        <time>2018-08-06T19:58:22Z</time>
      </trkpt>
      <trkpt lat="27.938618" lon="-15.514980">
        <ele>1056.60</ele>
        <time>2018-08-06T19:58:23Z</time>
      </trkpt>
      <trkpt lat="27.938607" lon="-15.514938">
        <ele>1055.80</ele>
        <time>2018-08-06T19:58:24Z</time>
      </trkpt>
      <trkpt lat="27.938593" lon="-15.514899">
        <ele>1055.00</ele>
        <time>2018-08-06T19:58:25Z</time>
      </trkpt>
      <trkpt lat="27.938587" lon="-15.514857">
        <ele>1054.00</ele>
        <time>2018-08-06T19:58:26Z</time>
      </trkpt>
      <trkpt lat="27.938576" lon="-15.514817">
        <ele>1052.80</ele>
        <time>2018-08-06T19:58:27Z</time>
      </trkpt>
      <trkpt lat="27.938560" lon="-15.514775">
        <ele>1052.00</ele>
        <time>2018-08-06T19:58:28Z</time>
      </trkpt>
      <trkpt lat="27.938540" lon="-15.514738">
        <ele>1051.40</ele>
        <time>2018-08-06T19:58:29Z</time>
      </trkpt>
      <trkpt lat="27.938519" lon="-15.514706">
        <ele>1050.80</ele>
        <time>2018-08-06T19:58:30Z</time>
      </trkpt>
      <trkpt lat="27.938497" lon="-15.514679">
        <ele>1050.60</ele>
        <time>2018-08-06T19:58:31Z</time>
      </trkpt>
      <trkpt lat="27.938477" lon="-15.514654">
        <ele>1050.00</ele>
        <time>2018-08-06T19:58:32Z</time>
      </trkpt>
      <trkpt lat="27.938455" lon="-15.514631">
        <ele>1049.40</ele>
        <time>2018-08-06T19:58:33Z</time>
      </trkpt>
      <trkpt lat="27.938434" lon="-15.514608">
        <ele>1048.40</ele>
        <time>2018-08-06T19:58:34Z</time>
      </trkpt>
      <trkpt lat="27.938425" lon="-15.514566">
        <ele>1047.20</ele>
        <time>2018-08-06T19:58:35Z</time>
      </trkpt>
      <trkpt lat="27.938417" lon="-15.514526">
        <ele>1046.20</ele>
        <time>2018-08-06T19:58:36Z</time>
      </trkpt>
      <trkpt lat="27.938415" lon="-15.514484">
        <ele>1045.60</ele>
        <time>2018-08-06T19:58:37Z</time>
      </trkpt>
      <trkpt lat="27.938420" lon="-15.514449">
        <ele>1044.80</ele>
        <time>2018-08-06T19:58:38Z</time>
      </trkpt>
      <trkpt lat="27.938417" lon="-15.514416">
        <ele>1044.00</ele>
        <time>2018-08-06T19:58:39Z</time>
      </trkpt>
      <trkpt lat="27.938419" lon="-15.514385">
        <ele>1043.40</ele>
        <time>2018-08-06T19:58:40Z</time>
      </trkpt>
      <trkpt lat="27.938415" lon="-15.514352">
        <ele>1042.60</ele>
        <time>2018-08-06T19:58:41Z</time>
      </trkpt>
      <trkpt lat="27.938407" lon="-15.514315">
        <ele>1042.20</ele>
        <time>2018-08-06T19:58:42Z</time>
      </trkpt>
      <trkpt lat="27.938403" lon="-15.514281">
        <ele>1041.60</ele>
        <time>2018-08-06T19:58:43Z</time>
      </trkpt>
      <trkpt lat="27.938393" lon="-15.514242">
        <ele>1040.80</ele>
        <time>2018-08-06T19:58:44Z</time>
      </trkpt>
      <trkpt lat="27.938386" lon="-15.514205">
        <ele>1040.00</ele>
        <time>2018-08-06T19:58:45Z</time>
      </trkpt>
      <trkpt lat="27.938381" lon="-15.514171">
        <ele>1039.20</ele>
        <time>2018-08-06T19:58:46Z</time>
      </trkpt>
      <trkpt lat="27.938372" lon="-15.514138">
        <ele>1038.40</ele>
        <time>2018-08-06T19:58:47Z</time>
      </trkpt>
      <trkpt lat="27.938364" lon="-15.514107">
        <ele>1037.80</ele>
        <time>2018-08-06T19:58:48Z</time>
      </trkpt>
      <trkpt lat="27.938352" lon="-15.514071">
        <ele>1037.40</ele>
        <time>2018-08-06T19:58:49Z</time>
      </trkpt>
      <trkpt lat="27.938341" lon="-15.514039">
        <ele>1036.80</ele>
        <time>2018-08-06T19:58:50Z</time>
      </trkpt>
      <trkpt lat="27.938328" lon="-15.514007">
        <ele>1036.00</ele>
        <time>2018-08-06T19:58:51Z</time>
      </trkpt>
      <trkpt lat="27.938315" lon="-15.513971">
        <ele>1035.00</ele>
        <time>2018-08-06T19:58:52Z</time>
      </trkpt>
      <trkpt lat="27.938298" lon="-15.513943">
        <ele>1034.20</ele>
        <time>2018-08-06T19:58:53Z</time>
      </trkpt>
      <trkpt lat="27.938284" lon="-15.513908">
        <ele>1033.20</ele>
        <time>2018-08-06T19:58:54Z</time>
      </trkpt>
      <trkpt lat="27.938274" lon="-15.513874">
        <ele>1032.40</ele>
        <time>2018-08-06T19:58:55Z</time>
      </trkpt>
      <trkpt lat="27.938263" lon="-15.513828">
        <ele>1031.20</ele>
        <time>2018-08-06T19:58:56Z</time>
      </trkpt>
      <trkpt lat="27.938251" lon="-15.513781">
        <ele>1030.60</ele>
        <time>2018-08-06T19:58:57Z</time>
      </trkpt>
      <trkpt lat="27.938239" lon="-15.513734">
        <ele>1029.80</ele>
        <time>2018-08-06T19:58:58Z</time>
      </trkpt>
      <trkpt lat="27.938224" lon="-15.513687">
        <ele>1029.20</ele>
        <time>2018-08-06T19:58:59Z</time>
      </trkpt>
      <trkpt lat="27.938210" lon="-15.513645">
        <ele>1028.80</ele>
        <time>2018-08-06T19:59:00Z</time>
      </trkpt>
      <trkpt lat="27.938195" lon="-15.513601">
        <ele>1028.20</ele>
        <time>2018-08-06T19:59:01Z</time>
      </trkpt>
      <trkpt lat="27.938185" lon="-15.513558">
        <ele>1027.60</ele>
        <time>2018-08-06T19:59:02Z</time>
      </trkpt>
      <trkpt lat="27.938170" lon="-15.513512">
        <ele>1027.00</ele>
        <time>2018-08-06T19:59:03Z</time>
      </trkpt>
      <trkpt lat="27.938159" lon="-15.513466">
        <ele>1026.40</ele>
        <time>2018-08-06T19:59:04Z</time>
      </trkpt>
      <trkpt lat="27.938147" lon="-15.513421">
        <ele>1025.80</ele>
        <time>2018-08-06T19:59:05Z</time>
      </trkpt>
      <trkpt lat="27.938134" lon="-15.513376">
        <ele>1025.40</ele>
        <time>2018-08-06T19:59:06Z</time>
      </trkpt>
      <trkpt lat="27.938120" lon="-15.513332">
        <ele>1025.00</ele>
        <time>2018-08-06T19:59:07Z</time>
      </trkpt>
      <trkpt lat="27.938111" lon="-15.513289">
        <ele>1024.60</ele>
        <time>2018-08-06T19:59:08Z</time>
      </trkpt>
      <trkpt lat="27.938108" lon="-15.513246">
        <ele>1024.40</ele>
        <time>2018-08-06T19:59:09Z</time>
      </trkpt>
      <trkpt lat="27.938114" lon="-15.513203">
        <ele>1024.20</ele>
        <time>2018-08-06T19:59:10Z</time>
      </trkpt>
      <trkpt lat="27.938126" lon="-15.513159">
        <ele>1023.80</ele>
        <time>2018-08-06T19:59:11Z</time>
      </trkpt>
      <trkpt lat="27.938139" lon="-15.513117">
        <ele>1023.60</ele>
        <time>2018-08-06T19:59:12Z</time>
      </trkpt>
      <trkpt lat="27.938139" lon="-15.513073">
        <ele>1023.20</ele>
        <time>2018-08-06T19:59:13Z</time>
      </trkpt>
      <trkpt lat="27.938135" lon="-15.513030">
        <ele>1023.00</ele>
        <time>2018-08-06T19:59:14Z</time>
      </trkpt>
      <trkpt lat="27.938128" lon="-15.512987">
        <ele>1022.40</ele>
        <time>2018-08-06T19:59:15Z</time>
      </trkpt>
      <trkpt lat="27.938124" lon="-15.512946">
        <ele>1021.80</ele>
        <time>2018-08-06T19:59:16Z</time>
      </trkpt>
      <trkpt lat="27.938114" lon="-15.512903">
        <ele>1021.20</ele>
        <time>2018-08-06T19:59:17Z</time>
      </trkpt>
      <trkpt lat="27.938114" lon="-15.512864">
        <ele>1020.80</ele>
        <time>2018-08-06T19:59:18Z</time>
      </trkpt>
      <trkpt lat="27.938113" lon="-15.512824">
        <ele>1020.40</ele>
        <time>2018-08-06T19:59:19Z</time>
      </trkpt>
      <trkpt lat="27.938113" lon="-15.512787">
        <ele>1020.00</ele>
        <time>2018-08-06T19:59:20Z</time>
      </trkpt>
      <trkpt lat="27.938117" lon="-15.512751">
        <ele>1020.00</ele>
        <time>2018-08-06T19:59:21Z</time>
      </trkpt>
      <trkpt lat="27.938129" lon="-15.512719">
        <ele>1019.80</ele>
        <time>2018-08-06T19:59:22Z</time>
      </trkpt>
      <trkpt lat="27.938143" lon="-15.512684">
        <ele>1019.60</ele>
        <time>2018-08-06T19:59:23Z</time>
      </trkpt>
      <trkpt lat="27.938144" lon="-15.512652">
        <ele>1019.40</ele>
        <time>2018-08-06T19:59:24Z</time>
      </trkpt>
      <trkpt lat="27.938129" lon="-15.512629">
        <ele>1019.00</ele>
        <time>2018-08-06T19:59:25Z</time>
      </trkpt>
      <trkpt lat="27.938102" lon="-15.512627">
        <ele>1018.60</ele>
        <time>2018-08-06T19:59:26Z</time>
      </trkpt>
      <trkpt lat="27.938077" lon="-15.512645">
        <ele>1018.40</ele>
        <time>2018-08-06T19:59:27Z</time>
      </trkpt>
      <trkpt lat="27.938063" lon="-15.512678">
        <ele>1017.80</ele>
        <time>2018-08-06T19:59:28Z</time>
      </trkpt>
      <trkpt lat="27.938051" lon="-15.512715">
        <ele>1017.40</ele>
        <time>2018-08-06T19:59:29Z</time>
      </trkpt>
      <trkpt lat="27.938044" lon="-15.512758">
        <ele>1017.00</ele>
        <time>2018-08-06T19:59:30Z</time>
      </trkpt>
      <trkpt lat="27.938033" lon="-15.512792">
        <ele>1016.60</ele>
        <time>2018-08-06T19:59:31Z</time>
      </trkpt>
      <trkpt lat="27.938031" lon="-15.512830">
        <ele>1016.40</ele>
        <time>2018-08-06T19:59:32Z</time>
      </trkpt>
      <trkpt lat="27.938025" lon="-15.512867">
        <ele>1016.20</ele>
        <time>2018-08-06T19:59:33Z</time>
      </trkpt>
      <trkpt lat="27.938023" lon="-15.512906">
        <ele>1015.80</ele>
        <time>2018-08-06T19:59:34Z</time>
      </trkpt>
      <trkpt lat="27.938018" lon="-15.512942">
        <ele>1015.20</ele>
        <time>2018-08-06T19:59:35Z</time>
      </trkpt>
      <trkpt lat="27.938014" lon="-15.512978">
        <ele>1014.60</ele>
        <time>2018-08-06T19:59:36Z</time>
      </trkpt>
      <trkpt lat="27.938008" lon="-15.513012">
        <ele>1013.80</ele>
        <time>2018-08-06T19:59:37Z</time>
      </trkpt>
      <trkpt lat="27.937997" lon="-15.513044">
        <ele>1013.00</ele>
        <time>2018-08-06T19:59:38Z</time>
      </trkpt>
      <trkpt lat="27.937977" lon="-15.513070">
        <ele>1012.40</ele>
        <time>2018-08-06T19:59:39Z</time>
      </trkpt>
      <trkpt lat="27.937953" lon="-15.513090">
        <ele>1012.20</ele>
        <time>2018-08-06T19:59:40Z</time>
      </trkpt>
      <trkpt lat="27.937929" lon="-15.513108">
        <ele>1011.80</ele>
        <time>2018-08-06T19:59:41Z</time>
      </trkpt>
      <trkpt lat="27.937904" lon="-15.513126">
        <ele>1011.60</ele>
        <time>2018-08-06T19:59:42Z</time>
      </trkpt>
      <trkpt lat="27.937882" lon="-15.513146">
        <ele>1011.20</ele>
        <time>2018-08-06T19:59:43Z</time>
      </trkpt>
      <trkpt lat="27.937863" lon="-15.513167">
        <ele>1010.80</ele>
        <time>2018-08-06T19:59:44Z</time>
      </trkpt>
      <trkpt lat="27.937846" lon="-15.513190">
        <ele>1010.20</ele>
        <time>2018-08-06T19:59:45Z</time>
      </trkpt>
      <trkpt lat="27.937826" lon="-15.513215">
        <ele>1009.40</ele>
        <time>2018-08-06T19:59:46Z</time>
      </trkpt>
      <trkpt lat="27.937803" lon="-15.513231">
        <ele>1008.80</ele>
        <time>2018-08-06T19:59:47Z</time>
      </trkpt>
      <trkpt lat="27.937776" lon="-15.513240">
        <ele>1008.00</ele>
        <time>2018-08-06T19:59:48Z</time>
      </trkpt>
      <trkpt lat="27.937753" lon="-15.513233">
        <ele>1007.40</ele>
        <time>2018-08-06T19:59:49Z</time>
      </trkpt>
      <trkpt lat="27.937738" lon="-15.513212">
        <ele>1007.00</ele>
        <time>2018-08-06T19:59:50Z</time>
      </trkpt>
      <trkpt lat="27.937731" lon="-15.513179">
        <ele>1006.60</ele>
        <time>2018-08-06T19:59:51Z</time>
      </trkpt>
      <trkpt lat="27.937733" lon="-15.513140">
        <ele>1006.20</ele>
        <time>2018-08-06T19:59:52Z</time>
      </trkpt>
      <trkpt lat="27.937753" lon="-15.513100">
        <ele>1005.60</ele>
        <time>2018-08-06T19:59:53Z</time>
      </trkpt>
      <trkpt lat="27.937764" lon="-15.513062">
        <ele>1005.20</ele>
        <time>2018-08-06T19:59:54Z</time>
      </trkpt>
      <trkpt lat="27.937765" lon="-15.513019">
        <ele>1004.60</ele>
        <time>2018-08-06T19:59:55Z</time>
      </trkpt>
      <trkpt lat="27.937755" lon="-15.512984">
        <ele>1004.20</ele>
        <time>2018-08-06T19:59:56Z</time>
      </trkpt>
      <trkpt lat="27.937732" lon="-15.512961">
        <ele>1003.40</ele>
        <time>2018-08-06T19:59:57Z</time>
      </trkpt>
      <trkpt lat="27.937702" lon="-15.512949">
        <ele>1002.60</ele>
        <time>2018-08-06T19:59:58Z</time>
      </trkpt>
      <trkpt lat="27.937672" lon="-15.512942">
        <ele>1002.00</ele>
        <time>2018-08-06T19:59:59Z</time>
      </trkpt>
      <trkpt lat="27.937650" lon="-15.512939">
        <ele>1001.60</ele>
        <time>2018-08-06T20:00:00Z</time>
      </trkpt>
      <trkpt lat="27.937639" lon="-15.512930">
        <ele>1001.20</ele>
        <time>2018-08-06T20:00:01Z</time>
      </trkpt>
      <trkpt lat="27.937636" lon="-15.512913">
        <ele>1000.80</ele>
        <time>2018-08-06T20:00:02Z</time>
      </trkpt>
      <trkpt lat="27.937638" lon="-15.512897">
        <ele>1000.60</ele>
        <time>2018-08-06T20:00:03Z</time>
      </trkpt>
      <trkpt lat="27.937640" lon="-15.512884">
        <ele>1000.40</ele>
        <time>2018-08-06T20:00:04Z</time>
      </trkpt>
      <trkpt lat="27.937644" lon="-15.512874">
        <ele>999.80</ele>
        <time>2018-08-06T20:00:05Z</time>
      </trkpt>
      <trkpt lat="27.937638" lon="-15.512863">
        <ele>999.00</ele>
        <time>2018-08-06T20:00:06Z</time>
      </trkpt>
      <trkpt lat="27.937635" lon="-15.512851">
        <ele>997.80</ele>
        <time>2018-08-06T20:00:07Z</time>
      </trkpt>
      <trkpt lat="27.937633" lon="-15.512835">
        <ele>997.00</ele>
        <time>2018-08-06T20:00:08Z</time>
      </trkpt>
      <trkpt lat="27.937624" lon="-15.512818">
        <ele>996.20</ele>
        <time>2018-08-06T20:00:09Z</time>
      </trkpt>
      <trkpt lat="27.937615" lon="-15.512800">
        <ele>995.80</ele>
        <time>2018-08-06T20:00:10Z</time>
      </trkpt>
      <trkpt lat="27.937603" lon="-15.512780">
        <ele>995.40</ele>
        <time>2018-08-06T20:00:11Z</time>
      </trkpt>
      <trkpt lat="27.937591" lon="-15.512764">
        <ele>994.80</ele>
        <time>2018-08-06T20:00:12Z</time>
      </trkpt>
      <trkpt lat="27.937578" lon="-15.512751">
        <ele>994.00</ele>
        <time>2018-08-06T20:00:13Z</time>
      </trkpt>
      <trkpt lat="27.937569" lon="-15.512740">
        <ele>993.20</ele>
        <time>2018-08-06T20:00:14Z</time>
      </trkpt>
      <trkpt lat="27.937557" lon="-15.512726">
        <ele>992.80</ele>
        <time>2018-08-06T20:00:15Z</time>
      </trkpt>
      <trkpt lat="27.937540" lon="-15.512714">
        <ele>992.40</ele>
        <time>2018-08-06T20:00:16Z</time>
      </trkpt>
      <trkpt lat="27.937522" lon="-15.512704">
        <ele>991.80</ele>
        <time>2018-08-06T20:00:17Z</time>
      </trkpt>
      <trkpt lat="27.937510" lon="-15.512690">
        <ele>991.20</ele>
        <time>2018-08-06T20:00:18Z</time>
      </trkpt>
      <trkpt lat="27.937496" lon="-15.512675">
        <ele>990.20</ele>
        <time>2018-08-06T20:00:19Z</time>
      </trkpt>
      <trkpt lat="27.937486" lon="-15.512659">
        <ele>989.40</ele>
        <time>2018-08-06T20:00:20Z</time>
      </trkpt>
      <trkpt lat="27.937475" lon="-15.512645">
        <ele>988.40</ele>
        <time>2018-08-06T20:00:21Z</time>
      </trkpt>
      <trkpt lat="27.937463" lon="-15.512626">
        <ele>987.60</ele>
        <time>2018-08-06T20:00:22Z</time>
      </trkpt>
      <trkpt lat="27.937456" lon="-15.512608">
        <ele>986.80</ele>
        <time>2018-08-06T20:00:23Z</time>
      </trkpt>
      <trkpt lat="27.937447" lon="-15.512584">
        <ele>986.20</ele>
        <time>2018-08-06T20:00:24Z</time>
      </trkpt>
      <trkpt lat="27.937431" lon="-15.512572">
        <ele>985.60</ele>
        <time>2018-08-06T20:00:25Z</time>
      </trkpt>
      <trkpt lat="27.937415" lon="-15.512556">
        <ele>985.00</ele>
        <time>2018-08-06T20:00:26Z</time>
      </trkpt>
      <trkpt lat="27.937402" lon="-15.512523">
        <ele>984.40</ele>
        <time>2018-08-06T20:00:27Z</time>
      </trkpt>
      <trkpt lat="27.937391" lon="-15.512483">
        <ele>983.80</ele>
        <time>2018-08-06T20:00:28Z</time>
      </trkpt>
      <trkpt lat="27.937382" lon="-15.512445">
        <ele>983.00</ele>
        <time>2018-08-06T20:00:29Z</time>
      </trkpt>
      <trkpt lat="27.937368" lon="-15.512412">
        <ele>982.60</ele>
        <time>2018-08-06T20:00:30Z</time>
      </trkpt>
      <trkpt lat="27.937353" lon="-15.512382">
        <ele>982.40</ele>
        <time>2018-08-06T20:00:31Z</time>
      </trkpt>
      <trkpt lat="27.937337" lon="-15.512355">
        <ele>982.00</ele>
        <time>2018-08-06T20:00:32Z</time>
      </trkpt>
      <trkpt lat="27.937317" lon="-15.512328">
        <ele>981.60</ele>
        <time>2018-08-06T20:00:33Z</time>
      </trkpt>
      <trkpt lat="27.937295" lon="-15.512301">
        <ele>981.00</ele>
        <time>2018-08-06T20:00:34Z</time>
      </trkpt>
      <trkpt lat="27.937271" lon="-15.512270">
        <ele>980.20</ele>
        <time>2018-08-06T20:00:35Z</time>
      </trkpt>
      <trkpt lat="27.937242" lon="-15.512236">
        <ele>979.40</ele>
        <time>2018-08-06T20:00:36Z</time>
      </trkpt>
    </trkseg>
  </trk>
</gpx>
